<?xml version="1.0" encoding="UTF-8" standalone="no" ?>
<gpx xmlns="http://www.topografix.com/GPX/1/1" xmlns:xsi="http://www.w3.org/2001/XMLSchema-instance" xsi:schemaLocation="http://www.topografix.com/GPX/1/1 http://www.topografix.com/GPX/1/1/gpx.xsd" version="1.1" creator="VisuGPX - https://www.visugpx.com">
  <metadata>
    <name>Afternoon Run</name>
  </metadata>
  <trk>
    <name><![CDATA[Afternoon Run_1]]></name>
    <trkseg>
      <trkpt lat="45.12934" lon="1.30428">
        <ele>87.5</ele>
        <time>2023-10-28T12:12:04Z</time>
      </trkpt>
      <trkpt lat="45.12934" lon="1.30429">
        <ele>87.5</ele>
        <time>2023-10-28T12:12:05Z</time>
      </trkpt>
      <trkpt lat="45.12934" lon="1.3043">
        <ele>87.5</ele>
        <time>2023-10-28T12:12:06Z</time>
      </trkpt>
      <trkpt lat="45.12933" lon="1.3043">
        <ele>87.5</ele>
        <time>2023-10-28T12:12:07Z</time>
      </trkpt>
      <trkpt lat="45.12933" lon="1.30431">
        <ele>87.5</ele>
        <time>2023-10-28T12:12:08Z</time>
      </trkpt>
      <trkpt lat="45.12933" lon="1.30432">
        <ele>87.5</ele>
        <time>2023-10-28T12:12:09Z</time>
      </trkpt>
      <trkpt lat="45.12932" lon="1.30432">
        <ele>87.5</ele>
        <time>2023-10-28T12:12:10Z</time>
      </trkpt>
      <trkpt lat="45.12932" lon="1.30433">
        <ele>87.5</ele>
        <time>2023-10-28T12:12:11Z</time>
      </trkpt>
      <trkpt lat="45.12931" lon="1.30435">
        <ele>87.5</ele>
        <time>2023-10-28T12:12:12Z</time>
      </trkpt>
      <trkpt lat="45.1293" lon="1.30437">
        <ele>87.4</ele>
        <time>2023-10-28T12:12:13Z</time>
      </trkpt>
      <trkpt lat="45.12929" lon="1.30439">
        <ele>87.4</ele>
        <time>2023-10-28T12:12:14Z</time>
      </trkpt>
      <trkpt lat="45.12928" lon="1.30442">
        <ele>87.4</ele>
        <time>2023-10-28T12:12:15Z</time>
      </trkpt>
      <trkpt lat="45.12927" lon="1.30444">
        <ele>87.4</ele>
        <time>2023-10-28T12:12:16Z</time>
      </trkpt>
      <trkpt lat="45.12925" lon="1.30447">
        <ele>87.4</ele>
        <time>2023-10-28T12:12:17Z</time>
      </trkpt>
      <trkpt lat="45.12924" lon="1.3045">
        <ele>87.4</ele>
        <time>2023-10-28T12:12:18Z</time>
      </trkpt>
      <trkpt lat="45.12923" lon="1.30453">
        <ele>87.4</ele>
        <time>2023-10-28T12:12:19Z</time>
      </trkpt>
      <trkpt lat="45.12922" lon="1.30456">
        <ele>87.3</ele>
        <time>2023-10-28T12:12:20Z</time>
      </trkpt>
      <trkpt lat="45.1292" lon="1.30459">
        <ele>87.3</ele>
        <time>2023-10-28T12:12:21Z</time>
      </trkpt>
      <trkpt lat="45.12919" lon="1.30462">
        <ele>87.3</ele>
        <time>2023-10-28T12:12:22Z</time>
      </trkpt>
      <trkpt lat="45.12917" lon="1.30464">
        <ele>87.3</ele>
        <time>2023-10-28T12:12:23Z</time>
      </trkpt>
      <trkpt lat="45.12916" lon="1.30467">
        <ele>87.3</ele>
        <time>2023-10-28T12:12:24Z</time>
      </trkpt>
      <trkpt lat="45.12915" lon="1.30469">
        <ele>87.3</ele>
        <time>2023-10-28T12:12:25Z</time>
      </trkpt>
      <trkpt lat="45.12914" lon="1.30471">
        <ele>87.5</ele>
        <time>2023-10-28T12:12:26Z</time>
      </trkpt>
      <trkpt lat="45.12912" lon="1.30473">
        <ele>87.5</ele>
        <time>2023-10-28T12:12:27Z</time>
      </trkpt>
      <trkpt lat="45.12911" lon="1.30475">
        <ele>87.5</ele>
        <time>2023-10-28T12:12:28Z</time>
      </trkpt>
      <trkpt lat="45.12909" lon="1.30477">
        <ele>87.6</ele>
        <time>2023-10-28T12:12:29Z</time>
      </trkpt>
      <trkpt lat="45.12908" lon="1.30479">
        <ele>87.6</ele>
        <time>2023-10-28T12:12:30Z</time>
      </trkpt>
      <trkpt lat="45.12906" lon="1.30481">
        <ele>87.7</ele>
        <time>2023-10-28T12:12:31Z</time>
      </trkpt>
      <trkpt lat="45.12904" lon="1.30482">
        <ele>87.8</ele>
        <time>2023-10-28T12:12:32Z</time>
      </trkpt>
      <trkpt lat="45.12902" lon="1.30484">
        <ele>87.9</ele>
        <time>2023-10-28T12:12:33Z</time>
      </trkpt>
      <trkpt lat="45.129" lon="1.30485">
        <ele>88</ele>
        <time>2023-10-28T12:12:34Z</time>
      </trkpt>
      <trkpt lat="45.12898" lon="1.30486">
        <ele>88.1</ele>
        <time>2023-10-28T12:12:35Z</time>
      </trkpt>
      <trkpt lat="45.12896" lon="1.30487">
        <ele>88.2</ele>
        <time>2023-10-28T12:12:36Z</time>
      </trkpt>
      <trkpt lat="45.12894" lon="1.30488">
        <ele>88.3</ele>
        <time>2023-10-28T12:12:37Z</time>
      </trkpt>
      <trkpt lat="45.12892" lon="1.30489">
        <ele>88.4</ele>
        <time>2023-10-28T12:12:38Z</time>
      </trkpt>
      <trkpt lat="45.1289" lon="1.3049">
        <ele>88.6</ele>
        <time>2023-10-28T12:12:39Z</time>
      </trkpt>
      <trkpt lat="45.12888" lon="1.3049">
        <ele>88.7</ele>
        <time>2023-10-28T12:12:40Z</time>
      </trkpt>
      <trkpt lat="45.12886" lon="1.30491">
        <ele>88.8</ele>
        <time>2023-10-28T12:12:41Z</time>
      </trkpt>
      <trkpt lat="45.12884" lon="1.30492">
        <ele>88.9</ele>
        <time>2023-10-28T12:12:42Z</time>
      </trkpt>
      <trkpt lat="45.12882" lon="1.30493">
        <ele>89.1</ele>
        <time>2023-10-28T12:12:43Z</time>
      </trkpt>
      <trkpt lat="45.1288" lon="1.30494">
        <ele>89.2</ele>
        <time>2023-10-28T12:12:44Z</time>
      </trkpt>
      <trkpt lat="45.12878" lon="1.30495">
        <ele>89.3</ele>
        <time>2023-10-28T12:12:45Z</time>
      </trkpt>
      <trkpt lat="45.12875" lon="1.30496">
        <ele>89.5</ele>
        <time>2023-10-28T12:12:46Z</time>
      </trkpt>
      <trkpt lat="45.12873" lon="1.30497">
        <ele>89.6</ele>
        <time>2023-10-28T12:12:47Z</time>
      </trkpt>
      <trkpt lat="45.12871" lon="1.30498">
        <ele>89.7</ele>
        <time>2023-10-28T12:12:48Z</time>
      </trkpt>
      <trkpt lat="45.12868" lon="1.30499">
        <ele>89.9</ele>
        <time>2023-10-28T12:12:49Z</time>
      </trkpt>
      <trkpt lat="45.12866" lon="1.305">
        <ele>90</ele>
        <time>2023-10-28T12:12:50Z</time>
      </trkpt>
      <trkpt lat="45.12864" lon="1.30501">
        <ele>90.1</ele>
        <time>2023-10-28T12:12:51Z</time>
      </trkpt>
      <trkpt lat="45.12862" lon="1.30502">
        <ele>90.1</ele>
        <time>2023-10-28T12:12:52Z</time>
      </trkpt>
      <trkpt lat="45.12859" lon="1.30503">
        <ele>90.2</ele>
        <time>2023-10-28T12:12:53Z</time>
      </trkpt>
      <trkpt lat="45.12857" lon="1.30504">
        <ele>90.3</ele>
        <time>2023-10-28T12:12:54Z</time>
      </trkpt>
      <trkpt lat="45.12855" lon="1.30505">
        <ele>90.4</ele>
        <time>2023-10-28T12:12:55Z</time>
      </trkpt>
      <trkpt lat="45.12853" lon="1.30505">
        <ele>90.4</ele>
        <time>2023-10-28T12:12:56Z</time>
      </trkpt>
      <trkpt lat="45.1285" lon="1.30506">
        <ele>90.4</ele>
        <time>2023-10-28T12:12:57Z</time>
      </trkpt>
      <trkpt lat="45.12848" lon="1.30507">
        <ele>90.4</ele>
        <time>2023-10-28T12:12:58Z</time>
      </trkpt>
      <trkpt lat="45.12846" lon="1.30508">
        <ele>90.5</ele>
        <time>2023-10-28T12:12:59Z</time>
      </trkpt>
      <trkpt lat="45.12844" lon="1.30509">
        <ele>90.5</ele>
        <time>2023-10-28T12:13:00Z</time>
      </trkpt>
      <trkpt lat="45.12842" lon="1.30509">
        <ele>90.4</ele>
        <time>2023-10-28T12:13:01Z</time>
      </trkpt>
      <trkpt lat="45.1284" lon="1.3051">
        <ele>90.4</ele>
        <time>2023-10-28T12:13:02Z</time>
      </trkpt>
      <trkpt lat="45.12838" lon="1.30511">
        <ele>90.4</ele>
        <time>2023-10-28T12:13:03Z</time>
      </trkpt>
      <trkpt lat="45.12835" lon="1.30511">
        <ele>90.4</ele>
        <time>2023-10-28T12:13:04Z</time>
      </trkpt>
      <trkpt lat="45.12833" lon="1.30512">
        <ele>90.3</ele>
        <time>2023-10-28T12:13:05Z</time>
      </trkpt>
      <trkpt lat="45.12831" lon="1.30513">
        <ele>90.3</ele>
        <time>2023-10-28T12:13:06Z</time>
      </trkpt>
      <trkpt lat="45.12829" lon="1.30513">
        <ele>90.2</ele>
        <time>2023-10-28T12:13:07Z</time>
      </trkpt>
      <trkpt lat="45.12827" lon="1.30514">
        <ele>90.1</ele>
        <time>2023-10-28T12:13:08Z</time>
      </trkpt>
      <trkpt lat="45.12824" lon="1.30515">
        <ele>90.1</ele>
        <time>2023-10-28T12:13:09Z</time>
      </trkpt>
      <trkpt lat="45.12822" lon="1.30516">
        <ele>90</ele>
        <time>2023-10-28T12:13:10Z</time>
      </trkpt>
      <trkpt lat="45.1282" lon="1.30517">
        <ele>89.9</ele>
        <time>2023-10-28T12:13:11Z</time>
      </trkpt>
      <trkpt lat="45.12817" lon="1.30518">
        <ele>89.9</ele>
        <time>2023-10-28T12:13:12Z</time>
      </trkpt>
      <trkpt lat="45.12816" lon="1.30519">
        <ele>89.8</ele>
        <time>2023-10-28T12:13:13Z</time>
      </trkpt>
      <trkpt lat="45.12813" lon="1.30519">
        <ele>89.7</ele>
        <time>2023-10-28T12:13:14Z</time>
      </trkpt>
      <trkpt lat="45.12811" lon="1.3052">
        <ele>89.7</ele>
        <time>2023-10-28T12:13:15Z</time>
      </trkpt>
      <trkpt lat="45.12809" lon="1.30522">
        <ele>89.6</ele>
        <time>2023-10-28T12:13:16Z</time>
      </trkpt>
      <trkpt lat="45.12807" lon="1.30523">
        <ele>89.6</ele>
        <time>2023-10-28T12:13:17Z</time>
      </trkpt>
      <trkpt lat="45.12806" lon="1.30524">
        <ele>89.6</ele>
        <time>2023-10-28T12:13:18Z</time>
      </trkpt>
      <trkpt lat="45.12804" lon="1.30525">
        <ele>89.6</ele>
        <time>2023-10-28T12:13:19Z</time>
      </trkpt>
      <trkpt lat="45.12803" lon="1.30525">
        <ele>89.5</ele>
        <time>2023-10-28T12:13:20Z</time>
      </trkpt>
      <trkpt lat="45.12802" lon="1.30526">
        <ele>89.5</ele>
        <time>2023-10-28T12:13:21Z</time>
      </trkpt>
      <trkpt lat="45.12801" lon="1.30527">
        <ele>89.5</ele>
        <time>2023-10-28T12:13:22Z</time>
      </trkpt>
      <trkpt lat="45.128" lon="1.30527">
        <ele>89.5</ele>
        <time>2023-10-28T12:13:23Z</time>
      </trkpt>
      <trkpt lat="45.128" lon="1.30527">
        <ele>89.5</ele>
        <time>2023-10-28T12:13:24Z</time>
      </trkpt>
      <trkpt lat="45.128" lon="1.30527">
        <ele>89.5</ele>
        <time>2023-10-28T12:13:25Z</time>
      </trkpt>
      <trkpt lat="45.128" lon="1.30527">
        <ele>89.5</ele>
        <time>2023-10-28T12:13:26Z</time>
      </trkpt>
      <trkpt lat="45.128" lon="1.30527">
        <ele>89.5</ele>
        <time>2023-10-28T12:13:27Z</time>
      </trkpt>
      <trkpt lat="45.128" lon="1.30527">
        <ele>89.5</ele>
        <time>2023-10-28T12:13:28Z</time>
      </trkpt>
      <trkpt lat="45.128" lon="1.30527">
        <ele>89.5</ele>
        <time>2023-10-28T12:13:29Z</time>
      </trkpt>
      <trkpt lat="45.128" lon="1.30527">
        <ele>89.5</ele>
        <time>2023-10-28T12:13:30Z</time>
      </trkpt>
      <trkpt lat="45.128" lon="1.30527">
        <ele>89.5</ele>
        <time>2023-10-28T12:13:31Z</time>
      </trkpt>
      <trkpt lat="45.128" lon="1.30527">
        <ele>89.5</ele>
        <time>2023-10-28T12:13:32Z</time>
      </trkpt>
      <trkpt lat="45.128" lon="1.30527">
        <ele>89.5</ele>
        <time>2023-10-28T12:13:33Z</time>
      </trkpt>
      <trkpt lat="45.12798" lon="1.30529">
        <ele>89.5</ele>
        <time>2023-10-28T12:13:34Z</time>
      </trkpt>
      <trkpt lat="45.12798" lon="1.30529">
        <ele>89.5</ele>
        <time>2023-10-28T12:13:35Z</time>
      </trkpt>
      <trkpt lat="45.12798" lon="1.30529">
        <ele>89.5</ele>
        <time>2023-10-28T12:13:36Z</time>
      </trkpt>
      <trkpt lat="45.12797" lon="1.30529">
        <ele>89.5</ele>
        <time>2023-10-28T12:13:37Z</time>
      </trkpt>
      <trkpt lat="45.12796" lon="1.30529">
        <ele>89.5</ele>
        <time>2023-10-28T12:13:38Z</time>
      </trkpt>
      <trkpt lat="45.12795" lon="1.30528">
        <ele>89.5</ele>
        <time>2023-10-28T12:13:39Z</time>
      </trkpt>
      <trkpt lat="45.12795" lon="1.30528">
        <ele>89.5</ele>
        <time>2023-10-28T12:13:40Z</time>
      </trkpt>
      <trkpt lat="45.12794" lon="1.30528">
        <ele>89.5</ele>
        <time>2023-10-28T12:13:41Z</time>
      </trkpt>
      <trkpt lat="45.12794" lon="1.30528">
        <ele>89.5</ele>
        <time>2023-10-28T12:13:42Z</time>
      </trkpt>
      <trkpt lat="45.12793" lon="1.30528">
        <ele>89.5</ele>
        <time>2023-10-28T12:13:43Z</time>
      </trkpt>
      <trkpt lat="45.12792" lon="1.30528">
        <ele>89.5</ele>
        <time>2023-10-28T12:13:44Z</time>
      </trkpt>
      <trkpt lat="45.12792" lon="1.30528">
        <ele>89.5</ele>
        <time>2023-10-28T12:13:45Z</time>
      </trkpt>
      <trkpt lat="45.12791" lon="1.30528">
        <ele>89.5</ele>
        <time>2023-10-28T12:13:46Z</time>
      </trkpt>
      <trkpt lat="45.1279" lon="1.30528">
        <ele>89.5</ele>
        <time>2023-10-28T12:13:47Z</time>
      </trkpt>
      <trkpt lat="45.1279" lon="1.30528">
        <ele>89.5</ele>
        <time>2023-10-28T12:13:48Z</time>
      </trkpt>
      <trkpt lat="45.12789" lon="1.30528">
        <ele>89.5</ele>
        <time>2023-10-28T12:13:49Z</time>
      </trkpt>
      <trkpt lat="45.12789" lon="1.30528">
        <ele>89.5</ele>
        <time>2023-10-28T12:13:50Z</time>
      </trkpt>
      <trkpt lat="45.12788" lon="1.30528">
        <ele>89.4</ele>
        <time>2023-10-28T12:13:51Z</time>
      </trkpt>
      <trkpt lat="45.12787" lon="1.30527">
        <ele>89.4</ele>
        <time>2023-10-28T12:13:52Z</time>
      </trkpt>
      <trkpt lat="45.12787" lon="1.30527">
        <ele>89.4</ele>
        <time>2023-10-28T12:13:53Z</time>
      </trkpt>
      <trkpt lat="45.12786" lon="1.30527">
        <ele>89.4</ele>
        <time>2023-10-28T12:13:54Z</time>
      </trkpt>
      <trkpt lat="45.12785" lon="1.30527">
        <ele>89.4</ele>
        <time>2023-10-28T12:13:55Z</time>
      </trkpt>
      <trkpt lat="45.12785" lon="1.30527">
        <ele>89.4</ele>
        <time>2023-10-28T12:13:56Z</time>
      </trkpt>
      <trkpt lat="45.12784" lon="1.30527">
        <ele>89.4</ele>
        <time>2023-10-28T12:13:57Z</time>
      </trkpt>
      <trkpt lat="45.12786" lon="1.30527">
        <ele>89.4</ele>
        <time>2023-10-28T12:13:58Z</time>
      </trkpt>
      <trkpt lat="45.12788" lon="1.30526">
        <ele>89.3</ele>
        <time>2023-10-28T12:13:59Z</time>
      </trkpt>
      <trkpt lat="45.12791" lon="1.30526">
        <ele>89.3</ele>
        <time>2023-10-28T12:14:00Z</time>
      </trkpt>
      <trkpt lat="45.12793" lon="1.30527">
        <ele>89.2</ele>
        <time>2023-10-28T12:14:01Z</time>
      </trkpt>
      <trkpt lat="45.12796" lon="1.30527">
        <ele>89.2</ele>
        <time>2023-10-28T12:14:02Z</time>
      </trkpt>
      <trkpt lat="45.12798" lon="1.30528">
        <ele>89.2</ele>
        <time>2023-10-28T12:14:03Z</time>
      </trkpt>
      <trkpt lat="45.128" lon="1.30529">
        <ele>89.1</ele>
        <time>2023-10-28T12:14:04Z</time>
      </trkpt>
      <trkpt lat="45.12801" lon="1.30532">
        <ele>89.1</ele>
        <time>2023-10-28T12:14:05Z</time>
      </trkpt>
      <trkpt lat="45.12802" lon="1.30534">
        <ele>89.1</ele>
        <time>2023-10-28T12:14:06Z</time>
      </trkpt>
      <trkpt lat="45.12802" lon="1.30538">
        <ele>89</ele>
        <time>2023-10-28T12:14:07Z</time>
      </trkpt>
      <trkpt lat="45.12803" lon="1.30541">
        <ele>89</ele>
        <time>2023-10-28T12:14:08Z</time>
      </trkpt>
      <trkpt lat="45.12803" lon="1.30545">
        <ele>88.9</ele>
        <time>2023-10-28T12:14:09Z</time>
      </trkpt>
      <trkpt lat="45.12804" lon="1.30548">
        <ele>88.9</ele>
        <time>2023-10-28T12:14:10Z</time>
      </trkpt>
      <trkpt lat="45.12805" lon="1.30552">
        <ele>88.9</ele>
        <time>2023-10-28T12:14:11Z</time>
      </trkpt>
      <trkpt lat="45.12806" lon="1.30556">
        <ele>88.8</ele>
        <time>2023-10-28T12:14:12Z</time>
      </trkpt>
      <trkpt lat="45.12806" lon="1.3056">
        <ele>88.8</ele>
        <time>2023-10-28T12:14:13Z</time>
      </trkpt>
      <trkpt lat="45.12808" lon="1.30564">
        <ele>88.8</ele>
        <time>2023-10-28T12:14:14Z</time>
      </trkpt>
      <trkpt lat="45.12809" lon="1.30568">
        <ele>88.8</ele>
        <time>2023-10-28T12:14:15Z</time>
      </trkpt>
      <trkpt lat="45.1281" lon="1.30571">
        <ele>88.8</ele>
        <time>2023-10-28T12:14:16Z</time>
      </trkpt>
      <trkpt lat="45.12811" lon="1.30575">
        <ele>88.8</ele>
        <time>2023-10-28T12:14:17Z</time>
      </trkpt>
      <trkpt lat="45.12812" lon="1.30579">
        <ele>88.8</ele>
        <time>2023-10-28T12:14:18Z</time>
      </trkpt>
      <trkpt lat="45.12812" lon="1.30582">
        <ele>88.8</ele>
        <time>2023-10-28T12:14:19Z</time>
      </trkpt>
      <trkpt lat="45.12813" lon="1.30585">
        <ele>88.8</ele>
        <time>2023-10-28T12:14:20Z</time>
      </trkpt>
      <trkpt lat="45.12812" lon="1.30588">
        <ele>88.8</ele>
        <time>2023-10-28T12:14:21Z</time>
      </trkpt>
      <trkpt lat="45.12812" lon="1.30591">
        <ele>88.8</ele>
        <time>2023-10-28T12:14:22Z</time>
      </trkpt>
      <trkpt lat="45.12811" lon="1.30594">
        <ele>88.8</ele>
        <time>2023-10-28T12:14:23Z</time>
      </trkpt>
      <trkpt lat="45.12811" lon="1.30597">
        <ele>88.8</ele>
        <time>2023-10-28T12:14:24Z</time>
      </trkpt>
      <trkpt lat="45.12811" lon="1.306">
        <ele>88.9</ele>
        <time>2023-10-28T12:14:25Z</time>
      </trkpt>
      <trkpt lat="45.12811" lon="1.30602">
        <ele>88.9</ele>
        <time>2023-10-28T12:14:26Z</time>
      </trkpt>
      <trkpt lat="45.12812" lon="1.30605">
        <ele>88.9</ele>
        <time>2023-10-28T12:14:27Z</time>
      </trkpt>
      <trkpt lat="45.12814" lon="1.30608">
        <ele>88.9</ele>
        <time>2023-10-28T12:14:28Z</time>
      </trkpt>
      <trkpt lat="45.12815" lon="1.30611">
        <ele>89</ele>
        <time>2023-10-28T12:14:29Z</time>
      </trkpt>
      <trkpt lat="45.12817" lon="1.30614">
        <ele>89</ele>
        <time>2023-10-28T12:14:30Z</time>
      </trkpt>
      <trkpt lat="45.12818" lon="1.30617">
        <ele>89.1</ele>
        <time>2023-10-28T12:14:31Z</time>
      </trkpt>
      <trkpt lat="45.12819" lon="1.3062">
        <ele>89.2</ele>
        <time>2023-10-28T12:14:32Z</time>
      </trkpt>
      <trkpt lat="45.1282" lon="1.30624">
        <ele>89.2</ele>
        <time>2023-10-28T12:14:33Z</time>
      </trkpt>
      <trkpt lat="45.12821" lon="1.30627">
        <ele>89.3</ele>
        <time>2023-10-28T12:14:34Z</time>
      </trkpt>
      <trkpt lat="45.12822" lon="1.30631">
        <ele>89.4</ele>
        <time>2023-10-28T12:14:35Z</time>
      </trkpt>
      <trkpt lat="45.12824" lon="1.30634">
        <ele>89.5</ele>
        <time>2023-10-28T12:14:36Z</time>
      </trkpt>
      <trkpt lat="45.12825" lon="1.30637">
        <ele>89.5</ele>
        <time>2023-10-28T12:14:37Z</time>
      </trkpt>
      <trkpt lat="45.12826" lon="1.30641">
        <ele>89.6</ele>
        <time>2023-10-28T12:14:38Z</time>
      </trkpt>
      <trkpt lat="45.12827" lon="1.30644">
        <ele>89.6</ele>
        <time>2023-10-28T12:14:39Z</time>
      </trkpt>
      <trkpt lat="45.12828" lon="1.30647">
        <ele>89.7</ele>
        <time>2023-10-28T12:14:40Z</time>
      </trkpt>
      <trkpt lat="45.12829" lon="1.3065">
        <ele>89.7</ele>
        <time>2023-10-28T12:14:41Z</time>
      </trkpt>
      <trkpt lat="45.1283" lon="1.30654">
        <ele>89.8</ele>
        <time>2023-10-28T12:14:42Z</time>
      </trkpt>
      <trkpt lat="45.1283" lon="1.30657">
        <ele>89.8</ele>
        <time>2023-10-28T12:14:43Z</time>
      </trkpt>
      <trkpt lat="45.12832" lon="1.3066">
        <ele>89.9</ele>
        <time>2023-10-28T12:14:44Z</time>
      </trkpt>
      <trkpt lat="45.12832" lon="1.30663">
        <ele>89.9</ele>
        <time>2023-10-28T12:14:45Z</time>
      </trkpt>
      <trkpt lat="45.12833" lon="1.30666">
        <ele>89.9</ele>
        <time>2023-10-28T12:14:46Z</time>
      </trkpt>
      <trkpt lat="45.12835" lon="1.30669">
        <ele>89.9</ele>
        <time>2023-10-28T12:14:47Z</time>
      </trkpt>
      <trkpt lat="45.12835" lon="1.30672">
        <ele>89.9</ele>
        <time>2023-10-28T12:14:48Z</time>
      </trkpt>
      <trkpt lat="45.12837" lon="1.30675">
        <ele>89.9</ele>
        <time>2023-10-28T12:14:49Z</time>
      </trkpt>
      <trkpt lat="45.12838" lon="1.30678">
        <ele>89.9</ele>
        <time>2023-10-28T12:14:50Z</time>
      </trkpt>
      <trkpt lat="45.1284" lon="1.3068">
        <ele>89.9</ele>
        <time>2023-10-28T12:14:51Z</time>
      </trkpt>
      <trkpt lat="45.12841" lon="1.30683">
        <ele>90</ele>
        <time>2023-10-28T12:14:52Z</time>
      </trkpt>
      <trkpt lat="45.12842" lon="1.30686">
        <ele>90</ele>
        <time>2023-10-28T12:14:53Z</time>
      </trkpt>
      <trkpt lat="45.12843" lon="1.30689">
        <ele>90</ele>
        <time>2023-10-28T12:14:54Z</time>
      </trkpt>
      <trkpt lat="45.12843" lon="1.30693">
        <ele>90</ele>
        <time>2023-10-28T12:14:55Z</time>
      </trkpt>
      <trkpt lat="45.12844" lon="1.30696">
        <ele>90</ele>
        <time>2023-10-28T12:14:56Z</time>
      </trkpt>
      <trkpt lat="45.12845" lon="1.307">
        <ele>90</ele>
        <time>2023-10-28T12:14:57Z</time>
      </trkpt>
      <trkpt lat="45.12845" lon="1.30703">
        <ele>90</ele>
        <time>2023-10-28T12:14:58Z</time>
      </trkpt>
      <trkpt lat="45.12846" lon="1.30706">
        <ele>90</ele>
        <time>2023-10-28T12:14:59Z</time>
      </trkpt>
      <trkpt lat="45.12846" lon="1.30709">
        <ele>90</ele>
        <time>2023-10-28T12:15:00Z</time>
      </trkpt>
      <trkpt lat="45.12847" lon="1.30712">
        <ele>90</ele>
        <time>2023-10-28T12:15:01Z</time>
      </trkpt>
      <trkpt lat="45.12848" lon="1.30715">
        <ele>90</ele>
        <time>2023-10-28T12:15:02Z</time>
      </trkpt>
      <trkpt lat="45.12848" lon="1.30718">
        <ele>90</ele>
        <time>2023-10-28T12:15:03Z</time>
      </trkpt>
      <trkpt lat="45.12849" lon="1.30721">
        <ele>90</ele>
        <time>2023-10-28T12:15:04Z</time>
      </trkpt>
      <trkpt lat="45.12849" lon="1.30724">
        <ele>90</ele>
        <time>2023-10-28T12:15:05Z</time>
      </trkpt>
      <trkpt lat="45.1285" lon="1.30727">
        <ele>90</ele>
        <time>2023-10-28T12:15:06Z</time>
      </trkpt>
      <trkpt lat="45.12851" lon="1.3073">
        <ele>90</ele>
        <time>2023-10-28T12:15:07Z</time>
      </trkpt>
      <trkpt lat="45.12852" lon="1.30733">
        <ele>90</ele>
        <time>2023-10-28T12:15:08Z</time>
      </trkpt>
      <trkpt lat="45.12853" lon="1.30736">
        <ele>90</ele>
        <time>2023-10-28T12:15:09Z</time>
      </trkpt>
      <trkpt lat="45.12854" lon="1.30739">
        <ele>89.9</ele>
        <time>2023-10-28T12:15:10Z</time>
      </trkpt>
      <trkpt lat="45.12855" lon="1.30742">
        <ele>89.9</ele>
        <time>2023-10-28T12:15:11Z</time>
      </trkpt>
      <trkpt lat="45.12856" lon="1.30745">
        <ele>89.9</ele>
        <time>2023-10-28T12:15:12Z</time>
      </trkpt>
      <trkpt lat="45.12857" lon="1.30748">
        <ele>89.9</ele>
        <time>2023-10-28T12:15:13Z</time>
      </trkpt>
      <trkpt lat="45.12858" lon="1.3075">
        <ele>89.9</ele>
        <time>2023-10-28T12:15:14Z</time>
      </trkpt>
      <trkpt lat="45.12859" lon="1.30753">
        <ele>89.9</ele>
        <time>2023-10-28T12:15:15Z</time>
      </trkpt>
      <trkpt lat="45.12861" lon="1.30756">
        <ele>89.9</ele>
        <time>2023-10-28T12:15:16Z</time>
      </trkpt>
      <trkpt lat="45.12862" lon="1.30758">
        <ele>90</ele>
        <time>2023-10-28T12:15:17Z</time>
      </trkpt>
      <trkpt lat="45.12863" lon="1.30761">
        <ele>90</ele>
        <time>2023-10-28T12:15:18Z</time>
      </trkpt>
      <trkpt lat="45.12864" lon="1.30764">
        <ele>90</ele>
        <time>2023-10-28T12:15:19Z</time>
      </trkpt>
      <trkpt lat="45.12865" lon="1.30767">
        <ele>90</ele>
        <time>2023-10-28T12:15:20Z</time>
      </trkpt>
      <trkpt lat="45.12866" lon="1.3077">
        <ele>90</ele>
        <time>2023-10-28T12:15:21Z</time>
      </trkpt>
      <trkpt lat="45.12867" lon="1.30773">
        <ele>90</ele>
        <time>2023-10-28T12:15:22Z</time>
      </trkpt>
      <trkpt lat="45.12869" lon="1.30777">
        <ele>90</ele>
        <time>2023-10-28T12:15:23Z</time>
      </trkpt>
      <trkpt lat="45.1287" lon="1.3078">
        <ele>90</ele>
        <time>2023-10-28T12:15:24Z</time>
      </trkpt>
      <trkpt lat="45.12871" lon="1.30784">
        <ele>90</ele>
        <time>2023-10-28T12:15:25Z</time>
      </trkpt>
      <trkpt lat="45.12872" lon="1.30787">
        <ele>90</ele>
        <time>2023-10-28T12:15:26Z</time>
      </trkpt>
      <trkpt lat="45.12873" lon="1.30791">
        <ele>90</ele>
        <time>2023-10-28T12:15:27Z</time>
      </trkpt>
      <trkpt lat="45.12874" lon="1.30794">
        <ele>90</ele>
        <time>2023-10-28T12:15:28Z</time>
      </trkpt>
      <trkpt lat="45.12874" lon="1.30798">
        <ele>90</ele>
        <time>2023-10-28T12:15:29Z</time>
      </trkpt>
      <trkpt lat="45.12875" lon="1.30802">
        <ele>90</ele>
        <time>2023-10-28T12:15:30Z</time>
      </trkpt>
      <trkpt lat="45.12875" lon="1.30805">
        <ele>90</ele>
        <time>2023-10-28T12:15:31Z</time>
      </trkpt>
      <trkpt lat="45.12875" lon="1.30808">
        <ele>90</ele>
        <time>2023-10-28T12:15:32Z</time>
      </trkpt>
      <trkpt lat="45.12876" lon="1.30812">
        <ele>89.9</ele>
        <time>2023-10-28T12:15:33Z</time>
      </trkpt>
      <trkpt lat="45.12877" lon="1.30815">
        <ele>89.9</ele>
        <time>2023-10-28T12:15:34Z</time>
      </trkpt>
      <trkpt lat="45.12878" lon="1.30819">
        <ele>89.9</ele>
        <time>2023-10-28T12:15:35Z</time>
      </trkpt>
      <trkpt lat="45.12879" lon="1.30822">
        <ele>89.9</ele>
        <time>2023-10-28T12:15:36Z</time>
      </trkpt>
      <trkpt lat="45.1288" lon="1.30825">
        <ele>89.9</ele>
        <time>2023-10-28T12:15:37Z</time>
      </trkpt>
      <trkpt lat="45.12881" lon="1.30829">
        <ele>89.8</ele>
        <time>2023-10-28T12:15:38Z</time>
      </trkpt>
      <trkpt lat="45.12882" lon="1.30831">
        <ele>89.8</ele>
        <time>2023-10-28T12:15:39Z</time>
      </trkpt>
      <trkpt lat="45.12883" lon="1.30834">
        <ele>89.8</ele>
        <time>2023-10-28T12:15:40Z</time>
      </trkpt>
      <trkpt lat="45.12883" lon="1.30835">
        <ele>89.1</ele>
        <time>2023-10-28T12:15:41Z</time>
      </trkpt>
      <trkpt lat="45.12883" lon="1.30836">
        <ele>89</ele>
        <time>2023-10-28T12:15:42Z</time>
      </trkpt>
      <trkpt lat="45.12883" lon="1.30835">
        <ele>89</ele>
        <time>2023-10-28T12:15:43Z</time>
      </trkpt>
      <trkpt lat="45.12883" lon="1.30835">
        <ele>89</ele>
        <time>2023-10-28T12:15:44Z</time>
      </trkpt>
      <trkpt lat="45.12883" lon="1.30835">
        <ele>88.9</ele>
        <time>2023-10-28T12:15:45Z</time>
      </trkpt>
      <trkpt lat="45.12883" lon="1.30834">
        <ele>88.8</ele>
        <time>2023-10-28T12:15:46Z</time>
      </trkpt>
      <trkpt lat="45.12885" lon="1.30834">
        <ele>88.7</ele>
        <time>2023-10-28T12:15:47Z</time>
      </trkpt>
      <trkpt lat="45.12886" lon="1.30833">
        <ele>88.6</ele>
        <time>2023-10-28T12:15:48Z</time>
      </trkpt>
      <trkpt lat="45.12887" lon="1.30833">
        <ele>88.4</ele>
        <time>2023-10-28T12:15:49Z</time>
      </trkpt>
      <trkpt lat="45.12889" lon="1.30832">
        <ele>88.3</ele>
        <time>2023-10-28T12:15:50Z</time>
      </trkpt>
      <trkpt lat="45.1289" lon="1.30832">
        <ele>88.1</ele>
        <time>2023-10-28T12:15:51Z</time>
      </trkpt>
      <trkpt lat="45.12892" lon="1.30831">
        <ele>87.9</ele>
        <time>2023-10-28T12:15:52Z</time>
      </trkpt>
      <trkpt lat="45.12894" lon="1.3083">
        <ele>87.7</ele>
        <time>2023-10-28T12:15:53Z</time>
      </trkpt>
      <trkpt lat="45.12897" lon="1.3083">
        <ele>87.5</ele>
        <time>2023-10-28T12:15:54Z</time>
      </trkpt>
      <trkpt lat="45.12899" lon="1.30829">
        <ele>87.3</ele>
        <time>2023-10-28T12:15:55Z</time>
      </trkpt>
      <trkpt lat="45.12901" lon="1.30827">
        <ele>87.1</ele>
        <time>2023-10-28T12:15:56Z</time>
      </trkpt>
      <trkpt lat="45.12903" lon="1.30826">
        <ele>86.9</ele>
        <time>2023-10-28T12:15:57Z</time>
      </trkpt>
      <trkpt lat="45.12906" lon="1.30824">
        <ele>87</ele>
        <time>2023-10-28T12:15:58Z</time>
      </trkpt>
      <trkpt lat="45.12908" lon="1.30822">
        <ele>87.1</ele>
        <time>2023-10-28T12:15:59Z</time>
      </trkpt>
      <trkpt lat="45.1291" lon="1.30821">
        <ele>87.2</ele>
        <time>2023-10-28T12:16:00Z</time>
      </trkpt>
      <trkpt lat="45.12912" lon="1.3082">
        <ele>87.2</ele>
        <time>2023-10-28T12:16:01Z</time>
      </trkpt>
      <trkpt lat="45.12914" lon="1.30819">
        <ele>87.3</ele>
        <time>2023-10-28T12:16:02Z</time>
      </trkpt>
      <trkpt lat="45.12916" lon="1.30819">
        <ele>87.3</ele>
        <time>2023-10-28T12:16:03Z</time>
      </trkpt>
      <trkpt lat="45.12917" lon="1.30818">
        <ele>87.4</ele>
        <time>2023-10-28T12:16:04Z</time>
      </trkpt>
      <trkpt lat="45.12917" lon="1.30819">
        <ele>87.4</ele>
        <time>2023-10-28T12:16:05Z</time>
      </trkpt>
      <trkpt lat="45.12917" lon="1.30819">
        <ele>87.4</ele>
        <time>2023-10-28T12:16:06Z</time>
      </trkpt>
      <trkpt lat="45.12916" lon="1.30819">
        <ele>87.5</ele>
        <time>2023-10-28T12:16:07Z</time>
      </trkpt>
      <trkpt lat="45.12915" lon="1.3082">
        <ele>87.5</ele>
        <time>2023-10-28T12:16:08Z</time>
      </trkpt>
      <trkpt lat="45.12913" lon="1.30821">
        <ele>87.6</ele>
        <time>2023-10-28T12:16:09Z</time>
      </trkpt>
      <trkpt lat="45.12911" lon="1.30822">
        <ele>87.7</ele>
        <time>2023-10-28T12:16:10Z</time>
      </trkpt>
      <trkpt lat="45.12908" lon="1.30823">
        <ele>87.8</ele>
        <time>2023-10-28T12:16:11Z</time>
      </trkpt>
      <trkpt lat="45.12906" lon="1.30824">
        <ele>87.9</ele>
        <time>2023-10-28T12:16:12Z</time>
      </trkpt>
      <trkpt lat="45.12902" lon="1.30825">
        <ele>88</ele>
        <time>2023-10-28T12:16:13Z</time>
      </trkpt>
      <trkpt lat="45.129" lon="1.30827">
        <ele>88.1</ele>
        <time>2023-10-28T12:16:14Z</time>
      </trkpt>
      <trkpt lat="45.12897" lon="1.30828">
        <ele>88.3</ele>
        <time>2023-10-28T12:16:15Z</time>
      </trkpt>
      <trkpt lat="45.12894" lon="1.3083">
        <ele>88.4</ele>
        <time>2023-10-28T12:16:16Z</time>
      </trkpt>
      <trkpt lat="45.1289" lon="1.30831">
        <ele>88.6</ele>
        <time>2023-10-28T12:16:17Z</time>
      </trkpt>
      <trkpt lat="45.12888" lon="1.30832">
        <ele>88.7</ele>
        <time>2023-10-28T12:16:18Z</time>
      </trkpt>
      <trkpt lat="45.12885" lon="1.30832">
        <ele>88.9</ele>
        <time>2023-10-28T12:16:19Z</time>
      </trkpt>
      <trkpt lat="45.12883" lon="1.30831">
        <ele>89</ele>
        <time>2023-10-28T12:16:20Z</time>
      </trkpt>
      <trkpt lat="45.12881" lon="1.3083">
        <ele>89.8</ele>
        <time>2023-10-28T12:16:21Z</time>
      </trkpt>
      <trkpt lat="45.12879" lon="1.30828">
        <ele>89.8</ele>
        <time>2023-10-28T12:16:22Z</time>
      </trkpt>
      <trkpt lat="45.12878" lon="1.30825">
        <ele>89.8</ele>
        <time>2023-10-28T12:16:23Z</time>
      </trkpt>
      <trkpt lat="45.12877" lon="1.30822">
        <ele>89.9</ele>
        <time>2023-10-28T12:16:24Z</time>
      </trkpt>
      <trkpt lat="45.12875" lon="1.30818">
        <ele>89.9</ele>
        <time>2023-10-28T12:16:25Z</time>
      </trkpt>
      <trkpt lat="45.12874" lon="1.30815">
        <ele>89.9</ele>
        <time>2023-10-28T12:16:26Z</time>
      </trkpt>
      <trkpt lat="45.12873" lon="1.30811">
        <ele>89.9</ele>
        <time>2023-10-28T12:16:27Z</time>
      </trkpt>
      <trkpt lat="45.12871" lon="1.30808">
        <ele>90</ele>
        <time>2023-10-28T12:16:28Z</time>
      </trkpt>
      <trkpt lat="45.1287" lon="1.30805">
        <ele>90</ele>
        <time>2023-10-28T12:16:29Z</time>
      </trkpt>
      <trkpt lat="45.12869" lon="1.30802">
        <ele>90</ele>
        <time>2023-10-28T12:16:30Z</time>
      </trkpt>
      <trkpt lat="45.12868" lon="1.30799">
        <ele>90</ele>
        <time>2023-10-28T12:16:31Z</time>
      </trkpt>
      <trkpt lat="45.12867" lon="1.30796">
        <ele>90</ele>
        <time>2023-10-28T12:16:32Z</time>
      </trkpt>
      <trkpt lat="45.12866" lon="1.30792">
        <ele>90</ele>
        <time>2023-10-28T12:16:33Z</time>
      </trkpt>
      <trkpt lat="45.12864" lon="1.30789">
        <ele>90</ele>
        <time>2023-10-28T12:16:34Z</time>
      </trkpt>
      <trkpt lat="45.12863" lon="1.30785">
        <ele>90</ele>
        <time>2023-10-28T12:16:35Z</time>
      </trkpt>
      <trkpt lat="45.12861" lon="1.30782">
        <ele>90</ele>
        <time>2023-10-28T12:16:36Z</time>
      </trkpt>
      <trkpt lat="45.1286" lon="1.30778">
        <ele>90</ele>
        <time>2023-10-28T12:16:37Z</time>
      </trkpt>
      <trkpt lat="45.12858" lon="1.30774">
        <ele>90</ele>
        <time>2023-10-28T12:16:38Z</time>
      </trkpt>
      <trkpt lat="45.12857" lon="1.30771">
        <ele>90</ele>
        <time>2023-10-28T12:16:39Z</time>
      </trkpt>
      <trkpt lat="45.12856" lon="1.30768">
        <ele>90</ele>
        <time>2023-10-28T12:16:40Z</time>
      </trkpt>
      <trkpt lat="45.12855" lon="1.30764">
        <ele>90</ele>
        <time>2023-10-28T12:16:41Z</time>
      </trkpt>
      <trkpt lat="45.12854" lon="1.30761">
        <ele>89.9</ele>
        <time>2023-10-28T12:16:42Z</time>
      </trkpt>
      <trkpt lat="45.12853" lon="1.30757">
        <ele>89.9</ele>
        <time>2023-10-28T12:16:43Z</time>
      </trkpt>
      <trkpt lat="45.12852" lon="1.30753">
        <ele>89.9</ele>
        <time>2023-10-28T12:16:44Z</time>
      </trkpt>
      <trkpt lat="45.12851" lon="1.30749">
        <ele>89.9</ele>
        <time>2023-10-28T12:16:45Z</time>
      </trkpt>
      <trkpt lat="45.12851" lon="1.30745">
        <ele>89.9</ele>
        <time>2023-10-28T12:16:46Z</time>
      </trkpt>
      <trkpt lat="45.12849" lon="1.30741">
        <ele>90</ele>
        <time>2023-10-28T12:16:47Z</time>
      </trkpt>
      <trkpt lat="45.12849" lon="1.30737">
        <ele>90</ele>
        <time>2023-10-28T12:16:48Z</time>
      </trkpt>
      <trkpt lat="45.12848" lon="1.30734">
        <ele>90</ele>
        <time>2023-10-28T12:16:49Z</time>
      </trkpt>
      <trkpt lat="45.12847" lon="1.3073">
        <ele>90</ele>
        <time>2023-10-28T12:16:50Z</time>
      </trkpt>
      <trkpt lat="45.12846" lon="1.30726">
        <ele>90</ele>
        <time>2023-10-28T12:16:51Z</time>
      </trkpt>
      <trkpt lat="45.12845" lon="1.30723">
        <ele>90</ele>
        <time>2023-10-28T12:16:52Z</time>
      </trkpt>
      <trkpt lat="45.12844" lon="1.30719">
        <ele>90</ele>
        <time>2023-10-28T12:16:53Z</time>
      </trkpt>
      <trkpt lat="45.12843" lon="1.30716">
        <ele>90</ele>
        <time>2023-10-28T12:16:54Z</time>
      </trkpt>
      <trkpt lat="45.12841" lon="1.30712">
        <ele>90</ele>
        <time>2023-10-28T12:16:55Z</time>
      </trkpt>
      <trkpt lat="45.12841" lon="1.30709">
        <ele>90</ele>
        <time>2023-10-28T12:16:56Z</time>
      </trkpt>
      <trkpt lat="45.1284" lon="1.30705">
        <ele>90</ele>
        <time>2023-10-28T12:16:57Z</time>
      </trkpt>
      <trkpt lat="45.1284" lon="1.30702">
        <ele>90</ele>
        <time>2023-10-28T12:16:58Z</time>
      </trkpt>
      <trkpt lat="45.12839" lon="1.30698">
        <ele>90</ele>
        <time>2023-10-28T12:16:59Z</time>
      </trkpt>
      <trkpt lat="45.12838" lon="1.30695">
        <ele>90</ele>
        <time>2023-10-28T12:17:00Z</time>
      </trkpt>
      <trkpt lat="45.12838" lon="1.30692">
        <ele>89.9</ele>
        <time>2023-10-28T12:17:01Z</time>
      </trkpt>
      <trkpt lat="45.12838" lon="1.30688">
        <ele>89.9</ele>
        <time>2023-10-28T12:17:02Z</time>
      </trkpt>
      <trkpt lat="45.12837" lon="1.30685">
        <ele>89.9</ele>
        <time>2023-10-28T12:17:03Z</time>
      </trkpt>
      <trkpt lat="45.12836" lon="1.30682">
        <ele>89.9</ele>
        <time>2023-10-28T12:17:04Z</time>
      </trkpt>
      <trkpt lat="45.12835" lon="1.30679">
        <ele>89.9</ele>
        <time>2023-10-28T12:17:05Z</time>
      </trkpt>
      <trkpt lat="45.12834" lon="1.30676">
        <ele>89.9</ele>
        <time>2023-10-28T12:17:06Z</time>
      </trkpt>
      <trkpt lat="45.12833" lon="1.30673">
        <ele>89.9</ele>
        <time>2023-10-28T12:17:07Z</time>
      </trkpt>
      <trkpt lat="45.12832" lon="1.3067">
        <ele>89.9</ele>
        <time>2023-10-28T12:17:08Z</time>
      </trkpt>
      <trkpt lat="45.12832" lon="1.30667">
        <ele>89.8</ele>
        <time>2023-10-28T12:17:09Z</time>
      </trkpt>
      <trkpt lat="45.12831" lon="1.30664">
        <ele>89.8</ele>
        <time>2023-10-28T12:17:10Z</time>
      </trkpt>
      <trkpt lat="45.12831" lon="1.30662">
        <ele>89.8</ele>
        <time>2023-10-28T12:17:11Z</time>
      </trkpt>
      <trkpt lat="45.12831" lon="1.30659">
        <ele>89.7</ele>
        <time>2023-10-28T12:17:12Z</time>
      </trkpt>
      <trkpt lat="45.12831" lon="1.30657">
        <ele>89.7</ele>
        <time>2023-10-28T12:17:13Z</time>
      </trkpt>
      <trkpt lat="45.12831" lon="1.30654">
        <ele>89.6</ele>
        <time>2023-10-28T12:17:14Z</time>
      </trkpt>
      <trkpt lat="45.1283" lon="1.30651">
        <ele>89.6</ele>
        <time>2023-10-28T12:17:15Z</time>
      </trkpt>
      <trkpt lat="45.12828" lon="1.30648">
        <ele>89.5</ele>
        <time>2023-10-28T12:17:16Z</time>
      </trkpt>
      <trkpt lat="45.12826" lon="1.30645">
        <ele>89.4</ele>
        <time>2023-10-28T12:17:17Z</time>
      </trkpt>
      <trkpt lat="45.12824" lon="1.30642">
        <ele>89.4</ele>
        <time>2023-10-28T12:17:18Z</time>
      </trkpt>
      <trkpt lat="45.12823" lon="1.30639">
        <ele>89.3</ele>
        <time>2023-10-28T12:17:19Z</time>
      </trkpt>
      <trkpt lat="45.12821" lon="1.30636">
        <ele>89.2</ele>
        <time>2023-10-28T12:17:20Z</time>
      </trkpt>
      <trkpt lat="45.1282" lon="1.30633">
        <ele>89.1</ele>
        <time>2023-10-28T12:17:21Z</time>
      </trkpt>
      <trkpt lat="45.12819" lon="1.3063">
        <ele>89.1</ele>
        <time>2023-10-28T12:17:22Z</time>
      </trkpt>
      <trkpt lat="45.12818" lon="1.30627">
        <ele>89</ele>
        <time>2023-10-28T12:17:23Z</time>
      </trkpt>
      <trkpt lat="45.12817" lon="1.30624">
        <ele>89</ele>
        <time>2023-10-28T12:17:24Z</time>
      </trkpt>
      <trkpt lat="45.12816" lon="1.30622">
        <ele>88.9</ele>
        <time>2023-10-28T12:17:25Z</time>
      </trkpt>
      <trkpt lat="45.12816" lon="1.30619">
        <ele>88.9</ele>
        <time>2023-10-28T12:17:26Z</time>
      </trkpt>
      <trkpt lat="45.12815" lon="1.30616">
        <ele>88.9</ele>
        <time>2023-10-28T12:17:27Z</time>
      </trkpt>
      <trkpt lat="45.12814" lon="1.30613">
        <ele>88.8</ele>
        <time>2023-10-28T12:17:28Z</time>
      </trkpt>
      <trkpt lat="45.12813" lon="1.3061">
        <ele>88.8</ele>
        <time>2023-10-28T12:17:29Z</time>
      </trkpt>
      <trkpt lat="45.12812" lon="1.30607">
        <ele>88.8</ele>
        <time>2023-10-28T12:17:30Z</time>
      </trkpt>
      <trkpt lat="45.12812" lon="1.30604">
        <ele>88.8</ele>
        <time>2023-10-28T12:17:31Z</time>
      </trkpt>
      <trkpt lat="45.12811" lon="1.30601">
        <ele>88.8</ele>
        <time>2023-10-28T12:17:32Z</time>
      </trkpt>
      <trkpt lat="45.12809" lon="1.30598">
        <ele>88.8</ele>
        <time>2023-10-28T12:17:33Z</time>
      </trkpt>
      <trkpt lat="45.12808" lon="1.30595">
        <ele>88.8</ele>
        <time>2023-10-28T12:17:34Z</time>
      </trkpt>
      <trkpt lat="45.12806" lon="1.30593">
        <ele>88.8</ele>
        <time>2023-10-28T12:17:35Z</time>
      </trkpt>
      <trkpt lat="45.12805" lon="1.3059">
        <ele>88.8</ele>
        <time>2023-10-28T12:17:36Z</time>
      </trkpt>
      <trkpt lat="45.12804" lon="1.30587">
        <ele>88.8</ele>
        <time>2023-10-28T12:17:37Z</time>
      </trkpt>
      <trkpt lat="45.12803" lon="1.30584">
        <ele>88.8</ele>
        <time>2023-10-28T12:17:38Z</time>
      </trkpt>
      <trkpt lat="45.12802" lon="1.30581">
        <ele>88.8</ele>
        <time>2023-10-28T12:17:39Z</time>
      </trkpt>
      <trkpt lat="45.12801" lon="1.30578">
        <ele>88.8</ele>
        <time>2023-10-28T12:17:40Z</time>
      </trkpt>
      <trkpt lat="45.128" lon="1.30575">
        <ele>88.8</ele>
        <time>2023-10-28T12:17:41Z</time>
      </trkpt>
      <trkpt lat="45.12798" lon="1.30572">
        <ele>88.9</ele>
        <time>2023-10-28T12:17:42Z</time>
      </trkpt>
      <trkpt lat="45.12797" lon="1.30569">
        <ele>88.9</ele>
        <time>2023-10-28T12:17:43Z</time>
      </trkpt>
      <trkpt lat="45.12796" lon="1.30565">
        <ele>89</ele>
        <time>2023-10-28T12:17:44Z</time>
      </trkpt>
      <trkpt lat="45.12795" lon="1.30562">
        <ele>89</ele>
        <time>2023-10-28T12:17:45Z</time>
      </trkpt>
      <trkpt lat="45.12795" lon="1.30559">
        <ele>89</ele>
        <time>2023-10-28T12:17:46Z</time>
      </trkpt>
      <trkpt lat="45.12794" lon="1.30556">
        <ele>89.1</ele>
        <time>2023-10-28T12:17:47Z</time>
      </trkpt>
      <trkpt lat="45.12793" lon="1.30553">
        <ele>89.1</ele>
        <time>2023-10-28T12:17:48Z</time>
      </trkpt>
      <trkpt lat="45.12793" lon="1.3055">
        <ele>89.1</ele>
        <time>2023-10-28T12:17:49Z</time>
      </trkpt>
      <trkpt lat="45.12793" lon="1.30547">
        <ele>89.2</ele>
        <time>2023-10-28T12:17:50Z</time>
      </trkpt>
      <trkpt lat="45.12792" lon="1.30544">
        <ele>89.2</ele>
        <time>2023-10-28T12:17:51Z</time>
      </trkpt>
      <trkpt lat="45.12792" lon="1.30541">
        <ele>89.3</ele>
        <time>2023-10-28T12:17:52Z</time>
      </trkpt>
      <trkpt lat="45.12791" lon="1.30539">
        <ele>89.3</ele>
        <time>2023-10-28T12:17:53Z</time>
      </trkpt>
      <trkpt lat="45.1279" lon="1.30536">
        <ele>89.3</ele>
        <time>2023-10-28T12:17:54Z</time>
      </trkpt>
      <trkpt lat="45.12789" lon="1.30534">
        <ele>89.4</ele>
        <time>2023-10-28T12:17:55Z</time>
      </trkpt>
      <trkpt lat="45.12788" lon="1.30532">
        <ele>90.7</ele>
        <time>2023-10-28T12:17:56Z</time>
      </trkpt>
      <trkpt lat="45.12787" lon="1.3053">
        <ele>90.8</ele>
        <time>2023-10-28T12:17:57Z</time>
      </trkpt>
      <trkpt lat="45.12785" lon="1.30528">
        <ele>91</ele>
        <time>2023-10-28T12:17:58Z</time>
      </trkpt>
      <trkpt lat="45.12784" lon="1.30527">
        <ele>91.1</ele>
        <time>2023-10-28T12:17:59Z</time>
      </trkpt>
      <trkpt lat="45.12782" lon="1.30525">
        <ele>91.3</ele>
        <time>2023-10-28T12:18:00Z</time>
      </trkpt>
      <trkpt lat="45.12781" lon="1.30523">
        <ele>91.4</ele>
        <time>2023-10-28T12:18:01Z</time>
      </trkpt>
      <trkpt lat="45.1278" lon="1.30521">
        <ele>92</ele>
        <time>2023-10-28T12:18:02Z</time>
      </trkpt>
      <trkpt lat="45.12779" lon="1.30519">
        <ele>92.1</ele>
        <time>2023-10-28T12:18:03Z</time>
      </trkpt>
      <trkpt lat="45.12777" lon="1.30517">
        <ele>92.3</ele>
        <time>2023-10-28T12:18:04Z</time>
      </trkpt>
      <trkpt lat="45.12776" lon="1.30515">
        <ele>92.5</ele>
        <time>2023-10-28T12:18:05Z</time>
      </trkpt>
      <trkpt lat="45.12774" lon="1.30512">
        <ele>92.6</ele>
        <time>2023-10-28T12:18:06Z</time>
      </trkpt>
      <trkpt lat="45.12772" lon="1.3051">
        <ele>92.8</ele>
        <time>2023-10-28T12:18:07Z</time>
      </trkpt>
      <trkpt lat="45.12771" lon="1.30507">
        <ele>93</ele>
        <time>2023-10-28T12:18:08Z</time>
      </trkpt>
      <trkpt lat="45.12769" lon="1.30504">
        <ele>93.1</ele>
        <time>2023-10-28T12:18:09Z</time>
      </trkpt>
      <trkpt lat="45.12768" lon="1.30502">
        <ele>93.3</ele>
        <time>2023-10-28T12:18:10Z</time>
      </trkpt>
      <trkpt lat="45.12767" lon="1.30499">
        <ele>93.6</ele>
        <time>2023-10-28T12:18:11Z</time>
      </trkpt>
      <trkpt lat="45.12766" lon="1.30496">
        <ele>94</ele>
        <time>2023-10-28T12:18:12Z</time>
      </trkpt>
      <trkpt lat="45.12764" lon="1.30493">
        <ele>94.4</ele>
        <time>2023-10-28T12:18:13Z</time>
      </trkpt>
      <trkpt lat="45.12763" lon="1.30491">
        <ele>94.8</ele>
        <time>2023-10-28T12:18:14Z</time>
      </trkpt>
      <trkpt lat="45.12761" lon="1.30489">
        <ele>95.1</ele>
        <time>2023-10-28T12:18:15Z</time>
      </trkpt>
      <trkpt lat="45.1276" lon="1.30487">
        <ele>95.5</ele>
        <time>2023-10-28T12:18:16Z</time>
      </trkpt>
      <trkpt lat="45.12758" lon="1.30485">
        <ele>96</ele>
        <time>2023-10-28T12:18:17Z</time>
      </trkpt>
      <trkpt lat="45.12756" lon="1.30483">
        <ele>96.4</ele>
        <time>2023-10-28T12:18:18Z</time>
      </trkpt>
      <trkpt lat="45.12754" lon="1.30481">
        <ele>96.9</ele>
        <time>2023-10-28T12:18:19Z</time>
      </trkpt>
      <trkpt lat="45.12752" lon="1.30479">
        <ele>97.4</ele>
        <time>2023-10-28T12:18:20Z</time>
      </trkpt>
      <trkpt lat="45.1275" lon="1.30478">
        <ele>97.9</ele>
        <time>2023-10-28T12:18:21Z</time>
      </trkpt>
      <trkpt lat="45.12748" lon="1.30476">
        <ele>98.4</ele>
        <time>2023-10-28T12:18:22Z</time>
      </trkpt>
      <trkpt lat="45.12746" lon="1.30475">
        <ele>98.9</ele>
        <time>2023-10-28T12:18:23Z</time>
      </trkpt>
      <trkpt lat="45.12745" lon="1.30475">
        <ele>99.3</ele>
        <time>2023-10-28T12:18:24Z</time>
      </trkpt>
      <trkpt lat="45.12743" lon="1.30474">
        <ele>99.8</ele>
        <time>2023-10-28T12:18:25Z</time>
      </trkpt>
      <trkpt lat="45.12741" lon="1.30474">
        <ele>100.2</ele>
        <time>2023-10-28T12:18:26Z</time>
      </trkpt>
      <trkpt lat="45.12739" lon="1.30473">
        <ele>100.7</ele>
        <time>2023-10-28T12:18:27Z</time>
      </trkpt>
      <trkpt lat="45.12738" lon="1.30473">
        <ele>101.1</ele>
        <time>2023-10-28T12:18:28Z</time>
      </trkpt>
      <trkpt lat="45.12736" lon="1.30472">
        <ele>101.5</ele>
        <time>2023-10-28T12:18:29Z</time>
      </trkpt>
      <trkpt lat="45.12734" lon="1.30471">
        <ele>102</ele>
        <time>2023-10-28T12:18:30Z</time>
      </trkpt>
      <trkpt lat="45.12733" lon="1.3047">
        <ele>102.4</ele>
        <time>2023-10-28T12:18:31Z</time>
      </trkpt>
      <trkpt lat="45.12731" lon="1.30469">
        <ele>102.8</ele>
        <time>2023-10-28T12:18:32Z</time>
      </trkpt>
      <trkpt lat="45.1273" lon="1.30468">
        <ele>103.2</ele>
        <time>2023-10-28T12:18:33Z</time>
      </trkpt>
      <trkpt lat="45.12728" lon="1.30467">
        <ele>103.6</ele>
        <time>2023-10-28T12:18:34Z</time>
      </trkpt>
      <trkpt lat="45.12727" lon="1.30466">
        <ele>104</ele>
        <time>2023-10-28T12:18:35Z</time>
      </trkpt>
      <trkpt lat="45.12725" lon="1.30465">
        <ele>104.3</ele>
        <time>2023-10-28T12:18:36Z</time>
      </trkpt>
      <trkpt lat="45.12724" lon="1.30464">
        <ele>104.7</ele>
        <time>2023-10-28T12:18:37Z</time>
      </trkpt>
      <trkpt lat="45.12722" lon="1.30463">
        <ele>105</ele>
        <time>2023-10-28T12:18:38Z</time>
      </trkpt>
      <trkpt lat="45.12721" lon="1.30463">
        <ele>105.3</ele>
        <time>2023-10-28T12:18:39Z</time>
      </trkpt>
      <trkpt lat="45.12719" lon="1.30462">
        <ele>105.7</ele>
        <time>2023-10-28T12:18:40Z</time>
      </trkpt>
      <trkpt lat="45.12717" lon="1.30462">
        <ele>106</ele>
        <time>2023-10-28T12:18:41Z</time>
      </trkpt>
      <trkpt lat="45.12716" lon="1.30461">
        <ele>106.3</ele>
        <time>2023-10-28T12:18:42Z</time>
      </trkpt>
      <trkpt lat="45.12714" lon="1.3046">
        <ele>106.5</ele>
        <time>2023-10-28T12:18:43Z</time>
      </trkpt>
      <trkpt lat="45.12713" lon="1.3046">
        <ele>106.8</ele>
        <time>2023-10-28T12:18:44Z</time>
      </trkpt>
      <trkpt lat="45.12711" lon="1.3046">
        <ele>106.9</ele>
        <time>2023-10-28T12:18:45Z</time>
      </trkpt>
      <trkpt lat="45.1271" lon="1.3046">
        <ele>107.1</ele>
        <time>2023-10-28T12:18:46Z</time>
      </trkpt>
      <trkpt lat="45.12709" lon="1.3046">
        <ele>107.4</ele>
        <time>2023-10-28T12:18:47Z</time>
      </trkpt>
      <trkpt lat="45.12708" lon="1.3046">
        <ele>107.7</ele>
        <time>2023-10-28T12:18:48Z</time>
      </trkpt>
      <trkpt lat="45.12706" lon="1.30461">
        <ele>107.9</ele>
        <time>2023-10-28T12:18:49Z</time>
      </trkpt>
      <trkpt lat="45.12705" lon="1.30462">
        <ele>108</ele>
        <time>2023-10-28T12:18:50Z</time>
      </trkpt>
      <trkpt lat="45.12704" lon="1.30464">
        <ele>108.3</ele>
        <time>2023-10-28T12:18:51Z</time>
      </trkpt>
      <trkpt lat="45.12703" lon="1.30465">
        <ele>108.4</ele>
        <time>2023-10-28T12:18:52Z</time>
      </trkpt>
      <trkpt lat="45.12701" lon="1.30466">
        <ele>108.7</ele>
        <time>2023-10-28T12:18:53Z</time>
      </trkpt>
      <trkpt lat="45.12699" lon="1.30468">
        <ele>109</ele>
        <time>2023-10-28T12:18:54Z</time>
      </trkpt>
      <trkpt lat="45.12698" lon="1.3047">
        <ele>109.2</ele>
        <time>2023-10-28T12:18:55Z</time>
      </trkpt>
      <trkpt lat="45.12696" lon="1.30471">
        <ele>109.5</ele>
        <time>2023-10-28T12:18:56Z</time>
      </trkpt>
      <trkpt lat="45.12694" lon="1.30473">
        <ele>109.7</ele>
        <time>2023-10-28T12:18:57Z</time>
      </trkpt>
      <trkpt lat="45.12692" lon="1.30475">
        <ele>109.7</ele>
        <time>2023-10-28T12:18:58Z</time>
      </trkpt>
      <trkpt lat="45.1269" lon="1.30477">
        <ele>109.9</ele>
        <time>2023-10-28T12:18:59Z</time>
      </trkpt>
      <trkpt lat="45.12688" lon="1.30478">
        <ele>109.9</ele>
        <time>2023-10-28T12:19:00Z</time>
      </trkpt>
      <trkpt lat="45.12686" lon="1.3048">
        <ele>110</ele>
        <time>2023-10-28T12:19:01Z</time>
      </trkpt>
      <trkpt lat="45.12684" lon="1.30482">
        <ele>110.3</ele>
        <time>2023-10-28T12:19:02Z</time>
      </trkpt>
      <trkpt lat="45.12683" lon="1.30484">
        <ele>110.6</ele>
        <time>2023-10-28T12:19:03Z</time>
      </trkpt>
      <trkpt lat="45.12681" lon="1.30486">
        <ele>110.9</ele>
        <time>2023-10-28T12:19:04Z</time>
      </trkpt>
      <trkpt lat="45.12679" lon="1.30488">
        <ele>111.2</ele>
        <time>2023-10-28T12:19:05Z</time>
      </trkpt>
      <trkpt lat="45.12677" lon="1.3049">
        <ele>111.4</ele>
        <time>2023-10-28T12:19:06Z</time>
      </trkpt>
      <trkpt lat="45.12676" lon="1.30492">
        <ele>111.8</ele>
        <time>2023-10-28T12:19:07Z</time>
      </trkpt>
      <trkpt lat="45.12674" lon="1.30494">
        <ele>112.2</ele>
        <time>2023-10-28T12:19:08Z</time>
      </trkpt>
      <trkpt lat="45.12673" lon="1.30496">
        <ele>112.5</ele>
        <time>2023-10-28T12:19:09Z</time>
      </trkpt>
      <trkpt lat="45.12672" lon="1.30498">
        <ele>112.9</ele>
        <time>2023-10-28T12:19:10Z</time>
      </trkpt>
      <trkpt lat="45.12671" lon="1.305">
        <ele>113.2</ele>
        <time>2023-10-28T12:19:11Z</time>
      </trkpt>
      <trkpt lat="45.12669" lon="1.30502">
        <ele>113.6</ele>
        <time>2023-10-28T12:19:12Z</time>
      </trkpt>
      <trkpt lat="45.12669" lon="1.30504">
        <ele>113.9</ele>
        <time>2023-10-28T12:19:13Z</time>
      </trkpt>
      <trkpt lat="45.12668" lon="1.30506">
        <ele>114.2</ele>
        <time>2023-10-28T12:19:14Z</time>
      </trkpt>
      <trkpt lat="45.12668" lon="1.30509">
        <ele>114.6</ele>
        <time>2023-10-28T12:19:15Z</time>
      </trkpt>
      <trkpt lat="45.12668" lon="1.30511">
        <ele>115</ele>
        <time>2023-10-28T12:19:16Z</time>
      </trkpt>
      <trkpt lat="45.12668" lon="1.30514">
        <ele>115.4</ele>
        <time>2023-10-28T12:19:17Z</time>
      </trkpt>
      <trkpt lat="45.12667" lon="1.30516">
        <ele>115.8</ele>
        <time>2023-10-28T12:19:18Z</time>
      </trkpt>
      <trkpt lat="45.12667" lon="1.30518">
        <ele>116.2</ele>
        <time>2023-10-28T12:19:19Z</time>
      </trkpt>
      <trkpt lat="45.12666" lon="1.3052">
        <ele>116.6</ele>
        <time>2023-10-28T12:19:20Z</time>
      </trkpt>
      <trkpt lat="45.12666" lon="1.30523">
        <ele>116.9</ele>
        <time>2023-10-28T12:19:21Z</time>
      </trkpt>
      <trkpt lat="45.12666" lon="1.30525">
        <ele>117.3</ele>
        <time>2023-10-28T12:19:22Z</time>
      </trkpt>
      <trkpt lat="45.12666" lon="1.30527">
        <ele>117.7</ele>
        <time>2023-10-28T12:19:23Z</time>
      </trkpt>
      <trkpt lat="45.12666" lon="1.30529">
        <ele>118.1</ele>
        <time>2023-10-28T12:19:24Z</time>
      </trkpt>
      <trkpt lat="45.12666" lon="1.30531">
        <ele>118.5</ele>
        <time>2023-10-28T12:19:25Z</time>
      </trkpt>
      <trkpt lat="45.12665" lon="1.30533">
        <ele>119</ele>
        <time>2023-10-28T12:19:26Z</time>
      </trkpt>
      <trkpt lat="45.12665" lon="1.30536">
        <ele>119.4</ele>
        <time>2023-10-28T12:19:27Z</time>
      </trkpt>
      <trkpt lat="45.12665" lon="1.30539">
        <ele>119.9</ele>
        <time>2023-10-28T12:19:28Z</time>
      </trkpt>
      <trkpt lat="45.12665" lon="1.30541">
        <ele>120</ele>
        <time>2023-10-28T12:19:29Z</time>
      </trkpt>
      <trkpt lat="45.12665" lon="1.30543">
        <ele>120.1</ele>
        <time>2023-10-28T12:19:30Z</time>
      </trkpt>
      <trkpt lat="45.12664" lon="1.30545">
        <ele>120.1</ele>
        <time>2023-10-28T12:19:31Z</time>
      </trkpt>
      <trkpt lat="45.12664" lon="1.30548">
        <ele>120.2</ele>
        <time>2023-10-28T12:19:32Z</time>
      </trkpt>
      <trkpt lat="45.12664" lon="1.30549">
        <ele>120.3</ele>
        <time>2023-10-28T12:19:33Z</time>
      </trkpt>
      <trkpt lat="45.12664" lon="1.30551">
        <ele>120.4</ele>
        <time>2023-10-28T12:19:34Z</time>
      </trkpt>
      <trkpt lat="45.12664" lon="1.30553">
        <ele>120.5</ele>
        <time>2023-10-28T12:19:35Z</time>
      </trkpt>
      <trkpt lat="45.12663" lon="1.30555">
        <ele>120.6</ele>
        <time>2023-10-28T12:19:36Z</time>
      </trkpt>
      <trkpt lat="45.12663" lon="1.30557">
        <ele>120.6</ele>
        <time>2023-10-28T12:19:37Z</time>
      </trkpt>
      <trkpt lat="45.12663" lon="1.30559">
        <ele>120.7</ele>
        <time>2023-10-28T12:19:38Z</time>
      </trkpt>
      <trkpt lat="45.12662" lon="1.30561">
        <ele>120.8</ele>
        <time>2023-10-28T12:19:39Z</time>
      </trkpt>
      <trkpt lat="45.12662" lon="1.30562">
        <ele>120.9</ele>
        <time>2023-10-28T12:19:40Z</time>
      </trkpt>
      <trkpt lat="45.12662" lon="1.30564">
        <ele>121</ele>
        <time>2023-10-28T12:19:41Z</time>
      </trkpt>
      <trkpt lat="45.12662" lon="1.30565">
        <ele>121</ele>
        <time>2023-10-28T12:19:42Z</time>
      </trkpt>
      <trkpt lat="45.12663" lon="1.30565">
        <ele>121.1</ele>
        <time>2023-10-28T12:19:43Z</time>
      </trkpt>
      <trkpt lat="45.12664" lon="1.30566">
        <ele>121.2</ele>
        <time>2023-10-28T12:19:44Z</time>
      </trkpt>
      <trkpt lat="45.12665" lon="1.30566">
        <ele>121.3</ele>
        <time>2023-10-28T12:19:45Z</time>
      </trkpt>
      <trkpt lat="45.12667" lon="1.30566">
        <ele>121.3</ele>
        <time>2023-10-28T12:19:46Z</time>
      </trkpt>
      <trkpt lat="45.12669" lon="1.30566">
        <ele>121.4</ele>
        <time>2023-10-28T12:19:47Z</time>
      </trkpt>
      <trkpt lat="45.12671" lon="1.30566">
        <ele>121.5</ele>
        <time>2023-10-28T12:19:48Z</time>
      </trkpt>
      <trkpt lat="45.12674" lon="1.30566">
        <ele>121.6</ele>
        <time>2023-10-28T12:19:49Z</time>
      </trkpt>
      <trkpt lat="45.12676" lon="1.30566">
        <ele>121.7</ele>
        <time>2023-10-28T12:19:50Z</time>
      </trkpt>
      <trkpt lat="45.12679" lon="1.30566">
        <ele>121.7</ele>
        <time>2023-10-28T12:19:51Z</time>
      </trkpt>
      <trkpt lat="45.12681" lon="1.30567">
        <ele>123.1</ele>
        <time>2023-10-28T12:19:52Z</time>
      </trkpt>
      <trkpt lat="45.12682" lon="1.30567">
        <ele>123.7</ele>
        <time>2023-10-28T12:19:53Z</time>
      </trkpt>
      <trkpt lat="45.12684" lon="1.30568">
        <ele>124.5</ele>
        <time>2023-10-28T12:19:54Z</time>
      </trkpt>
      <trkpt lat="45.12685" lon="1.30569">
        <ele>124.9</ele>
        <time>2023-10-28T12:19:55Z</time>
      </trkpt>
      <trkpt lat="45.12686" lon="1.3057">
        <ele>125.4</ele>
        <time>2023-10-28T12:19:56Z</time>
      </trkpt>
      <trkpt lat="45.12687" lon="1.30571">
        <ele>125.7</ele>
        <time>2023-10-28T12:19:57Z</time>
      </trkpt>
      <trkpt lat="45.12687" lon="1.30572">
        <ele>126</ele>
        <time>2023-10-28T12:19:58Z</time>
      </trkpt>
      <trkpt lat="45.12687" lon="1.30573">
        <ele>126.4</ele>
        <time>2023-10-28T12:19:59Z</time>
      </trkpt>
      <trkpt lat="45.12687" lon="1.30575">
        <ele>126.7</ele>
        <time>2023-10-28T12:20:00Z</time>
      </trkpt>
      <trkpt lat="45.12686" lon="1.30576">
        <ele>126.7</ele>
        <time>2023-10-28T12:20:01Z</time>
      </trkpt>
      <trkpt lat="45.12685" lon="1.30577">
        <ele>126.5</ele>
        <time>2023-10-28T12:20:02Z</time>
      </trkpt>
      <trkpt lat="45.12683" lon="1.30578">
        <ele>126.2</ele>
        <time>2023-10-28T12:20:03Z</time>
      </trkpt>
      <trkpt lat="45.12681" lon="1.30578">
        <ele>125.9</ele>
        <time>2023-10-28T12:20:04Z</time>
      </trkpt>
      <trkpt lat="45.12679" lon="1.30579">
        <ele>125.6</ele>
        <time>2023-10-28T12:20:05Z</time>
      </trkpt>
      <trkpt lat="45.12677" lon="1.3058">
        <ele>125.3</ele>
        <time>2023-10-28T12:20:06Z</time>
      </trkpt>
      <trkpt lat="45.12677" lon="1.3058">
        <ele>125.2</ele>
        <time>2023-10-28T12:20:07Z</time>
      </trkpt>
      <trkpt lat="45.12676" lon="1.3058">
        <ele>125.1</ele>
        <time>2023-10-28T12:20:08Z</time>
      </trkpt>
      <trkpt lat="45.12676" lon="1.3058">
        <ele>125.1</ele>
        <time>2023-10-28T12:20:09Z</time>
      </trkpt>
      <trkpt lat="45.12675" lon="1.3058">
        <ele>124.9</ele>
        <time>2023-10-28T12:20:10Z</time>
      </trkpt>
      <trkpt lat="45.12675" lon="1.30581">
        <ele>124.9</ele>
        <time>2023-10-28T12:20:11Z</time>
      </trkpt>
      <trkpt lat="45.12674" lon="1.30581">
        <ele>124.7</ele>
        <time>2023-10-28T12:20:12Z</time>
      </trkpt>
      <trkpt lat="45.12674" lon="1.30582">
        <ele>124.6</ele>
        <time>2023-10-28T12:20:13Z</time>
      </trkpt>
      <trkpt lat="45.12674" lon="1.30583">
        <ele>124.5</ele>
        <time>2023-10-28T12:20:14Z</time>
      </trkpt>
      <trkpt lat="45.12674" lon="1.30584">
        <ele>124.4</ele>
        <time>2023-10-28T12:20:15Z</time>
      </trkpt>
      <trkpt lat="45.12674" lon="1.30585">
        <ele>124.2</ele>
        <time>2023-10-28T12:20:16Z</time>
      </trkpt>
      <trkpt lat="45.12676" lon="1.30587">
        <ele>124</ele>
        <time>2023-10-28T12:20:17Z</time>
      </trkpt>
      <trkpt lat="45.12677" lon="1.30589">
        <ele>123.7</ele>
        <time>2023-10-28T12:20:18Z</time>
      </trkpt>
      <trkpt lat="45.12678" lon="1.30591">
        <ele>123.4</ele>
        <time>2023-10-28T12:20:19Z</time>
      </trkpt>
      <trkpt lat="45.12679" lon="1.30593">
        <ele>123</ele>
        <time>2023-10-28T12:20:20Z</time>
      </trkpt>
      <trkpt lat="45.12681" lon="1.30595">
        <ele>122.7</ele>
        <time>2023-10-28T12:20:21Z</time>
      </trkpt>
      <trkpt lat="45.12682" lon="1.30598">
        <ele>122.3</ele>
        <time>2023-10-28T12:20:22Z</time>
      </trkpt>
      <trkpt lat="45.12684" lon="1.30601">
        <ele>121.9</ele>
        <time>2023-10-28T12:20:23Z</time>
      </trkpt>
      <trkpt lat="45.12685" lon="1.30603">
        <ele>122.9</ele>
        <time>2023-10-28T12:20:24Z</time>
      </trkpt>
      <trkpt lat="45.12687" lon="1.30606">
        <ele>123.8</ele>
        <time>2023-10-28T12:20:25Z</time>
      </trkpt>
      <trkpt lat="45.12688" lon="1.30608">
        <ele>124.5</ele>
        <time>2023-10-28T12:20:26Z</time>
      </trkpt>
      <trkpt lat="45.1269" lon="1.3061">
        <ele>125.3</ele>
        <time>2023-10-28T12:20:27Z</time>
      </trkpt>
      <trkpt lat="45.12691" lon="1.30612">
        <ele>125.9</ele>
        <time>2023-10-28T12:20:28Z</time>
      </trkpt>
      <trkpt lat="45.12693" lon="1.30614">
        <ele>126.6</ele>
        <time>2023-10-28T12:20:29Z</time>
      </trkpt>
      <trkpt lat="45.12693" lon="1.30615">
        <ele>130.3</ele>
        <time>2023-10-28T12:20:30Z</time>
      </trkpt>
      <trkpt lat="45.12694" lon="1.30616">
        <ele>130.4</ele>
        <time>2023-10-28T12:20:31Z</time>
      </trkpt>
      <trkpt lat="45.12695" lon="1.30617">
        <ele>130.6</ele>
        <time>2023-10-28T12:20:32Z</time>
      </trkpt>
      <trkpt lat="45.12694" lon="1.30618">
        <ele>130.8</ele>
        <time>2023-10-28T12:20:33Z</time>
      </trkpt>
      <trkpt lat="45.12694" lon="1.3062">
        <ele>131</ele>
        <time>2023-10-28T12:20:34Z</time>
      </trkpt>
      <trkpt lat="45.12693" lon="1.30621">
        <ele>131.2</ele>
        <time>2023-10-28T12:20:35Z</time>
      </trkpt>
      <trkpt lat="45.12693" lon="1.30622">
        <ele>131.3</ele>
        <time>2023-10-28T12:20:36Z</time>
      </trkpt>
      <trkpt lat="45.12692" lon="1.30623">
        <ele>131.5</ele>
        <time>2023-10-28T12:20:37Z</time>
      </trkpt>
      <trkpt lat="45.12691" lon="1.30625">
        <ele>131.7</ele>
        <time>2023-10-28T12:20:38Z</time>
      </trkpt>
      <trkpt lat="45.1269" lon="1.30626">
        <ele>131.9</ele>
        <time>2023-10-28T12:20:39Z</time>
      </trkpt>
      <trkpt lat="45.1269" lon="1.30627">
        <ele>132</ele>
        <time>2023-10-28T12:20:40Z</time>
      </trkpt>
      <trkpt lat="45.1269" lon="1.30627">
        <ele>126.7</ele>
        <time>2023-10-28T12:20:41Z</time>
      </trkpt>
      <trkpt lat="45.12689" lon="1.30628">
        <ele>126.9</ele>
        <time>2023-10-28T12:20:42Z</time>
      </trkpt>
      <trkpt lat="45.1269" lon="1.30628">
        <ele>127.1</ele>
        <time>2023-10-28T12:20:43Z</time>
      </trkpt>
      <trkpt lat="45.1269" lon="1.30629">
        <ele>127.2</ele>
        <time>2023-10-28T12:20:44Z</time>
      </trkpt>
      <trkpt lat="45.1269" lon="1.3063">
        <ele>127.4</ele>
        <time>2023-10-28T12:20:45Z</time>
      </trkpt>
      <trkpt lat="45.1269" lon="1.30631">
        <ele>127.6</ele>
        <time>2023-10-28T12:20:46Z</time>
      </trkpt>
      <trkpt lat="45.12691" lon="1.30633">
        <ele>127.9</ele>
        <time>2023-10-28T12:20:47Z</time>
      </trkpt>
      <trkpt lat="45.12692" lon="1.30635">
        <ele>128.2</ele>
        <time>2023-10-28T12:20:48Z</time>
      </trkpt>
      <trkpt lat="45.12692" lon="1.30637">
        <ele>128.6</ele>
        <time>2023-10-28T12:20:49Z</time>
      </trkpt>
      <trkpt lat="45.12693" lon="1.30639">
        <ele>129</ele>
        <time>2023-10-28T12:20:50Z</time>
      </trkpt>
      <trkpt lat="45.12693" lon="1.30641">
        <ele>129.3</ele>
        <time>2023-10-28T12:20:51Z</time>
      </trkpt>
      <trkpt lat="45.12694" lon="1.30643">
        <ele>129.7</ele>
        <time>2023-10-28T12:20:52Z</time>
      </trkpt>
      <trkpt lat="45.12695" lon="1.30644">
        <ele>130</ele>
        <time>2023-10-28T12:20:53Z</time>
      </trkpt>
      <trkpt lat="45.12696" lon="1.30646">
        <ele>130.3</ele>
        <time>2023-10-28T12:20:54Z</time>
      </trkpt>
      <trkpt lat="45.12696" lon="1.30647">
        <ele>130.4</ele>
        <time>2023-10-28T12:20:55Z</time>
      </trkpt>
      <trkpt lat="45.12696" lon="1.30647">
        <ele>130.5</ele>
        <time>2023-10-28T12:20:56Z</time>
      </trkpt>
      <trkpt lat="45.12695" lon="1.30647">
        <ele>130.8</ele>
        <time>2023-10-28T12:20:57Z</time>
      </trkpt>
      <trkpt lat="45.12694" lon="1.30646">
        <ele>131</ele>
        <time>2023-10-28T12:20:58Z</time>
      </trkpt>
      <trkpt lat="45.12692" lon="1.30645">
        <ele>131.4</ele>
        <time>2023-10-28T12:20:59Z</time>
      </trkpt>
      <trkpt lat="45.12691" lon="1.30644">
        <ele>131.8</ele>
        <time>2023-10-28T12:21:00Z</time>
      </trkpt>
      <trkpt lat="45.12689" lon="1.30642">
        <ele>132.2</ele>
        <time>2023-10-28T12:21:01Z</time>
      </trkpt>
      <trkpt lat="45.12687" lon="1.30641">
        <ele>132.7</ele>
        <time>2023-10-28T12:21:02Z</time>
      </trkpt>
      <trkpt lat="45.12685" lon="1.30639">
        <ele>133.3</ele>
        <time>2023-10-28T12:21:03Z</time>
      </trkpt>
      <trkpt lat="45.12684" lon="1.30637">
        <ele>135.4</ele>
        <time>2023-10-28T12:21:04Z</time>
      </trkpt>
      <trkpt lat="45.12682" lon="1.30636">
        <ele>134.9</ele>
        <time>2023-10-28T12:21:05Z</time>
      </trkpt>
      <trkpt lat="45.1268" lon="1.30634">
        <ele>134.5</ele>
        <time>2023-10-28T12:21:06Z</time>
      </trkpt>
      <trkpt lat="45.12678" lon="1.30633">
        <ele>134.1</ele>
        <time>2023-10-28T12:21:07Z</time>
      </trkpt>
      <trkpt lat="45.12677" lon="1.30631">
        <ele>133.7</ele>
        <time>2023-10-28T12:21:08Z</time>
      </trkpt>
      <trkpt lat="45.12675" lon="1.3063">
        <ele>133.3</ele>
        <time>2023-10-28T12:21:09Z</time>
      </trkpt>
      <trkpt lat="45.12674" lon="1.30628">
        <ele>132.9</ele>
        <time>2023-10-28T12:21:10Z</time>
      </trkpt>
      <trkpt lat="45.12672" lon="1.30626">
        <ele>132.4</ele>
        <time>2023-10-28T12:21:11Z</time>
      </trkpt>
      <trkpt lat="45.12669" lon="1.30624">
        <ele>131.8</ele>
        <time>2023-10-28T12:21:12Z</time>
      </trkpt>
      <trkpt lat="45.12668" lon="1.30622">
        <ele>131.3</ele>
        <time>2023-10-28T12:21:13Z</time>
      </trkpt>
      <trkpt lat="45.12666" lon="1.3062">
        <ele>130.9</ele>
        <time>2023-10-28T12:21:14Z</time>
      </trkpt>
      <trkpt lat="45.12664" lon="1.30619">
        <ele>130.4</ele>
        <time>2023-10-28T12:21:15Z</time>
      </trkpt>
      <trkpt lat="45.12662" lon="1.30617">
        <ele>130</ele>
        <time>2023-10-28T12:21:16Z</time>
      </trkpt>
      <trkpt lat="45.1266" lon="1.30616">
        <ele>130.1</ele>
        <time>2023-10-28T12:21:17Z</time>
      </trkpt>
      <trkpt lat="45.12659" lon="1.30616">
        <ele>130.1</ele>
        <time>2023-10-28T12:21:18Z</time>
      </trkpt>
      <trkpt lat="45.12658" lon="1.30615">
        <ele>130.1</ele>
        <time>2023-10-28T12:21:19Z</time>
      </trkpt>
      <trkpt lat="45.12656" lon="1.30614">
        <ele>130.1</ele>
        <time>2023-10-28T12:21:20Z</time>
      </trkpt>
      <trkpt lat="45.12655" lon="1.30613">
        <ele>130.2</ele>
        <time>2023-10-28T12:21:21Z</time>
      </trkpt>
      <trkpt lat="45.12655" lon="1.30611">
        <ele>130.2</ele>
        <time>2023-10-28T12:21:22Z</time>
      </trkpt>
      <trkpt lat="45.12653" lon="1.3061">
        <ele>130.2</ele>
        <time>2023-10-28T12:21:23Z</time>
      </trkpt>
      <trkpt lat="45.12653" lon="1.30609">
        <ele>130.2</ele>
        <time>2023-10-28T12:21:24Z</time>
      </trkpt>
      <trkpt lat="45.12651" lon="1.30608">
        <ele>130.3</ele>
        <time>2023-10-28T12:21:25Z</time>
      </trkpt>
      <trkpt lat="45.1265" lon="1.30606">
        <ele>130.3</ele>
        <time>2023-10-28T12:21:26Z</time>
      </trkpt>
      <trkpt lat="45.12649" lon="1.30605">
        <ele>130.3</ele>
        <time>2023-10-28T12:21:27Z</time>
      </trkpt>
      <trkpt lat="45.12647" lon="1.30603">
        <ele>130.3</ele>
        <time>2023-10-28T12:21:28Z</time>
      </trkpt>
      <trkpt lat="45.12645" lon="1.30602">
        <ele>130.3</ele>
        <time>2023-10-28T12:21:29Z</time>
      </trkpt>
      <trkpt lat="45.12643" lon="1.306">
        <ele>130.4</ele>
        <time>2023-10-28T12:21:30Z</time>
      </trkpt>
      <trkpt lat="45.12642" lon="1.30599">
        <ele>130.4</ele>
        <time>2023-10-28T12:21:31Z</time>
      </trkpt>
      <trkpt lat="45.1264" lon="1.30598">
        <ele>130.4</ele>
        <time>2023-10-28T12:21:32Z</time>
      </trkpt>
      <trkpt lat="45.12639" lon="1.30597">
        <ele>130.4</ele>
        <time>2023-10-28T12:21:33Z</time>
      </trkpt>
      <trkpt lat="45.12637" lon="1.30596">
        <ele>130.5</ele>
        <time>2023-10-28T12:21:34Z</time>
      </trkpt>
      <trkpt lat="45.12637" lon="1.30597">
        <ele>130.5</ele>
        <time>2023-10-28T12:21:35Z</time>
      </trkpt>
      <trkpt lat="45.12637" lon="1.30597">
        <ele>130.5</ele>
        <time>2023-10-28T12:21:36Z</time>
      </trkpt>
      <trkpt lat="45.12638" lon="1.30598">
        <ele>130.5</ele>
        <time>2023-10-28T12:21:37Z</time>
      </trkpt>
      <trkpt lat="45.12639" lon="1.30599">
        <ele>130.5</ele>
        <time>2023-10-28T12:21:38Z</time>
      </trkpt>
      <trkpt lat="45.12641" lon="1.306">
        <ele>130.5</ele>
        <time>2023-10-28T12:21:39Z</time>
      </trkpt>
      <trkpt lat="45.12642" lon="1.30601">
        <ele>130.5</ele>
        <time>2023-10-28T12:21:40Z</time>
      </trkpt>
      <trkpt lat="45.12644" lon="1.30603">
        <ele>130.5</ele>
        <time>2023-10-28T12:21:41Z</time>
      </trkpt>
      <trkpt lat="45.12647" lon="1.30604">
        <ele>130.5</ele>
        <time>2023-10-28T12:21:42Z</time>
      </trkpt>
      <trkpt lat="45.12648" lon="1.30606">
        <ele>130.5</ele>
        <time>2023-10-28T12:21:43Z</time>
      </trkpt>
      <trkpt lat="45.1265" lon="1.30608">
        <ele>130.5</ele>
        <time>2023-10-28T12:21:44Z</time>
      </trkpt>
      <trkpt lat="45.12652" lon="1.3061">
        <ele>130.5</ele>
        <time>2023-10-28T12:21:45Z</time>
      </trkpt>
      <trkpt lat="45.12654" lon="1.30612">
        <ele>130.5</ele>
        <time>2023-10-28T12:21:46Z</time>
      </trkpt>
      <trkpt lat="45.12656" lon="1.30614">
        <ele>130.4</ele>
        <time>2023-10-28T12:21:47Z</time>
      </trkpt>
      <trkpt lat="45.12658" lon="1.30616">
        <ele>130.3</ele>
        <time>2023-10-28T12:21:48Z</time>
      </trkpt>
      <trkpt lat="45.1266" lon="1.30618">
        <ele>130.1</ele>
        <time>2023-10-28T12:21:49Z</time>
      </trkpt>
      <trkpt lat="45.12662" lon="1.3062">
        <ele>130.3</ele>
        <time>2023-10-28T12:21:50Z</time>
      </trkpt>
      <trkpt lat="45.12664" lon="1.30622">
        <ele>130.8</ele>
        <time>2023-10-28T12:21:51Z</time>
      </trkpt>
      <trkpt lat="45.12666" lon="1.30623">
        <ele>131.3</ele>
        <time>2023-10-28T12:21:52Z</time>
      </trkpt>
      <trkpt lat="45.12668" lon="1.30625">
        <ele>131.8</ele>
        <time>2023-10-28T12:21:53Z</time>
      </trkpt>
      <trkpt lat="45.1267" lon="1.30627">
        <ele>132.3</ele>
        <time>2023-10-28T12:21:54Z</time>
      </trkpt>
      <trkpt lat="45.12672" lon="1.30628">
        <ele>132.7</ele>
        <time>2023-10-28T12:21:55Z</time>
      </trkpt>
      <trkpt lat="45.12674" lon="1.30629">
        <ele>133.2</ele>
        <time>2023-10-28T12:21:56Z</time>
      </trkpt>
      <trkpt lat="45.12676" lon="1.30631">
        <ele>133.7</ele>
        <time>2023-10-28T12:21:57Z</time>
      </trkpt>
      <trkpt lat="45.12678" lon="1.30632">
        <ele>134.2</ele>
        <time>2023-10-28T12:21:58Z</time>
      </trkpt>
      <trkpt lat="45.1268" lon="1.30633">
        <ele>134.7</ele>
        <time>2023-10-28T12:21:59Z</time>
      </trkpt>
      <trkpt lat="45.12682" lon="1.30635">
        <ele>135.3</ele>
        <time>2023-10-28T12:22:00Z</time>
      </trkpt>
      <trkpt lat="45.12684" lon="1.30637">
        <ele>133.8</ele>
        <time>2023-10-28T12:22:01Z</time>
      </trkpt>
      <trkpt lat="45.12686" lon="1.30639">
        <ele>131.6</ele>
        <time>2023-10-28T12:22:02Z</time>
      </trkpt>
      <trkpt lat="45.12688" lon="1.30641">
        <ele>131.9</ele>
        <time>2023-10-28T12:22:03Z</time>
      </trkpt>
      <trkpt lat="45.12691" lon="1.30643">
        <ele>132.2</ele>
        <time>2023-10-28T12:22:04Z</time>
      </trkpt>
      <trkpt lat="45.12693" lon="1.30645">
        <ele>132.5</ele>
        <time>2023-10-28T12:22:05Z</time>
      </trkpt>
      <trkpt lat="45.12695" lon="1.30647">
        <ele>132.8</ele>
        <time>2023-10-28T12:22:06Z</time>
      </trkpt>
      <trkpt lat="45.12697" lon="1.3065">
        <ele>133.1</ele>
        <time>2023-10-28T12:22:07Z</time>
      </trkpt>
      <trkpt lat="45.12698" lon="1.30652">
        <ele>133.4</ele>
        <time>2023-10-28T12:22:08Z</time>
      </trkpt>
      <trkpt lat="45.127" lon="1.30654">
        <ele>133.6</ele>
        <time>2023-10-28T12:22:09Z</time>
      </trkpt>
      <trkpt lat="45.12702" lon="1.30656">
        <ele>133.9</ele>
        <time>2023-10-28T12:22:10Z</time>
      </trkpt>
      <trkpt lat="45.12704" lon="1.30658">
        <ele>134.2</ele>
        <time>2023-10-28T12:22:11Z</time>
      </trkpt>
      <trkpt lat="45.12706" lon="1.3066">
        <ele>134.5</ele>
        <time>2023-10-28T12:22:12Z</time>
      </trkpt>
      <trkpt lat="45.12708" lon="1.30661">
        <ele>134.8</ele>
        <time>2023-10-28T12:22:13Z</time>
      </trkpt>
      <trkpt lat="45.12709" lon="1.30663">
        <ele>135.1</ele>
        <time>2023-10-28T12:22:14Z</time>
      </trkpt>
      <trkpt lat="45.12711" lon="1.30665">
        <ele>135.4</ele>
        <time>2023-10-28T12:22:15Z</time>
      </trkpt>
      <trkpt lat="45.12714" lon="1.30667">
        <ele>135.8</ele>
        <time>2023-10-28T12:22:16Z</time>
      </trkpt>
      <trkpt lat="45.12715" lon="1.30669">
        <ele>136.2</ele>
        <time>2023-10-28T12:22:17Z</time>
      </trkpt>
      <trkpt lat="45.12717" lon="1.30671">
        <ele>136.4</ele>
        <time>2023-10-28T12:22:18Z</time>
      </trkpt>
      <trkpt lat="45.12719" lon="1.30674">
        <ele>136.5</ele>
        <time>2023-10-28T12:22:19Z</time>
      </trkpt>
      <trkpt lat="45.12721" lon="1.30676">
        <ele>136.6</ele>
        <time>2023-10-28T12:22:20Z</time>
      </trkpt>
      <trkpt lat="45.12722" lon="1.30679">
        <ele>136.7</ele>
        <time>2023-10-28T12:22:21Z</time>
      </trkpt>
      <trkpt lat="45.12724" lon="1.30681">
        <ele>136.8</ele>
        <time>2023-10-28T12:22:22Z</time>
      </trkpt>
      <trkpt lat="45.12726" lon="1.30684">
        <ele>137.1</ele>
        <time>2023-10-28T12:22:23Z</time>
      </trkpt>
      <trkpt lat="45.12729" lon="1.30686">
        <ele>137.3</ele>
        <time>2023-10-28T12:22:24Z</time>
      </trkpt>
      <trkpt lat="45.1273" lon="1.30687">
        <ele>137.5</ele>
        <time>2023-10-28T12:22:25Z</time>
      </trkpt>
      <trkpt lat="45.12732" lon="1.30689">
        <ele>137.7</ele>
        <time>2023-10-28T12:22:26Z</time>
      </trkpt>
      <trkpt lat="45.12734" lon="1.3069">
        <ele>137.9</ele>
        <time>2023-10-28T12:22:27Z</time>
      </trkpt>
      <trkpt lat="45.12736" lon="1.30691">
        <ele>138.1</ele>
        <time>2023-10-28T12:22:28Z</time>
      </trkpt>
      <trkpt lat="45.12738" lon="1.30693">
        <ele>138.3</ele>
        <time>2023-10-28T12:22:29Z</time>
      </trkpt>
      <trkpt lat="45.1274" lon="1.30695">
        <ele>138.5</ele>
        <time>2023-10-28T12:22:30Z</time>
      </trkpt>
      <trkpt lat="45.12741" lon="1.30697">
        <ele>138.7</ele>
        <time>2023-10-28T12:22:31Z</time>
      </trkpt>
      <trkpt lat="45.12743" lon="1.30699">
        <ele>138.9</ele>
        <time>2023-10-28T12:22:32Z</time>
      </trkpt>
      <trkpt lat="45.12744" lon="1.30702">
        <ele>139.1</ele>
        <time>2023-10-28T12:22:33Z</time>
      </trkpt>
      <trkpt lat="45.12746" lon="1.30704">
        <ele>139.3</ele>
        <time>2023-10-28T12:22:34Z</time>
      </trkpt>
      <trkpt lat="45.12747" lon="1.30707">
        <ele>139.6</ele>
        <time>2023-10-28T12:22:35Z</time>
      </trkpt>
      <trkpt lat="45.12749" lon="1.30709">
        <ele>139.8</ele>
        <time>2023-10-28T12:22:36Z</time>
      </trkpt>
      <trkpt lat="45.1275" lon="1.30711">
        <ele>140</ele>
        <time>2023-10-28T12:22:37Z</time>
      </trkpt>
      <trkpt lat="45.12751" lon="1.30714">
        <ele>140.2</ele>
        <time>2023-10-28T12:22:38Z</time>
      </trkpt>
      <trkpt lat="45.12752" lon="1.30716">
        <ele>140.4</ele>
        <time>2023-10-28T12:22:39Z</time>
      </trkpt>
      <trkpt lat="45.12753" lon="1.30719">
        <ele>140.6</ele>
        <time>2023-10-28T12:22:40Z</time>
      </trkpt>
      <trkpt lat="45.12754" lon="1.30721">
        <ele>140.7</ele>
        <time>2023-10-28T12:22:41Z</time>
      </trkpt>
      <trkpt lat="45.12755" lon="1.30723">
        <ele>140.9</ele>
        <time>2023-10-28T12:22:42Z</time>
      </trkpt>
      <trkpt lat="45.12756" lon="1.30725">
        <ele>141.1</ele>
        <time>2023-10-28T12:22:43Z</time>
      </trkpt>
      <trkpt lat="45.12757" lon="1.30727">
        <ele>141.2</ele>
        <time>2023-10-28T12:22:44Z</time>
      </trkpt>
      <trkpt lat="45.12758" lon="1.30728">
        <ele>141.4</ele>
        <time>2023-10-28T12:22:45Z</time>
      </trkpt>
      <trkpt lat="45.12758" lon="1.3073">
        <ele>141.5</ele>
        <time>2023-10-28T12:22:46Z</time>
      </trkpt>
      <trkpt lat="45.12759" lon="1.30732">
        <ele>141.7</ele>
        <time>2023-10-28T12:22:47Z</time>
      </trkpt>
      <trkpt lat="45.1276" lon="1.30734">
        <ele>141.8</ele>
        <time>2023-10-28T12:22:48Z</time>
      </trkpt>
      <trkpt lat="45.1276" lon="1.30737">
        <ele>142</ele>
        <time>2023-10-28T12:22:49Z</time>
      </trkpt>
      <trkpt lat="45.12761" lon="1.30739">
        <ele>142.2</ele>
        <time>2023-10-28T12:22:50Z</time>
      </trkpt>
      <trkpt lat="45.12761" lon="1.30741">
        <ele>142.3</ele>
        <time>2023-10-28T12:22:51Z</time>
      </trkpt>
      <trkpt lat="45.1276" lon="1.30744">
        <ele>142.5</ele>
        <time>2023-10-28T12:22:52Z</time>
      </trkpt>
      <trkpt lat="45.1276" lon="1.30747">
        <ele>142.7</ele>
        <time>2023-10-28T12:22:53Z</time>
      </trkpt>
      <trkpt lat="45.1276" lon="1.3075">
        <ele>143</ele>
        <time>2023-10-28T12:22:54Z</time>
      </trkpt>
      <trkpt lat="45.12759" lon="1.30753">
        <ele>143.2</ele>
        <time>2023-10-28T12:22:55Z</time>
      </trkpt>
      <trkpt lat="45.12759" lon="1.30756">
        <ele>143.4</ele>
        <time>2023-10-28T12:22:56Z</time>
      </trkpt>
      <trkpt lat="45.12759" lon="1.30759">
        <ele>143.7</ele>
        <time>2023-10-28T12:22:57Z</time>
      </trkpt>
      <trkpt lat="45.12759" lon="1.30762">
        <ele>143.9</ele>
        <time>2023-10-28T12:22:58Z</time>
      </trkpt>
      <trkpt lat="45.12758" lon="1.30765">
        <ele>144.2</ele>
        <time>2023-10-28T12:22:59Z</time>
      </trkpt>
      <trkpt lat="45.12757" lon="1.30768">
        <ele>144.4</ele>
        <time>2023-10-28T12:23:00Z</time>
      </trkpt>
      <trkpt lat="45.12756" lon="1.30771">
        <ele>144.6</ele>
        <time>2023-10-28T12:23:01Z</time>
      </trkpt>
      <trkpt lat="45.12755" lon="1.30773">
        <ele>144.9</ele>
        <time>2023-10-28T12:23:02Z</time>
      </trkpt>
      <trkpt lat="45.12754" lon="1.30775">
        <ele>145.1</ele>
        <time>2023-10-28T12:23:03Z</time>
      </trkpt>
      <trkpt lat="45.12753" lon="1.30777">
        <ele>145.3</ele>
        <time>2023-10-28T12:23:04Z</time>
      </trkpt>
      <trkpt lat="45.12751" lon="1.30779">
        <ele>145.6</ele>
        <time>2023-10-28T12:23:05Z</time>
      </trkpt>
      <trkpt lat="45.12749" lon="1.30781">
        <ele>145.8</ele>
        <time>2023-10-28T12:23:06Z</time>
      </trkpt>
      <trkpt lat="45.12747" lon="1.30782">
        <ele>146.2</ele>
        <time>2023-10-28T12:23:07Z</time>
      </trkpt>
      <trkpt lat="45.12745" lon="1.30783">
        <ele>146.4</ele>
        <time>2023-10-28T12:23:08Z</time>
      </trkpt>
      <trkpt lat="45.12743" lon="1.30784">
        <ele>146.6</ele>
        <time>2023-10-28T12:23:09Z</time>
      </trkpt>
      <trkpt lat="45.12741" lon="1.30784">
        <ele>146.9</ele>
        <time>2023-10-28T12:23:10Z</time>
      </trkpt>
      <trkpt lat="45.12738" lon="1.30784">
        <ele>147.1</ele>
        <time>2023-10-28T12:23:11Z</time>
      </trkpt>
      <trkpt lat="45.12736" lon="1.30783">
        <ele>147.3</ele>
        <time>2023-10-28T12:23:12Z</time>
      </trkpt>
      <trkpt lat="45.12734" lon="1.30782">
        <ele>147.5</ele>
        <time>2023-10-28T12:23:13Z</time>
      </trkpt>
      <trkpt lat="45.12732" lon="1.30781">
        <ele>147.7</ele>
        <time>2023-10-28T12:23:14Z</time>
      </trkpt>
      <trkpt lat="45.1273" lon="1.3078">
        <ele>147.9</ele>
        <time>2023-10-28T12:23:15Z</time>
      </trkpt>
      <trkpt lat="45.12729" lon="1.30778">
        <ele>148.1</ele>
        <time>2023-10-28T12:23:16Z</time>
      </trkpt>
      <trkpt lat="45.12727" lon="1.30776">
        <ele>148.3</ele>
        <time>2023-10-28T12:23:17Z</time>
      </trkpt>
      <trkpt lat="45.12725" lon="1.30774">
        <ele>148.4</ele>
        <time>2023-10-28T12:23:18Z</time>
      </trkpt>
      <trkpt lat="45.12724" lon="1.30772">
        <ele>148.6</ele>
        <time>2023-10-28T12:23:19Z</time>
      </trkpt>
      <trkpt lat="45.12723" lon="1.30769">
        <ele>148.8</ele>
        <time>2023-10-28T12:23:20Z</time>
      </trkpt>
      <trkpt lat="45.12722" lon="1.30767">
        <ele>149</ele>
        <time>2023-10-28T12:23:21Z</time>
      </trkpt>
      <trkpt lat="45.12721" lon="1.30764">
        <ele>149.1</ele>
        <time>2023-10-28T12:23:22Z</time>
      </trkpt>
      <trkpt lat="45.12719" lon="1.30761">
        <ele>149.3</ele>
        <time>2023-10-28T12:23:23Z</time>
      </trkpt>
      <trkpt lat="45.12718" lon="1.30759">
        <ele>149.5</ele>
        <time>2023-10-28T12:23:24Z</time>
      </trkpt>
      <trkpt lat="45.12717" lon="1.30756">
        <ele>149.6</ele>
        <time>2023-10-28T12:23:25Z</time>
      </trkpt>
      <trkpt lat="45.12716" lon="1.30754">
        <ele>149.8</ele>
        <time>2023-10-28T12:23:26Z</time>
      </trkpt>
      <trkpt lat="45.12714" lon="1.30751">
        <ele>149.9</ele>
        <time>2023-10-28T12:23:27Z</time>
      </trkpt>
      <trkpt lat="45.12713" lon="1.30749">
        <ele>150.1</ele>
        <time>2023-10-28T12:23:28Z</time>
      </trkpt>
      <trkpt lat="45.12712" lon="1.30746">
        <ele>150.2</ele>
        <time>2023-10-28T12:23:29Z</time>
      </trkpt>
      <trkpt lat="45.12711" lon="1.30744">
        <ele>150.3</ele>
        <time>2023-10-28T12:23:30Z</time>
      </trkpt>
      <trkpt lat="45.12709" lon="1.30742">
        <ele>150.5</ele>
        <time>2023-10-28T12:23:31Z</time>
      </trkpt>
      <trkpt lat="45.12708" lon="1.3074">
        <ele>150.6</ele>
        <time>2023-10-28T12:23:32Z</time>
      </trkpt>
      <trkpt lat="45.12706" lon="1.30738">
        <ele>150.8</ele>
        <time>2023-10-28T12:23:33Z</time>
      </trkpt>
      <trkpt lat="45.12704" lon="1.30736">
        <ele>150.9</ele>
        <time>2023-10-28T12:23:34Z</time>
      </trkpt>
      <trkpt lat="45.12703" lon="1.30734">
        <ele>151</ele>
        <time>2023-10-28T12:23:35Z</time>
      </trkpt>
      <trkpt lat="45.12701" lon="1.30732">
        <ele>151.1</ele>
        <time>2023-10-28T12:23:36Z</time>
      </trkpt>
      <trkpt lat="45.12699" lon="1.3073">
        <ele>151.3</ele>
        <time>2023-10-28T12:23:37Z</time>
      </trkpt>
      <trkpt lat="45.12697" lon="1.30728">
        <ele>151.4</ele>
        <time>2023-10-28T12:23:38Z</time>
      </trkpt>
      <trkpt lat="45.12695" lon="1.30727">
        <ele>151.5</ele>
        <time>2023-10-28T12:23:39Z</time>
      </trkpt>
      <trkpt lat="45.12694" lon="1.30725">
        <ele>151.6</ele>
        <time>2023-10-28T12:23:40Z</time>
      </trkpt>
      <trkpt lat="45.12692" lon="1.30724">
        <ele>151.8</ele>
        <time>2023-10-28T12:23:41Z</time>
      </trkpt>
      <trkpt lat="45.1269" lon="1.30723">
        <ele>151.9</ele>
        <time>2023-10-28T12:23:42Z</time>
      </trkpt>
      <trkpt lat="45.12688" lon="1.30721">
        <ele>152</ele>
        <time>2023-10-28T12:23:43Z</time>
      </trkpt>
      <trkpt lat="45.12686" lon="1.3072">
        <ele>152.2</ele>
        <time>2023-10-28T12:23:44Z</time>
      </trkpt>
      <trkpt lat="45.12684" lon="1.3072">
        <ele>152.3</ele>
        <time>2023-10-28T12:23:45Z</time>
      </trkpt>
      <trkpt lat="45.12682" lon="1.30719">
        <ele>152.4</ele>
        <time>2023-10-28T12:23:46Z</time>
      </trkpt>
      <trkpt lat="45.1268" lon="1.30719">
        <ele>152.5</ele>
        <time>2023-10-28T12:23:47Z</time>
      </trkpt>
      <trkpt lat="45.12678" lon="1.30719">
        <ele>152.6</ele>
        <time>2023-10-28T12:23:48Z</time>
      </trkpt>
      <trkpt lat="45.12676" lon="1.3072">
        <ele>152.7</ele>
        <time>2023-10-28T12:23:49Z</time>
      </trkpt>
      <trkpt lat="45.12674" lon="1.3072">
        <ele>152.8</ele>
        <time>2023-10-28T12:23:50Z</time>
      </trkpt>
      <trkpt lat="45.12672" lon="1.30721">
        <ele>152.9</ele>
        <time>2023-10-28T12:23:51Z</time>
      </trkpt>
      <trkpt lat="45.1267" lon="1.30722">
        <ele>153.1</ele>
        <time>2023-10-28T12:23:52Z</time>
      </trkpt>
      <trkpt lat="45.12668" lon="1.30722">
        <ele>153.2</ele>
        <time>2023-10-28T12:23:53Z</time>
      </trkpt>
      <trkpt lat="45.12666" lon="1.30723">
        <ele>153.3</ele>
        <time>2023-10-28T12:23:54Z</time>
      </trkpt>
      <trkpt lat="45.12664" lon="1.30723">
        <ele>153.3</ele>
        <time>2023-10-28T12:23:55Z</time>
      </trkpt>
      <trkpt lat="45.12661" lon="1.30723">
        <ele>153.4</ele>
        <time>2023-10-28T12:23:56Z</time>
      </trkpt>
      <trkpt lat="45.12659" lon="1.30723">
        <ele>153.5</ele>
        <time>2023-10-28T12:23:57Z</time>
      </trkpt>
      <trkpt lat="45.12657" lon="1.30722">
        <ele>153.6</ele>
        <time>2023-10-28T12:23:58Z</time>
      </trkpt>
      <trkpt lat="45.12655" lon="1.30722">
        <ele>153.6</ele>
        <time>2023-10-28T12:23:59Z</time>
      </trkpt>
      <trkpt lat="45.12653" lon="1.30721">
        <ele>153.7</ele>
        <time>2023-10-28T12:24:00Z</time>
      </trkpt>
      <trkpt lat="45.12651" lon="1.30721">
        <ele>153.8</ele>
        <time>2023-10-28T12:24:01Z</time>
      </trkpt>
      <trkpt lat="45.12648" lon="1.3072">
        <ele>153.9</ele>
        <time>2023-10-28T12:24:02Z</time>
      </trkpt>
      <trkpt lat="45.12647" lon="1.30719">
        <ele>153.9</ele>
        <time>2023-10-28T12:24:03Z</time>
      </trkpt>
      <trkpt lat="45.12645" lon="1.30718">
        <ele>154</ele>
        <time>2023-10-28T12:24:04Z</time>
      </trkpt>
      <trkpt lat="45.12642" lon="1.30717">
        <ele>154.1</ele>
        <time>2023-10-28T12:24:05Z</time>
      </trkpt>
      <trkpt lat="45.1264" lon="1.30716">
        <ele>154.1</ele>
        <time>2023-10-28T12:24:06Z</time>
      </trkpt>
      <trkpt lat="45.12639" lon="1.30715">
        <ele>154.2</ele>
        <time>2023-10-28T12:24:07Z</time>
      </trkpt>
      <trkpt lat="45.12637" lon="1.30714">
        <ele>154.3</ele>
        <time>2023-10-28T12:24:08Z</time>
      </trkpt>
      <trkpt lat="45.12635" lon="1.30712">
        <ele>154.3</ele>
        <time>2023-10-28T12:24:09Z</time>
      </trkpt>
      <trkpt lat="45.12633" lon="1.30711">
        <ele>154.4</ele>
        <time>2023-10-28T12:24:10Z</time>
      </trkpt>
      <trkpt lat="45.12631" lon="1.30709">
        <ele>154.5</ele>
        <time>2023-10-28T12:24:11Z</time>
      </trkpt>
      <trkpt lat="45.12629" lon="1.30708">
        <ele>154.5</ele>
        <time>2023-10-28T12:24:12Z</time>
      </trkpt>
      <trkpt lat="45.12628" lon="1.30706">
        <ele>154.6</ele>
        <time>2023-10-28T12:24:13Z</time>
      </trkpt>
      <trkpt lat="45.12626" lon="1.30705">
        <ele>154.6</ele>
        <time>2023-10-28T12:24:14Z</time>
      </trkpt>
      <trkpt lat="45.12625" lon="1.30703">
        <ele>154.7</ele>
        <time>2023-10-28T12:24:15Z</time>
      </trkpt>
      <trkpt lat="45.12623" lon="1.30702">
        <ele>154.7</ele>
        <time>2023-10-28T12:24:16Z</time>
      </trkpt>
      <trkpt lat="45.12623" lon="1.30702">
        <ele>154.7</ele>
        <time>2023-10-28T12:24:17Z</time>
      </trkpt>
      <trkpt lat="45.12623" lon="1.30701">
        <ele>154.7</ele>
        <time>2023-10-28T12:24:18Z</time>
      </trkpt>
      <trkpt lat="45.12622" lon="1.30701">
        <ele>154.8</ele>
        <time>2023-10-28T12:24:19Z</time>
      </trkpt>
      <trkpt lat="45.12622" lon="1.30701">
        <ele>154.8</ele>
        <time>2023-10-28T12:24:20Z</time>
      </trkpt>
      <trkpt lat="45.12622" lon="1.30702">
        <ele>154.8</ele>
        <time>2023-10-28T12:24:21Z</time>
      </trkpt>
      <trkpt lat="45.12623" lon="1.30703">
        <ele>154.8</ele>
        <time>2023-10-28T12:24:22Z</time>
      </trkpt>
      <trkpt lat="45.12624" lon="1.30704">
        <ele>154.8</ele>
        <time>2023-10-28T12:24:23Z</time>
      </trkpt>
      <trkpt lat="45.12625" lon="1.30706">
        <ele>154.9</ele>
        <time>2023-10-28T12:24:24Z</time>
      </trkpt>
      <trkpt lat="45.12627" lon="1.30708">
        <ele>154.9</ele>
        <time>2023-10-28T12:24:25Z</time>
      </trkpt>
      <trkpt lat="45.12628" lon="1.30711">
        <ele>155</ele>
        <time>2023-10-28T12:24:26Z</time>
      </trkpt>
      <trkpt lat="45.1263" lon="1.30713">
        <ele>155.1</ele>
        <time>2023-10-28T12:24:27Z</time>
      </trkpt>
      <trkpt lat="45.12631" lon="1.30715">
        <ele>155.1</ele>
        <time>2023-10-28T12:24:28Z</time>
      </trkpt>
      <trkpt lat="45.12632" lon="1.30717">
        <ele>155.2</ele>
        <time>2023-10-28T12:24:29Z</time>
      </trkpt>
      <trkpt lat="45.12632" lon="1.3072">
        <ele>155.2</ele>
        <time>2023-10-28T12:24:30Z</time>
      </trkpt>
      <trkpt lat="45.12632" lon="1.30721">
        <ele>155.2</ele>
        <time>2023-10-28T12:24:31Z</time>
      </trkpt>
      <trkpt lat="45.12631" lon="1.30723">
        <ele>155.3</ele>
        <time>2023-10-28T12:24:32Z</time>
      </trkpt>
      <trkpt lat="45.12629" lon="1.30723">
        <ele>155.3</ele>
        <time>2023-10-28T12:24:33Z</time>
      </trkpt>
      <trkpt lat="45.12628" lon="1.30724">
        <ele>155.3</ele>
        <time>2023-10-28T12:24:34Z</time>
      </trkpt>
      <trkpt lat="45.12626" lon="1.30723">
        <ele>155.4</ele>
        <time>2023-10-28T12:24:35Z</time>
      </trkpt>
      <trkpt lat="45.12624" lon="1.30723">
        <ele>155.4</ele>
        <time>2023-10-28T12:24:36Z</time>
      </trkpt>
      <trkpt lat="45.12621" lon="1.30722">
        <ele>155.5</ele>
        <time>2023-10-28T12:24:37Z</time>
      </trkpt>
      <trkpt lat="45.12619" lon="1.3072">
        <ele>155.5</ele>
        <time>2023-10-28T12:24:38Z</time>
      </trkpt>
      <trkpt lat="45.12617" lon="1.30719">
        <ele>155.6</ele>
        <time>2023-10-28T12:24:39Z</time>
      </trkpt>
      <trkpt lat="45.12615" lon="1.30717">
        <ele>155.6</ele>
        <time>2023-10-28T12:24:40Z</time>
      </trkpt>
      <trkpt lat="45.12613" lon="1.30716">
        <ele>155.7</ele>
        <time>2023-10-28T12:24:41Z</time>
      </trkpt>
      <trkpt lat="45.12611" lon="1.30714">
        <ele>155.7</ele>
        <time>2023-10-28T12:24:42Z</time>
      </trkpt>
      <trkpt lat="45.12609" lon="1.30713">
        <ele>155.8</ele>
        <time>2023-10-28T12:24:43Z</time>
      </trkpt>
      <trkpt lat="45.12607" lon="1.30712">
        <ele>155.8</ele>
        <time>2023-10-28T12:24:44Z</time>
      </trkpt>
      <trkpt lat="45.12605" lon="1.30711">
        <ele>155.9</ele>
        <time>2023-10-28T12:24:45Z</time>
      </trkpt>
      <trkpt lat="45.12603" lon="1.3071">
        <ele>155.9</ele>
        <time>2023-10-28T12:24:46Z</time>
      </trkpt>
      <trkpt lat="45.12602" lon="1.30708">
        <ele>156</ele>
        <time>2023-10-28T12:24:47Z</time>
      </trkpt>
      <trkpt lat="45.126" lon="1.30707">
        <ele>156.1</ele>
        <time>2023-10-28T12:24:48Z</time>
      </trkpt>
      <trkpt lat="45.12597" lon="1.30706">
        <ele>156.2</ele>
        <time>2023-10-28T12:24:49Z</time>
      </trkpt>
      <trkpt lat="45.12595" lon="1.30704">
        <ele>156.3</ele>
        <time>2023-10-28T12:24:50Z</time>
      </trkpt>
      <trkpt lat="45.12594" lon="1.30703">
        <ele>156.3</ele>
        <time>2023-10-28T12:24:51Z</time>
      </trkpt>
      <trkpt lat="45.12592" lon="1.30701">
        <ele>156.4</ele>
        <time>2023-10-28T12:24:52Z</time>
      </trkpt>
      <trkpt lat="45.1259" lon="1.307">
        <ele>156.5</ele>
        <time>2023-10-28T12:24:53Z</time>
      </trkpt>
      <trkpt lat="45.12588" lon="1.30699">
        <ele>156.6</ele>
        <time>2023-10-28T12:24:54Z</time>
      </trkpt>
      <trkpt lat="45.12587" lon="1.30698">
        <ele>156.6</ele>
        <time>2023-10-28T12:24:55Z</time>
      </trkpt>
      <trkpt lat="45.12585" lon="1.30697">
        <ele>156.7</ele>
        <time>2023-10-28T12:24:56Z</time>
      </trkpt>
      <trkpt lat="45.12583" lon="1.30696">
        <ele>156.8</ele>
        <time>2023-10-28T12:24:57Z</time>
      </trkpt>
      <trkpt lat="45.12581" lon="1.30695">
        <ele>156.8</ele>
        <time>2023-10-28T12:24:58Z</time>
      </trkpt>
      <trkpt lat="45.12579" lon="1.30695">
        <ele>156.9</ele>
        <time>2023-10-28T12:24:59Z</time>
      </trkpt>
      <trkpt lat="45.12577" lon="1.30695">
        <ele>157</ele>
        <time>2023-10-28T12:25:00Z</time>
      </trkpt>
      <trkpt lat="45.12576" lon="1.30695">
        <ele>157</ele>
        <time>2023-10-28T12:25:01Z</time>
      </trkpt>
      <trkpt lat="45.12574" lon="1.30695">
        <ele>157.1</ele>
        <time>2023-10-28T12:25:02Z</time>
      </trkpt>
      <trkpt lat="45.12573" lon="1.30697">
        <ele>157.2</ele>
        <time>2023-10-28T12:25:03Z</time>
      </trkpt>
      <trkpt lat="45.12571" lon="1.30698">
        <ele>157.2</ele>
        <time>2023-10-28T12:25:04Z</time>
      </trkpt>
      <trkpt lat="45.1257" lon="1.30701">
        <ele>157.3</ele>
        <time>2023-10-28T12:25:05Z</time>
      </trkpt>
      <trkpt lat="45.12569" lon="1.30703">
        <ele>157.4</ele>
        <time>2023-10-28T12:25:06Z</time>
      </trkpt>
      <trkpt lat="45.12569" lon="1.30705">
        <ele>157.5</ele>
        <time>2023-10-28T12:25:07Z</time>
      </trkpt>
      <trkpt lat="45.12569" lon="1.30708">
        <ele>157.5</ele>
        <time>2023-10-28T12:25:08Z</time>
      </trkpt>
      <trkpt lat="45.12569" lon="1.30709">
        <ele>157.5</ele>
        <time>2023-10-28T12:25:09Z</time>
      </trkpt>
      <trkpt lat="45.12569" lon="1.3071">
        <ele>157.4</ele>
        <time>2023-10-28T12:25:10Z</time>
      </trkpt>
      <trkpt lat="45.12569" lon="1.30711">
        <ele>157.4</ele>
        <time>2023-10-28T12:25:11Z</time>
      </trkpt>
      <trkpt lat="45.1257" lon="1.30711">
        <ele>157.4</ele>
        <time>2023-10-28T12:25:12Z</time>
      </trkpt>
      <trkpt lat="45.12571" lon="1.3071">
        <ele>157.3</ele>
        <time>2023-10-28T12:25:13Z</time>
      </trkpt>
      <trkpt lat="45.12571" lon="1.3071">
        <ele>157.3</ele>
        <time>2023-10-28T12:25:14Z</time>
      </trkpt>
      <trkpt lat="45.12572" lon="1.30708">
        <ele>157.2</ele>
        <time>2023-10-28T12:25:15Z</time>
      </trkpt>
      <trkpt lat="45.12573" lon="1.30706">
        <ele>157.2</ele>
        <time>2023-10-28T12:25:16Z</time>
      </trkpt>
      <trkpt lat="45.12574" lon="1.30704">
        <ele>157.1</ele>
        <time>2023-10-28T12:25:17Z</time>
      </trkpt>
      <trkpt lat="45.12576" lon="1.30702">
        <ele>157</ele>
        <time>2023-10-28T12:25:18Z</time>
      </trkpt>
      <trkpt lat="45.12577" lon="1.307">
        <ele>156.9</ele>
        <time>2023-10-28T12:25:19Z</time>
      </trkpt>
      <trkpt lat="45.12579" lon="1.30699">
        <ele>156.8</ele>
        <time>2023-10-28T12:25:20Z</time>
      </trkpt>
      <trkpt lat="45.12582" lon="1.30699">
        <ele>156.7</ele>
        <time>2023-10-28T12:25:21Z</time>
      </trkpt>
      <trkpt lat="45.12584" lon="1.307">
        <ele>156.7</ele>
        <time>2023-10-28T12:25:22Z</time>
      </trkpt>
      <trkpt lat="45.12587" lon="1.30701">
        <ele>156.5</ele>
        <time>2023-10-28T12:25:23Z</time>
      </trkpt>
      <trkpt lat="45.1259" lon="1.30703">
        <ele>156.4</ele>
        <time>2023-10-28T12:25:24Z</time>
      </trkpt>
      <trkpt lat="45.12594" lon="1.30705">
        <ele>156.3</ele>
        <time>2023-10-28T12:25:25Z</time>
      </trkpt>
      <trkpt lat="45.12597" lon="1.30707">
        <ele>156.2</ele>
        <time>2023-10-28T12:25:26Z</time>
      </trkpt>
      <trkpt lat="45.126" lon="1.30709">
        <ele>156</ele>
        <time>2023-10-28T12:25:27Z</time>
      </trkpt>
      <trkpt lat="45.12603" lon="1.30711">
        <ele>155.9</ele>
        <time>2023-10-28T12:25:28Z</time>
      </trkpt>
      <trkpt lat="45.12606" lon="1.30713">
        <ele>155.8</ele>
        <time>2023-10-28T12:25:29Z</time>
      </trkpt>
      <trkpt lat="45.1261" lon="1.30715">
        <ele>155.7</ele>
        <time>2023-10-28T12:25:30Z</time>
      </trkpt>
      <trkpt lat="45.12613" lon="1.30717">
        <ele>155.7</ele>
        <time>2023-10-28T12:25:31Z</time>
      </trkpt>
      <trkpt lat="45.12616" lon="1.30719">
        <ele>155.6</ele>
        <time>2023-10-28T12:25:32Z</time>
      </trkpt>
      <trkpt lat="45.12619" lon="1.3072">
        <ele>155.5</ele>
        <time>2023-10-28T12:25:33Z</time>
      </trkpt>
      <trkpt lat="45.12622" lon="1.30721">
        <ele>155.4</ele>
        <time>2023-10-28T12:25:34Z</time>
      </trkpt>
      <trkpt lat="45.12625" lon="1.30722">
        <ele>155.4</ele>
        <time>2023-10-28T12:25:35Z</time>
      </trkpt>
      <trkpt lat="45.12628" lon="1.30723">
        <ele>155.3</ele>
        <time>2023-10-28T12:25:36Z</time>
      </trkpt>
      <trkpt lat="45.1263" lon="1.30722">
        <ele>155.2</ele>
        <time>2023-10-28T12:25:37Z</time>
      </trkpt>
      <trkpt lat="45.12632" lon="1.30722">
        <ele>155.2</ele>
        <time>2023-10-28T12:25:38Z</time>
      </trkpt>
      <trkpt lat="45.12633" lon="1.3072">
        <ele>155.1</ele>
        <time>2023-10-28T12:25:39Z</time>
      </trkpt>
      <trkpt lat="45.12633" lon="1.30718">
        <ele>155.1</ele>
        <time>2023-10-28T12:25:40Z</time>
      </trkpt>
      <trkpt lat="45.12632" lon="1.30716">
        <ele>155.1</ele>
        <time>2023-10-28T12:25:41Z</time>
      </trkpt>
      <trkpt lat="45.12631" lon="1.30714">
        <ele>155</ele>
        <time>2023-10-28T12:25:42Z</time>
      </trkpt>
      <trkpt lat="45.12629" lon="1.30712">
        <ele>154.9</ele>
        <time>2023-10-28T12:25:43Z</time>
      </trkpt>
      <trkpt lat="45.12627" lon="1.3071">
        <ele>154.9</ele>
        <time>2023-10-28T12:25:44Z</time>
      </trkpt>
      <trkpt lat="45.12626" lon="1.30708">
        <ele>154.8</ele>
        <time>2023-10-28T12:25:45Z</time>
      </trkpt>
      <trkpt lat="45.12625" lon="1.30705">
        <ele>154.8</ele>
        <time>2023-10-28T12:25:46Z</time>
      </trkpt>
      <trkpt lat="45.12625" lon="1.30704">
        <ele>154.7</ele>
        <time>2023-10-28T12:25:47Z</time>
      </trkpt>
      <trkpt lat="45.12625" lon="1.30703">
        <ele>154.7</ele>
        <time>2023-10-28T12:25:48Z</time>
      </trkpt>
      <trkpt lat="45.12627" lon="1.30704">
        <ele>154.7</ele>
        <time>2023-10-28T12:25:49Z</time>
      </trkpt>
      <trkpt lat="45.12628" lon="1.30705">
        <ele>154.6</ele>
        <time>2023-10-28T12:25:50Z</time>
      </trkpt>
      <trkpt lat="45.12631" lon="1.30707">
        <ele>154.6</ele>
        <time>2023-10-28T12:25:51Z</time>
      </trkpt>
      <trkpt lat="45.12633" lon="1.30709">
        <ele>154.5</ele>
        <time>2023-10-28T12:25:52Z</time>
      </trkpt>
      <trkpt lat="45.12635" lon="1.30711">
        <ele>154.4</ele>
        <time>2023-10-28T12:25:53Z</time>
      </trkpt>
      <trkpt lat="45.12638" lon="1.30713">
        <ele>154.3</ele>
        <time>2023-10-28T12:25:54Z</time>
      </trkpt>
      <trkpt lat="45.12641" lon="1.30714">
        <ele>154.2</ele>
        <time>2023-10-28T12:25:55Z</time>
      </trkpt>
      <trkpt lat="45.12644" lon="1.30716">
        <ele>154.1</ele>
        <time>2023-10-28T12:25:56Z</time>
      </trkpt>
      <trkpt lat="45.12647" lon="1.30718">
        <ele>154</ele>
        <time>2023-10-28T12:25:57Z</time>
      </trkpt>
      <trkpt lat="45.12649" lon="1.30719">
        <ele>153.9</ele>
        <time>2023-10-28T12:25:58Z</time>
      </trkpt>
      <trkpt lat="45.12652" lon="1.3072">
        <ele>153.8</ele>
        <time>2023-10-28T12:25:59Z</time>
      </trkpt>
      <trkpt lat="45.12654" lon="1.30721">
        <ele>153.7</ele>
        <time>2023-10-28T12:26:00Z</time>
      </trkpt>
      <trkpt lat="45.12657" lon="1.30722">
        <ele>153.6</ele>
        <time>2023-10-28T12:26:01Z</time>
      </trkpt>
      <trkpt lat="45.1266" lon="1.30723">
        <ele>153.5</ele>
        <time>2023-10-28T12:26:02Z</time>
      </trkpt>
      <trkpt lat="45.12662" lon="1.30723">
        <ele>153.4</ele>
        <time>2023-10-28T12:26:03Z</time>
      </trkpt>
      <trkpt lat="45.12665" lon="1.30724">
        <ele>153.3</ele>
        <time>2023-10-28T12:26:04Z</time>
      </trkpt>
      <trkpt lat="45.12668" lon="1.30724">
        <ele>153.2</ele>
        <time>2023-10-28T12:26:05Z</time>
      </trkpt>
      <trkpt lat="45.12671" lon="1.30724">
        <ele>153</ele>
        <time>2023-10-28T12:26:06Z</time>
      </trkpt>
      <trkpt lat="45.12674" lon="1.30725">
        <ele>152.8</ele>
        <time>2023-10-28T12:26:07Z</time>
      </trkpt>
      <trkpt lat="45.12676" lon="1.30725">
        <ele>152.7</ele>
        <time>2023-10-28T12:26:08Z</time>
      </trkpt>
      <trkpt lat="45.12679" lon="1.30726">
        <ele>152.5</ele>
        <time>2023-10-28T12:26:09Z</time>
      </trkpt>
      <trkpt lat="45.12682" lon="1.30727">
        <ele>152.4</ele>
        <time>2023-10-28T12:26:10Z</time>
      </trkpt>
      <trkpt lat="45.12684" lon="1.30728">
        <ele>152.2</ele>
        <time>2023-10-28T12:26:11Z</time>
      </trkpt>
      <trkpt lat="45.12687" lon="1.30729">
        <ele>152.1</ele>
        <time>2023-10-28T12:26:12Z</time>
      </trkpt>
      <trkpt lat="45.12689" lon="1.3073">
        <ele>152</ele>
        <time>2023-10-28T12:26:13Z</time>
      </trkpt>
      <trkpt lat="45.12691" lon="1.30732">
        <ele>151.8</ele>
        <time>2023-10-28T12:26:14Z</time>
      </trkpt>
      <trkpt lat="45.12693" lon="1.30733">
        <ele>151.7</ele>
        <time>2023-10-28T12:26:15Z</time>
      </trkpt>
      <trkpt lat="45.12696" lon="1.30735">
        <ele>151.5</ele>
        <time>2023-10-28T12:26:16Z</time>
      </trkpt>
      <trkpt lat="45.12698" lon="1.30738">
        <ele>151.3</ele>
        <time>2023-10-28T12:26:17Z</time>
      </trkpt>
      <trkpt lat="45.12701" lon="1.3074">
        <ele>151.1</ele>
        <time>2023-10-28T12:26:18Z</time>
      </trkpt>
      <trkpt lat="45.12703" lon="1.30743">
        <ele>151</ele>
        <time>2023-10-28T12:26:19Z</time>
      </trkpt>
      <trkpt lat="45.12705" lon="1.30746">
        <ele>150.8</ele>
        <time>2023-10-28T12:26:20Z</time>
      </trkpt>
      <trkpt lat="45.12708" lon="1.30749">
        <ele>150.6</ele>
        <time>2023-10-28T12:26:21Z</time>
      </trkpt>
      <trkpt lat="45.12709" lon="1.30753">
        <ele>150.4</ele>
        <time>2023-10-28T12:26:22Z</time>
      </trkpt>
      <trkpt lat="45.12712" lon="1.30756">
        <ele>150.1</ele>
        <time>2023-10-28T12:26:23Z</time>
      </trkpt>
      <trkpt lat="45.12714" lon="1.3076">
        <ele>149.9</ele>
        <time>2023-10-28T12:26:24Z</time>
      </trkpt>
      <trkpt lat="45.12716" lon="1.30764">
        <ele>149.7</ele>
        <time>2023-10-28T12:26:25Z</time>
      </trkpt>
      <trkpt lat="45.12717" lon="1.30768">
        <ele>149.5</ele>
        <time>2023-10-28T12:26:26Z</time>
      </trkpt>
      <trkpt lat="45.1272" lon="1.30771">
        <ele>149.2</ele>
        <time>2023-10-28T12:26:27Z</time>
      </trkpt>
      <trkpt lat="45.12722" lon="1.30775">
        <ele>149</ele>
        <time>2023-10-28T12:26:28Z</time>
      </trkpt>
      <trkpt lat="45.12724" lon="1.30778">
        <ele>148.7</ele>
        <time>2023-10-28T12:26:29Z</time>
      </trkpt>
      <trkpt lat="45.12726" lon="1.30781">
        <ele>148.4</ele>
        <time>2023-10-28T12:26:30Z</time>
      </trkpt>
      <trkpt lat="45.12729" lon="1.30784">
        <ele>148.2</ele>
        <time>2023-10-28T12:26:31Z</time>
      </trkpt>
      <trkpt lat="45.12731" lon="1.30786">
        <ele>147.9</ele>
        <time>2023-10-28T12:26:32Z</time>
      </trkpt>
      <trkpt lat="45.12734" lon="1.30788">
        <ele>147.7</ele>
        <time>2023-10-28T12:26:33Z</time>
      </trkpt>
      <trkpt lat="45.12736" lon="1.3079">
        <ele>147.4</ele>
        <time>2023-10-28T12:26:34Z</time>
      </trkpt>
      <trkpt lat="45.12739" lon="1.30791">
        <ele>147.2</ele>
        <time>2023-10-28T12:26:35Z</time>
      </trkpt>
      <trkpt lat="45.12742" lon="1.30792">
        <ele>146.9</ele>
        <time>2023-10-28T12:26:36Z</time>
      </trkpt>
      <trkpt lat="45.12744" lon="1.30792">
        <ele>146.7</ele>
        <time>2023-10-28T12:26:37Z</time>
      </trkpt>
      <trkpt lat="45.12747" lon="1.30791">
        <ele>146.3</ele>
        <time>2023-10-28T12:26:38Z</time>
      </trkpt>
      <trkpt lat="45.1275" lon="1.3079">
        <ele>146.2</ele>
        <time>2023-10-28T12:26:39Z</time>
      </trkpt>
      <trkpt lat="45.12752" lon="1.30789">
        <ele>145.9</ele>
        <time>2023-10-28T12:26:40Z</time>
      </trkpt>
      <trkpt lat="45.12754" lon="1.30787">
        <ele>145.6</ele>
        <time>2023-10-28T12:26:41Z</time>
      </trkpt>
      <trkpt lat="45.12757" lon="1.30785">
        <ele>145.3</ele>
        <time>2023-10-28T12:26:42Z</time>
      </trkpt>
      <trkpt lat="45.12759" lon="1.30782">
        <ele>145.1</ele>
        <time>2023-10-28T12:26:43Z</time>
      </trkpt>
      <trkpt lat="45.12761" lon="1.30779">
        <ele>144.7</ele>
        <time>2023-10-28T12:26:44Z</time>
      </trkpt>
      <trkpt lat="45.12763" lon="1.30776">
        <ele>144.4</ele>
        <time>2023-10-28T12:26:45Z</time>
      </trkpt>
      <trkpt lat="45.12764" lon="1.30773">
        <ele>144.1</ele>
        <time>2023-10-28T12:26:46Z</time>
      </trkpt>
      <trkpt lat="45.12765" lon="1.30769">
        <ele>143.9</ele>
        <time>2023-10-28T12:26:47Z</time>
      </trkpt>
      <trkpt lat="45.12766" lon="1.30765">
        <ele>143.6</ele>
        <time>2023-10-28T12:26:48Z</time>
      </trkpt>
      <trkpt lat="45.12766" lon="1.3076">
        <ele>143.3</ele>
        <time>2023-10-28T12:26:49Z</time>
      </trkpt>
      <trkpt lat="45.12767" lon="1.30756">
        <ele>143</ele>
        <time>2023-10-28T12:26:50Z</time>
      </trkpt>
      <trkpt lat="45.12766" lon="1.30752">
        <ele>142.7</ele>
        <time>2023-10-28T12:26:51Z</time>
      </trkpt>
      <trkpt lat="45.12766" lon="1.30748">
        <ele>142.4</ele>
        <time>2023-10-28T12:26:52Z</time>
      </trkpt>
      <trkpt lat="45.12764" lon="1.30744">
        <ele>142.1</ele>
        <time>2023-10-28T12:26:53Z</time>
      </trkpt>
      <trkpt lat="45.12763" lon="1.3074">
        <ele>141.8</ele>
        <time>2023-10-28T12:26:54Z</time>
      </trkpt>
      <trkpt lat="45.12762" lon="1.30736">
        <ele>141.6</ele>
        <time>2023-10-28T12:26:55Z</time>
      </trkpt>
      <trkpt lat="45.1276" lon="1.30733">
        <ele>141.3</ele>
        <time>2023-10-28T12:26:56Z</time>
      </trkpt>
      <trkpt lat="45.12758" lon="1.30729">
        <ele>141</ele>
        <time>2023-10-28T12:26:57Z</time>
      </trkpt>
      <trkpt lat="45.12756" lon="1.30726">
        <ele>140.7</ele>
        <time>2023-10-28T12:26:58Z</time>
      </trkpt>
      <trkpt lat="45.12754" lon="1.30722">
        <ele>140.4</ele>
        <time>2023-10-28T12:26:59Z</time>
      </trkpt>
      <trkpt lat="45.12752" lon="1.30719">
        <ele>140.2</ele>
        <time>2023-10-28T12:27:00Z</time>
      </trkpt>
      <trkpt lat="45.1275" lon="1.30715">
        <ele>139.9</ele>
        <time>2023-10-28T12:27:01Z</time>
      </trkpt>
      <trkpt lat="45.12748" lon="1.30712">
        <ele>139.6</ele>
        <time>2023-10-28T12:27:02Z</time>
      </trkpt>
      <trkpt lat="45.12746" lon="1.30709">
        <ele>139.4</ele>
        <time>2023-10-28T12:27:03Z</time>
      </trkpt>
      <trkpt lat="45.12745" lon="1.30706">
        <ele>139.1</ele>
        <time>2023-10-28T12:27:04Z</time>
      </trkpt>
      <trkpt lat="45.12743" lon="1.30703">
        <ele>138.9</ele>
        <time>2023-10-28T12:27:05Z</time>
      </trkpt>
      <trkpt lat="45.12741" lon="1.30699">
        <ele>138.6</ele>
        <time>2023-10-28T12:27:06Z</time>
      </trkpt>
      <trkpt lat="45.12739" lon="1.30696">
        <ele>138.3</ele>
        <time>2023-10-28T12:27:07Z</time>
      </trkpt>
      <trkpt lat="45.12737" lon="1.30693">
        <ele>138.1</ele>
        <time>2023-10-28T12:27:08Z</time>
      </trkpt>
      <trkpt lat="45.12735" lon="1.3069">
        <ele>137.9</ele>
        <time>2023-10-28T12:27:09Z</time>
      </trkpt>
      <trkpt lat="45.12734" lon="1.30687">
        <ele>137.6</ele>
        <time>2023-10-28T12:27:10Z</time>
      </trkpt>
      <trkpt lat="45.12732" lon="1.30684">
        <ele>137.4</ele>
        <time>2023-10-28T12:27:11Z</time>
      </trkpt>
      <trkpt lat="45.1273" lon="1.30682">
        <ele>137.2</ele>
        <time>2023-10-28T12:27:12Z</time>
      </trkpt>
      <trkpt lat="45.12729" lon="1.30679">
        <ele>137</ele>
        <time>2023-10-28T12:27:13Z</time>
      </trkpt>
      <trkpt lat="45.12727" lon="1.30677">
        <ele>136.8</ele>
        <time>2023-10-28T12:27:14Z</time>
      </trkpt>
      <trkpt lat="45.12725" lon="1.30674">
        <ele>136.7</ele>
        <time>2023-10-28T12:27:15Z</time>
      </trkpt>
      <trkpt lat="45.12724" lon="1.30672">
        <ele>136.6</ele>
        <time>2023-10-28T12:27:16Z</time>
      </trkpt>
      <trkpt lat="45.12722" lon="1.30669">
        <ele>136.5</ele>
        <time>2023-10-28T12:27:17Z</time>
      </trkpt>
      <trkpt lat="45.1272" lon="1.30667">
        <ele>136.4</ele>
        <time>2023-10-28T12:27:18Z</time>
      </trkpt>
      <trkpt lat="45.12719" lon="1.30664">
        <ele>136.3</ele>
        <time>2023-10-28T12:27:19Z</time>
      </trkpt>
      <trkpt lat="45.12717" lon="1.30661">
        <ele>135.9</ele>
        <time>2023-10-28T12:27:20Z</time>
      </trkpt>
      <trkpt lat="45.12716" lon="1.30658">
        <ele>135.6</ele>
        <time>2023-10-28T12:27:21Z</time>
      </trkpt>
      <trkpt lat="45.12714" lon="1.30655">
        <ele>135.3</ele>
        <time>2023-10-28T12:27:22Z</time>
      </trkpt>
      <trkpt lat="45.12713" lon="1.30652">
        <ele>135</ele>
        <time>2023-10-28T12:27:23Z</time>
      </trkpt>
      <trkpt lat="45.12711" lon="1.30648">
        <ele>134.6</ele>
        <time>2023-10-28T12:27:24Z</time>
      </trkpt>
      <trkpt lat="45.12709" lon="1.30645">
        <ele>134.2</ele>
        <time>2023-10-28T12:27:25Z</time>
      </trkpt>
      <trkpt lat="45.12707" lon="1.30642">
        <ele>133.9</ele>
        <time>2023-10-28T12:27:26Z</time>
      </trkpt>
      <trkpt lat="45.12705" lon="1.30639">
        <ele>133.5</ele>
        <time>2023-10-28T12:27:27Z</time>
      </trkpt>
      <trkpt lat="45.12703" lon="1.30636">
        <ele>133.1</ele>
        <time>2023-10-28T12:27:28Z</time>
      </trkpt>
      <trkpt lat="45.12701" lon="1.30633">
        <ele>132.8</ele>
        <time>2023-10-28T12:27:29Z</time>
      </trkpt>
      <trkpt lat="45.127" lon="1.3063">
        <ele>132.6</ele>
        <time>2023-10-28T12:27:30Z</time>
      </trkpt>
      <trkpt lat="45.12698" lon="1.30627">
        <ele>132.5</ele>
        <time>2023-10-28T12:27:31Z</time>
      </trkpt>
      <trkpt lat="45.12696" lon="1.30624">
        <ele>132.3</ele>
        <time>2023-10-28T12:27:32Z</time>
      </trkpt>
      <trkpt lat="45.12695" lon="1.30621">
        <ele>132.2</ele>
        <time>2023-10-28T12:27:33Z</time>
      </trkpt>
      <trkpt lat="45.12693" lon="1.30618">
        <ele>131.2</ele>
        <time>2023-10-28T12:27:34Z</time>
      </trkpt>
      <trkpt lat="45.12692" lon="1.30616">
        <ele>130.9</ele>
        <time>2023-10-28T12:27:35Z</time>
      </trkpt>
      <trkpt lat="45.12691" lon="1.30614">
        <ele>130.5</ele>
        <time>2023-10-28T12:27:36Z</time>
      </trkpt>
      <trkpt lat="45.1269" lon="1.30612">
        <ele>130.2</ele>
        <time>2023-10-28T12:27:37Z</time>
      </trkpt>
      <trkpt lat="45.12689" lon="1.3061">
        <ele>125.4</ele>
        <time>2023-10-28T12:27:38Z</time>
      </trkpt>
      <trkpt lat="45.12687" lon="1.30607">
        <ele>124.5</ele>
        <time>2023-10-28T12:27:39Z</time>
      </trkpt>
      <trkpt lat="45.12686" lon="1.30604">
        <ele>123.7</ele>
        <time>2023-10-28T12:27:40Z</time>
      </trkpt>
      <trkpt lat="45.12684" lon="1.30602">
        <ele>122.8</ele>
        <time>2023-10-28T12:27:41Z</time>
      </trkpt>
      <trkpt lat="45.12683" lon="1.30599">
        <ele>121.9</ele>
        <time>2023-10-28T12:27:42Z</time>
      </trkpt>
      <trkpt lat="45.12681" lon="1.30596">
        <ele>123.4</ele>
        <time>2023-10-28T12:27:43Z</time>
      </trkpt>
      <trkpt lat="45.1268" lon="1.30593">
        <ele>123.8</ele>
        <time>2023-10-28T12:27:44Z</time>
      </trkpt>
      <trkpt lat="45.12679" lon="1.30591">
        <ele>124.1</ele>
        <time>2023-10-28T12:27:45Z</time>
      </trkpt>
      <trkpt lat="45.12678" lon="1.30588">
        <ele>124.4</ele>
        <time>2023-10-28T12:27:46Z</time>
      </trkpt>
      <trkpt lat="45.12677" lon="1.30587">
        <ele>124.7</ele>
        <time>2023-10-28T12:27:47Z</time>
      </trkpt>
      <trkpt lat="45.12676" lon="1.30585">
        <ele>124.9</ele>
        <time>2023-10-28T12:27:48Z</time>
      </trkpt>
      <trkpt lat="45.12676" lon="1.30584">
        <ele>125.1</ele>
        <time>2023-10-28T12:27:49Z</time>
      </trkpt>
      <trkpt lat="45.12674" lon="1.30583">
        <ele>125.3</ele>
        <time>2023-10-28T12:27:50Z</time>
      </trkpt>
      <trkpt lat="45.12674" lon="1.30581">
        <ele>125.5</ele>
        <time>2023-10-28T12:27:51Z</time>
      </trkpt>
      <trkpt lat="45.12674" lon="1.3058">
        <ele>125.7</ele>
        <time>2023-10-28T12:27:52Z</time>
      </trkpt>
      <trkpt lat="45.12675" lon="1.30578">
        <ele>125.9</ele>
        <time>2023-10-28T12:27:53Z</time>
      </trkpt>
      <trkpt lat="45.12676" lon="1.30577">
        <ele>126.1</ele>
        <time>2023-10-28T12:27:54Z</time>
      </trkpt>
      <trkpt lat="45.12677" lon="1.30576">
        <ele>126.5</ele>
        <time>2023-10-28T12:27:55Z</time>
      </trkpt>
      <trkpt lat="45.12679" lon="1.30575">
        <ele>126.7</ele>
        <time>2023-10-28T12:27:56Z</time>
      </trkpt>
      <trkpt lat="45.12681" lon="1.30574">
        <ele>127</ele>
        <time>2023-10-28T12:27:57Z</time>
      </trkpt>
      <trkpt lat="45.12683" lon="1.30574">
        <ele>126.1</ele>
        <time>2023-10-28T12:27:58Z</time>
      </trkpt>
      <trkpt lat="45.12684" lon="1.30573">
        <ele>125.5</ele>
        <time>2023-10-28T12:27:59Z</time>
      </trkpt>
      <trkpt lat="45.12686" lon="1.30573">
        <ele>124.7</ele>
        <time>2023-10-28T12:28:00Z</time>
      </trkpt>
      <trkpt lat="45.12686" lon="1.30571">
        <ele>124.2</ele>
        <time>2023-10-28T12:28:01Z</time>
      </trkpt>
      <trkpt lat="45.12686" lon="1.3057">
        <ele>123.8</ele>
        <time>2023-10-28T12:28:02Z</time>
      </trkpt>
      <trkpt lat="45.12686" lon="1.30568">
        <ele>123</ele>
        <time>2023-10-28T12:28:03Z</time>
      </trkpt>
      <trkpt lat="45.12686" lon="1.30566">
        <ele>121.8</ele>
        <time>2023-10-28T12:28:04Z</time>
      </trkpt>
      <trkpt lat="45.12685" lon="1.30563">
        <ele>121.7</ele>
        <time>2023-10-28T12:28:05Z</time>
      </trkpt>
      <trkpt lat="45.12685" lon="1.3056">
        <ele>121.5</ele>
        <time>2023-10-28T12:28:06Z</time>
      </trkpt>
      <trkpt lat="45.12685" lon="1.30557">
        <ele>121.3</ele>
        <time>2023-10-28T12:28:07Z</time>
      </trkpt>
      <trkpt lat="45.12684" lon="1.30554">
        <ele>121.1</ele>
        <time>2023-10-28T12:28:08Z</time>
      </trkpt>
      <trkpt lat="45.12684" lon="1.3055">
        <ele>120.9</ele>
        <time>2023-10-28T12:28:09Z</time>
      </trkpt>
      <trkpt lat="45.12684" lon="1.30547">
        <ele>120.6</ele>
        <time>2023-10-28T12:28:10Z</time>
      </trkpt>
      <trkpt lat="45.12684" lon="1.30543">
        <ele>120.4</ele>
        <time>2023-10-28T12:28:11Z</time>
      </trkpt>
      <trkpt lat="45.12684" lon="1.3054">
        <ele>120.2</ele>
        <time>2023-10-28T12:28:12Z</time>
      </trkpt>
      <trkpt lat="45.12684" lon="1.30537">
        <ele>119.9</ele>
        <time>2023-10-28T12:28:13Z</time>
      </trkpt>
      <trkpt lat="45.12684" lon="1.30534">
        <ele>119.8</ele>
        <time>2023-10-28T12:28:14Z</time>
      </trkpt>
      <trkpt lat="45.12685" lon="1.30531">
        <ele>119.6</ele>
        <time>2023-10-28T12:28:15Z</time>
      </trkpt>
      <trkpt lat="45.12687" lon="1.30529">
        <ele>119.5</ele>
        <time>2023-10-28T12:28:16Z</time>
      </trkpt>
      <trkpt lat="45.12688" lon="1.30527">
        <ele>119.5</ele>
        <time>2023-10-28T12:28:17Z</time>
      </trkpt>
      <trkpt lat="45.1269" lon="1.30525">
        <ele>119.5</ele>
        <time>2023-10-28T12:28:18Z</time>
      </trkpt>
      <trkpt lat="45.12693" lon="1.30523">
        <ele>119.5</ele>
        <time>2023-10-28T12:28:19Z</time>
      </trkpt>
      <trkpt lat="45.12695" lon="1.30521">
        <ele>119.6</ele>
        <time>2023-10-28T12:28:20Z</time>
      </trkpt>
      <trkpt lat="45.12696" lon="1.30519">
        <ele>119.7</ele>
        <time>2023-10-28T12:28:21Z</time>
      </trkpt>
      <trkpt lat="45.12698" lon="1.30518">
        <ele>119.9</ele>
        <time>2023-10-28T12:28:22Z</time>
      </trkpt>
      <trkpt lat="45.12699" lon="1.30516">
        <ele>120</ele>
        <time>2023-10-28T12:28:23Z</time>
      </trkpt>
      <trkpt lat="45.12701" lon="1.30514">
        <ele>120.2</ele>
        <time>2023-10-28T12:28:24Z</time>
      </trkpt>
      <trkpt lat="45.12702" lon="1.30513">
        <ele>120.3</ele>
        <time>2023-10-28T12:28:25Z</time>
      </trkpt>
      <trkpt lat="45.12703" lon="1.30512">
        <ele>120.4</ele>
        <time>2023-10-28T12:28:26Z</time>
      </trkpt>
      <trkpt lat="45.12705" lon="1.30512">
        <ele>120.5</ele>
        <time>2023-10-28T12:28:27Z</time>
      </trkpt>
      <trkpt lat="45.12706" lon="1.30511">
        <ele>120.6</ele>
        <time>2023-10-28T12:28:28Z</time>
      </trkpt>
      <trkpt lat="45.12707" lon="1.3051">
        <ele>120.7</ele>
        <time>2023-10-28T12:28:29Z</time>
      </trkpt>
      <trkpt lat="45.12709" lon="1.30509">
        <ele>119.7</ele>
        <time>2023-10-28T12:28:30Z</time>
      </trkpt>
      <trkpt lat="45.1271" lon="1.30507">
        <ele>119.4</ele>
        <time>2023-10-28T12:28:31Z</time>
      </trkpt>
      <trkpt lat="45.12711" lon="1.30505">
        <ele>118.3</ele>
        <time>2023-10-28T12:28:32Z</time>
      </trkpt>
      <trkpt lat="45.12713" lon="1.30503">
        <ele>118</ele>
        <time>2023-10-28T12:28:33Z</time>
      </trkpt>
      <trkpt lat="45.12715" lon="1.30501">
        <ele>116.8</ele>
        <time>2023-10-28T12:28:34Z</time>
      </trkpt>
      <trkpt lat="45.12716" lon="1.30498">
        <ele>116.5</ele>
        <time>2023-10-28T12:28:35Z</time>
      </trkpt>
      <trkpt lat="45.12717" lon="1.30496">
        <ele>115.1</ele>
        <time>2023-10-28T12:28:36Z</time>
      </trkpt>
      <trkpt lat="45.12718" lon="1.30494">
        <ele>114.8</ele>
        <time>2023-10-28T12:28:37Z</time>
      </trkpt>
      <trkpt lat="45.12719" lon="1.30492">
        <ele>114.1</ele>
        <time>2023-10-28T12:28:38Z</time>
      </trkpt>
      <trkpt lat="45.12719" lon="1.30491">
        <ele>113.9</ele>
        <time>2023-10-28T12:28:39Z</time>
      </trkpt>
      <trkpt lat="45.12719" lon="1.30489">
        <ele>113.6</ele>
        <time>2023-10-28T12:28:40Z</time>
      </trkpt>
      <trkpt lat="45.12719" lon="1.30487">
        <ele>112.9</ele>
        <time>2023-10-28T12:28:41Z</time>
      </trkpt>
      <trkpt lat="45.12719" lon="1.30486">
        <ele>112.6</ele>
        <time>2023-10-28T12:28:42Z</time>
      </trkpt>
      <trkpt lat="45.12719" lon="1.30485">
        <ele>112.3</ele>
        <time>2023-10-28T12:28:43Z</time>
      </trkpt>
      <trkpt lat="45.12718" lon="1.30483">
        <ele>111.6</ele>
        <time>2023-10-28T12:28:44Z</time>
      </trkpt>
      <trkpt lat="45.12717" lon="1.30483">
        <ele>111.4</ele>
        <time>2023-10-28T12:28:45Z</time>
      </trkpt>
      <trkpt lat="45.12717" lon="1.30482">
        <ele>111.8</ele>
        <time>2023-10-28T12:28:46Z</time>
      </trkpt>
      <trkpt lat="45.12716" lon="1.30482">
        <ele>111.5</ele>
        <time>2023-10-28T12:28:47Z</time>
      </trkpt>
      <trkpt lat="45.12716" lon="1.30482">
        <ele>111.2</ele>
        <time>2023-10-28T12:28:48Z</time>
      </trkpt>
      <trkpt lat="45.12715" lon="1.30481">
        <ele>111</ele>
        <time>2023-10-28T12:28:49Z</time>
      </trkpt>
      <trkpt lat="45.12714" lon="1.30481">
        <ele>110.7</ele>
        <time>2023-10-28T12:28:50Z</time>
      </trkpt>
      <trkpt lat="45.12713" lon="1.30482">
        <ele>111</ele>
        <time>2023-10-28T12:28:51Z</time>
      </trkpt>
      <trkpt lat="45.12713" lon="1.30482">
        <ele>110.8</ele>
        <time>2023-10-28T12:28:52Z</time>
      </trkpt>
      <trkpt lat="45.12712" lon="1.30482">
        <ele>110.5</ele>
        <time>2023-10-28T12:28:53Z</time>
      </trkpt>
      <trkpt lat="45.12711" lon="1.30483">
        <ele>110.2</ele>
        <time>2023-10-28T12:28:54Z</time>
      </trkpt>
      <trkpt lat="45.12711" lon="1.30484">
        <ele>110.5</ele>
        <time>2023-10-28T12:28:55Z</time>
      </trkpt>
      <trkpt lat="45.1271" lon="1.30485">
        <ele>110.6</ele>
        <time>2023-10-28T12:28:56Z</time>
      </trkpt>
      <trkpt lat="45.12709" lon="1.30485">
        <ele>110.6</ele>
        <time>2023-10-28T12:28:57Z</time>
      </trkpt>
      <trkpt lat="45.12708" lon="1.30486">
        <ele>110.7</ele>
        <time>2023-10-28T12:28:58Z</time>
      </trkpt>
      <trkpt lat="45.12706" lon="1.30487">
        <ele>110.7</ele>
        <time>2023-10-28T12:28:59Z</time>
      </trkpt>
      <trkpt lat="45.12705" lon="1.30489">
        <ele>110.8</ele>
        <time>2023-10-28T12:29:00Z</time>
      </trkpt>
      <trkpt lat="45.12704" lon="1.3049">
        <ele>110.9</ele>
        <time>2023-10-28T12:29:01Z</time>
      </trkpt>
      <trkpt lat="45.12703" lon="1.30491">
        <ele>110.9</ele>
        <time>2023-10-28T12:29:02Z</time>
      </trkpt>
      <trkpt lat="45.12701" lon="1.30492">
        <ele>111</ele>
        <time>2023-10-28T12:29:03Z</time>
      </trkpt>
      <trkpt lat="45.12701" lon="1.30493">
        <ele>111</ele>
        <time>2023-10-28T12:29:04Z</time>
      </trkpt>
      <trkpt lat="45.127" lon="1.30493">
        <ele>111</ele>
        <time>2023-10-28T12:29:05Z</time>
      </trkpt>
      <trkpt lat="45.127" lon="1.30493">
        <ele>111.1</ele>
        <time>2023-10-28T12:29:06Z</time>
      </trkpt>
      <trkpt lat="45.127" lon="1.30493">
        <ele>111.1</ele>
        <time>2023-10-28T12:29:07Z</time>
      </trkpt>
      <trkpt lat="45.127" lon="1.30491">
        <ele>111.1</ele>
        <time>2023-10-28T12:29:08Z</time>
      </trkpt>
      <trkpt lat="45.127" lon="1.3049">
        <ele>111</ele>
        <time>2023-10-28T12:29:09Z</time>
      </trkpt>
      <trkpt lat="45.127" lon="1.30489">
        <ele>111</ele>
        <time>2023-10-28T12:29:10Z</time>
      </trkpt>
      <trkpt lat="45.127" lon="1.30487">
        <ele>111</ele>
        <time>2023-10-28T12:29:11Z</time>
      </trkpt>
      <trkpt lat="45.127" lon="1.30486">
        <ele>111</ele>
        <time>2023-10-28T12:29:12Z</time>
      </trkpt>
      <trkpt lat="45.127" lon="1.30484">
        <ele>111</ele>
        <time>2023-10-28T12:29:13Z</time>
      </trkpt>
      <trkpt lat="45.127" lon="1.30483">
        <ele>110.9</ele>
        <time>2023-10-28T12:29:14Z</time>
      </trkpt>
      <trkpt lat="45.12699" lon="1.30482">
        <ele>110.9</ele>
        <time>2023-10-28T12:29:15Z</time>
      </trkpt>
      <trkpt lat="45.12698" lon="1.3048">
        <ele>110.9</ele>
        <time>2023-10-28T12:29:16Z</time>
      </trkpt>
      <trkpt lat="45.12698" lon="1.30479">
        <ele>110.8</ele>
        <time>2023-10-28T12:29:17Z</time>
      </trkpt>
      <trkpt lat="45.12697" lon="1.30478">
        <ele>110.8</ele>
        <time>2023-10-28T12:29:18Z</time>
      </trkpt>
      <trkpt lat="45.12696" lon="1.30478">
        <ele>110.8</ele>
        <time>2023-10-28T12:29:19Z</time>
      </trkpt>
      <trkpt lat="45.12694" lon="1.30477">
        <ele>110.8</ele>
        <time>2023-10-28T12:29:20Z</time>
      </trkpt>
      <trkpt lat="45.12693" lon="1.30477">
        <ele>109.8</ele>
        <time>2023-10-28T12:29:21Z</time>
      </trkpt>
      <trkpt lat="45.12691" lon="1.30478">
        <ele>109.8</ele>
        <time>2023-10-28T12:29:22Z</time>
      </trkpt>
      <trkpt lat="45.12689" lon="1.30478">
        <ele>109.9</ele>
        <time>2023-10-28T12:29:23Z</time>
      </trkpt>
      <trkpt lat="45.12687" lon="1.30479">
        <ele>110</ele>
        <time>2023-10-28T12:29:24Z</time>
      </trkpt>
      <trkpt lat="45.12685" lon="1.3048">
        <ele>110.1</ele>
        <time>2023-10-28T12:29:25Z</time>
      </trkpt>
      <trkpt lat="45.12684" lon="1.3048">
        <ele>110.3</ele>
        <time>2023-10-28T12:29:26Z</time>
      </trkpt>
      <trkpt lat="45.12682" lon="1.30481">
        <ele>110.4</ele>
        <time>2023-10-28T12:29:27Z</time>
      </trkpt>
      <trkpt lat="45.12681" lon="1.30482">
        <ele>110.4</ele>
        <time>2023-10-28T12:29:28Z</time>
      </trkpt>
      <trkpt lat="45.1268" lon="1.30483">
        <ele>110.5</ele>
        <time>2023-10-28T12:29:29Z</time>
      </trkpt>
      <trkpt lat="45.12679" lon="1.30483">
        <ele>110.6</ele>
        <time>2023-10-28T12:29:30Z</time>
      </trkpt>
      <trkpt lat="45.12678" lon="1.30484">
        <ele>110.7</ele>
        <time>2023-10-28T12:29:31Z</time>
      </trkpt>
      <trkpt lat="45.12678" lon="1.30484">
        <ele>110.7</ele>
        <time>2023-10-28T12:29:32Z</time>
      </trkpt>
      <trkpt lat="45.12678" lon="1.30485">
        <ele>110.7</ele>
        <time>2023-10-28T12:29:33Z</time>
      </trkpt>
      <trkpt lat="45.12678" lon="1.30485">
        <ele>110.7</ele>
        <time>2023-10-28T12:29:34Z</time>
      </trkpt>
      <trkpt lat="45.12678" lon="1.30485">
        <ele>110.7</ele>
        <time>2023-10-28T12:29:35Z</time>
      </trkpt>
      <trkpt lat="45.12678" lon="1.30485">
        <ele>110.8</ele>
        <time>2023-10-28T12:29:36Z</time>
      </trkpt>
      <trkpt lat="45.12679" lon="1.30486">
        <ele>110.8</ele>
        <time>2023-10-28T12:29:37Z</time>
      </trkpt>
      <trkpt lat="45.12679" lon="1.30486">
        <ele>110.8</ele>
        <time>2023-10-28T12:29:38Z</time>
      </trkpt>
      <trkpt lat="45.12679" lon="1.30486">
        <ele>110.8</ele>
        <time>2023-10-28T12:29:39Z</time>
      </trkpt>
      <trkpt lat="45.1268" lon="1.30486">
        <ele>110.9</ele>
        <time>2023-10-28T12:29:40Z</time>
      </trkpt>
      <trkpt lat="45.1268" lon="1.30485">
        <ele>110.9</ele>
        <time>2023-10-28T12:29:41Z</time>
      </trkpt>
      <trkpt lat="45.1268" lon="1.30485">
        <ele>110.9</ele>
        <time>2023-10-28T12:29:42Z</time>
      </trkpt>
      <trkpt lat="45.1268" lon="1.30485">
        <ele>111</ele>
        <time>2023-10-28T12:29:43Z</time>
      </trkpt>
      <trkpt lat="45.12679" lon="1.30484">
        <ele>111</ele>
        <time>2023-10-28T12:29:44Z</time>
      </trkpt>
      <trkpt lat="45.12677" lon="1.30484">
        <ele>111.3</ele>
        <time>2023-10-28T12:29:45Z</time>
      </trkpt>
      <trkpt lat="45.12675" lon="1.30484">
        <ele>111.3</ele>
        <time>2023-10-28T12:29:46Z</time>
      </trkpt>
      <trkpt lat="45.12673" lon="1.30484">
        <ele>111.5</ele>
        <time>2023-10-28T12:29:47Z</time>
      </trkpt>
      <trkpt lat="45.1267" lon="1.30484">
        <ele>111.6</ele>
        <time>2023-10-28T12:29:48Z</time>
      </trkpt>
      <trkpt lat="45.12667" lon="1.30484">
        <ele>111.8</ele>
        <time>2023-10-28T12:29:49Z</time>
      </trkpt>
      <trkpt lat="45.12664" lon="1.30484">
        <ele>111.9</ele>
        <time>2023-10-28T12:29:50Z</time>
      </trkpt>
      <trkpt lat="45.12662" lon="1.30483">
        <ele>112.1</ele>
        <time>2023-10-28T12:29:51Z</time>
      </trkpt>
      <trkpt lat="45.1266" lon="1.30483">
        <ele>112.2</ele>
        <time>2023-10-28T12:29:52Z</time>
      </trkpt>
      <trkpt lat="45.12657" lon="1.30483">
        <ele>112.4</ele>
        <time>2023-10-28T12:29:53Z</time>
      </trkpt>
      <trkpt lat="45.12655" lon="1.30483">
        <ele>112.5</ele>
        <time>2023-10-28T12:29:54Z</time>
      </trkpt>
      <trkpt lat="45.12652" lon="1.30482">
        <ele>112.6</ele>
        <time>2023-10-28T12:29:55Z</time>
      </trkpt>
      <trkpt lat="45.1265" lon="1.30482">
        <ele>112.7</ele>
        <time>2023-10-28T12:29:56Z</time>
      </trkpt>
      <trkpt lat="45.12648" lon="1.30482">
        <ele>112.9</ele>
        <time>2023-10-28T12:29:57Z</time>
      </trkpt>
      <trkpt lat="45.12647" lon="1.30481">
        <ele>113</ele>
        <time>2023-10-28T12:29:58Z</time>
      </trkpt>
      <trkpt lat="45.12645" lon="1.30481">
        <ele>113</ele>
        <time>2023-10-28T12:29:59Z</time>
      </trkpt>
      <trkpt lat="45.12643" lon="1.30481">
        <ele>112.9</ele>
        <time>2023-10-28T12:30:00Z</time>
      </trkpt>
      <trkpt lat="45.12642" lon="1.30481">
        <ele>112.8</ele>
        <time>2023-10-28T12:30:01Z</time>
      </trkpt>
      <trkpt lat="45.12643" lon="1.30482">
        <ele>112.8</ele>
        <time>2023-10-28T12:30:02Z</time>
      </trkpt>
      <trkpt lat="45.12643" lon="1.30482">
        <ele>112.8</ele>
        <time>2023-10-28T12:30:03Z</time>
      </trkpt>
      <trkpt lat="45.12645" lon="1.30482">
        <ele>112.7</ele>
        <time>2023-10-28T12:30:04Z</time>
      </trkpt>
      <trkpt lat="45.12646" lon="1.30482">
        <ele>112.6</ele>
        <time>2023-10-28T12:30:05Z</time>
      </trkpt>
      <trkpt lat="45.12649" lon="1.30483">
        <ele>112.5</ele>
        <time>2023-10-28T12:30:06Z</time>
      </trkpt>
      <trkpt lat="45.12651" lon="1.30483">
        <ele>112.4</ele>
        <time>2023-10-28T12:30:07Z</time>
      </trkpt>
      <trkpt lat="45.12654" lon="1.30483">
        <ele>112.3</ele>
        <time>2023-10-28T12:30:08Z</time>
      </trkpt>
      <trkpt lat="45.12657" lon="1.30484">
        <ele>112.1</ele>
        <time>2023-10-28T12:30:09Z</time>
      </trkpt>
      <trkpt lat="45.1266" lon="1.30484">
        <ele>112</ele>
        <time>2023-10-28T12:30:10Z</time>
      </trkpt>
      <trkpt lat="45.12663" lon="1.30485">
        <ele>111.9</ele>
        <time>2023-10-28T12:30:11Z</time>
      </trkpt>
      <trkpt lat="45.12666" lon="1.30485">
        <ele>111.8</ele>
        <time>2023-10-28T12:30:12Z</time>
      </trkpt>
      <trkpt lat="45.12669" lon="1.30485">
        <ele>111.6</ele>
        <time>2023-10-28T12:30:13Z</time>
      </trkpt>
      <trkpt lat="45.12671" lon="1.30485">
        <ele>111.5</ele>
        <time>2023-10-28T12:30:14Z</time>
      </trkpt>
      <trkpt lat="45.12674" lon="1.30485">
        <ele>111.4</ele>
        <time>2023-10-28T12:30:15Z</time>
      </trkpt>
      <trkpt lat="45.12677" lon="1.30485">
        <ele>111.3</ele>
        <time>2023-10-28T12:30:16Z</time>
      </trkpt>
      <trkpt lat="45.12679" lon="1.30485">
        <ele>111</ele>
        <time>2023-10-28T12:30:17Z</time>
      </trkpt>
      <trkpt lat="45.12682" lon="1.30484">
        <ele>110.7</ele>
        <time>2023-10-28T12:30:18Z</time>
      </trkpt>
      <trkpt lat="45.12684" lon="1.30483">
        <ele>110.4</ele>
        <time>2023-10-28T12:30:19Z</time>
      </trkpt>
      <trkpt lat="45.12685" lon="1.30482">
        <ele>110.2</ele>
        <time>2023-10-28T12:30:20Z</time>
      </trkpt>
      <trkpt lat="45.12687" lon="1.3048">
        <ele>110</ele>
        <time>2023-10-28T12:30:21Z</time>
      </trkpt>
      <trkpt lat="45.12688" lon="1.30479">
        <ele>109.9</ele>
        <time>2023-10-28T12:30:22Z</time>
      </trkpt>
      <trkpt lat="45.12689" lon="1.30477">
        <ele>109.9</ele>
        <time>2023-10-28T12:30:23Z</time>
      </trkpt>
      <trkpt lat="45.1269" lon="1.30475">
        <ele>109.8</ele>
        <time>2023-10-28T12:30:24Z</time>
      </trkpt>
      <trkpt lat="45.12691" lon="1.30473">
        <ele>109.8</ele>
        <time>2023-10-28T12:30:25Z</time>
      </trkpt>
      <trkpt lat="45.12692" lon="1.30472">
        <ele>109.7</ele>
        <time>2023-10-28T12:30:26Z</time>
      </trkpt>
      <trkpt lat="45.12693" lon="1.30471">
        <ele>109.7</ele>
        <time>2023-10-28T12:30:27Z</time>
      </trkpt>
      <trkpt lat="45.12695" lon="1.3047">
        <ele>109.6</ele>
        <time>2023-10-28T12:30:28Z</time>
      </trkpt>
      <trkpt lat="45.12697" lon="1.3047">
        <ele>109.4</ele>
        <time>2023-10-28T12:30:29Z</time>
      </trkpt>
      <trkpt lat="45.12698" lon="1.30469">
        <ele>109.1</ele>
        <time>2023-10-28T12:30:30Z</time>
      </trkpt>
      <trkpt lat="45.127" lon="1.30469">
        <ele>108.9</ele>
        <time>2023-10-28T12:30:31Z</time>
      </trkpt>
      <trkpt lat="45.12702" lon="1.30468">
        <ele>108.7</ele>
        <time>2023-10-28T12:30:32Z</time>
      </trkpt>
      <trkpt lat="45.12703" lon="1.30467">
        <ele>108.5</ele>
        <time>2023-10-28T12:30:33Z</time>
      </trkpt>
      <trkpt lat="45.12705" lon="1.30467">
        <ele>108.3</ele>
        <time>2023-10-28T12:30:34Z</time>
      </trkpt>
      <trkpt lat="45.12706" lon="1.30466">
        <ele>108.1</ele>
        <time>2023-10-28T12:30:35Z</time>
      </trkpt>
      <trkpt lat="45.12706" lon="1.30466">
        <ele>108.1</ele>
        <time>2023-10-28T12:30:36Z</time>
      </trkpt>
      <trkpt lat="45.12706" lon="1.30466">
        <ele>108</ele>
        <time>2023-10-28T12:30:37Z</time>
      </trkpt>
      <trkpt lat="45.12707" lon="1.30465">
        <ele>108</ele>
        <time>2023-10-28T12:30:38Z</time>
      </trkpt>
      <trkpt lat="45.12707" lon="1.30465">
        <ele>107.9</ele>
        <time>2023-10-28T12:30:39Z</time>
      </trkpt>
      <trkpt lat="45.12708" lon="1.30465">
        <ele>107.9</ele>
        <time>2023-10-28T12:30:40Z</time>
      </trkpt>
      <trkpt lat="45.12708" lon="1.30464">
        <ele>107.8</ele>
        <time>2023-10-28T12:30:41Z</time>
      </trkpt>
      <trkpt lat="45.12708" lon="1.30464">
        <ele>107.7</ele>
        <time>2023-10-28T12:30:42Z</time>
      </trkpt>
      <trkpt lat="45.12709" lon="1.30463">
        <ele>107.6</ele>
        <time>2023-10-28T12:30:43Z</time>
      </trkpt>
      <trkpt lat="45.12709" lon="1.30462">
        <ele>107.4</ele>
        <time>2023-10-28T12:30:44Z</time>
      </trkpt>
      <trkpt lat="45.12711" lon="1.30462">
        <ele>107</ele>
        <time>2023-10-28T12:30:45Z</time>
      </trkpt>
      <trkpt lat="45.12711" lon="1.30461">
        <ele>106.9</ele>
        <time>2023-10-28T12:30:46Z</time>
      </trkpt>
      <trkpt lat="45.12713" lon="1.30461">
        <ele>106.8</ele>
        <time>2023-10-28T12:30:47Z</time>
      </trkpt>
      <trkpt lat="45.12714" lon="1.30461">
        <ele>106.6</ele>
        <time>2023-10-28T12:30:48Z</time>
      </trkpt>
      <trkpt lat="45.12716" lon="1.30461">
        <ele>106.2</ele>
        <time>2023-10-28T12:30:49Z</time>
      </trkpt>
      <trkpt lat="45.12718" lon="1.30461">
        <ele>105.9</ele>
        <time>2023-10-28T12:30:50Z</time>
      </trkpt>
      <trkpt lat="45.1272" lon="1.30461">
        <ele>105.5</ele>
        <time>2023-10-28T12:30:51Z</time>
      </trkpt>
      <trkpt lat="45.12722" lon="1.30461">
        <ele>105.1</ele>
        <time>2023-10-28T12:30:52Z</time>
      </trkpt>
      <trkpt lat="45.12724" lon="1.30461">
        <ele>104.7</ele>
        <time>2023-10-28T12:30:53Z</time>
      </trkpt>
      <trkpt lat="45.12726" lon="1.30462">
        <ele>104.3</ele>
        <time>2023-10-28T12:30:54Z</time>
      </trkpt>
      <trkpt lat="45.12728" lon="1.30462">
        <ele>103.9</ele>
        <time>2023-10-28T12:30:55Z</time>
      </trkpt>
      <trkpt lat="45.1273" lon="1.30462">
        <ele>103.5</ele>
        <time>2023-10-28T12:30:56Z</time>
      </trkpt>
      <trkpt lat="45.12732" lon="1.30462">
        <ele>103.1</ele>
        <time>2023-10-28T12:30:57Z</time>
      </trkpt>
      <trkpt lat="45.12734" lon="1.30463">
        <ele>102.7</ele>
        <time>2023-10-28T12:30:58Z</time>
      </trkpt>
      <trkpt lat="45.12736" lon="1.30463">
        <ele>102.2</ele>
        <time>2023-10-28T12:30:59Z</time>
      </trkpt>
      <trkpt lat="45.12738" lon="1.30463">
        <ele>101.8</ele>
        <time>2023-10-28T12:31:00Z</time>
      </trkpt>
      <trkpt lat="45.1274" lon="1.30463">
        <ele>101.3</ele>
        <time>2023-10-28T12:31:01Z</time>
      </trkpt>
      <trkpt lat="45.12742" lon="1.30464">
        <ele>100.9</ele>
        <time>2023-10-28T12:31:02Z</time>
      </trkpt>
      <trkpt lat="45.12744" lon="1.30464">
        <ele>100.3</ele>
        <time>2023-10-28T12:31:03Z</time>
      </trkpt>
      <trkpt lat="45.12746" lon="1.30465">
        <ele>99.8</ele>
        <time>2023-10-28T12:31:04Z</time>
      </trkpt>
      <trkpt lat="45.12748" lon="1.30467">
        <ele>99.3</ele>
        <time>2023-10-28T12:31:05Z</time>
      </trkpt>
      <trkpt lat="45.1275" lon="1.30468">
        <ele>98.8</ele>
        <time>2023-10-28T12:31:06Z</time>
      </trkpt>
      <trkpt lat="45.12752" lon="1.3047">
        <ele>98.2</ele>
        <time>2023-10-28T12:31:07Z</time>
      </trkpt>
      <trkpt lat="45.12754" lon="1.30472">
        <ele>97.7</ele>
        <time>2023-10-28T12:31:08Z</time>
      </trkpt>
      <trkpt lat="45.12756" lon="1.30474">
        <ele>97.1</ele>
        <time>2023-10-28T12:31:09Z</time>
      </trkpt>
      <trkpt lat="45.12758" lon="1.30477">
        <ele>96.6</ele>
        <time>2023-10-28T12:31:10Z</time>
      </trkpt>
      <trkpt lat="45.12761" lon="1.30479">
        <ele>96</ele>
        <time>2023-10-28T12:31:11Z</time>
      </trkpt>
      <trkpt lat="45.12763" lon="1.30482">
        <ele>95.5</ele>
        <time>2023-10-28T12:31:12Z</time>
      </trkpt>
      <trkpt lat="45.12764" lon="1.30485">
        <ele>95.1</ele>
        <time>2023-10-28T12:31:13Z</time>
      </trkpt>
      <trkpt lat="45.12766" lon="1.30488">
        <ele>94.6</ele>
        <time>2023-10-28T12:31:14Z</time>
      </trkpt>
      <trkpt lat="45.12768" lon="1.3049">
        <ele>94.3</ele>
        <time>2023-10-28T12:31:15Z</time>
      </trkpt>
      <trkpt lat="45.12769" lon="1.30492">
        <ele>94</ele>
        <time>2023-10-28T12:31:16Z</time>
      </trkpt>
      <trkpt lat="45.12771" lon="1.30494">
        <ele>93.6</ele>
        <time>2023-10-28T12:31:17Z</time>
      </trkpt>
      <trkpt lat="45.12772" lon="1.30496">
        <ele>93.4</ele>
        <time>2023-10-28T12:31:18Z</time>
      </trkpt>
      <trkpt lat="45.12773" lon="1.30498">
        <ele>93.3</ele>
        <time>2023-10-28T12:31:19Z</time>
      </trkpt>
      <trkpt lat="45.12774" lon="1.305">
        <ele>93.2</ele>
        <time>2023-10-28T12:31:20Z</time>
      </trkpt>
      <trkpt lat="45.12775" lon="1.30502">
        <ele>93.1</ele>
        <time>2023-10-28T12:31:21Z</time>
      </trkpt>
      <trkpt lat="45.12777" lon="1.30504">
        <ele>92.9</ele>
        <time>2023-10-28T12:31:22Z</time>
      </trkpt>
      <trkpt lat="45.12778" lon="1.30506">
        <ele>92.8</ele>
        <time>2023-10-28T12:31:23Z</time>
      </trkpt>
      <trkpt lat="45.12779" lon="1.30509">
        <ele>92.6</ele>
        <time>2023-10-28T12:31:24Z</time>
      </trkpt>
      <trkpt lat="45.1278" lon="1.30511">
        <ele>92.5</ele>
        <time>2023-10-28T12:31:25Z</time>
      </trkpt>
      <trkpt lat="45.12782" lon="1.30513">
        <ele>92.3</ele>
        <time>2023-10-28T12:31:26Z</time>
      </trkpt>
      <trkpt lat="45.12783" lon="1.30515">
        <ele>92.2</ele>
        <time>2023-10-28T12:31:27Z</time>
      </trkpt>
      <trkpt lat="45.12784" lon="1.30517">
        <ele>92</ele>
        <time>2023-10-28T12:31:28Z</time>
      </trkpt>
      <trkpt lat="45.12784" lon="1.30518">
        <ele>92</ele>
        <time>2023-10-28T12:31:29Z</time>
      </trkpt>
      <trkpt lat="45.12785" lon="1.30519">
        <ele>91.9</ele>
        <time>2023-10-28T12:31:30Z</time>
      </trkpt>
      <trkpt lat="45.12785" lon="1.3052">
        <ele>91.9</ele>
        <time>2023-10-28T12:31:31Z</time>
      </trkpt>
      <trkpt lat="45.12786" lon="1.30521">
        <ele>91.8</ele>
        <time>2023-10-28T12:31:32Z</time>
      </trkpt>
      <trkpt lat="45.12786" lon="1.30521">
        <ele>91.8</ele>
        <time>2023-10-28T12:31:33Z</time>
      </trkpt>
      <trkpt lat="45.12786" lon="1.30522">
        <ele>91.8</ele>
        <time>2023-10-28T12:31:34Z</time>
      </trkpt>
      <trkpt lat="45.12787" lon="1.30522">
        <ele>91.8</ele>
        <time>2023-10-28T12:31:35Z</time>
      </trkpt>
      <trkpt lat="45.12786" lon="1.30522">
        <ele>91.8</ele>
        <time>2023-10-28T12:31:36Z</time>
      </trkpt>
      <trkpt lat="45.12786" lon="1.30522">
        <ele>91.8</ele>
        <time>2023-10-28T12:31:37Z</time>
      </trkpt>
      <trkpt lat="45.12785" lon="1.30524">
        <ele>91.8</ele>
        <time>2023-10-28T12:31:38Z</time>
      </trkpt>
      <trkpt lat="45.12784" lon="1.30525">
        <ele>91.8</ele>
        <time>2023-10-28T12:31:39Z</time>
      </trkpt>
      <trkpt lat="45.12783" lon="1.30526">
        <ele>91.8</ele>
        <time>2023-10-28T12:31:40Z</time>
      </trkpt>
      <trkpt lat="45.12782" lon="1.30528">
        <ele>91.8</ele>
        <time>2023-10-28T12:31:41Z</time>
      </trkpt>
      <trkpt lat="45.12781" lon="1.3053">
        <ele>91.8</ele>
        <time>2023-10-28T12:31:42Z</time>
      </trkpt>
      <trkpt lat="45.1278" lon="1.30531">
        <ele>91.8</ele>
        <time>2023-10-28T12:31:43Z</time>
      </trkpt>
      <trkpt lat="45.12779" lon="1.30532">
        <ele>91.8</ele>
        <time>2023-10-28T12:31:44Z</time>
      </trkpt>
      <trkpt lat="45.12779" lon="1.30533">
        <ele>91.8</ele>
        <time>2023-10-28T12:31:45Z</time>
      </trkpt>
      <trkpt lat="45.12778" lon="1.30534">
        <ele>91.8</ele>
        <time>2023-10-28T12:31:46Z</time>
      </trkpt>
      <trkpt lat="45.12777" lon="1.30535">
        <ele>91.8</ele>
        <time>2023-10-28T12:31:47Z</time>
      </trkpt>
      <trkpt lat="45.12776" lon="1.30536">
        <ele>91.8</ele>
        <time>2023-10-28T12:31:48Z</time>
      </trkpt>
      <trkpt lat="45.12776" lon="1.30536">
        <ele>91.8</ele>
        <time>2023-10-28T12:31:49Z</time>
      </trkpt>
      <trkpt lat="45.12775" lon="1.30536">
        <ele>91.8</ele>
        <time>2023-10-28T12:31:50Z</time>
      </trkpt>
      <trkpt lat="45.12775" lon="1.30536">
        <ele>91.8</ele>
        <time>2023-10-28T12:31:51Z</time>
      </trkpt>
      <trkpt lat="45.12774" lon="1.30536">
        <ele>91.8</ele>
        <time>2023-10-28T12:31:52Z</time>
      </trkpt>
      <trkpt lat="45.12774" lon="1.30536">
        <ele>91.8</ele>
        <time>2023-10-28T12:31:53Z</time>
      </trkpt>
      <trkpt lat="45.12774" lon="1.30536">
        <ele>91.8</ele>
        <time>2023-10-28T12:31:54Z</time>
      </trkpt>
      <trkpt lat="45.12774" lon="1.30536">
        <ele>91.8</ele>
        <time>2023-10-28T12:31:55Z</time>
      </trkpt>
      <trkpt lat="45.12774" lon="1.30536">
        <ele>91.8</ele>
        <time>2023-10-28T12:31:56Z</time>
      </trkpt>
      <trkpt lat="45.12774" lon="1.30536">
        <ele>91.8</ele>
        <time>2023-10-28T12:31:57Z</time>
      </trkpt>
      <trkpt lat="45.12774" lon="1.30535">
        <ele>91.8</ele>
        <time>2023-10-28T12:31:58Z</time>
      </trkpt>
      <trkpt lat="45.12774" lon="1.30535">
        <ele>91.8</ele>
        <time>2023-10-28T12:31:59Z</time>
      </trkpt>
      <trkpt lat="45.12775" lon="1.30534">
        <ele>91.8</ele>
        <time>2023-10-28T12:32:00Z</time>
      </trkpt>
      <trkpt lat="45.12777" lon="1.30534">
        <ele>91.8</ele>
        <time>2023-10-28T12:32:01Z</time>
      </trkpt>
      <trkpt lat="45.12777" lon="1.30533">
        <ele>91.8</ele>
        <time>2023-10-28T12:32:02Z</time>
      </trkpt>
      <trkpt lat="45.12779" lon="1.30531">
        <ele>91.8</ele>
        <time>2023-10-28T12:32:03Z</time>
      </trkpt>
      <trkpt lat="45.12779" lon="1.3053">
        <ele>91.8</ele>
        <time>2023-10-28T12:32:04Z</time>
      </trkpt>
      <trkpt lat="45.1278" lon="1.30529">
        <ele>91.8</ele>
        <time>2023-10-28T12:32:05Z</time>
      </trkpt>
      <trkpt lat="45.1278" lon="1.30527">
        <ele>91.8</ele>
        <time>2023-10-28T12:32:06Z</time>
      </trkpt>
      <trkpt lat="45.12781" lon="1.30526">
        <ele>91.8</ele>
        <time>2023-10-28T12:32:07Z</time>
      </trkpt>
      <trkpt lat="45.12781" lon="1.30526">
        <ele>92.1</ele>
        <time>2023-10-28T12:32:08Z</time>
      </trkpt>
      <trkpt lat="45.12782" lon="1.30525">
        <ele>91.8</ele>
        <time>2023-10-28T12:32:09Z</time>
      </trkpt>
      <trkpt lat="45.12782" lon="1.30525">
        <ele>91.8</ele>
        <time>2023-10-28T12:32:10Z</time>
      </trkpt>
      <trkpt lat="45.12783" lon="1.30525">
        <ele>91.9</ele>
        <time>2023-10-28T12:32:11Z</time>
      </trkpt>
      <trkpt lat="45.12784" lon="1.30525">
        <ele>91.9</ele>
        <time>2023-10-28T12:32:12Z</time>
      </trkpt>
      <trkpt lat="45.12785" lon="1.30525">
        <ele>92</ele>
        <time>2023-10-28T12:32:13Z</time>
      </trkpt>
      <trkpt lat="45.12785" lon="1.30525">
        <ele>92</ele>
        <time>2023-10-28T12:32:14Z</time>
      </trkpt>
      <trkpt lat="45.12786" lon="1.30525">
        <ele>92</ele>
        <time>2023-10-28T12:32:15Z</time>
      </trkpt>
      <trkpt lat="45.12787" lon="1.30525">
        <ele>92.1</ele>
        <time>2023-10-28T12:32:16Z</time>
      </trkpt>
      <trkpt lat="45.12787" lon="1.30525">
        <ele>92.1</ele>
        <time>2023-10-28T12:32:17Z</time>
      </trkpt>
      <trkpt lat="45.12788" lon="1.30526">
        <ele>92.1</ele>
        <time>2023-10-28T12:32:18Z</time>
      </trkpt>
      <trkpt lat="45.12787" lon="1.30526">
        <ele>92.1</ele>
        <time>2023-10-28T12:32:19Z</time>
      </trkpt>
      <trkpt lat="45.12787" lon="1.30526">
        <ele>92.2</ele>
        <time>2023-10-28T12:32:20Z</time>
      </trkpt>
      <trkpt lat="45.12786" lon="1.30526">
        <ele>92.2</ele>
        <time>2023-10-28T12:32:21Z</time>
      </trkpt>
      <trkpt lat="45.12785" lon="1.30526">
        <ele>92.3</ele>
        <time>2023-10-28T12:32:22Z</time>
      </trkpt>
      <trkpt lat="45.12784" lon="1.30525">
        <ele>92.3</ele>
        <time>2023-10-28T12:32:23Z</time>
      </trkpt>
      <trkpt lat="45.12783" lon="1.30524">
        <ele>92.4</ele>
        <time>2023-10-28T12:32:24Z</time>
      </trkpt>
      <trkpt lat="45.12782" lon="1.30523">
        <ele>92.4</ele>
        <time>2023-10-28T12:32:25Z</time>
      </trkpt>
      <trkpt lat="45.12782" lon="1.30522">
        <ele>92.5</ele>
        <time>2023-10-28T12:32:26Z</time>
      </trkpt>
      <trkpt lat="45.12781" lon="1.30521">
        <ele>92.5</ele>
        <time>2023-10-28T12:32:27Z</time>
      </trkpt>
      <trkpt lat="45.12781" lon="1.3052">
        <ele>92.6</ele>
        <time>2023-10-28T12:32:28Z</time>
      </trkpt>
      <trkpt lat="45.1278" lon="1.30518">
        <ele>92.6</ele>
        <time>2023-10-28T12:32:29Z</time>
      </trkpt>
      <trkpt lat="45.12779" lon="1.30516">
        <ele>92.7</ele>
        <time>2023-10-28T12:32:30Z</time>
      </trkpt>
      <trkpt lat="45.12779" lon="1.30514">
        <ele>92.8</ele>
        <time>2023-10-28T12:32:31Z</time>
      </trkpt>
      <trkpt lat="45.12777" lon="1.30512">
        <ele>92.8</ele>
        <time>2023-10-28T12:32:32Z</time>
      </trkpt>
      <trkpt lat="45.12777" lon="1.30509">
        <ele>92.9</ele>
        <time>2023-10-28T12:32:33Z</time>
      </trkpt>
      <trkpt lat="45.12775" lon="1.30506">
        <ele>93</ele>
        <time>2023-10-28T12:32:34Z</time>
      </trkpt>
      <trkpt lat="45.12775" lon="1.30503">
        <ele>93.1</ele>
        <time>2023-10-28T12:32:35Z</time>
      </trkpt>
      <trkpt lat="45.12774" lon="1.305">
        <ele>93.2</ele>
        <time>2023-10-28T12:32:36Z</time>
      </trkpt>
      <trkpt lat="45.12773" lon="1.30497">
        <ele>93.3</ele>
        <time>2023-10-28T12:32:37Z</time>
      </trkpt>
      <trkpt lat="45.12773" lon="1.30493">
        <ele>93.3</ele>
        <time>2023-10-28T12:32:38Z</time>
      </trkpt>
      <trkpt lat="45.12772" lon="1.3049">
        <ele>93.3</ele>
        <time>2023-10-28T12:32:39Z</time>
      </trkpt>
      <trkpt lat="45.12772" lon="1.30487">
        <ele>93.2</ele>
        <time>2023-10-28T12:32:40Z</time>
      </trkpt>
      <trkpt lat="45.12771" lon="1.30484">
        <ele>93</ele>
        <time>2023-10-28T12:32:41Z</time>
      </trkpt>
      <trkpt lat="45.12771" lon="1.3048">
        <ele>92.9</ele>
        <time>2023-10-28T12:32:42Z</time>
      </trkpt>
      <trkpt lat="45.1277" lon="1.30477">
        <ele>92.8</ele>
        <time>2023-10-28T12:32:43Z</time>
      </trkpt>
      <trkpt lat="45.1277" lon="1.30474">
        <ele>92.7</ele>
        <time>2023-10-28T12:32:44Z</time>
      </trkpt>
      <trkpt lat="45.12769" lon="1.30471">
        <ele>92.6</ele>
        <time>2023-10-28T12:32:45Z</time>
      </trkpt>
      <trkpt lat="45.12768" lon="1.30467">
        <ele>92.5</ele>
        <time>2023-10-28T12:32:46Z</time>
      </trkpt>
      <trkpt lat="45.12767" lon="1.30464">
        <ele>92.4</ele>
        <time>2023-10-28T12:32:47Z</time>
      </trkpt>
      <trkpt lat="45.12766" lon="1.30461">
        <ele>92.4</ele>
        <time>2023-10-28T12:32:48Z</time>
      </trkpt>
      <trkpt lat="45.12765" lon="1.30458">
        <ele>92.3</ele>
        <time>2023-10-28T12:32:49Z</time>
      </trkpt>
      <trkpt lat="45.12764" lon="1.30455">
        <ele>92.3</ele>
        <time>2023-10-28T12:32:50Z</time>
      </trkpt>
      <trkpt lat="45.12763" lon="1.30452">
        <ele>92.2</ele>
        <time>2023-10-28T12:32:51Z</time>
      </trkpt>
      <trkpt lat="45.12761" lon="1.30449">
        <ele>92.2</ele>
        <time>2023-10-28T12:32:52Z</time>
      </trkpt>
      <trkpt lat="45.1276" lon="1.30446">
        <ele>92.2</ele>
        <time>2023-10-28T12:32:53Z</time>
      </trkpt>
      <trkpt lat="45.12759" lon="1.30442">
        <ele>92.1</ele>
        <time>2023-10-28T12:32:54Z</time>
      </trkpt>
      <trkpt lat="45.12758" lon="1.30439">
        <ele>92.1</ele>
        <time>2023-10-28T12:32:55Z</time>
      </trkpt>
      <trkpt lat="45.12758" lon="1.30435">
        <ele>92.1</ele>
        <time>2023-10-28T12:32:56Z</time>
      </trkpt>
      <trkpt lat="45.12756" lon="1.30432">
        <ele>92.2</ele>
        <time>2023-10-28T12:32:57Z</time>
      </trkpt>
      <trkpt lat="45.12756" lon="1.30429">
        <ele>92.4</ele>
        <time>2023-10-28T12:32:58Z</time>
      </trkpt>
      <trkpt lat="45.12754" lon="1.30427">
        <ele>92.5</ele>
        <time>2023-10-28T12:32:59Z</time>
      </trkpt>
      <trkpt lat="45.12753" lon="1.30424">
        <ele>92.6</ele>
        <time>2023-10-28T12:33:00Z</time>
      </trkpt>
      <trkpt lat="45.12753" lon="1.30423">
        <ele>92.6</ele>
        <time>2023-10-28T12:33:01Z</time>
      </trkpt>
      <trkpt lat="45.12753" lon="1.30422">
        <ele>92.7</ele>
        <time>2023-10-28T12:33:02Z</time>
      </trkpt>
      <trkpt lat="45.12753" lon="1.3042">
        <ele>92.7</ele>
        <time>2023-10-28T12:33:03Z</time>
      </trkpt>
      <trkpt lat="45.12753" lon="1.30418">
        <ele>92.7</ele>
        <time>2023-10-28T12:33:04Z</time>
      </trkpt>
      <trkpt lat="45.12753" lon="1.30417">
        <ele>92.7</ele>
        <time>2023-10-28T12:33:05Z</time>
      </trkpt>
      <trkpt lat="45.12752" lon="1.30414">
        <ele>92.7</ele>
        <time>2023-10-28T12:33:06Z</time>
      </trkpt>
      <trkpt lat="45.12752" lon="1.30412">
        <ele>92.7</ele>
        <time>2023-10-28T12:33:07Z</time>
      </trkpt>
      <trkpt lat="45.12751" lon="1.30409">
        <ele>92.7</ele>
        <time>2023-10-28T12:33:08Z</time>
      </trkpt>
      <trkpt lat="45.12751" lon="1.30406">
        <ele>92.7</ele>
        <time>2023-10-28T12:33:09Z</time>
      </trkpt>
      <trkpt lat="45.1275" lon="1.30402">
        <ele>92.8</ele>
        <time>2023-10-28T12:33:10Z</time>
      </trkpt>
      <trkpt lat="45.12749" lon="1.30399">
        <ele>92.8</ele>
        <time>2023-10-28T12:33:11Z</time>
      </trkpt>
      <trkpt lat="45.12747" lon="1.30397">
        <ele>92.8</ele>
        <time>2023-10-28T12:33:12Z</time>
      </trkpt>
      <trkpt lat="45.12746" lon="1.30394">
        <ele>92.7</ele>
        <time>2023-10-28T12:33:13Z</time>
      </trkpt>
      <trkpt lat="45.12744" lon="1.30393">
        <ele>92.7</ele>
        <time>2023-10-28T12:33:14Z</time>
      </trkpt>
      <trkpt lat="45.12743" lon="1.30391">
        <ele>92.7</ele>
        <time>2023-10-28T12:33:15Z</time>
      </trkpt>
      <trkpt lat="45.12742" lon="1.3039">
        <ele>92.7</ele>
        <time>2023-10-28T12:33:16Z</time>
      </trkpt>
      <trkpt lat="45.1274" lon="1.30389">
        <ele>92.7</ele>
        <time>2023-10-28T12:33:17Z</time>
      </trkpt>
      <trkpt lat="45.1274" lon="1.30388">
        <ele>92.7</ele>
        <time>2023-10-28T12:33:18Z</time>
      </trkpt>
      <trkpt lat="45.12739" lon="1.30387">
        <ele>92.7</ele>
        <time>2023-10-28T12:33:19Z</time>
      </trkpt>
      <trkpt lat="45.12738" lon="1.30386">
        <ele>92.7</ele>
        <time>2023-10-28T12:33:20Z</time>
      </trkpt>
      <trkpt lat="45.12737" lon="1.30385">
        <ele>92.7</ele>
        <time>2023-10-28T12:33:21Z</time>
      </trkpt>
      <trkpt lat="45.12735" lon="1.30383">
        <ele>92.7</ele>
        <time>2023-10-28T12:33:22Z</time>
      </trkpt>
      <trkpt lat="45.12733" lon="1.30381">
        <ele>92.6</ele>
        <time>2023-10-28T12:33:23Z</time>
      </trkpt>
      <trkpt lat="45.12731" lon="1.30379">
        <ele>92.6</ele>
        <time>2023-10-28T12:33:24Z</time>
      </trkpt>
      <trkpt lat="45.12729" lon="1.30377">
        <ele>92.6</ele>
        <time>2023-10-28T12:33:25Z</time>
      </trkpt>
      <trkpt lat="45.12728" lon="1.30375">
        <ele>92.5</ele>
        <time>2023-10-28T12:33:26Z</time>
      </trkpt>
      <trkpt lat="45.12726" lon="1.30372">
        <ele>92.5</ele>
        <time>2023-10-28T12:33:27Z</time>
      </trkpt>
      <trkpt lat="45.12726" lon="1.30369">
        <ele>92.4</ele>
        <time>2023-10-28T12:33:28Z</time>
      </trkpt>
      <trkpt lat="45.12725" lon="1.30366">
        <ele>92.4</ele>
        <time>2023-10-28T12:33:29Z</time>
      </trkpt>
      <trkpt lat="45.12725" lon="1.30362">
        <ele>92.3</ele>
        <time>2023-10-28T12:33:30Z</time>
      </trkpt>
      <trkpt lat="45.12724" lon="1.30359">
        <ele>92.3</ele>
        <time>2023-10-28T12:33:31Z</time>
      </trkpt>
      <trkpt lat="45.12724" lon="1.30355">
        <ele>92.3</ele>
        <time>2023-10-28T12:33:32Z</time>
      </trkpt>
      <trkpt lat="45.12723" lon="1.30352">
        <ele>92.2</ele>
        <time>2023-10-28T12:33:33Z</time>
      </trkpt>
      <trkpt lat="45.12722" lon="1.30349">
        <ele>92.2</ele>
        <time>2023-10-28T12:33:34Z</time>
      </trkpt>
      <trkpt lat="45.12721" lon="1.30347">
        <ele>92.1</ele>
        <time>2023-10-28T12:33:35Z</time>
      </trkpt>
      <trkpt lat="45.12719" lon="1.30346">
        <ele>92.1</ele>
        <time>2023-10-28T12:33:36Z</time>
      </trkpt>
      <trkpt lat="45.12718" lon="1.30344">
        <ele>92.1</ele>
        <time>2023-10-28T12:33:37Z</time>
      </trkpt>
      <trkpt lat="45.12718" lon="1.30344">
        <ele>92.1</ele>
        <time>2023-10-28T12:33:38Z</time>
      </trkpt>
      <trkpt lat="45.12718" lon="1.30344">
        <ele>92.1</ele>
        <time>2023-10-28T12:33:39Z</time>
      </trkpt>
      <trkpt lat="45.12718" lon="1.30344">
        <ele>92.1</ele>
        <time>2023-10-28T12:33:40Z</time>
      </trkpt>
      <trkpt lat="45.12718" lon="1.30344">
        <ele>92.1</ele>
        <time>2023-10-28T12:33:41Z</time>
      </trkpt>
      <trkpt lat="45.12718" lon="1.30344">
        <ele>92.1</ele>
        <time>2023-10-28T12:33:42Z</time>
      </trkpt>
      <trkpt lat="45.12716" lon="1.30343">
        <ele>92.1</ele>
        <time>2023-10-28T12:33:43Z</time>
      </trkpt>
      <trkpt lat="45.12715" lon="1.30342">
        <ele>92.1</ele>
        <time>2023-10-28T12:33:44Z</time>
      </trkpt>
      <trkpt lat="45.12714" lon="1.30342">
        <ele>92.1</ele>
        <time>2023-10-28T12:33:45Z</time>
      </trkpt>
      <trkpt lat="45.12713" lon="1.30341">
        <ele>92.1</ele>
        <time>2023-10-28T12:33:46Z</time>
      </trkpt>
      <trkpt lat="45.12713" lon="1.3034">
        <ele>92.1</ele>
        <time>2023-10-28T12:33:47Z</time>
      </trkpt>
      <trkpt lat="45.12712" lon="1.30338">
        <ele>92.1</ele>
        <time>2023-10-28T12:33:48Z</time>
      </trkpt>
      <trkpt lat="45.12711" lon="1.30336">
        <ele>92.1</ele>
        <time>2023-10-28T12:33:49Z</time>
      </trkpt>
      <trkpt lat="45.12711" lon="1.30334">
        <ele>92.1</ele>
        <time>2023-10-28T12:33:50Z</time>
      </trkpt>
      <trkpt lat="45.12711" lon="1.30332">
        <ele>92.1</ele>
        <time>2023-10-28T12:33:51Z</time>
      </trkpt>
      <trkpt lat="45.1271" lon="1.3033">
        <ele>92.2</ele>
        <time>2023-10-28T12:33:52Z</time>
      </trkpt>
      <trkpt lat="45.1271" lon="1.30328">
        <ele>92.2</ele>
        <time>2023-10-28T12:33:53Z</time>
      </trkpt>
      <trkpt lat="45.12709" lon="1.30326">
        <ele>92.2</ele>
        <time>2023-10-28T12:33:54Z</time>
      </trkpt>
      <trkpt lat="45.12709" lon="1.30324">
        <ele>92.2</ele>
        <time>2023-10-28T12:33:55Z</time>
      </trkpt>
      <trkpt lat="45.12709" lon="1.30323">
        <ele>92.3</ele>
        <time>2023-10-28T12:33:56Z</time>
      </trkpt>
      <trkpt lat="45.12709" lon="1.30321">
        <ele>92.3</ele>
        <time>2023-10-28T12:33:57Z</time>
      </trkpt>
      <trkpt lat="45.12709" lon="1.3032">
        <ele>92.3</ele>
        <time>2023-10-28T12:33:58Z</time>
      </trkpt>
      <trkpt lat="45.12709" lon="1.30319">
        <ele>92.3</ele>
        <time>2023-10-28T12:33:59Z</time>
      </trkpt>
      <trkpt lat="45.12708" lon="1.30319">
        <ele>92.4</ele>
        <time>2023-10-28T12:34:00Z</time>
      </trkpt>
      <trkpt lat="45.12707" lon="1.30318">
        <ele>92.4</ele>
        <time>2023-10-28T12:34:01Z</time>
      </trkpt>
      <trkpt lat="45.12706" lon="1.30317">
        <ele>92.4</ele>
        <time>2023-10-28T12:34:02Z</time>
      </trkpt>
      <trkpt lat="45.12706" lon="1.30316">
        <ele>92.4</ele>
        <time>2023-10-28T12:34:03Z</time>
      </trkpt>
      <trkpt lat="45.12705" lon="1.30316">
        <ele>92.5</ele>
        <time>2023-10-28T12:34:04Z</time>
      </trkpt>
      <trkpt lat="45.12704" lon="1.30315">
        <ele>92.5</ele>
        <time>2023-10-28T12:34:05Z</time>
      </trkpt>
      <trkpt lat="45.12703" lon="1.30313">
        <ele>92.8</ele>
        <time>2023-10-28T12:34:06Z</time>
      </trkpt>
      <trkpt lat="45.12703" lon="1.30311">
        <ele>92.9</ele>
        <time>2023-10-28T12:34:07Z</time>
      </trkpt>
      <trkpt lat="45.12703" lon="1.30308">
        <ele>93</ele>
        <time>2023-10-28T12:34:08Z</time>
      </trkpt>
      <trkpt lat="45.12703" lon="1.30305">
        <ele>93.2</ele>
        <time>2023-10-28T12:34:09Z</time>
      </trkpt>
      <trkpt lat="45.12703" lon="1.30301">
        <ele>93.3</ele>
        <time>2023-10-28T12:34:10Z</time>
      </trkpt>
      <trkpt lat="45.12702" lon="1.30298">
        <ele>93.4</ele>
        <time>2023-10-28T12:34:11Z</time>
      </trkpt>
      <trkpt lat="45.12701" lon="1.30295">
        <ele>93.6</ele>
        <time>2023-10-28T12:34:12Z</time>
      </trkpt>
      <trkpt lat="45.127" lon="1.30292">
        <ele>93.7</ele>
        <time>2023-10-28T12:34:13Z</time>
      </trkpt>
      <trkpt lat="45.12698" lon="1.3029">
        <ele>93.8</ele>
        <time>2023-10-28T12:34:14Z</time>
      </trkpt>
      <trkpt lat="45.12696" lon="1.30288">
        <ele>94</ele>
        <time>2023-10-28T12:34:15Z</time>
      </trkpt>
      <trkpt lat="45.12694" lon="1.30286">
        <ele>94.1</ele>
        <time>2023-10-28T12:34:16Z</time>
      </trkpt>
      <trkpt lat="45.12691" lon="1.30284">
        <ele>94.2</ele>
        <time>2023-10-28T12:34:17Z</time>
      </trkpt>
      <trkpt lat="45.12689" lon="1.30281">
        <ele>94.3</ele>
        <time>2023-10-28T12:34:18Z</time>
      </trkpt>
      <trkpt lat="45.12687" lon="1.30279">
        <ele>94.4</ele>
        <time>2023-10-28T12:34:19Z</time>
      </trkpt>
      <trkpt lat="45.12685" lon="1.30276">
        <ele>94.4</ele>
        <time>2023-10-28T12:34:20Z</time>
      </trkpt>
      <trkpt lat="45.12684" lon="1.30274">
        <ele>94.5</ele>
        <time>2023-10-28T12:34:21Z</time>
      </trkpt>
      <trkpt lat="45.12682" lon="1.3027">
        <ele>94.5</ele>
        <time>2023-10-28T12:34:22Z</time>
      </trkpt>
      <trkpt lat="45.12681" lon="1.30267">
        <ele>94.5</ele>
        <time>2023-10-28T12:34:23Z</time>
      </trkpt>
      <trkpt lat="45.1268" lon="1.30263">
        <ele>94.5</ele>
        <time>2023-10-28T12:34:24Z</time>
      </trkpt>
      <trkpt lat="45.1268" lon="1.30259">
        <ele>94.4</ele>
        <time>2023-10-28T12:34:25Z</time>
      </trkpt>
      <trkpt lat="45.12679" lon="1.30254">
        <ele>94.3</ele>
        <time>2023-10-28T12:34:26Z</time>
      </trkpt>
      <trkpt lat="45.12679" lon="1.3025">
        <ele>94.2</ele>
        <time>2023-10-28T12:34:27Z</time>
      </trkpt>
      <trkpt lat="45.12679" lon="1.30246">
        <ele>94.1</ele>
        <time>2023-10-28T12:34:28Z</time>
      </trkpt>
      <trkpt lat="45.12678" lon="1.30241">
        <ele>94</ele>
        <time>2023-10-28T12:34:29Z</time>
      </trkpt>
      <trkpt lat="45.12678" lon="1.30238">
        <ele>93.9</ele>
        <time>2023-10-28T12:34:30Z</time>
      </trkpt>
      <trkpt lat="45.12678" lon="1.30234">
        <ele>93.8</ele>
        <time>2023-10-28T12:34:31Z</time>
      </trkpt>
      <trkpt lat="45.12678" lon="1.30231">
        <ele>93.7</ele>
        <time>2023-10-28T12:34:32Z</time>
      </trkpt>
      <trkpt lat="45.12679" lon="1.30228">
        <ele>93.6</ele>
        <time>2023-10-28T12:34:33Z</time>
      </trkpt>
      <trkpt lat="45.12679" lon="1.30227">
        <ele>93.5</ele>
        <time>2023-10-28T12:34:34Z</time>
      </trkpt>
      <trkpt lat="45.12679" lon="1.30226">
        <ele>93.5</ele>
        <time>2023-10-28T12:34:35Z</time>
      </trkpt>
      <trkpt lat="45.12679" lon="1.30225">
        <ele>93.5</ele>
        <time>2023-10-28T12:34:36Z</time>
      </trkpt>
      <trkpt lat="45.12679" lon="1.30224">
        <ele>93.5</ele>
        <time>2023-10-28T12:34:37Z</time>
      </trkpt>
      <trkpt lat="45.12679" lon="1.30223">
        <ele>93.4</ele>
        <time>2023-10-28T12:34:38Z</time>
      </trkpt>
      <trkpt lat="45.12679" lon="1.30223">
        <ele>93.4</ele>
        <time>2023-10-28T12:34:39Z</time>
      </trkpt>
      <trkpt lat="45.12679" lon="1.30222">
        <ele>93.3</ele>
        <time>2023-10-28T12:34:40Z</time>
      </trkpt>
      <trkpt lat="45.1268" lon="1.30221">
        <ele>93.3</ele>
        <time>2023-10-28T12:34:41Z</time>
      </trkpt>
      <trkpt lat="45.1268" lon="1.3022">
        <ele>93.2</ele>
        <time>2023-10-28T12:34:42Z</time>
      </trkpt>
      <trkpt lat="45.12681" lon="1.30218">
        <ele>93.1</ele>
        <time>2023-10-28T12:34:43Z</time>
      </trkpt>
      <trkpt lat="45.12682" lon="1.30216">
        <ele>92.9</ele>
        <time>2023-10-28T12:34:44Z</time>
      </trkpt>
      <trkpt lat="45.12682" lon="1.30214">
        <ele>92.8</ele>
        <time>2023-10-28T12:34:45Z</time>
      </trkpt>
      <trkpt lat="45.12683" lon="1.3021">
        <ele>92.6</ele>
        <time>2023-10-28T12:34:46Z</time>
      </trkpt>
      <trkpt lat="45.12683" lon="1.30207">
        <ele>92.4</ele>
        <time>2023-10-28T12:34:47Z</time>
      </trkpt>
      <trkpt lat="45.12683" lon="1.30204">
        <ele>92.2</ele>
        <time>2023-10-28T12:34:48Z</time>
      </trkpt>
      <trkpt lat="45.12684" lon="1.302">
        <ele>92</ele>
        <time>2023-10-28T12:34:49Z</time>
      </trkpt>
      <trkpt lat="45.12683" lon="1.30196">
        <ele>91.8</ele>
        <time>2023-10-28T12:34:50Z</time>
      </trkpt>
      <trkpt lat="45.12683" lon="1.30192">
        <ele>91.6</ele>
        <time>2023-10-28T12:34:51Z</time>
      </trkpt>
      <trkpt lat="45.12682" lon="1.30188">
        <ele>91.4</ele>
        <time>2023-10-28T12:34:52Z</time>
      </trkpt>
      <trkpt lat="45.12682" lon="1.30184">
        <ele>91.2</ele>
        <time>2023-10-28T12:34:53Z</time>
      </trkpt>
      <trkpt lat="45.12682" lon="1.3018">
        <ele>91</ele>
        <time>2023-10-28T12:34:54Z</time>
      </trkpt>
      <trkpt lat="45.12681" lon="1.30177">
        <ele>90.8</ele>
        <time>2023-10-28T12:34:55Z</time>
      </trkpt>
      <trkpt lat="45.1268" lon="1.30173">
        <ele>90.7</ele>
        <time>2023-10-28T12:34:56Z</time>
      </trkpt>
      <trkpt lat="45.12679" lon="1.30169">
        <ele>90.5</ele>
        <time>2023-10-28T12:34:57Z</time>
      </trkpt>
      <trkpt lat="45.12679" lon="1.30165">
        <ele>90.3</ele>
        <time>2023-10-28T12:34:58Z</time>
      </trkpt>
      <trkpt lat="45.12678" lon="1.30161">
        <ele>90.2</ele>
        <time>2023-10-28T12:34:59Z</time>
      </trkpt>
      <trkpt lat="45.12677" lon="1.30157">
        <ele>90.1</ele>
        <time>2023-10-28T12:35:00Z</time>
      </trkpt>
      <trkpt lat="45.12676" lon="1.30153">
        <ele>89.9</ele>
        <time>2023-10-28T12:35:01Z</time>
      </trkpt>
      <trkpt lat="45.12676" lon="1.30149">
        <ele>89.8</ele>
        <time>2023-10-28T12:35:02Z</time>
      </trkpt>
      <trkpt lat="45.12675" lon="1.30146">
        <ele>89.7</ele>
        <time>2023-10-28T12:35:03Z</time>
      </trkpt>
      <trkpt lat="45.12674" lon="1.30142">
        <ele>89.6</ele>
        <time>2023-10-28T12:35:04Z</time>
      </trkpt>
      <trkpt lat="45.12674" lon="1.30138">
        <ele>89.5</ele>
        <time>2023-10-28T12:35:05Z</time>
      </trkpt>
      <trkpt lat="45.12674" lon="1.30134">
        <ele>89.4</ele>
        <time>2023-10-28T12:35:06Z</time>
      </trkpt>
      <trkpt lat="45.12673" lon="1.3013">
        <ele>89.3</ele>
        <time>2023-10-28T12:35:07Z</time>
      </trkpt>
      <trkpt lat="45.12673" lon="1.30127">
        <ele>89.2</ele>
        <time>2023-10-28T12:35:08Z</time>
      </trkpt>
      <trkpt lat="45.12673" lon="1.30123">
        <ele>89.2</ele>
        <time>2023-10-28T12:35:09Z</time>
      </trkpt>
      <trkpt lat="45.12673" lon="1.3012">
        <ele>89.1</ele>
        <time>2023-10-28T12:35:10Z</time>
      </trkpt>
      <trkpt lat="45.12673" lon="1.30116">
        <ele>89</ele>
        <time>2023-10-28T12:35:11Z</time>
      </trkpt>
      <trkpt lat="45.12673" lon="1.30112">
        <ele>89</ele>
        <time>2023-10-28T12:35:12Z</time>
      </trkpt>
      <trkpt lat="45.12673" lon="1.30109">
        <ele>88.9</ele>
        <time>2023-10-28T12:35:13Z</time>
      </trkpt>
      <trkpt lat="45.12674" lon="1.30105">
        <ele>88.9</ele>
        <time>2023-10-28T12:35:14Z</time>
      </trkpt>
      <trkpt lat="45.12674" lon="1.30102">
        <ele>88.8</ele>
        <time>2023-10-28T12:35:15Z</time>
      </trkpt>
      <trkpt lat="45.12674" lon="1.30098">
        <ele>88.8</ele>
        <time>2023-10-28T12:35:16Z</time>
      </trkpt>
      <trkpt lat="45.12674" lon="1.30095">
        <ele>88.8</ele>
        <time>2023-10-28T12:35:17Z</time>
      </trkpt>
      <trkpt lat="45.12673" lon="1.30092">
        <ele>88.8</ele>
        <time>2023-10-28T12:35:18Z</time>
      </trkpt>
      <trkpt lat="45.12673" lon="1.30088">
        <ele>88.8</ele>
        <time>2023-10-28T12:35:19Z</time>
      </trkpt>
      <trkpt lat="45.12673" lon="1.30085">
        <ele>88.8</ele>
        <time>2023-10-28T12:35:20Z</time>
      </trkpt>
      <trkpt lat="45.12673" lon="1.30081">
        <ele>88.8</ele>
        <time>2023-10-28T12:35:21Z</time>
      </trkpt>
      <trkpt lat="45.12673" lon="1.30077">
        <ele>88.8</ele>
        <time>2023-10-28T12:35:22Z</time>
      </trkpt>
      <trkpt lat="45.12673" lon="1.30074">
        <ele>88.8</ele>
        <time>2023-10-28T12:35:23Z</time>
      </trkpt>
      <trkpt lat="45.12673" lon="1.30069">
        <ele>88.7</ele>
        <time>2023-10-28T12:35:24Z</time>
      </trkpt>
      <trkpt lat="45.12673" lon="1.30065">
        <ele>88.7</ele>
        <time>2023-10-28T12:35:25Z</time>
      </trkpt>
      <trkpt lat="45.12672" lon="1.30061">
        <ele>88.7</ele>
        <time>2023-10-28T12:35:26Z</time>
      </trkpt>
      <trkpt lat="45.12672" lon="1.30057">
        <ele>88.6</ele>
        <time>2023-10-28T12:35:27Z</time>
      </trkpt>
      <trkpt lat="45.12672" lon="1.30053">
        <ele>88.6</ele>
        <time>2023-10-28T12:35:28Z</time>
      </trkpt>
      <trkpt lat="45.12672" lon="1.30048">
        <ele>88.6</ele>
        <time>2023-10-28T12:35:29Z</time>
      </trkpt>
      <trkpt lat="45.12672" lon="1.30044">
        <ele>88.5</ele>
        <time>2023-10-28T12:35:30Z</time>
      </trkpt>
      <trkpt lat="45.12672" lon="1.3004">
        <ele>88.5</ele>
        <time>2023-10-28T12:35:31Z</time>
      </trkpt>
      <trkpt lat="45.12672" lon="1.30036">
        <ele>88.5</ele>
        <time>2023-10-28T12:35:32Z</time>
      </trkpt>
      <trkpt lat="45.12672" lon="1.30032">
        <ele>88.5</ele>
        <time>2023-10-28T12:35:33Z</time>
      </trkpt>
      <trkpt lat="45.12672" lon="1.30028">
        <ele>88.5</ele>
        <time>2023-10-28T12:35:34Z</time>
      </trkpt>
      <trkpt lat="45.12672" lon="1.30025">
        <ele>88.4</ele>
        <time>2023-10-28T12:35:35Z</time>
      </trkpt>
      <trkpt lat="45.12671" lon="1.30021">
        <ele>88.4</ele>
        <time>2023-10-28T12:35:36Z</time>
      </trkpt>
      <trkpt lat="45.12671" lon="1.30017">
        <ele>88.4</ele>
        <time>2023-10-28T12:35:37Z</time>
      </trkpt>
      <trkpt lat="45.12671" lon="1.30013">
        <ele>88.4</ele>
        <time>2023-10-28T12:35:38Z</time>
      </trkpt>
      <trkpt lat="45.12671" lon="1.30009">
        <ele>88.3</ele>
        <time>2023-10-28T12:35:39Z</time>
      </trkpt>
      <trkpt lat="45.1267" lon="1.30005">
        <ele>88.3</ele>
        <time>2023-10-28T12:35:40Z</time>
      </trkpt>
      <trkpt lat="45.1267" lon="1.30002">
        <ele>88.3</ele>
        <time>2023-10-28T12:35:41Z</time>
      </trkpt>
      <trkpt lat="45.1267" lon="1.29998">
        <ele>88.3</ele>
        <time>2023-10-28T12:35:42Z</time>
      </trkpt>
      <trkpt lat="45.12669" lon="1.29994">
        <ele>88.3</ele>
        <time>2023-10-28T12:35:43Z</time>
      </trkpt>
      <trkpt lat="45.12669" lon="1.2999">
        <ele>88.2</ele>
        <time>2023-10-28T12:35:44Z</time>
      </trkpt>
      <trkpt lat="45.12669" lon="1.29986">
        <ele>88.2</ele>
        <time>2023-10-28T12:35:45Z</time>
      </trkpt>
      <trkpt lat="45.12669" lon="1.29983">
        <ele>88.2</ele>
        <time>2023-10-28T12:35:46Z</time>
      </trkpt>
      <trkpt lat="45.12668" lon="1.29979">
        <ele>88.2</ele>
        <time>2023-10-28T12:35:47Z</time>
      </trkpt>
      <trkpt lat="45.12668" lon="1.29975">
        <ele>88.2</ele>
        <time>2023-10-28T12:35:48Z</time>
      </trkpt>
      <trkpt lat="45.12668" lon="1.29972">
        <ele>88.2</ele>
        <time>2023-10-28T12:35:49Z</time>
      </trkpt>
      <trkpt lat="45.12668" lon="1.29968">
        <ele>88.1</ele>
        <time>2023-10-28T12:35:50Z</time>
      </trkpt>
      <trkpt lat="45.12667" lon="1.29964">
        <ele>88.1</ele>
        <time>2023-10-28T12:35:51Z</time>
      </trkpt>
      <trkpt lat="45.12667" lon="1.29961">
        <ele>88.1</ele>
        <time>2023-10-28T12:35:52Z</time>
      </trkpt>
      <trkpt lat="45.12667" lon="1.29957">
        <ele>88.1</ele>
        <time>2023-10-28T12:35:53Z</time>
      </trkpt>
      <trkpt lat="45.12667" lon="1.29953">
        <ele>88.1</ele>
        <time>2023-10-28T12:35:54Z</time>
      </trkpt>
      <trkpt lat="45.12667" lon="1.2995">
        <ele>88</ele>
        <time>2023-10-28T12:35:55Z</time>
      </trkpt>
      <trkpt lat="45.12666" lon="1.29946">
        <ele>88</ele>
        <time>2023-10-28T12:35:56Z</time>
      </trkpt>
      <trkpt lat="45.12666" lon="1.29942">
        <ele>88</ele>
        <time>2023-10-28T12:35:57Z</time>
      </trkpt>
      <trkpt lat="45.12666" lon="1.29938">
        <ele>88</ele>
        <time>2023-10-28T12:35:58Z</time>
      </trkpt>
      <trkpt lat="45.12665" lon="1.29935">
        <ele>88</ele>
        <time>2023-10-28T12:35:59Z</time>
      </trkpt>
      <trkpt lat="45.12664" lon="1.29931">
        <ele>87.9</ele>
        <time>2023-10-28T12:36:00Z</time>
      </trkpt>
      <trkpt lat="45.12664" lon="1.29927">
        <ele>87.9</ele>
        <time>2023-10-28T12:36:01Z</time>
      </trkpt>
      <trkpt lat="45.12663" lon="1.29924">
        <ele>87.9</ele>
        <time>2023-10-28T12:36:02Z</time>
      </trkpt>
      <trkpt lat="45.12663" lon="1.2992">
        <ele>87.9</ele>
        <time>2023-10-28T12:36:03Z</time>
      </trkpt>
      <trkpt lat="45.12662" lon="1.29916">
        <ele>87.8</ele>
        <time>2023-10-28T12:36:04Z</time>
      </trkpt>
      <trkpt lat="45.12661" lon="1.29912">
        <ele>87.8</ele>
        <time>2023-10-28T12:36:05Z</time>
      </trkpt>
      <trkpt lat="45.12661" lon="1.29908">
        <ele>87.8</ele>
        <time>2023-10-28T12:36:06Z</time>
      </trkpt>
      <trkpt lat="45.1266" lon="1.29905">
        <ele>87.8</ele>
        <time>2023-10-28T12:36:07Z</time>
      </trkpt>
      <trkpt lat="45.1266" lon="1.29901">
        <ele>87.7</ele>
        <time>2023-10-28T12:36:08Z</time>
      </trkpt>
      <trkpt lat="45.1266" lon="1.29897">
        <ele>87.7</ele>
        <time>2023-10-28T12:36:09Z</time>
      </trkpt>
      <trkpt lat="45.12659" lon="1.29893">
        <ele>87.7</ele>
        <time>2023-10-28T12:36:10Z</time>
      </trkpt>
      <trkpt lat="45.12658" lon="1.29889">
        <ele>87.7</ele>
        <time>2023-10-28T12:36:11Z</time>
      </trkpt>
      <trkpt lat="45.12657" lon="1.29886">
        <ele>87.7</ele>
        <time>2023-10-28T12:36:12Z</time>
      </trkpt>
      <trkpt lat="45.12656" lon="1.29882">
        <ele>87.7</ele>
        <time>2023-10-28T12:36:13Z</time>
      </trkpt>
      <trkpt lat="45.12656" lon="1.29879">
        <ele>87.6</ele>
        <time>2023-10-28T12:36:14Z</time>
      </trkpt>
      <trkpt lat="45.12655" lon="1.29875">
        <ele>87.6</ele>
        <time>2023-10-28T12:36:15Z</time>
      </trkpt>
      <trkpt lat="45.12654" lon="1.29872">
        <ele>87.6</ele>
        <time>2023-10-28T12:36:16Z</time>
      </trkpt>
      <trkpt lat="45.12653" lon="1.29868">
        <ele>87.6</ele>
        <time>2023-10-28T12:36:17Z</time>
      </trkpt>
      <trkpt lat="45.12653" lon="1.29865">
        <ele>87.6</ele>
        <time>2023-10-28T12:36:18Z</time>
      </trkpt>
      <trkpt lat="45.12651" lon="1.29861">
        <ele>87.6</ele>
        <time>2023-10-28T12:36:19Z</time>
      </trkpt>
      <trkpt lat="45.1265" lon="1.29858">
        <ele>87.6</ele>
        <time>2023-10-28T12:36:20Z</time>
      </trkpt>
      <trkpt lat="45.12649" lon="1.29854">
        <ele>87.6</ele>
        <time>2023-10-28T12:36:21Z</time>
      </trkpt>
      <trkpt lat="45.12648" lon="1.29851">
        <ele>87.6</ele>
        <time>2023-10-28T12:36:22Z</time>
      </trkpt>
      <trkpt lat="45.12647" lon="1.29848">
        <ele>87.6</ele>
        <time>2023-10-28T12:36:23Z</time>
      </trkpt>
      <trkpt lat="45.12645" lon="1.29845">
        <ele>87.6</ele>
        <time>2023-10-28T12:36:24Z</time>
      </trkpt>
      <trkpt lat="45.12643" lon="1.29842">
        <ele>87.6</ele>
        <time>2023-10-28T12:36:25Z</time>
      </trkpt>
      <trkpt lat="45.12642" lon="1.29839">
        <ele>87.6</ele>
        <time>2023-10-28T12:36:26Z</time>
      </trkpt>
      <trkpt lat="45.1264" lon="1.29836">
        <ele>87.6</ele>
        <time>2023-10-28T12:36:27Z</time>
      </trkpt>
      <trkpt lat="45.12639" lon="1.29833">
        <ele>87.6</ele>
        <time>2023-10-28T12:36:28Z</time>
      </trkpt>
      <trkpt lat="45.12637" lon="1.29831">
        <ele>87.6</ele>
        <time>2023-10-28T12:36:29Z</time>
      </trkpt>
      <trkpt lat="45.12635" lon="1.29828">
        <ele>87.6</ele>
        <time>2023-10-28T12:36:30Z</time>
      </trkpt>
      <trkpt lat="45.12633" lon="1.29825">
        <ele>87.6</ele>
        <time>2023-10-28T12:36:31Z</time>
      </trkpt>
      <trkpt lat="45.12632" lon="1.29822">
        <ele>87.6</ele>
        <time>2023-10-28T12:36:32Z</time>
      </trkpt>
      <trkpt lat="45.1263" lon="1.2982">
        <ele>87.7</ele>
        <time>2023-10-28T12:36:33Z</time>
      </trkpt>
      <trkpt lat="45.12629" lon="1.29817">
        <ele>87.7</ele>
        <time>2023-10-28T12:36:34Z</time>
      </trkpt>
      <trkpt lat="45.12627" lon="1.29814">
        <ele>87.7</ele>
        <time>2023-10-28T12:36:35Z</time>
      </trkpt>
      <trkpt lat="45.12625" lon="1.29812">
        <ele>87.7</ele>
        <time>2023-10-28T12:36:36Z</time>
      </trkpt>
      <trkpt lat="45.12624" lon="1.29809">
        <ele>87.7</ele>
        <time>2023-10-28T12:36:37Z</time>
      </trkpt>
      <trkpt lat="45.12622" lon="1.29806">
        <ele>87.8</ele>
        <time>2023-10-28T12:36:38Z</time>
      </trkpt>
      <trkpt lat="45.12621" lon="1.29803">
        <ele>87.8</ele>
        <time>2023-10-28T12:36:39Z</time>
      </trkpt>
      <trkpt lat="45.12619" lon="1.298">
        <ele>87.8</ele>
        <time>2023-10-28T12:36:40Z</time>
      </trkpt>
      <trkpt lat="45.12618" lon="1.29798">
        <ele>87.9</ele>
        <time>2023-10-28T12:36:41Z</time>
      </trkpt>
      <trkpt lat="45.12616" lon="1.29795">
        <ele>87.9</ele>
        <time>2023-10-28T12:36:42Z</time>
      </trkpt>
      <trkpt lat="45.12614" lon="1.29792">
        <ele>87.9</ele>
        <time>2023-10-28T12:36:43Z</time>
      </trkpt>
      <trkpt lat="45.12613" lon="1.2979">
        <ele>88</ele>
        <time>2023-10-28T12:36:44Z</time>
      </trkpt>
      <trkpt lat="45.12611" lon="1.29787">
        <ele>88</ele>
        <time>2023-10-28T12:36:45Z</time>
      </trkpt>
      <trkpt lat="45.12609" lon="1.29784">
        <ele>88.1</ele>
        <time>2023-10-28T12:36:46Z</time>
      </trkpt>
      <trkpt lat="45.12607" lon="1.29782">
        <ele>88.1</ele>
        <time>2023-10-28T12:36:47Z</time>
      </trkpt>
      <trkpt lat="45.12606" lon="1.29779">
        <ele>88.1</ele>
        <time>2023-10-28T12:36:48Z</time>
      </trkpt>
      <trkpt lat="45.12604" lon="1.29776">
        <ele>88.2</ele>
        <time>2023-10-28T12:36:49Z</time>
      </trkpt>
      <trkpt lat="45.12602" lon="1.29773">
        <ele>88.2</ele>
        <time>2023-10-28T12:36:50Z</time>
      </trkpt>
      <trkpt lat="45.12601" lon="1.29771">
        <ele>88.2</ele>
        <time>2023-10-28T12:36:51Z</time>
      </trkpt>
      <trkpt lat="45.126" lon="1.29768">
        <ele>88.3</ele>
        <time>2023-10-28T12:36:52Z</time>
      </trkpt>
      <trkpt lat="45.12598" lon="1.29765">
        <ele>88.3</ele>
        <time>2023-10-28T12:36:53Z</time>
      </trkpt>
      <trkpt lat="45.12597" lon="1.29762">
        <ele>88.4</ele>
        <time>2023-10-28T12:36:54Z</time>
      </trkpt>
      <trkpt lat="45.12595" lon="1.29759">
        <ele>88.4</ele>
        <time>2023-10-28T12:36:55Z</time>
      </trkpt>
      <trkpt lat="45.12594" lon="1.29756">
        <ele>88.5</ele>
        <time>2023-10-28T12:36:56Z</time>
      </trkpt>
      <trkpt lat="45.12592" lon="1.29753">
        <ele>88.5</ele>
        <time>2023-10-28T12:36:57Z</time>
      </trkpt>
      <trkpt lat="45.1259" lon="1.29751">
        <ele>88.6</ele>
        <time>2023-10-28T12:36:58Z</time>
      </trkpt>
      <trkpt lat="45.12589" lon="1.29748">
        <ele>88.6</ele>
        <time>2023-10-28T12:36:59Z</time>
      </trkpt>
      <trkpt lat="45.12587" lon="1.29745">
        <ele>88.7</ele>
        <time>2023-10-28T12:37:00Z</time>
      </trkpt>
      <trkpt lat="45.12586" lon="1.29743">
        <ele>88.8</ele>
        <time>2023-10-28T12:37:01Z</time>
      </trkpt>
      <trkpt lat="45.12584" lon="1.2974">
        <ele>88.8</ele>
        <time>2023-10-28T12:37:02Z</time>
      </trkpt>
      <trkpt lat="45.12583" lon="1.29737">
        <ele>88.9</ele>
        <time>2023-10-28T12:37:03Z</time>
      </trkpt>
      <trkpt lat="45.12581" lon="1.29734">
        <ele>89</ele>
        <time>2023-10-28T12:37:04Z</time>
      </trkpt>
      <trkpt lat="45.1258" lon="1.29731">
        <ele>89.1</ele>
        <time>2023-10-28T12:37:05Z</time>
      </trkpt>
      <trkpt lat="45.12578" lon="1.29729">
        <ele>89.2</ele>
        <time>2023-10-28T12:37:06Z</time>
      </trkpt>
      <trkpt lat="45.12577" lon="1.29726">
        <ele>89.3</ele>
        <time>2023-10-28T12:37:07Z</time>
      </trkpt>
      <trkpt lat="45.12575" lon="1.29723">
        <ele>89.4</ele>
        <time>2023-10-28T12:37:08Z</time>
      </trkpt>
      <trkpt lat="45.12574" lon="1.29721">
        <ele>89.5</ele>
        <time>2023-10-28T12:37:09Z</time>
      </trkpt>
      <trkpt lat="45.12573" lon="1.29718">
        <ele>89.7</ele>
        <time>2023-10-28T12:37:10Z</time>
      </trkpt>
      <trkpt lat="45.12571" lon="1.29715">
        <ele>89.8</ele>
        <time>2023-10-28T12:37:11Z</time>
      </trkpt>
      <trkpt lat="45.12569" lon="1.29712">
        <ele>90</ele>
        <time>2023-10-28T12:37:12Z</time>
      </trkpt>
      <trkpt lat="45.12568" lon="1.2971">
        <ele>90.1</ele>
        <time>2023-10-28T12:37:13Z</time>
      </trkpt>
      <trkpt lat="45.12567" lon="1.29707">
        <ele>90.3</ele>
        <time>2023-10-28T12:37:14Z</time>
      </trkpt>
      <trkpt lat="45.12566" lon="1.29704">
        <ele>90.4</ele>
        <time>2023-10-28T12:37:15Z</time>
      </trkpt>
      <trkpt lat="45.12565" lon="1.29701">
        <ele>90.6</ele>
        <time>2023-10-28T12:37:16Z</time>
      </trkpt>
      <trkpt lat="45.12563" lon="1.29699">
        <ele>90.8</ele>
        <time>2023-10-28T12:37:17Z</time>
      </trkpt>
      <trkpt lat="45.12562" lon="1.29696">
        <ele>90.9</ele>
        <time>2023-10-28T12:37:18Z</time>
      </trkpt>
      <trkpt lat="45.12561" lon="1.29693">
        <ele>91.1</ele>
        <time>2023-10-28T12:37:19Z</time>
      </trkpt>
      <trkpt lat="45.1256" lon="1.2969">
        <ele>91.2</ele>
        <time>2023-10-28T12:37:20Z</time>
      </trkpt>
      <trkpt lat="45.1256" lon="1.29687">
        <ele>91.4</ele>
        <time>2023-10-28T12:37:21Z</time>
      </trkpt>
      <trkpt lat="45.12559" lon="1.29684">
        <ele>91.5</ele>
        <time>2023-10-28T12:37:22Z</time>
      </trkpt>
      <trkpt lat="45.12559" lon="1.2968">
        <ele>91.6</ele>
        <time>2023-10-28T12:37:23Z</time>
      </trkpt>
      <trkpt lat="45.12558" lon="1.29677">
        <ele>91.8</ele>
        <time>2023-10-28T12:37:24Z</time>
      </trkpt>
      <trkpt lat="45.12558" lon="1.29674">
        <ele>91.9</ele>
        <time>2023-10-28T12:37:25Z</time>
      </trkpt>
      <trkpt lat="45.12558" lon="1.29671">
        <ele>92</ele>
        <time>2023-10-28T12:37:26Z</time>
      </trkpt>
      <trkpt lat="45.12558" lon="1.29668">
        <ele>92.1</ele>
        <time>2023-10-28T12:37:27Z</time>
      </trkpt>
      <trkpt lat="45.12558" lon="1.29665">
        <ele>92.3</ele>
        <time>2023-10-28T12:37:28Z</time>
      </trkpt>
      <trkpt lat="45.12558" lon="1.29661">
        <ele>92.4</ele>
        <time>2023-10-28T12:37:29Z</time>
      </trkpt>
      <trkpt lat="45.12558" lon="1.29658">
        <ele>92.5</ele>
        <time>2023-10-28T12:37:30Z</time>
      </trkpt>
      <trkpt lat="45.12558" lon="1.29655">
        <ele>92.6</ele>
        <time>2023-10-28T12:37:31Z</time>
      </trkpt>
      <trkpt lat="45.12557" lon="1.29651">
        <ele>92.7</ele>
        <time>2023-10-28T12:37:32Z</time>
      </trkpt>
      <trkpt lat="45.12557" lon="1.29648">
        <ele>92.8</ele>
        <time>2023-10-28T12:37:33Z</time>
      </trkpt>
      <trkpt lat="45.12557" lon="1.29645">
        <ele>92.9</ele>
        <time>2023-10-28T12:37:34Z</time>
      </trkpt>
      <trkpt lat="45.12557" lon="1.29641">
        <ele>93.1</ele>
        <time>2023-10-28T12:37:35Z</time>
      </trkpt>
      <trkpt lat="45.12557" lon="1.29638">
        <ele>93.1</ele>
        <time>2023-10-28T12:37:36Z</time>
      </trkpt>
      <trkpt lat="45.12557" lon="1.29635">
        <ele>93.2</ele>
        <time>2023-10-28T12:37:37Z</time>
      </trkpt>
      <trkpt lat="45.12557" lon="1.29631">
        <ele>93.3</ele>
        <time>2023-10-28T12:37:38Z</time>
      </trkpt>
      <trkpt lat="45.12557" lon="1.29628">
        <ele>93.4</ele>
        <time>2023-10-28T12:37:39Z</time>
      </trkpt>
      <trkpt lat="45.12557" lon="1.29624">
        <ele>93.4</ele>
        <time>2023-10-28T12:37:40Z</time>
      </trkpt>
      <trkpt lat="45.12557" lon="1.2962">
        <ele>93.4</ele>
        <time>2023-10-28T12:37:41Z</time>
      </trkpt>
      <trkpt lat="45.12557" lon="1.29617">
        <ele>93.5</ele>
        <time>2023-10-28T12:37:42Z</time>
      </trkpt>
      <trkpt lat="45.12557" lon="1.29613">
        <ele>93.4</ele>
        <time>2023-10-28T12:37:43Z</time>
      </trkpt>
      <trkpt lat="45.12557" lon="1.2961">
        <ele>93.4</ele>
        <time>2023-10-28T12:37:44Z</time>
      </trkpt>
      <trkpt lat="45.12557" lon="1.29606">
        <ele>93.4</ele>
        <time>2023-10-28T12:37:45Z</time>
      </trkpt>
      <trkpt lat="45.12557" lon="1.29602">
        <ele>93.3</ele>
        <time>2023-10-28T12:37:46Z</time>
      </trkpt>
      <trkpt lat="45.12557" lon="1.29599">
        <ele>93.3</ele>
        <time>2023-10-28T12:37:47Z</time>
      </trkpt>
      <trkpt lat="45.12557" lon="1.29595">
        <ele>93.2</ele>
        <time>2023-10-28T12:37:48Z</time>
      </trkpt>
      <trkpt lat="45.12557" lon="1.29592">
        <ele>93.1</ele>
        <time>2023-10-28T12:37:49Z</time>
      </trkpt>
      <trkpt lat="45.12556" lon="1.29588">
        <ele>93.1</ele>
        <time>2023-10-28T12:37:50Z</time>
      </trkpt>
      <trkpt lat="45.12555" lon="1.29585">
        <ele>93</ele>
        <time>2023-10-28T12:37:51Z</time>
      </trkpt>
      <trkpt lat="45.12554" lon="1.29582">
        <ele>92.9</ele>
        <time>2023-10-28T12:37:52Z</time>
      </trkpt>
      <trkpt lat="45.12553" lon="1.29579">
        <ele>92.9</ele>
        <time>2023-10-28T12:37:53Z</time>
      </trkpt>
      <trkpt lat="45.12551" lon="1.29578">
        <ele>93.2</ele>
        <time>2023-10-28T12:37:54Z</time>
      </trkpt>
      <trkpt lat="45.12549" lon="1.29576">
        <ele>93.5</ele>
        <time>2023-10-28T12:37:55Z</time>
      </trkpt>
      <trkpt lat="45.12547" lon="1.29575">
        <ele>93.7</ele>
        <time>2023-10-28T12:37:56Z</time>
      </trkpt>
      <trkpt lat="45.12544" lon="1.29575">
        <ele>94</ele>
        <time>2023-10-28T12:37:57Z</time>
      </trkpt>
      <trkpt lat="45.12542" lon="1.29575">
        <ele>94.3</ele>
        <time>2023-10-28T12:37:58Z</time>
      </trkpt>
      <trkpt lat="45.1254" lon="1.29575">
        <ele>94.6</ele>
        <time>2023-10-28T12:37:59Z</time>
      </trkpt>
      <trkpt lat="45.12537" lon="1.29576">
        <ele>94.9</ele>
        <time>2023-10-28T12:38:00Z</time>
      </trkpt>
      <trkpt lat="45.12535" lon="1.29577">
        <ele>95.3</ele>
        <time>2023-10-28T12:38:01Z</time>
      </trkpt>
      <trkpt lat="45.12533" lon="1.29577">
        <ele>95.6</ele>
        <time>2023-10-28T12:38:02Z</time>
      </trkpt>
      <trkpt lat="45.12531" lon="1.29578">
        <ele>95.9</ele>
        <time>2023-10-28T12:38:03Z</time>
      </trkpt>
      <trkpt lat="45.12529" lon="1.29579">
        <ele>96.3</ele>
        <time>2023-10-28T12:38:04Z</time>
      </trkpt>
      <trkpt lat="45.12527" lon="1.29581">
        <ele>96.6</ele>
        <time>2023-10-28T12:38:05Z</time>
      </trkpt>
      <trkpt lat="45.12525" lon="1.29582">
        <ele>96.9</ele>
        <time>2023-10-28T12:38:06Z</time>
      </trkpt>
      <trkpt lat="45.12523" lon="1.29583">
        <ele>97.2</ele>
        <time>2023-10-28T12:38:07Z</time>
      </trkpt>
      <trkpt lat="45.12521" lon="1.29583">
        <ele>97.5</ele>
        <time>2023-10-28T12:38:08Z</time>
      </trkpt>
      <trkpt lat="45.1252" lon="1.29583">
        <ele>97.8</ele>
        <time>2023-10-28T12:38:09Z</time>
      </trkpt>
      <trkpt lat="45.12518" lon="1.29582">
        <ele>98</ele>
        <time>2023-10-28T12:38:10Z</time>
      </trkpt>
      <trkpt lat="45.12517" lon="1.29582">
        <ele>98.2</ele>
        <time>2023-10-28T12:38:11Z</time>
      </trkpt>
      <trkpt lat="45.12516" lon="1.2958">
        <ele>98.5</ele>
        <time>2023-10-28T12:38:12Z</time>
      </trkpt>
      <trkpt lat="45.12515" lon="1.29578">
        <ele>98.7</ele>
        <time>2023-10-28T12:38:13Z</time>
      </trkpt>
      <trkpt lat="45.12514" lon="1.29575">
        <ele>99</ele>
        <time>2023-10-28T12:38:14Z</time>
      </trkpt>
      <trkpt lat="45.12513" lon="1.29573">
        <ele>99.2</ele>
        <time>2023-10-28T12:38:15Z</time>
      </trkpt>
      <trkpt lat="45.12512" lon="1.2957">
        <ele>99.4</ele>
        <time>2023-10-28T12:38:16Z</time>
      </trkpt>
      <trkpt lat="45.12511" lon="1.29567">
        <ele>99.7</ele>
        <time>2023-10-28T12:38:17Z</time>
      </trkpt>
      <trkpt lat="45.12511" lon="1.29564">
        <ele>99.9</ele>
        <time>2023-10-28T12:38:18Z</time>
      </trkpt>
      <trkpt lat="45.12511" lon="1.29561">
        <ele>100.1</ele>
        <time>2023-10-28T12:38:19Z</time>
      </trkpt>
      <trkpt lat="45.12511" lon="1.29558">
        <ele>100.2</ele>
        <time>2023-10-28T12:38:20Z</time>
      </trkpt>
      <trkpt lat="45.12511" lon="1.29555">
        <ele>100.4</ele>
        <time>2023-10-28T12:38:21Z</time>
      </trkpt>
      <trkpt lat="45.12511" lon="1.29552">
        <ele>100.6</ele>
        <time>2023-10-28T12:38:22Z</time>
      </trkpt>
      <trkpt lat="45.12511" lon="1.29549">
        <ele>100.7</ele>
        <time>2023-10-28T12:38:23Z</time>
      </trkpt>
      <trkpt lat="45.12511" lon="1.29546">
        <ele>100.9</ele>
        <time>2023-10-28T12:38:24Z</time>
      </trkpt>
      <trkpt lat="45.12511" lon="1.29543">
        <ele>101</ele>
        <time>2023-10-28T12:38:25Z</time>
      </trkpt>
      <trkpt lat="45.12512" lon="1.2954">
        <ele>101.2</ele>
        <time>2023-10-28T12:38:26Z</time>
      </trkpt>
      <trkpt lat="45.12512" lon="1.29538">
        <ele>101.3</ele>
        <time>2023-10-28T12:38:27Z</time>
      </trkpt>
      <trkpt lat="45.12512" lon="1.29535">
        <ele>101.5</ele>
        <time>2023-10-28T12:38:28Z</time>
      </trkpt>
      <trkpt lat="45.12513" lon="1.29532">
        <ele>101.6</ele>
        <time>2023-10-28T12:38:29Z</time>
      </trkpt>
      <trkpt lat="45.12513" lon="1.2953">
        <ele>101.8</ele>
        <time>2023-10-28T12:38:30Z</time>
      </trkpt>
      <trkpt lat="45.12514" lon="1.29527">
        <ele>101.9</ele>
        <time>2023-10-28T12:38:31Z</time>
      </trkpt>
      <trkpt lat="45.12514" lon="1.29524">
        <ele>102.1</ele>
        <time>2023-10-28T12:38:32Z</time>
      </trkpt>
      <trkpt lat="45.12515" lon="1.29522">
        <ele>102.3</ele>
        <time>2023-10-28T12:38:33Z</time>
      </trkpt>
      <trkpt lat="45.12515" lon="1.29519">
        <ele>102.4</ele>
        <time>2023-10-28T12:38:34Z</time>
      </trkpt>
      <trkpt lat="45.12516" lon="1.29516">
        <ele>102.6</ele>
        <time>2023-10-28T12:38:35Z</time>
      </trkpt>
      <trkpt lat="45.12516" lon="1.29513">
        <ele>102.8</ele>
        <time>2023-10-28T12:38:36Z</time>
      </trkpt>
      <trkpt lat="45.12516" lon="1.29511">
        <ele>103</ele>
        <time>2023-10-28T12:38:37Z</time>
      </trkpt>
      <trkpt lat="45.12517" lon="1.29508">
        <ele>103.2</ele>
        <time>2023-10-28T12:38:38Z</time>
      </trkpt>
      <trkpt lat="45.12517" lon="1.29505">
        <ele>103.4</ele>
        <time>2023-10-28T12:38:39Z</time>
      </trkpt>
      <trkpt lat="45.12518" lon="1.29503">
        <ele>103.6</ele>
        <time>2023-10-28T12:38:40Z</time>
      </trkpt>
      <trkpt lat="45.12518" lon="1.295">
        <ele>103.8</ele>
        <time>2023-10-28T12:38:41Z</time>
      </trkpt>
      <trkpt lat="45.12518" lon="1.29498">
        <ele>104.1</ele>
        <time>2023-10-28T12:38:42Z</time>
      </trkpt>
      <trkpt lat="45.12519" lon="1.29495">
        <ele>104.3</ele>
        <time>2023-10-28T12:38:43Z</time>
      </trkpt>
      <trkpt lat="45.12519" lon="1.29492">
        <ele>104.6</ele>
        <time>2023-10-28T12:38:44Z</time>
      </trkpt>
      <trkpt lat="45.12519" lon="1.2949">
        <ele>104.9</ele>
        <time>2023-10-28T12:38:45Z</time>
      </trkpt>
      <trkpt lat="45.1252" lon="1.29487">
        <ele>105.2</ele>
        <time>2023-10-28T12:38:46Z</time>
      </trkpt>
      <trkpt lat="45.1252" lon="1.29484">
        <ele>105.5</ele>
        <time>2023-10-28T12:38:47Z</time>
      </trkpt>
      <trkpt lat="45.1252" lon="1.29482">
        <ele>105.7</ele>
        <time>2023-10-28T12:38:48Z</time>
      </trkpt>
      <trkpt lat="45.1252" lon="1.2948">
        <ele>106.1</ele>
        <time>2023-10-28T12:38:49Z</time>
      </trkpt>
      <trkpt lat="45.1252" lon="1.29477">
        <ele>106.4</ele>
        <time>2023-10-28T12:38:50Z</time>
      </trkpt>
      <trkpt lat="45.1252" lon="1.29475">
        <ele>106.6</ele>
        <time>2023-10-28T12:38:51Z</time>
      </trkpt>
      <trkpt lat="45.12521" lon="1.29473">
        <ele>107</ele>
        <time>2023-10-28T12:38:52Z</time>
      </trkpt>
      <trkpt lat="45.12521" lon="1.29471">
        <ele>107.3</ele>
        <time>2023-10-28T12:38:53Z</time>
      </trkpt>
      <trkpt lat="45.12521" lon="1.29469">
        <ele>107.6</ele>
        <time>2023-10-28T12:38:54Z</time>
      </trkpt>
      <trkpt lat="45.12522" lon="1.29467">
        <ele>107.9</ele>
        <time>2023-10-28T12:38:55Z</time>
      </trkpt>
      <trkpt lat="45.12522" lon="1.29464">
        <ele>108.3</ele>
        <time>2023-10-28T12:38:56Z</time>
      </trkpt>
      <trkpt lat="45.12522" lon="1.29462">
        <ele>108.6</ele>
        <time>2023-10-28T12:38:57Z</time>
      </trkpt>
      <trkpt lat="45.12522" lon="1.2946">
        <ele>109</ele>
        <time>2023-10-28T12:38:58Z</time>
      </trkpt>
      <trkpt lat="45.12522" lon="1.29458">
        <ele>109.4</ele>
        <time>2023-10-28T12:38:59Z</time>
      </trkpt>
      <trkpt lat="45.12523" lon="1.29456">
        <ele>109.7</ele>
        <time>2023-10-28T12:39:00Z</time>
      </trkpt>
      <trkpt lat="45.12523" lon="1.29453">
        <ele>110.1</ele>
        <time>2023-10-28T12:39:01Z</time>
      </trkpt>
      <trkpt lat="45.12523" lon="1.29451">
        <ele>110.5</ele>
        <time>2023-10-28T12:39:02Z</time>
      </trkpt>
      <trkpt lat="45.12523" lon="1.29449">
        <ele>110.9</ele>
        <time>2023-10-28T12:39:03Z</time>
      </trkpt>
      <trkpt lat="45.12524" lon="1.29447">
        <ele>111.2</ele>
        <time>2023-10-28T12:39:04Z</time>
      </trkpt>
      <trkpt lat="45.12524" lon="1.29445">
        <ele>111.7</ele>
        <time>2023-10-28T12:39:05Z</time>
      </trkpt>
      <trkpt lat="45.12524" lon="1.29443">
        <ele>112</ele>
        <time>2023-10-28T12:39:06Z</time>
      </trkpt>
      <trkpt lat="45.12524" lon="1.29441">
        <ele>112.4</ele>
        <time>2023-10-28T12:39:07Z</time>
      </trkpt>
      <trkpt lat="45.12525" lon="1.29439">
        <ele>112.7</ele>
        <time>2023-10-28T12:39:08Z</time>
      </trkpt>
      <trkpt lat="45.12525" lon="1.29437">
        <ele>113.1</ele>
        <time>2023-10-28T12:39:09Z</time>
      </trkpt>
      <trkpt lat="45.12526" lon="1.29435">
        <ele>113.4</ele>
        <time>2023-10-28T12:39:10Z</time>
      </trkpt>
      <trkpt lat="45.12526" lon="1.29433">
        <ele>113.8</ele>
        <time>2023-10-28T12:39:11Z</time>
      </trkpt>
      <trkpt lat="45.12526" lon="1.29431">
        <ele>114.1</ele>
        <time>2023-10-28T12:39:12Z</time>
      </trkpt>
      <trkpt lat="45.12527" lon="1.29429">
        <ele>114.5</ele>
        <time>2023-10-28T12:39:13Z</time>
      </trkpt>
      <trkpt lat="45.12527" lon="1.29427">
        <ele>114.8</ele>
        <time>2023-10-28T12:39:14Z</time>
      </trkpt>
      <trkpt lat="45.12528" lon="1.29425">
        <ele>115.2</ele>
        <time>2023-10-28T12:39:15Z</time>
      </trkpt>
      <trkpt lat="45.12528" lon="1.29424">
        <ele>115.5</ele>
        <time>2023-10-28T12:39:16Z</time>
      </trkpt>
      <trkpt lat="45.12529" lon="1.29422">
        <ele>115.8</ele>
        <time>2023-10-28T12:39:17Z</time>
      </trkpt>
      <trkpt lat="45.1253" lon="1.2942">
        <ele>116.2</ele>
        <time>2023-10-28T12:39:18Z</time>
      </trkpt>
      <trkpt lat="45.1253" lon="1.29418">
        <ele>116.5</ele>
        <time>2023-10-28T12:39:19Z</time>
      </trkpt>
      <trkpt lat="45.12531" lon="1.29417">
        <ele>116.8</ele>
        <time>2023-10-28T12:39:20Z</time>
      </trkpt>
      <trkpt lat="45.12531" lon="1.29415">
        <ele>117.1</ele>
        <time>2023-10-28T12:39:21Z</time>
      </trkpt>
      <trkpt lat="45.12532" lon="1.29413">
        <ele>117.4</ele>
        <time>2023-10-28T12:39:22Z</time>
      </trkpt>
      <trkpt lat="45.12532" lon="1.29411">
        <ele>117.7</ele>
        <time>2023-10-28T12:39:23Z</time>
      </trkpt>
      <trkpt lat="45.12532" lon="1.29409">
        <ele>118.1</ele>
        <time>2023-10-28T12:39:24Z</time>
      </trkpt>
      <trkpt lat="45.12533" lon="1.29407">
        <ele>118.4</ele>
        <time>2023-10-28T12:39:25Z</time>
      </trkpt>
      <trkpt lat="45.12533" lon="1.29405">
        <ele>118.7</ele>
        <time>2023-10-28T12:39:26Z</time>
      </trkpt>
      <trkpt lat="45.12534" lon="1.29403">
        <ele>119.1</ele>
        <time>2023-10-28T12:39:27Z</time>
      </trkpt>
      <trkpt lat="45.12534" lon="1.294">
        <ele>119.4</ele>
        <time>2023-10-28T12:39:28Z</time>
      </trkpt>
      <trkpt lat="45.12534" lon="1.29398">
        <ele>119.8</ele>
        <time>2023-10-28T12:39:29Z</time>
      </trkpt>
      <trkpt lat="45.12534" lon="1.29396">
        <ele>120.1</ele>
        <time>2023-10-28T12:39:30Z</time>
      </trkpt>
      <trkpt lat="45.12535" lon="1.29394">
        <ele>120.5</ele>
        <time>2023-10-28T12:39:31Z</time>
      </trkpt>
      <trkpt lat="45.12535" lon="1.29392">
        <ele>120.8</ele>
        <time>2023-10-28T12:39:32Z</time>
      </trkpt>
      <trkpt lat="45.12535" lon="1.2939">
        <ele>121.1</ele>
        <time>2023-10-28T12:39:33Z</time>
      </trkpt>
      <trkpt lat="45.12536" lon="1.29388">
        <ele>121.4</ele>
        <time>2023-10-28T12:39:34Z</time>
      </trkpt>
      <trkpt lat="45.12536" lon="1.29386">
        <ele>121.7</ele>
        <time>2023-10-28T12:39:35Z</time>
      </trkpt>
      <trkpt lat="45.12536" lon="1.29384">
        <ele>122</ele>
        <time>2023-10-28T12:39:36Z</time>
      </trkpt>
      <trkpt lat="45.12537" lon="1.29383">
        <ele>122.3</ele>
        <time>2023-10-28T12:39:37Z</time>
      </trkpt>
      <trkpt lat="45.12537" lon="1.29381">
        <ele>122.6</ele>
        <time>2023-10-28T12:39:38Z</time>
      </trkpt>
      <trkpt lat="45.12538" lon="1.29379">
        <ele>122.9</ele>
        <time>2023-10-28T12:39:39Z</time>
      </trkpt>
      <trkpt lat="45.12539" lon="1.29377">
        <ele>123.2</ele>
        <time>2023-10-28T12:39:40Z</time>
      </trkpt>
      <trkpt lat="45.12539" lon="1.29375">
        <ele>123.5</ele>
        <time>2023-10-28T12:39:41Z</time>
      </trkpt>
      <trkpt lat="45.12539" lon="1.29373">
        <ele>123.9</ele>
        <time>2023-10-28T12:39:42Z</time>
      </trkpt>
      <trkpt lat="45.12539" lon="1.29371">
        <ele>124.2</ele>
        <time>2023-10-28T12:39:43Z</time>
      </trkpt>
      <trkpt lat="45.12539" lon="1.29369">
        <ele>124.4</ele>
        <time>2023-10-28T12:39:44Z</time>
      </trkpt>
      <trkpt lat="45.1254" lon="1.29368">
        <ele>124.7</ele>
        <time>2023-10-28T12:39:45Z</time>
      </trkpt>
      <trkpt lat="45.1254" lon="1.29366">
        <ele>125</ele>
        <time>2023-10-28T12:39:46Z</time>
      </trkpt>
      <trkpt lat="45.12541" lon="1.29365">
        <ele>125.3</ele>
        <time>2023-10-28T12:39:47Z</time>
      </trkpt>
      <trkpt lat="45.12541" lon="1.29363">
        <ele>125.5</ele>
        <time>2023-10-28T12:39:48Z</time>
      </trkpt>
      <trkpt lat="45.12542" lon="1.29362">
        <ele>125.8</ele>
        <time>2023-10-28T12:39:49Z</time>
      </trkpt>
      <trkpt lat="45.12543" lon="1.2936">
        <ele>126.1</ele>
        <time>2023-10-28T12:39:50Z</time>
      </trkpt>
      <trkpt lat="45.12543" lon="1.29358">
        <ele>126.4</ele>
        <time>2023-10-28T12:39:51Z</time>
      </trkpt>
      <trkpt lat="45.12544" lon="1.29356">
        <ele>126.8</ele>
        <time>2023-10-28T12:39:52Z</time>
      </trkpt>
      <trkpt lat="45.12544" lon="1.29355">
        <ele>127.1</ele>
        <time>2023-10-28T12:39:53Z</time>
      </trkpt>
      <trkpt lat="45.12545" lon="1.29353">
        <ele>127.4</ele>
        <time>2023-10-28T12:39:54Z</time>
      </trkpt>
      <trkpt lat="45.12545" lon="1.29351">
        <ele>127.7</ele>
        <time>2023-10-28T12:39:55Z</time>
      </trkpt>
      <trkpt lat="45.12545" lon="1.29349">
        <ele>128.1</ele>
        <time>2023-10-28T12:39:56Z</time>
      </trkpt>
      <trkpt lat="45.12545" lon="1.29347">
        <ele>128.4</ele>
        <time>2023-10-28T12:39:57Z</time>
      </trkpt>
      <trkpt lat="45.12546" lon="1.29345">
        <ele>128.7</ele>
        <time>2023-10-28T12:39:58Z</time>
      </trkpt>
      <trkpt lat="45.12546" lon="1.29343">
        <ele>129.1</ele>
        <time>2023-10-28T12:39:59Z</time>
      </trkpt>
      <trkpt lat="45.12547" lon="1.29341">
        <ele>129.4</ele>
        <time>2023-10-28T12:40:00Z</time>
      </trkpt>
      <trkpt lat="45.12547" lon="1.29338">
        <ele>129.8</ele>
        <time>2023-10-28T12:40:01Z</time>
      </trkpt>
      <trkpt lat="45.12547" lon="1.29336">
        <ele>130.1</ele>
        <time>2023-10-28T12:40:02Z</time>
      </trkpt>
      <trkpt lat="45.12547" lon="1.29334">
        <ele>130.5</ele>
        <time>2023-10-28T12:40:03Z</time>
      </trkpt>
      <trkpt lat="45.12547" lon="1.29332">
        <ele>130.8</ele>
        <time>2023-10-28T12:40:04Z</time>
      </trkpt>
      <trkpt lat="45.12547" lon="1.2933">
        <ele>131.2</ele>
        <time>2023-10-28T12:40:05Z</time>
      </trkpt>
      <trkpt lat="45.12547" lon="1.29328">
        <ele>131.5</ele>
        <time>2023-10-28T12:40:06Z</time>
      </trkpt>
      <trkpt lat="45.12547" lon="1.29326">
        <ele>131.8</ele>
        <time>2023-10-28T12:40:07Z</time>
      </trkpt>
      <trkpt lat="45.12547" lon="1.29324">
        <ele>132.1</ele>
        <time>2023-10-28T12:40:08Z</time>
      </trkpt>
      <trkpt lat="45.12547" lon="1.29321">
        <ele>132.3</ele>
        <time>2023-10-28T12:40:09Z</time>
      </trkpt>
      <trkpt lat="45.12547" lon="1.29319">
        <ele>132.5</ele>
        <time>2023-10-28T12:40:10Z</time>
      </trkpt>
      <trkpt lat="45.12547" lon="1.29316">
        <ele>132.7</ele>
        <time>2023-10-28T12:40:11Z</time>
      </trkpt>
      <trkpt lat="45.12547" lon="1.29313">
        <ele>132.9</ele>
        <time>2023-10-28T12:40:12Z</time>
      </trkpt>
      <trkpt lat="45.12547" lon="1.29311">
        <ele>133.1</ele>
        <time>2023-10-28T12:40:13Z</time>
      </trkpt>
      <trkpt lat="45.12547" lon="1.29308">
        <ele>133.3</ele>
        <time>2023-10-28T12:40:14Z</time>
      </trkpt>
      <trkpt lat="45.12547" lon="1.29306">
        <ele>133.5</ele>
        <time>2023-10-28T12:40:15Z</time>
      </trkpt>
      <trkpt lat="45.12547" lon="1.29304">
        <ele>133.7</ele>
        <time>2023-10-28T12:40:16Z</time>
      </trkpt>
      <trkpt lat="45.12547" lon="1.29302">
        <ele>133.9</ele>
        <time>2023-10-28T12:40:17Z</time>
      </trkpt>
      <trkpt lat="45.12547" lon="1.293">
        <ele>134.1</ele>
        <time>2023-10-28T12:40:18Z</time>
      </trkpt>
      <trkpt lat="45.12547" lon="1.29298">
        <ele>134.3</ele>
        <time>2023-10-28T12:40:19Z</time>
      </trkpt>
      <trkpt lat="45.12546" lon="1.29296">
        <ele>134.6</ele>
        <time>2023-10-28T12:40:20Z</time>
      </trkpt>
      <trkpt lat="45.12546" lon="1.29294">
        <ele>134.8</ele>
        <time>2023-10-28T12:40:21Z</time>
      </trkpt>
      <trkpt lat="45.12546" lon="1.29292">
        <ele>135.1</ele>
        <time>2023-10-28T12:40:22Z</time>
      </trkpt>
      <trkpt lat="45.12545" lon="1.2929">
        <ele>135.4</ele>
        <time>2023-10-28T12:40:23Z</time>
      </trkpt>
      <trkpt lat="45.12545" lon="1.29288">
        <ele>135.7</ele>
        <time>2023-10-28T12:40:24Z</time>
      </trkpt>
      <trkpt lat="45.12545" lon="1.29286">
        <ele>136</ele>
        <time>2023-10-28T12:40:25Z</time>
      </trkpt>
      <trkpt lat="45.12546" lon="1.29283">
        <ele>136.3</ele>
        <time>2023-10-28T12:40:26Z</time>
      </trkpt>
      <trkpt lat="45.12546" lon="1.29281">
        <ele>136.6</ele>
        <time>2023-10-28T12:40:27Z</time>
      </trkpt>
      <trkpt lat="45.12546" lon="1.29278">
        <ele>137</ele>
        <time>2023-10-28T12:40:28Z</time>
      </trkpt>
      <trkpt lat="45.12546" lon="1.29276">
        <ele>137.3</ele>
        <time>2023-10-28T12:40:29Z</time>
      </trkpt>
      <trkpt lat="45.12547" lon="1.29273">
        <ele>137.7</ele>
        <time>2023-10-28T12:40:30Z</time>
      </trkpt>
      <trkpt lat="45.12547" lon="1.29271">
        <ele>138</ele>
        <time>2023-10-28T12:40:31Z</time>
      </trkpt>
      <trkpt lat="45.12547" lon="1.29268">
        <ele>138.3</ele>
        <time>2023-10-28T12:40:32Z</time>
      </trkpt>
      <trkpt lat="45.12546" lon="1.29265">
        <ele>138.7</ele>
        <time>2023-10-28T12:40:33Z</time>
      </trkpt>
      <trkpt lat="45.12546" lon="1.29263">
        <ele>139</ele>
        <time>2023-10-28T12:40:34Z</time>
      </trkpt>
      <trkpt lat="45.12545" lon="1.2926">
        <ele>139.3</ele>
        <time>2023-10-28T12:40:35Z</time>
      </trkpt>
      <trkpt lat="45.12544" lon="1.29258">
        <ele>139.6</ele>
        <time>2023-10-28T12:40:36Z</time>
      </trkpt>
      <trkpt lat="45.12544" lon="1.29255">
        <ele>140</ele>
        <time>2023-10-28T12:40:37Z</time>
      </trkpt>
      <trkpt lat="45.12543" lon="1.29253">
        <ele>140.2</ele>
        <time>2023-10-28T12:40:38Z</time>
      </trkpt>
      <trkpt lat="45.12542" lon="1.2925">
        <ele>140.5</ele>
        <time>2023-10-28T12:40:39Z</time>
      </trkpt>
      <trkpt lat="45.12541" lon="1.29247">
        <ele>140.7</ele>
        <time>2023-10-28T12:40:40Z</time>
      </trkpt>
      <trkpt lat="45.1254" lon="1.29244">
        <ele>141</ele>
        <time>2023-10-28T12:40:41Z</time>
      </trkpt>
      <trkpt lat="45.1254" lon="1.2924">
        <ele>141.1</ele>
        <time>2023-10-28T12:40:42Z</time>
      </trkpt>
      <trkpt lat="45.1254" lon="1.29237">
        <ele>141.3</ele>
        <time>2023-10-28T12:40:43Z</time>
      </trkpt>
      <trkpt lat="45.1254" lon="1.29234">
        <ele>141.3</ele>
        <time>2023-10-28T12:40:44Z</time>
      </trkpt>
      <trkpt lat="45.1254" lon="1.2923">
        <ele>141.4</ele>
        <time>2023-10-28T12:40:45Z</time>
      </trkpt>
      <trkpt lat="45.1254" lon="1.29227">
        <ele>141.4</ele>
        <time>2023-10-28T12:40:46Z</time>
      </trkpt>
      <trkpt lat="45.1254" lon="1.29224">
        <ele>141.4</ele>
        <time>2023-10-28T12:40:47Z</time>
      </trkpt>
      <trkpt lat="45.1254" lon="1.29221">
        <ele>141.3</ele>
        <time>2023-10-28T12:40:48Z</time>
      </trkpt>
      <trkpt lat="45.1254" lon="1.29218">
        <ele>141.3</ele>
        <time>2023-10-28T12:40:49Z</time>
      </trkpt>
      <trkpt lat="45.1254" lon="1.29215">
        <ele>141.2</ele>
        <time>2023-10-28T12:40:50Z</time>
      </trkpt>
      <trkpt lat="45.1254" lon="1.29212">
        <ele>141.2</ele>
        <time>2023-10-28T12:40:51Z</time>
      </trkpt>
      <trkpt lat="45.1254" lon="1.29208">
        <ele>141.1</ele>
        <time>2023-10-28T12:40:52Z</time>
      </trkpt>
      <trkpt lat="45.12541" lon="1.29205">
        <ele>141.1</ele>
        <time>2023-10-28T12:40:53Z</time>
      </trkpt>
      <trkpt lat="45.12541" lon="1.29202">
        <ele>141</ele>
        <time>2023-10-28T12:40:54Z</time>
      </trkpt>
      <trkpt lat="45.12541" lon="1.29199">
        <ele>141</ele>
        <time>2023-10-28T12:40:55Z</time>
      </trkpt>
      <trkpt lat="45.12542" lon="1.29195">
        <ele>141</ele>
        <time>2023-10-28T12:40:56Z</time>
      </trkpt>
      <trkpt lat="45.12542" lon="1.29192">
        <ele>141</ele>
        <time>2023-10-28T12:40:57Z</time>
      </trkpt>
      <trkpt lat="45.12542" lon="1.29189">
        <ele>141.1</ele>
        <time>2023-10-28T12:40:58Z</time>
      </trkpt>
      <trkpt lat="45.12543" lon="1.29185">
        <ele>141.1</ele>
        <time>2023-10-28T12:40:59Z</time>
      </trkpt>
      <trkpt lat="45.12544" lon="1.29182">
        <ele>141.2</ele>
        <time>2023-10-28T12:41:00Z</time>
      </trkpt>
      <trkpt lat="45.12544" lon="1.29179">
        <ele>141.3</ele>
        <time>2023-10-28T12:41:01Z</time>
      </trkpt>
      <trkpt lat="45.12545" lon="1.29176">
        <ele>141.5</ele>
        <time>2023-10-28T12:41:02Z</time>
      </trkpt>
      <trkpt lat="45.12545" lon="1.29173">
        <ele>141.6</ele>
        <time>2023-10-28T12:41:03Z</time>
      </trkpt>
      <trkpt lat="45.12546" lon="1.29171">
        <ele>141.8</ele>
        <time>2023-10-28T12:41:04Z</time>
      </trkpt>
      <trkpt lat="45.12547" lon="1.29168">
        <ele>141.9</ele>
        <time>2023-10-28T12:41:05Z</time>
      </trkpt>
      <trkpt lat="45.12547" lon="1.29166">
        <ele>142.1</ele>
        <time>2023-10-28T12:41:06Z</time>
      </trkpt>
      <trkpt lat="45.12547" lon="1.29163">
        <ele>142.2</ele>
        <time>2023-10-28T12:41:07Z</time>
      </trkpt>
      <trkpt lat="45.12548" lon="1.29161">
        <ele>142.4</ele>
        <time>2023-10-28T12:41:08Z</time>
      </trkpt>
      <trkpt lat="45.12548" lon="1.29158">
        <ele>142.6</ele>
        <time>2023-10-28T12:41:09Z</time>
      </trkpt>
      <trkpt lat="45.12549" lon="1.29155">
        <ele>142.8</ele>
        <time>2023-10-28T12:41:10Z</time>
      </trkpt>
      <trkpt lat="45.12549" lon="1.29153">
        <ele>143</ele>
        <time>2023-10-28T12:41:11Z</time>
      </trkpt>
      <trkpt lat="45.1255" lon="1.2915">
        <ele>143.3</ele>
        <time>2023-10-28T12:41:12Z</time>
      </trkpt>
      <trkpt lat="45.12551" lon="1.29148">
        <ele>143.5</ele>
        <time>2023-10-28T12:41:13Z</time>
      </trkpt>
      <trkpt lat="45.12552" lon="1.29145">
        <ele>143.7</ele>
        <time>2023-10-28T12:41:14Z</time>
      </trkpt>
      <trkpt lat="45.12553" lon="1.29143">
        <ele>143.9</ele>
        <time>2023-10-28T12:41:15Z</time>
      </trkpt>
      <trkpt lat="45.12553" lon="1.29141">
        <ele>144.2</ele>
        <time>2023-10-28T12:41:16Z</time>
      </trkpt>
      <trkpt lat="45.12554" lon="1.29138">
        <ele>144.4</ele>
        <time>2023-10-28T12:41:17Z</time>
      </trkpt>
      <trkpt lat="45.12555" lon="1.29136">
        <ele>144.6</ele>
        <time>2023-10-28T12:41:18Z</time>
      </trkpt>
      <trkpt lat="45.12555" lon="1.29134">
        <ele>144.9</ele>
        <time>2023-10-28T12:41:19Z</time>
      </trkpt>
      <trkpt lat="45.12555" lon="1.29132">
        <ele>145.1</ele>
        <time>2023-10-28T12:41:20Z</time>
      </trkpt>
      <trkpt lat="45.12555" lon="1.29129">
        <ele>145.3</ele>
        <time>2023-10-28T12:41:21Z</time>
      </trkpt>
      <trkpt lat="45.12555" lon="1.29127">
        <ele>145.5</ele>
        <time>2023-10-28T12:41:22Z</time>
      </trkpt>
      <trkpt lat="45.12556" lon="1.29125">
        <ele>145.7</ele>
        <time>2023-10-28T12:41:23Z</time>
      </trkpt>
      <trkpt lat="45.12557" lon="1.29123">
        <ele>145.9</ele>
        <time>2023-10-28T12:41:24Z</time>
      </trkpt>
      <trkpt lat="45.12558" lon="1.29121">
        <ele>146.1</ele>
        <time>2023-10-28T12:41:25Z</time>
      </trkpt>
      <trkpt lat="45.12559" lon="1.29119">
        <ele>146.4</ele>
        <time>2023-10-28T12:41:26Z</time>
      </trkpt>
      <trkpt lat="45.12561" lon="1.29117">
        <ele>146.6</ele>
        <time>2023-10-28T12:41:27Z</time>
      </trkpt>
      <trkpt lat="45.12562" lon="1.29115">
        <ele>146.8</ele>
        <time>2023-10-28T12:41:28Z</time>
      </trkpt>
      <trkpt lat="45.12563" lon="1.29112">
        <ele>147</ele>
        <time>2023-10-28T12:41:29Z</time>
      </trkpt>
      <trkpt lat="45.12565" lon="1.2911">
        <ele>147.1</ele>
        <time>2023-10-28T12:41:30Z</time>
      </trkpt>
      <trkpt lat="45.12566" lon="1.29108">
        <ele>147</ele>
        <time>2023-10-28T12:41:31Z</time>
      </trkpt>
      <trkpt lat="45.12567" lon="1.29106">
        <ele>147</ele>
        <time>2023-10-28T12:41:32Z</time>
      </trkpt>
      <trkpt lat="45.12568" lon="1.29104">
        <ele>146.9</ele>
        <time>2023-10-28T12:41:33Z</time>
      </trkpt>
      <trkpt lat="45.12568" lon="1.29101">
        <ele>146.8</ele>
        <time>2023-10-28T12:41:34Z</time>
      </trkpt>
      <trkpt lat="45.12569" lon="1.29099">
        <ele>146.8</ele>
        <time>2023-10-28T12:41:35Z</time>
      </trkpt>
      <trkpt lat="45.12569" lon="1.29096">
        <ele>146.7</ele>
        <time>2023-10-28T12:41:36Z</time>
      </trkpt>
      <trkpt lat="45.12569" lon="1.29092">
        <ele>146.6</ele>
        <time>2023-10-28T12:41:37Z</time>
      </trkpt>
      <trkpt lat="45.12568" lon="1.29089">
        <ele>146.5</ele>
        <time>2023-10-28T12:41:38Z</time>
      </trkpt>
      <trkpt lat="45.12568" lon="1.29085">
        <ele>146.4</ele>
        <time>2023-10-28T12:41:39Z</time>
      </trkpt>
      <trkpt lat="45.12568" lon="1.29081">
        <ele>146.3</ele>
        <time>2023-10-28T12:41:40Z</time>
      </trkpt>
      <trkpt lat="45.12568" lon="1.29077">
        <ele>146.2</ele>
        <time>2023-10-28T12:41:41Z</time>
      </trkpt>
      <trkpt lat="45.12568" lon="1.29073">
        <ele>146.1</ele>
        <time>2023-10-28T12:41:42Z</time>
      </trkpt>
      <trkpt lat="45.12569" lon="1.29069">
        <ele>146</ele>
        <time>2023-10-28T12:41:43Z</time>
      </trkpt>
      <trkpt lat="45.12569" lon="1.29065">
        <ele>146</ele>
        <time>2023-10-28T12:41:44Z</time>
      </trkpt>
      <trkpt lat="45.12571" lon="1.29061">
        <ele>146</ele>
        <time>2023-10-28T12:41:45Z</time>
      </trkpt>
      <trkpt lat="45.12573" lon="1.29058">
        <ele>146</ele>
        <time>2023-10-28T12:41:46Z</time>
      </trkpt>
      <trkpt lat="45.12574" lon="1.29054">
        <ele>146</ele>
        <time>2023-10-28T12:41:47Z</time>
      </trkpt>
      <trkpt lat="45.12576" lon="1.29051">
        <ele>146.1</ele>
        <time>2023-10-28T12:41:48Z</time>
      </trkpt>
      <trkpt lat="45.12578" lon="1.29047">
        <ele>146.4</ele>
        <time>2023-10-28T12:41:49Z</time>
      </trkpt>
      <trkpt lat="45.12579" lon="1.29044">
        <ele>146.6</ele>
        <time>2023-10-28T12:41:50Z</time>
      </trkpt>
      <trkpt lat="45.12581" lon="1.29041">
        <ele>146.9</ele>
        <time>2023-10-28T12:41:51Z</time>
      </trkpt>
      <trkpt lat="45.12582" lon="1.29038">
        <ele>147.3</ele>
        <time>2023-10-28T12:41:52Z</time>
      </trkpt>
      <trkpt lat="45.12584" lon="1.29035">
        <ele>147.6</ele>
        <time>2023-10-28T12:41:53Z</time>
      </trkpt>
      <trkpt lat="45.12585" lon="1.29032">
        <ele>148</ele>
        <time>2023-10-28T12:41:54Z</time>
      </trkpt>
      <trkpt lat="45.12586" lon="1.2903">
        <ele>148.4</ele>
        <time>2023-10-28T12:41:55Z</time>
      </trkpt>
      <trkpt lat="45.12587" lon="1.29027">
        <ele>148.8</ele>
        <time>2023-10-28T12:41:56Z</time>
      </trkpt>
      <trkpt lat="45.12588" lon="1.29024">
        <ele>149.3</ele>
        <time>2023-10-28T12:41:57Z</time>
      </trkpt>
      <trkpt lat="45.12589" lon="1.29022">
        <ele>149.6</ele>
        <time>2023-10-28T12:41:58Z</time>
      </trkpt>
      <trkpt lat="45.1259" lon="1.29019">
        <ele>150.1</ele>
        <time>2023-10-28T12:41:59Z</time>
      </trkpt>
      <trkpt lat="45.12591" lon="1.29017">
        <ele>150.5</ele>
        <time>2023-10-28T12:42:00Z</time>
      </trkpt>
      <trkpt lat="45.12592" lon="1.29014">
        <ele>150.9</ele>
        <time>2023-10-28T12:42:01Z</time>
      </trkpt>
      <trkpt lat="45.12592" lon="1.29012">
        <ele>151.2</ele>
        <time>2023-10-28T12:42:02Z</time>
      </trkpt>
      <trkpt lat="45.12593" lon="1.2901">
        <ele>151.4</ele>
        <time>2023-10-28T12:42:03Z</time>
      </trkpt>
      <trkpt lat="45.12593" lon="1.29008">
        <ele>151.7</ele>
        <time>2023-10-28T12:42:04Z</time>
      </trkpt>
      <trkpt lat="45.12593" lon="1.29006">
        <ele>151.9</ele>
        <time>2023-10-28T12:42:05Z</time>
      </trkpt>
      <trkpt lat="45.12593" lon="1.29005">
        <ele>152</ele>
        <time>2023-10-28T12:42:06Z</time>
      </trkpt>
      <trkpt lat="45.12594" lon="1.29003">
        <ele>152.2</ele>
        <time>2023-10-28T12:42:07Z</time>
      </trkpt>
      <trkpt lat="45.12594" lon="1.29001">
        <ele>152.4</ele>
        <time>2023-10-28T12:42:08Z</time>
      </trkpt>
      <trkpt lat="45.12594" lon="1.28999">
        <ele>152.5</ele>
        <time>2023-10-28T12:42:09Z</time>
      </trkpt>
      <trkpt lat="45.12594" lon="1.28997">
        <ele>152.7</ele>
        <time>2023-10-28T12:42:10Z</time>
      </trkpt>
      <trkpt lat="45.12595" lon="1.28995">
        <ele>152.8</ele>
        <time>2023-10-28T12:42:11Z</time>
      </trkpt>
      <trkpt lat="45.12595" lon="1.28992">
        <ele>152.9</ele>
        <time>2023-10-28T12:42:12Z</time>
      </trkpt>
      <trkpt lat="45.12596" lon="1.28989">
        <ele>153</ele>
        <time>2023-10-28T12:42:13Z</time>
      </trkpt>
      <trkpt lat="45.12597" lon="1.28987">
        <ele>153</ele>
        <time>2023-10-28T12:42:14Z</time>
      </trkpt>
      <trkpt lat="45.12598" lon="1.28984">
        <ele>153</ele>
        <time>2023-10-28T12:42:15Z</time>
      </trkpt>
      <trkpt lat="45.12599" lon="1.28981">
        <ele>152.9</ele>
        <time>2023-10-28T12:42:16Z</time>
      </trkpt>
      <trkpt lat="45.12601" lon="1.28978">
        <ele>152.8</ele>
        <time>2023-10-28T12:42:17Z</time>
      </trkpt>
      <trkpt lat="45.12603" lon="1.28976">
        <ele>152.6</ele>
        <time>2023-10-28T12:42:18Z</time>
      </trkpt>
      <trkpt lat="45.12605" lon="1.28973">
        <ele>152.4</ele>
        <time>2023-10-28T12:42:19Z</time>
      </trkpt>
      <trkpt lat="45.12606" lon="1.2897">
        <ele>152.1</ele>
        <time>2023-10-28T12:42:20Z</time>
      </trkpt>
      <trkpt lat="45.12606" lon="1.28967">
        <ele>151.9</ele>
        <time>2023-10-28T12:42:21Z</time>
      </trkpt>
      <trkpt lat="45.12607" lon="1.28964">
        <ele>151.7</ele>
        <time>2023-10-28T12:42:22Z</time>
      </trkpt>
      <trkpt lat="45.12607" lon="1.28961">
        <ele>151.5</ele>
        <time>2023-10-28T12:42:23Z</time>
      </trkpt>
      <trkpt lat="45.12607" lon="1.28958">
        <ele>151.3</ele>
        <time>2023-10-28T12:42:24Z</time>
      </trkpt>
      <trkpt lat="45.12606" lon="1.28955">
        <ele>151.1</ele>
        <time>2023-10-28T12:42:25Z</time>
      </trkpt>
      <trkpt lat="45.12606" lon="1.28952">
        <ele>150.9</ele>
        <time>2023-10-28T12:42:26Z</time>
      </trkpt>
      <trkpt lat="45.12605" lon="1.28949">
        <ele>150.6</ele>
        <time>2023-10-28T12:42:27Z</time>
      </trkpt>
      <trkpt lat="45.12604" lon="1.28946">
        <ele>150.4</ele>
        <time>2023-10-28T12:42:28Z</time>
      </trkpt>
      <trkpt lat="45.12604" lon="1.28943">
        <ele>150.2</ele>
        <time>2023-10-28T12:42:29Z</time>
      </trkpt>
      <trkpt lat="45.12603" lon="1.28939">
        <ele>150</ele>
        <time>2023-10-28T12:42:30Z</time>
      </trkpt>
      <trkpt lat="45.12603" lon="1.28936">
        <ele>149.7</ele>
        <time>2023-10-28T12:42:31Z</time>
      </trkpt>
      <trkpt lat="45.12603" lon="1.28933">
        <ele>149.6</ele>
        <time>2023-10-28T12:42:32Z</time>
      </trkpt>
      <trkpt lat="45.12603" lon="1.28929">
        <ele>149.3</ele>
        <time>2023-10-28T12:42:33Z</time>
      </trkpt>
      <trkpt lat="45.12602" lon="1.28925">
        <ele>149.1</ele>
        <time>2023-10-28T12:42:34Z</time>
      </trkpt>
      <trkpt lat="45.12602" lon="1.28921">
        <ele>149</ele>
        <time>2023-10-28T12:42:35Z</time>
      </trkpt>
      <trkpt lat="45.12602" lon="1.28917">
        <ele>148.8</ele>
        <time>2023-10-28T12:42:36Z</time>
      </trkpt>
      <trkpt lat="45.12603" lon="1.28913">
        <ele>148.6</ele>
        <time>2023-10-28T12:42:37Z</time>
      </trkpt>
      <trkpt lat="45.12603" lon="1.28909">
        <ele>148.5</ele>
        <time>2023-10-28T12:42:38Z</time>
      </trkpt>
      <trkpt lat="45.12604" lon="1.28905">
        <ele>148.3</ele>
        <time>2023-10-28T12:42:39Z</time>
      </trkpt>
      <trkpt lat="45.12605" lon="1.28902">
        <ele>148.2</ele>
        <time>2023-10-28T12:42:40Z</time>
      </trkpt>
      <trkpt lat="45.12606" lon="1.28898">
        <ele>148.1</ele>
        <time>2023-10-28T12:42:41Z</time>
      </trkpt>
      <trkpt lat="45.12607" lon="1.28894">
        <ele>148</ele>
        <time>2023-10-28T12:42:42Z</time>
      </trkpt>
      <trkpt lat="45.12608" lon="1.28891">
        <ele>147.9</ele>
        <time>2023-10-28T12:42:43Z</time>
      </trkpt>
      <trkpt lat="45.12609" lon="1.28888">
        <ele>147.9</ele>
        <time>2023-10-28T12:42:44Z</time>
      </trkpt>
      <trkpt lat="45.1261" lon="1.28884">
        <ele>147.8</ele>
        <time>2023-10-28T12:42:45Z</time>
      </trkpt>
      <trkpt lat="45.12611" lon="1.28881">
        <ele>147.8</ele>
        <time>2023-10-28T12:42:46Z</time>
      </trkpt>
      <trkpt lat="45.12611" lon="1.28877">
        <ele>147.7</ele>
        <time>2023-10-28T12:42:47Z</time>
      </trkpt>
      <trkpt lat="45.12612" lon="1.28874">
        <ele>147.7</ele>
        <time>2023-10-28T12:42:48Z</time>
      </trkpt>
      <trkpt lat="45.12613" lon="1.2887">
        <ele>147.6</ele>
        <time>2023-10-28T12:42:49Z</time>
      </trkpt>
      <trkpt lat="45.12614" lon="1.28867">
        <ele>147.5</ele>
        <time>2023-10-28T12:42:50Z</time>
      </trkpt>
      <trkpt lat="45.12615" lon="1.28864">
        <ele>147.4</ele>
        <time>2023-10-28T12:42:51Z</time>
      </trkpt>
      <trkpt lat="45.12616" lon="1.28861">
        <ele>147.2</ele>
        <time>2023-10-28T12:42:52Z</time>
      </trkpt>
      <trkpt lat="45.12616" lon="1.28858">
        <ele>147</ele>
        <time>2023-10-28T12:42:53Z</time>
      </trkpt>
      <trkpt lat="45.12617" lon="1.28855">
        <ele>146.9</ele>
        <time>2023-10-28T12:42:54Z</time>
      </trkpt>
      <trkpt lat="45.12618" lon="1.28852">
        <ele>146.7</ele>
        <time>2023-10-28T12:42:55Z</time>
      </trkpt>
      <trkpt lat="45.12619" lon="1.2885">
        <ele>146.4</ele>
        <time>2023-10-28T12:42:56Z</time>
      </trkpt>
      <trkpt lat="45.1262" lon="1.28847">
        <ele>146.2</ele>
        <time>2023-10-28T12:42:57Z</time>
      </trkpt>
      <trkpt lat="45.12621" lon="1.28844">
        <ele>145.9</ele>
        <time>2023-10-28T12:42:58Z</time>
      </trkpt>
      <trkpt lat="45.12622" lon="1.28841">
        <ele>145.6</ele>
        <time>2023-10-28T12:42:59Z</time>
      </trkpt>
      <trkpt lat="45.12623" lon="1.28838">
        <ele>145.3</ele>
        <time>2023-10-28T12:43:00Z</time>
      </trkpt>
      <trkpt lat="45.12623" lon="1.28834">
        <ele>145</ele>
        <time>2023-10-28T12:43:01Z</time>
      </trkpt>
      <trkpt lat="45.12624" lon="1.28831">
        <ele>144.7</ele>
        <time>2023-10-28T12:43:02Z</time>
      </trkpt>
      <trkpt lat="45.12625" lon="1.28827">
        <ele>144.5</ele>
        <time>2023-10-28T12:43:03Z</time>
      </trkpt>
      <trkpt lat="45.12626" lon="1.28824">
        <ele>144.3</ele>
        <time>2023-10-28T12:43:04Z</time>
      </trkpt>
      <trkpt lat="45.12627" lon="1.2882">
        <ele>144.2</ele>
        <time>2023-10-28T12:43:05Z</time>
      </trkpt>
      <trkpt lat="45.12629" lon="1.28817">
        <ele>144.2</ele>
        <time>2023-10-28T12:43:06Z</time>
      </trkpt>
      <trkpt lat="45.12631" lon="1.28813">
        <ele>144.2</ele>
        <time>2023-10-28T12:43:07Z</time>
      </trkpt>
      <trkpt lat="45.12632" lon="1.28809">
        <ele>144.3</ele>
        <time>2023-10-28T12:43:08Z</time>
      </trkpt>
      <trkpt lat="45.12634" lon="1.28806">
        <ele>144.5</ele>
        <time>2023-10-28T12:43:09Z</time>
      </trkpt>
      <trkpt lat="45.12635" lon="1.28802">
        <ele>144.7</ele>
        <time>2023-10-28T12:43:10Z</time>
      </trkpt>
      <trkpt lat="45.12635" lon="1.28799">
        <ele>144.9</ele>
        <time>2023-10-28T12:43:11Z</time>
      </trkpt>
      <trkpt lat="45.12636" lon="1.28796">
        <ele>145.1</ele>
        <time>2023-10-28T12:43:12Z</time>
      </trkpt>
      <trkpt lat="45.12637" lon="1.28793">
        <ele>145.4</ele>
        <time>2023-10-28T12:43:13Z</time>
      </trkpt>
      <trkpt lat="45.12637" lon="1.2879">
        <ele>145.6</ele>
        <time>2023-10-28T12:43:14Z</time>
      </trkpt>
      <trkpt lat="45.12637" lon="1.28787">
        <ele>145.9</ele>
        <time>2023-10-28T12:43:15Z</time>
      </trkpt>
      <trkpt lat="45.12637" lon="1.28784">
        <ele>146.1</ele>
        <time>2023-10-28T12:43:16Z</time>
      </trkpt>
      <trkpt lat="45.12637" lon="1.28782">
        <ele>146.3</ele>
        <time>2023-10-28T12:43:17Z</time>
      </trkpt>
      <trkpt lat="45.12636" lon="1.2878">
        <ele>146.6</ele>
        <time>2023-10-28T12:43:18Z</time>
      </trkpt>
      <trkpt lat="45.12635" lon="1.28777">
        <ele>146.8</ele>
        <time>2023-10-28T12:43:19Z</time>
      </trkpt>
      <trkpt lat="45.12635" lon="1.28775">
        <ele>147.1</ele>
        <time>2023-10-28T12:43:20Z</time>
      </trkpt>
      <trkpt lat="45.12634" lon="1.28772">
        <ele>147.3</ele>
        <time>2023-10-28T12:43:21Z</time>
      </trkpt>
      <trkpt lat="45.12634" lon="1.28769">
        <ele>147.6</ele>
        <time>2023-10-28T12:43:22Z</time>
      </trkpt>
      <trkpt lat="45.12633" lon="1.28767">
        <ele>147.8</ele>
        <time>2023-10-28T12:43:23Z</time>
      </trkpt>
      <trkpt lat="45.12632" lon="1.28764">
        <ele>148</ele>
        <time>2023-10-28T12:43:24Z</time>
      </trkpt>
      <trkpt lat="45.12632" lon="1.28761">
        <ele>148.2</ele>
        <time>2023-10-28T12:43:25Z</time>
      </trkpt>
      <trkpt lat="45.12632" lon="1.28759">
        <ele>148.4</ele>
        <time>2023-10-28T12:43:26Z</time>
      </trkpt>
      <trkpt lat="45.12632" lon="1.28756">
        <ele>148.5</ele>
        <time>2023-10-28T12:43:27Z</time>
      </trkpt>
      <trkpt lat="45.12631" lon="1.28754">
        <ele>148.6</ele>
        <time>2023-10-28T12:43:28Z</time>
      </trkpt>
      <trkpt lat="45.12631" lon="1.28752">
        <ele>148.7</ele>
        <time>2023-10-28T12:43:29Z</time>
      </trkpt>
      <trkpt lat="45.1263" lon="1.28749">
        <ele>148.7</ele>
        <time>2023-10-28T12:43:30Z</time>
      </trkpt>
      <trkpt lat="45.12629" lon="1.28747">
        <ele>148.8</ele>
        <time>2023-10-28T12:43:31Z</time>
      </trkpt>
      <trkpt lat="45.12629" lon="1.28744">
        <ele>148.8</ele>
        <time>2023-10-28T12:43:32Z</time>
      </trkpt>
      <trkpt lat="45.12629" lon="1.28741">
        <ele>148.8</ele>
        <time>2023-10-28T12:43:33Z</time>
      </trkpt>
      <trkpt lat="45.12628" lon="1.28738">
        <ele>148.8</ele>
        <time>2023-10-28T12:43:34Z</time>
      </trkpt>
      <trkpt lat="45.12627" lon="1.28735">
        <ele>148.8</ele>
        <time>2023-10-28T12:43:35Z</time>
      </trkpt>
      <trkpt lat="45.12627" lon="1.28732">
        <ele>148.8</ele>
        <time>2023-10-28T12:43:36Z</time>
      </trkpt>
      <trkpt lat="45.12626" lon="1.28729">
        <ele>148.7</ele>
        <time>2023-10-28T12:43:37Z</time>
      </trkpt>
      <trkpt lat="45.12625" lon="1.28725">
        <ele>148.7</ele>
        <time>2023-10-28T12:43:38Z</time>
      </trkpt>
      <trkpt lat="45.12624" lon="1.28722">
        <ele>148.6</ele>
        <time>2023-10-28T12:43:39Z</time>
      </trkpt>
      <trkpt lat="45.12623" lon="1.28719">
        <ele>148.6</ele>
        <time>2023-10-28T12:43:40Z</time>
      </trkpt>
      <trkpt lat="45.12622" lon="1.28716">
        <ele>148.6</ele>
        <time>2023-10-28T12:43:41Z</time>
      </trkpt>
      <trkpt lat="45.12621" lon="1.28715">
        <ele>148.6</ele>
        <time>2023-10-28T12:43:42Z</time>
      </trkpt>
      <trkpt lat="45.12619" lon="1.28713">
        <ele>148.6</ele>
        <time>2023-10-28T12:43:43Z</time>
      </trkpt>
      <trkpt lat="45.12618" lon="1.28711">
        <ele>148.7</ele>
        <time>2023-10-28T12:43:44Z</time>
      </trkpt>
      <trkpt lat="45.12618" lon="1.28711">
        <ele>148.7</ele>
        <time>2023-10-28T12:43:45Z</time>
      </trkpt>
      <trkpt lat="45.12618" lon="1.28712">
        <ele>148.8</ele>
        <time>2023-10-28T12:43:46Z</time>
      </trkpt>
      <trkpt lat="45.12618" lon="1.28713">
        <ele>148.8</ele>
        <time>2023-10-28T12:43:47Z</time>
      </trkpt>
      <trkpt lat="45.12618" lon="1.28714">
        <ele>148.9</ele>
        <time>2023-10-28T12:43:48Z</time>
      </trkpt>
      <trkpt lat="45.12619" lon="1.28715">
        <ele>149</ele>
        <time>2023-10-28T12:43:49Z</time>
      </trkpt>
      <trkpt lat="45.12619" lon="1.28717">
        <ele>149.1</ele>
        <time>2023-10-28T12:43:50Z</time>
      </trkpt>
      <trkpt lat="45.1262" lon="1.28719">
        <ele>149.3</ele>
        <time>2023-10-28T12:43:51Z</time>
      </trkpt>
      <trkpt lat="45.12621" lon="1.2872">
        <ele>149.5</ele>
        <time>2023-10-28T12:43:52Z</time>
      </trkpt>
      <trkpt lat="45.12621" lon="1.28722">
        <ele>149.7</ele>
        <time>2023-10-28T12:43:53Z</time>
      </trkpt>
      <trkpt lat="45.12621" lon="1.28723">
        <ele>149.9</ele>
        <time>2023-10-28T12:43:54Z</time>
      </trkpt>
      <trkpt lat="45.12621" lon="1.28725">
        <ele>150.2</ele>
        <time>2023-10-28T12:43:55Z</time>
      </trkpt>
      <trkpt lat="45.12621" lon="1.28726">
        <ele>150.4</ele>
        <time>2023-10-28T12:43:56Z</time>
      </trkpt>
      <trkpt lat="45.1262" lon="1.28728">
        <ele>150.6</ele>
        <time>2023-10-28T12:43:57Z</time>
      </trkpt>
      <trkpt lat="45.1262" lon="1.28729">
        <ele>150.9</ele>
        <time>2023-10-28T12:43:58Z</time>
      </trkpt>
      <trkpt lat="45.12619" lon="1.28731">
        <ele>151.2</ele>
        <time>2023-10-28T12:43:59Z</time>
      </trkpt>
      <trkpt lat="45.12619" lon="1.28732">
        <ele>151.5</ele>
        <time>2023-10-28T12:44:00Z</time>
      </trkpt>
      <trkpt lat="45.12618" lon="1.28734">
        <ele>151.9</ele>
        <time>2023-10-28T12:44:01Z</time>
      </trkpt>
      <trkpt lat="45.12618" lon="1.28735">
        <ele>152.2</ele>
        <time>2023-10-28T12:44:02Z</time>
      </trkpt>
      <trkpt lat="45.12618" lon="1.28737">
        <ele>152.5</ele>
        <time>2023-10-28T12:44:03Z</time>
      </trkpt>
      <trkpt lat="45.12618" lon="1.28739">
        <ele>152.8</ele>
        <time>2023-10-28T12:44:04Z</time>
      </trkpt>
      <trkpt lat="45.12618" lon="1.2874">
        <ele>153.2</ele>
        <time>2023-10-28T12:44:05Z</time>
      </trkpt>
      <trkpt lat="45.12619" lon="1.28741">
        <ele>153.5</ele>
        <time>2023-10-28T12:44:06Z</time>
      </trkpt>
      <trkpt lat="45.12619" lon="1.28743">
        <ele>153.8</ele>
        <time>2023-10-28T12:44:07Z</time>
      </trkpt>
      <trkpt lat="45.12619" lon="1.28745">
        <ele>154.2</ele>
        <time>2023-10-28T12:44:08Z</time>
      </trkpt>
      <trkpt lat="45.12619" lon="1.28746">
        <ele>154.5</ele>
        <time>2023-10-28T12:44:09Z</time>
      </trkpt>
      <trkpt lat="45.12619" lon="1.28748">
        <ele>154.8</ele>
        <time>2023-10-28T12:44:10Z</time>
      </trkpt>
      <trkpt lat="45.12619" lon="1.28749">
        <ele>155</ele>
        <time>2023-10-28T12:44:11Z</time>
      </trkpt>
      <trkpt lat="45.12619" lon="1.2875">
        <ele>155.3</ele>
        <time>2023-10-28T12:44:12Z</time>
      </trkpt>
      <trkpt lat="45.12618" lon="1.28751">
        <ele>155.6</ele>
        <time>2023-10-28T12:44:13Z</time>
      </trkpt>
      <trkpt lat="45.12618" lon="1.28753">
        <ele>156</ele>
        <time>2023-10-28T12:44:14Z</time>
      </trkpt>
      <trkpt lat="45.12617" lon="1.28755">
        <ele>156.4</ele>
        <time>2023-10-28T12:44:15Z</time>
      </trkpt>
      <trkpt lat="45.12616" lon="1.28756">
        <ele>156.8</ele>
        <time>2023-10-28T12:44:16Z</time>
      </trkpt>
      <trkpt lat="45.12616" lon="1.28757">
        <ele>157.1</ele>
        <time>2023-10-28T12:44:17Z</time>
      </trkpt>
      <trkpt lat="45.12616" lon="1.28758">
        <ele>157.3</ele>
        <time>2023-10-28T12:44:18Z</time>
      </trkpt>
      <trkpt lat="45.12616" lon="1.2876">
        <ele>157.6</ele>
        <time>2023-10-28T12:44:19Z</time>
      </trkpt>
      <trkpt lat="45.12616" lon="1.28761">
        <ele>157.9</ele>
        <time>2023-10-28T12:44:20Z</time>
      </trkpt>
      <trkpt lat="45.12616" lon="1.28762">
        <ele>158.1</ele>
        <time>2023-10-28T12:44:21Z</time>
      </trkpt>
      <trkpt lat="45.12616" lon="1.28763">
        <ele>158.4</ele>
        <time>2023-10-28T12:44:22Z</time>
      </trkpt>
      <trkpt lat="45.12616" lon="1.28765">
        <ele>158.7</ele>
        <time>2023-10-28T12:44:23Z</time>
      </trkpt>
      <trkpt lat="45.12616" lon="1.28766">
        <ele>159</ele>
        <time>2023-10-28T12:44:24Z</time>
      </trkpt>
      <trkpt lat="45.12616" lon="1.28767">
        <ele>159.3</ele>
        <time>2023-10-28T12:44:25Z</time>
      </trkpt>
      <trkpt lat="45.12616" lon="1.28768">
        <ele>159.5</ele>
        <time>2023-10-28T12:44:26Z</time>
      </trkpt>
      <trkpt lat="45.12616" lon="1.28769">
        <ele>159.8</ele>
        <time>2023-10-28T12:44:27Z</time>
      </trkpt>
      <trkpt lat="45.12616" lon="1.2877">
        <ele>160</ele>
        <time>2023-10-28T12:44:28Z</time>
      </trkpt>
      <trkpt lat="45.12616" lon="1.28771">
        <ele>160.3</ele>
        <time>2023-10-28T12:44:29Z</time>
      </trkpt>
      <trkpt lat="45.12616" lon="1.28773">
        <ele>160.7</ele>
        <time>2023-10-28T12:44:30Z</time>
      </trkpt>
      <trkpt lat="45.12616" lon="1.28774">
        <ele>161</ele>
        <time>2023-10-28T12:44:31Z</time>
      </trkpt>
      <trkpt lat="45.12616" lon="1.28775">
        <ele>161.3</ele>
        <time>2023-10-28T12:44:32Z</time>
      </trkpt>
      <trkpt lat="45.12616" lon="1.28777">
        <ele>161.7</ele>
        <time>2023-10-28T12:44:33Z</time>
      </trkpt>
      <trkpt lat="45.12616" lon="1.28778">
        <ele>162</ele>
        <time>2023-10-28T12:44:34Z</time>
      </trkpt>
      <trkpt lat="45.12616" lon="1.28779">
        <ele>162.3</ele>
        <time>2023-10-28T12:44:35Z</time>
      </trkpt>
      <trkpt lat="45.12616" lon="1.28781">
        <ele>162.6</ele>
        <time>2023-10-28T12:44:36Z</time>
      </trkpt>
      <trkpt lat="45.12616" lon="1.28782">
        <ele>162.9</ele>
        <time>2023-10-28T12:44:37Z</time>
      </trkpt>
      <trkpt lat="45.12615" lon="1.28783">
        <ele>163.1</ele>
        <time>2023-10-28T12:44:38Z</time>
      </trkpt>
      <trkpt lat="45.12615" lon="1.28784">
        <ele>163.4</ele>
        <time>2023-10-28T12:44:39Z</time>
      </trkpt>
      <trkpt lat="45.12615" lon="1.28785">
        <ele>163.6</ele>
        <time>2023-10-28T12:44:40Z</time>
      </trkpt>
      <trkpt lat="45.12615" lon="1.28786">
        <ele>163.8</ele>
        <time>2023-10-28T12:44:41Z</time>
      </trkpt>
      <trkpt lat="45.12615" lon="1.28787">
        <ele>164.1</ele>
        <time>2023-10-28T12:44:42Z</time>
      </trkpt>
      <trkpt lat="45.12616" lon="1.28788">
        <ele>164.4</ele>
        <time>2023-10-28T12:44:43Z</time>
      </trkpt>
      <trkpt lat="45.12616" lon="1.28789">
        <ele>164.6</ele>
        <time>2023-10-28T12:44:44Z</time>
      </trkpt>
      <trkpt lat="45.12616" lon="1.2879">
        <ele>164.9</ele>
        <time>2023-10-28T12:44:45Z</time>
      </trkpt>
      <trkpt lat="45.12616" lon="1.28791">
        <ele>165.1</ele>
        <time>2023-10-28T12:44:46Z</time>
      </trkpt>
      <trkpt lat="45.12615" lon="1.28792">
        <ele>165.4</ele>
        <time>2023-10-28T12:44:47Z</time>
      </trkpt>
      <trkpt lat="45.12614" lon="1.28793">
        <ele>165.7</ele>
        <time>2023-10-28T12:44:48Z</time>
      </trkpt>
      <trkpt lat="45.12614" lon="1.28793">
        <ele>166</ele>
        <time>2023-10-28T12:44:49Z</time>
      </trkpt>
      <trkpt lat="45.12613" lon="1.28793">
        <ele>166.4</ele>
        <time>2023-10-28T12:44:50Z</time>
      </trkpt>
      <trkpt lat="45.12611" lon="1.28793">
        <ele>166.7</ele>
        <time>2023-10-28T12:44:51Z</time>
      </trkpt>
      <trkpt lat="45.1261" lon="1.28793">
        <ele>167.1</ele>
        <time>2023-10-28T12:44:52Z</time>
      </trkpt>
      <trkpt lat="45.12609" lon="1.28793">
        <ele>167.6</ele>
        <time>2023-10-28T12:44:53Z</time>
      </trkpt>
      <trkpt lat="45.12608" lon="1.28792">
        <ele>168</ele>
        <time>2023-10-28T12:44:54Z</time>
      </trkpt>
      <trkpt lat="45.12607" lon="1.28792">
        <ele>168.3</ele>
        <time>2023-10-28T12:44:55Z</time>
      </trkpt>
      <trkpt lat="45.12606" lon="1.28791">
        <ele>168.6</ele>
        <time>2023-10-28T12:44:56Z</time>
      </trkpt>
      <trkpt lat="45.12605" lon="1.2879">
        <ele>168.8</ele>
        <time>2023-10-28T12:44:57Z</time>
      </trkpt>
      <trkpt lat="45.12604" lon="1.2879">
        <ele>169.2</ele>
        <time>2023-10-28T12:44:58Z</time>
      </trkpt>
      <trkpt lat="45.12603" lon="1.28789">
        <ele>169.5</ele>
        <time>2023-10-28T12:44:59Z</time>
      </trkpt>
      <trkpt lat="45.12603" lon="1.28788">
        <ele>169.8</ele>
        <time>2023-10-28T12:45:00Z</time>
      </trkpt>
      <trkpt lat="45.12602" lon="1.28788">
        <ele>170.2</ele>
        <time>2023-10-28T12:45:01Z</time>
      </trkpt>
      <trkpt lat="45.12601" lon="1.28787">
        <ele>170.5</ele>
        <time>2023-10-28T12:45:02Z</time>
      </trkpt>
      <trkpt lat="45.126" lon="1.28786">
        <ele>170.8</ele>
        <time>2023-10-28T12:45:03Z</time>
      </trkpt>
      <trkpt lat="45.12599" lon="1.28785">
        <ele>171</ele>
        <time>2023-10-28T12:45:04Z</time>
      </trkpt>
      <trkpt lat="45.12598" lon="1.28784">
        <ele>171.4</ele>
        <time>2023-10-28T12:45:05Z</time>
      </trkpt>
      <trkpt lat="45.12598" lon="1.28783">
        <ele>171.7</ele>
        <time>2023-10-28T12:45:06Z</time>
      </trkpt>
      <trkpt lat="45.12597" lon="1.28782">
        <ele>171.9</ele>
        <time>2023-10-28T12:45:07Z</time>
      </trkpt>
      <trkpt lat="45.12596" lon="1.28781">
        <ele>172.2</ele>
        <time>2023-10-28T12:45:08Z</time>
      </trkpt>
      <trkpt lat="45.12596" lon="1.2878">
        <ele>172.5</ele>
        <time>2023-10-28T12:45:09Z</time>
      </trkpt>
      <trkpt lat="45.12595" lon="1.28779">
        <ele>172.8</ele>
        <time>2023-10-28T12:45:10Z</time>
      </trkpt>
      <trkpt lat="45.12594" lon="1.28778">
        <ele>173.1</ele>
        <time>2023-10-28T12:45:11Z</time>
      </trkpt>
      <trkpt lat="45.12593" lon="1.28777">
        <ele>173.5</ele>
        <time>2023-10-28T12:45:12Z</time>
      </trkpt>
      <trkpt lat="45.12592" lon="1.28776">
        <ele>173.7</ele>
        <time>2023-10-28T12:45:13Z</time>
      </trkpt>
      <trkpt lat="45.12591" lon="1.28775">
        <ele>174</ele>
        <time>2023-10-28T12:45:14Z</time>
      </trkpt>
      <trkpt lat="45.1259" lon="1.28774">
        <ele>174.2</ele>
        <time>2023-10-28T12:45:15Z</time>
      </trkpt>
      <trkpt lat="45.1259" lon="1.28773">
        <ele>174.5</ele>
        <time>2023-10-28T12:45:16Z</time>
      </trkpt>
      <trkpt lat="45.12589" lon="1.28773">
        <ele>174.7</ele>
        <time>2023-10-28T12:45:17Z</time>
      </trkpt>
      <trkpt lat="45.12588" lon="1.28772">
        <ele>175.1</ele>
        <time>2023-10-28T12:45:18Z</time>
      </trkpt>
      <trkpt lat="45.12587" lon="1.28771">
        <ele>175.2</ele>
        <time>2023-10-28T12:45:19Z</time>
      </trkpt>
      <trkpt lat="45.12587" lon="1.2877">
        <ele>175.5</ele>
        <time>2023-10-28T12:45:20Z</time>
      </trkpt>
      <trkpt lat="45.12586" lon="1.28769">
        <ele>175.7</ele>
        <time>2023-10-28T12:45:21Z</time>
      </trkpt>
      <trkpt lat="45.12585" lon="1.28768">
        <ele>176</ele>
        <time>2023-10-28T12:45:22Z</time>
      </trkpt>
      <trkpt lat="45.12584" lon="1.28767">
        <ele>176.2</ele>
        <time>2023-10-28T12:45:23Z</time>
      </trkpt>
      <trkpt lat="45.12584" lon="1.28766">
        <ele>176.5</ele>
        <time>2023-10-28T12:45:24Z</time>
      </trkpt>
      <trkpt lat="45.12583" lon="1.28765">
        <ele>176.7</ele>
        <time>2023-10-28T12:45:25Z</time>
      </trkpt>
      <trkpt lat="45.12582" lon="1.28765">
        <ele>176.9</ele>
        <time>2023-10-28T12:45:26Z</time>
      </trkpt>
      <trkpt lat="45.12582" lon="1.28764">
        <ele>177.1</ele>
        <time>2023-10-28T12:45:27Z</time>
      </trkpt>
      <trkpt lat="45.12581" lon="1.28763">
        <ele>177.3</ele>
        <time>2023-10-28T12:45:28Z</time>
      </trkpt>
      <trkpt lat="45.1258" lon="1.28762">
        <ele>177.6</ele>
        <time>2023-10-28T12:45:29Z</time>
      </trkpt>
      <trkpt lat="45.12579" lon="1.28761">
        <ele>177.9</ele>
        <time>2023-10-28T12:45:30Z</time>
      </trkpt>
      <trkpt lat="45.12579" lon="1.2876">
        <ele>178.1</ele>
        <time>2023-10-28T12:45:31Z</time>
      </trkpt>
      <trkpt lat="45.12578" lon="1.28759">
        <ele>178.4</ele>
        <time>2023-10-28T12:45:32Z</time>
      </trkpt>
      <trkpt lat="45.12577" lon="1.28758">
        <ele>178.6</ele>
        <time>2023-10-28T12:45:33Z</time>
      </trkpt>
      <trkpt lat="45.12577" lon="1.28757">
        <ele>178.8</ele>
        <time>2023-10-28T12:45:34Z</time>
      </trkpt>
      <trkpt lat="45.12577" lon="1.28756">
        <ele>179</ele>
        <time>2023-10-28T12:45:35Z</time>
      </trkpt>
      <trkpt lat="45.12576" lon="1.28755">
        <ele>179.2</ele>
        <time>2023-10-28T12:45:36Z</time>
      </trkpt>
      <trkpt lat="45.12575" lon="1.28754">
        <ele>179.5</ele>
        <time>2023-10-28T12:45:37Z</time>
      </trkpt>
      <trkpt lat="45.12574" lon="1.28753">
        <ele>179.7</ele>
        <time>2023-10-28T12:45:38Z</time>
      </trkpt>
      <trkpt lat="45.12574" lon="1.28752">
        <ele>180</ele>
        <time>2023-10-28T12:45:39Z</time>
      </trkpt>
      <trkpt lat="45.12573" lon="1.28751">
        <ele>180.3</ele>
        <time>2023-10-28T12:45:40Z</time>
      </trkpt>
      <trkpt lat="45.12573" lon="1.2875">
        <ele>180.5</ele>
        <time>2023-10-28T12:45:41Z</time>
      </trkpt>
      <trkpt lat="45.12572" lon="1.28749">
        <ele>180.7</ele>
        <time>2023-10-28T12:45:42Z</time>
      </trkpt>
      <trkpt lat="45.12571" lon="1.28748">
        <ele>180.9</ele>
        <time>2023-10-28T12:45:43Z</time>
      </trkpt>
      <trkpt lat="45.12571" lon="1.28747">
        <ele>181.2</ele>
        <time>2023-10-28T12:45:44Z</time>
      </trkpt>
      <trkpt lat="45.1257" lon="1.28746">
        <ele>181.4</ele>
        <time>2023-10-28T12:45:45Z</time>
      </trkpt>
      <trkpt lat="45.12569" lon="1.28745">
        <ele>181.7</ele>
        <time>2023-10-28T12:45:46Z</time>
      </trkpt>
      <trkpt lat="45.12569" lon="1.28745">
        <ele>181.9</ele>
        <time>2023-10-28T12:45:47Z</time>
      </trkpt>
      <trkpt lat="45.12568" lon="1.28744">
        <ele>182.3</ele>
        <time>2023-10-28T12:45:48Z</time>
      </trkpt>
      <trkpt lat="45.12567" lon="1.28743">
        <ele>182.6</ele>
        <time>2023-10-28T12:45:49Z</time>
      </trkpt>
      <trkpt lat="45.12566" lon="1.28742">
        <ele>182.9</ele>
        <time>2023-10-28T12:45:50Z</time>
      </trkpt>
      <trkpt lat="45.12565" lon="1.28742">
        <ele>183.2</ele>
        <time>2023-10-28T12:45:51Z</time>
      </trkpt>
      <trkpt lat="45.12564" lon="1.28742">
        <ele>183.4</ele>
        <time>2023-10-28T12:45:52Z</time>
      </trkpt>
      <trkpt lat="45.12563" lon="1.28743">
        <ele>183.7</ele>
        <time>2023-10-28T12:45:53Z</time>
      </trkpt>
      <trkpt lat="45.12563" lon="1.28744">
        <ele>183.9</ele>
        <time>2023-10-28T12:45:54Z</time>
      </trkpt>
      <trkpt lat="45.12562" lon="1.28745">
        <ele>184.1</ele>
        <time>2023-10-28T12:45:55Z</time>
      </trkpt>
      <trkpt lat="45.12562" lon="1.28746">
        <ele>184.3</ele>
        <time>2023-10-28T12:45:56Z</time>
      </trkpt>
      <trkpt lat="45.12563" lon="1.28747">
        <ele>184.5</ele>
        <time>2023-10-28T12:45:57Z</time>
      </trkpt>
      <trkpt lat="45.12563" lon="1.28748">
        <ele>184.8</ele>
        <time>2023-10-28T12:45:58Z</time>
      </trkpt>
      <trkpt lat="45.12563" lon="1.2875">
        <ele>185.1</ele>
        <time>2023-10-28T12:45:59Z</time>
      </trkpt>
      <trkpt lat="45.12564" lon="1.28751">
        <ele>185.5</ele>
        <time>2023-10-28T12:46:00Z</time>
      </trkpt>
      <trkpt lat="45.12565" lon="1.28753">
        <ele>185.8</ele>
        <time>2023-10-28T12:46:01Z</time>
      </trkpt>
      <trkpt lat="45.12565" lon="1.28754">
        <ele>186</ele>
        <time>2023-10-28T12:46:02Z</time>
      </trkpt>
      <trkpt lat="45.12565" lon="1.28755">
        <ele>186.3</ele>
        <time>2023-10-28T12:46:03Z</time>
      </trkpt>
      <trkpt lat="45.12565" lon="1.28757">
        <ele>186.6</ele>
        <time>2023-10-28T12:46:04Z</time>
      </trkpt>
      <trkpt lat="45.12565" lon="1.28759">
        <ele>186.9</ele>
        <time>2023-10-28T12:46:05Z</time>
      </trkpt>
      <trkpt lat="45.12565" lon="1.2876">
        <ele>187.2</ele>
        <time>2023-10-28T12:46:06Z</time>
      </trkpt>
      <trkpt lat="45.12565" lon="1.28762">
        <ele>187.4</ele>
        <time>2023-10-28T12:46:07Z</time>
      </trkpt>
      <trkpt lat="45.12565" lon="1.28763">
        <ele>187.7</ele>
        <time>2023-10-28T12:46:08Z</time>
      </trkpt>
      <trkpt lat="45.12565" lon="1.28765">
        <ele>188</ele>
        <time>2023-10-28T12:46:09Z</time>
      </trkpt>
      <trkpt lat="45.12565" lon="1.28766">
        <ele>188.3</ele>
        <time>2023-10-28T12:46:10Z</time>
      </trkpt>
      <trkpt lat="45.12565" lon="1.28768">
        <ele>188.5</ele>
        <time>2023-10-28T12:46:11Z</time>
      </trkpt>
      <trkpt lat="45.12565" lon="1.28769">
        <ele>188.8</ele>
        <time>2023-10-28T12:46:12Z</time>
      </trkpt>
      <trkpt lat="45.12565" lon="1.2877">
        <ele>189</ele>
        <time>2023-10-28T12:46:13Z</time>
      </trkpt>
      <trkpt lat="45.12565" lon="1.28772">
        <ele>189.2</ele>
        <time>2023-10-28T12:46:14Z</time>
      </trkpt>
      <trkpt lat="45.12565" lon="1.28773">
        <ele>189.4</ele>
        <time>2023-10-28T12:46:15Z</time>
      </trkpt>
      <trkpt lat="45.12565" lon="1.28775">
        <ele>189.7</ele>
        <time>2023-10-28T12:46:16Z</time>
      </trkpt>
      <trkpt lat="45.12564" lon="1.28776">
        <ele>190</ele>
        <time>2023-10-28T12:46:17Z</time>
      </trkpt>
      <trkpt lat="45.12564" lon="1.28778">
        <ele>190.3</ele>
        <time>2023-10-28T12:46:18Z</time>
      </trkpt>
      <trkpt lat="45.12563" lon="1.28779">
        <ele>190.5</ele>
        <time>2023-10-28T12:46:19Z</time>
      </trkpt>
      <trkpt lat="45.12563" lon="1.28781">
        <ele>190.8</ele>
        <time>2023-10-28T12:46:20Z</time>
      </trkpt>
      <trkpt lat="45.12563" lon="1.28783">
        <ele>191.1</ele>
        <time>2023-10-28T12:46:21Z</time>
      </trkpt>
      <trkpt lat="45.12563" lon="1.28784">
        <ele>191.4</ele>
        <time>2023-10-28T12:46:22Z</time>
      </trkpt>
      <trkpt lat="45.12562" lon="1.28786">
        <ele>191.7</ele>
        <time>2023-10-28T12:46:23Z</time>
      </trkpt>
      <trkpt lat="45.12562" lon="1.28788">
        <ele>192.1</ele>
        <time>2023-10-28T12:46:24Z</time>
      </trkpt>
      <trkpt lat="45.12562" lon="1.2879">
        <ele>192.4</ele>
        <time>2023-10-28T12:46:25Z</time>
      </trkpt>
      <trkpt lat="45.12562" lon="1.28792">
        <ele>192.7</ele>
        <time>2023-10-28T12:46:26Z</time>
      </trkpt>
      <trkpt lat="45.12563" lon="1.28793">
        <ele>193</ele>
        <time>2023-10-28T12:46:27Z</time>
      </trkpt>
      <trkpt lat="45.12563" lon="1.28795">
        <ele>193.3</ele>
        <time>2023-10-28T12:46:28Z</time>
      </trkpt>
      <trkpt lat="45.12564" lon="1.28796">
        <ele>193.6</ele>
        <time>2023-10-28T12:46:29Z</time>
      </trkpt>
      <trkpt lat="45.12565" lon="1.28798">
        <ele>194</ele>
        <time>2023-10-28T12:46:30Z</time>
      </trkpt>
      <trkpt lat="45.12565" lon="1.28799">
        <ele>194.2</ele>
        <time>2023-10-28T12:46:31Z</time>
      </trkpt>
      <trkpt lat="45.12565" lon="1.288">
        <ele>194.4</ele>
        <time>2023-10-28T12:46:32Z</time>
      </trkpt>
      <trkpt lat="45.12565" lon="1.28801">
        <ele>194.5</ele>
        <time>2023-10-28T12:46:33Z</time>
      </trkpt>
      <trkpt lat="45.12565" lon="1.28801">
        <ele>194.7</ele>
        <time>2023-10-28T12:46:34Z</time>
      </trkpt>
      <trkpt lat="45.12563" lon="1.28801">
        <ele>195</ele>
        <time>2023-10-28T12:46:35Z</time>
      </trkpt>
      <trkpt lat="45.12562" lon="1.288">
        <ele>195.3</ele>
        <time>2023-10-28T12:46:36Z</time>
      </trkpt>
      <trkpt lat="45.12561" lon="1.288">
        <ele>195.6</ele>
        <time>2023-10-28T12:46:37Z</time>
      </trkpt>
      <trkpt lat="45.1256" lon="1.28799">
        <ele>195.9</ele>
        <time>2023-10-28T12:46:38Z</time>
      </trkpt>
      <trkpt lat="45.12559" lon="1.28798">
        <ele>196.2</ele>
        <time>2023-10-28T12:46:39Z</time>
      </trkpt>
      <trkpt lat="45.12558" lon="1.28797">
        <ele>196.5</ele>
        <time>2023-10-28T12:46:40Z</time>
      </trkpt>
      <trkpt lat="45.12557" lon="1.28797">
        <ele>196.8</ele>
        <time>2023-10-28T12:46:41Z</time>
      </trkpt>
      <trkpt lat="45.12556" lon="1.28796">
        <ele>197</ele>
        <time>2023-10-28T12:46:42Z</time>
      </trkpt>
      <trkpt lat="45.12555" lon="1.28795">
        <ele>197.3</ele>
        <time>2023-10-28T12:46:43Z</time>
      </trkpt>
      <trkpt lat="45.12555" lon="1.28794">
        <ele>197.6</ele>
        <time>2023-10-28T12:46:44Z</time>
      </trkpt>
      <trkpt lat="45.12554" lon="1.28793">
        <ele>197.8</ele>
        <time>2023-10-28T12:46:45Z</time>
      </trkpt>
      <trkpt lat="45.12554" lon="1.28792">
        <ele>197.9</ele>
        <time>2023-10-28T12:46:46Z</time>
      </trkpt>
      <trkpt lat="45.12553" lon="1.28791">
        <ele>198.2</ele>
        <time>2023-10-28T12:46:47Z</time>
      </trkpt>
      <trkpt lat="45.12553" lon="1.2879">
        <ele>198.4</ele>
        <time>2023-10-28T12:46:48Z</time>
      </trkpt>
      <trkpt lat="45.12552" lon="1.28789">
        <ele>198.5</ele>
        <time>2023-10-28T12:46:49Z</time>
      </trkpt>
      <trkpt lat="45.12552" lon="1.28788">
        <ele>198.8</ele>
        <time>2023-10-28T12:46:50Z</time>
      </trkpt>
      <trkpt lat="45.12551" lon="1.28786">
        <ele>199</ele>
        <time>2023-10-28T12:46:51Z</time>
      </trkpt>
      <trkpt lat="45.12551" lon="1.28785">
        <ele>199.3</ele>
        <time>2023-10-28T12:46:52Z</time>
      </trkpt>
      <trkpt lat="45.1255" lon="1.28783">
        <ele>199.5</ele>
        <time>2023-10-28T12:46:53Z</time>
      </trkpt>
      <trkpt lat="45.12549" lon="1.28782">
        <ele>199.8</ele>
        <time>2023-10-28T12:46:54Z</time>
      </trkpt>
      <trkpt lat="45.12549" lon="1.2878">
        <ele>200.1</ele>
        <time>2023-10-28T12:46:55Z</time>
      </trkpt>
      <trkpt lat="45.12548" lon="1.28779">
        <ele>200.3</ele>
        <time>2023-10-28T12:46:56Z</time>
      </trkpt>
      <trkpt lat="45.12548" lon="1.28777">
        <ele>200.6</ele>
        <time>2023-10-28T12:46:57Z</time>
      </trkpt>
      <trkpt lat="45.12547" lon="1.28776">
        <ele>200.8</ele>
        <time>2023-10-28T12:46:58Z</time>
      </trkpt>
      <trkpt lat="45.12547" lon="1.28775">
        <ele>201</ele>
        <time>2023-10-28T12:46:59Z</time>
      </trkpt>
      <trkpt lat="45.12546" lon="1.28774">
        <ele>201.2</ele>
        <time>2023-10-28T12:47:00Z</time>
      </trkpt>
      <trkpt lat="45.12546" lon="1.28773">
        <ele>201.4</ele>
        <time>2023-10-28T12:47:01Z</time>
      </trkpt>
      <trkpt lat="45.12545" lon="1.28771">
        <ele>201.6</ele>
        <time>2023-10-28T12:47:02Z</time>
      </trkpt>
      <trkpt lat="45.12545" lon="1.2877">
        <ele>201.8</ele>
        <time>2023-10-28T12:47:03Z</time>
      </trkpt>
      <trkpt lat="45.12544" lon="1.28768">
        <ele>202</ele>
        <time>2023-10-28T12:47:04Z</time>
      </trkpt>
      <trkpt lat="45.12544" lon="1.28767">
        <ele>202.3</ele>
        <time>2023-10-28T12:47:05Z</time>
      </trkpt>
      <trkpt lat="45.12543" lon="1.28766">
        <ele>202.5</ele>
        <time>2023-10-28T12:47:06Z</time>
      </trkpt>
      <trkpt lat="45.12542" lon="1.28764">
        <ele>202.7</ele>
        <time>2023-10-28T12:47:07Z</time>
      </trkpt>
      <trkpt lat="45.12541" lon="1.28763">
        <ele>203</ele>
        <time>2023-10-28T12:47:08Z</time>
      </trkpt>
      <trkpt lat="45.1254" lon="1.28762">
        <ele>203.3</ele>
        <time>2023-10-28T12:47:09Z</time>
      </trkpt>
      <trkpt lat="45.12539" lon="1.28761">
        <ele>203.5</ele>
        <time>2023-10-28T12:47:10Z</time>
      </trkpt>
      <trkpt lat="45.12538" lon="1.2876">
        <ele>203.7</ele>
        <time>2023-10-28T12:47:11Z</time>
      </trkpt>
      <trkpt lat="45.12537" lon="1.28759">
        <ele>203.9</ele>
        <time>2023-10-28T12:47:12Z</time>
      </trkpt>
      <trkpt lat="45.12536" lon="1.28758">
        <ele>204.2</ele>
        <time>2023-10-28T12:47:13Z</time>
      </trkpt>
      <trkpt lat="45.12535" lon="1.28757">
        <ele>204.4</ele>
        <time>2023-10-28T12:47:14Z</time>
      </trkpt>
      <trkpt lat="45.12534" lon="1.28756">
        <ele>204.7</ele>
        <time>2023-10-28T12:47:15Z</time>
      </trkpt>
      <trkpt lat="45.12533" lon="1.28754">
        <ele>205</ele>
        <time>2023-10-28T12:47:16Z</time>
      </trkpt>
      <trkpt lat="45.12532" lon="1.28753">
        <ele>205.2</ele>
        <time>2023-10-28T12:47:17Z</time>
      </trkpt>
      <trkpt lat="45.12531" lon="1.28752">
        <ele>205.5</ele>
        <time>2023-10-28T12:47:18Z</time>
      </trkpt>
      <trkpt lat="45.1253" lon="1.2875">
        <ele>205.8</ele>
        <time>2023-10-28T12:47:19Z</time>
      </trkpt>
      <trkpt lat="45.12529" lon="1.28749">
        <ele>206.1</ele>
        <time>2023-10-28T12:47:20Z</time>
      </trkpt>
      <trkpt lat="45.12528" lon="1.28747">
        <ele>206.4</ele>
        <time>2023-10-28T12:47:21Z</time>
      </trkpt>
      <trkpt lat="45.12527" lon="1.28746">
        <ele>206.6</ele>
        <time>2023-10-28T12:47:22Z</time>
      </trkpt>
      <trkpt lat="45.12526" lon="1.28744">
        <ele>206.9</ele>
        <time>2023-10-28T12:47:23Z</time>
      </trkpt>
      <trkpt lat="45.12525" lon="1.28743">
        <ele>207.2</ele>
        <time>2023-10-28T12:47:24Z</time>
      </trkpt>
      <trkpt lat="45.12524" lon="1.28741">
        <ele>207.5</ele>
        <time>2023-10-28T12:47:25Z</time>
      </trkpt>
      <trkpt lat="45.12523" lon="1.2874">
        <ele>207.7</ele>
        <time>2023-10-28T12:47:26Z</time>
      </trkpt>
      <trkpt lat="45.12522" lon="1.28739">
        <ele>208</ele>
        <time>2023-10-28T12:47:27Z</time>
      </trkpt>
      <trkpt lat="45.12521" lon="1.28738">
        <ele>208.2</ele>
        <time>2023-10-28T12:47:28Z</time>
      </trkpt>
      <trkpt lat="45.1252" lon="1.28737">
        <ele>208.4</ele>
        <time>2023-10-28T12:47:29Z</time>
      </trkpt>
      <trkpt lat="45.1252" lon="1.28736">
        <ele>208.5</ele>
        <time>2023-10-28T12:47:30Z</time>
      </trkpt>
      <trkpt lat="45.12519" lon="1.28736">
        <ele>208.7</ele>
        <time>2023-10-28T12:47:31Z</time>
      </trkpt>
      <trkpt lat="45.12518" lon="1.28734">
        <ele>208.9</ele>
        <time>2023-10-28T12:47:32Z</time>
      </trkpt>
      <trkpt lat="45.12518" lon="1.28733">
        <ele>209.1</ele>
        <time>2023-10-28T12:47:33Z</time>
      </trkpt>
      <trkpt lat="45.12517" lon="1.28731">
        <ele>209.4</ele>
        <time>2023-10-28T12:47:34Z</time>
      </trkpt>
      <trkpt lat="45.12516" lon="1.2873">
        <ele>209.7</ele>
        <time>2023-10-28T12:47:35Z</time>
      </trkpt>
      <trkpt lat="45.12516" lon="1.28728">
        <ele>209.9</ele>
        <time>2023-10-28T12:47:36Z</time>
      </trkpt>
      <trkpt lat="45.12515" lon="1.28727">
        <ele>210.2</ele>
        <time>2023-10-28T12:47:37Z</time>
      </trkpt>
      <trkpt lat="45.12515" lon="1.28725">
        <ele>210.4</ele>
        <time>2023-10-28T12:47:38Z</time>
      </trkpt>
      <trkpt lat="45.12514" lon="1.28723">
        <ele>210.7</ele>
        <time>2023-10-28T12:47:39Z</time>
      </trkpt>
      <trkpt lat="45.12513" lon="1.28721">
        <ele>211</ele>
        <time>2023-10-28T12:47:40Z</time>
      </trkpt>
      <trkpt lat="45.12512" lon="1.2872">
        <ele>211.4</ele>
        <time>2023-10-28T12:47:41Z</time>
      </trkpt>
      <trkpt lat="45.12511" lon="1.28718">
        <ele>211.7</ele>
        <time>2023-10-28T12:47:42Z</time>
      </trkpt>
      <trkpt lat="45.1251" lon="1.28716">
        <ele>212</ele>
        <time>2023-10-28T12:47:43Z</time>
      </trkpt>
      <trkpt lat="45.12509" lon="1.28714">
        <ele>212.3</ele>
        <time>2023-10-28T12:47:44Z</time>
      </trkpt>
      <trkpt lat="45.12508" lon="1.28713">
        <ele>212.6</ele>
        <time>2023-10-28T12:47:45Z</time>
      </trkpt>
      <trkpt lat="45.12508" lon="1.28712">
        <ele>212.8</ele>
        <time>2023-10-28T12:47:46Z</time>
      </trkpt>
      <trkpt lat="45.12508" lon="1.2871">
        <ele>212.9</ele>
        <time>2023-10-28T12:47:47Z</time>
      </trkpt>
      <trkpt lat="45.12507" lon="1.28709">
        <ele>213.1</ele>
        <time>2023-10-28T12:47:48Z</time>
      </trkpt>
      <trkpt lat="45.12507" lon="1.28708">
        <ele>213.3</ele>
        <time>2023-10-28T12:47:49Z</time>
      </trkpt>
      <trkpt lat="45.12507" lon="1.28707">
        <ele>213.4</ele>
        <time>2023-10-28T12:47:50Z</time>
      </trkpt>
      <trkpt lat="45.12507" lon="1.28707">
        <ele>213.5</ele>
        <time>2023-10-28T12:47:51Z</time>
      </trkpt>
      <trkpt lat="45.12507" lon="1.28706">
        <ele>213.6</ele>
        <time>2023-10-28T12:47:52Z</time>
      </trkpt>
      <trkpt lat="45.12506" lon="1.28705">
        <ele>213.7</ele>
        <time>2023-10-28T12:47:53Z</time>
      </trkpt>
      <trkpt lat="45.12505" lon="1.28704">
        <ele>213.9</ele>
        <time>2023-10-28T12:47:54Z</time>
      </trkpt>
      <trkpt lat="45.12505" lon="1.28702">
        <ele>214.1</ele>
        <time>2023-10-28T12:47:55Z</time>
      </trkpt>
      <trkpt lat="45.12504" lon="1.28701">
        <ele>214.3</ele>
        <time>2023-10-28T12:47:56Z</time>
      </trkpt>
      <trkpt lat="45.12503" lon="1.287">
        <ele>214.5</ele>
        <time>2023-10-28T12:47:57Z</time>
      </trkpt>
      <trkpt lat="45.12502" lon="1.28699">
        <ele>214.7</ele>
        <time>2023-10-28T12:47:58Z</time>
      </trkpt>
      <trkpt lat="45.125" lon="1.28698">
        <ele>214.8</ele>
        <time>2023-10-28T12:47:59Z</time>
      </trkpt>
      <trkpt lat="45.12499" lon="1.28697">
        <ele>215</ele>
        <time>2023-10-28T12:48:00Z</time>
      </trkpt>
      <trkpt lat="45.12497" lon="1.28696">
        <ele>215.2</ele>
        <time>2023-10-28T12:48:01Z</time>
      </trkpt>
      <trkpt lat="45.12496" lon="1.28695">
        <ele>215.3</ele>
        <time>2023-10-28T12:48:02Z</time>
      </trkpt>
      <trkpt lat="45.12494" lon="1.28695">
        <ele>215.5</ele>
        <time>2023-10-28T12:48:03Z</time>
      </trkpt>
      <trkpt lat="45.12492" lon="1.28694">
        <ele>215.6</ele>
        <time>2023-10-28T12:48:04Z</time>
      </trkpt>
      <trkpt lat="45.1249" lon="1.28694">
        <ele>215.7</ele>
        <time>2023-10-28T12:48:05Z</time>
      </trkpt>
      <trkpt lat="45.12488" lon="1.28694">
        <ele>215.8</ele>
        <time>2023-10-28T12:48:06Z</time>
      </trkpt>
      <trkpt lat="45.12486" lon="1.28695">
        <ele>215.9</ele>
        <time>2023-10-28T12:48:07Z</time>
      </trkpt>
      <trkpt lat="45.12484" lon="1.28695">
        <ele>215.9</ele>
        <time>2023-10-28T12:48:08Z</time>
      </trkpt>
      <trkpt lat="45.12481" lon="1.28696">
        <ele>216</ele>
        <time>2023-10-28T12:48:09Z</time>
      </trkpt>
      <trkpt lat="45.12479" lon="1.28696">
        <ele>216.1</ele>
        <time>2023-10-28T12:48:10Z</time>
      </trkpt>
      <trkpt lat="45.12478" lon="1.28697">
        <ele>216.1</ele>
        <time>2023-10-28T12:48:11Z</time>
      </trkpt>
      <trkpt lat="45.12476" lon="1.28698">
        <ele>216.2</ele>
        <time>2023-10-28T12:48:12Z</time>
      </trkpt>
      <trkpt lat="45.12474" lon="1.28699">
        <ele>216.2</ele>
        <time>2023-10-28T12:48:13Z</time>
      </trkpt>
      <trkpt lat="45.12473" lon="1.287">
        <ele>216.3</ele>
        <time>2023-10-28T12:48:14Z</time>
      </trkpt>
      <trkpt lat="45.12471" lon="1.28701">
        <ele>216.4</ele>
        <time>2023-10-28T12:48:15Z</time>
      </trkpt>
      <trkpt lat="45.1247" lon="1.28702">
        <ele>216.5</ele>
        <time>2023-10-28T12:48:16Z</time>
      </trkpt>
      <trkpt lat="45.12469" lon="1.28702">
        <ele>216.5</ele>
        <time>2023-10-28T12:48:17Z</time>
      </trkpt>
      <trkpt lat="45.12468" lon="1.28703">
        <ele>216.6</ele>
        <time>2023-10-28T12:48:18Z</time>
      </trkpt>
      <trkpt lat="45.12466" lon="1.28704">
        <ele>216.7</ele>
        <time>2023-10-28T12:48:19Z</time>
      </trkpt>
      <trkpt lat="45.12466" lon="1.28705">
        <ele>216.8</ele>
        <time>2023-10-28T12:48:20Z</time>
      </trkpt>
      <trkpt lat="45.12465" lon="1.28706">
        <ele>216.8</ele>
        <time>2023-10-28T12:48:21Z</time>
      </trkpt>
      <trkpt lat="45.12463" lon="1.28708">
        <ele>216.9</ele>
        <time>2023-10-28T12:48:22Z</time>
      </trkpt>
      <trkpt lat="45.12462" lon="1.28709">
        <ele>217.1</ele>
        <time>2023-10-28T12:48:23Z</time>
      </trkpt>
      <trkpt lat="45.12461" lon="1.28711">
        <ele>217.2</ele>
        <time>2023-10-28T12:48:24Z</time>
      </trkpt>
      <trkpt lat="45.12459" lon="1.28712">
        <ele>217.3</ele>
        <time>2023-10-28T12:48:25Z</time>
      </trkpt>
      <trkpt lat="45.12457" lon="1.28714">
        <ele>217.4</ele>
        <time>2023-10-28T12:48:26Z</time>
      </trkpt>
      <trkpt lat="45.12456" lon="1.28716">
        <ele>217.5</ele>
        <time>2023-10-28T12:48:27Z</time>
      </trkpt>
      <trkpt lat="45.12454" lon="1.28718">
        <ele>217.5</ele>
        <time>2023-10-28T12:48:28Z</time>
      </trkpt>
      <trkpt lat="45.12452" lon="1.2872">
        <ele>217.6</ele>
        <time>2023-10-28T12:48:29Z</time>
      </trkpt>
      <trkpt lat="45.1245" lon="1.28722">
        <ele>217.6</ele>
        <time>2023-10-28T12:48:30Z</time>
      </trkpt>
      <trkpt lat="45.12448" lon="1.28724">
        <ele>217.6</ele>
        <time>2023-10-28T12:48:31Z</time>
      </trkpt>
      <trkpt lat="45.12445" lon="1.28727">
        <ele>217.6</ele>
        <time>2023-10-28T12:48:32Z</time>
      </trkpt>
      <trkpt lat="45.12443" lon="1.28729">
        <ele>217.6</ele>
        <time>2023-10-28T12:48:33Z</time>
      </trkpt>
      <trkpt lat="45.1244" lon="1.28731">
        <ele>217.5</ele>
        <time>2023-10-28T12:48:34Z</time>
      </trkpt>
      <trkpt lat="45.12437" lon="1.28733">
        <ele>217.5</ele>
        <time>2023-10-28T12:48:35Z</time>
      </trkpt>
      <trkpt lat="45.12435" lon="1.28735">
        <ele>217.4</ele>
        <time>2023-10-28T12:48:36Z</time>
      </trkpt>
      <trkpt lat="45.12432" lon="1.28737">
        <ele>217.4</ele>
        <time>2023-10-28T12:48:37Z</time>
      </trkpt>
      <trkpt lat="45.1243" lon="1.28738">
        <ele>217.4</ele>
        <time>2023-10-28T12:48:38Z</time>
      </trkpt>
      <trkpt lat="45.12428" lon="1.2874">
        <ele>217.3</ele>
        <time>2023-10-28T12:48:39Z</time>
      </trkpt>
      <trkpt lat="45.12425" lon="1.28742">
        <ele>217.3</ele>
        <time>2023-10-28T12:48:40Z</time>
      </trkpt>
      <trkpt lat="45.12423" lon="1.28744">
        <ele>217.3</ele>
        <time>2023-10-28T12:48:41Z</time>
      </trkpt>
      <trkpt lat="45.12421" lon="1.28746">
        <ele>217.3</ele>
        <time>2023-10-28T12:48:42Z</time>
      </trkpt>
      <trkpt lat="45.1242" lon="1.28748">
        <ele>217.2</ele>
        <time>2023-10-28T12:48:43Z</time>
      </trkpt>
      <trkpt lat="45.12418" lon="1.2875">
        <ele>217.2</ele>
        <time>2023-10-28T12:48:44Z</time>
      </trkpt>
      <trkpt lat="45.12415" lon="1.28752">
        <ele>217.2</ele>
        <time>2023-10-28T12:48:45Z</time>
      </trkpt>
      <trkpt lat="45.12413" lon="1.28754">
        <ele>217.2</ele>
        <time>2023-10-28T12:48:46Z</time>
      </trkpt>
      <trkpt lat="45.12411" lon="1.28756">
        <ele>217.3</ele>
        <time>2023-10-28T12:48:47Z</time>
      </trkpt>
      <trkpt lat="45.12409" lon="1.28758">
        <ele>217.3</ele>
        <time>2023-10-28T12:48:48Z</time>
      </trkpt>
      <trkpt lat="45.12407" lon="1.28759">
        <ele>217.4</ele>
        <time>2023-10-28T12:48:49Z</time>
      </trkpt>
      <trkpt lat="45.12405" lon="1.28761">
        <ele>217.4</ele>
        <time>2023-10-28T12:48:50Z</time>
      </trkpt>
      <trkpt lat="45.12403" lon="1.28762">
        <ele>217.5</ele>
        <time>2023-10-28T12:48:51Z</time>
      </trkpt>
      <trkpt lat="45.12401" lon="1.28763">
        <ele>217.5</ele>
        <time>2023-10-28T12:48:52Z</time>
      </trkpt>
      <trkpt lat="45.12399" lon="1.28764">
        <ele>217.6</ele>
        <time>2023-10-28T12:48:53Z</time>
      </trkpt>
      <trkpt lat="45.12397" lon="1.28765">
        <ele>217.7</ele>
        <time>2023-10-28T12:48:54Z</time>
      </trkpt>
      <trkpt lat="45.12396" lon="1.28766">
        <ele>217.8</ele>
        <time>2023-10-28T12:48:55Z</time>
      </trkpt>
      <trkpt lat="45.12394" lon="1.28768">
        <ele>217.9</ele>
        <time>2023-10-28T12:48:56Z</time>
      </trkpt>
      <trkpt lat="45.12392" lon="1.28769">
        <ele>218</ele>
        <time>2023-10-28T12:48:57Z</time>
      </trkpt>
      <trkpt lat="45.12391" lon="1.28772">
        <ele>218.1</ele>
        <time>2023-10-28T12:48:58Z</time>
      </trkpt>
      <trkpt lat="45.12389" lon="1.28774">
        <ele>218.2</ele>
        <time>2023-10-28T12:48:59Z</time>
      </trkpt>
      <trkpt lat="45.12387" lon="1.28776">
        <ele>218.3</ele>
        <time>2023-10-28T12:49:00Z</time>
      </trkpt>
      <trkpt lat="45.12386" lon="1.28778">
        <ele>218.5</ele>
        <time>2023-10-28T12:49:01Z</time>
      </trkpt>
      <trkpt lat="45.12384" lon="1.28781">
        <ele>218.6</ele>
        <time>2023-10-28T12:49:02Z</time>
      </trkpt>
      <trkpt lat="45.12382" lon="1.28783">
        <ele>218.8</ele>
        <time>2023-10-28T12:49:03Z</time>
      </trkpt>
      <trkpt lat="45.1238" lon="1.28785">
        <ele>219</ele>
        <time>2023-10-28T12:49:04Z</time>
      </trkpt>
      <trkpt lat="45.12378" lon="1.28788">
        <ele>219.2</ele>
        <time>2023-10-28T12:49:05Z</time>
      </trkpt>
      <trkpt lat="45.12377" lon="1.2879">
        <ele>219.3</ele>
        <time>2023-10-28T12:49:06Z</time>
      </trkpt>
      <trkpt lat="45.12375" lon="1.28793">
        <ele>219.5</ele>
        <time>2023-10-28T12:49:07Z</time>
      </trkpt>
      <trkpt lat="45.12373" lon="1.28795">
        <ele>219.7</ele>
        <time>2023-10-28T12:49:08Z</time>
      </trkpt>
      <trkpt lat="45.12372" lon="1.28798">
        <ele>219.9</ele>
        <time>2023-10-28T12:49:09Z</time>
      </trkpt>
      <trkpt lat="45.1237" lon="1.288">
        <ele>220.1</ele>
        <time>2023-10-28T12:49:10Z</time>
      </trkpt>
      <trkpt lat="45.12368" lon="1.28801">
        <ele>220.3</ele>
        <time>2023-10-28T12:49:11Z</time>
      </trkpt>
      <trkpt lat="45.12367" lon="1.28803">
        <ele>220.5</ele>
        <time>2023-10-28T12:49:12Z</time>
      </trkpt>
      <trkpt lat="45.12365" lon="1.28804">
        <ele>220.6</ele>
        <time>2023-10-28T12:49:13Z</time>
      </trkpt>
      <trkpt lat="45.12362" lon="1.28804">
        <ele>220.8</ele>
        <time>2023-10-28T12:49:14Z</time>
      </trkpt>
      <trkpt lat="45.1236" lon="1.28805">
        <ele>220.9</ele>
        <time>2023-10-28T12:49:15Z</time>
      </trkpt>
      <trkpt lat="45.12358" lon="1.28805">
        <ele>221.1</ele>
        <time>2023-10-28T12:49:16Z</time>
      </trkpt>
      <trkpt lat="45.12355" lon="1.28805">
        <ele>221.2</ele>
        <time>2023-10-28T12:49:17Z</time>
      </trkpt>
      <trkpt lat="45.12353" lon="1.28806">
        <ele>221.3</ele>
        <time>2023-10-28T12:49:18Z</time>
      </trkpt>
      <trkpt lat="45.12351" lon="1.28806">
        <ele>221.4</ele>
        <time>2023-10-28T12:49:19Z</time>
      </trkpt>
      <trkpt lat="45.12349" lon="1.28807">
        <ele>221.4</ele>
        <time>2023-10-28T12:49:20Z</time>
      </trkpt>
      <trkpt lat="45.12347" lon="1.28809">
        <ele>221.5</ele>
        <time>2023-10-28T12:49:21Z</time>
      </trkpt>
      <trkpt lat="45.12345" lon="1.2881">
        <ele>221.6</ele>
        <time>2023-10-28T12:49:22Z</time>
      </trkpt>
      <trkpt lat="45.12343" lon="1.28812">
        <ele>221.6</ele>
        <time>2023-10-28T12:49:23Z</time>
      </trkpt>
      <trkpt lat="45.12341" lon="1.28814">
        <ele>221.6</ele>
        <time>2023-10-28T12:49:24Z</time>
      </trkpt>
      <trkpt lat="45.12339" lon="1.28816">
        <ele>221.6</ele>
        <time>2023-10-28T12:49:25Z</time>
      </trkpt>
      <trkpt lat="45.12336" lon="1.28817">
        <ele>221.6</ele>
        <time>2023-10-28T12:49:26Z</time>
      </trkpt>
      <trkpt lat="45.12334" lon="1.28818">
        <ele>221.7</ele>
        <time>2023-10-28T12:49:27Z</time>
      </trkpt>
      <trkpt lat="45.12332" lon="1.28818">
        <ele>221.7</ele>
        <time>2023-10-28T12:49:28Z</time>
      </trkpt>
      <trkpt lat="45.12331" lon="1.28818">
        <ele>221.7</ele>
        <time>2023-10-28T12:49:29Z</time>
      </trkpt>
      <trkpt lat="45.1233" lon="1.28818">
        <ele>221.7</ele>
        <time>2023-10-28T12:49:30Z</time>
      </trkpt>
      <trkpt lat="45.1233" lon="1.28818">
        <ele>221.7</ele>
        <time>2023-10-28T12:49:31Z</time>
      </trkpt>
      <trkpt lat="45.1233" lon="1.28819">
        <ele>221.7</ele>
        <time>2023-10-28T12:49:32Z</time>
      </trkpt>
      <trkpt lat="45.12331" lon="1.2882">
        <ele>221.8</ele>
        <time>2023-10-28T12:49:33Z</time>
      </trkpt>
      <trkpt lat="45.12332" lon="1.28821">
        <ele>221.8</ele>
        <time>2023-10-28T12:49:34Z</time>
      </trkpt>
      <trkpt lat="45.12333" lon="1.28822">
        <ele>221.9</ele>
        <time>2023-10-28T12:49:35Z</time>
      </trkpt>
      <trkpt lat="45.12333" lon="1.28822">
        <ele>221.9</ele>
        <time>2023-10-28T12:49:36Z</time>
      </trkpt>
      <trkpt lat="45.12334" lon="1.28823">
        <ele>221.9</ele>
        <time>2023-10-28T12:49:37Z</time>
      </trkpt>
      <trkpt lat="45.12334" lon="1.28823">
        <ele>221.9</ele>
        <time>2023-10-28T12:49:38Z</time>
      </trkpt>
      <trkpt lat="45.12334" lon="1.28823">
        <ele>222</ele>
        <time>2023-10-28T12:49:39Z</time>
      </trkpt>
      <trkpt lat="45.12335" lon="1.28824">
        <ele>222</ele>
        <time>2023-10-28T12:49:40Z</time>
      </trkpt>
      <trkpt lat="45.12335" lon="1.28824">
        <ele>222</ele>
        <time>2023-10-28T12:49:41Z</time>
      </trkpt>
      <trkpt lat="45.12336" lon="1.28824">
        <ele>222</ele>
        <time>2023-10-28T12:49:42Z</time>
      </trkpt>
      <trkpt lat="45.12336" lon="1.28822">
        <ele>222.1</ele>
        <time>2023-10-28T12:49:43Z</time>
      </trkpt>
      <trkpt lat="45.12336" lon="1.28821">
        <ele>222.1</ele>
        <time>2023-10-28T12:49:44Z</time>
      </trkpt>
      <trkpt lat="45.12336" lon="1.28819">
        <ele>222.2</ele>
        <time>2023-10-28T12:49:45Z</time>
      </trkpt>
      <trkpt lat="45.12336" lon="1.28816">
        <ele>222.2</ele>
        <time>2023-10-28T12:49:46Z</time>
      </trkpt>
      <trkpt lat="45.12337" lon="1.28813">
        <ele>222.3</ele>
        <time>2023-10-28T12:49:47Z</time>
      </trkpt>
      <trkpt lat="45.12337" lon="1.2881">
        <ele>222.3</ele>
        <time>2023-10-28T12:49:48Z</time>
      </trkpt>
      <trkpt lat="45.12337" lon="1.28807">
        <ele>222.4</ele>
        <time>2023-10-28T12:49:49Z</time>
      </trkpt>
      <trkpt lat="45.12338" lon="1.28803">
        <ele>222.4</ele>
        <time>2023-10-28T12:49:50Z</time>
      </trkpt>
      <trkpt lat="45.12338" lon="1.288">
        <ele>222.4</ele>
        <time>2023-10-28T12:49:51Z</time>
      </trkpt>
      <trkpt lat="45.12338" lon="1.28797">
        <ele>222.4</ele>
        <time>2023-10-28T12:49:52Z</time>
      </trkpt>
      <trkpt lat="45.12339" lon="1.28793">
        <ele>222.4</ele>
        <time>2023-10-28T12:49:53Z</time>
      </trkpt>
      <trkpt lat="45.12339" lon="1.2879">
        <ele>222.3</ele>
        <time>2023-10-28T12:49:54Z</time>
      </trkpt>
      <trkpt lat="45.12339" lon="1.28786">
        <ele>222.3</ele>
        <time>2023-10-28T12:49:55Z</time>
      </trkpt>
      <trkpt lat="45.12339" lon="1.28783">
        <ele>222.2</ele>
        <time>2023-10-28T12:49:56Z</time>
      </trkpt>
      <trkpt lat="45.12339" lon="1.2878">
        <ele>222.1</ele>
        <time>2023-10-28T12:49:57Z</time>
      </trkpt>
      <trkpt lat="45.12339" lon="1.28776">
        <ele>222.1</ele>
        <time>2023-10-28T12:49:58Z</time>
      </trkpt>
      <trkpt lat="45.12339" lon="1.28773">
        <ele>222</ele>
        <time>2023-10-28T12:49:59Z</time>
      </trkpt>
      <trkpt lat="45.12339" lon="1.28769">
        <ele>221.9</ele>
        <time>2023-10-28T12:50:00Z</time>
      </trkpt>
      <trkpt lat="45.12339" lon="1.28766">
        <ele>221.8</ele>
        <time>2023-10-28T12:50:01Z</time>
      </trkpt>
      <trkpt lat="45.12338" lon="1.28762">
        <ele>221.8</ele>
        <time>2023-10-28T12:50:02Z</time>
      </trkpt>
      <trkpt lat="45.12338" lon="1.28758">
        <ele>221.7</ele>
        <time>2023-10-28T12:50:03Z</time>
      </trkpt>
      <trkpt lat="45.12337" lon="1.28755">
        <ele>221.6</ele>
        <time>2023-10-28T12:50:04Z</time>
      </trkpt>
      <trkpt lat="45.12336" lon="1.28751">
        <ele>221.6</ele>
        <time>2023-10-28T12:50:05Z</time>
      </trkpt>
      <trkpt lat="45.12336" lon="1.28748">
        <ele>221.5</ele>
        <time>2023-10-28T12:50:06Z</time>
      </trkpt>
      <trkpt lat="45.12335" lon="1.28744">
        <ele>221.5</ele>
        <time>2023-10-28T12:50:07Z</time>
      </trkpt>
      <trkpt lat="45.12335" lon="1.28741">
        <ele>221.5</ele>
        <time>2023-10-28T12:50:08Z</time>
      </trkpt>
      <trkpt lat="45.12334" lon="1.28737">
        <ele>221.4</ele>
        <time>2023-10-28T12:50:09Z</time>
      </trkpt>
      <trkpt lat="45.12334" lon="1.28733">
        <ele>221.4</ele>
        <time>2023-10-28T12:50:10Z</time>
      </trkpt>
      <trkpt lat="45.12334" lon="1.28729">
        <ele>221.4</ele>
        <time>2023-10-28T12:50:11Z</time>
      </trkpt>
      <trkpt lat="45.12334" lon="1.28725">
        <ele>221.5</ele>
        <time>2023-10-28T12:50:12Z</time>
      </trkpt>
      <trkpt lat="45.12334" lon="1.28722">
        <ele>221.5</ele>
        <time>2023-10-28T12:50:13Z</time>
      </trkpt>
      <trkpt lat="45.12334" lon="1.28718">
        <ele>221.6</ele>
        <time>2023-10-28T12:50:14Z</time>
      </trkpt>
      <trkpt lat="45.12334" lon="1.28715">
        <ele>221.6</ele>
        <time>2023-10-28T12:50:15Z</time>
      </trkpt>
      <trkpt lat="45.12334" lon="1.28711">
        <ele>221.7</ele>
        <time>2023-10-28T12:50:16Z</time>
      </trkpt>
      <trkpt lat="45.12334" lon="1.28708">
        <ele>221.8</ele>
        <time>2023-10-28T12:50:17Z</time>
      </trkpt>
      <trkpt lat="45.12334" lon="1.28705">
        <ele>222</ele>
        <time>2023-10-28T12:50:18Z</time>
      </trkpt>
      <trkpt lat="45.12334" lon="1.28702">
        <ele>222.1</ele>
        <time>2023-10-28T12:50:19Z</time>
      </trkpt>
      <trkpt lat="45.12334" lon="1.28698">
        <ele>222.3</ele>
        <time>2023-10-28T12:50:20Z</time>
      </trkpt>
      <trkpt lat="45.12333" lon="1.28695">
        <ele>222.5</ele>
        <time>2023-10-28T12:50:21Z</time>
      </trkpt>
      <trkpt lat="45.12333" lon="1.28692">
        <ele>222.7</ele>
        <time>2023-10-28T12:50:22Z</time>
      </trkpt>
      <trkpt lat="45.12333" lon="1.28689">
        <ele>222.9</ele>
        <time>2023-10-28T12:50:23Z</time>
      </trkpt>
      <trkpt lat="45.12333" lon="1.28687">
        <ele>223.2</ele>
        <time>2023-10-28T12:50:24Z</time>
      </trkpt>
      <trkpt lat="45.12332" lon="1.28684">
        <ele>223.4</ele>
        <time>2023-10-28T12:50:25Z</time>
      </trkpt>
      <trkpt lat="45.12332" lon="1.28682">
        <ele>223.6</ele>
        <time>2023-10-28T12:50:26Z</time>
      </trkpt>
      <trkpt lat="45.12331" lon="1.28679">
        <ele>223.8</ele>
        <time>2023-10-28T12:50:27Z</time>
      </trkpt>
      <trkpt lat="45.12331" lon="1.28677">
        <ele>224</ele>
        <time>2023-10-28T12:50:28Z</time>
      </trkpt>
      <trkpt lat="45.12331" lon="1.28675">
        <ele>224.2</ele>
        <time>2023-10-28T12:50:29Z</time>
      </trkpt>
      <trkpt lat="45.1233" lon="1.28673">
        <ele>224.4</ele>
        <time>2023-10-28T12:50:30Z</time>
      </trkpt>
      <trkpt lat="45.1233" lon="1.28671">
        <ele>224.6</ele>
        <time>2023-10-28T12:50:31Z</time>
      </trkpt>
      <trkpt lat="45.12329" lon="1.28669">
        <ele>224.8</ele>
        <time>2023-10-28T12:50:32Z</time>
      </trkpt>
      <trkpt lat="45.12328" lon="1.28667">
        <ele>225.1</ele>
        <time>2023-10-28T12:50:33Z</time>
      </trkpt>
      <trkpt lat="45.12327" lon="1.28665">
        <ele>225.3</ele>
        <time>2023-10-28T12:50:34Z</time>
      </trkpt>
      <trkpt lat="45.12327" lon="1.28662">
        <ele>225.6</ele>
        <time>2023-10-28T12:50:35Z</time>
      </trkpt>
      <trkpt lat="45.12326" lon="1.2866">
        <ele>225.8</ele>
        <time>2023-10-28T12:50:36Z</time>
      </trkpt>
      <trkpt lat="45.12326" lon="1.28657">
        <ele>226</ele>
        <time>2023-10-28T12:50:37Z</time>
      </trkpt>
      <trkpt lat="45.12326" lon="1.28655">
        <ele>226.2</ele>
        <time>2023-10-28T12:50:38Z</time>
      </trkpt>
      <trkpt lat="45.12326" lon="1.28652">
        <ele>226.4</ele>
        <time>2023-10-28T12:50:39Z</time>
      </trkpt>
      <trkpt lat="45.12326" lon="1.2865">
        <ele>226.6</ele>
        <time>2023-10-28T12:50:40Z</time>
      </trkpt>
      <trkpt lat="45.12326" lon="1.28647">
        <ele>226.8</ele>
        <time>2023-10-28T12:50:41Z</time>
      </trkpt>
      <trkpt lat="45.12326" lon="1.28644">
        <ele>227</ele>
        <time>2023-10-28T12:50:42Z</time>
      </trkpt>
      <trkpt lat="45.12326" lon="1.28642">
        <ele>227.2</ele>
        <time>2023-10-28T12:50:43Z</time>
      </trkpt>
      <trkpt lat="45.12327" lon="1.2864">
        <ele>227.4</ele>
        <time>2023-10-28T12:50:44Z</time>
      </trkpt>
      <trkpt lat="45.12327" lon="1.28637">
        <ele>227.6</ele>
        <time>2023-10-28T12:50:45Z</time>
      </trkpt>
      <trkpt lat="45.12327" lon="1.28634">
        <ele>227.7</ele>
        <time>2023-10-28T12:50:46Z</time>
      </trkpt>
      <trkpt lat="45.12328" lon="1.28632">
        <ele>227.9</ele>
        <time>2023-10-28T12:50:47Z</time>
      </trkpt>
      <trkpt lat="45.12328" lon="1.28629">
        <ele>228.1</ele>
        <time>2023-10-28T12:50:48Z</time>
      </trkpt>
      <trkpt lat="45.12328" lon="1.28626">
        <ele>228.3</ele>
        <time>2023-10-28T12:50:49Z</time>
      </trkpt>
      <trkpt lat="45.12327" lon="1.28623">
        <ele>228.4</ele>
        <time>2023-10-28T12:50:50Z</time>
      </trkpt>
      <trkpt lat="45.12327" lon="1.2862">
        <ele>228.6</ele>
        <time>2023-10-28T12:50:51Z</time>
      </trkpt>
      <trkpt lat="45.12327" lon="1.28617">
        <ele>228.7</ele>
        <time>2023-10-28T12:50:52Z</time>
      </trkpt>
      <trkpt lat="45.12327" lon="1.28614">
        <ele>228.9</ele>
        <time>2023-10-28T12:50:53Z</time>
      </trkpt>
      <trkpt lat="45.12326" lon="1.2861">
        <ele>229</ele>
        <time>2023-10-28T12:50:54Z</time>
      </trkpt>
      <trkpt lat="45.12326" lon="1.28607">
        <ele>229.1</ele>
        <time>2023-10-28T12:50:55Z</time>
      </trkpt>
      <trkpt lat="45.12326" lon="1.28604">
        <ele>229.2</ele>
        <time>2023-10-28T12:50:56Z</time>
      </trkpt>
      <trkpt lat="45.12326" lon="1.286">
        <ele>229.3</ele>
        <time>2023-10-28T12:50:57Z</time>
      </trkpt>
      <trkpt lat="45.12325" lon="1.28597">
        <ele>229.4</ele>
        <time>2023-10-28T12:50:58Z</time>
      </trkpt>
      <trkpt lat="45.12325" lon="1.28594">
        <ele>229.5</ele>
        <time>2023-10-28T12:50:59Z</time>
      </trkpt>
      <trkpt lat="45.12325" lon="1.28591">
        <ele>229.6</ele>
        <time>2023-10-28T12:51:00Z</time>
      </trkpt>
      <trkpt lat="45.12325" lon="1.28587">
        <ele>229.7</ele>
        <time>2023-10-28T12:51:01Z</time>
      </trkpt>
      <trkpt lat="45.12325" lon="1.28584">
        <ele>229.7</ele>
        <time>2023-10-28T12:51:02Z</time>
      </trkpt>
      <trkpt lat="45.12325" lon="1.28581">
        <ele>229.8</ele>
        <time>2023-10-28T12:51:03Z</time>
      </trkpt>
      <trkpt lat="45.12325" lon="1.28577">
        <ele>229.8</ele>
        <time>2023-10-28T12:51:04Z</time>
      </trkpt>
      <trkpt lat="45.12325" lon="1.28574">
        <ele>229.8</ele>
        <time>2023-10-28T12:51:05Z</time>
      </trkpt>
      <trkpt lat="45.12325" lon="1.28571">
        <ele>229.9</ele>
        <time>2023-10-28T12:51:06Z</time>
      </trkpt>
      <trkpt lat="45.12325" lon="1.28568">
        <ele>229.9</ele>
        <time>2023-10-28T12:51:07Z</time>
      </trkpt>
      <trkpt lat="45.12324" lon="1.28565">
        <ele>230</ele>
        <time>2023-10-28T12:51:08Z</time>
      </trkpt>
      <trkpt lat="45.12324" lon="1.28562">
        <ele>230</ele>
        <time>2023-10-28T12:51:09Z</time>
      </trkpt>
      <trkpt lat="45.12324" lon="1.28558">
        <ele>230</ele>
        <time>2023-10-28T12:51:10Z</time>
      </trkpt>
      <trkpt lat="45.12323" lon="1.28555">
        <ele>230.1</ele>
        <time>2023-10-28T12:51:11Z</time>
      </trkpt>
      <trkpt lat="45.12323" lon="1.28552">
        <ele>230.1</ele>
        <time>2023-10-28T12:51:12Z</time>
      </trkpt>
      <trkpt lat="45.12323" lon="1.28548">
        <ele>230.1</ele>
        <time>2023-10-28T12:51:13Z</time>
      </trkpt>
      <trkpt lat="45.12323" lon="1.28545">
        <ele>230.2</ele>
        <time>2023-10-28T12:51:14Z</time>
      </trkpt>
      <trkpt lat="45.12322" lon="1.28541">
        <ele>230.2</ele>
        <time>2023-10-28T12:51:15Z</time>
      </trkpt>
      <trkpt lat="45.12322" lon="1.28538">
        <ele>230.2</ele>
        <time>2023-10-28T12:51:16Z</time>
      </trkpt>
      <trkpt lat="45.12322" lon="1.28534">
        <ele>230.2</ele>
        <time>2023-10-28T12:51:17Z</time>
      </trkpt>
      <trkpt lat="45.12322" lon="1.2853">
        <ele>230.2</ele>
        <time>2023-10-28T12:51:18Z</time>
      </trkpt>
      <trkpt lat="45.12322" lon="1.28527">
        <ele>230.3</ele>
        <time>2023-10-28T12:51:19Z</time>
      </trkpt>
      <trkpt lat="45.12322" lon="1.28524">
        <ele>230.3</ele>
        <time>2023-10-28T12:51:20Z</time>
      </trkpt>
      <trkpt lat="45.12322" lon="1.28521">
        <ele>230.3</ele>
        <time>2023-10-28T12:51:21Z</time>
      </trkpt>
      <trkpt lat="45.12322" lon="1.28517">
        <ele>230.4</ele>
        <time>2023-10-28T12:51:22Z</time>
      </trkpt>
      <trkpt lat="45.12322" lon="1.28514">
        <ele>230.4</ele>
        <time>2023-10-28T12:51:23Z</time>
      </trkpt>
      <trkpt lat="45.12322" lon="1.28511">
        <ele>230.4</ele>
        <time>2023-10-28T12:51:24Z</time>
      </trkpt>
      <trkpt lat="45.12322" lon="1.28508">
        <ele>230.4</ele>
        <time>2023-10-28T12:51:25Z</time>
      </trkpt>
      <trkpt lat="45.12322" lon="1.28506">
        <ele>230.5</ele>
        <time>2023-10-28T12:51:26Z</time>
      </trkpt>
      <trkpt lat="45.12322" lon="1.28503">
        <ele>230.5</ele>
        <time>2023-10-28T12:51:27Z</time>
      </trkpt>
      <trkpt lat="45.12322" lon="1.285">
        <ele>230.6</ele>
        <time>2023-10-28T12:51:28Z</time>
      </trkpt>
      <trkpt lat="45.12322" lon="1.28496">
        <ele>230.7</ele>
        <time>2023-10-28T12:51:29Z</time>
      </trkpt>
      <trkpt lat="45.12322" lon="1.28493">
        <ele>230.7</ele>
        <time>2023-10-28T12:51:30Z</time>
      </trkpt>
      <trkpt lat="45.12321" lon="1.2849">
        <ele>230.8</ele>
        <time>2023-10-28T12:51:31Z</time>
      </trkpt>
      <trkpt lat="45.12321" lon="1.28487">
        <ele>230.9</ele>
        <time>2023-10-28T12:51:32Z</time>
      </trkpt>
      <trkpt lat="45.12321" lon="1.28483">
        <ele>231</ele>
        <time>2023-10-28T12:51:33Z</time>
      </trkpt>
      <trkpt lat="45.1232" lon="1.2848">
        <ele>231.1</ele>
        <time>2023-10-28T12:51:34Z</time>
      </trkpt>
      <trkpt lat="45.1232" lon="1.28477">
        <ele>231.2</ele>
        <time>2023-10-28T12:51:35Z</time>
      </trkpt>
      <trkpt lat="45.1232" lon="1.28474">
        <ele>231.4</ele>
        <time>2023-10-28T12:51:36Z</time>
      </trkpt>
      <trkpt lat="45.1232" lon="1.28471">
        <ele>231.5</ele>
        <time>2023-10-28T12:51:37Z</time>
      </trkpt>
      <trkpt lat="45.1232" lon="1.28467">
        <ele>231.6</ele>
        <time>2023-10-28T12:51:38Z</time>
      </trkpt>
      <trkpt lat="45.1232" lon="1.28464">
        <ele>231.8</ele>
        <time>2023-10-28T12:51:39Z</time>
      </trkpt>
      <trkpt lat="45.1232" lon="1.28461">
        <ele>231.9</ele>
        <time>2023-10-28T12:51:40Z</time>
      </trkpt>
      <trkpt lat="45.1232" lon="1.28458">
        <ele>232.1</ele>
        <time>2023-10-28T12:51:41Z</time>
      </trkpt>
      <trkpt lat="45.1232" lon="1.28455">
        <ele>232.2</ele>
        <time>2023-10-28T12:51:42Z</time>
      </trkpt>
      <trkpt lat="45.12319" lon="1.28452">
        <ele>232.4</ele>
        <time>2023-10-28T12:51:43Z</time>
      </trkpt>
      <trkpt lat="45.12319" lon="1.28449">
        <ele>232.5</ele>
        <time>2023-10-28T12:51:44Z</time>
      </trkpt>
      <trkpt lat="45.12319" lon="1.28446">
        <ele>232.7</ele>
        <time>2023-10-28T12:51:45Z</time>
      </trkpt>
      <trkpt lat="45.12319" lon="1.28444">
        <ele>232.8</ele>
        <time>2023-10-28T12:51:46Z</time>
      </trkpt>
      <trkpt lat="45.12319" lon="1.28441">
        <ele>233</ele>
        <time>2023-10-28T12:51:47Z</time>
      </trkpt>
      <trkpt lat="45.12318" lon="1.28438">
        <ele>233.1</ele>
        <time>2023-10-28T12:51:48Z</time>
      </trkpt>
      <trkpt lat="45.12318" lon="1.28436">
        <ele>233.3</ele>
        <time>2023-10-28T12:51:49Z</time>
      </trkpt>
      <trkpt lat="45.12318" lon="1.28433">
        <ele>233.4</ele>
        <time>2023-10-28T12:51:50Z</time>
      </trkpt>
      <trkpt lat="45.12317" lon="1.28432">
        <ele>233.5</ele>
        <time>2023-10-28T12:51:51Z</time>
      </trkpt>
      <trkpt lat="45.12316" lon="1.28431">
        <ele>233.6</ele>
        <time>2023-10-28T12:51:52Z</time>
      </trkpt>
      <trkpt lat="45.12315" lon="1.2843">
        <ele>233.7</ele>
        <time>2023-10-28T12:51:53Z</time>
      </trkpt>
      <trkpt lat="45.12314" lon="1.2843">
        <ele>233.8</ele>
        <time>2023-10-28T12:51:54Z</time>
      </trkpt>
      <trkpt lat="45.12313" lon="1.2843">
        <ele>233.9</ele>
        <time>2023-10-28T12:51:55Z</time>
      </trkpt>
      <trkpt lat="45.12312" lon="1.28431">
        <ele>234.5</ele>
        <time>2023-10-28T12:51:56Z</time>
      </trkpt>
      <trkpt lat="45.1231" lon="1.28432">
        <ele>234.7</ele>
        <time>2023-10-28T12:51:57Z</time>
      </trkpt>
      <trkpt lat="45.12308" lon="1.28432">
        <ele>234.8</ele>
        <time>2023-10-28T12:51:58Z</time>
      </trkpt>
      <trkpt lat="45.12306" lon="1.28433">
        <ele>235</ele>
        <time>2023-10-28T12:51:59Z</time>
      </trkpt>
      <trkpt lat="45.12304" lon="1.28434">
        <ele>235.2</ele>
        <time>2023-10-28T12:52:00Z</time>
      </trkpt>
      <trkpt lat="45.12302" lon="1.28435">
        <ele>235.5</ele>
        <time>2023-10-28T12:52:01Z</time>
      </trkpt>
      <trkpt lat="45.12299" lon="1.28436">
        <ele>235.7</ele>
        <time>2023-10-28T12:52:02Z</time>
      </trkpt>
      <trkpt lat="45.12297" lon="1.28437">
        <ele>235.9</ele>
        <time>2023-10-28T12:52:03Z</time>
      </trkpt>
      <trkpt lat="45.12295" lon="1.28437">
        <ele>236.1</ele>
        <time>2023-10-28T12:52:04Z</time>
      </trkpt>
      <trkpt lat="45.12293" lon="1.28438">
        <ele>236.3</ele>
        <time>2023-10-28T12:52:05Z</time>
      </trkpt>
      <trkpt lat="45.12291" lon="1.28438">
        <ele>236.6</ele>
        <time>2023-10-28T12:52:06Z</time>
      </trkpt>
      <trkpt lat="45.12289" lon="1.28438">
        <ele>236.8</ele>
        <time>2023-10-28T12:52:07Z</time>
      </trkpt>
      <trkpt lat="45.12286" lon="1.28438">
        <ele>237</ele>
        <time>2023-10-28T12:52:08Z</time>
      </trkpt>
      <trkpt lat="45.12285" lon="1.28438">
        <ele>237.2</ele>
        <time>2023-10-28T12:52:09Z</time>
      </trkpt>
      <trkpt lat="45.12283" lon="1.28439">
        <ele>237.4</ele>
        <time>2023-10-28T12:52:10Z</time>
      </trkpt>
      <trkpt lat="45.1228" lon="1.28439">
        <ele>237.7</ele>
        <time>2023-10-28T12:52:11Z</time>
      </trkpt>
      <trkpt lat="45.12278" lon="1.28439">
        <ele>237.9</ele>
        <time>2023-10-28T12:52:12Z</time>
      </trkpt>
      <trkpt lat="45.12277" lon="1.28439">
        <ele>238.1</ele>
        <time>2023-10-28T12:52:13Z</time>
      </trkpt>
      <trkpt lat="45.12275" lon="1.28439">
        <ele>238.3</ele>
        <time>2023-10-28T12:52:14Z</time>
      </trkpt>
      <trkpt lat="45.12273" lon="1.2844">
        <ele>238.5</ele>
        <time>2023-10-28T12:52:15Z</time>
      </trkpt>
      <trkpt lat="45.12271" lon="1.2844">
        <ele>238.7</ele>
        <time>2023-10-28T12:52:16Z</time>
      </trkpt>
      <trkpt lat="45.12269" lon="1.2844">
        <ele>238.9</ele>
        <time>2023-10-28T12:52:17Z</time>
      </trkpt>
      <trkpt lat="45.12267" lon="1.2844">
        <ele>239.2</ele>
        <time>2023-10-28T12:52:18Z</time>
      </trkpt>
      <trkpt lat="45.12265" lon="1.2844">
        <ele>239.4</ele>
        <time>2023-10-28T12:52:19Z</time>
      </trkpt>
      <trkpt lat="45.12264" lon="1.2844">
        <ele>239.6</ele>
        <time>2023-10-28T12:52:20Z</time>
      </trkpt>
      <trkpt lat="45.12262" lon="1.28441">
        <ele>239.8</ele>
        <time>2023-10-28T12:52:21Z</time>
      </trkpt>
      <trkpt lat="45.1226" lon="1.28441">
        <ele>240</ele>
        <time>2023-10-28T12:52:22Z</time>
      </trkpt>
      <trkpt lat="45.12258" lon="1.28441">
        <ele>240.3</ele>
        <time>2023-10-28T12:52:23Z</time>
      </trkpt>
      <trkpt lat="45.12257" lon="1.28441">
        <ele>240.5</ele>
        <time>2023-10-28T12:52:24Z</time>
      </trkpt>
      <trkpt lat="45.12255" lon="1.28442">
        <ele>240.7</ele>
        <time>2023-10-28T12:52:25Z</time>
      </trkpt>
      <trkpt lat="45.12253" lon="1.28442">
        <ele>240.9</ele>
        <time>2023-10-28T12:52:26Z</time>
      </trkpt>
      <trkpt lat="45.12251" lon="1.28441">
        <ele>241.2</ele>
        <time>2023-10-28T12:52:27Z</time>
      </trkpt>
      <trkpt lat="45.12249" lon="1.28441">
        <ele>241.4</ele>
        <time>2023-10-28T12:52:28Z</time>
      </trkpt>
      <trkpt lat="45.12248" lon="1.28439">
        <ele>241.6</ele>
        <time>2023-10-28T12:52:29Z</time>
      </trkpt>
      <trkpt lat="45.12247" lon="1.28438">
        <ele>241.9</ele>
        <time>2023-10-28T12:52:30Z</time>
      </trkpt>
      <trkpt lat="45.12246" lon="1.28436">
        <ele>242</ele>
        <time>2023-10-28T12:52:31Z</time>
      </trkpt>
      <trkpt lat="45.12244" lon="1.28433">
        <ele>242.2</ele>
        <time>2023-10-28T12:52:32Z</time>
      </trkpt>
      <trkpt lat="45.12244" lon="1.2843">
        <ele>242.4</ele>
        <time>2023-10-28T12:52:33Z</time>
      </trkpt>
      <trkpt lat="45.12243" lon="1.28428">
        <ele>242.6</ele>
        <time>2023-10-28T12:52:34Z</time>
      </trkpt>
      <trkpt lat="45.12241" lon="1.28425">
        <ele>242.7</ele>
        <time>2023-10-28T12:52:35Z</time>
      </trkpt>
      <trkpt lat="45.12241" lon="1.28422">
        <ele>242.9</ele>
        <time>2023-10-28T12:52:36Z</time>
      </trkpt>
      <trkpt lat="45.1224" lon="1.28419">
        <ele>243</ele>
        <time>2023-10-28T12:52:37Z</time>
      </trkpt>
      <trkpt lat="45.12238" lon="1.28416">
        <ele>243.2</ele>
        <time>2023-10-28T12:52:38Z</time>
      </trkpt>
      <trkpt lat="45.12238" lon="1.28413">
        <ele>243.4</ele>
        <time>2023-10-28T12:52:39Z</time>
      </trkpt>
      <trkpt lat="45.12236" lon="1.2841">
        <ele>243.5</ele>
        <time>2023-10-28T12:52:40Z</time>
      </trkpt>
      <trkpt lat="45.12235" lon="1.28408">
        <ele>243.6</ele>
        <time>2023-10-28T12:52:41Z</time>
      </trkpt>
      <trkpt lat="45.12235" lon="1.28405">
        <ele>243.8</ele>
        <time>2023-10-28T12:52:42Z</time>
      </trkpt>
      <trkpt lat="45.12233" lon="1.28403">
        <ele>243.9</ele>
        <time>2023-10-28T12:52:43Z</time>
      </trkpt>
      <trkpt lat="45.12232" lon="1.284">
        <ele>244.1</ele>
        <time>2023-10-28T12:52:44Z</time>
      </trkpt>
      <trkpt lat="45.12231" lon="1.28397">
        <ele>244.2</ele>
        <time>2023-10-28T12:52:45Z</time>
      </trkpt>
      <trkpt lat="45.1223" lon="1.28395">
        <ele>244.4</ele>
        <time>2023-10-28T12:52:46Z</time>
      </trkpt>
      <trkpt lat="45.12228" lon="1.28393">
        <ele>244.5</ele>
        <time>2023-10-28T12:52:47Z</time>
      </trkpt>
      <trkpt lat="45.12227" lon="1.2839">
        <ele>244.6</ele>
        <time>2023-10-28T12:52:48Z</time>
      </trkpt>
      <trkpt lat="45.12226" lon="1.28388">
        <ele>244.8</ele>
        <time>2023-10-28T12:52:49Z</time>
      </trkpt>
      <trkpt lat="45.12225" lon="1.28386">
        <ele>244.9</ele>
        <time>2023-10-28T12:52:50Z</time>
      </trkpt>
      <trkpt lat="45.12223" lon="1.28383">
        <ele>245</ele>
        <time>2023-10-28T12:52:51Z</time>
      </trkpt>
      <trkpt lat="45.12222" lon="1.28381">
        <ele>245.2</ele>
        <time>2023-10-28T12:52:52Z</time>
      </trkpt>
      <trkpt lat="45.12221" lon="1.28379">
        <ele>245.3</ele>
        <time>2023-10-28T12:52:53Z</time>
      </trkpt>
      <trkpt lat="45.12219" lon="1.28377">
        <ele>245.4</ele>
        <time>2023-10-28T12:52:54Z</time>
      </trkpt>
      <trkpt lat="45.12218" lon="1.28375">
        <ele>245.6</ele>
        <time>2023-10-28T12:52:55Z</time>
      </trkpt>
      <trkpt lat="45.12216" lon="1.28373">
        <ele>245.7</ele>
        <time>2023-10-28T12:52:56Z</time>
      </trkpt>
      <trkpt lat="45.12215" lon="1.28372">
        <ele>245.9</ele>
        <time>2023-10-28T12:52:57Z</time>
      </trkpt>
      <trkpt lat="45.12213" lon="1.2837">
        <ele>246</ele>
        <time>2023-10-28T12:52:58Z</time>
      </trkpt>
      <trkpt lat="45.12211" lon="1.28368">
        <ele>246.1</ele>
        <time>2023-10-28T12:52:59Z</time>
      </trkpt>
      <trkpt lat="45.1221" lon="1.28366">
        <ele>246.3</ele>
        <time>2023-10-28T12:53:00Z</time>
      </trkpt>
      <trkpt lat="45.12208" lon="1.28365">
        <ele>246.4</ele>
        <time>2023-10-28T12:53:01Z</time>
      </trkpt>
      <trkpt lat="45.12206" lon="1.28363">
        <ele>246.6</ele>
        <time>2023-10-28T12:53:02Z</time>
      </trkpt>
      <trkpt lat="45.12205" lon="1.28361">
        <ele>246.7</ele>
        <time>2023-10-28T12:53:03Z</time>
      </trkpt>
      <trkpt lat="45.12203" lon="1.2836">
        <ele>246.8</ele>
        <time>2023-10-28T12:53:04Z</time>
      </trkpt>
      <trkpt lat="45.12201" lon="1.28358">
        <ele>247</ele>
        <time>2023-10-28T12:53:05Z</time>
      </trkpt>
      <trkpt lat="45.12199" lon="1.28356">
        <ele>247.1</ele>
        <time>2023-10-28T12:53:06Z</time>
      </trkpt>
      <trkpt lat="45.12198" lon="1.28355">
        <ele>247.3</ele>
        <time>2023-10-28T12:53:07Z</time>
      </trkpt>
      <trkpt lat="45.12196" lon="1.28353">
        <ele>247.4</ele>
        <time>2023-10-28T12:53:08Z</time>
      </trkpt>
      <trkpt lat="45.12194" lon="1.28352">
        <ele>247.6</ele>
        <time>2023-10-28T12:53:09Z</time>
      </trkpt>
      <trkpt lat="45.12192" lon="1.2835">
        <ele>247.7</ele>
        <time>2023-10-28T12:53:10Z</time>
      </trkpt>
      <trkpt lat="45.1219" lon="1.28349">
        <ele>247.8</ele>
        <time>2023-10-28T12:53:11Z</time>
      </trkpt>
      <trkpt lat="45.12188" lon="1.28347">
        <ele>247.9</ele>
        <time>2023-10-28T12:53:12Z</time>
      </trkpt>
      <trkpt lat="45.12186" lon="1.28346">
        <ele>248.1</ele>
        <time>2023-10-28T12:53:13Z</time>
      </trkpt>
      <trkpt lat="45.12185" lon="1.28344">
        <ele>248.2</ele>
        <time>2023-10-28T12:53:14Z</time>
      </trkpt>
      <trkpt lat="45.12183" lon="1.28343">
        <ele>248.3</ele>
        <time>2023-10-28T12:53:15Z</time>
      </trkpt>
      <trkpt lat="45.12181" lon="1.28342">
        <ele>248.4</ele>
        <time>2023-10-28T12:53:16Z</time>
      </trkpt>
      <trkpt lat="45.12179" lon="1.2834">
        <ele>248.6</ele>
        <time>2023-10-28T12:53:17Z</time>
      </trkpt>
      <trkpt lat="45.12177" lon="1.28339">
        <ele>248.7</ele>
        <time>2023-10-28T12:53:18Z</time>
      </trkpt>
      <trkpt lat="45.12175" lon="1.28338">
        <ele>248.8</ele>
        <time>2023-10-28T12:53:19Z</time>
      </trkpt>
      <trkpt lat="45.12174" lon="1.28336">
        <ele>248.9</ele>
        <time>2023-10-28T12:53:20Z</time>
      </trkpt>
      <trkpt lat="45.12172" lon="1.28335">
        <ele>249</ele>
        <time>2023-10-28T12:53:21Z</time>
      </trkpt>
      <trkpt lat="45.1217" lon="1.28333">
        <ele>249.1</ele>
        <time>2023-10-28T12:53:22Z</time>
      </trkpt>
      <trkpt lat="45.12168" lon="1.28332">
        <ele>249.2</ele>
        <time>2023-10-28T12:53:23Z</time>
      </trkpt>
      <trkpt lat="45.12166" lon="1.2833">
        <ele>249.3</ele>
        <time>2023-10-28T12:53:24Z</time>
      </trkpt>
      <trkpt lat="45.12164" lon="1.28329">
        <ele>249.4</ele>
        <time>2023-10-28T12:53:25Z</time>
      </trkpt>
      <trkpt lat="45.12162" lon="1.28327">
        <ele>249.5</ele>
        <time>2023-10-28T12:53:26Z</time>
      </trkpt>
      <trkpt lat="45.1216" lon="1.28326">
        <ele>249.7</ele>
        <time>2023-10-28T12:53:27Z</time>
      </trkpt>
      <trkpt lat="45.12159" lon="1.28324">
        <ele>249.8</ele>
        <time>2023-10-28T12:53:28Z</time>
      </trkpt>
      <trkpt lat="45.12157" lon="1.28323">
        <ele>249.9</ele>
        <time>2023-10-28T12:53:29Z</time>
      </trkpt>
      <trkpt lat="45.12155" lon="1.28321">
        <ele>250</ele>
        <time>2023-10-28T12:53:30Z</time>
      </trkpt>
      <trkpt lat="45.12153" lon="1.2832">
        <ele>250.1</ele>
        <time>2023-10-28T12:53:31Z</time>
      </trkpt>
      <trkpt lat="45.12151" lon="1.28318">
        <ele>250.2</ele>
        <time>2023-10-28T12:53:32Z</time>
      </trkpt>
      <trkpt lat="45.1215" lon="1.28317">
        <ele>250.3</ele>
        <time>2023-10-28T12:53:33Z</time>
      </trkpt>
      <trkpt lat="45.12148" lon="1.28315">
        <ele>250.4</ele>
        <time>2023-10-28T12:53:34Z</time>
      </trkpt>
      <trkpt lat="45.12146" lon="1.28314">
        <ele>250.5</ele>
        <time>2023-10-28T12:53:35Z</time>
      </trkpt>
      <trkpt lat="45.12145" lon="1.28312">
        <ele>250.6</ele>
        <time>2023-10-28T12:53:36Z</time>
      </trkpt>
      <trkpt lat="45.12143" lon="1.28311">
        <ele>250.7</ele>
        <time>2023-10-28T12:53:37Z</time>
      </trkpt>
      <trkpt lat="45.12141" lon="1.28309">
        <ele>250.8</ele>
        <time>2023-10-28T12:53:38Z</time>
      </trkpt>
      <trkpt lat="45.12139" lon="1.28308">
        <ele>250.9</ele>
        <time>2023-10-28T12:53:39Z</time>
      </trkpt>
      <trkpt lat="45.12137" lon="1.28306">
        <ele>251</ele>
        <time>2023-10-28T12:53:40Z</time>
      </trkpt>
      <trkpt lat="45.12135" lon="1.28304">
        <ele>251.1</ele>
        <time>2023-10-28T12:53:41Z</time>
      </trkpt>
      <trkpt lat="45.12133" lon="1.28302">
        <ele>251.2</ele>
        <time>2023-10-28T12:53:42Z</time>
      </trkpt>
      <trkpt lat="45.12131" lon="1.28301">
        <ele>251.3</ele>
        <time>2023-10-28T12:53:43Z</time>
      </trkpt>
      <trkpt lat="45.12129" lon="1.28299">
        <ele>251.4</ele>
        <time>2023-10-28T12:53:44Z</time>
      </trkpt>
      <trkpt lat="45.12128" lon="1.28297">
        <ele>251.5</ele>
        <time>2023-10-28T12:53:45Z</time>
      </trkpt>
      <trkpt lat="45.12126" lon="1.28295">
        <ele>251.5</ele>
        <time>2023-10-28T12:53:46Z</time>
      </trkpt>
      <trkpt lat="45.12124" lon="1.28293">
        <ele>251.6</ele>
        <time>2023-10-28T12:53:47Z</time>
      </trkpt>
      <trkpt lat="45.12122" lon="1.28291">
        <ele>251.7</ele>
        <time>2023-10-28T12:53:48Z</time>
      </trkpt>
      <trkpt lat="45.12121" lon="1.28289">
        <ele>251.7</ele>
        <time>2023-10-28T12:53:49Z</time>
      </trkpt>
      <trkpt lat="45.12119" lon="1.28287">
        <ele>251.8</ele>
        <time>2023-10-28T12:53:50Z</time>
      </trkpt>
      <trkpt lat="45.12118" lon="1.28285">
        <ele>251.9</ele>
        <time>2023-10-28T12:53:51Z</time>
      </trkpt>
      <trkpt lat="45.12116" lon="1.28283">
        <ele>251.9</ele>
        <time>2023-10-28T12:53:52Z</time>
      </trkpt>
      <trkpt lat="45.12115" lon="1.28282">
        <ele>252</ele>
        <time>2023-10-28T12:53:53Z</time>
      </trkpt>
      <trkpt lat="45.12114" lon="1.2828">
        <ele>252</ele>
        <time>2023-10-28T12:53:54Z</time>
      </trkpt>
      <trkpt lat="45.12113" lon="1.28279">
        <ele>252</ele>
        <time>2023-10-28T12:53:55Z</time>
      </trkpt>
      <trkpt lat="45.12112" lon="1.28278">
        <ele>252.1</ele>
        <time>2023-10-28T12:53:56Z</time>
      </trkpt>
      <trkpt lat="45.12112" lon="1.28278">
        <ele>252.1</ele>
        <time>2023-10-28T12:53:57Z</time>
      </trkpt>
      <trkpt lat="45.12111" lon="1.28278">
        <ele>252.1</ele>
        <time>2023-10-28T12:53:58Z</time>
      </trkpt>
      <trkpt lat="45.12111" lon="1.28278">
        <ele>252.1</ele>
        <time>2023-10-28T12:53:59Z</time>
      </trkpt>
      <trkpt lat="45.12111" lon="1.28278">
        <ele>252.1</ele>
        <time>2023-10-28T12:54:00Z</time>
      </trkpt>
      <trkpt lat="45.12111" lon="1.28278">
        <ele>252.1</ele>
        <time>2023-10-28T12:54:01Z</time>
      </trkpt>
      <trkpt lat="45.12111" lon="1.28278">
        <ele>252.1</ele>
        <time>2023-10-28T12:54:02Z</time>
      </trkpt>
      <trkpt lat="45.12111" lon="1.28278">
        <ele>252.1</ele>
        <time>2023-10-28T12:54:03Z</time>
      </trkpt>
      <trkpt lat="45.12111" lon="1.28278">
        <ele>252.1</ele>
        <time>2023-10-28T12:54:04Z</time>
      </trkpt>
      <trkpt lat="45.12111" lon="1.28278">
        <ele>252.1</ele>
        <time>2023-10-28T12:54:05Z</time>
      </trkpt>
      <trkpt lat="45.12112" lon="1.28278">
        <ele>252.1</ele>
        <time>2023-10-28T12:54:06Z</time>
      </trkpt>
      <trkpt lat="45.12112" lon="1.28277">
        <ele>252.1</ele>
        <time>2023-10-28T12:54:07Z</time>
      </trkpt>
      <trkpt lat="45.12112" lon="1.28276">
        <ele>252.1</ele>
        <time>2023-10-28T12:54:08Z</time>
      </trkpt>
      <trkpt lat="45.12111" lon="1.28274">
        <ele>252.2</ele>
        <time>2023-10-28T12:54:09Z</time>
      </trkpt>
      <trkpt lat="45.12111" lon="1.28272">
        <ele>252.2</ele>
        <time>2023-10-28T12:54:10Z</time>
      </trkpt>
      <trkpt lat="45.1211" lon="1.2827">
        <ele>252.1</ele>
        <time>2023-10-28T12:54:11Z</time>
      </trkpt>
      <trkpt lat="45.12109" lon="1.28267">
        <ele>252</ele>
        <time>2023-10-28T12:54:12Z</time>
      </trkpt>
      <trkpt lat="45.12108" lon="1.28264">
        <ele>251.9</ele>
        <time>2023-10-28T12:54:13Z</time>
      </trkpt>
      <trkpt lat="45.12108" lon="1.2826">
        <ele>251.8</ele>
        <time>2023-10-28T12:54:14Z</time>
      </trkpt>
      <trkpt lat="45.12106" lon="1.28257">
        <ele>251.6</ele>
        <time>2023-10-28T12:54:15Z</time>
      </trkpt>
      <trkpt lat="45.12106" lon="1.28253">
        <ele>251.5</ele>
        <time>2023-10-28T12:54:16Z</time>
      </trkpt>
      <trkpt lat="45.12105" lon="1.2825">
        <ele>251.3</ele>
        <time>2023-10-28T12:54:17Z</time>
      </trkpt>
      <trkpt lat="45.12104" lon="1.28246">
        <ele>251.2</ele>
        <time>2023-10-28T12:54:18Z</time>
      </trkpt>
      <trkpt lat="45.12104" lon="1.28242">
        <ele>251</ele>
        <time>2023-10-28T12:54:19Z</time>
      </trkpt>
      <trkpt lat="45.12103" lon="1.28238">
        <ele>250.8</ele>
        <time>2023-10-28T12:54:20Z</time>
      </trkpt>
      <trkpt lat="45.12103" lon="1.28235">
        <ele>250.6</ele>
        <time>2023-10-28T12:54:21Z</time>
      </trkpt>
      <trkpt lat="45.12102" lon="1.28231">
        <ele>250.4</ele>
        <time>2023-10-28T12:54:22Z</time>
      </trkpt>
      <trkpt lat="45.12102" lon="1.28227">
        <ele>250.2</ele>
        <time>2023-10-28T12:54:23Z</time>
      </trkpt>
      <trkpt lat="45.12101" lon="1.28223">
        <ele>250</ele>
        <time>2023-10-28T12:54:24Z</time>
      </trkpt>
      <trkpt lat="45.12101" lon="1.28219">
        <ele>249.7</ele>
        <time>2023-10-28T12:54:25Z</time>
      </trkpt>
      <trkpt lat="45.121" lon="1.28216">
        <ele>249.5</ele>
        <time>2023-10-28T12:54:26Z</time>
      </trkpt>
      <trkpt lat="45.121" lon="1.28212">
        <ele>249.2</ele>
        <time>2023-10-28T12:54:27Z</time>
      </trkpt>
      <trkpt lat="45.12099" lon="1.28208">
        <ele>249</ele>
        <time>2023-10-28T12:54:28Z</time>
      </trkpt>
      <trkpt lat="45.12099" lon="1.28204">
        <ele>248.8</ele>
        <time>2023-10-28T12:54:29Z</time>
      </trkpt>
      <trkpt lat="45.12098" lon="1.282">
        <ele>248.5</ele>
        <time>2023-10-28T12:54:30Z</time>
      </trkpt>
      <trkpt lat="45.12097" lon="1.28197">
        <ele>248.3</ele>
        <time>2023-10-28T12:54:31Z</time>
      </trkpt>
      <trkpt lat="45.12096" lon="1.28193">
        <ele>248</ele>
        <time>2023-10-28T12:54:32Z</time>
      </trkpt>
      <trkpt lat="45.12096" lon="1.28189">
        <ele>247.8</ele>
        <time>2023-10-28T12:54:33Z</time>
      </trkpt>
      <trkpt lat="45.12095" lon="1.28185">
        <ele>247.6</ele>
        <time>2023-10-28T12:54:34Z</time>
      </trkpt>
      <trkpt lat="45.12094" lon="1.28182">
        <ele>247.4</ele>
        <time>2023-10-28T12:54:35Z</time>
      </trkpt>
      <trkpt lat="45.12093" lon="1.28178">
        <ele>247.3</ele>
        <time>2023-10-28T12:54:36Z</time>
      </trkpt>
      <trkpt lat="45.12093" lon="1.28174">
        <ele>247.1</ele>
        <time>2023-10-28T12:54:37Z</time>
      </trkpt>
      <trkpt lat="45.12092" lon="1.2817">
        <ele>247</ele>
        <time>2023-10-28T12:54:38Z</time>
      </trkpt>
      <trkpt lat="45.12091" lon="1.28166">
        <ele>246.9</ele>
        <time>2023-10-28T12:54:39Z</time>
      </trkpt>
      <trkpt lat="45.1209" lon="1.28163">
        <ele>246.8</ele>
        <time>2023-10-28T12:54:40Z</time>
      </trkpt>
      <trkpt lat="45.1209" lon="1.28159">
        <ele>246.7</ele>
        <time>2023-10-28T12:54:41Z</time>
      </trkpt>
      <trkpt lat="45.12089" lon="1.28155">
        <ele>246.7</ele>
        <time>2023-10-28T12:54:42Z</time>
      </trkpt>
      <trkpt lat="45.12088" lon="1.28152">
        <ele>246.6</ele>
        <time>2023-10-28T12:54:43Z</time>
      </trkpt>
      <trkpt lat="45.12088" lon="1.28148">
        <ele>246.4</ele>
        <time>2023-10-28T12:54:44Z</time>
      </trkpt>
      <trkpt lat="45.12087" lon="1.28144">
        <ele>246.3</ele>
        <time>2023-10-28T12:54:45Z</time>
      </trkpt>
      <trkpt lat="45.12086" lon="1.28141">
        <ele>246.2</ele>
        <time>2023-10-28T12:54:46Z</time>
      </trkpt>
      <trkpt lat="45.12085" lon="1.28137">
        <ele>246</ele>
        <time>2023-10-28T12:54:47Z</time>
      </trkpt>
      <trkpt lat="45.12085" lon="1.28133">
        <ele>245.8</ele>
        <time>2023-10-28T12:54:48Z</time>
      </trkpt>
      <trkpt lat="45.12084" lon="1.2813">
        <ele>245.6</ele>
        <time>2023-10-28T12:54:49Z</time>
      </trkpt>
      <trkpt lat="45.12083" lon="1.28126">
        <ele>245.4</ele>
        <time>2023-10-28T12:54:50Z</time>
      </trkpt>
      <trkpt lat="45.12083" lon="1.28123">
        <ele>245.2</ele>
        <time>2023-10-28T12:54:51Z</time>
      </trkpt>
      <trkpt lat="45.12082" lon="1.28119">
        <ele>245</ele>
        <time>2023-10-28T12:54:52Z</time>
      </trkpt>
      <trkpt lat="45.12082" lon="1.28115">
        <ele>244.7</ele>
        <time>2023-10-28T12:54:53Z</time>
      </trkpt>
      <trkpt lat="45.12081" lon="1.28112">
        <ele>244.4</ele>
        <time>2023-10-28T12:54:54Z</time>
      </trkpt>
      <trkpt lat="45.1208" lon="1.28108">
        <ele>244.2</ele>
        <time>2023-10-28T12:54:55Z</time>
      </trkpt>
      <trkpt lat="45.1208" lon="1.28104">
        <ele>243.8</ele>
        <time>2023-10-28T12:54:56Z</time>
      </trkpt>
      <trkpt lat="45.12079" lon="1.281">
        <ele>243.6</ele>
        <time>2023-10-28T12:54:57Z</time>
      </trkpt>
      <trkpt lat="45.12078" lon="1.28095">
        <ele>243.2</ele>
        <time>2023-10-28T12:54:58Z</time>
      </trkpt>
      <trkpt lat="45.12077" lon="1.28091">
        <ele>242.9</ele>
        <time>2023-10-28T12:54:59Z</time>
      </trkpt>
      <trkpt lat="45.12075" lon="1.28087">
        <ele>242.7</ele>
        <time>2023-10-28T12:55:00Z</time>
      </trkpt>
      <trkpt lat="45.12074" lon="1.28083">
        <ele>242.4</ele>
        <time>2023-10-28T12:55:01Z</time>
      </trkpt>
      <trkpt lat="45.12073" lon="1.28079">
        <ele>242.2</ele>
        <time>2023-10-28T12:55:02Z</time>
      </trkpt>
      <trkpt lat="45.12072" lon="1.28075">
        <ele>242.1</ele>
        <time>2023-10-28T12:55:03Z</time>
      </trkpt>
      <trkpt lat="45.1207" lon="1.28071">
        <ele>241.9</ele>
        <time>2023-10-28T12:55:04Z</time>
      </trkpt>
      <trkpt lat="45.12068" lon="1.28067">
        <ele>241.8</ele>
        <time>2023-10-28T12:55:05Z</time>
      </trkpt>
      <trkpt lat="45.12067" lon="1.28063">
        <ele>241.8</ele>
        <time>2023-10-28T12:55:06Z</time>
      </trkpt>
      <trkpt lat="45.12065" lon="1.2806">
        <ele>241.7</ele>
        <time>2023-10-28T12:55:07Z</time>
      </trkpt>
      <trkpt lat="45.12064" lon="1.28056">
        <ele>241.7</ele>
        <time>2023-10-28T12:55:08Z</time>
      </trkpt>
      <trkpt lat="45.12062" lon="1.28053">
        <ele>241.7</ele>
        <time>2023-10-28T12:55:09Z</time>
      </trkpt>
      <trkpt lat="45.12061" lon="1.2805">
        <ele>241.6</ele>
        <time>2023-10-28T12:55:10Z</time>
      </trkpt>
      <trkpt lat="45.12059" lon="1.28046">
        <ele>241.6</ele>
        <time>2023-10-28T12:55:11Z</time>
      </trkpt>
      <trkpt lat="45.12058" lon="1.28043">
        <ele>241.6</ele>
        <time>2023-10-28T12:55:12Z</time>
      </trkpt>
      <trkpt lat="45.12056" lon="1.2804">
        <ele>241.5</ele>
        <time>2023-10-28T12:55:13Z</time>
      </trkpt>
      <trkpt lat="45.12055" lon="1.28037">
        <ele>241.5</ele>
        <time>2023-10-28T12:55:14Z</time>
      </trkpt>
      <trkpt lat="45.12053" lon="1.28034">
        <ele>241.5</ele>
        <time>2023-10-28T12:55:15Z</time>
      </trkpt>
      <trkpt lat="45.12052" lon="1.28031">
        <ele>241.4</ele>
        <time>2023-10-28T12:55:16Z</time>
      </trkpt>
      <trkpt lat="45.1205" lon="1.28028">
        <ele>241.4</ele>
        <time>2023-10-28T12:55:17Z</time>
      </trkpt>
      <trkpt lat="45.12049" lon="1.28025">
        <ele>241.3</ele>
        <time>2023-10-28T12:55:18Z</time>
      </trkpt>
      <trkpt lat="45.12047" lon="1.28022">
        <ele>241.3</ele>
        <time>2023-10-28T12:55:19Z</time>
      </trkpt>
      <trkpt lat="45.12045" lon="1.28019">
        <ele>241.2</ele>
        <time>2023-10-28T12:55:20Z</time>
      </trkpt>
      <trkpt lat="45.12044" lon="1.28016">
        <ele>241.2</ele>
        <time>2023-10-28T12:55:21Z</time>
      </trkpt>
      <trkpt lat="45.12042" lon="1.28013">
        <ele>241.1</ele>
        <time>2023-10-28T12:55:22Z</time>
      </trkpt>
      <trkpt lat="45.1204" lon="1.2801">
        <ele>241.1</ele>
        <time>2023-10-28T12:55:23Z</time>
      </trkpt>
      <trkpt lat="45.12038" lon="1.28008">
        <ele>241</ele>
        <time>2023-10-28T12:55:24Z</time>
      </trkpt>
      <trkpt lat="45.12037" lon="1.28005">
        <ele>241</ele>
        <time>2023-10-28T12:55:25Z</time>
      </trkpt>
      <trkpt lat="45.12035" lon="1.28002">
        <ele>240.9</ele>
        <time>2023-10-28T12:55:26Z</time>
      </trkpt>
      <trkpt lat="45.12034" lon="1.27999">
        <ele>240.9</ele>
        <time>2023-10-28T12:55:27Z</time>
      </trkpt>
      <trkpt lat="45.12032" lon="1.27996">
        <ele>240.9</ele>
        <time>2023-10-28T12:55:28Z</time>
      </trkpt>
      <trkpt lat="45.12031" lon="1.27993">
        <ele>240.9</ele>
        <time>2023-10-28T12:55:29Z</time>
      </trkpt>
      <trkpt lat="45.12029" lon="1.27991">
        <ele>240.9</ele>
        <time>2023-10-28T12:55:30Z</time>
      </trkpt>
      <trkpt lat="45.12028" lon="1.27988">
        <ele>240.9</ele>
        <time>2023-10-28T12:55:31Z</time>
      </trkpt>
      <trkpt lat="45.12026" lon="1.27985">
        <ele>240.9</ele>
        <time>2023-10-28T12:55:32Z</time>
      </trkpt>
      <trkpt lat="45.12025" lon="1.27982">
        <ele>240.9</ele>
        <time>2023-10-28T12:55:33Z</time>
      </trkpt>
      <trkpt lat="45.12023" lon="1.27979">
        <ele>240.9</ele>
        <time>2023-10-28T12:55:34Z</time>
      </trkpt>
      <trkpt lat="45.12021" lon="1.27976">
        <ele>240.9</ele>
        <time>2023-10-28T12:55:35Z</time>
      </trkpt>
      <trkpt lat="45.1202" lon="1.27974">
        <ele>240.9</ele>
        <time>2023-10-28T12:55:36Z</time>
      </trkpt>
      <trkpt lat="45.12018" lon="1.27971">
        <ele>240.9</ele>
        <time>2023-10-28T12:55:37Z</time>
      </trkpt>
      <trkpt lat="45.12017" lon="1.27968">
        <ele>240.9</ele>
        <time>2023-10-28T12:55:38Z</time>
      </trkpt>
      <trkpt lat="45.12016" lon="1.27965">
        <ele>240.9</ele>
        <time>2023-10-28T12:55:39Z</time>
      </trkpt>
      <trkpt lat="45.12014" lon="1.27962">
        <ele>241</ele>
        <time>2023-10-28T12:55:40Z</time>
      </trkpt>
      <trkpt lat="45.12013" lon="1.27959">
        <ele>241</ele>
        <time>2023-10-28T12:55:41Z</time>
      </trkpt>
      <trkpt lat="45.12011" lon="1.27957">
        <ele>241.1</ele>
        <time>2023-10-28T12:55:42Z</time>
      </trkpt>
      <trkpt lat="45.1201" lon="1.27954">
        <ele>241.1</ele>
        <time>2023-10-28T12:55:43Z</time>
      </trkpt>
      <trkpt lat="45.12009" lon="1.27951">
        <ele>241.1</ele>
        <time>2023-10-28T12:55:44Z</time>
      </trkpt>
      <trkpt lat="45.12008" lon="1.27948">
        <ele>241.2</ele>
        <time>2023-10-28T12:55:45Z</time>
      </trkpt>
      <trkpt lat="45.12007" lon="1.27945">
        <ele>241.2</ele>
        <time>2023-10-28T12:55:46Z</time>
      </trkpt>
      <trkpt lat="45.12006" lon="1.27942">
        <ele>241.3</ele>
        <time>2023-10-28T12:55:47Z</time>
      </trkpt>
      <trkpt lat="45.12005" lon="1.27939">
        <ele>241.3</ele>
        <time>2023-10-28T12:55:48Z</time>
      </trkpt>
      <trkpt lat="45.12005" lon="1.27936">
        <ele>241.4</ele>
        <time>2023-10-28T12:55:49Z</time>
      </trkpt>
      <trkpt lat="45.12004" lon="1.27933">
        <ele>241.5</ele>
        <time>2023-10-28T12:55:50Z</time>
      </trkpt>
      <trkpt lat="45.12003" lon="1.2793">
        <ele>241.5</ele>
        <time>2023-10-28T12:55:51Z</time>
      </trkpt>
      <trkpt lat="45.12002" lon="1.27927">
        <ele>241.6</ele>
        <time>2023-10-28T12:55:52Z</time>
      </trkpt>
      <trkpt lat="45.12001" lon="1.27924">
        <ele>241.7</ele>
        <time>2023-10-28T12:55:53Z</time>
      </trkpt>
      <trkpt lat="45.12" lon="1.27921">
        <ele>241.8</ele>
        <time>2023-10-28T12:55:54Z</time>
      </trkpt>
      <trkpt lat="45.11999" lon="1.27918">
        <ele>241.9</ele>
        <time>2023-10-28T12:55:55Z</time>
      </trkpt>
      <trkpt lat="45.11998" lon="1.27915">
        <ele>242.1</ele>
        <time>2023-10-28T12:55:56Z</time>
      </trkpt>
      <trkpt lat="45.11998" lon="1.27912">
        <ele>242.2</ele>
        <time>2023-10-28T12:55:57Z</time>
      </trkpt>
      <trkpt lat="45.11997" lon="1.27909">
        <ele>242.3</ele>
        <time>2023-10-28T12:55:58Z</time>
      </trkpt>
      <trkpt lat="45.11996" lon="1.27906">
        <ele>242.5</ele>
        <time>2023-10-28T12:55:59Z</time>
      </trkpt>
      <trkpt lat="45.11995" lon="1.27903">
        <ele>242.6</ele>
        <time>2023-10-28T12:56:00Z</time>
      </trkpt>
      <trkpt lat="45.11994" lon="1.279">
        <ele>242.8</ele>
        <time>2023-10-28T12:56:01Z</time>
      </trkpt>
      <trkpt lat="45.11993" lon="1.27898">
        <ele>243</ele>
        <time>2023-10-28T12:56:02Z</time>
      </trkpt>
      <trkpt lat="45.11992" lon="1.27895">
        <ele>243.2</ele>
        <time>2023-10-28T12:56:03Z</time>
      </trkpt>
      <trkpt lat="45.1199" lon="1.27892">
        <ele>243.4</ele>
        <time>2023-10-28T12:56:04Z</time>
      </trkpt>
      <trkpt lat="45.11989" lon="1.27889">
        <ele>243.6</ele>
        <time>2023-10-28T12:56:05Z</time>
      </trkpt>
      <trkpt lat="45.11988" lon="1.27887">
        <ele>243.8</ele>
        <time>2023-10-28T12:56:06Z</time>
      </trkpt>
      <trkpt lat="45.11987" lon="1.27884">
        <ele>244</ele>
        <time>2023-10-28T12:56:07Z</time>
      </trkpt>
      <trkpt lat="45.11986" lon="1.27882">
        <ele>244.2</ele>
        <time>2023-10-28T12:56:08Z</time>
      </trkpt>
      <trkpt lat="45.11985" lon="1.27879">
        <ele>244.4</ele>
        <time>2023-10-28T12:56:09Z</time>
      </trkpt>
      <trkpt lat="45.11984" lon="1.27877">
        <ele>244.6</ele>
        <time>2023-10-28T12:56:10Z</time>
      </trkpt>
      <trkpt lat="45.11983" lon="1.27874">
        <ele>244.8</ele>
        <time>2023-10-28T12:56:11Z</time>
      </trkpt>
      <trkpt lat="45.11982" lon="1.27872">
        <ele>245</ele>
        <time>2023-10-28T12:56:12Z</time>
      </trkpt>
      <trkpt lat="45.11981" lon="1.27869">
        <ele>245.2</ele>
        <time>2023-10-28T12:56:13Z</time>
      </trkpt>
      <trkpt lat="45.1198" lon="1.27866">
        <ele>245.4</ele>
        <time>2023-10-28T12:56:14Z</time>
      </trkpt>
      <trkpt lat="45.1198" lon="1.27863">
        <ele>245.6</ele>
        <time>2023-10-28T12:56:15Z</time>
      </trkpt>
      <trkpt lat="45.11979" lon="1.27861">
        <ele>245.8</ele>
        <time>2023-10-28T12:56:16Z</time>
      </trkpt>
      <trkpt lat="45.11978" lon="1.27858">
        <ele>246</ele>
        <time>2023-10-28T12:56:17Z</time>
      </trkpt>
      <trkpt lat="45.11977" lon="1.27855">
        <ele>246.2</ele>
        <time>2023-10-28T12:56:18Z</time>
      </trkpt>
      <trkpt lat="45.11977" lon="1.27852">
        <ele>246.4</ele>
        <time>2023-10-28T12:56:19Z</time>
      </trkpt>
      <trkpt lat="45.11976" lon="1.2785">
        <ele>246.6</ele>
        <time>2023-10-28T12:56:20Z</time>
      </trkpt>
      <trkpt lat="45.11975" lon="1.27847">
        <ele>246.8</ele>
        <time>2023-10-28T12:56:21Z</time>
      </trkpt>
      <trkpt lat="45.11974" lon="1.27844">
        <ele>247</ele>
        <time>2023-10-28T12:56:22Z</time>
      </trkpt>
      <trkpt lat="45.11973" lon="1.27841">
        <ele>247.3</ele>
        <time>2023-10-28T12:56:23Z</time>
      </trkpt>
      <trkpt lat="45.11972" lon="1.27838">
        <ele>247.5</ele>
        <time>2023-10-28T12:56:24Z</time>
      </trkpt>
      <trkpt lat="45.11972" lon="1.27835">
        <ele>247.7</ele>
        <time>2023-10-28T12:56:25Z</time>
      </trkpt>
      <trkpt lat="45.11971" lon="1.27831">
        <ele>248</ele>
        <time>2023-10-28T12:56:26Z</time>
      </trkpt>
      <trkpt lat="45.1197" lon="1.27828">
        <ele>248.3</ele>
        <time>2023-10-28T12:56:27Z</time>
      </trkpt>
      <trkpt lat="45.1197" lon="1.27825">
        <ele>248.5</ele>
        <time>2023-10-28T12:56:28Z</time>
      </trkpt>
      <trkpt lat="45.11969" lon="1.27822">
        <ele>248.8</ele>
        <time>2023-10-28T12:56:29Z</time>
      </trkpt>
      <trkpt lat="45.11969" lon="1.27818">
        <ele>249</ele>
        <time>2023-10-28T12:56:30Z</time>
      </trkpt>
      <trkpt lat="45.11969" lon="1.27815">
        <ele>249.3</ele>
        <time>2023-10-28T12:56:31Z</time>
      </trkpt>
      <trkpt lat="45.11969" lon="1.27812">
        <ele>249.5</ele>
        <time>2023-10-28T12:56:32Z</time>
      </trkpt>
      <trkpt lat="45.1197" lon="1.27808">
        <ele>249.8</ele>
        <time>2023-10-28T12:56:33Z</time>
      </trkpt>
      <trkpt lat="45.1197" lon="1.27805">
        <ele>250.1</ele>
        <time>2023-10-28T12:56:34Z</time>
      </trkpt>
      <trkpt lat="45.11971" lon="1.27802">
        <ele>250.3</ele>
        <time>2023-10-28T12:56:35Z</time>
      </trkpt>
      <trkpt lat="45.11971" lon="1.27799">
        <ele>250.6</ele>
        <time>2023-10-28T12:56:36Z</time>
      </trkpt>
      <trkpt lat="45.11972" lon="1.27796">
        <ele>250.9</ele>
        <time>2023-10-28T12:56:37Z</time>
      </trkpt>
      <trkpt lat="45.11972" lon="1.27792">
        <ele>251.2</ele>
        <time>2023-10-28T12:56:38Z</time>
      </trkpt>
      <trkpt lat="45.11973" lon="1.27789">
        <ele>251.5</ele>
        <time>2023-10-28T12:56:39Z</time>
      </trkpt>
      <trkpt lat="45.11974" lon="1.27786">
        <ele>251.8</ele>
        <time>2023-10-28T12:56:40Z</time>
      </trkpt>
      <trkpt lat="45.11975" lon="1.27784">
        <ele>252</ele>
        <time>2023-10-28T12:56:41Z</time>
      </trkpt>
      <trkpt lat="45.11976" lon="1.27781">
        <ele>252.3</ele>
        <time>2023-10-28T12:56:42Z</time>
      </trkpt>
      <trkpt lat="45.11977" lon="1.27778">
        <ele>252.6</ele>
        <time>2023-10-28T12:56:43Z</time>
      </trkpt>
      <trkpt lat="45.11977" lon="1.27775">
        <ele>252.9</ele>
        <time>2023-10-28T12:56:44Z</time>
      </trkpt>
      <trkpt lat="45.11978" lon="1.27772">
        <ele>253.1</ele>
        <time>2023-10-28T12:56:45Z</time>
      </trkpt>
      <trkpt lat="45.11979" lon="1.27769">
        <ele>253.4</ele>
        <time>2023-10-28T12:56:46Z</time>
      </trkpt>
      <trkpt lat="45.11979" lon="1.27766">
        <ele>253.6</ele>
        <time>2023-10-28T12:56:47Z</time>
      </trkpt>
      <trkpt lat="45.1198" lon="1.27763">
        <ele>253.9</ele>
        <time>2023-10-28T12:56:48Z</time>
      </trkpt>
      <trkpt lat="45.1198" lon="1.2776">
        <ele>254.2</ele>
        <time>2023-10-28T12:56:49Z</time>
      </trkpt>
      <trkpt lat="45.11981" lon="1.27757">
        <ele>254.4</ele>
        <time>2023-10-28T12:56:50Z</time>
      </trkpt>
      <trkpt lat="45.11982" lon="1.27753">
        <ele>254.6</ele>
        <time>2023-10-28T12:56:51Z</time>
      </trkpt>
      <trkpt lat="45.11982" lon="1.2775">
        <ele>254.8</ele>
        <time>2023-10-28T12:56:52Z</time>
      </trkpt>
      <trkpt lat="45.11983" lon="1.27747">
        <ele>255</ele>
        <time>2023-10-28T12:56:53Z</time>
      </trkpt>
      <trkpt lat="45.11984" lon="1.27744">
        <ele>255.2</ele>
        <time>2023-10-28T12:56:54Z</time>
      </trkpt>
      <trkpt lat="45.11984" lon="1.27741">
        <ele>255.4</ele>
        <time>2023-10-28T12:56:55Z</time>
      </trkpt>
      <trkpt lat="45.11985" lon="1.27738">
        <ele>255.5</ele>
        <time>2023-10-28T12:56:56Z</time>
      </trkpt>
      <trkpt lat="45.11985" lon="1.27735">
        <ele>255.6</ele>
        <time>2023-10-28T12:56:57Z</time>
      </trkpt>
      <trkpt lat="45.11986" lon="1.27732">
        <ele>255.7</ele>
        <time>2023-10-28T12:56:58Z</time>
      </trkpt>
      <trkpt lat="45.11987" lon="1.27729">
        <ele>255.8</ele>
        <time>2023-10-28T12:56:59Z</time>
      </trkpt>
      <trkpt lat="45.11988" lon="1.27726">
        <ele>255.9</ele>
        <time>2023-10-28T12:57:00Z</time>
      </trkpt>
      <trkpt lat="45.11989" lon="1.27723">
        <ele>255.9</ele>
        <time>2023-10-28T12:57:01Z</time>
      </trkpt>
      <trkpt lat="45.11989" lon="1.27721">
        <ele>255.9</ele>
        <time>2023-10-28T12:57:02Z</time>
      </trkpt>
      <trkpt lat="45.1199" lon="1.27717">
        <ele>256</ele>
        <time>2023-10-28T12:57:03Z</time>
      </trkpt>
      <trkpt lat="45.1199" lon="1.27714">
        <ele>256</ele>
        <time>2023-10-28T12:57:04Z</time>
      </trkpt>
      <trkpt lat="45.11991" lon="1.27711">
        <ele>256</ele>
        <time>2023-10-28T12:57:05Z</time>
      </trkpt>
      <trkpt lat="45.11991" lon="1.27707">
        <ele>255.9</ele>
        <time>2023-10-28T12:57:06Z</time>
      </trkpt>
      <trkpt lat="45.11992" lon="1.27704">
        <ele>255.9</ele>
        <time>2023-10-28T12:57:07Z</time>
      </trkpt>
      <trkpt lat="45.11992" lon="1.27701">
        <ele>255.9</ele>
        <time>2023-10-28T12:57:08Z</time>
      </trkpt>
      <trkpt lat="45.11993" lon="1.27697">
        <ele>255.8</ele>
        <time>2023-10-28T12:57:09Z</time>
      </trkpt>
      <trkpt lat="45.11993" lon="1.27694">
        <ele>255.8</ele>
        <time>2023-10-28T12:57:10Z</time>
      </trkpt>
      <trkpt lat="45.11994" lon="1.27691">
        <ele>255.7</ele>
        <time>2023-10-28T12:57:11Z</time>
      </trkpt>
      <trkpt lat="45.11995" lon="1.27688">
        <ele>255.7</ele>
        <time>2023-10-28T12:57:12Z</time>
      </trkpt>
      <trkpt lat="45.11996" lon="1.27686">
        <ele>255.7</ele>
        <time>2023-10-28T12:57:13Z</time>
      </trkpt>
      <trkpt lat="45.11997" lon="1.27683">
        <ele>255.7</ele>
        <time>2023-10-28T12:57:14Z</time>
      </trkpt>
      <trkpt lat="45.11998" lon="1.27681">
        <ele>255.7</ele>
        <time>2023-10-28T12:57:15Z</time>
      </trkpt>
      <trkpt lat="45.11998" lon="1.27679">
        <ele>255.7</ele>
        <time>2023-10-28T12:57:16Z</time>
      </trkpt>
      <trkpt lat="45.11999" lon="1.27678">
        <ele>255.7</ele>
        <time>2023-10-28T12:57:17Z</time>
      </trkpt>
      <trkpt lat="45.11999" lon="1.27677">
        <ele>255.7</ele>
        <time>2023-10-28T12:57:18Z</time>
      </trkpt>
      <trkpt lat="45.12" lon="1.27676">
        <ele>255.7</ele>
        <time>2023-10-28T12:57:19Z</time>
      </trkpt>
      <trkpt lat="45.12" lon="1.27675">
        <ele>255.7</ele>
        <time>2023-10-28T12:57:20Z</time>
      </trkpt>
      <trkpt lat="45.12001" lon="1.27673">
        <ele>255.7</ele>
        <time>2023-10-28T12:57:21Z</time>
      </trkpt>
      <trkpt lat="45.12001" lon="1.27672">
        <ele>255.8</ele>
        <time>2023-10-28T12:57:22Z</time>
      </trkpt>
      <trkpt lat="45.12002" lon="1.27669">
        <ele>255.8</ele>
        <time>2023-10-28T12:57:23Z</time>
      </trkpt>
      <trkpt lat="45.12003" lon="1.27667">
        <ele>255.8</ele>
        <time>2023-10-28T12:57:24Z</time>
      </trkpt>
      <trkpt lat="45.12003" lon="1.27663">
        <ele>255.9</ele>
        <time>2023-10-28T12:57:25Z</time>
      </trkpt>
      <trkpt lat="45.12004" lon="1.27659">
        <ele>256</ele>
        <time>2023-10-28T12:57:26Z</time>
      </trkpt>
      <trkpt lat="45.12005" lon="1.27655">
        <ele>256.1</ele>
        <time>2023-10-28T12:57:27Z</time>
      </trkpt>
      <trkpt lat="45.12006" lon="1.27651">
        <ele>256.2</ele>
        <time>2023-10-28T12:57:28Z</time>
      </trkpt>
      <trkpt lat="45.12006" lon="1.27648">
        <ele>256.4</ele>
        <time>2023-10-28T12:57:29Z</time>
      </trkpt>
      <trkpt lat="45.12007" lon="1.27644">
        <ele>256.5</ele>
        <time>2023-10-28T12:57:30Z</time>
      </trkpt>
      <trkpt lat="45.12008" lon="1.27641">
        <ele>256.6</ele>
        <time>2023-10-28T12:57:31Z</time>
      </trkpt>
      <trkpt lat="45.12009" lon="1.27638">
        <ele>256.8</ele>
        <time>2023-10-28T12:57:32Z</time>
      </trkpt>
      <trkpt lat="45.12009" lon="1.27635">
        <ele>256.9</ele>
        <time>2023-10-28T12:57:33Z</time>
      </trkpt>
      <trkpt lat="45.1201" lon="1.27633">
        <ele>257</ele>
        <time>2023-10-28T12:57:34Z</time>
      </trkpt>
      <trkpt lat="45.12011" lon="1.2763">
        <ele>257.1</ele>
        <time>2023-10-28T12:57:35Z</time>
      </trkpt>
      <trkpt lat="45.12012" lon="1.27628">
        <ele>257.2</ele>
        <time>2023-10-28T12:57:36Z</time>
      </trkpt>
      <trkpt lat="45.12013" lon="1.27625">
        <ele>257.4</ele>
        <time>2023-10-28T12:57:37Z</time>
      </trkpt>
      <trkpt lat="45.12013" lon="1.27623">
        <ele>257.5</ele>
        <time>2023-10-28T12:57:38Z</time>
      </trkpt>
      <trkpt lat="45.12014" lon="1.2762">
        <ele>257.6</ele>
        <time>2023-10-28T12:57:39Z</time>
      </trkpt>
      <trkpt lat="45.12015" lon="1.27617">
        <ele>257.7</ele>
        <time>2023-10-28T12:57:40Z</time>
      </trkpt>
      <trkpt lat="45.12016" lon="1.27615">
        <ele>257.9</ele>
        <time>2023-10-28T12:57:41Z</time>
      </trkpt>
      <trkpt lat="45.12017" lon="1.27612">
        <ele>258</ele>
        <time>2023-10-28T12:57:42Z</time>
      </trkpt>
      <trkpt lat="45.12017" lon="1.2761">
        <ele>258.1</ele>
        <time>2023-10-28T12:57:43Z</time>
      </trkpt>
      <trkpt lat="45.12019" lon="1.27607">
        <ele>258.2</ele>
        <time>2023-10-28T12:57:44Z</time>
      </trkpt>
      <trkpt lat="45.12019" lon="1.27605">
        <ele>258.3</ele>
        <time>2023-10-28T12:57:45Z</time>
      </trkpt>
      <trkpt lat="45.1202" lon="1.27602">
        <ele>258.4</ele>
        <time>2023-10-28T12:57:46Z</time>
      </trkpt>
      <trkpt lat="45.12021" lon="1.276">
        <ele>258.6</ele>
        <time>2023-10-28T12:57:47Z</time>
      </trkpt>
      <trkpt lat="45.12022" lon="1.27597">
        <ele>258.7</ele>
        <time>2023-10-28T12:57:48Z</time>
      </trkpt>
      <trkpt lat="45.12022" lon="1.27594">
        <ele>258.8</ele>
        <time>2023-10-28T12:57:49Z</time>
      </trkpt>
      <trkpt lat="45.12023" lon="1.27591">
        <ele>259</ele>
        <time>2023-10-28T12:57:50Z</time>
      </trkpt>
      <trkpt lat="45.12023" lon="1.27588">
        <ele>259.1</ele>
        <time>2023-10-28T12:57:51Z</time>
      </trkpt>
      <trkpt lat="45.12023" lon="1.27585">
        <ele>259.3</ele>
        <time>2023-10-28T12:57:52Z</time>
      </trkpt>
      <trkpt lat="45.12024" lon="1.27582">
        <ele>259.4</ele>
        <time>2023-10-28T12:57:53Z</time>
      </trkpt>
      <trkpt lat="45.12024" lon="1.27579">
        <ele>259.6</ele>
        <time>2023-10-28T12:57:54Z</time>
      </trkpt>
      <trkpt lat="45.12024" lon="1.27576">
        <ele>259.8</ele>
        <time>2023-10-28T12:57:55Z</time>
      </trkpt>
      <trkpt lat="45.12024" lon="1.27573">
        <ele>260</ele>
        <time>2023-10-28T12:57:56Z</time>
      </trkpt>
      <trkpt lat="45.12024" lon="1.2757">
        <ele>260.1</ele>
        <time>2023-10-28T12:57:57Z</time>
      </trkpt>
      <trkpt lat="45.12024" lon="1.27567">
        <ele>260.3</ele>
        <time>2023-10-28T12:57:58Z</time>
      </trkpt>
      <trkpt lat="45.12024" lon="1.27564">
        <ele>260.6</ele>
        <time>2023-10-28T12:57:59Z</time>
      </trkpt>
      <trkpt lat="45.12024" lon="1.27561">
        <ele>260.8</ele>
        <time>2023-10-28T12:58:00Z</time>
      </trkpt>
      <trkpt lat="45.12024" lon="1.27558">
        <ele>261</ele>
        <time>2023-10-28T12:58:01Z</time>
      </trkpt>
      <trkpt lat="45.12024" lon="1.27554">
        <ele>261.2</ele>
        <time>2023-10-28T12:58:02Z</time>
      </trkpt>
      <trkpt lat="45.12024" lon="1.27552">
        <ele>261.5</ele>
        <time>2023-10-28T12:58:03Z</time>
      </trkpt>
      <trkpt lat="45.12024" lon="1.27549">
        <ele>261.7</ele>
        <time>2023-10-28T12:58:04Z</time>
      </trkpt>
      <trkpt lat="45.12024" lon="1.27546">
        <ele>261.9</ele>
        <time>2023-10-28T12:58:05Z</time>
      </trkpt>
      <trkpt lat="45.12024" lon="1.27543">
        <ele>262.1</ele>
        <time>2023-10-28T12:58:06Z</time>
      </trkpt>
      <trkpt lat="45.12024" lon="1.2754">
        <ele>262.3</ele>
        <time>2023-10-28T12:58:07Z</time>
      </trkpt>
      <trkpt lat="45.12024" lon="1.27537">
        <ele>262.5</ele>
        <time>2023-10-28T12:58:08Z</time>
      </trkpt>
      <trkpt lat="45.12025" lon="1.27535">
        <ele>262.7</ele>
        <time>2023-10-28T12:58:09Z</time>
      </trkpt>
      <trkpt lat="45.12025" lon="1.27532">
        <ele>262.9</ele>
        <time>2023-10-28T12:58:10Z</time>
      </trkpt>
      <trkpt lat="45.12025" lon="1.27529">
        <ele>263.1</ele>
        <time>2023-10-28T12:58:11Z</time>
      </trkpt>
      <trkpt lat="45.12025" lon="1.27527">
        <ele>263.3</ele>
        <time>2023-10-28T12:58:12Z</time>
      </trkpt>
      <trkpt lat="45.12026" lon="1.27524">
        <ele>263.5</ele>
        <time>2023-10-28T12:58:13Z</time>
      </trkpt>
      <trkpt lat="45.12026" lon="1.27521">
        <ele>263.7</ele>
        <time>2023-10-28T12:58:14Z</time>
      </trkpt>
      <trkpt lat="45.12027" lon="1.27518">
        <ele>263.9</ele>
        <time>2023-10-28T12:58:15Z</time>
      </trkpt>
      <trkpt lat="45.12027" lon="1.27515">
        <ele>264.1</ele>
        <time>2023-10-28T12:58:16Z</time>
      </trkpt>
      <trkpt lat="45.12027" lon="1.27512">
        <ele>264.3</ele>
        <time>2023-10-28T12:58:17Z</time>
      </trkpt>
      <trkpt lat="45.12027" lon="1.27509">
        <ele>264.6</ele>
        <time>2023-10-28T12:58:18Z</time>
      </trkpt>
      <trkpt lat="45.12027" lon="1.27506">
        <ele>264.8</ele>
        <time>2023-10-28T12:58:19Z</time>
      </trkpt>
      <trkpt lat="45.12028" lon="1.27503">
        <ele>265</ele>
        <time>2023-10-28T12:58:20Z</time>
      </trkpt>
      <trkpt lat="45.12028" lon="1.27499">
        <ele>265.1</ele>
        <time>2023-10-28T12:58:21Z</time>
      </trkpt>
      <trkpt lat="45.12028" lon="1.27496">
        <ele>265.3</ele>
        <time>2023-10-28T12:58:22Z</time>
      </trkpt>
      <trkpt lat="45.12029" lon="1.27493">
        <ele>265.4</ele>
        <time>2023-10-28T12:58:23Z</time>
      </trkpt>
      <trkpt lat="45.12029" lon="1.2749">
        <ele>265.6</ele>
        <time>2023-10-28T12:58:24Z</time>
      </trkpt>
      <trkpt lat="45.12029" lon="1.27486">
        <ele>265.7</ele>
        <time>2023-10-28T12:58:25Z</time>
      </trkpt>
      <trkpt lat="45.12029" lon="1.27483">
        <ele>265.8</ele>
        <time>2023-10-28T12:58:26Z</time>
      </trkpt>
      <trkpt lat="45.12029" lon="1.2748">
        <ele>266</ele>
        <time>2023-10-28T12:58:27Z</time>
      </trkpt>
      <trkpt lat="45.12029" lon="1.27476">
        <ele>266.1</ele>
        <time>2023-10-28T12:58:28Z</time>
      </trkpt>
      <trkpt lat="45.1203" lon="1.27473">
        <ele>266.2</ele>
        <time>2023-10-28T12:58:29Z</time>
      </trkpt>
      <trkpt lat="45.1203" lon="1.2747">
        <ele>266.3</ele>
        <time>2023-10-28T12:58:30Z</time>
      </trkpt>
      <trkpt lat="45.1203" lon="1.27467">
        <ele>266.4</ele>
        <time>2023-10-28T12:58:31Z</time>
      </trkpt>
      <trkpt lat="45.12031" lon="1.27464">
        <ele>266.5</ele>
        <time>2023-10-28T12:58:32Z</time>
      </trkpt>
      <trkpt lat="45.12031" lon="1.2746">
        <ele>266.5</ele>
        <time>2023-10-28T12:58:33Z</time>
      </trkpt>
      <trkpt lat="45.12031" lon="1.27457">
        <ele>266.6</ele>
        <time>2023-10-28T12:58:34Z</time>
      </trkpt>
      <trkpt lat="45.12032" lon="1.27454">
        <ele>266.7</ele>
        <time>2023-10-28T12:58:35Z</time>
      </trkpt>
      <trkpt lat="45.12032" lon="1.2745">
        <ele>266.7</ele>
        <time>2023-10-28T12:58:36Z</time>
      </trkpt>
      <trkpt lat="45.12032" lon="1.27447">
        <ele>266.8</ele>
        <time>2023-10-28T12:58:37Z</time>
      </trkpt>
      <trkpt lat="45.12032" lon="1.27444">
        <ele>266.8</ele>
        <time>2023-10-28T12:58:38Z</time>
      </trkpt>
      <trkpt lat="45.12032" lon="1.2744">
        <ele>266.8</ele>
        <time>2023-10-28T12:58:39Z</time>
      </trkpt>
      <trkpt lat="45.12032" lon="1.27437">
        <ele>266.9</ele>
        <time>2023-10-28T12:58:40Z</time>
      </trkpt>
      <trkpt lat="45.12032" lon="1.27434">
        <ele>266.9</ele>
        <time>2023-10-28T12:58:41Z</time>
      </trkpt>
      <trkpt lat="45.12032" lon="1.2743">
        <ele>266.9</ele>
        <time>2023-10-28T12:58:42Z</time>
      </trkpt>
      <trkpt lat="45.12032" lon="1.27427">
        <ele>266.9</ele>
        <time>2023-10-28T12:58:43Z</time>
      </trkpt>
      <trkpt lat="45.12032" lon="1.27423">
        <ele>266.9</ele>
        <time>2023-10-28T12:58:44Z</time>
      </trkpt>
      <trkpt lat="45.12032" lon="1.2742">
        <ele>266.9</ele>
        <time>2023-10-28T12:58:45Z</time>
      </trkpt>
      <trkpt lat="45.12032" lon="1.27416">
        <ele>266.9</ele>
        <time>2023-10-28T12:58:46Z</time>
      </trkpt>
      <trkpt lat="45.12032" lon="1.27412">
        <ele>266.9</ele>
        <time>2023-10-28T12:58:47Z</time>
      </trkpt>
      <trkpt lat="45.12032" lon="1.27409">
        <ele>266.8</ele>
        <time>2023-10-28T12:58:48Z</time>
      </trkpt>
      <trkpt lat="45.12032" lon="1.27405">
        <ele>266.8</ele>
        <time>2023-10-28T12:58:49Z</time>
      </trkpt>
      <trkpt lat="45.12032" lon="1.27401">
        <ele>266.7</ele>
        <time>2023-10-28T12:58:50Z</time>
      </trkpt>
      <trkpt lat="45.12032" lon="1.27398">
        <ele>266.6</ele>
        <time>2023-10-28T12:58:51Z</time>
      </trkpt>
      <trkpt lat="45.12032" lon="1.27394">
        <ele>266.5</ele>
        <time>2023-10-28T12:58:52Z</time>
      </trkpt>
      <trkpt lat="45.12032" lon="1.2739">
        <ele>266.4</ele>
        <time>2023-10-28T12:58:53Z</time>
      </trkpt>
      <trkpt lat="45.12032" lon="1.27386">
        <ele>266.3</ele>
        <time>2023-10-28T12:58:54Z</time>
      </trkpt>
      <trkpt lat="45.12032" lon="1.27383">
        <ele>266.2</ele>
        <time>2023-10-28T12:58:55Z</time>
      </trkpt>
      <trkpt lat="45.12032" lon="1.27379">
        <ele>266</ele>
        <time>2023-10-28T12:58:56Z</time>
      </trkpt>
      <trkpt lat="45.12032" lon="1.27375">
        <ele>265.9</ele>
        <time>2023-10-28T12:58:57Z</time>
      </trkpt>
      <trkpt lat="45.12032" lon="1.27371">
        <ele>265.7</ele>
        <time>2023-10-28T12:58:58Z</time>
      </trkpt>
      <trkpt lat="45.12032" lon="1.27368">
        <ele>265.6</ele>
        <time>2023-10-28T12:58:59Z</time>
      </trkpt>
      <trkpt lat="45.12033" lon="1.27364">
        <ele>265.4</ele>
        <time>2023-10-28T12:59:00Z</time>
      </trkpt>
      <trkpt lat="45.12033" lon="1.2736">
        <ele>265.2</ele>
        <time>2023-10-28T12:59:01Z</time>
      </trkpt>
      <trkpt lat="45.12033" lon="1.27356">
        <ele>265</ele>
        <time>2023-10-28T12:59:02Z</time>
      </trkpt>
      <trkpt lat="45.12033" lon="1.27352">
        <ele>264.8</ele>
        <time>2023-10-28T12:59:03Z</time>
      </trkpt>
      <trkpt lat="45.12032" lon="1.27348">
        <ele>264.7</ele>
        <time>2023-10-28T12:59:04Z</time>
      </trkpt>
      <trkpt lat="45.12032" lon="1.27344">
        <ele>264.5</ele>
        <time>2023-10-28T12:59:05Z</time>
      </trkpt>
      <trkpt lat="45.12032" lon="1.2734">
        <ele>264.3</ele>
        <time>2023-10-28T12:59:06Z</time>
      </trkpt>
      <trkpt lat="45.12031" lon="1.27337">
        <ele>264.1</ele>
        <time>2023-10-28T12:59:07Z</time>
      </trkpt>
      <trkpt lat="45.1203" lon="1.27333">
        <ele>263.9</ele>
        <time>2023-10-28T12:59:08Z</time>
      </trkpt>
      <trkpt lat="45.12029" lon="1.27329">
        <ele>263.7</ele>
        <time>2023-10-28T12:59:09Z</time>
      </trkpt>
      <trkpt lat="45.12029" lon="1.27325">
        <ele>263.5</ele>
        <time>2023-10-28T12:59:10Z</time>
      </trkpt>
      <trkpt lat="45.12027" lon="1.27321">
        <ele>263.3</ele>
        <time>2023-10-28T12:59:11Z</time>
      </trkpt>
      <trkpt lat="45.12026" lon="1.27317">
        <ele>263.1</ele>
        <time>2023-10-28T12:59:12Z</time>
      </trkpt>
      <trkpt lat="45.12025" lon="1.27314">
        <ele>262.9</ele>
        <time>2023-10-28T12:59:13Z</time>
      </trkpt>
      <trkpt lat="45.12024" lon="1.2731">
        <ele>262.7</ele>
        <time>2023-10-28T12:59:14Z</time>
      </trkpt>
      <trkpt lat="45.12023" lon="1.27306">
        <ele>262.5</ele>
        <time>2023-10-28T12:59:15Z</time>
      </trkpt>
      <trkpt lat="45.12022" lon="1.27302">
        <ele>262.3</ele>
        <time>2023-10-28T12:59:16Z</time>
      </trkpt>
      <trkpt lat="45.12021" lon="1.27298">
        <ele>262.1</ele>
        <time>2023-10-28T12:59:17Z</time>
      </trkpt>
      <trkpt lat="45.1202" lon="1.27294">
        <ele>261.9</ele>
        <time>2023-10-28T12:59:18Z</time>
      </trkpt>
      <trkpt lat="45.12019" lon="1.2729">
        <ele>261.7</ele>
        <time>2023-10-28T12:59:19Z</time>
      </trkpt>
      <trkpt lat="45.12017" lon="1.27286">
        <ele>261.4</ele>
        <time>2023-10-28T12:59:20Z</time>
      </trkpt>
      <trkpt lat="45.12017" lon="1.27283">
        <ele>261.2</ele>
        <time>2023-10-28T12:59:21Z</time>
      </trkpt>
      <trkpt lat="45.12016" lon="1.27279">
        <ele>261</ele>
        <time>2023-10-28T12:59:22Z</time>
      </trkpt>
      <trkpt lat="45.12015" lon="1.27275">
        <ele>260.9</ele>
        <time>2023-10-28T12:59:23Z</time>
      </trkpt>
      <trkpt lat="45.12013" lon="1.27271">
        <ele>260.7</ele>
        <time>2023-10-28T12:59:24Z</time>
      </trkpt>
      <trkpt lat="45.12013" lon="1.27267">
        <ele>260.5</ele>
        <time>2023-10-28T12:59:25Z</time>
      </trkpt>
      <trkpt lat="45.12011" lon="1.27264">
        <ele>260.3</ele>
        <time>2023-10-28T12:59:26Z</time>
      </trkpt>
      <trkpt lat="45.1201" lon="1.2726">
        <ele>260.2</ele>
        <time>2023-10-28T12:59:27Z</time>
      </trkpt>
      <trkpt lat="45.12009" lon="1.27257">
        <ele>260</ele>
        <time>2023-10-28T12:59:28Z</time>
      </trkpt>
      <trkpt lat="45.12008" lon="1.27253">
        <ele>259.8</ele>
        <time>2023-10-28T12:59:29Z</time>
      </trkpt>
      <trkpt lat="45.12006" lon="1.2725">
        <ele>259.7</ele>
        <time>2023-10-28T12:59:30Z</time>
      </trkpt>
      <trkpt lat="45.12005" lon="1.27246">
        <ele>259.5</ele>
        <time>2023-10-28T12:59:31Z</time>
      </trkpt>
      <trkpt lat="45.12003" lon="1.27243">
        <ele>259.4</ele>
        <time>2023-10-28T12:59:32Z</time>
      </trkpt>
      <trkpt lat="45.12001" lon="1.2724">
        <ele>259.2</ele>
        <time>2023-10-28T12:59:33Z</time>
      </trkpt>
      <trkpt lat="45.12" lon="1.27237">
        <ele>259.1</ele>
        <time>2023-10-28T12:59:34Z</time>
      </trkpt>
      <trkpt lat="45.11998" lon="1.27234">
        <ele>258.9</ele>
        <time>2023-10-28T12:59:35Z</time>
      </trkpt>
      <trkpt lat="45.11997" lon="1.27231">
        <ele>258.8</ele>
        <time>2023-10-28T12:59:36Z</time>
      </trkpt>
      <trkpt lat="45.11995" lon="1.27228">
        <ele>258.6</ele>
        <time>2023-10-28T12:59:37Z</time>
      </trkpt>
      <trkpt lat="45.11993" lon="1.27226">
        <ele>258.4</ele>
        <time>2023-10-28T12:59:38Z</time>
      </trkpt>
      <trkpt lat="45.11991" lon="1.27223">
        <ele>258.3</ele>
        <time>2023-10-28T12:59:39Z</time>
      </trkpt>
      <trkpt lat="45.11989" lon="1.2722">
        <ele>258.1</ele>
        <time>2023-10-28T12:59:40Z</time>
      </trkpt>
      <trkpt lat="45.11987" lon="1.27218">
        <ele>257.9</ele>
        <time>2023-10-28T12:59:41Z</time>
      </trkpt>
      <trkpt lat="45.11985" lon="1.27215">
        <ele>257.7</ele>
        <time>2023-10-28T12:59:42Z</time>
      </trkpt>
      <trkpt lat="45.11984" lon="1.27212">
        <ele>257.6</ele>
        <time>2023-10-28T12:59:43Z</time>
      </trkpt>
      <trkpt lat="45.11982" lon="1.27209">
        <ele>257.4</ele>
        <time>2023-10-28T12:59:44Z</time>
      </trkpt>
      <trkpt lat="45.1198" lon="1.27206">
        <ele>257.2</ele>
        <time>2023-10-28T12:59:45Z</time>
      </trkpt>
      <trkpt lat="45.11979" lon="1.27203">
        <ele>257</ele>
        <time>2023-10-28T12:59:46Z</time>
      </trkpt>
      <trkpt lat="45.11977" lon="1.272">
        <ele>256.8</ele>
        <time>2023-10-28T12:59:47Z</time>
      </trkpt>
      <trkpt lat="45.11975" lon="1.27197">
        <ele>256.6</ele>
        <time>2023-10-28T12:59:48Z</time>
      </trkpt>
      <trkpt lat="45.11974" lon="1.27194">
        <ele>256.4</ele>
        <time>2023-10-28T12:59:49Z</time>
      </trkpt>
      <trkpt lat="45.11972" lon="1.2719">
        <ele>256.2</ele>
        <time>2023-10-28T12:59:50Z</time>
      </trkpt>
      <trkpt lat="45.1197" lon="1.27187">
        <ele>256</ele>
        <time>2023-10-28T12:59:51Z</time>
      </trkpt>
      <trkpt lat="45.11969" lon="1.27184">
        <ele>255.8</ele>
        <time>2023-10-28T12:59:52Z</time>
      </trkpt>
      <trkpt lat="45.11967" lon="1.2718">
        <ele>255.6</ele>
        <time>2023-10-28T12:59:53Z</time>
      </trkpt>
      <trkpt lat="45.11966" lon="1.27177">
        <ele>255.4</ele>
        <time>2023-10-28T12:59:54Z</time>
      </trkpt>
      <trkpt lat="45.11964" lon="1.27173">
        <ele>255.2</ele>
        <time>2023-10-28T12:59:55Z</time>
      </trkpt>
      <trkpt lat="45.11963" lon="1.2717">
        <ele>254.9</ele>
        <time>2023-10-28T12:59:56Z</time>
      </trkpt>
      <trkpt lat="45.11961" lon="1.27166">
        <ele>254.7</ele>
        <time>2023-10-28T12:59:57Z</time>
      </trkpt>
      <trkpt lat="45.1196" lon="1.27162">
        <ele>254.5</ele>
        <time>2023-10-28T12:59:58Z</time>
      </trkpt>
      <trkpt lat="45.11958" lon="1.27159">
        <ele>254.2</ele>
        <time>2023-10-28T12:59:59Z</time>
      </trkpt>
      <trkpt lat="45.11956" lon="1.27155">
        <ele>254</ele>
        <time>2023-10-28T13:00:00Z</time>
      </trkpt>
      <trkpt lat="45.11955" lon="1.27151">
        <ele>253.8</ele>
        <time>2023-10-28T13:00:01Z</time>
      </trkpt>
      <trkpt lat="45.11954" lon="1.27148">
        <ele>253.5</ele>
        <time>2023-10-28T13:00:02Z</time>
      </trkpt>
      <trkpt lat="45.11952" lon="1.27144">
        <ele>253.3</ele>
        <time>2023-10-28T13:00:03Z</time>
      </trkpt>
      <trkpt lat="45.11951" lon="1.2714">
        <ele>253.1</ele>
        <time>2023-10-28T13:00:04Z</time>
      </trkpt>
      <trkpt lat="45.1195" lon="1.27137">
        <ele>252.8</ele>
        <time>2023-10-28T13:00:05Z</time>
      </trkpt>
      <trkpt lat="45.11948" lon="1.27133">
        <ele>252.6</ele>
        <time>2023-10-28T13:00:06Z</time>
      </trkpt>
      <trkpt lat="45.11947" lon="1.27129">
        <ele>252.3</ele>
        <time>2023-10-28T13:00:07Z</time>
      </trkpt>
      <trkpt lat="45.11945" lon="1.27126">
        <ele>252</ele>
        <time>2023-10-28T13:00:08Z</time>
      </trkpt>
      <trkpt lat="45.11944" lon="1.27122">
        <ele>251.8</ele>
        <time>2023-10-28T13:00:09Z</time>
      </trkpt>
      <trkpt lat="45.11943" lon="1.27118">
        <ele>251.5</ele>
        <time>2023-10-28T13:00:10Z</time>
      </trkpt>
      <trkpt lat="45.11941" lon="1.27115">
        <ele>251.3</ele>
        <time>2023-10-28T13:00:11Z</time>
      </trkpt>
      <trkpt lat="45.1194" lon="1.27111">
        <ele>251</ele>
        <time>2023-10-28T13:00:12Z</time>
      </trkpt>
      <trkpt lat="45.11939" lon="1.27107">
        <ele>250.7</ele>
        <time>2023-10-28T13:00:13Z</time>
      </trkpt>
      <trkpt lat="45.11937" lon="1.27104">
        <ele>250.5</ele>
        <time>2023-10-28T13:00:14Z</time>
      </trkpt>
      <trkpt lat="45.11936" lon="1.271">
        <ele>250.2</ele>
        <time>2023-10-28T13:00:15Z</time>
      </trkpt>
      <trkpt lat="45.11935" lon="1.27096">
        <ele>249.9</ele>
        <time>2023-10-28T13:00:16Z</time>
      </trkpt>
      <trkpt lat="45.11934" lon="1.27092">
        <ele>249.6</ele>
        <time>2023-10-28T13:00:17Z</time>
      </trkpt>
      <trkpt lat="45.11932" lon="1.27089">
        <ele>249.4</ele>
        <time>2023-10-28T13:00:18Z</time>
      </trkpt>
      <trkpt lat="45.11931" lon="1.27085">
        <ele>249.1</ele>
        <time>2023-10-28T13:00:19Z</time>
      </trkpt>
      <trkpt lat="45.11931" lon="1.27081">
        <ele>248.8</ele>
        <time>2023-10-28T13:00:20Z</time>
      </trkpt>
      <trkpt lat="45.11929" lon="1.27078">
        <ele>248.6</ele>
        <time>2023-10-28T13:00:21Z</time>
      </trkpt>
      <trkpt lat="45.11928" lon="1.27074">
        <ele>248.3</ele>
        <time>2023-10-28T13:00:22Z</time>
      </trkpt>
      <trkpt lat="45.11927" lon="1.2707">
        <ele>248</ele>
        <time>2023-10-28T13:00:23Z</time>
      </trkpt>
      <trkpt lat="45.11926" lon="1.27066">
        <ele>247.7</ele>
        <time>2023-10-28T13:00:24Z</time>
      </trkpt>
      <trkpt lat="45.11924" lon="1.27062">
        <ele>247.4</ele>
        <time>2023-10-28T13:00:25Z</time>
      </trkpt>
      <trkpt lat="45.11923" lon="1.27058">
        <ele>247.1</ele>
        <time>2023-10-28T13:00:26Z</time>
      </trkpt>
      <trkpt lat="45.11922" lon="1.27055">
        <ele>246.9</ele>
        <time>2023-10-28T13:00:27Z</time>
      </trkpt>
      <trkpt lat="45.11921" lon="1.27051">
        <ele>246.6</ele>
        <time>2023-10-28T13:00:28Z</time>
      </trkpt>
      <trkpt lat="45.11919" lon="1.27047">
        <ele>246.3</ele>
        <time>2023-10-28T13:00:29Z</time>
      </trkpt>
      <trkpt lat="45.11918" lon="1.27043">
        <ele>246</ele>
        <time>2023-10-28T13:00:30Z</time>
      </trkpt>
      <trkpt lat="45.11917" lon="1.2704">
        <ele>245.8</ele>
        <time>2023-10-28T13:00:31Z</time>
      </trkpt>
      <trkpt lat="45.11915" lon="1.27036">
        <ele>245.5</ele>
        <time>2023-10-28T13:00:32Z</time>
      </trkpt>
      <trkpt lat="45.11914" lon="1.27032">
        <ele>245.2</ele>
        <time>2023-10-28T13:00:33Z</time>
      </trkpt>
      <trkpt lat="45.11912" lon="1.27028">
        <ele>244.9</ele>
        <time>2023-10-28T13:00:34Z</time>
      </trkpt>
      <trkpt lat="45.11911" lon="1.27024">
        <ele>244.6</ele>
        <time>2023-10-28T13:00:35Z</time>
      </trkpt>
      <trkpt lat="45.11909" lon="1.27021">
        <ele>244.3</ele>
        <time>2023-10-28T13:00:36Z</time>
      </trkpt>
      <trkpt lat="45.11908" lon="1.27017">
        <ele>244</ele>
        <time>2023-10-28T13:00:37Z</time>
      </trkpt>
      <trkpt lat="45.11906" lon="1.27013">
        <ele>243.6</ele>
        <time>2023-10-28T13:00:38Z</time>
      </trkpt>
      <trkpt lat="45.11905" lon="1.27009">
        <ele>243.3</ele>
        <time>2023-10-28T13:00:39Z</time>
      </trkpt>
      <trkpt lat="45.11903" lon="1.27005">
        <ele>243</ele>
        <time>2023-10-28T13:00:40Z</time>
      </trkpt>
      <trkpt lat="45.11902" lon="1.27001">
        <ele>242.6</ele>
        <time>2023-10-28T13:00:41Z</time>
      </trkpt>
      <trkpt lat="45.11901" lon="1.26997">
        <ele>242.3</ele>
        <time>2023-10-28T13:00:42Z</time>
      </trkpt>
      <trkpt lat="45.119" lon="1.26993">
        <ele>242</ele>
        <time>2023-10-28T13:00:43Z</time>
      </trkpt>
      <trkpt lat="45.11899" lon="1.26988">
        <ele>241.6</ele>
        <time>2023-10-28T13:00:44Z</time>
      </trkpt>
      <trkpt lat="45.11898" lon="1.26984">
        <ele>241.3</ele>
        <time>2023-10-28T13:00:45Z</time>
      </trkpt>
      <trkpt lat="45.11898" lon="1.2698">
        <ele>241</ele>
        <time>2023-10-28T13:00:46Z</time>
      </trkpt>
      <trkpt lat="45.11897" lon="1.26975">
        <ele>240.7</ele>
        <time>2023-10-28T13:00:47Z</time>
      </trkpt>
      <trkpt lat="45.11896" lon="1.26971">
        <ele>240.4</ele>
        <time>2023-10-28T13:00:48Z</time>
      </trkpt>
      <trkpt lat="45.11895" lon="1.26967">
        <ele>240.1</ele>
        <time>2023-10-28T13:00:49Z</time>
      </trkpt>
      <trkpt lat="45.11895" lon="1.26964">
        <ele>239.8</ele>
        <time>2023-10-28T13:00:50Z</time>
      </trkpt>
      <trkpt lat="45.11894" lon="1.2696">
        <ele>239.6</ele>
        <time>2023-10-28T13:00:51Z</time>
      </trkpt>
      <trkpt lat="45.11893" lon="1.26957">
        <ele>239.3</ele>
        <time>2023-10-28T13:00:52Z</time>
      </trkpt>
      <trkpt lat="45.11892" lon="1.26953">
        <ele>239.1</ele>
        <time>2023-10-28T13:00:53Z</time>
      </trkpt>
      <trkpt lat="45.1189" lon="1.2695">
        <ele>238.8</ele>
        <time>2023-10-28T13:00:54Z</time>
      </trkpt>
      <trkpt lat="45.11889" lon="1.26946">
        <ele>238.5</ele>
        <time>2023-10-28T13:00:55Z</time>
      </trkpt>
      <trkpt lat="45.11887" lon="1.26942">
        <ele>238.3</ele>
        <time>2023-10-28T13:00:56Z</time>
      </trkpt>
      <trkpt lat="45.11885" lon="1.26938">
        <ele>238</ele>
        <time>2023-10-28T13:00:57Z</time>
      </trkpt>
      <trkpt lat="45.11884" lon="1.26934">
        <ele>237.7</ele>
        <time>2023-10-28T13:00:58Z</time>
      </trkpt>
      <trkpt lat="45.11882" lon="1.2693">
        <ele>237.5</ele>
        <time>2023-10-28T13:00:59Z</time>
      </trkpt>
      <trkpt lat="45.1188" lon="1.26926">
        <ele>237.2</ele>
        <time>2023-10-28T13:01:00Z</time>
      </trkpt>
      <trkpt lat="45.11878" lon="1.26922">
        <ele>236.9</ele>
        <time>2023-10-28T13:01:01Z</time>
      </trkpt>
      <trkpt lat="45.11876" lon="1.26917">
        <ele>236.7</ele>
        <time>2023-10-28T13:01:02Z</time>
      </trkpt>
      <trkpt lat="45.11874" lon="1.26913">
        <ele>236.4</ele>
        <time>2023-10-28T13:01:03Z</time>
      </trkpt>
      <trkpt lat="45.11873" lon="1.26909">
        <ele>236.2</ele>
        <time>2023-10-28T13:01:04Z</time>
      </trkpt>
      <trkpt lat="45.11871" lon="1.26905">
        <ele>236</ele>
        <time>2023-10-28T13:01:05Z</time>
      </trkpt>
      <trkpt lat="45.11869" lon="1.269">
        <ele>235.7</ele>
        <time>2023-10-28T13:01:06Z</time>
      </trkpt>
      <trkpt lat="45.11867" lon="1.26896">
        <ele>235.5</ele>
        <time>2023-10-28T13:01:07Z</time>
      </trkpt>
      <trkpt lat="45.11865" lon="1.26892">
        <ele>235.3</ele>
        <time>2023-10-28T13:01:08Z</time>
      </trkpt>
      <trkpt lat="45.11863" lon="1.26888">
        <ele>235.2</ele>
        <time>2023-10-28T13:01:09Z</time>
      </trkpt>
      <trkpt lat="45.11861" lon="1.26884">
        <ele>235</ele>
        <time>2023-10-28T13:01:10Z</time>
      </trkpt>
      <trkpt lat="45.11859" lon="1.26881">
        <ele>234.9</ele>
        <time>2023-10-28T13:01:11Z</time>
      </trkpt>
      <trkpt lat="45.11857" lon="1.26877">
        <ele>234.8</ele>
        <time>2023-10-28T13:01:12Z</time>
      </trkpt>
      <trkpt lat="45.11856" lon="1.26874">
        <ele>234.8</ele>
        <time>2023-10-28T13:01:13Z</time>
      </trkpt>
      <trkpt lat="45.11854" lon="1.26871">
        <ele>234.7</ele>
        <time>2023-10-28T13:01:14Z</time>
      </trkpt>
      <trkpt lat="45.11852" lon="1.26868">
        <ele>234.7</ele>
        <time>2023-10-28T13:01:15Z</time>
      </trkpt>
      <trkpt lat="45.1185" lon="1.26865">
        <ele>234.6</ele>
        <time>2023-10-28T13:01:16Z</time>
      </trkpt>
      <trkpt lat="45.11848" lon="1.26862">
        <ele>234.6</ele>
        <time>2023-10-28T13:01:17Z</time>
      </trkpt>
      <trkpt lat="45.11846" lon="1.26859">
        <ele>234.6</ele>
        <time>2023-10-28T13:01:18Z</time>
      </trkpt>
      <trkpt lat="45.11844" lon="1.26856">
        <ele>234.6</ele>
        <time>2023-10-28T13:01:19Z</time>
      </trkpt>
      <trkpt lat="45.11842" lon="1.26853">
        <ele>234.7</ele>
        <time>2023-10-28T13:01:20Z</time>
      </trkpt>
      <trkpt lat="45.1184" lon="1.2685">
        <ele>234.7</ele>
        <time>2023-10-28T13:01:21Z</time>
      </trkpt>
      <trkpt lat="45.11838" lon="1.26848">
        <ele>234.7</ele>
        <time>2023-10-28T13:01:22Z</time>
      </trkpt>
      <trkpt lat="45.11836" lon="1.26846">
        <ele>234.8</ele>
        <time>2023-10-28T13:01:23Z</time>
      </trkpt>
      <trkpt lat="45.11834" lon="1.26843">
        <ele>234.8</ele>
        <time>2023-10-28T13:01:24Z</time>
      </trkpt>
      <trkpt lat="45.11832" lon="1.26841">
        <ele>234.9</ele>
        <time>2023-10-28T13:01:25Z</time>
      </trkpt>
      <trkpt lat="45.11831" lon="1.26838">
        <ele>234.9</ele>
        <time>2023-10-28T13:01:26Z</time>
      </trkpt>
      <trkpt lat="45.11829" lon="1.26836">
        <ele>234.9</ele>
        <time>2023-10-28T13:01:27Z</time>
      </trkpt>
      <trkpt lat="45.11826" lon="1.26833">
        <ele>235</ele>
        <time>2023-10-28T13:01:28Z</time>
      </trkpt>
      <trkpt lat="45.11824" lon="1.26831">
        <ele>235</ele>
        <time>2023-10-28T13:01:29Z</time>
      </trkpt>
      <trkpt lat="45.11822" lon="1.26828">
        <ele>235.1</ele>
        <time>2023-10-28T13:01:30Z</time>
      </trkpt>
      <trkpt lat="45.11819" lon="1.26825">
        <ele>235.1</ele>
        <time>2023-10-28T13:01:31Z</time>
      </trkpt>
      <trkpt lat="45.11817" lon="1.26822">
        <ele>235.1</ele>
        <time>2023-10-28T13:01:32Z</time>
      </trkpt>
      <trkpt lat="45.11814" lon="1.26819">
        <ele>235.1</ele>
        <time>2023-10-28T13:01:33Z</time>
      </trkpt>
      <trkpt lat="45.11812" lon="1.26816">
        <ele>235</ele>
        <time>2023-10-28T13:01:34Z</time>
      </trkpt>
      <trkpt lat="45.1181" lon="1.26814">
        <ele>235</ele>
        <time>2023-10-28T13:01:35Z</time>
      </trkpt>
      <trkpt lat="45.11808" lon="1.26811">
        <ele>235</ele>
        <time>2023-10-28T13:01:36Z</time>
      </trkpt>
      <trkpt lat="45.11807" lon="1.26808">
        <ele>234.9</ele>
        <time>2023-10-28T13:01:37Z</time>
      </trkpt>
      <trkpt lat="45.11805" lon="1.26806">
        <ele>234.9</ele>
        <time>2023-10-28T13:01:38Z</time>
      </trkpt>
      <trkpt lat="45.11803" lon="1.26803">
        <ele>234.8</ele>
        <time>2023-10-28T13:01:39Z</time>
      </trkpt>
      <trkpt lat="45.11801" lon="1.26801">
        <ele>234.7</ele>
        <time>2023-10-28T13:01:40Z</time>
      </trkpt>
      <trkpt lat="45.11799" lon="1.26798">
        <ele>234.7</ele>
        <time>2023-10-28T13:01:41Z</time>
      </trkpt>
      <trkpt lat="45.11797" lon="1.26796">
        <ele>234.6</ele>
        <time>2023-10-28T13:01:42Z</time>
      </trkpt>
      <trkpt lat="45.11795" lon="1.26793">
        <ele>234.5</ele>
        <time>2023-10-28T13:01:43Z</time>
      </trkpt>
      <trkpt lat="45.11793" lon="1.26791">
        <ele>234.4</ele>
        <time>2023-10-28T13:01:44Z</time>
      </trkpt>
      <trkpt lat="45.11791" lon="1.26789">
        <ele>234.3</ele>
        <time>2023-10-28T13:01:45Z</time>
      </trkpt>
      <trkpt lat="45.11789" lon="1.26786">
        <ele>234.1</ele>
        <time>2023-10-28T13:01:46Z</time>
      </trkpt>
      <trkpt lat="45.11787" lon="1.26784">
        <ele>234</ele>
        <time>2023-10-28T13:01:47Z</time>
      </trkpt>
      <trkpt lat="45.11784" lon="1.26782">
        <ele>233.8</ele>
        <time>2023-10-28T13:01:48Z</time>
      </trkpt>
      <trkpt lat="45.11782" lon="1.2678">
        <ele>233.7</ele>
        <time>2023-10-28T13:01:49Z</time>
      </trkpt>
      <trkpt lat="45.1178" lon="1.26778">
        <ele>233.5</ele>
        <time>2023-10-28T13:01:50Z</time>
      </trkpt>
      <trkpt lat="45.11778" lon="1.26776">
        <ele>233.4</ele>
        <time>2023-10-28T13:01:51Z</time>
      </trkpt>
      <trkpt lat="45.11776" lon="1.26774">
        <ele>233.3</ele>
        <time>2023-10-28T13:01:52Z</time>
      </trkpt>
      <trkpt lat="45.11774" lon="1.26772">
        <ele>233.1</ele>
        <time>2023-10-28T13:01:53Z</time>
      </trkpt>
      <trkpt lat="45.11772" lon="1.26769">
        <ele>233</ele>
        <time>2023-10-28T13:01:54Z</time>
      </trkpt>
      <trkpt lat="45.1177" lon="1.26767">
        <ele>232.8</ele>
        <time>2023-10-28T13:01:55Z</time>
      </trkpt>
      <trkpt lat="45.11768" lon="1.26764">
        <ele>232.7</ele>
        <time>2023-10-28T13:01:56Z</time>
      </trkpt>
      <trkpt lat="45.11766" lon="1.26762">
        <ele>232.5</ele>
        <time>2023-10-28T13:01:57Z</time>
      </trkpt>
      <trkpt lat="45.11764" lon="1.26759">
        <ele>232.4</ele>
        <time>2023-10-28T13:01:58Z</time>
      </trkpt>
      <trkpt lat="45.11762" lon="1.26756">
        <ele>232.2</ele>
        <time>2023-10-28T13:01:59Z</time>
      </trkpt>
      <trkpt lat="45.1176" lon="1.26753">
        <ele>232.1</ele>
        <time>2023-10-28T13:02:00Z</time>
      </trkpt>
      <trkpt lat="45.11758" lon="1.26751">
        <ele>231.9</ele>
        <time>2023-10-28T13:02:01Z</time>
      </trkpt>
      <trkpt lat="45.11756" lon="1.26748">
        <ele>231.8</ele>
        <time>2023-10-28T13:02:02Z</time>
      </trkpt>
      <trkpt lat="45.11754" lon="1.26745">
        <ele>231.7</ele>
        <time>2023-10-28T13:02:03Z</time>
      </trkpt>
      <trkpt lat="45.11753" lon="1.26742">
        <ele>231.6</ele>
        <time>2023-10-28T13:02:04Z</time>
      </trkpt>
      <trkpt lat="45.11751" lon="1.26739">
        <ele>231.4</ele>
        <time>2023-10-28T13:02:05Z</time>
      </trkpt>
      <trkpt lat="45.11749" lon="1.26736">
        <ele>231.3</ele>
        <time>2023-10-28T13:02:06Z</time>
      </trkpt>
      <trkpt lat="45.11747" lon="1.26733">
        <ele>231.1</ele>
        <time>2023-10-28T13:02:07Z</time>
      </trkpt>
      <trkpt lat="45.11746" lon="1.2673">
        <ele>231</ele>
        <time>2023-10-28T13:02:08Z</time>
      </trkpt>
      <trkpt lat="45.11744" lon="1.26727">
        <ele>230.8</ele>
        <time>2023-10-28T13:02:09Z</time>
      </trkpt>
      <trkpt lat="45.11742" lon="1.26724">
        <ele>230.6</ele>
        <time>2023-10-28T13:02:10Z</time>
      </trkpt>
      <trkpt lat="45.11739" lon="1.26721">
        <ele>230.4</ele>
        <time>2023-10-28T13:02:11Z</time>
      </trkpt>
      <trkpt lat="45.11738" lon="1.26718">
        <ele>230.3</ele>
        <time>2023-10-28T13:02:12Z</time>
      </trkpt>
      <trkpt lat="45.11736" lon="1.26715">
        <ele>230.1</ele>
        <time>2023-10-28T13:02:13Z</time>
      </trkpt>
      <trkpt lat="45.11734" lon="1.26712">
        <ele>229.9</ele>
        <time>2023-10-28T13:02:14Z</time>
      </trkpt>
      <trkpt lat="45.11733" lon="1.26709">
        <ele>229.6</ele>
        <time>2023-10-28T13:02:15Z</time>
      </trkpt>
      <trkpt lat="45.11731" lon="1.26706">
        <ele>229.4</ele>
        <time>2023-10-28T13:02:16Z</time>
      </trkpt>
      <trkpt lat="45.11729" lon="1.26703">
        <ele>229.1</ele>
        <time>2023-10-28T13:02:17Z</time>
      </trkpt>
      <trkpt lat="45.11726" lon="1.267">
        <ele>228.8</ele>
        <time>2023-10-28T13:02:18Z</time>
      </trkpt>
      <trkpt lat="45.11725" lon="1.26697">
        <ele>228.6</ele>
        <time>2023-10-28T13:02:19Z</time>
      </trkpt>
      <trkpt lat="45.11722" lon="1.26694">
        <ele>228.2</ele>
        <time>2023-10-28T13:02:20Z</time>
      </trkpt>
      <trkpt lat="45.1172" lon="1.26691">
        <ele>227.9</ele>
        <time>2023-10-28T13:02:21Z</time>
      </trkpt>
      <trkpt lat="45.11718" lon="1.26689">
        <ele>227.7</ele>
        <time>2023-10-28T13:02:22Z</time>
      </trkpt>
      <trkpt lat="45.11716" lon="1.26687">
        <ele>227.4</ele>
        <time>2023-10-28T13:02:23Z</time>
      </trkpt>
      <trkpt lat="45.11716" lon="1.26687">
        <ele>227.4</ele>
        <time>2023-10-28T13:02:24Z</time>
      </trkpt>
      <trkpt lat="45.11716" lon="1.26687">
        <ele>227.4</ele>
        <time>2023-10-28T13:02:25Z</time>
      </trkpt>
      <trkpt lat="45.11716" lon="1.26687">
        <ele>227.4</ele>
        <time>2023-10-28T13:02:26Z</time>
      </trkpt>
      <trkpt lat="45.11716" lon="1.26687">
        <ele>227.4</ele>
        <time>2023-10-28T13:02:27Z</time>
      </trkpt>
      <trkpt lat="45.11716" lon="1.26687">
        <ele>227.4</ele>
        <time>2023-10-28T13:02:28Z</time>
      </trkpt>
      <trkpt lat="45.11716" lon="1.26687">
        <ele>227.4</ele>
        <time>2023-10-28T13:02:29Z</time>
      </trkpt>
      <trkpt lat="45.11716" lon="1.26687">
        <ele>227.4</ele>
        <time>2023-10-28T13:02:30Z</time>
      </trkpt>
      <trkpt lat="45.11716" lon="1.26687">
        <ele>227.4</ele>
        <time>2023-10-28T13:02:31Z</time>
      </trkpt>
      <trkpt lat="45.11716" lon="1.26687">
        <ele>227.4</ele>
        <time>2023-10-28T13:02:32Z</time>
      </trkpt>
      <trkpt lat="45.11716" lon="1.26687">
        <ele>227.4</ele>
        <time>2023-10-28T13:02:33Z</time>
      </trkpt>
      <trkpt lat="45.11716" lon="1.26687">
        <ele>227.4</ele>
        <time>2023-10-28T13:02:34Z</time>
      </trkpt>
      <trkpt lat="45.11716" lon="1.26687">
        <ele>227.4</ele>
        <time>2023-10-28T13:02:35Z</time>
      </trkpt>
      <trkpt lat="45.11716" lon="1.26687">
        <ele>227.4</ele>
        <time>2023-10-28T13:02:36Z</time>
      </trkpt>
      <trkpt lat="45.11716" lon="1.26687">
        <ele>227.4</ele>
        <time>2023-10-28T13:02:37Z</time>
      </trkpt>
      <trkpt lat="45.11716" lon="1.26687">
        <ele>227.4</ele>
        <time>2023-10-28T13:02:38Z</time>
      </trkpt>
      <trkpt lat="45.11716" lon="1.26687">
        <ele>227.4</ele>
        <time>2023-10-28T13:02:39Z</time>
      </trkpt>
      <trkpt lat="45.11716" lon="1.26687">
        <ele>227.4</ele>
        <time>2023-10-28T13:02:40Z</time>
      </trkpt>
      <trkpt lat="45.11716" lon="1.26687">
        <ele>227.4</ele>
        <time>2023-10-28T13:02:41Z</time>
      </trkpt>
      <trkpt lat="45.11716" lon="1.26687">
        <ele>227.4</ele>
        <time>2023-10-28T13:02:42Z</time>
      </trkpt>
      <trkpt lat="45.11716" lon="1.26687">
        <ele>227.4</ele>
        <time>2023-10-28T13:02:43Z</time>
      </trkpt>
      <trkpt lat="45.11716" lon="1.26687">
        <ele>227.4</ele>
        <time>2023-10-28T13:02:44Z</time>
      </trkpt>
      <trkpt lat="45.11715" lon="1.26684">
        <ele>227.2</ele>
        <time>2023-10-28T13:02:45Z</time>
      </trkpt>
      <trkpt lat="45.11715" lon="1.26683">
        <ele>227.1</ele>
        <time>2023-10-28T13:02:46Z</time>
      </trkpt>
      <trkpt lat="45.11715" lon="1.26683">
        <ele>227.1</ele>
        <time>2023-10-28T13:02:47Z</time>
      </trkpt>
      <trkpt lat="45.11716" lon="1.26682">
        <ele>227</ele>
        <time>2023-10-28T13:02:48Z</time>
      </trkpt>
      <trkpt lat="45.11717" lon="1.26681">
        <ele>226.9</ele>
        <time>2023-10-28T13:02:49Z</time>
      </trkpt>
      <trkpt lat="45.11717" lon="1.2668">
        <ele>226.8</ele>
        <time>2023-10-28T13:02:50Z</time>
      </trkpt>
      <trkpt lat="45.11718" lon="1.26678">
        <ele>226.6</ele>
        <time>2023-10-28T13:02:51Z</time>
      </trkpt>
      <trkpt lat="45.11719" lon="1.26676">
        <ele>226.6</ele>
        <time>2023-10-28T13:02:52Z</time>
      </trkpt>
      <trkpt lat="45.11721" lon="1.26674">
        <ele>226.8</ele>
        <time>2023-10-28T13:02:53Z</time>
      </trkpt>
      <trkpt lat="45.11723" lon="1.26672">
        <ele>227</ele>
        <time>2023-10-28T13:02:54Z</time>
      </trkpt>
      <trkpt lat="45.11725" lon="1.26669">
        <ele>227.2</ele>
        <time>2023-10-28T13:02:55Z</time>
      </trkpt>
      <trkpt lat="45.11726" lon="1.26666">
        <ele>227.4</ele>
        <time>2023-10-28T13:02:56Z</time>
      </trkpt>
      <trkpt lat="45.11728" lon="1.26663">
        <ele>227.5</ele>
        <time>2023-10-28T13:02:57Z</time>
      </trkpt>
      <trkpt lat="45.1173" lon="1.26661">
        <ele>227.7</ele>
        <time>2023-10-28T13:02:58Z</time>
      </trkpt>
      <trkpt lat="45.11732" lon="1.26657">
        <ele>227.8</ele>
        <time>2023-10-28T13:02:59Z</time>
      </trkpt>
      <trkpt lat="45.11734" lon="1.26654">
        <ele>227.9</ele>
        <time>2023-10-28T13:03:00Z</time>
      </trkpt>
      <trkpt lat="45.11736" lon="1.26651">
        <ele>228</ele>
        <time>2023-10-28T13:03:01Z</time>
      </trkpt>
      <trkpt lat="45.11738" lon="1.26648">
        <ele>228.1</ele>
        <time>2023-10-28T13:03:02Z</time>
      </trkpt>
      <trkpt lat="45.1174" lon="1.26646">
        <ele>228.1</ele>
        <time>2023-10-28T13:03:03Z</time>
      </trkpt>
      <trkpt lat="45.11742" lon="1.26643">
        <ele>228</ele>
        <time>2023-10-28T13:03:04Z</time>
      </trkpt>
      <trkpt lat="45.11744" lon="1.2664">
        <ele>228</ele>
        <time>2023-10-28T13:03:05Z</time>
      </trkpt>
      <trkpt lat="45.11746" lon="1.26637">
        <ele>227.9</ele>
        <time>2023-10-28T13:03:06Z</time>
      </trkpt>
      <trkpt lat="45.11748" lon="1.26634">
        <ele>227.7</ele>
        <time>2023-10-28T13:03:07Z</time>
      </trkpt>
      <trkpt lat="45.11749" lon="1.2663">
        <ele>227.5</ele>
        <time>2023-10-28T13:03:08Z</time>
      </trkpt>
      <trkpt lat="45.11751" lon="1.26627">
        <ele>227.3</ele>
        <time>2023-10-28T13:03:09Z</time>
      </trkpt>
      <trkpt lat="45.11753" lon="1.26624">
        <ele>227.1</ele>
        <time>2023-10-28T13:03:10Z</time>
      </trkpt>
      <trkpt lat="45.11755" lon="1.26621">
        <ele>226.9</ele>
        <time>2023-10-28T13:03:11Z</time>
      </trkpt>
      <trkpt lat="45.11757" lon="1.26618">
        <ele>226.6</ele>
        <time>2023-10-28T13:03:12Z</time>
      </trkpt>
      <trkpt lat="45.11759" lon="1.26616">
        <ele>226.3</ele>
        <time>2023-10-28T13:03:13Z</time>
      </trkpt>
      <trkpt lat="45.11762" lon="1.26614">
        <ele>226</ele>
        <time>2023-10-28T13:03:14Z</time>
      </trkpt>
      <trkpt lat="45.11764" lon="1.26612">
        <ele>225.6</ele>
        <time>2023-10-28T13:03:15Z</time>
      </trkpt>
      <trkpt lat="45.11767" lon="1.26611">
        <ele>225.3</ele>
        <time>2023-10-28T13:03:16Z</time>
      </trkpt>
      <trkpt lat="45.1177" lon="1.26611">
        <ele>224.9</ele>
        <time>2023-10-28T13:03:17Z</time>
      </trkpt>
      <trkpt lat="45.11773" lon="1.2661">
        <ele>224.6</ele>
        <time>2023-10-28T13:03:18Z</time>
      </trkpt>
      <trkpt lat="45.11776" lon="1.2661">
        <ele>224.1</ele>
        <time>2023-10-28T13:03:19Z</time>
      </trkpt>
      <trkpt lat="45.11779" lon="1.26611">
        <ele>223.8</ele>
        <time>2023-10-28T13:03:20Z</time>
      </trkpt>
      <trkpt lat="45.11782" lon="1.26611">
        <ele>223.4</ele>
        <time>2023-10-28T13:03:21Z</time>
      </trkpt>
      <trkpt lat="45.11785" lon="1.26612">
        <ele>223</ele>
        <time>2023-10-28T13:03:22Z</time>
      </trkpt>
      <trkpt lat="45.11787" lon="1.26613">
        <ele>222.7</ele>
        <time>2023-10-28T13:03:23Z</time>
      </trkpt>
      <trkpt lat="45.1179" lon="1.26614">
        <ele>222.4</ele>
        <time>2023-10-28T13:03:24Z</time>
      </trkpt>
      <trkpt lat="45.11792" lon="1.26615">
        <ele>222</ele>
        <time>2023-10-28T13:03:25Z</time>
      </trkpt>
      <trkpt lat="45.11795" lon="1.26616">
        <ele>221.7</ele>
        <time>2023-10-28T13:03:26Z</time>
      </trkpt>
      <trkpt lat="45.11798" lon="1.26618">
        <ele>221.3</ele>
        <time>2023-10-28T13:03:27Z</time>
      </trkpt>
      <trkpt lat="45.11801" lon="1.26619">
        <ele>220.8</ele>
        <time>2023-10-28T13:03:28Z</time>
      </trkpt>
      <trkpt lat="45.11803" lon="1.26621">
        <ele>220.4</ele>
        <time>2023-10-28T13:03:29Z</time>
      </trkpt>
      <trkpt lat="45.11806" lon="1.26624">
        <ele>220</ele>
        <time>2023-10-28T13:03:30Z</time>
      </trkpt>
      <trkpt lat="45.11809" lon="1.26626">
        <ele>219.6</ele>
        <time>2023-10-28T13:03:31Z</time>
      </trkpt>
      <trkpt lat="45.11812" lon="1.26629">
        <ele>219.2</ele>
        <time>2023-10-28T13:03:32Z</time>
      </trkpt>
      <trkpt lat="45.11814" lon="1.26632">
        <ele>218.8</ele>
        <time>2023-10-28T13:03:33Z</time>
      </trkpt>
      <trkpt lat="45.11817" lon="1.26634">
        <ele>218.4</ele>
        <time>2023-10-28T13:03:34Z</time>
      </trkpt>
      <trkpt lat="45.11819" lon="1.26636">
        <ele>218.1</ele>
        <time>2023-10-28T13:03:35Z</time>
      </trkpt>
      <trkpt lat="45.11821" lon="1.26639">
        <ele>217.8</ele>
        <time>2023-10-28T13:03:36Z</time>
      </trkpt>
      <trkpt lat="45.11822" lon="1.2664">
        <ele>217.6</ele>
        <time>2023-10-28T13:03:37Z</time>
      </trkpt>
      <trkpt lat="45.11823" lon="1.26642">
        <ele>217.5</ele>
        <time>2023-10-28T13:03:38Z</time>
      </trkpt>
      <trkpt lat="45.11824" lon="1.26643">
        <ele>217.6</ele>
        <time>2023-10-28T13:03:39Z</time>
      </trkpt>
      <trkpt lat="45.11824" lon="1.26644">
        <ele>217.7</ele>
        <time>2023-10-28T13:03:40Z</time>
      </trkpt>
      <trkpt lat="45.11824" lon="1.26644">
        <ele>217.7</ele>
        <time>2023-10-28T13:03:41Z</time>
      </trkpt>
      <trkpt lat="45.11824" lon="1.26645">
        <ele>217.8</ele>
        <time>2023-10-28T13:03:42Z</time>
      </trkpt>
      <trkpt lat="45.11822" lon="1.26643">
        <ele>218</ele>
        <time>2023-10-28T13:03:43Z</time>
      </trkpt>
      <trkpt lat="45.11821" lon="1.26642">
        <ele>218.1</ele>
        <time>2023-10-28T13:03:44Z</time>
      </trkpt>
      <trkpt lat="45.1182" lon="1.2664">
        <ele>218.4</ele>
        <time>2023-10-28T13:03:45Z</time>
      </trkpt>
      <trkpt lat="45.11818" lon="1.26638">
        <ele>218.6</ele>
        <time>2023-10-28T13:03:46Z</time>
      </trkpt>
      <trkpt lat="45.11816" lon="1.26635">
        <ele>219</ele>
        <time>2023-10-28T13:03:47Z</time>
      </trkpt>
      <trkpt lat="45.11814" lon="1.26633">
        <ele>219.3</ele>
        <time>2023-10-28T13:03:48Z</time>
      </trkpt>
      <trkpt lat="45.11812" lon="1.26631">
        <ele>219.5</ele>
        <time>2023-10-28T13:03:49Z</time>
      </trkpt>
      <trkpt lat="45.1181" lon="1.26629">
        <ele>219.8</ele>
        <time>2023-10-28T13:03:50Z</time>
      </trkpt>
      <trkpt lat="45.11808" lon="1.26627">
        <ele>220.1</ele>
        <time>2023-10-28T13:03:51Z</time>
      </trkpt>
      <trkpt lat="45.11807" lon="1.26625">
        <ele>220.4</ele>
        <time>2023-10-28T13:03:52Z</time>
      </trkpt>
      <trkpt lat="45.11805" lon="1.26623">
        <ele>220.7</ele>
        <time>2023-10-28T13:03:53Z</time>
      </trkpt>
      <trkpt lat="45.11802" lon="1.26621">
        <ele>221.1</ele>
        <time>2023-10-28T13:03:54Z</time>
      </trkpt>
      <trkpt lat="45.118" lon="1.2662">
        <ele>221.4</ele>
        <time>2023-10-28T13:03:55Z</time>
      </trkpt>
      <trkpt lat="45.11798" lon="1.26618">
        <ele>221.7</ele>
        <time>2023-10-28T13:03:56Z</time>
      </trkpt>
      <trkpt lat="45.11795" lon="1.26617">
        <ele>222</ele>
        <time>2023-10-28T13:03:57Z</time>
      </trkpt>
      <trkpt lat="45.11793" lon="1.26615">
        <ele>222.3</ele>
        <time>2023-10-28T13:03:58Z</time>
      </trkpt>
      <trkpt lat="45.11791" lon="1.26614">
        <ele>222.5</ele>
        <time>2023-10-28T13:03:59Z</time>
      </trkpt>
      <trkpt lat="45.11789" lon="1.26613">
        <ele>222.8</ele>
        <time>2023-10-28T13:04:00Z</time>
      </trkpt>
      <trkpt lat="45.11787" lon="1.26612">
        <ele>223.1</ele>
        <time>2023-10-28T13:04:01Z</time>
      </trkpt>
      <trkpt lat="45.11784" lon="1.26611">
        <ele>223.4</ele>
        <time>2023-10-28T13:04:02Z</time>
      </trkpt>
      <trkpt lat="45.11782" lon="1.2661">
        <ele>223.7</ele>
        <time>2023-10-28T13:04:03Z</time>
      </trkpt>
      <trkpt lat="45.1178" lon="1.26609">
        <ele>224</ele>
        <time>2023-10-28T13:04:04Z</time>
      </trkpt>
      <trkpt lat="45.11778" lon="1.26608">
        <ele>224.3</ele>
        <time>2023-10-28T13:04:05Z</time>
      </trkpt>
      <trkpt lat="45.11775" lon="1.26608">
        <ele>224.6</ele>
        <time>2023-10-28T13:04:06Z</time>
      </trkpt>
      <trkpt lat="45.11773" lon="1.26608">
        <ele>224.9</ele>
        <time>2023-10-28T13:04:07Z</time>
      </trkpt>
      <trkpt lat="45.11771" lon="1.26607">
        <ele>225.1</ele>
        <time>2023-10-28T13:04:08Z</time>
      </trkpt>
      <trkpt lat="45.11768" lon="1.26608">
        <ele>225.4</ele>
        <time>2023-10-28T13:04:09Z</time>
      </trkpt>
      <trkpt lat="45.11766" lon="1.26608">
        <ele>225.6</ele>
        <time>2023-10-28T13:04:10Z</time>
      </trkpt>
      <trkpt lat="45.11764" lon="1.26609">
        <ele>225.9</ele>
        <time>2023-10-28T13:04:11Z</time>
      </trkpt>
      <trkpt lat="45.11762" lon="1.2661">
        <ele>226.1</ele>
        <time>2023-10-28T13:04:12Z</time>
      </trkpt>
      <trkpt lat="45.1176" lon="1.26612">
        <ele>226.3</ele>
        <time>2023-10-28T13:04:13Z</time>
      </trkpt>
      <trkpt lat="45.11758" lon="1.26614">
        <ele>226.6</ele>
        <time>2023-10-28T13:04:14Z</time>
      </trkpt>
      <trkpt lat="45.11755" lon="1.26616">
        <ele>226.8</ele>
        <time>2023-10-28T13:04:15Z</time>
      </trkpt>
      <trkpt lat="45.11754" lon="1.26618">
        <ele>227</ele>
        <time>2023-10-28T13:04:16Z</time>
      </trkpt>
      <trkpt lat="45.11751" lon="1.2662">
        <ele>227.3</ele>
        <time>2023-10-28T13:04:17Z</time>
      </trkpt>
      <trkpt lat="45.11749" lon="1.26622">
        <ele>227.4</ele>
        <time>2023-10-28T13:04:18Z</time>
      </trkpt>
      <trkpt lat="45.11748" lon="1.26625">
        <ele>227.6</ele>
        <time>2023-10-28T13:04:19Z</time>
      </trkpt>
      <trkpt lat="45.11746" lon="1.26628">
        <ele>227.8</ele>
        <time>2023-10-28T13:04:20Z</time>
      </trkpt>
      <trkpt lat="45.11744" lon="1.2663">
        <ele>227.9</ele>
        <time>2023-10-28T13:04:21Z</time>
      </trkpt>
      <trkpt lat="45.11743" lon="1.26633">
        <ele>228</ele>
        <time>2023-10-28T13:04:22Z</time>
      </trkpt>
      <trkpt lat="45.11741" lon="1.26636">
        <ele>228</ele>
        <time>2023-10-28T13:04:23Z</time>
      </trkpt>
      <trkpt lat="45.1174" lon="1.26638">
        <ele>228.1</ele>
        <time>2023-10-28T13:04:24Z</time>
      </trkpt>
      <trkpt lat="45.11738" lon="1.26641">
        <ele>228.1</ele>
        <time>2023-10-28T13:04:25Z</time>
      </trkpt>
      <trkpt lat="45.11737" lon="1.26644">
        <ele>228.1</ele>
        <time>2023-10-28T13:04:26Z</time>
      </trkpt>
      <trkpt lat="45.11735" lon="1.26646">
        <ele>228</ele>
        <time>2023-10-28T13:04:27Z</time>
      </trkpt>
      <trkpt lat="45.11733" lon="1.26649">
        <ele>228</ele>
        <time>2023-10-28T13:04:28Z</time>
      </trkpt>
      <trkpt lat="45.11731" lon="1.26652">
        <ele>227.9</ele>
        <time>2023-10-28T13:04:29Z</time>
      </trkpt>
      <trkpt lat="45.11729" lon="1.26654">
        <ele>227.8</ele>
        <time>2023-10-28T13:04:30Z</time>
      </trkpt>
      <trkpt lat="45.11727" lon="1.26657">
        <ele>227.6</ele>
        <time>2023-10-28T13:04:31Z</time>
      </trkpt>
      <trkpt lat="45.11725" lon="1.2666">
        <ele>227.5</ele>
        <time>2023-10-28T13:04:32Z</time>
      </trkpt>
      <trkpt lat="45.11723" lon="1.26662">
        <ele>227.3</ele>
        <time>2023-10-28T13:04:33Z</time>
      </trkpt>
      <trkpt lat="45.11721" lon="1.26664">
        <ele>227.2</ele>
        <time>2023-10-28T13:04:34Z</time>
      </trkpt>
      <trkpt lat="45.1172" lon="1.26667">
        <ele>227</ele>
        <time>2023-10-28T13:04:35Z</time>
      </trkpt>
      <trkpt lat="45.11718" lon="1.26669">
        <ele>226.8</ele>
        <time>2023-10-28T13:04:36Z</time>
      </trkpt>
      <trkpt lat="45.11716" lon="1.26672">
        <ele>226.6</ele>
        <time>2023-10-28T13:04:37Z</time>
      </trkpt>
      <trkpt lat="45.11714" lon="1.26675">
        <ele>226.4</ele>
        <time>2023-10-28T13:04:38Z</time>
      </trkpt>
      <trkpt lat="45.11711" lon="1.26677">
        <ele>226.1</ele>
        <time>2023-10-28T13:04:39Z</time>
      </trkpt>
      <trkpt lat="45.11709" lon="1.26679">
        <ele>225.7</ele>
        <time>2023-10-28T13:04:40Z</time>
      </trkpt>
      <trkpt lat="45.11707" lon="1.26681">
        <ele>225.4</ele>
        <time>2023-10-28T13:04:41Z</time>
      </trkpt>
      <trkpt lat="45.11704" lon="1.26683">
        <ele>225.1</ele>
        <time>2023-10-28T13:04:42Z</time>
      </trkpt>
      <trkpt lat="45.11701" lon="1.26684">
        <ele>224.7</ele>
        <time>2023-10-28T13:04:43Z</time>
      </trkpt>
      <trkpt lat="45.11699" lon="1.26685">
        <ele>224.4</ele>
        <time>2023-10-28T13:04:44Z</time>
      </trkpt>
      <trkpt lat="45.11696" lon="1.26687">
        <ele>224.1</ele>
        <time>2023-10-28T13:04:45Z</time>
      </trkpt>
      <trkpt lat="45.11693" lon="1.26688">
        <ele>223.7</ele>
        <time>2023-10-28T13:04:46Z</time>
      </trkpt>
      <trkpt lat="45.1169" lon="1.26689">
        <ele>223.4</ele>
        <time>2023-10-28T13:04:47Z</time>
      </trkpt>
      <trkpt lat="45.11687" lon="1.2669">
        <ele>223</ele>
        <time>2023-10-28T13:04:48Z</time>
      </trkpt>
      <trkpt lat="45.11684" lon="1.26692">
        <ele>222.7</ele>
        <time>2023-10-28T13:04:49Z</time>
      </trkpt>
      <trkpt lat="45.1168" lon="1.26694">
        <ele>222.4</ele>
        <time>2023-10-28T13:04:50Z</time>
      </trkpt>
      <trkpt lat="45.11677" lon="1.26695">
        <ele>222.1</ele>
        <time>2023-10-28T13:04:51Z</time>
      </trkpt>
      <trkpt lat="45.11674" lon="1.26697">
        <ele>221.7</ele>
        <time>2023-10-28T13:04:52Z</time>
      </trkpt>
      <trkpt lat="45.11671" lon="1.26699">
        <ele>221.4</ele>
        <time>2023-10-28T13:04:53Z</time>
      </trkpt>
      <trkpt lat="45.11667" lon="1.267">
        <ele>221.1</ele>
        <time>2023-10-28T13:04:54Z</time>
      </trkpt>
      <trkpt lat="45.11664" lon="1.26702">
        <ele>220.8</ele>
        <time>2023-10-28T13:04:55Z</time>
      </trkpt>
      <trkpt lat="45.11661" lon="1.26704">
        <ele>220.5</ele>
        <time>2023-10-28T13:04:56Z</time>
      </trkpt>
      <trkpt lat="45.11658" lon="1.26705">
        <ele>220.2</ele>
        <time>2023-10-28T13:04:57Z</time>
      </trkpt>
      <trkpt lat="45.11655" lon="1.26707">
        <ele>219.8</ele>
        <time>2023-10-28T13:04:58Z</time>
      </trkpt>
      <trkpt lat="45.11652" lon="1.26708">
        <ele>219.5</ele>
        <time>2023-10-28T13:04:59Z</time>
      </trkpt>
      <trkpt lat="45.11649" lon="1.2671">
        <ele>219.2</ele>
        <time>2023-10-28T13:05:00Z</time>
      </trkpt>
      <trkpt lat="45.11646" lon="1.26711">
        <ele>218.9</ele>
        <time>2023-10-28T13:05:01Z</time>
      </trkpt>
      <trkpt lat="45.11643" lon="1.26712">
        <ele>218.7</ele>
        <time>2023-10-28T13:05:02Z</time>
      </trkpt>
      <trkpt lat="45.11641" lon="1.26713">
        <ele>218.4</ele>
        <time>2023-10-28T13:05:03Z</time>
      </trkpt>
      <trkpt lat="45.11638" lon="1.26714">
        <ele>218.1</ele>
        <time>2023-10-28T13:05:04Z</time>
      </trkpt>
      <trkpt lat="45.11635" lon="1.26715">
        <ele>217.9</ele>
        <time>2023-10-28T13:05:05Z</time>
      </trkpt>
      <trkpt lat="45.11632" lon="1.26716">
        <ele>217.7</ele>
        <time>2023-10-28T13:05:06Z</time>
      </trkpt>
      <trkpt lat="45.11629" lon="1.26717">
        <ele>217.5</ele>
        <time>2023-10-28T13:05:07Z</time>
      </trkpt>
      <trkpt lat="45.11626" lon="1.26718">
        <ele>217.4</ele>
        <time>2023-10-28T13:05:08Z</time>
      </trkpt>
      <trkpt lat="45.11623" lon="1.26719">
        <ele>217.2</ele>
        <time>2023-10-28T13:05:09Z</time>
      </trkpt>
      <trkpt lat="45.11621" lon="1.2672">
        <ele>217.1</ele>
        <time>2023-10-28T13:05:10Z</time>
      </trkpt>
      <trkpt lat="45.11618" lon="1.2672">
        <ele>217</ele>
        <time>2023-10-28T13:05:11Z</time>
      </trkpt>
      <trkpt lat="45.11615" lon="1.26721">
        <ele>216.8</ele>
        <time>2023-10-28T13:05:12Z</time>
      </trkpt>
      <trkpt lat="45.11612" lon="1.26722">
        <ele>216.8</ele>
        <time>2023-10-28T13:05:13Z</time>
      </trkpt>
      <trkpt lat="45.11609" lon="1.26723">
        <ele>216.7</ele>
        <time>2023-10-28T13:05:14Z</time>
      </trkpt>
      <trkpt lat="45.11607" lon="1.26725">
        <ele>216.6</ele>
        <time>2023-10-28T13:05:15Z</time>
      </trkpt>
      <trkpt lat="45.11604" lon="1.26726">
        <ele>216.5</ele>
        <time>2023-10-28T13:05:16Z</time>
      </trkpt>
      <trkpt lat="45.11602" lon="1.26727">
        <ele>216.5</ele>
        <time>2023-10-28T13:05:17Z</time>
      </trkpt>
      <trkpt lat="45.11599" lon="1.26728">
        <ele>216.4</ele>
        <time>2023-10-28T13:05:18Z</time>
      </trkpt>
      <trkpt lat="45.11597" lon="1.2673">
        <ele>216.3</ele>
        <time>2023-10-28T13:05:19Z</time>
      </trkpt>
      <trkpt lat="45.11595" lon="1.26732">
        <ele>216.3</ele>
        <time>2023-10-28T13:05:20Z</time>
      </trkpt>
      <trkpt lat="45.11593" lon="1.26734">
        <ele>216.3</ele>
        <time>2023-10-28T13:05:21Z</time>
      </trkpt>
      <trkpt lat="45.1159" lon="1.26737">
        <ele>216.2</ele>
        <time>2023-10-28T13:05:22Z</time>
      </trkpt>
      <trkpt lat="45.11588" lon="1.26739">
        <ele>216.2</ele>
        <time>2023-10-28T13:05:23Z</time>
      </trkpt>
      <trkpt lat="45.11585" lon="1.26741">
        <ele>216.1</ele>
        <time>2023-10-28T13:05:24Z</time>
      </trkpt>
      <trkpt lat="45.11583" lon="1.26742">
        <ele>216.1</ele>
        <time>2023-10-28T13:05:25Z</time>
      </trkpt>
      <trkpt lat="45.11581" lon="1.26744">
        <ele>216.1</ele>
        <time>2023-10-28T13:05:26Z</time>
      </trkpt>
      <trkpt lat="45.11578" lon="1.26745">
        <ele>216.1</ele>
        <time>2023-10-28T13:05:27Z</time>
      </trkpt>
      <trkpt lat="45.11575" lon="1.26746">
        <ele>216.2</ele>
        <time>2023-10-28T13:05:28Z</time>
      </trkpt>
      <trkpt lat="45.11573" lon="1.26747">
        <ele>216.2</ele>
        <time>2023-10-28T13:05:29Z</time>
      </trkpt>
      <trkpt lat="45.1157" lon="1.26747">
        <ele>216.3</ele>
        <time>2023-10-28T13:05:30Z</time>
      </trkpt>
      <trkpt lat="45.11568" lon="1.26747">
        <ele>216.4</ele>
        <time>2023-10-28T13:05:31Z</time>
      </trkpt>
      <trkpt lat="45.11565" lon="1.26747">
        <ele>216.5</ele>
        <time>2023-10-28T13:05:32Z</time>
      </trkpt>
      <trkpt lat="45.11563" lon="1.26747">
        <ele>216.6</ele>
        <time>2023-10-28T13:05:33Z</time>
      </trkpt>
      <trkpt lat="45.1156" lon="1.26747">
        <ele>216.7</ele>
        <time>2023-10-28T13:05:34Z</time>
      </trkpt>
      <trkpt lat="45.11559" lon="1.26747">
        <ele>216.8</ele>
        <time>2023-10-28T13:05:35Z</time>
      </trkpt>
      <trkpt lat="45.11556" lon="1.26747">
        <ele>216.9</ele>
        <time>2023-10-28T13:05:36Z</time>
      </trkpt>
      <trkpt lat="45.11554" lon="1.26747">
        <ele>217.1</ele>
        <time>2023-10-28T13:05:37Z</time>
      </trkpt>
      <trkpt lat="45.11552" lon="1.26747">
        <ele>217.2</ele>
        <time>2023-10-28T13:05:38Z</time>
      </trkpt>
      <trkpt lat="45.1155" lon="1.26748">
        <ele>217.3</ele>
        <time>2023-10-28T13:05:39Z</time>
      </trkpt>
      <trkpt lat="45.11548" lon="1.26749">
        <ele>217.5</ele>
        <time>2023-10-28T13:05:40Z</time>
      </trkpt>
      <trkpt lat="45.11545" lon="1.2675">
        <ele>217.6</ele>
        <time>2023-10-28T13:05:41Z</time>
      </trkpt>
      <trkpt lat="45.11543" lon="1.2675">
        <ele>217.8</ele>
        <time>2023-10-28T13:05:42Z</time>
      </trkpt>
      <trkpt lat="45.11541" lon="1.26751">
        <ele>217.9</ele>
        <time>2023-10-28T13:05:43Z</time>
      </trkpt>
      <trkpt lat="45.11539" lon="1.26752">
        <ele>218.1</ele>
        <time>2023-10-28T13:05:44Z</time>
      </trkpt>
      <trkpt lat="45.11537" lon="1.26753">
        <ele>218.2</ele>
        <time>2023-10-28T13:05:45Z</time>
      </trkpt>
      <trkpt lat="45.11535" lon="1.26754">
        <ele>218.4</ele>
        <time>2023-10-28T13:05:46Z</time>
      </trkpt>
      <trkpt lat="45.11533" lon="1.26755">
        <ele>218.5</ele>
        <time>2023-10-28T13:05:47Z</time>
      </trkpt>
      <trkpt lat="45.11531" lon="1.26756">
        <ele>218.7</ele>
        <time>2023-10-28T13:05:48Z</time>
      </trkpt>
      <trkpt lat="45.11528" lon="1.26757">
        <ele>218.8</ele>
        <time>2023-10-28T13:05:49Z</time>
      </trkpt>
      <trkpt lat="45.11527" lon="1.26758">
        <ele>218.9</ele>
        <time>2023-10-28T13:05:50Z</time>
      </trkpt>
      <trkpt lat="45.11525" lon="1.2676">
        <ele>219</ele>
        <time>2023-10-28T13:05:51Z</time>
      </trkpt>
      <trkpt lat="45.11523" lon="1.26761">
        <ele>219.1</ele>
        <time>2023-10-28T13:05:52Z</time>
      </trkpt>
      <trkpt lat="45.1152" lon="1.26762">
        <ele>219.3</ele>
        <time>2023-10-28T13:05:53Z</time>
      </trkpt>
      <trkpt lat="45.11519" lon="1.26764">
        <ele>219.3</ele>
        <time>2023-10-28T13:05:54Z</time>
      </trkpt>
      <trkpt lat="45.11517" lon="1.26765">
        <ele>219.4</ele>
        <time>2023-10-28T13:05:55Z</time>
      </trkpt>
      <trkpt lat="45.11514" lon="1.26766">
        <ele>219.6</ele>
        <time>2023-10-28T13:05:56Z</time>
      </trkpt>
      <trkpt lat="45.11512" lon="1.26767">
        <ele>219.6</ele>
        <time>2023-10-28T13:05:57Z</time>
      </trkpt>
      <trkpt lat="45.1151" lon="1.26769">
        <ele>219.8</ele>
        <time>2023-10-28T13:05:58Z</time>
      </trkpt>
      <trkpt lat="45.11508" lon="1.2677">
        <ele>219.8</ele>
        <time>2023-10-28T13:05:59Z</time>
      </trkpt>
      <trkpt lat="45.11506" lon="1.26771">
        <ele>219.9</ele>
        <time>2023-10-28T13:06:00Z</time>
      </trkpt>
      <trkpt lat="45.11504" lon="1.26771">
        <ele>220</ele>
        <time>2023-10-28T13:06:01Z</time>
      </trkpt>
      <trkpt lat="45.11503" lon="1.26772">
        <ele>220.1</ele>
        <time>2023-10-28T13:06:02Z</time>
      </trkpt>
      <trkpt lat="45.11501" lon="1.26772">
        <ele>220.2</ele>
        <time>2023-10-28T13:06:03Z</time>
      </trkpt>
      <trkpt lat="45.11499" lon="1.26773">
        <ele>220.4</ele>
        <time>2023-10-28T13:06:04Z</time>
      </trkpt>
      <trkpt lat="45.11498" lon="1.26774">
        <ele>220.5</ele>
        <time>2023-10-28T13:06:05Z</time>
      </trkpt>
      <trkpt lat="45.11496" lon="1.26775">
        <ele>220.6</ele>
        <time>2023-10-28T13:06:06Z</time>
      </trkpt>
      <trkpt lat="45.11494" lon="1.26776">
        <ele>220.7</ele>
        <time>2023-10-28T13:06:07Z</time>
      </trkpt>
      <trkpt lat="45.11493" lon="1.26778">
        <ele>220.9</ele>
        <time>2023-10-28T13:06:08Z</time>
      </trkpt>
      <trkpt lat="45.11491" lon="1.2678">
        <ele>221.1</ele>
        <time>2023-10-28T13:06:09Z</time>
      </trkpt>
      <trkpt lat="45.11489" lon="1.26781">
        <ele>221.3</ele>
        <time>2023-10-28T13:06:10Z</time>
      </trkpt>
      <trkpt lat="45.11487" lon="1.26784">
        <ele>221.5</ele>
        <time>2023-10-28T13:06:11Z</time>
      </trkpt>
      <trkpt lat="45.11486" lon="1.26786">
        <ele>221.7</ele>
        <time>2023-10-28T13:06:12Z</time>
      </trkpt>
      <trkpt lat="45.11484" lon="1.26787">
        <ele>221.9</ele>
        <time>2023-10-28T13:06:13Z</time>
      </trkpt>
      <trkpt lat="45.11482" lon="1.26789">
        <ele>222.2</ele>
        <time>2023-10-28T13:06:14Z</time>
      </trkpt>
      <trkpt lat="45.1148" lon="1.26791">
        <ele>222.4</ele>
        <time>2023-10-28T13:06:15Z</time>
      </trkpt>
      <trkpt lat="45.11477" lon="1.26793">
        <ele>222.7</ele>
        <time>2023-10-28T13:06:16Z</time>
      </trkpt>
      <trkpt lat="45.11474" lon="1.26795">
        <ele>223</ele>
        <time>2023-10-28T13:06:17Z</time>
      </trkpt>
      <trkpt lat="45.11472" lon="1.26798">
        <ele>223.2</ele>
        <time>2023-10-28T13:06:18Z</time>
      </trkpt>
      <trkpt lat="45.11469" lon="1.268">
        <ele>223.5</ele>
        <time>2023-10-28T13:06:19Z</time>
      </trkpt>
      <trkpt lat="45.11467" lon="1.26802">
        <ele>223.7</ele>
        <time>2023-10-28T13:06:20Z</time>
      </trkpt>
      <trkpt lat="45.11465" lon="1.26804">
        <ele>223.8</ele>
        <time>2023-10-28T13:06:21Z</time>
      </trkpt>
      <trkpt lat="45.11463" lon="1.26805">
        <ele>224</ele>
        <time>2023-10-28T13:06:22Z</time>
      </trkpt>
      <trkpt lat="45.11461" lon="1.26807">
        <ele>224.1</ele>
        <time>2023-10-28T13:06:23Z</time>
      </trkpt>
      <trkpt lat="45.11459" lon="1.26808">
        <ele>224.2</ele>
        <time>2023-10-28T13:06:24Z</time>
      </trkpt>
      <trkpt lat="45.11458" lon="1.26809">
        <ele>224.3</ele>
        <time>2023-10-28T13:06:25Z</time>
      </trkpt>
      <trkpt lat="45.11456" lon="1.26811">
        <ele>224.4</ele>
        <time>2023-10-28T13:06:26Z</time>
      </trkpt>
      <trkpt lat="45.11454" lon="1.26812">
        <ele>224.5</ele>
        <time>2023-10-28T13:06:27Z</time>
      </trkpt>
      <trkpt lat="45.11453" lon="1.26814">
        <ele>224.6</ele>
        <time>2023-10-28T13:06:28Z</time>
      </trkpt>
      <trkpt lat="45.11451" lon="1.26815">
        <ele>224.7</ele>
        <time>2023-10-28T13:06:29Z</time>
      </trkpt>
      <trkpt lat="45.11449" lon="1.26817">
        <ele>224.7</ele>
        <time>2023-10-28T13:06:30Z</time>
      </trkpt>
      <trkpt lat="45.11447" lon="1.26818">
        <ele>224.8</ele>
        <time>2023-10-28T13:06:31Z</time>
      </trkpt>
      <trkpt lat="45.11445" lon="1.2682">
        <ele>224.9</ele>
        <time>2023-10-28T13:06:32Z</time>
      </trkpt>
      <trkpt lat="45.11443" lon="1.26821">
        <ele>225</ele>
        <time>2023-10-28T13:06:33Z</time>
      </trkpt>
      <trkpt lat="45.11441" lon="1.26822">
        <ele>225.1</ele>
        <time>2023-10-28T13:06:34Z</time>
      </trkpt>
      <trkpt lat="45.11439" lon="1.26824">
        <ele>225.2</ele>
        <time>2023-10-28T13:06:35Z</time>
      </trkpt>
      <trkpt lat="45.11437" lon="1.26825">
        <ele>225.3</ele>
        <time>2023-10-28T13:06:36Z</time>
      </trkpt>
      <trkpt lat="45.11435" lon="1.26826">
        <ele>225.4</ele>
        <time>2023-10-28T13:06:37Z</time>
      </trkpt>
      <trkpt lat="45.11433" lon="1.26827">
        <ele>225.5</ele>
        <time>2023-10-28T13:06:38Z</time>
      </trkpt>
      <trkpt lat="45.11431" lon="1.26828">
        <ele>225.6</ele>
        <time>2023-10-28T13:06:39Z</time>
      </trkpt>
      <trkpt lat="45.11428" lon="1.26829">
        <ele>225.7</ele>
        <time>2023-10-28T13:06:40Z</time>
      </trkpt>
      <trkpt lat="45.11427" lon="1.26831">
        <ele>225.9</ele>
        <time>2023-10-28T13:06:41Z</time>
      </trkpt>
      <trkpt lat="45.11425" lon="1.26832">
        <ele>226</ele>
        <time>2023-10-28T13:06:42Z</time>
      </trkpt>
      <trkpt lat="45.11423" lon="1.26833">
        <ele>226.1</ele>
        <time>2023-10-28T13:06:43Z</time>
      </trkpt>
      <trkpt lat="45.11421" lon="1.26834">
        <ele>226.2</ele>
        <time>2023-10-28T13:06:44Z</time>
      </trkpt>
      <trkpt lat="45.11419" lon="1.26835">
        <ele>226.4</ele>
        <time>2023-10-28T13:06:45Z</time>
      </trkpt>
      <trkpt lat="45.11417" lon="1.26836">
        <ele>226.5</ele>
        <time>2023-10-28T13:06:46Z</time>
      </trkpt>
      <trkpt lat="45.11415" lon="1.26837">
        <ele>226.7</ele>
        <time>2023-10-28T13:06:47Z</time>
      </trkpt>
      <trkpt lat="45.11412" lon="1.26838">
        <ele>226.9</ele>
        <time>2023-10-28T13:06:48Z</time>
      </trkpt>
      <trkpt lat="45.11411" lon="1.26839">
        <ele>227</ele>
        <time>2023-10-28T13:06:49Z</time>
      </trkpt>
      <trkpt lat="45.11409" lon="1.26841">
        <ele>227.2</ele>
        <time>2023-10-28T13:06:50Z</time>
      </trkpt>
      <trkpt lat="45.11407" lon="1.26842">
        <ele>227.4</ele>
        <time>2023-10-28T13:06:51Z</time>
      </trkpt>
      <trkpt lat="45.11404" lon="1.26843">
        <ele>227.7</ele>
        <time>2023-10-28T13:06:52Z</time>
      </trkpt>
      <trkpt lat="45.11403" lon="1.26844">
        <ele>227.9</ele>
        <time>2023-10-28T13:06:53Z</time>
      </trkpt>
      <trkpt lat="45.11401" lon="1.26845">
        <ele>228.1</ele>
        <time>2023-10-28T13:06:54Z</time>
      </trkpt>
      <trkpt lat="45.11399" lon="1.26845">
        <ele>228.3</ele>
        <time>2023-10-28T13:06:55Z</time>
      </trkpt>
      <trkpt lat="45.11397" lon="1.26846">
        <ele>228.5</ele>
        <time>2023-10-28T13:06:56Z</time>
      </trkpt>
      <trkpt lat="45.11395" lon="1.26846">
        <ele>228.7</ele>
        <time>2023-10-28T13:06:57Z</time>
      </trkpt>
      <trkpt lat="45.11393" lon="1.26846">
        <ele>229</ele>
        <time>2023-10-28T13:06:58Z</time>
      </trkpt>
      <trkpt lat="45.11392" lon="1.26846">
        <ele>229.2</ele>
        <time>2023-10-28T13:06:59Z</time>
      </trkpt>
      <trkpt lat="45.1139" lon="1.26847">
        <ele>229.5</ele>
        <time>2023-10-28T13:07:00Z</time>
      </trkpt>
      <trkpt lat="45.11388" lon="1.26847">
        <ele>229.7</ele>
        <time>2023-10-28T13:07:01Z</time>
      </trkpt>
      <trkpt lat="45.11386" lon="1.26847">
        <ele>230</ele>
        <time>2023-10-28T13:07:02Z</time>
      </trkpt>
      <trkpt lat="45.11384" lon="1.26847">
        <ele>230.2</ele>
        <time>2023-10-28T13:07:03Z</time>
      </trkpt>
      <trkpt lat="45.11383" lon="1.26847">
        <ele>230.4</ele>
        <time>2023-10-28T13:07:04Z</time>
      </trkpt>
      <trkpt lat="45.11381" lon="1.26847">
        <ele>230.6</ele>
        <time>2023-10-28T13:07:05Z</time>
      </trkpt>
      <trkpt lat="45.11379" lon="1.26848">
        <ele>230.8</ele>
        <time>2023-10-28T13:07:06Z</time>
      </trkpt>
      <trkpt lat="45.11377" lon="1.26848">
        <ele>231.1</ele>
        <time>2023-10-28T13:07:07Z</time>
      </trkpt>
      <trkpt lat="45.11375" lon="1.26848">
        <ele>231.3</ele>
        <time>2023-10-28T13:07:08Z</time>
      </trkpt>
      <trkpt lat="45.11373" lon="1.26848">
        <ele>231.6</ele>
        <time>2023-10-28T13:07:09Z</time>
      </trkpt>
      <trkpt lat="45.11371" lon="1.26848">
        <ele>231.9</ele>
        <time>2023-10-28T13:07:10Z</time>
      </trkpt>
      <trkpt lat="45.11369" lon="1.26848">
        <ele>232.1</ele>
        <time>2023-10-28T13:07:11Z</time>
      </trkpt>
      <trkpt lat="45.11367" lon="1.26849">
        <ele>232.3</ele>
        <time>2023-10-28T13:07:12Z</time>
      </trkpt>
      <trkpt lat="45.11366" lon="1.26848">
        <ele>232.6</ele>
        <time>2023-10-28T13:07:13Z</time>
      </trkpt>
      <trkpt lat="45.11364" lon="1.26848">
        <ele>232.8</ele>
        <time>2023-10-28T13:07:14Z</time>
      </trkpt>
      <trkpt lat="45.11362" lon="1.26848">
        <ele>233</ele>
        <time>2023-10-28T13:07:15Z</time>
      </trkpt>
      <trkpt lat="45.1136" lon="1.26848">
        <ele>233.2</ele>
        <time>2023-10-28T13:07:16Z</time>
      </trkpt>
      <trkpt lat="45.11358" lon="1.26848">
        <ele>233.4</ele>
        <time>2023-10-28T13:07:17Z</time>
      </trkpt>
      <trkpt lat="45.11356" lon="1.26848">
        <ele>233.6</ele>
        <time>2023-10-28T13:07:18Z</time>
      </trkpt>
      <trkpt lat="45.11354" lon="1.26848">
        <ele>233.8</ele>
        <time>2023-10-28T13:07:19Z</time>
      </trkpt>
      <trkpt lat="45.11352" lon="1.26848">
        <ele>234</ele>
        <time>2023-10-28T13:07:20Z</time>
      </trkpt>
      <trkpt lat="45.1135" lon="1.26848">
        <ele>234.1</ele>
        <time>2023-10-28T13:07:21Z</time>
      </trkpt>
      <trkpt lat="45.11348" lon="1.26849">
        <ele>234.3</ele>
        <time>2023-10-28T13:07:22Z</time>
      </trkpt>
      <trkpt lat="45.11346" lon="1.26849">
        <ele>234.5</ele>
        <time>2023-10-28T13:07:23Z</time>
      </trkpt>
      <trkpt lat="45.11345" lon="1.2685">
        <ele>234.6</ele>
        <time>2023-10-28T13:07:24Z</time>
      </trkpt>
      <trkpt lat="45.11342" lon="1.2685">
        <ele>234.8</ele>
        <time>2023-10-28T13:07:25Z</time>
      </trkpt>
      <trkpt lat="45.1134" lon="1.2685">
        <ele>234.9</ele>
        <time>2023-10-28T13:07:26Z</time>
      </trkpt>
      <trkpt lat="45.11338" lon="1.26851">
        <ele>235</ele>
        <time>2023-10-28T13:07:27Z</time>
      </trkpt>
      <trkpt lat="45.11336" lon="1.26851">
        <ele>235.2</ele>
        <time>2023-10-28T13:07:28Z</time>
      </trkpt>
      <trkpt lat="45.11334" lon="1.26851">
        <ele>235.3</ele>
        <time>2023-10-28T13:07:29Z</time>
      </trkpt>
      <trkpt lat="45.11332" lon="1.26851">
        <ele>235.4</ele>
        <time>2023-10-28T13:07:30Z</time>
      </trkpt>
      <trkpt lat="45.11329" lon="1.26851">
        <ele>235.5</ele>
        <time>2023-10-28T13:07:31Z</time>
      </trkpt>
      <trkpt lat="45.11327" lon="1.26851">
        <ele>235.6</ele>
        <time>2023-10-28T13:07:32Z</time>
      </trkpt>
      <trkpt lat="45.11325" lon="1.26851">
        <ele>235.8</ele>
        <time>2023-10-28T13:07:33Z</time>
      </trkpt>
      <trkpt lat="45.11323" lon="1.26851">
        <ele>235.9</ele>
        <time>2023-10-28T13:07:34Z</time>
      </trkpt>
      <trkpt lat="45.11321" lon="1.26851">
        <ele>236</ele>
        <time>2023-10-28T13:07:35Z</time>
      </trkpt>
      <trkpt lat="45.11319" lon="1.26851">
        <ele>236.1</ele>
        <time>2023-10-28T13:07:36Z</time>
      </trkpt>
      <trkpt lat="45.11317" lon="1.26851">
        <ele>236.2</ele>
        <time>2023-10-28T13:07:37Z</time>
      </trkpt>
      <trkpt lat="45.11314" lon="1.26851">
        <ele>236.3</ele>
        <time>2023-10-28T13:07:38Z</time>
      </trkpt>
      <trkpt lat="45.11312" lon="1.26851">
        <ele>236.4</ele>
        <time>2023-10-28T13:07:39Z</time>
      </trkpt>
      <trkpt lat="45.1131" lon="1.26851">
        <ele>236.5</ele>
        <time>2023-10-28T13:07:40Z</time>
      </trkpt>
      <trkpt lat="45.11308" lon="1.26851">
        <ele>236.6</ele>
        <time>2023-10-28T13:07:41Z</time>
      </trkpt>
      <trkpt lat="45.11306" lon="1.26851">
        <ele>236.7</ele>
        <time>2023-10-28T13:07:42Z</time>
      </trkpt>
      <trkpt lat="45.11303" lon="1.2685">
        <ele>236.8</ele>
        <time>2023-10-28T13:07:43Z</time>
      </trkpt>
      <trkpt lat="45.11301" lon="1.2685">
        <ele>236.9</ele>
        <time>2023-10-28T13:07:44Z</time>
      </trkpt>
      <trkpt lat="45.11299" lon="1.2685">
        <ele>237</ele>
        <time>2023-10-28T13:07:45Z</time>
      </trkpt>
      <trkpt lat="45.11297" lon="1.26849">
        <ele>237</ele>
        <time>2023-10-28T13:07:46Z</time>
      </trkpt>
      <trkpt lat="45.11295" lon="1.26849">
        <ele>237.1</ele>
        <time>2023-10-28T13:07:47Z</time>
      </trkpt>
      <trkpt lat="45.11293" lon="1.26848">
        <ele>237.1</ele>
        <time>2023-10-28T13:07:48Z</time>
      </trkpt>
      <trkpt lat="45.11291" lon="1.26848">
        <ele>237.2</ele>
        <time>2023-10-28T13:07:49Z</time>
      </trkpt>
      <trkpt lat="45.11289" lon="1.26847">
        <ele>237.2</ele>
        <time>2023-10-28T13:07:50Z</time>
      </trkpt>
      <trkpt lat="45.11287" lon="1.26847">
        <ele>237.3</ele>
        <time>2023-10-28T13:07:51Z</time>
      </trkpt>
      <trkpt lat="45.11285" lon="1.26847">
        <ele>237.3</ele>
        <time>2023-10-28T13:07:52Z</time>
      </trkpt>
      <trkpt lat="45.11283" lon="1.26847">
        <ele>237.3</ele>
        <time>2023-10-28T13:07:53Z</time>
      </trkpt>
      <trkpt lat="45.11281" lon="1.26846">
        <ele>237.3</ele>
        <time>2023-10-28T13:07:54Z</time>
      </trkpt>
      <trkpt lat="45.11279" lon="1.26847">
        <ele>237.3</ele>
        <time>2023-10-28T13:07:55Z</time>
      </trkpt>
      <trkpt lat="45.11276" lon="1.26847">
        <ele>237.3</ele>
        <time>2023-10-28T13:07:56Z</time>
      </trkpt>
      <trkpt lat="45.11274" lon="1.26847">
        <ele>237.3</ele>
        <time>2023-10-28T13:07:57Z</time>
      </trkpt>
      <trkpt lat="45.11272" lon="1.26848">
        <ele>237.2</ele>
        <time>2023-10-28T13:07:58Z</time>
      </trkpt>
      <trkpt lat="45.11269" lon="1.26848">
        <ele>237.2</ele>
        <time>2023-10-28T13:07:59Z</time>
      </trkpt>
      <trkpt lat="45.11267" lon="1.26849">
        <ele>237.1</ele>
        <time>2023-10-28T13:08:00Z</time>
      </trkpt>
      <trkpt lat="45.11264" lon="1.26849">
        <ele>237.1</ele>
        <time>2023-10-28T13:08:01Z</time>
      </trkpt>
      <trkpt lat="45.11262" lon="1.26849">
        <ele>237</ele>
        <time>2023-10-28T13:08:02Z</time>
      </trkpt>
      <trkpt lat="45.11259" lon="1.26848">
        <ele>236.9</ele>
        <time>2023-10-28T13:08:03Z</time>
      </trkpt>
      <trkpt lat="45.11257" lon="1.26848">
        <ele>236.8</ele>
        <time>2023-10-28T13:08:04Z</time>
      </trkpt>
      <trkpt lat="45.11254" lon="1.26848">
        <ele>236.7</ele>
        <time>2023-10-28T13:08:05Z</time>
      </trkpt>
      <trkpt lat="45.11252" lon="1.26848">
        <ele>236.6</ele>
        <time>2023-10-28T13:08:06Z</time>
      </trkpt>
      <trkpt lat="45.1125" lon="1.26848">
        <ele>236.5</ele>
        <time>2023-10-28T13:08:07Z</time>
      </trkpt>
      <trkpt lat="45.11247" lon="1.26847">
        <ele>236.4</ele>
        <time>2023-10-28T13:08:08Z</time>
      </trkpt>
      <trkpt lat="45.11245" lon="1.26847">
        <ele>236.3</ele>
        <time>2023-10-28T13:08:09Z</time>
      </trkpt>
      <trkpt lat="45.11243" lon="1.26847">
        <ele>236.2</ele>
        <time>2023-10-28T13:08:10Z</time>
      </trkpt>
      <trkpt lat="45.1124" lon="1.26847">
        <ele>236.1</ele>
        <time>2023-10-28T13:08:11Z</time>
      </trkpt>
      <trkpt lat="45.11238" lon="1.26846">
        <ele>235.9</ele>
        <time>2023-10-28T13:08:12Z</time>
      </trkpt>
      <trkpt lat="45.11235" lon="1.26846">
        <ele>235.8</ele>
        <time>2023-10-28T13:08:13Z</time>
      </trkpt>
      <trkpt lat="45.11233" lon="1.26846">
        <ele>235.7</ele>
        <time>2023-10-28T13:08:14Z</time>
      </trkpt>
      <trkpt lat="45.1123" lon="1.26846">
        <ele>235.5</ele>
        <time>2023-10-28T13:08:15Z</time>
      </trkpt>
      <trkpt lat="45.11227" lon="1.26845">
        <ele>235.3</ele>
        <time>2023-10-28T13:08:16Z</time>
      </trkpt>
      <trkpt lat="45.11225" lon="1.26845">
        <ele>235.1</ele>
        <time>2023-10-28T13:08:17Z</time>
      </trkpt>
      <trkpt lat="45.11223" lon="1.26845">
        <ele>234.9</ele>
        <time>2023-10-28T13:08:18Z</time>
      </trkpt>
      <trkpt lat="45.11219" lon="1.26844">
        <ele>234.7</ele>
        <time>2023-10-28T13:08:19Z</time>
      </trkpt>
      <trkpt lat="45.11217" lon="1.26844">
        <ele>234.4</ele>
        <time>2023-10-28T13:08:20Z</time>
      </trkpt>
      <trkpt lat="45.11214" lon="1.26844">
        <ele>234.2</ele>
        <time>2023-10-28T13:08:21Z</time>
      </trkpt>
      <trkpt lat="45.11211" lon="1.26844">
        <ele>233.9</ele>
        <time>2023-10-28T13:08:22Z</time>
      </trkpt>
      <trkpt lat="45.11208" lon="1.26844">
        <ele>233.7</ele>
        <time>2023-10-28T13:08:23Z</time>
      </trkpt>
      <trkpt lat="45.11205" lon="1.26845">
        <ele>233.4</ele>
        <time>2023-10-28T13:08:24Z</time>
      </trkpt>
      <trkpt lat="45.11202" lon="1.26845">
        <ele>233.1</ele>
        <time>2023-10-28T13:08:25Z</time>
      </trkpt>
      <trkpt lat="45.11199" lon="1.26845">
        <ele>232.8</ele>
        <time>2023-10-28T13:08:26Z</time>
      </trkpt>
      <trkpt lat="45.11196" lon="1.26845">
        <ele>232.5</ele>
        <time>2023-10-28T13:08:27Z</time>
      </trkpt>
      <trkpt lat="45.11193" lon="1.26845">
        <ele>232.3</ele>
        <time>2023-10-28T13:08:28Z</time>
      </trkpt>
      <trkpt lat="45.1119" lon="1.26845">
        <ele>232</ele>
        <time>2023-10-28T13:08:29Z</time>
      </trkpt>
      <trkpt lat="45.11186" lon="1.26845">
        <ele>231.7</ele>
        <time>2023-10-28T13:08:30Z</time>
      </trkpt>
      <trkpt lat="45.11183" lon="1.26845">
        <ele>231.5</ele>
        <time>2023-10-28T13:08:31Z</time>
      </trkpt>
      <trkpt lat="45.1118" lon="1.26845">
        <ele>231.2</ele>
        <time>2023-10-28T13:08:32Z</time>
      </trkpt>
      <trkpt lat="45.11177" lon="1.26844">
        <ele>231</ele>
        <time>2023-10-28T13:08:33Z</time>
      </trkpt>
      <trkpt lat="45.11174" lon="1.26844">
        <ele>230.8</ele>
        <time>2023-10-28T13:08:34Z</time>
      </trkpt>
      <trkpt lat="45.11171" lon="1.26845">
        <ele>230.5</ele>
        <time>2023-10-28T13:08:35Z</time>
      </trkpt>
      <trkpt lat="45.11168" lon="1.26845">
        <ele>230.3</ele>
        <time>2023-10-28T13:08:36Z</time>
      </trkpt>
      <trkpt lat="45.11165" lon="1.26845">
        <ele>230.1</ele>
        <time>2023-10-28T13:08:37Z</time>
      </trkpt>
      <trkpt lat="45.11162" lon="1.26845">
        <ele>229.8</ele>
        <time>2023-10-28T13:08:38Z</time>
      </trkpt>
      <trkpt lat="45.11159" lon="1.26845">
        <ele>229.6</ele>
        <time>2023-10-28T13:08:39Z</time>
      </trkpt>
      <trkpt lat="45.11156" lon="1.26846">
        <ele>229.4</ele>
        <time>2023-10-28T13:08:40Z</time>
      </trkpt>
      <trkpt lat="45.11153" lon="1.26845">
        <ele>229.1</ele>
        <time>2023-10-28T13:08:41Z</time>
      </trkpt>
      <trkpt lat="45.1115" lon="1.26845">
        <ele>228.9</ele>
        <time>2023-10-28T13:08:42Z</time>
      </trkpt>
      <trkpt lat="45.11147" lon="1.26845">
        <ele>228.7</ele>
        <time>2023-10-28T13:08:43Z</time>
      </trkpt>
      <trkpt lat="45.11144" lon="1.26845">
        <ele>228.5</ele>
        <time>2023-10-28T13:08:44Z</time>
      </trkpt>
      <trkpt lat="45.11142" lon="1.26844">
        <ele>228.3</ele>
        <time>2023-10-28T13:08:45Z</time>
      </trkpt>
      <trkpt lat="45.11139" lon="1.26843">
        <ele>228.1</ele>
        <time>2023-10-28T13:08:46Z</time>
      </trkpt>
      <trkpt lat="45.11136" lon="1.26843">
        <ele>227.9</ele>
        <time>2023-10-28T13:08:47Z</time>
      </trkpt>
      <trkpt lat="45.11133" lon="1.26842">
        <ele>227.8</ele>
        <time>2023-10-28T13:08:48Z</time>
      </trkpt>
      <trkpt lat="45.1113" lon="1.2684">
        <ele>227.6</ele>
        <time>2023-10-28T13:08:49Z</time>
      </trkpt>
      <trkpt lat="45.11128" lon="1.26839">
        <ele>227.5</ele>
        <time>2023-10-28T13:08:50Z</time>
      </trkpt>
      <trkpt lat="45.11125" lon="1.26838">
        <ele>227.3</ele>
        <time>2023-10-28T13:08:51Z</time>
      </trkpt>
      <trkpt lat="45.11122" lon="1.26837">
        <ele>227.2</ele>
        <time>2023-10-28T13:08:52Z</time>
      </trkpt>
      <trkpt lat="45.1112" lon="1.26836">
        <ele>227.1</ele>
        <time>2023-10-28T13:08:53Z</time>
      </trkpt>
      <trkpt lat="45.11117" lon="1.26835">
        <ele>226.9</ele>
        <time>2023-10-28T13:08:54Z</time>
      </trkpt>
      <trkpt lat="45.11114" lon="1.26835">
        <ele>226.8</ele>
        <time>2023-10-28T13:08:55Z</time>
      </trkpt>
      <trkpt lat="45.11111" lon="1.26834">
        <ele>226.7</ele>
        <time>2023-10-28T13:08:56Z</time>
      </trkpt>
      <trkpt lat="45.11108" lon="1.26834">
        <ele>226.5</ele>
        <time>2023-10-28T13:08:57Z</time>
      </trkpt>
      <trkpt lat="45.11105" lon="1.26834">
        <ele>226.3</ele>
        <time>2023-10-28T13:08:58Z</time>
      </trkpt>
      <trkpt lat="45.11102" lon="1.26834">
        <ele>226.1</ele>
        <time>2023-10-28T13:08:59Z</time>
      </trkpt>
      <trkpt lat="45.11099" lon="1.26835">
        <ele>226</ele>
        <time>2023-10-28T13:09:00Z</time>
      </trkpt>
      <trkpt lat="45.11096" lon="1.26835">
        <ele>225.8</ele>
        <time>2023-10-28T13:09:01Z</time>
      </trkpt>
      <trkpt lat="45.11093" lon="1.26836">
        <ele>225.6</ele>
        <time>2023-10-28T13:09:02Z</time>
      </trkpt>
      <trkpt lat="45.1109" lon="1.26837">
        <ele>225.4</ele>
        <time>2023-10-28T13:09:03Z</time>
      </trkpt>
      <trkpt lat="45.11087" lon="1.26838">
        <ele>225.2</ele>
        <time>2023-10-28T13:09:04Z</time>
      </trkpt>
      <trkpt lat="45.11084" lon="1.26839">
        <ele>225</ele>
        <time>2023-10-28T13:09:05Z</time>
      </trkpt>
      <trkpt lat="45.11081" lon="1.26839">
        <ele>224.8</ele>
        <time>2023-10-28T13:09:06Z</time>
      </trkpt>
      <trkpt lat="45.11079" lon="1.2684">
        <ele>224.7</ele>
        <time>2023-10-28T13:09:07Z</time>
      </trkpt>
      <trkpt lat="45.11076" lon="1.2684">
        <ele>224.5</ele>
        <time>2023-10-28T13:09:08Z</time>
      </trkpt>
      <trkpt lat="45.11073" lon="1.2684">
        <ele>224.4</ele>
        <time>2023-10-28T13:09:09Z</time>
      </trkpt>
      <trkpt lat="45.1107" lon="1.2684">
        <ele>224.2</ele>
        <time>2023-10-28T13:09:10Z</time>
      </trkpt>
      <trkpt lat="45.11068" lon="1.2684">
        <ele>224.1</ele>
        <time>2023-10-28T13:09:11Z</time>
      </trkpt>
      <trkpt lat="45.11065" lon="1.26839">
        <ele>224</ele>
        <time>2023-10-28T13:09:12Z</time>
      </trkpt>
      <trkpt lat="45.11063" lon="1.26839">
        <ele>223.9</ele>
        <time>2023-10-28T13:09:13Z</time>
      </trkpt>
      <trkpt lat="45.1106" lon="1.26838">
        <ele>223.7</ele>
        <time>2023-10-28T13:09:14Z</time>
      </trkpt>
      <trkpt lat="45.11058" lon="1.26838">
        <ele>223.6</ele>
        <time>2023-10-28T13:09:15Z</time>
      </trkpt>
      <trkpt lat="45.11055" lon="1.26837">
        <ele>223.5</ele>
        <time>2023-10-28T13:09:16Z</time>
      </trkpt>
      <trkpt lat="45.11053" lon="1.26837">
        <ele>223.4</ele>
        <time>2023-10-28T13:09:17Z</time>
      </trkpt>
      <trkpt lat="45.1105" lon="1.26837">
        <ele>223.3</ele>
        <time>2023-10-28T13:09:18Z</time>
      </trkpt>
      <trkpt lat="45.11047" lon="1.26837">
        <ele>223.2</ele>
        <time>2023-10-28T13:09:19Z</time>
      </trkpt>
      <trkpt lat="45.11044" lon="1.26837">
        <ele>223</ele>
        <time>2023-10-28T13:09:20Z</time>
      </trkpt>
      <trkpt lat="45.11042" lon="1.26837">
        <ele>222.9</ele>
        <time>2023-10-28T13:09:21Z</time>
      </trkpt>
      <trkpt lat="45.11039" lon="1.26837">
        <ele>222.8</ele>
        <time>2023-10-28T13:09:22Z</time>
      </trkpt>
      <trkpt lat="45.11036" lon="1.26837">
        <ele>222.7</ele>
        <time>2023-10-28T13:09:23Z</time>
      </trkpt>
      <trkpt lat="45.11033" lon="1.26836">
        <ele>222.6</ele>
        <time>2023-10-28T13:09:24Z</time>
      </trkpt>
      <trkpt lat="45.11031" lon="1.26836">
        <ele>222.5</ele>
        <time>2023-10-28T13:09:25Z</time>
      </trkpt>
      <trkpt lat="45.11028" lon="1.26836">
        <ele>222.4</ele>
        <time>2023-10-28T13:09:26Z</time>
      </trkpt>
      <trkpt lat="45.11025" lon="1.26836">
        <ele>222.3</ele>
        <time>2023-10-28T13:09:27Z</time>
      </trkpt>
      <trkpt lat="45.11023" lon="1.26836">
        <ele>222.2</ele>
        <time>2023-10-28T13:09:28Z</time>
      </trkpt>
      <trkpt lat="45.1102" lon="1.26837">
        <ele>222.1</ele>
        <time>2023-10-28T13:09:29Z</time>
      </trkpt>
      <trkpt lat="45.11017" lon="1.26837">
        <ele>222</ele>
        <time>2023-10-28T13:09:30Z</time>
      </trkpt>
      <trkpt lat="45.11015" lon="1.26838">
        <ele>221.9</ele>
        <time>2023-10-28T13:09:31Z</time>
      </trkpt>
      <trkpt lat="45.11012" lon="1.2684">
        <ele>221.8</ele>
        <time>2023-10-28T13:09:32Z</time>
      </trkpt>
      <trkpt lat="45.11009" lon="1.26841">
        <ele>221.6</ele>
        <time>2023-10-28T13:09:33Z</time>
      </trkpt>
      <trkpt lat="45.11006" lon="1.26843">
        <ele>221.5</ele>
        <time>2023-10-28T13:09:34Z</time>
      </trkpt>
      <trkpt lat="45.11004" lon="1.26846">
        <ele>221.3</ele>
        <time>2023-10-28T13:09:35Z</time>
      </trkpt>
      <trkpt lat="45.11001" lon="1.26848">
        <ele>221.1</ele>
        <time>2023-10-28T13:09:36Z</time>
      </trkpt>
      <trkpt lat="45.10999" lon="1.2685">
        <ele>220.8</ele>
        <time>2023-10-28T13:09:37Z</time>
      </trkpt>
      <trkpt lat="45.10997" lon="1.26853">
        <ele>220.6</ele>
        <time>2023-10-28T13:09:38Z</time>
      </trkpt>
      <trkpt lat="45.10994" lon="1.26856">
        <ele>220.4</ele>
        <time>2023-10-28T13:09:39Z</time>
      </trkpt>
      <trkpt lat="45.10992" lon="1.26858">
        <ele>220.1</ele>
        <time>2023-10-28T13:09:40Z</time>
      </trkpt>
      <trkpt lat="45.1099" lon="1.26861">
        <ele>219.9</ele>
        <time>2023-10-28T13:09:41Z</time>
      </trkpt>
      <trkpt lat="45.10988" lon="1.26864">
        <ele>219.6</ele>
        <time>2023-10-28T13:09:42Z</time>
      </trkpt>
      <trkpt lat="45.10986" lon="1.26867">
        <ele>219.4</ele>
        <time>2023-10-28T13:09:43Z</time>
      </trkpt>
      <trkpt lat="45.10984" lon="1.2687">
        <ele>219.2</ele>
        <time>2023-10-28T13:09:44Z</time>
      </trkpt>
      <trkpt lat="45.10981" lon="1.26872">
        <ele>219</ele>
        <time>2023-10-28T13:09:45Z</time>
      </trkpt>
      <trkpt lat="45.1098" lon="1.26875">
        <ele>218.8</ele>
        <time>2023-10-28T13:09:46Z</time>
      </trkpt>
      <trkpt lat="45.10977" lon="1.26877">
        <ele>218.6</ele>
        <time>2023-10-28T13:09:47Z</time>
      </trkpt>
      <trkpt lat="45.10975" lon="1.26879">
        <ele>218.4</ele>
        <time>2023-10-28T13:09:48Z</time>
      </trkpt>
      <trkpt lat="45.10973" lon="1.26882">
        <ele>218.3</ele>
        <time>2023-10-28T13:09:49Z</time>
      </trkpt>
      <trkpt lat="45.10972" lon="1.26885">
        <ele>218.1</ele>
        <time>2023-10-28T13:09:50Z</time>
      </trkpt>
      <trkpt lat="45.1097" lon="1.26888">
        <ele>217.9</ele>
        <time>2023-10-28T13:09:51Z</time>
      </trkpt>
      <trkpt lat="45.10968" lon="1.26891">
        <ele>217.7</ele>
        <time>2023-10-28T13:09:52Z</time>
      </trkpt>
      <trkpt lat="45.10966" lon="1.26894">
        <ele>217.5</ele>
        <time>2023-10-28T13:09:53Z</time>
      </trkpt>
      <trkpt lat="45.10964" lon="1.26898">
        <ele>217.3</ele>
        <time>2023-10-28T13:09:54Z</time>
      </trkpt>
      <trkpt lat="45.10962" lon="1.26901">
        <ele>217</ele>
        <time>2023-10-28T13:09:55Z</time>
      </trkpt>
      <trkpt lat="45.1096" lon="1.26904">
        <ele>216.8</ele>
        <time>2023-10-28T13:09:56Z</time>
      </trkpt>
      <trkpt lat="45.10959" lon="1.26907">
        <ele>216.6</ele>
        <time>2023-10-28T13:09:57Z</time>
      </trkpt>
      <trkpt lat="45.10957" lon="1.26911">
        <ele>216.4</ele>
        <time>2023-10-28T13:09:58Z</time>
      </trkpt>
      <trkpt lat="45.10956" lon="1.26914">
        <ele>216.1</ele>
        <time>2023-10-28T13:09:59Z</time>
      </trkpt>
      <trkpt lat="45.10955" lon="1.26917">
        <ele>215.9</ele>
        <time>2023-10-28T13:10:00Z</time>
      </trkpt>
      <trkpt lat="45.10954" lon="1.26921">
        <ele>215.6</ele>
        <time>2023-10-28T13:10:01Z</time>
      </trkpt>
      <trkpt lat="45.10953" lon="1.26924">
        <ele>215.4</ele>
        <time>2023-10-28T13:10:02Z</time>
      </trkpt>
      <trkpt lat="45.10952" lon="1.26928">
        <ele>215.1</ele>
        <time>2023-10-28T13:10:03Z</time>
      </trkpt>
      <trkpt lat="45.10951" lon="1.26931">
        <ele>214.8</ele>
        <time>2023-10-28T13:10:04Z</time>
      </trkpt>
      <trkpt lat="45.1095" lon="1.26935">
        <ele>214.5</ele>
        <time>2023-10-28T13:10:05Z</time>
      </trkpt>
      <trkpt lat="45.10949" lon="1.26939">
        <ele>214.1</ele>
        <time>2023-10-28T13:10:06Z</time>
      </trkpt>
      <trkpt lat="45.10947" lon="1.26942">
        <ele>213.8</ele>
        <time>2023-10-28T13:10:07Z</time>
      </trkpt>
      <trkpt lat="45.10946" lon="1.26945">
        <ele>213.4</ele>
        <time>2023-10-28T13:10:08Z</time>
      </trkpt>
      <trkpt lat="45.10945" lon="1.26949">
        <ele>213</ele>
        <time>2023-10-28T13:10:09Z</time>
      </trkpt>
      <trkpt lat="45.10943" lon="1.26952">
        <ele>212.7</ele>
        <time>2023-10-28T13:10:10Z</time>
      </trkpt>
      <trkpt lat="45.10942" lon="1.26955">
        <ele>212.3</ele>
        <time>2023-10-28T13:10:11Z</time>
      </trkpt>
      <trkpt lat="45.1094" lon="1.26958">
        <ele>211.9</ele>
        <time>2023-10-28T13:10:12Z</time>
      </trkpt>
      <trkpt lat="45.10938" lon="1.26961">
        <ele>211.4</ele>
        <time>2023-10-28T13:10:13Z</time>
      </trkpt>
      <trkpt lat="45.10936" lon="1.26964">
        <ele>210.9</ele>
        <time>2023-10-28T13:10:14Z</time>
      </trkpt>
      <trkpt lat="45.10934" lon="1.26966">
        <ele>210.4</ele>
        <time>2023-10-28T13:10:15Z</time>
      </trkpt>
      <trkpt lat="45.10932" lon="1.26969">
        <ele>210</ele>
        <time>2023-10-28T13:10:16Z</time>
      </trkpt>
      <trkpt lat="45.1093" lon="1.26971">
        <ele>209.5</ele>
        <time>2023-10-28T13:10:17Z</time>
      </trkpt>
      <trkpt lat="45.10927" lon="1.26974">
        <ele>208.9</ele>
        <time>2023-10-28T13:10:18Z</time>
      </trkpt>
      <trkpt lat="45.10924" lon="1.26977">
        <ele>208.2</ele>
        <time>2023-10-28T13:10:19Z</time>
      </trkpt>
      <trkpt lat="45.10922" lon="1.2698">
        <ele>207.6</ele>
        <time>2023-10-28T13:10:20Z</time>
      </trkpt>
      <trkpt lat="45.10919" lon="1.26983">
        <ele>207</ele>
        <time>2023-10-28T13:10:21Z</time>
      </trkpt>
      <trkpt lat="45.10916" lon="1.26985">
        <ele>206.3</ele>
        <time>2023-10-28T13:10:22Z</time>
      </trkpt>
      <trkpt lat="45.10914" lon="1.26987">
        <ele>205.7</ele>
        <time>2023-10-28T13:10:23Z</time>
      </trkpt>
      <trkpt lat="45.1091" lon="1.26989">
        <ele>205.1</ele>
        <time>2023-10-28T13:10:24Z</time>
      </trkpt>
      <trkpt lat="45.10908" lon="1.2699">
        <ele>204.6</ele>
        <time>2023-10-28T13:10:25Z</time>
      </trkpt>
      <trkpt lat="45.10905" lon="1.26991">
        <ele>204.1</ele>
        <time>2023-10-28T13:10:26Z</time>
      </trkpt>
      <trkpt lat="45.10901" lon="1.26991">
        <ele>203.6</ele>
        <time>2023-10-28T13:10:27Z</time>
      </trkpt>
      <trkpt lat="45.10898" lon="1.26992">
        <ele>203</ele>
        <time>2023-10-28T13:10:28Z</time>
      </trkpt>
      <trkpt lat="45.10894" lon="1.26993">
        <ele>202.5</ele>
        <time>2023-10-28T13:10:29Z</time>
      </trkpt>
      <trkpt lat="45.10891" lon="1.26993">
        <ele>202</ele>
        <time>2023-10-28T13:10:30Z</time>
      </trkpt>
      <trkpt lat="45.10887" lon="1.26994">
        <ele>201.4</ele>
        <time>2023-10-28T13:10:31Z</time>
      </trkpt>
      <trkpt lat="45.10884" lon="1.26995">
        <ele>200.9</ele>
        <time>2023-10-28T13:10:32Z</time>
      </trkpt>
      <trkpt lat="45.1088" lon="1.26995">
        <ele>200.3</ele>
        <time>2023-10-28T13:10:33Z</time>
      </trkpt>
      <trkpt lat="45.10877" lon="1.26995">
        <ele>199.8</ele>
        <time>2023-10-28T13:10:34Z</time>
      </trkpt>
      <trkpt lat="45.10873" lon="1.26995">
        <ele>199.3</ele>
        <time>2023-10-28T13:10:35Z</time>
      </trkpt>
      <trkpt lat="45.1087" lon="1.26995">
        <ele>198.8</ele>
        <time>2023-10-28T13:10:36Z</time>
      </trkpt>
      <trkpt lat="45.10866" lon="1.26994">
        <ele>198.2</ele>
        <time>2023-10-28T13:10:37Z</time>
      </trkpt>
      <trkpt lat="45.10862" lon="1.26993">
        <ele>197.8</ele>
        <time>2023-10-28T13:10:38Z</time>
      </trkpt>
      <trkpt lat="45.10859" lon="1.26992">
        <ele>197.4</ele>
        <time>2023-10-28T13:10:39Z</time>
      </trkpt>
      <trkpt lat="45.10856" lon="1.2699">
        <ele>197</ele>
        <time>2023-10-28T13:10:40Z</time>
      </trkpt>
      <trkpt lat="45.10853" lon="1.26988">
        <ele>196.7</ele>
        <time>2023-10-28T13:10:41Z</time>
      </trkpt>
      <trkpt lat="45.1085" lon="1.26986">
        <ele>196.4</ele>
        <time>2023-10-28T13:10:42Z</time>
      </trkpt>
      <trkpt lat="45.10847" lon="1.26984">
        <ele>196.1</ele>
        <time>2023-10-28T13:10:43Z</time>
      </trkpt>
      <trkpt lat="45.10844" lon="1.26982">
        <ele>195.7</ele>
        <time>2023-10-28T13:10:44Z</time>
      </trkpt>
      <trkpt lat="45.10842" lon="1.2698">
        <ele>195.4</ele>
        <time>2023-10-28T13:10:45Z</time>
      </trkpt>
      <trkpt lat="45.10839" lon="1.26978">
        <ele>195.1</ele>
        <time>2023-10-28T13:10:46Z</time>
      </trkpt>
      <trkpt lat="45.10836" lon="1.26976">
        <ele>194.7</ele>
        <time>2023-10-28T13:10:47Z</time>
      </trkpt>
      <trkpt lat="45.10833" lon="1.26974">
        <ele>194.4</ele>
        <time>2023-10-28T13:10:48Z</time>
      </trkpt>
      <trkpt lat="45.1083" lon="1.26973">
        <ele>194</ele>
        <time>2023-10-28T13:10:49Z</time>
      </trkpt>
      <trkpt lat="45.10828" lon="1.26971">
        <ele>193.6</ele>
        <time>2023-10-28T13:10:50Z</time>
      </trkpt>
      <trkpt lat="45.10825" lon="1.2697">
        <ele>193.2</ele>
        <time>2023-10-28T13:10:51Z</time>
      </trkpt>
      <trkpt lat="45.10822" lon="1.26968">
        <ele>192.7</ele>
        <time>2023-10-28T13:10:52Z</time>
      </trkpt>
      <trkpt lat="45.10819" lon="1.26966">
        <ele>192.3</ele>
        <time>2023-10-28T13:10:53Z</time>
      </trkpt>
      <trkpt lat="45.10816" lon="1.26965">
        <ele>191.8</ele>
        <time>2023-10-28T13:10:54Z</time>
      </trkpt>
      <trkpt lat="45.10813" lon="1.26962">
        <ele>191.3</ele>
        <time>2023-10-28T13:10:55Z</time>
      </trkpt>
      <trkpt lat="45.1081" lon="1.2696">
        <ele>190.7</ele>
        <time>2023-10-28T13:10:56Z</time>
      </trkpt>
      <trkpt lat="45.10807" lon="1.26958">
        <ele>190.2</ele>
        <time>2023-10-28T13:10:57Z</time>
      </trkpt>
      <trkpt lat="45.10805" lon="1.26956">
        <ele>189.7</ele>
        <time>2023-10-28T13:10:58Z</time>
      </trkpt>
      <trkpt lat="45.10802" lon="1.26954">
        <ele>189.2</ele>
        <time>2023-10-28T13:10:59Z</time>
      </trkpt>
      <trkpt lat="45.10799" lon="1.26951">
        <ele>188.6</ele>
        <time>2023-10-28T13:11:00Z</time>
      </trkpt>
      <trkpt lat="45.10797" lon="1.26949">
        <ele>188.1</ele>
        <time>2023-10-28T13:11:01Z</time>
      </trkpt>
      <trkpt lat="45.10794" lon="1.26947">
        <ele>187.6</ele>
        <time>2023-10-28T13:11:02Z</time>
      </trkpt>
      <trkpt lat="45.10791" lon="1.26945">
        <ele>186.9</ele>
        <time>2023-10-28T13:11:03Z</time>
      </trkpt>
      <trkpt lat="45.10789" lon="1.26942">
        <ele>186.4</ele>
        <time>2023-10-28T13:11:04Z</time>
      </trkpt>
      <trkpt lat="45.10786" lon="1.26939">
        <ele>185.8</ele>
        <time>2023-10-28T13:11:05Z</time>
      </trkpt>
      <trkpt lat="45.10783" lon="1.26937">
        <ele>185.3</ele>
        <time>2023-10-28T13:11:06Z</time>
      </trkpt>
      <trkpt lat="45.10781" lon="1.26933">
        <ele>184.7</ele>
        <time>2023-10-28T13:11:07Z</time>
      </trkpt>
      <trkpt lat="45.10779" lon="1.2693">
        <ele>184.1</ele>
        <time>2023-10-28T13:11:08Z</time>
      </trkpt>
      <trkpt lat="45.10776" lon="1.26926">
        <ele>183.5</ele>
        <time>2023-10-28T13:11:09Z</time>
      </trkpt>
      <trkpt lat="45.10774" lon="1.26923">
        <ele>183</ele>
        <time>2023-10-28T13:11:10Z</time>
      </trkpt>
      <trkpt lat="45.10772" lon="1.26919">
        <ele>182.4</ele>
        <time>2023-10-28T13:11:11Z</time>
      </trkpt>
      <trkpt lat="45.10769" lon="1.26915">
        <ele>181.9</ele>
        <time>2023-10-28T13:11:12Z</time>
      </trkpt>
      <trkpt lat="45.10767" lon="1.26911">
        <ele>181.3</ele>
        <time>2023-10-28T13:11:13Z</time>
      </trkpt>
      <trkpt lat="45.10764" lon="1.26907">
        <ele>180.8</ele>
        <time>2023-10-28T13:11:14Z</time>
      </trkpt>
      <trkpt lat="45.10762" lon="1.26903">
        <ele>180.4</ele>
        <time>2023-10-28T13:11:15Z</time>
      </trkpt>
      <trkpt lat="45.1076" lon="1.26899">
        <ele>179.9</ele>
        <time>2023-10-28T13:11:16Z</time>
      </trkpt>
      <trkpt lat="45.10758" lon="1.26895">
        <ele>179.5</ele>
        <time>2023-10-28T13:11:17Z</time>
      </trkpt>
      <trkpt lat="45.10756" lon="1.26891">
        <ele>179.1</ele>
        <time>2023-10-28T13:11:18Z</time>
      </trkpt>
      <trkpt lat="45.10754" lon="1.26886">
        <ele>178.8</ele>
        <time>2023-10-28T13:11:19Z</time>
      </trkpt>
      <trkpt lat="45.10753" lon="1.26882">
        <ele>178.5</ele>
        <time>2023-10-28T13:11:20Z</time>
      </trkpt>
      <trkpt lat="45.10751" lon="1.26878">
        <ele>178.1</ele>
        <time>2023-10-28T13:11:21Z</time>
      </trkpt>
      <trkpt lat="45.10749" lon="1.26874">
        <ele>177.8</ele>
        <time>2023-10-28T13:11:22Z</time>
      </trkpt>
      <trkpt lat="45.10747" lon="1.2687">
        <ele>177.5</ele>
        <time>2023-10-28T13:11:23Z</time>
      </trkpt>
      <trkpt lat="45.10745" lon="1.26865">
        <ele>177.2</ele>
        <time>2023-10-28T13:11:24Z</time>
      </trkpt>
      <trkpt lat="45.10743" lon="1.26861">
        <ele>176.9</ele>
        <time>2023-10-28T13:11:25Z</time>
      </trkpt>
      <trkpt lat="45.10741" lon="1.26857">
        <ele>176.6</ele>
        <time>2023-10-28T13:11:26Z</time>
      </trkpt>
      <trkpt lat="45.10739" lon="1.26853">
        <ele>176.4</ele>
        <time>2023-10-28T13:11:27Z</time>
      </trkpt>
      <trkpt lat="45.10737" lon="1.26849">
        <ele>176.1</ele>
        <time>2023-10-28T13:11:28Z</time>
      </trkpt>
      <trkpt lat="45.10736" lon="1.26845">
        <ele>175.8</ele>
        <time>2023-10-28T13:11:29Z</time>
      </trkpt>
      <trkpt lat="45.10734" lon="1.26841">
        <ele>175.6</ele>
        <time>2023-10-28T13:11:30Z</time>
      </trkpt>
      <trkpt lat="45.10732" lon="1.26837">
        <ele>175.4</ele>
        <time>2023-10-28T13:11:31Z</time>
      </trkpt>
      <trkpt lat="45.1073" lon="1.26833">
        <ele>175.1</ele>
        <time>2023-10-28T13:11:32Z</time>
      </trkpt>
      <trkpt lat="45.10728" lon="1.26829">
        <ele>174.8</ele>
        <time>2023-10-28T13:11:33Z</time>
      </trkpt>
      <trkpt lat="45.10726" lon="1.26825">
        <ele>174.6</ele>
        <time>2023-10-28T13:11:34Z</time>
      </trkpt>
      <trkpt lat="45.10724" lon="1.26821">
        <ele>174.3</ele>
        <time>2023-10-28T13:11:35Z</time>
      </trkpt>
      <trkpt lat="45.10722" lon="1.26817">
        <ele>174</ele>
        <time>2023-10-28T13:11:36Z</time>
      </trkpt>
      <trkpt lat="45.10721" lon="1.26813">
        <ele>173.7</ele>
        <time>2023-10-28T13:11:37Z</time>
      </trkpt>
      <trkpt lat="45.10719" lon="1.26809">
        <ele>173.4</ele>
        <time>2023-10-28T13:11:38Z</time>
      </trkpt>
      <trkpt lat="45.10717" lon="1.26805">
        <ele>173.1</ele>
        <time>2023-10-28T13:11:39Z</time>
      </trkpt>
      <trkpt lat="45.10716" lon="1.26801">
        <ele>172.8</ele>
        <time>2023-10-28T13:11:40Z</time>
      </trkpt>
      <trkpt lat="45.10714" lon="1.26797">
        <ele>172.4</ele>
        <time>2023-10-28T13:11:41Z</time>
      </trkpt>
      <trkpt lat="45.10712" lon="1.26793">
        <ele>172.1</ele>
        <time>2023-10-28T13:11:42Z</time>
      </trkpt>
      <trkpt lat="45.10711" lon="1.26789">
        <ele>171.8</ele>
        <time>2023-10-28T13:11:43Z</time>
      </trkpt>
      <trkpt lat="45.10709" lon="1.26784">
        <ele>171.5</ele>
        <time>2023-10-28T13:11:44Z</time>
      </trkpt>
      <trkpt lat="45.10708" lon="1.2678">
        <ele>171.2</ele>
        <time>2023-10-28T13:11:45Z</time>
      </trkpt>
      <trkpt lat="45.10706" lon="1.26776">
        <ele>170.9</ele>
        <time>2023-10-28T13:11:46Z</time>
      </trkpt>
      <trkpt lat="45.10705" lon="1.26771">
        <ele>170.5</ele>
        <time>2023-10-28T13:11:47Z</time>
      </trkpt>
      <trkpt lat="45.10704" lon="1.26766">
        <ele>170.2</ele>
        <time>2023-10-28T13:11:48Z</time>
      </trkpt>
      <trkpt lat="45.10702" lon="1.26762">
        <ele>169.9</ele>
        <time>2023-10-28T13:11:49Z</time>
      </trkpt>
      <trkpt lat="45.107" lon="1.26757">
        <ele>169.6</ele>
        <time>2023-10-28T13:11:50Z</time>
      </trkpt>
      <trkpt lat="45.10699" lon="1.26753">
        <ele>169.3</ele>
        <time>2023-10-28T13:11:51Z</time>
      </trkpt>
      <trkpt lat="45.10698" lon="1.26748">
        <ele>169</ele>
        <time>2023-10-28T13:11:52Z</time>
      </trkpt>
      <trkpt lat="45.10696" lon="1.26744">
        <ele>168.6</ele>
        <time>2023-10-28T13:11:53Z</time>
      </trkpt>
      <trkpt lat="45.10695" lon="1.26739">
        <ele>168.3</ele>
        <time>2023-10-28T13:11:54Z</time>
      </trkpt>
      <trkpt lat="45.10693" lon="1.26735">
        <ele>168</ele>
        <time>2023-10-28T13:11:55Z</time>
      </trkpt>
      <trkpt lat="45.10692" lon="1.2673">
        <ele>167.6</ele>
        <time>2023-10-28T13:11:56Z</time>
      </trkpt>
      <trkpt lat="45.10691" lon="1.26726">
        <ele>167.3</ele>
        <time>2023-10-28T13:11:57Z</time>
      </trkpt>
      <trkpt lat="45.10689" lon="1.26722">
        <ele>166.9</ele>
        <time>2023-10-28T13:11:58Z</time>
      </trkpt>
      <trkpt lat="45.10688" lon="1.26718">
        <ele>166.5</ele>
        <time>2023-10-28T13:11:59Z</time>
      </trkpt>
      <trkpt lat="45.10686" lon="1.26714">
        <ele>166.1</ele>
        <time>2023-10-28T13:12:00Z</time>
      </trkpt>
      <trkpt lat="45.10685" lon="1.2671">
        <ele>165.7</ele>
        <time>2023-10-28T13:12:01Z</time>
      </trkpt>
      <trkpt lat="45.10683" lon="1.26706">
        <ele>165.2</ele>
        <time>2023-10-28T13:12:02Z</time>
      </trkpt>
      <trkpt lat="45.10681" lon="1.26702">
        <ele>164.7</ele>
        <time>2023-10-28T13:12:03Z</time>
      </trkpt>
      <trkpt lat="45.10679" lon="1.26698">
        <ele>164.2</ele>
        <time>2023-10-28T13:12:04Z</time>
      </trkpt>
      <trkpt lat="45.10677" lon="1.26694">
        <ele>163.6</ele>
        <time>2023-10-28T13:12:05Z</time>
      </trkpt>
      <trkpt lat="45.10675" lon="1.26691">
        <ele>163</ele>
        <time>2023-10-28T13:12:06Z</time>
      </trkpt>
      <trkpt lat="45.10674" lon="1.26687">
        <ele>162.4</ele>
        <time>2023-10-28T13:12:07Z</time>
      </trkpt>
      <trkpt lat="45.10671" lon="1.26683">
        <ele>161.8</ele>
        <time>2023-10-28T13:12:08Z</time>
      </trkpt>
      <trkpt lat="45.10669" lon="1.2668">
        <ele>161.2</ele>
        <time>2023-10-28T13:12:09Z</time>
      </trkpt>
      <trkpt lat="45.10667" lon="1.26677">
        <ele>160.6</ele>
        <time>2023-10-28T13:12:10Z</time>
      </trkpt>
      <trkpt lat="45.10664" lon="1.26675">
        <ele>160.1</ele>
        <time>2023-10-28T13:12:11Z</time>
      </trkpt>
      <trkpt lat="45.10662" lon="1.26672">
        <ele>159.5</ele>
        <time>2023-10-28T13:12:12Z</time>
      </trkpt>
      <trkpt lat="45.1066" lon="1.26669">
        <ele>158.9</ele>
        <time>2023-10-28T13:12:13Z</time>
      </trkpt>
      <trkpt lat="45.10657" lon="1.26666">
        <ele>158.3</ele>
        <time>2023-10-28T13:12:14Z</time>
      </trkpt>
      <trkpt lat="45.10654" lon="1.26663">
        <ele>157.7</ele>
        <time>2023-10-28T13:12:15Z</time>
      </trkpt>
      <trkpt lat="45.10652" lon="1.26661">
        <ele>157.2</ele>
        <time>2023-10-28T13:12:16Z</time>
      </trkpt>
      <trkpt lat="45.1065" lon="1.26658">
        <ele>156.6</ele>
        <time>2023-10-28T13:12:17Z</time>
      </trkpt>
      <trkpt lat="45.10647" lon="1.26656">
        <ele>156</ele>
        <time>2023-10-28T13:12:18Z</time>
      </trkpt>
      <trkpt lat="45.10645" lon="1.26653">
        <ele>155.4</ele>
        <time>2023-10-28T13:12:19Z</time>
      </trkpt>
      <trkpt lat="45.10642" lon="1.26649">
        <ele>154.8</ele>
        <time>2023-10-28T13:12:20Z</time>
      </trkpt>
      <trkpt lat="45.1064" lon="1.26646">
        <ele>154.2</ele>
        <time>2023-10-28T13:12:21Z</time>
      </trkpt>
      <trkpt lat="45.10637" lon="1.26643">
        <ele>153.7</ele>
        <time>2023-10-28T13:12:22Z</time>
      </trkpt>
      <trkpt lat="45.10635" lon="1.26641">
        <ele>153.1</ele>
        <time>2023-10-28T13:12:23Z</time>
      </trkpt>
      <trkpt lat="45.10632" lon="1.26638">
        <ele>152.5</ele>
        <time>2023-10-28T13:12:24Z</time>
      </trkpt>
      <trkpt lat="45.10629" lon="1.26636">
        <ele>151.9</ele>
        <time>2023-10-28T13:12:25Z</time>
      </trkpt>
      <trkpt lat="45.10626" lon="1.26633">
        <ele>151.3</ele>
        <time>2023-10-28T13:12:26Z</time>
      </trkpt>
      <trkpt lat="45.10623" lon="1.26631">
        <ele>150.7</ele>
        <time>2023-10-28T13:12:27Z</time>
      </trkpt>
      <trkpt lat="45.1062" lon="1.26629">
        <ele>150.1</ele>
        <time>2023-10-28T13:12:28Z</time>
      </trkpt>
      <trkpt lat="45.10617" lon="1.26627">
        <ele>149.6</ele>
        <time>2023-10-28T13:12:29Z</time>
      </trkpt>
      <trkpt lat="45.10614" lon="1.26625">
        <ele>148.9</ele>
        <time>2023-10-28T13:12:30Z</time>
      </trkpt>
      <trkpt lat="45.10611" lon="1.26623">
        <ele>148.4</ele>
        <time>2023-10-28T13:12:31Z</time>
      </trkpt>
      <trkpt lat="45.10608" lon="1.26621">
        <ele>147.8</ele>
        <time>2023-10-28T13:12:32Z</time>
      </trkpt>
      <trkpt lat="45.10605" lon="1.26618">
        <ele>147.2</ele>
        <time>2023-10-28T13:12:33Z</time>
      </trkpt>
      <trkpt lat="45.10601" lon="1.26615">
        <ele>146.5</ele>
        <time>2023-10-28T13:12:34Z</time>
      </trkpt>
      <trkpt lat="45.10598" lon="1.26613">
        <ele>145.9</ele>
        <time>2023-10-28T13:12:35Z</time>
      </trkpt>
      <trkpt lat="45.10595" lon="1.2661">
        <ele>145.3</ele>
        <time>2023-10-28T13:12:36Z</time>
      </trkpt>
      <trkpt lat="45.10592" lon="1.26608">
        <ele>144.7</ele>
        <time>2023-10-28T13:12:37Z</time>
      </trkpt>
      <trkpt lat="45.10588" lon="1.26606">
        <ele>143.9</ele>
        <time>2023-10-28T13:12:38Z</time>
      </trkpt>
      <trkpt lat="45.10584" lon="1.26604">
        <ele>143.2</ele>
        <time>2023-10-28T13:12:39Z</time>
      </trkpt>
      <trkpt lat="45.1058" lon="1.26602">
        <ele>142.5</ele>
        <time>2023-10-28T13:12:40Z</time>
      </trkpt>
      <trkpt lat="45.10577" lon="1.26601">
        <ele>141.8</ele>
        <time>2023-10-28T13:12:41Z</time>
      </trkpt>
      <trkpt lat="45.10573" lon="1.266">
        <ele>141.1</ele>
        <time>2023-10-28T13:12:42Z</time>
      </trkpt>
      <trkpt lat="45.10569" lon="1.266">
        <ele>140.5</ele>
        <time>2023-10-28T13:12:43Z</time>
      </trkpt>
      <trkpt lat="45.10566" lon="1.26599">
        <ele>139.9</ele>
        <time>2023-10-28T13:12:44Z</time>
      </trkpt>
      <trkpt lat="45.10562" lon="1.26599">
        <ele>139.2</ele>
        <time>2023-10-28T13:12:45Z</time>
      </trkpt>
      <trkpt lat="45.10558" lon="1.26599">
        <ele>138.6</ele>
        <time>2023-10-28T13:12:46Z</time>
      </trkpt>
      <trkpt lat="45.10555" lon="1.26598">
        <ele>138</ele>
        <time>2023-10-28T13:12:47Z</time>
      </trkpt>
      <trkpt lat="45.10551" lon="1.26597">
        <ele>137.4</ele>
        <time>2023-10-28T13:12:48Z</time>
      </trkpt>
      <trkpt lat="45.10548" lon="1.26596">
        <ele>136.8</ele>
        <time>2023-10-28T13:12:49Z</time>
      </trkpt>
      <trkpt lat="45.10544" lon="1.26595">
        <ele>136.2</ele>
        <time>2023-10-28T13:12:50Z</time>
      </trkpt>
      <trkpt lat="45.1054" lon="1.26593">
        <ele>135.7</ele>
        <time>2023-10-28T13:12:51Z</time>
      </trkpt>
      <trkpt lat="45.10537" lon="1.26592">
        <ele>135.2</ele>
        <time>2023-10-28T13:12:52Z</time>
      </trkpt>
      <trkpt lat="45.10534" lon="1.2659">
        <ele>134.6</ele>
        <time>2023-10-28T13:12:53Z</time>
      </trkpt>
      <trkpt lat="45.1053" lon="1.26588">
        <ele>134.1</ele>
        <time>2023-10-28T13:12:54Z</time>
      </trkpt>
      <trkpt lat="45.10527" lon="1.26586">
        <ele>133.6</ele>
        <time>2023-10-28T13:12:55Z</time>
      </trkpt>
      <trkpt lat="45.10524" lon="1.26584">
        <ele>133</ele>
        <time>2023-10-28T13:12:56Z</time>
      </trkpt>
      <trkpt lat="45.10521" lon="1.26582">
        <ele>132.5</ele>
        <time>2023-10-28T13:12:57Z</time>
      </trkpt>
      <trkpt lat="45.10518" lon="1.26579">
        <ele>132</ele>
        <time>2023-10-28T13:12:58Z</time>
      </trkpt>
      <trkpt lat="45.10515" lon="1.26577">
        <ele>131.5</ele>
        <time>2023-10-28T13:12:59Z</time>
      </trkpt>
      <trkpt lat="45.10511" lon="1.26575">
        <ele>131</ele>
        <time>2023-10-28T13:13:00Z</time>
      </trkpt>
      <trkpt lat="45.10508" lon="1.26574">
        <ele>130.5</ele>
        <time>2023-10-28T13:13:01Z</time>
      </trkpt>
      <trkpt lat="45.10505" lon="1.26572">
        <ele>130</ele>
        <time>2023-10-28T13:13:02Z</time>
      </trkpt>
      <trkpt lat="45.10502" lon="1.26571">
        <ele>129.5</ele>
        <time>2023-10-28T13:13:03Z</time>
      </trkpt>
      <trkpt lat="45.10499" lon="1.26569">
        <ele>129.1</ele>
        <time>2023-10-28T13:13:04Z</time>
      </trkpt>
      <trkpt lat="45.10496" lon="1.26568">
        <ele>128.6</ele>
        <time>2023-10-28T13:13:05Z</time>
      </trkpt>
      <trkpt lat="45.10493" lon="1.26568">
        <ele>128</ele>
        <time>2023-10-28T13:13:06Z</time>
      </trkpt>
      <trkpt lat="45.1049" lon="1.26567">
        <ele>127.5</ele>
        <time>2023-10-28T13:13:07Z</time>
      </trkpt>
      <trkpt lat="45.10486" lon="1.26566">
        <ele>126.9</ele>
        <time>2023-10-28T13:13:08Z</time>
      </trkpt>
      <trkpt lat="45.10484" lon="1.26566">
        <ele>126.5</ele>
        <time>2023-10-28T13:13:09Z</time>
      </trkpt>
      <trkpt lat="45.10481" lon="1.26565">
        <ele>126.1</ele>
        <time>2023-10-28T13:13:10Z</time>
      </trkpt>
      <trkpt lat="45.10479" lon="1.26565">
        <ele>125.7</ele>
        <time>2023-10-28T13:13:11Z</time>
      </trkpt>
      <trkpt lat="45.10477" lon="1.26565">
        <ele>125.5</ele>
        <time>2023-10-28T13:13:12Z</time>
      </trkpt>
      <trkpt lat="45.10475" lon="1.26564">
        <ele>125.2</ele>
        <time>2023-10-28T13:13:13Z</time>
      </trkpt>
      <trkpt lat="45.10473" lon="1.26564">
        <ele>124.9</ele>
        <time>2023-10-28T13:13:14Z</time>
      </trkpt>
      <trkpt lat="45.10471" lon="1.26564">
        <ele>124.7</ele>
        <time>2023-10-28T13:13:15Z</time>
      </trkpt>
      <trkpt lat="45.10469" lon="1.26563">
        <ele>124.3</ele>
        <time>2023-10-28T13:13:16Z</time>
      </trkpt>
      <trkpt lat="45.10467" lon="1.26563">
        <ele>124</ele>
        <time>2023-10-28T13:13:17Z</time>
      </trkpt>
      <trkpt lat="45.10464" lon="1.26563">
        <ele>123.7</ele>
        <time>2023-10-28T13:13:18Z</time>
      </trkpt>
      <trkpt lat="45.10461" lon="1.26562">
        <ele>123.4</ele>
        <time>2023-10-28T13:13:19Z</time>
      </trkpt>
      <trkpt lat="45.10459" lon="1.26562">
        <ele>123</ele>
        <time>2023-10-28T13:13:20Z</time>
      </trkpt>
      <trkpt lat="45.10455" lon="1.26561">
        <ele>122.6</ele>
        <time>2023-10-28T13:13:21Z</time>
      </trkpt>
      <trkpt lat="45.10452" lon="1.2656">
        <ele>122.2</ele>
        <time>2023-10-28T13:13:22Z</time>
      </trkpt>
      <trkpt lat="45.10449" lon="1.26559">
        <ele>121.7</ele>
        <time>2023-10-28T13:13:23Z</time>
      </trkpt>
      <trkpt lat="45.10445" lon="1.26559">
        <ele>121.2</ele>
        <time>2023-10-28T13:13:24Z</time>
      </trkpt>
      <trkpt lat="45.10442" lon="1.26558">
        <ele>120.8</ele>
        <time>2023-10-28T13:13:25Z</time>
      </trkpt>
      <trkpt lat="45.10438" lon="1.26558">
        <ele>120.4</ele>
        <time>2023-10-28T13:13:26Z</time>
      </trkpt>
      <trkpt lat="45.10435" lon="1.26557">
        <ele>120.1</ele>
        <time>2023-10-28T13:13:27Z</time>
      </trkpt>
      <trkpt lat="45.10432" lon="1.26557">
        <ele>119.7</ele>
        <time>2023-10-28T13:13:28Z</time>
      </trkpt>
      <trkpt lat="45.10429" lon="1.26556">
        <ele>119.4</ele>
        <time>2023-10-28T13:13:29Z</time>
      </trkpt>
      <trkpt lat="45.10426" lon="1.26556">
        <ele>119.1</ele>
        <time>2023-10-28T13:13:30Z</time>
      </trkpt>
      <trkpt lat="45.10423" lon="1.26556">
        <ele>118.8</ele>
        <time>2023-10-28T13:13:31Z</time>
      </trkpt>
      <trkpt lat="45.1042" lon="1.26556">
        <ele>118.5</ele>
        <time>2023-10-28T13:13:32Z</time>
      </trkpt>
      <trkpt lat="45.10417" lon="1.26556">
        <ele>118.3</ele>
        <time>2023-10-28T13:13:33Z</time>
      </trkpt>
      <trkpt lat="45.10414" lon="1.26556">
        <ele>118</ele>
        <time>2023-10-28T13:13:34Z</time>
      </trkpt>
      <trkpt lat="45.10411" lon="1.26556">
        <ele>117.7</ele>
        <time>2023-10-28T13:13:35Z</time>
      </trkpt>
      <trkpt lat="45.10408" lon="1.26557">
        <ele>117.4</ele>
        <time>2023-10-28T13:13:36Z</time>
      </trkpt>
      <trkpt lat="45.10405" lon="1.26557">
        <ele>117.1</ele>
        <time>2023-10-28T13:13:37Z</time>
      </trkpt>
      <trkpt lat="45.10402" lon="1.26557">
        <ele>116.8</ele>
        <time>2023-10-28T13:13:38Z</time>
      </trkpt>
      <trkpt lat="45.10399" lon="1.26557">
        <ele>116.6</ele>
        <time>2023-10-28T13:13:39Z</time>
      </trkpt>
      <trkpt lat="45.10396" lon="1.26557">
        <ele>116.3</ele>
        <time>2023-10-28T13:13:40Z</time>
      </trkpt>
      <trkpt lat="45.10393" lon="1.26557">
        <ele>116</ele>
        <time>2023-10-28T13:13:41Z</time>
      </trkpt>
      <trkpt lat="45.10391" lon="1.26556">
        <ele>115.7</ele>
        <time>2023-10-28T13:13:42Z</time>
      </trkpt>
      <trkpt lat="45.10387" lon="1.26555">
        <ele>115.4</ele>
        <time>2023-10-28T13:13:43Z</time>
      </trkpt>
      <trkpt lat="45.10384" lon="1.26554">
        <ele>115.1</ele>
        <time>2023-10-28T13:13:44Z</time>
      </trkpt>
      <trkpt lat="45.10381" lon="1.26553">
        <ele>114.8</ele>
        <time>2023-10-28T13:13:45Z</time>
      </trkpt>
      <trkpt lat="45.10378" lon="1.26551">
        <ele>114.5</ele>
        <time>2023-10-28T13:13:46Z</time>
      </trkpt>
      <trkpt lat="45.10375" lon="1.2655">
        <ele>114.1</ele>
        <time>2023-10-28T13:13:47Z</time>
      </trkpt>
      <trkpt lat="45.10373" lon="1.26548">
        <ele>113.8</ele>
        <time>2023-10-28T13:13:48Z</time>
      </trkpt>
      <trkpt lat="45.1037" lon="1.26547">
        <ele>113.5</ele>
        <time>2023-10-28T13:13:49Z</time>
      </trkpt>
      <trkpt lat="45.10367" lon="1.26546">
        <ele>113.2</ele>
        <time>2023-10-28T13:13:50Z</time>
      </trkpt>
      <trkpt lat="45.10364" lon="1.26545">
        <ele>112.9</ele>
        <time>2023-10-28T13:13:51Z</time>
      </trkpt>
      <trkpt lat="45.10362" lon="1.26544">
        <ele>112.6</ele>
        <time>2023-10-28T13:13:52Z</time>
      </trkpt>
      <trkpt lat="45.10359" lon="1.26542">
        <ele>112.3</ele>
        <time>2023-10-28T13:13:53Z</time>
      </trkpt>
      <trkpt lat="45.10357" lon="1.26541">
        <ele>112</ele>
        <time>2023-10-28T13:13:54Z</time>
      </trkpt>
      <trkpt lat="45.10354" lon="1.2654">
        <ele>111.7</ele>
        <time>2023-10-28T13:13:55Z</time>
      </trkpt>
      <trkpt lat="45.10352" lon="1.26538">
        <ele>111.4</ele>
        <time>2023-10-28T13:13:56Z</time>
      </trkpt>
      <trkpt lat="45.10349" lon="1.26536">
        <ele>111.1</ele>
        <time>2023-10-28T13:13:57Z</time>
      </trkpt>
      <trkpt lat="45.10347" lon="1.26534">
        <ele>110.7</ele>
        <time>2023-10-28T13:13:58Z</time>
      </trkpt>
      <trkpt lat="45.10344" lon="1.26532">
        <ele>110.4</ele>
        <time>2023-10-28T13:13:59Z</time>
      </trkpt>
      <trkpt lat="45.10342" lon="1.26531">
        <ele>110</ele>
        <time>2023-10-28T13:14:00Z</time>
      </trkpt>
      <trkpt lat="45.1034" lon="1.26529">
        <ele>109.8</ele>
        <time>2023-10-28T13:14:01Z</time>
      </trkpt>
      <trkpt lat="45.10338" lon="1.26528">
        <ele>109.4</ele>
        <time>2023-10-28T13:14:02Z</time>
      </trkpt>
      <trkpt lat="45.10336" lon="1.26527">
        <ele>109.2</ele>
        <time>2023-10-28T13:14:03Z</time>
      </trkpt>
      <trkpt lat="45.10333" lon="1.26526">
        <ele>109</ele>
        <time>2023-10-28T13:14:04Z</time>
      </trkpt>
      <trkpt lat="45.10331" lon="1.26526">
        <ele>108.8</ele>
        <time>2023-10-28T13:14:05Z</time>
      </trkpt>
      <trkpt lat="45.10329" lon="1.26525">
        <ele>108.6</ele>
        <time>2023-10-28T13:14:06Z</time>
      </trkpt>
      <trkpt lat="45.10326" lon="1.26524">
        <ele>108.3</ele>
        <time>2023-10-28T13:14:07Z</time>
      </trkpt>
      <trkpt lat="45.10323" lon="1.26523">
        <ele>108.1</ele>
        <time>2023-10-28T13:14:08Z</time>
      </trkpt>
      <trkpt lat="45.1032" lon="1.26522">
        <ele>107.9</ele>
        <time>2023-10-28T13:14:09Z</time>
      </trkpt>
      <trkpt lat="45.10317" lon="1.26521">
        <ele>107.6</ele>
        <time>2023-10-28T13:14:10Z</time>
      </trkpt>
      <trkpt lat="45.10314" lon="1.2652">
        <ele>107.4</ele>
        <time>2023-10-28T13:14:11Z</time>
      </trkpt>
      <trkpt lat="45.10311" lon="1.26519">
        <ele>107.2</ele>
        <time>2023-10-28T13:14:12Z</time>
      </trkpt>
      <trkpt lat="45.10309" lon="1.26519">
        <ele>107.1</ele>
        <time>2023-10-28T13:14:13Z</time>
      </trkpt>
      <trkpt lat="45.10306" lon="1.26519">
        <ele>106.6</ele>
        <time>2023-10-28T13:14:14Z</time>
      </trkpt>
      <trkpt lat="45.10304" lon="1.26521">
        <ele>106.6</ele>
        <time>2023-10-28T13:14:15Z</time>
      </trkpt>
      <trkpt lat="45.10302" lon="1.26523">
        <ele>106.6</ele>
        <time>2023-10-28T13:14:16Z</time>
      </trkpt>
      <trkpt lat="45.10301" lon="1.26526">
        <ele>106.6</ele>
        <time>2023-10-28T13:14:17Z</time>
      </trkpt>
      <trkpt lat="45.10299" lon="1.26529">
        <ele>106.6</ele>
        <time>2023-10-28T13:14:18Z</time>
      </trkpt>
      <trkpt lat="45.10299" lon="1.26533">
        <ele>106.6</ele>
        <time>2023-10-28T13:14:19Z</time>
      </trkpt>
      <trkpt lat="45.10298" lon="1.26536">
        <ele>106.6</ele>
        <time>2023-10-28T13:14:20Z</time>
      </trkpt>
      <trkpt lat="45.10297" lon="1.26541">
        <ele>106.6</ele>
        <time>2023-10-28T13:14:21Z</time>
      </trkpt>
      <trkpt lat="45.10296" lon="1.26545">
        <ele>106.6</ele>
        <time>2023-10-28T13:14:22Z</time>
      </trkpt>
      <trkpt lat="45.10296" lon="1.26549">
        <ele>106.6</ele>
        <time>2023-10-28T13:14:23Z</time>
      </trkpt>
      <trkpt lat="45.10296" lon="1.26553">
        <ele>106.7</ele>
        <time>2023-10-28T13:14:24Z</time>
      </trkpt>
      <trkpt lat="45.10296" lon="1.26558">
        <ele>106.7</ele>
        <time>2023-10-28T13:14:25Z</time>
      </trkpt>
      <trkpt lat="45.10295" lon="1.26562">
        <ele>106.7</ele>
        <time>2023-10-28T13:14:26Z</time>
      </trkpt>
      <trkpt lat="45.10294" lon="1.26566">
        <ele>106.7</ele>
        <time>2023-10-28T13:14:27Z</time>
      </trkpt>
      <trkpt lat="45.10294" lon="1.2657">
        <ele>106.7</ele>
        <time>2023-10-28T13:14:28Z</time>
      </trkpt>
      <trkpt lat="45.10293" lon="1.26573">
        <ele>106.6</ele>
        <time>2023-10-28T13:14:29Z</time>
      </trkpt>
      <trkpt lat="45.10292" lon="1.26577">
        <ele>106.6</ele>
        <time>2023-10-28T13:14:30Z</time>
      </trkpt>
      <trkpt lat="45.10291" lon="1.26581">
        <ele>106.6</ele>
        <time>2023-10-28T13:14:31Z</time>
      </trkpt>
      <trkpt lat="45.1029" lon="1.26584">
        <ele>106.6</ele>
        <time>2023-10-28T13:14:32Z</time>
      </trkpt>
      <trkpt lat="45.10289" lon="1.26588">
        <ele>106.6</ele>
        <time>2023-10-28T13:14:33Z</time>
      </trkpt>
      <trkpt lat="45.10288" lon="1.26591">
        <ele>106.5</ele>
        <time>2023-10-28T13:14:34Z</time>
      </trkpt>
      <trkpt lat="45.10286" lon="1.26595">
        <ele>106.5</ele>
        <time>2023-10-28T13:14:35Z</time>
      </trkpt>
      <trkpt lat="45.10285" lon="1.26599">
        <ele>106.5</ele>
        <time>2023-10-28T13:14:36Z</time>
      </trkpt>
      <trkpt lat="45.10284" lon="1.26602">
        <ele>106.4</ele>
        <time>2023-10-28T13:14:37Z</time>
      </trkpt>
      <trkpt lat="45.10282" lon="1.26605">
        <ele>106.4</ele>
        <time>2023-10-28T13:14:38Z</time>
      </trkpt>
      <trkpt lat="45.1028" lon="1.26608">
        <ele>106.3</ele>
        <time>2023-10-28T13:14:39Z</time>
      </trkpt>
      <trkpt lat="45.10278" lon="1.26611">
        <ele>106.3</ele>
        <time>2023-10-28T13:14:40Z</time>
      </trkpt>
      <trkpt lat="45.10276" lon="1.26614">
        <ele>106.2</ele>
        <time>2023-10-28T13:14:41Z</time>
      </trkpt>
      <trkpt lat="45.10274" lon="1.26616">
        <ele>106.2</ele>
        <time>2023-10-28T13:14:42Z</time>
      </trkpt>
      <trkpt lat="45.10272" lon="1.26618">
        <ele>106.2</ele>
        <time>2023-10-28T13:14:43Z</time>
      </trkpt>
      <trkpt lat="45.1027" lon="1.2662">
        <ele>106.2</ele>
        <time>2023-10-28T13:14:44Z</time>
      </trkpt>
      <trkpt lat="45.10267" lon="1.26621">
        <ele>106.1</ele>
        <time>2023-10-28T13:14:45Z</time>
      </trkpt>
      <trkpt lat="45.10264" lon="1.26623">
        <ele>106.1</ele>
        <time>2023-10-28T13:14:46Z</time>
      </trkpt>
      <trkpt lat="45.10262" lon="1.26624">
        <ele>106.1</ele>
        <time>2023-10-28T13:14:47Z</time>
      </trkpt>
      <trkpt lat="45.10259" lon="1.26626">
        <ele>106.1</ele>
        <time>2023-10-28T13:14:48Z</time>
      </trkpt>
      <trkpt lat="45.10257" lon="1.26627">
        <ele>106.1</ele>
        <time>2023-10-28T13:14:49Z</time>
      </trkpt>
      <trkpt lat="45.10254" lon="1.26628">
        <ele>106.1</ele>
        <time>2023-10-28T13:14:50Z</time>
      </trkpt>
      <trkpt lat="45.10252" lon="1.2663">
        <ele>106.1</ele>
        <time>2023-10-28T13:14:51Z</time>
      </trkpt>
      <trkpt lat="45.10249" lon="1.26631">
        <ele>106.2</ele>
        <time>2023-10-28T13:14:52Z</time>
      </trkpt>
      <trkpt lat="45.10247" lon="1.26633">
        <ele>106.2</ele>
        <time>2023-10-28T13:14:53Z</time>
      </trkpt>
      <trkpt lat="45.10244" lon="1.26635">
        <ele>106.2</ele>
        <time>2023-10-28T13:14:54Z</time>
      </trkpt>
      <trkpt lat="45.10242" lon="1.26636">
        <ele>106.3</ele>
        <time>2023-10-28T13:14:55Z</time>
      </trkpt>
      <trkpt lat="45.10239" lon="1.26638">
        <ele>106.4</ele>
        <time>2023-10-28T13:14:56Z</time>
      </trkpt>
      <trkpt lat="45.10237" lon="1.2664">
        <ele>106.5</ele>
        <time>2023-10-28T13:14:57Z</time>
      </trkpt>
      <trkpt lat="45.10235" lon="1.26641">
        <ele>106.5</ele>
        <time>2023-10-28T13:14:58Z</time>
      </trkpt>
      <trkpt lat="45.10232" lon="1.26643">
        <ele>106.6</ele>
        <time>2023-10-28T13:14:59Z</time>
      </trkpt>
      <trkpt lat="45.1023" lon="1.26644">
        <ele>106.7</ele>
        <time>2023-10-28T13:15:00Z</time>
      </trkpt>
      <trkpt lat="45.10228" lon="1.26646">
        <ele>106.8</ele>
        <time>2023-10-28T13:15:01Z</time>
      </trkpt>
      <trkpt lat="45.10226" lon="1.26647">
        <ele>107</ele>
        <time>2023-10-28T13:15:02Z</time>
      </trkpt>
      <trkpt lat="45.10223" lon="1.26648">
        <ele>107.1</ele>
        <time>2023-10-28T13:15:03Z</time>
      </trkpt>
      <trkpt lat="45.10222" lon="1.26649">
        <ele>107.3</ele>
        <time>2023-10-28T13:15:04Z</time>
      </trkpt>
      <trkpt lat="45.10219" lon="1.2665">
        <ele>107.5</ele>
        <time>2023-10-28T13:15:05Z</time>
      </trkpt>
      <trkpt lat="45.10217" lon="1.26651">
        <ele>107.6</ele>
        <time>2023-10-28T13:15:06Z</time>
      </trkpt>
      <trkpt lat="45.10215" lon="1.26651">
        <ele>107.8</ele>
        <time>2023-10-28T13:15:07Z</time>
      </trkpt>
      <trkpt lat="45.10213" lon="1.26652">
        <ele>108</ele>
        <time>2023-10-28T13:15:08Z</time>
      </trkpt>
      <trkpt lat="45.10211" lon="1.26652">
        <ele>108.2</ele>
        <time>2023-10-28T13:15:09Z</time>
      </trkpt>
      <trkpt lat="45.10209" lon="1.26653">
        <ele>108.4</ele>
        <time>2023-10-28T13:15:10Z</time>
      </trkpt>
      <trkpt lat="45.10208" lon="1.26654">
        <ele>108.7</ele>
        <time>2023-10-28T13:15:11Z</time>
      </trkpt>
      <trkpt lat="45.10207" lon="1.26655">
        <ele>108.8</ele>
        <time>2023-10-28T13:15:12Z</time>
      </trkpt>
      <trkpt lat="45.10207" lon="1.26657">
        <ele>108.9</ele>
        <time>2023-10-28T13:15:13Z</time>
      </trkpt>
      <trkpt lat="45.10207" lon="1.26659">
        <ele>109</ele>
        <time>2023-10-28T13:15:14Z</time>
      </trkpt>
      <trkpt lat="45.10207" lon="1.26661">
        <ele>109.1</ele>
        <time>2023-10-28T13:15:15Z</time>
      </trkpt>
      <trkpt lat="45.10208" lon="1.26664">
        <ele>109.3</ele>
        <time>2023-10-28T13:15:16Z</time>
      </trkpt>
      <trkpt lat="45.10209" lon="1.26667">
        <ele>109.4</ele>
        <time>2023-10-28T13:15:17Z</time>
      </trkpt>
      <trkpt lat="45.1021" lon="1.2667">
        <ele>109.6</ele>
        <time>2023-10-28T13:15:18Z</time>
      </trkpt>
      <trkpt lat="45.10212" lon="1.26672">
        <ele>109.7</ele>
        <time>2023-10-28T13:15:19Z</time>
      </trkpt>
      <trkpt lat="45.10214" lon="1.26675">
        <ele>109.9</ele>
        <time>2023-10-28T13:15:20Z</time>
      </trkpt>
      <trkpt lat="45.10215" lon="1.26678">
        <ele>110.1</ele>
        <time>2023-10-28T13:15:21Z</time>
      </trkpt>
      <trkpt lat="45.10216" lon="1.2668">
        <ele>110.2</ele>
        <time>2023-10-28T13:15:22Z</time>
      </trkpt>
      <trkpt lat="45.10217" lon="1.26683">
        <ele>110.4</ele>
        <time>2023-10-28T13:15:23Z</time>
      </trkpt>
      <trkpt lat="45.10218" lon="1.26686">
        <ele>110.5</ele>
        <time>2023-10-28T13:15:24Z</time>
      </trkpt>
      <trkpt lat="45.1022" lon="1.26689">
        <ele>110.6</ele>
        <time>2023-10-28T13:15:25Z</time>
      </trkpt>
      <trkpt lat="45.10221" lon="1.26692">
        <ele>110.8</ele>
        <time>2023-10-28T13:15:26Z</time>
      </trkpt>
      <trkpt lat="45.10222" lon="1.26694">
        <ele>110.9</ele>
        <time>2023-10-28T13:15:27Z</time>
      </trkpt>
      <trkpt lat="45.10223" lon="1.26697">
        <ele>111.1</ele>
        <time>2023-10-28T13:15:28Z</time>
      </trkpt>
      <trkpt lat="45.10224" lon="1.267">
        <ele>111.2</ele>
        <time>2023-10-28T13:15:29Z</time>
      </trkpt>
      <trkpt lat="45.10225" lon="1.26702">
        <ele>111.3</ele>
        <time>2023-10-28T13:15:30Z</time>
      </trkpt>
      <trkpt lat="45.10226" lon="1.26704">
        <ele>111.4</ele>
        <time>2023-10-28T13:15:31Z</time>
      </trkpt>
      <trkpt lat="45.10228" lon="1.26706">
        <ele>111.6</ele>
        <time>2023-10-28T13:15:32Z</time>
      </trkpt>
      <trkpt lat="45.10229" lon="1.26709">
        <ele>111.7</ele>
        <time>2023-10-28T13:15:33Z</time>
      </trkpt>
      <trkpt lat="45.1023" lon="1.26711">
        <ele>111.8</ele>
        <time>2023-10-28T13:15:34Z</time>
      </trkpt>
      <trkpt lat="45.10232" lon="1.26713">
        <ele>111.9</ele>
        <time>2023-10-28T13:15:35Z</time>
      </trkpt>
      <trkpt lat="45.10233" lon="1.26715">
        <ele>112.1</ele>
        <time>2023-10-28T13:15:36Z</time>
      </trkpt>
      <trkpt lat="45.10235" lon="1.26717">
        <ele>112.2</ele>
        <time>2023-10-28T13:15:37Z</time>
      </trkpt>
      <trkpt lat="45.10237" lon="1.26719">
        <ele>112.3</ele>
        <time>2023-10-28T13:15:38Z</time>
      </trkpt>
      <trkpt lat="45.10238" lon="1.26721">
        <ele>112.5</ele>
        <time>2023-10-28T13:15:39Z</time>
      </trkpt>
      <trkpt lat="45.1024" lon="1.26724">
        <ele>112.7</ele>
        <time>2023-10-28T13:15:40Z</time>
      </trkpt>
      <trkpt lat="45.10242" lon="1.26726">
        <ele>112.8</ele>
        <time>2023-10-28T13:15:41Z</time>
      </trkpt>
      <trkpt lat="45.10243" lon="1.26728">
        <ele>113</ele>
        <time>2023-10-28T13:15:42Z</time>
      </trkpt>
      <trkpt lat="45.10245" lon="1.2673">
        <ele>113.2</ele>
        <time>2023-10-28T13:15:43Z</time>
      </trkpt>
      <trkpt lat="45.10247" lon="1.26732">
        <ele>113.3</ele>
        <time>2023-10-28T13:15:44Z</time>
      </trkpt>
      <trkpt lat="45.10248" lon="1.26735">
        <ele>113.5</ele>
        <time>2023-10-28T13:15:45Z</time>
      </trkpt>
      <trkpt lat="45.1025" lon="1.26737">
        <ele>113.7</ele>
        <time>2023-10-28T13:15:46Z</time>
      </trkpt>
      <trkpt lat="45.10251" lon="1.26739">
        <ele>113.9</ele>
        <time>2023-10-28T13:15:47Z</time>
      </trkpt>
      <trkpt lat="45.10253" lon="1.26742">
        <ele>114.1</ele>
        <time>2023-10-28T13:15:48Z</time>
      </trkpt>
      <trkpt lat="45.10254" lon="1.26744">
        <ele>114.2</ele>
        <time>2023-10-28T13:15:49Z</time>
      </trkpt>
      <trkpt lat="45.10255" lon="1.26746">
        <ele>114.4</ele>
        <time>2023-10-28T13:15:50Z</time>
      </trkpt>
      <trkpt lat="45.10257" lon="1.26748">
        <ele>114.6</ele>
        <time>2023-10-28T13:15:51Z</time>
      </trkpt>
      <trkpt lat="45.10258" lon="1.2675">
        <ele>114.8</ele>
        <time>2023-10-28T13:15:52Z</time>
      </trkpt>
      <trkpt lat="45.10259" lon="1.26752">
        <ele>114.9</ele>
        <time>2023-10-28T13:15:53Z</time>
      </trkpt>
      <trkpt lat="45.1026" lon="1.26754">
        <ele>115.1</ele>
        <time>2023-10-28T13:15:54Z</time>
      </trkpt>
      <trkpt lat="45.10262" lon="1.26757">
        <ele>115.3</ele>
        <time>2023-10-28T13:15:55Z</time>
      </trkpt>
      <trkpt lat="45.10263" lon="1.26759">
        <ele>115.4</ele>
        <time>2023-10-28T13:15:56Z</time>
      </trkpt>
      <trkpt lat="45.10264" lon="1.26761">
        <ele>115.6</ele>
        <time>2023-10-28T13:15:57Z</time>
      </trkpt>
      <trkpt lat="45.10266" lon="1.26763">
        <ele>115.8</ele>
        <time>2023-10-28T13:15:58Z</time>
      </trkpt>
      <trkpt lat="45.10267" lon="1.26766">
        <ele>116</ele>
        <time>2023-10-28T13:15:59Z</time>
      </trkpt>
      <trkpt lat="45.10268" lon="1.26768">
        <ele>116.1</ele>
        <time>2023-10-28T13:16:00Z</time>
      </trkpt>
      <trkpt lat="45.1027" lon="1.2677">
        <ele>116.3</ele>
        <time>2023-10-28T13:16:01Z</time>
      </trkpt>
      <trkpt lat="45.10271" lon="1.26773">
        <ele>116.4</ele>
        <time>2023-10-28T13:16:02Z</time>
      </trkpt>
      <trkpt lat="45.10272" lon="1.26775">
        <ele>116.5</ele>
        <time>2023-10-28T13:16:03Z</time>
      </trkpt>
      <trkpt lat="45.10273" lon="1.26777">
        <ele>116.6</ele>
        <time>2023-10-28T13:16:04Z</time>
      </trkpt>
      <trkpt lat="45.10275" lon="1.26779">
        <ele>116.7</ele>
        <time>2023-10-28T13:16:05Z</time>
      </trkpt>
      <trkpt lat="45.10276" lon="1.26781">
        <ele>116.8</ele>
        <time>2023-10-28T13:16:06Z</time>
      </trkpt>
      <trkpt lat="45.10278" lon="1.26783">
        <ele>116.9</ele>
        <time>2023-10-28T13:16:07Z</time>
      </trkpt>
      <trkpt lat="45.10279" lon="1.26785">
        <ele>117</ele>
        <time>2023-10-28T13:16:08Z</time>
      </trkpt>
      <trkpt lat="45.1028" lon="1.26787">
        <ele>117.1</ele>
        <time>2023-10-28T13:16:09Z</time>
      </trkpt>
      <trkpt lat="45.10281" lon="1.2679">
        <ele>117.1</ele>
        <time>2023-10-28T13:16:10Z</time>
      </trkpt>
      <trkpt lat="45.10283" lon="1.26792">
        <ele>117.2</ele>
        <time>2023-10-28T13:16:11Z</time>
      </trkpt>
      <trkpt lat="45.10284" lon="1.26794">
        <ele>117.3</ele>
        <time>2023-10-28T13:16:12Z</time>
      </trkpt>
      <trkpt lat="45.10285" lon="1.26796">
        <ele>117.3</ele>
        <time>2023-10-28T13:16:13Z</time>
      </trkpt>
      <trkpt lat="45.10286" lon="1.26799">
        <ele>117.4</ele>
        <time>2023-10-28T13:16:14Z</time>
      </trkpt>
      <trkpt lat="45.10288" lon="1.26801">
        <ele>117.5</ele>
        <time>2023-10-28T13:16:15Z</time>
      </trkpt>
      <trkpt lat="45.10289" lon="1.26803">
        <ele>117.5</ele>
        <time>2023-10-28T13:16:16Z</time>
      </trkpt>
      <trkpt lat="45.1029" lon="1.26806">
        <ele>117.6</ele>
        <time>2023-10-28T13:16:17Z</time>
      </trkpt>
      <trkpt lat="45.10291" lon="1.26808">
        <ele>117.6</ele>
        <time>2023-10-28T13:16:18Z</time>
      </trkpt>
      <trkpt lat="45.10292" lon="1.26811">
        <ele>117.7</ele>
        <time>2023-10-28T13:16:19Z</time>
      </trkpt>
      <trkpt lat="45.10293" lon="1.26813">
        <ele>117.7</ele>
        <time>2023-10-28T13:16:20Z</time>
      </trkpt>
      <trkpt lat="45.10295" lon="1.26816">
        <ele>117.8</ele>
        <time>2023-10-28T13:16:21Z</time>
      </trkpt>
      <trkpt lat="45.10296" lon="1.26818">
        <ele>117.8</ele>
        <time>2023-10-28T13:16:22Z</time>
      </trkpt>
      <trkpt lat="45.10297" lon="1.26821">
        <ele>117.9</ele>
        <time>2023-10-28T13:16:23Z</time>
      </trkpt>
      <trkpt lat="45.10299" lon="1.26823">
        <ele>117.9</ele>
        <time>2023-10-28T13:16:24Z</time>
      </trkpt>
      <trkpt lat="45.103" lon="1.26826">
        <ele>118</ele>
        <time>2023-10-28T13:16:25Z</time>
      </trkpt>
      <trkpt lat="45.10301" lon="1.26829">
        <ele>118</ele>
        <time>2023-10-28T13:16:26Z</time>
      </trkpt>
      <trkpt lat="45.10302" lon="1.26832">
        <ele>118</ele>
        <time>2023-10-28T13:16:27Z</time>
      </trkpt>
      <trkpt lat="45.10303" lon="1.26834">
        <ele>118.1</ele>
        <time>2023-10-28T13:16:28Z</time>
      </trkpt>
      <trkpt lat="45.10303" lon="1.26838">
        <ele>118.1</ele>
        <time>2023-10-28T13:16:29Z</time>
      </trkpt>
      <trkpt lat="45.10304" lon="1.26841">
        <ele>118.1</ele>
        <time>2023-10-28T13:16:30Z</time>
      </trkpt>
      <trkpt lat="45.10303" lon="1.26844">
        <ele>118.1</ele>
        <time>2023-10-28T13:16:31Z</time>
      </trkpt>
      <trkpt lat="45.10303" lon="1.26846">
        <ele>118.1</ele>
        <time>2023-10-28T13:16:32Z</time>
      </trkpt>
      <trkpt lat="45.10302" lon="1.26849">
        <ele>118.1</ele>
        <time>2023-10-28T13:16:33Z</time>
      </trkpt>
      <trkpt lat="45.10301" lon="1.26852">
        <ele>118.1</ele>
        <time>2023-10-28T13:16:34Z</time>
      </trkpt>
      <trkpt lat="45.10299" lon="1.26854">
        <ele>118</ele>
        <time>2023-10-28T13:16:35Z</time>
      </trkpt>
      <trkpt lat="45.10298" lon="1.26856">
        <ele>118</ele>
        <time>2023-10-28T13:16:36Z</time>
      </trkpt>
      <trkpt lat="45.10296" lon="1.26857">
        <ele>118</ele>
        <time>2023-10-28T13:16:37Z</time>
      </trkpt>
      <trkpt lat="45.10294" lon="1.26859">
        <ele>118</ele>
        <time>2023-10-28T13:16:38Z</time>
      </trkpt>
      <trkpt lat="45.10293" lon="1.26861">
        <ele>117.9</ele>
        <time>2023-10-28T13:16:39Z</time>
      </trkpt>
      <trkpt lat="45.10291" lon="1.26862">
        <ele>117.9</ele>
        <time>2023-10-28T13:16:40Z</time>
      </trkpt>
      <trkpt lat="45.10289" lon="1.26864">
        <ele>117.8</ele>
        <time>2023-10-28T13:16:41Z</time>
      </trkpt>
      <trkpt lat="45.10287" lon="1.26866">
        <ele>117.8</ele>
        <time>2023-10-28T13:16:42Z</time>
      </trkpt>
      <trkpt lat="45.10285" lon="1.26868">
        <ele>117.7</ele>
        <time>2023-10-28T13:16:43Z</time>
      </trkpt>
      <trkpt lat="45.10283" lon="1.26869">
        <ele>117.6</ele>
        <time>2023-10-28T13:16:44Z</time>
      </trkpt>
      <trkpt lat="45.10281" lon="1.26871">
        <ele>117.5</ele>
        <time>2023-10-28T13:16:45Z</time>
      </trkpt>
      <trkpt lat="45.1028" lon="1.26872">
        <ele>117.5</ele>
        <time>2023-10-28T13:16:46Z</time>
      </trkpt>
      <trkpt lat="45.10278" lon="1.26873">
        <ele>117.4</ele>
        <time>2023-10-28T13:16:47Z</time>
      </trkpt>
      <trkpt lat="45.10276" lon="1.26875">
        <ele>117.3</ele>
        <time>2023-10-28T13:16:48Z</time>
      </trkpt>
      <trkpt lat="45.10274" lon="1.26876">
        <ele>117.2</ele>
        <time>2023-10-28T13:16:49Z</time>
      </trkpt>
      <trkpt lat="45.10272" lon="1.26878">
        <ele>117.1</ele>
        <time>2023-10-28T13:16:50Z</time>
      </trkpt>
      <trkpt lat="45.1027" lon="1.2688">
        <ele>117</ele>
        <time>2023-10-28T13:16:51Z</time>
      </trkpt>
      <trkpt lat="45.10268" lon="1.26881">
        <ele>116.9</ele>
        <time>2023-10-28T13:16:52Z</time>
      </trkpt>
      <trkpt lat="45.10266" lon="1.26883">
        <ele>116.8</ele>
        <time>2023-10-28T13:16:53Z</time>
      </trkpt>
      <trkpt lat="45.10264" lon="1.26885">
        <ele>116.7</ele>
        <time>2023-10-28T13:16:54Z</time>
      </trkpt>
      <trkpt lat="45.10262" lon="1.26886">
        <ele>116.6</ele>
        <time>2023-10-28T13:16:55Z</time>
      </trkpt>
      <trkpt lat="45.10259" lon="1.26888">
        <ele>116.5</ele>
        <time>2023-10-28T13:16:56Z</time>
      </trkpt>
      <trkpt lat="45.10257" lon="1.26889">
        <ele>116.4</ele>
        <time>2023-10-28T13:16:57Z</time>
      </trkpt>
      <trkpt lat="45.10255" lon="1.26891">
        <ele>116.3</ele>
        <time>2023-10-28T13:16:58Z</time>
      </trkpt>
      <trkpt lat="45.10253" lon="1.26893">
        <ele>116.2</ele>
        <time>2023-10-28T13:16:59Z</time>
      </trkpt>
      <trkpt lat="45.10251" lon="1.26895">
        <ele>116.1</ele>
        <time>2023-10-28T13:17:00Z</time>
      </trkpt>
      <trkpt lat="45.10249" lon="1.26897">
        <ele>116</ele>
        <time>2023-10-28T13:17:01Z</time>
      </trkpt>
      <trkpt lat="45.10247" lon="1.26899">
        <ele>115.9</ele>
        <time>2023-10-28T13:17:02Z</time>
      </trkpt>
      <trkpt lat="45.10245" lon="1.269">
        <ele>115.7</ele>
        <time>2023-10-28T13:17:03Z</time>
      </trkpt>
      <trkpt lat="45.10243" lon="1.26902">
        <ele>115.6</ele>
        <time>2023-10-28T13:17:04Z</time>
      </trkpt>
      <trkpt lat="45.10241" lon="1.26904">
        <ele>115.5</ele>
        <time>2023-10-28T13:17:05Z</time>
      </trkpt>
      <trkpt lat="45.10239" lon="1.26905">
        <ele>115.3</ele>
        <time>2023-10-28T13:17:06Z</time>
      </trkpt>
      <trkpt lat="45.10237" lon="1.26907">
        <ele>115.1</ele>
        <time>2023-10-28T13:17:07Z</time>
      </trkpt>
      <trkpt lat="45.10235" lon="1.26909">
        <ele>114.9</ele>
        <time>2023-10-28T13:17:08Z</time>
      </trkpt>
      <trkpt lat="45.10233" lon="1.2691">
        <ele>114.7</ele>
        <time>2023-10-28T13:17:09Z</time>
      </trkpt>
      <trkpt lat="45.1023" lon="1.26911">
        <ele>114.6</ele>
        <time>2023-10-28T13:17:10Z</time>
      </trkpt>
      <trkpt lat="45.10228" lon="1.26912">
        <ele>114.4</ele>
        <time>2023-10-28T13:17:11Z</time>
      </trkpt>
      <trkpt lat="45.10226" lon="1.26914">
        <ele>114.2</ele>
        <time>2023-10-28T13:17:12Z</time>
      </trkpt>
      <trkpt lat="45.10223" lon="1.26915">
        <ele>114</ele>
        <time>2023-10-28T13:17:13Z</time>
      </trkpt>
      <trkpt lat="45.10221" lon="1.26916">
        <ele>113.8</ele>
        <time>2023-10-28T13:17:14Z</time>
      </trkpt>
      <trkpt lat="45.10218" lon="1.26917">
        <ele>113.6</ele>
        <time>2023-10-28T13:17:15Z</time>
      </trkpt>
      <trkpt lat="45.10216" lon="1.26918">
        <ele>113.4</ele>
        <time>2023-10-28T13:17:16Z</time>
      </trkpt>
      <trkpt lat="45.10214" lon="1.2692">
        <ele>113.2</ele>
        <time>2023-10-28T13:17:17Z</time>
      </trkpt>
      <trkpt lat="45.10211" lon="1.26921">
        <ele>113.1</ele>
        <time>2023-10-28T13:17:18Z</time>
      </trkpt>
      <trkpt lat="45.10209" lon="1.26923">
        <ele>113</ele>
        <time>2023-10-28T13:17:19Z</time>
      </trkpt>
      <trkpt lat="45.10206" lon="1.26925">
        <ele>112.9</ele>
        <time>2023-10-28T13:17:20Z</time>
      </trkpt>
      <trkpt lat="45.10204" lon="1.26927">
        <ele>112.8</ele>
        <time>2023-10-28T13:17:21Z</time>
      </trkpt>
      <trkpt lat="45.10202" lon="1.2693">
        <ele>112.8</ele>
        <time>2023-10-28T13:17:22Z</time>
      </trkpt>
      <trkpt lat="45.10202" lon="1.26933">
        <ele>112.8</ele>
        <time>2023-10-28T13:17:23Z</time>
      </trkpt>
      <trkpt lat="45.10201" lon="1.26936">
        <ele>112.8</ele>
        <time>2023-10-28T13:17:24Z</time>
      </trkpt>
      <trkpt lat="45.10201" lon="1.26939">
        <ele>112.8</ele>
        <time>2023-10-28T13:17:25Z</time>
      </trkpt>
      <trkpt lat="45.102" lon="1.26942">
        <ele>112.8</ele>
        <time>2023-10-28T13:17:26Z</time>
      </trkpt>
      <trkpt lat="45.10201" lon="1.26945">
        <ele>112.9</ele>
        <time>2023-10-28T13:17:27Z</time>
      </trkpt>
      <trkpt lat="45.10202" lon="1.26948">
        <ele>113</ele>
        <time>2023-10-28T13:17:28Z</time>
      </trkpt>
      <trkpt lat="45.10203" lon="1.26951">
        <ele>113.1</ele>
        <time>2023-10-28T13:17:29Z</time>
      </trkpt>
      <trkpt lat="45.10204" lon="1.26954">
        <ele>113.2</ele>
        <time>2023-10-28T13:17:30Z</time>
      </trkpt>
      <trkpt lat="45.10205" lon="1.26957">
        <ele>113.3</ele>
        <time>2023-10-28T13:17:31Z</time>
      </trkpt>
      <trkpt lat="45.10206" lon="1.26959">
        <ele>113.4</ele>
        <time>2023-10-28T13:17:32Z</time>
      </trkpt>
      <trkpt lat="45.10206" lon="1.26962">
        <ele>113.5</ele>
        <time>2023-10-28T13:17:33Z</time>
      </trkpt>
      <trkpt lat="45.10207" lon="1.26965">
        <ele>113.7</ele>
        <time>2023-10-28T13:17:34Z</time>
      </trkpt>
      <trkpt lat="45.10208" lon="1.26968">
        <ele>113.8</ele>
        <time>2023-10-28T13:17:35Z</time>
      </trkpt>
      <trkpt lat="45.10209" lon="1.26971">
        <ele>114</ele>
        <time>2023-10-28T13:17:36Z</time>
      </trkpt>
      <trkpt lat="45.10209" lon="1.26974">
        <ele>114.1</ele>
        <time>2023-10-28T13:17:37Z</time>
      </trkpt>
      <trkpt lat="45.1021" lon="1.26976">
        <ele>114.2</ele>
        <time>2023-10-28T13:17:38Z</time>
      </trkpt>
      <trkpt lat="45.1021" lon="1.26979">
        <ele>114.3</ele>
        <time>2023-10-28T13:17:39Z</time>
      </trkpt>
      <trkpt lat="45.10211" lon="1.26982">
        <ele>114.5</ele>
        <time>2023-10-28T13:17:40Z</time>
      </trkpt>
      <trkpt lat="45.10211" lon="1.26985">
        <ele>114.6</ele>
        <time>2023-10-28T13:17:41Z</time>
      </trkpt>
      <trkpt lat="45.10212" lon="1.26987">
        <ele>114.7</ele>
        <time>2023-10-28T13:17:42Z</time>
      </trkpt>
      <trkpt lat="45.10212" lon="1.2699">
        <ele>114.7</ele>
        <time>2023-10-28T13:17:43Z</time>
      </trkpt>
      <trkpt lat="45.10212" lon="1.26993">
        <ele>114.8</ele>
        <time>2023-10-28T13:17:44Z</time>
      </trkpt>
      <trkpt lat="45.10212" lon="1.26996">
        <ele>114.8</ele>
        <time>2023-10-28T13:17:45Z</time>
      </trkpt>
      <trkpt lat="45.10213" lon="1.26999">
        <ele>114.8</ele>
        <time>2023-10-28T13:17:46Z</time>
      </trkpt>
      <trkpt lat="45.10214" lon="1.27002">
        <ele>114.8</ele>
        <time>2023-10-28T13:17:47Z</time>
      </trkpt>
      <trkpt lat="45.10214" lon="1.27005">
        <ele>114.8</ele>
        <time>2023-10-28T13:17:48Z</time>
      </trkpt>
      <trkpt lat="45.10215" lon="1.27008">
        <ele>114.7</ele>
        <time>2023-10-28T13:17:49Z</time>
      </trkpt>
      <trkpt lat="45.10215" lon="1.27011">
        <ele>114.7</ele>
        <time>2023-10-28T13:17:50Z</time>
      </trkpt>
      <trkpt lat="45.10216" lon="1.27014">
        <ele>114.6</ele>
        <time>2023-10-28T13:17:51Z</time>
      </trkpt>
      <trkpt lat="45.10217" lon="1.27017">
        <ele>114.5</ele>
        <time>2023-10-28T13:17:52Z</time>
      </trkpt>
      <trkpt lat="45.10218" lon="1.2702">
        <ele>114.3</ele>
        <time>2023-10-28T13:17:53Z</time>
      </trkpt>
      <trkpt lat="45.10218" lon="1.27024">
        <ele>114.2</ele>
        <time>2023-10-28T13:17:54Z</time>
      </trkpt>
      <trkpt lat="45.1022" lon="1.27027">
        <ele>114</ele>
        <time>2023-10-28T13:17:55Z</time>
      </trkpt>
      <trkpt lat="45.1022" lon="1.2703">
        <ele>113.9</ele>
        <time>2023-10-28T13:17:56Z</time>
      </trkpt>
      <trkpt lat="45.10222" lon="1.27033">
        <ele>113.7</ele>
        <time>2023-10-28T13:17:57Z</time>
      </trkpt>
      <trkpt lat="45.10223" lon="1.27037">
        <ele>113.6</ele>
        <time>2023-10-28T13:17:58Z</time>
      </trkpt>
      <trkpt lat="45.10224" lon="1.2704">
        <ele>113.4</ele>
        <time>2023-10-28T13:17:59Z</time>
      </trkpt>
      <trkpt lat="45.10225" lon="1.27043">
        <ele>113.2</ele>
        <time>2023-10-28T13:18:00Z</time>
      </trkpt>
      <trkpt lat="45.10226" lon="1.27046">
        <ele>113.1</ele>
        <time>2023-10-28T13:18:01Z</time>
      </trkpt>
      <trkpt lat="45.10227" lon="1.2705">
        <ele>112.9</ele>
        <time>2023-10-28T13:18:02Z</time>
      </trkpt>
      <trkpt lat="45.10228" lon="1.27053">
        <ele>112.7</ele>
        <time>2023-10-28T13:18:03Z</time>
      </trkpt>
      <trkpt lat="45.10229" lon="1.27056">
        <ele>112.6</ele>
        <time>2023-10-28T13:18:04Z</time>
      </trkpt>
      <trkpt lat="45.1023" lon="1.2706">
        <ele>112.5</ele>
        <time>2023-10-28T13:18:05Z</time>
      </trkpt>
      <trkpt lat="45.10231" lon="1.27063">
        <ele>112.3</ele>
        <time>2023-10-28T13:18:06Z</time>
      </trkpt>
      <trkpt lat="45.10232" lon="1.27066">
        <ele>112.2</ele>
        <time>2023-10-28T13:18:07Z</time>
      </trkpt>
      <trkpt lat="45.10233" lon="1.2707">
        <ele>112</ele>
        <time>2023-10-28T13:18:08Z</time>
      </trkpt>
      <trkpt lat="45.10234" lon="1.27073">
        <ele>111.9</ele>
        <time>2023-10-28T13:18:09Z</time>
      </trkpt>
      <trkpt lat="45.10235" lon="1.27076">
        <ele>111.8</ele>
        <time>2023-10-28T13:18:10Z</time>
      </trkpt>
      <trkpt lat="45.10236" lon="1.2708">
        <ele>111.6</ele>
        <time>2023-10-28T13:18:11Z</time>
      </trkpt>
      <trkpt lat="45.10237" lon="1.27083">
        <ele>111.5</ele>
        <time>2023-10-28T13:18:12Z</time>
      </trkpt>
      <trkpt lat="45.10238" lon="1.27086">
        <ele>111.3</ele>
        <time>2023-10-28T13:18:13Z</time>
      </trkpt>
      <trkpt lat="45.10239" lon="1.27089">
        <ele>111.2</ele>
        <time>2023-10-28T13:18:14Z</time>
      </trkpt>
      <trkpt lat="45.10241" lon="1.27093">
        <ele>111.1</ele>
        <time>2023-10-28T13:18:15Z</time>
      </trkpt>
      <trkpt lat="45.10242" lon="1.27096">
        <ele>110.9</ele>
        <time>2023-10-28T13:18:16Z</time>
      </trkpt>
      <trkpt lat="45.10243" lon="1.27099">
        <ele>110.8</ele>
        <time>2023-10-28T13:18:17Z</time>
      </trkpt>
      <trkpt lat="45.10245" lon="1.27102">
        <ele>110.7</ele>
        <time>2023-10-28T13:18:18Z</time>
      </trkpt>
      <trkpt lat="45.10246" lon="1.27105">
        <ele>110.5</ele>
        <time>2023-10-28T13:18:19Z</time>
      </trkpt>
      <trkpt lat="45.10247" lon="1.27108">
        <ele>110.4</ele>
        <time>2023-10-28T13:18:20Z</time>
      </trkpt>
      <trkpt lat="45.10249" lon="1.27111">
        <ele>110.3</ele>
        <time>2023-10-28T13:18:21Z</time>
      </trkpt>
      <trkpt lat="45.1025" lon="1.27115">
        <ele>110.2</ele>
        <time>2023-10-28T13:18:22Z</time>
      </trkpt>
      <trkpt lat="45.10251" lon="1.27118">
        <ele>110.1</ele>
        <time>2023-10-28T13:18:23Z</time>
      </trkpt>
      <trkpt lat="45.10252" lon="1.27121">
        <ele>110</ele>
        <time>2023-10-28T13:18:24Z</time>
      </trkpt>
      <trkpt lat="45.10253" lon="1.27125">
        <ele>109.9</ele>
        <time>2023-10-28T13:18:25Z</time>
      </trkpt>
      <trkpt lat="45.10253" lon="1.27128">
        <ele>109.8</ele>
        <time>2023-10-28T13:18:26Z</time>
      </trkpt>
      <trkpt lat="45.10254" lon="1.27132">
        <ele>109.8</ele>
        <time>2023-10-28T13:18:27Z</time>
      </trkpt>
      <trkpt lat="45.10254" lon="1.27136">
        <ele>109.7</ele>
        <time>2023-10-28T13:18:28Z</time>
      </trkpt>
      <trkpt lat="45.10254" lon="1.27139">
        <ele>109.6</ele>
        <time>2023-10-28T13:18:29Z</time>
      </trkpt>
      <trkpt lat="45.10254" lon="1.27143">
        <ele>109.6</ele>
        <time>2023-10-28T13:18:30Z</time>
      </trkpt>
      <trkpt lat="45.10254" lon="1.27147">
        <ele>109.5</ele>
        <time>2023-10-28T13:18:31Z</time>
      </trkpt>
      <trkpt lat="45.10254" lon="1.27151">
        <ele>109.5</ele>
        <time>2023-10-28T13:18:32Z</time>
      </trkpt>
      <trkpt lat="45.10255" lon="1.27154">
        <ele>109.5</ele>
        <time>2023-10-28T13:18:33Z</time>
      </trkpt>
      <trkpt lat="45.10255" lon="1.27158">
        <ele>109.4</ele>
        <time>2023-10-28T13:18:34Z</time>
      </trkpt>
      <trkpt lat="45.10255" lon="1.27161">
        <ele>109.4</ele>
        <time>2023-10-28T13:18:35Z</time>
      </trkpt>
      <trkpt lat="45.10256" lon="1.27165">
        <ele>109.4</ele>
        <time>2023-10-28T13:18:36Z</time>
      </trkpt>
      <trkpt lat="45.10256" lon="1.27168">
        <ele>109.4</ele>
        <time>2023-10-28T13:18:37Z</time>
      </trkpt>
      <trkpt lat="45.10257" lon="1.27172">
        <ele>109.4</ele>
        <time>2023-10-28T13:18:38Z</time>
      </trkpt>
      <trkpt lat="45.10257" lon="1.27175">
        <ele>109.5</ele>
        <time>2023-10-28T13:18:39Z</time>
      </trkpt>
      <trkpt lat="45.10257" lon="1.27179">
        <ele>109.5</ele>
        <time>2023-10-28T13:18:40Z</time>
      </trkpt>
      <trkpt lat="45.10258" lon="1.27182">
        <ele>109.5</ele>
        <time>2023-10-28T13:18:41Z</time>
      </trkpt>
      <trkpt lat="45.10258" lon="1.27185">
        <ele>109.5</ele>
        <time>2023-10-28T13:18:42Z</time>
      </trkpt>
      <trkpt lat="45.10259" lon="1.27189">
        <ele>109.5</ele>
        <time>2023-10-28T13:18:43Z</time>
      </trkpt>
      <trkpt lat="45.10259" lon="1.27192">
        <ele>109.6</ele>
        <time>2023-10-28T13:18:44Z</time>
      </trkpt>
      <trkpt lat="45.10259" lon="1.27196">
        <ele>109.6</ele>
        <time>2023-10-28T13:18:45Z</time>
      </trkpt>
      <trkpt lat="45.10259" lon="1.27199">
        <ele>109.6</ele>
        <time>2023-10-28T13:18:46Z</time>
      </trkpt>
      <trkpt lat="45.10259" lon="1.27203">
        <ele>109.6</ele>
        <time>2023-10-28T13:18:47Z</time>
      </trkpt>
      <trkpt lat="45.10259" lon="1.27206">
        <ele>109.7</ele>
        <time>2023-10-28T13:18:48Z</time>
      </trkpt>
      <trkpt lat="45.1026" lon="1.2721">
        <ele>109.7</ele>
        <time>2023-10-28T13:18:49Z</time>
      </trkpt>
      <trkpt lat="45.1026" lon="1.27213">
        <ele>109.7</ele>
        <time>2023-10-28T13:18:50Z</time>
      </trkpt>
      <trkpt lat="45.1026" lon="1.27217">
        <ele>109.8</ele>
        <time>2023-10-28T13:18:51Z</time>
      </trkpt>
      <trkpt lat="45.1026" lon="1.2722">
        <ele>109.8</ele>
        <time>2023-10-28T13:18:52Z</time>
      </trkpt>
      <trkpt lat="45.1026" lon="1.27224">
        <ele>109.8</ele>
        <time>2023-10-28T13:18:53Z</time>
      </trkpt>
      <trkpt lat="45.1026" lon="1.27227">
        <ele>109.9</ele>
        <time>2023-10-28T13:18:54Z</time>
      </trkpt>
      <trkpt lat="45.10261" lon="1.27231">
        <ele>109.9</ele>
        <time>2023-10-28T13:18:55Z</time>
      </trkpt>
      <trkpt lat="45.10261" lon="1.27234">
        <ele>110</ele>
        <time>2023-10-28T13:18:56Z</time>
      </trkpt>
      <trkpt lat="45.10261" lon="1.27238">
        <ele>110</ele>
        <time>2023-10-28T13:18:57Z</time>
      </trkpt>
      <trkpt lat="45.10262" lon="1.27241">
        <ele>110.1</ele>
        <time>2023-10-28T13:18:58Z</time>
      </trkpt>
      <trkpt lat="45.10262" lon="1.27245">
        <ele>110.2</ele>
        <time>2023-10-28T13:18:59Z</time>
      </trkpt>
      <trkpt lat="45.10262" lon="1.27248">
        <ele>110.3</ele>
        <time>2023-10-28T13:19:00Z</time>
      </trkpt>
      <trkpt lat="45.10262" lon="1.27252">
        <ele>110.4</ele>
        <time>2023-10-28T13:19:01Z</time>
      </trkpt>
      <trkpt lat="45.10262" lon="1.27256">
        <ele>110.5</ele>
        <time>2023-10-28T13:19:02Z</time>
      </trkpt>
      <trkpt lat="45.10262" lon="1.27259">
        <ele>110.7</ele>
        <time>2023-10-28T13:19:03Z</time>
      </trkpt>
      <trkpt lat="45.10262" lon="1.27263">
        <ele>110.8</ele>
        <time>2023-10-28T13:19:04Z</time>
      </trkpt>
      <trkpt lat="45.10263" lon="1.27266">
        <ele>110.9</ele>
        <time>2023-10-28T13:19:05Z</time>
      </trkpt>
      <trkpt lat="45.10263" lon="1.2727">
        <ele>111</ele>
        <time>2023-10-28T13:19:06Z</time>
      </trkpt>
      <trkpt lat="45.10263" lon="1.27273">
        <ele>111.1</ele>
        <time>2023-10-28T13:19:07Z</time>
      </trkpt>
      <trkpt lat="45.10263" lon="1.27277">
        <ele>111.2</ele>
        <time>2023-10-28T13:19:08Z</time>
      </trkpt>
      <trkpt lat="45.10264" lon="1.2728">
        <ele>111.3</ele>
        <time>2023-10-28T13:19:09Z</time>
      </trkpt>
      <trkpt lat="45.10265" lon="1.27283">
        <ele>111.4</ele>
        <time>2023-10-28T13:19:10Z</time>
      </trkpt>
      <trkpt lat="45.10265" lon="1.27287">
        <ele>111.5</ele>
        <time>2023-10-28T13:19:11Z</time>
      </trkpt>
      <trkpt lat="45.10266" lon="1.2729">
        <ele>111.6</ele>
        <time>2023-10-28T13:19:12Z</time>
      </trkpt>
      <trkpt lat="45.10267" lon="1.27293">
        <ele>111.6</ele>
        <time>2023-10-28T13:19:13Z</time>
      </trkpt>
      <trkpt lat="45.10268" lon="1.27296">
        <ele>111.7</ele>
        <time>2023-10-28T13:19:14Z</time>
      </trkpt>
      <trkpt lat="45.1027" lon="1.27299">
        <ele>111.7</ele>
        <time>2023-10-28T13:19:15Z</time>
      </trkpt>
      <trkpt lat="45.1027" lon="1.27303">
        <ele>111.8</ele>
        <time>2023-10-28T13:19:16Z</time>
      </trkpt>
      <trkpt lat="45.10272" lon="1.27306">
        <ele>111.8</ele>
        <time>2023-10-28T13:19:17Z</time>
      </trkpt>
      <trkpt lat="45.10273" lon="1.27309">
        <ele>111.9</ele>
        <time>2023-10-28T13:19:18Z</time>
      </trkpt>
      <trkpt lat="45.10273" lon="1.27312">
        <ele>111.9</ele>
        <time>2023-10-28T13:19:19Z</time>
      </trkpt>
      <trkpt lat="45.10275" lon="1.27314">
        <ele>112</ele>
        <time>2023-10-28T13:19:20Z</time>
      </trkpt>
      <trkpt lat="45.10276" lon="1.27317">
        <ele>112</ele>
        <time>2023-10-28T13:19:21Z</time>
      </trkpt>
      <trkpt lat="45.10277" lon="1.2732">
        <ele>112</ele>
        <time>2023-10-28T13:19:22Z</time>
      </trkpt>
      <trkpt lat="45.10278" lon="1.27323">
        <ele>112</ele>
        <time>2023-10-28T13:19:23Z</time>
      </trkpt>
      <trkpt lat="45.1028" lon="1.27326">
        <ele>112.2</ele>
        <time>2023-10-28T13:19:24Z</time>
      </trkpt>
      <trkpt lat="45.10281" lon="1.27328">
        <ele>112.3</ele>
        <time>2023-10-28T13:19:25Z</time>
      </trkpt>
      <trkpt lat="45.10283" lon="1.27331">
        <ele>112.5</ele>
        <time>2023-10-28T13:19:26Z</time>
      </trkpt>
      <trkpt lat="45.10284" lon="1.27334">
        <ele>112.6</ele>
        <time>2023-10-28T13:19:27Z</time>
      </trkpt>
      <trkpt lat="45.10285" lon="1.27337">
        <ele>112.7</ele>
        <time>2023-10-28T13:19:28Z</time>
      </trkpt>
      <trkpt lat="45.10286" lon="1.2734">
        <ele>112.9</ele>
        <time>2023-10-28T13:19:29Z</time>
      </trkpt>
      <trkpt lat="45.10287" lon="1.27343">
        <ele>113</ele>
        <time>2023-10-28T13:19:30Z</time>
      </trkpt>
      <trkpt lat="45.10288" lon="1.27346">
        <ele>113.2</ele>
        <time>2023-10-28T13:19:31Z</time>
      </trkpt>
      <trkpt lat="45.10289" lon="1.27349">
        <ele>113.4</ele>
        <time>2023-10-28T13:19:32Z</time>
      </trkpt>
      <trkpt lat="45.1029" lon="1.27352">
        <ele>113.5</ele>
        <time>2023-10-28T13:19:33Z</time>
      </trkpt>
      <trkpt lat="45.1029" lon="1.27355">
        <ele>113.7</ele>
        <time>2023-10-28T13:19:34Z</time>
      </trkpt>
      <trkpt lat="45.10291" lon="1.27358">
        <ele>113.8</ele>
        <time>2023-10-28T13:19:35Z</time>
      </trkpt>
      <trkpt lat="45.10291" lon="1.27361">
        <ele>114</ele>
        <time>2023-10-28T13:19:36Z</time>
      </trkpt>
      <trkpt lat="45.10291" lon="1.27364">
        <ele>114.1</ele>
        <time>2023-10-28T13:19:37Z</time>
      </trkpt>
      <trkpt lat="45.10291" lon="1.27367">
        <ele>114.2</ele>
        <time>2023-10-28T13:19:38Z</time>
      </trkpt>
      <trkpt lat="45.10291" lon="1.2737">
        <ele>114.4</ele>
        <time>2023-10-28T13:19:39Z</time>
      </trkpt>
      <trkpt lat="45.10291" lon="1.27373">
        <ele>114.5</ele>
        <time>2023-10-28T13:19:40Z</time>
      </trkpt>
      <trkpt lat="45.10291" lon="1.27376">
        <ele>114.6</ele>
        <time>2023-10-28T13:19:41Z</time>
      </trkpt>
      <trkpt lat="45.1029" lon="1.27379">
        <ele>114.7</ele>
        <time>2023-10-28T13:19:42Z</time>
      </trkpt>
      <trkpt lat="45.1029" lon="1.27382">
        <ele>114.7</ele>
        <time>2023-10-28T13:19:43Z</time>
      </trkpt>
      <trkpt lat="45.10289" lon="1.27385">
        <ele>114.8</ele>
        <time>2023-10-28T13:19:44Z</time>
      </trkpt>
      <trkpt lat="45.10289" lon="1.27388">
        <ele>114.9</ele>
        <time>2023-10-28T13:19:45Z</time>
      </trkpt>
      <trkpt lat="45.10288" lon="1.27392">
        <ele>114.9</ele>
        <time>2023-10-28T13:19:46Z</time>
      </trkpt>
      <trkpt lat="45.10288" lon="1.27395">
        <ele>114.9</ele>
        <time>2023-10-28T13:19:47Z</time>
      </trkpt>
      <trkpt lat="45.10286" lon="1.27398">
        <ele>115</ele>
        <time>2023-10-28T13:19:48Z</time>
      </trkpt>
      <trkpt lat="45.10286" lon="1.27401">
        <ele>115</ele>
        <time>2023-10-28T13:19:49Z</time>
      </trkpt>
      <trkpt lat="45.10284" lon="1.27404">
        <ele>115</ele>
        <time>2023-10-28T13:19:50Z</time>
      </trkpt>
      <trkpt lat="45.10283" lon="1.27407">
        <ele>115.1</ele>
        <time>2023-10-28T13:19:51Z</time>
      </trkpt>
      <trkpt lat="45.10282" lon="1.2741">
        <ele>115.1</ele>
        <time>2023-10-28T13:19:52Z</time>
      </trkpt>
      <trkpt lat="45.10281" lon="1.27412">
        <ele>115.1</ele>
        <time>2023-10-28T13:19:53Z</time>
      </trkpt>
      <trkpt lat="45.1028" lon="1.27415">
        <ele>115</ele>
        <time>2023-10-28T13:19:54Z</time>
      </trkpt>
      <trkpt lat="45.10278" lon="1.27418">
        <ele>115</ele>
        <time>2023-10-28T13:19:55Z</time>
      </trkpt>
      <trkpt lat="45.10277" lon="1.27421">
        <ele>115</ele>
        <time>2023-10-28T13:19:56Z</time>
      </trkpt>
      <trkpt lat="45.10276" lon="1.27425">
        <ele>115</ele>
        <time>2023-10-28T13:19:57Z</time>
      </trkpt>
      <trkpt lat="45.10275" lon="1.27428">
        <ele>115</ele>
        <time>2023-10-28T13:19:58Z</time>
      </trkpt>
      <trkpt lat="45.10275" lon="1.27431">
        <ele>115</ele>
        <time>2023-10-28T13:19:59Z</time>
      </trkpt>
      <trkpt lat="45.10274" lon="1.27434">
        <ele>115</ele>
        <time>2023-10-28T13:20:00Z</time>
      </trkpt>
      <trkpt lat="45.10273" lon="1.27438">
        <ele>114.9</ele>
        <time>2023-10-28T13:20:01Z</time>
      </trkpt>
      <trkpt lat="45.10272" lon="1.27441">
        <ele>114.9</ele>
        <time>2023-10-28T13:20:02Z</time>
      </trkpt>
      <trkpt lat="45.10272" lon="1.27445">
        <ele>114.9</ele>
        <time>2023-10-28T13:20:03Z</time>
      </trkpt>
      <trkpt lat="45.10271" lon="1.27448">
        <ele>114.9</ele>
        <time>2023-10-28T13:20:04Z</time>
      </trkpt>
      <trkpt lat="45.1027" lon="1.27451">
        <ele>114.8</ele>
        <time>2023-10-28T13:20:05Z</time>
      </trkpt>
      <trkpt lat="45.10269" lon="1.27455">
        <ele>114.8</ele>
        <time>2023-10-28T13:20:06Z</time>
      </trkpt>
      <trkpt lat="45.10268" lon="1.27458">
        <ele>114.8</ele>
        <time>2023-10-28T13:20:07Z</time>
      </trkpt>
      <trkpt lat="45.10268" lon="1.27462">
        <ele>114.8</ele>
        <time>2023-10-28T13:20:08Z</time>
      </trkpt>
      <trkpt lat="45.10267" lon="1.27465">
        <ele>114.8</ele>
        <time>2023-10-28T13:20:09Z</time>
      </trkpt>
      <trkpt lat="45.10266" lon="1.27469">
        <ele>114.9</ele>
        <time>2023-10-28T13:20:10Z</time>
      </trkpt>
      <trkpt lat="45.10265" lon="1.27472">
        <ele>114.9</ele>
        <time>2023-10-28T13:20:11Z</time>
      </trkpt>
      <trkpt lat="45.10263" lon="1.27476">
        <ele>114.9</ele>
        <time>2023-10-28T13:20:12Z</time>
      </trkpt>
      <trkpt lat="45.10262" lon="1.27479">
        <ele>114.9</ele>
        <time>2023-10-28T13:20:13Z</time>
      </trkpt>
      <trkpt lat="45.10261" lon="1.27482">
        <ele>114.9</ele>
        <time>2023-10-28T13:20:14Z</time>
      </trkpt>
      <trkpt lat="45.1026" lon="1.27486">
        <ele>114.8</ele>
        <time>2023-10-28T13:20:15Z</time>
      </trkpt>
      <trkpt lat="45.10259" lon="1.27489">
        <ele>114.8</ele>
        <time>2023-10-28T13:20:16Z</time>
      </trkpt>
      <trkpt lat="45.10258" lon="1.27492">
        <ele>114.8</ele>
        <time>2023-10-28T13:20:17Z</time>
      </trkpt>
      <trkpt lat="45.10257" lon="1.27496">
        <ele>114.7</ele>
        <time>2023-10-28T13:20:18Z</time>
      </trkpt>
      <trkpt lat="45.10255" lon="1.27499">
        <ele>114.7</ele>
        <time>2023-10-28T13:20:19Z</time>
      </trkpt>
      <trkpt lat="45.10254" lon="1.27502">
        <ele>114.6</ele>
        <time>2023-10-28T13:20:20Z</time>
      </trkpt>
      <trkpt lat="45.10253" lon="1.27505">
        <ele>114.6</ele>
        <time>2023-10-28T13:20:21Z</time>
      </trkpt>
      <trkpt lat="45.10252" lon="1.27509">
        <ele>114.5</ele>
        <time>2023-10-28T13:20:22Z</time>
      </trkpt>
      <trkpt lat="45.10251" lon="1.27512">
        <ele>114.5</ele>
        <time>2023-10-28T13:20:23Z</time>
      </trkpt>
      <trkpt lat="45.1025" lon="1.27515">
        <ele>114.4</ele>
        <time>2023-10-28T13:20:24Z</time>
      </trkpt>
      <trkpt lat="45.10249" lon="1.27518">
        <ele>114.4</ele>
        <time>2023-10-28T13:20:25Z</time>
      </trkpt>
      <trkpt lat="45.10247" lon="1.27521">
        <ele>114.4</ele>
        <time>2023-10-28T13:20:26Z</time>
      </trkpt>
      <trkpt lat="45.10246" lon="1.27524">
        <ele>114.4</ele>
        <time>2023-10-28T13:20:27Z</time>
      </trkpt>
      <trkpt lat="45.10244" lon="1.27527">
        <ele>114.4</ele>
        <time>2023-10-28T13:20:28Z</time>
      </trkpt>
      <trkpt lat="45.10243" lon="1.2753">
        <ele>114.4</ele>
        <time>2023-10-28T13:20:29Z</time>
      </trkpt>
      <trkpt lat="45.10241" lon="1.27532">
        <ele>114.4</ele>
        <time>2023-10-28T13:20:30Z</time>
      </trkpt>
      <trkpt lat="45.10239" lon="1.27535">
        <ele>114.3</ele>
        <time>2023-10-28T13:20:31Z</time>
      </trkpt>
      <trkpt lat="45.10238" lon="1.27538">
        <ele>114.3</ele>
        <time>2023-10-28T13:20:32Z</time>
      </trkpt>
      <trkpt lat="45.10236" lon="1.27541">
        <ele>114.3</ele>
        <time>2023-10-28T13:20:33Z</time>
      </trkpt>
      <trkpt lat="45.10235" lon="1.27543">
        <ele>114.3</ele>
        <time>2023-10-28T13:20:34Z</time>
      </trkpt>
      <trkpt lat="45.10233" lon="1.27546">
        <ele>114.3</ele>
        <time>2023-10-28T13:20:35Z</time>
      </trkpt>
      <trkpt lat="45.10231" lon="1.27549">
        <ele>114.3</ele>
        <time>2023-10-28T13:20:36Z</time>
      </trkpt>
      <trkpt lat="45.1023" lon="1.27552">
        <ele>114.3</ele>
        <time>2023-10-28T13:20:37Z</time>
      </trkpt>
      <trkpt lat="45.10228" lon="1.27555">
        <ele>114.3</ele>
        <time>2023-10-28T13:20:38Z</time>
      </trkpt>
      <trkpt lat="45.10226" lon="1.27558">
        <ele>114.3</ele>
        <time>2023-10-28T13:20:39Z</time>
      </trkpt>
      <trkpt lat="45.10225" lon="1.2756">
        <ele>114.3</ele>
        <time>2023-10-28T13:20:40Z</time>
      </trkpt>
      <trkpt lat="45.10223" lon="1.27563">
        <ele>114.3</ele>
        <time>2023-10-28T13:20:41Z</time>
      </trkpt>
      <trkpt lat="45.10221" lon="1.27566">
        <ele>114.2</ele>
        <time>2023-10-28T13:20:42Z</time>
      </trkpt>
      <trkpt lat="45.10219" lon="1.27568">
        <ele>114.2</ele>
        <time>2023-10-28T13:20:43Z</time>
      </trkpt>
      <trkpt lat="45.10217" lon="1.27571">
        <ele>114.2</ele>
        <time>2023-10-28T13:20:44Z</time>
      </trkpt>
      <trkpt lat="45.10216" lon="1.27574">
        <ele>114.2</ele>
        <time>2023-10-28T13:20:45Z</time>
      </trkpt>
      <trkpt lat="45.10214" lon="1.27576">
        <ele>114.2</ele>
        <time>2023-10-28T13:20:46Z</time>
      </trkpt>
      <trkpt lat="45.10212" lon="1.27578">
        <ele>114.2</ele>
        <time>2023-10-28T13:20:47Z</time>
      </trkpt>
      <trkpt lat="45.10209" lon="1.2758">
        <ele>114.1</ele>
        <time>2023-10-28T13:20:48Z</time>
      </trkpt>
      <trkpt lat="45.10207" lon="1.27582">
        <ele>114.1</ele>
        <time>2023-10-28T13:20:49Z</time>
      </trkpt>
      <trkpt lat="45.10205" lon="1.27584">
        <ele>114.1</ele>
        <time>2023-10-28T13:20:50Z</time>
      </trkpt>
      <trkpt lat="45.10202" lon="1.27586">
        <ele>114</ele>
        <time>2023-10-28T13:20:51Z</time>
      </trkpt>
      <trkpt lat="45.102" lon="1.27587">
        <ele>114</ele>
        <time>2023-10-28T13:20:52Z</time>
      </trkpt>
      <trkpt lat="45.10197" lon="1.27588">
        <ele>114</ele>
        <time>2023-10-28T13:20:53Z</time>
      </trkpt>
      <trkpt lat="45.10196" lon="1.27589">
        <ele>113.9</ele>
        <time>2023-10-28T13:20:54Z</time>
      </trkpt>
      <trkpt lat="45.10193" lon="1.2759">
        <ele>113.9</ele>
        <time>2023-10-28T13:20:55Z</time>
      </trkpt>
      <trkpt lat="45.10191" lon="1.27591">
        <ele>113.8</ele>
        <time>2023-10-28T13:20:56Z</time>
      </trkpt>
      <trkpt lat="45.10189" lon="1.27593">
        <ele>113.8</ele>
        <time>2023-10-28T13:20:57Z</time>
      </trkpt>
      <trkpt lat="45.10186" lon="1.27594">
        <ele>113.8</ele>
        <time>2023-10-28T13:20:58Z</time>
      </trkpt>
      <trkpt lat="45.10184" lon="1.27595">
        <ele>113.7</ele>
        <time>2023-10-28T13:20:59Z</time>
      </trkpt>
      <trkpt lat="45.10182" lon="1.27596">
        <ele>113.7</ele>
        <time>2023-10-28T13:21:00Z</time>
      </trkpt>
      <trkpt lat="45.1018" lon="1.27597">
        <ele>113.7</ele>
        <time>2023-10-28T13:21:01Z</time>
      </trkpt>
      <trkpt lat="45.10178" lon="1.27599">
        <ele>113.6</ele>
        <time>2023-10-28T13:21:02Z</time>
      </trkpt>
      <trkpt lat="45.10175" lon="1.276">
        <ele>113.6</ele>
        <time>2023-10-28T13:21:03Z</time>
      </trkpt>
      <trkpt lat="45.10173" lon="1.27602">
        <ele>113.6</ele>
        <time>2023-10-28T13:21:04Z</time>
      </trkpt>
      <trkpt lat="45.10171" lon="1.27604">
        <ele>113.6</ele>
        <time>2023-10-28T13:21:05Z</time>
      </trkpt>
      <trkpt lat="45.10169" lon="1.27605">
        <ele>113.5</ele>
        <time>2023-10-28T13:21:06Z</time>
      </trkpt>
      <trkpt lat="45.10167" lon="1.27607">
        <ele>113.5</ele>
        <time>2023-10-28T13:21:07Z</time>
      </trkpt>
      <trkpt lat="45.10165" lon="1.27608">
        <ele>113.5</ele>
        <time>2023-10-28T13:21:08Z</time>
      </trkpt>
      <trkpt lat="45.10163" lon="1.2761">
        <ele>113.5</ele>
        <time>2023-10-28T13:21:09Z</time>
      </trkpt>
      <trkpt lat="45.10161" lon="1.2761">
        <ele>113.5</ele>
        <time>2023-10-28T13:21:10Z</time>
      </trkpt>
      <trkpt lat="45.10159" lon="1.27611">
        <ele>113.5</ele>
        <time>2023-10-28T13:21:11Z</time>
      </trkpt>
      <trkpt lat="45.10156" lon="1.27612">
        <ele>113.6</ele>
        <time>2023-10-28T13:21:12Z</time>
      </trkpt>
      <trkpt lat="45.10154" lon="1.27612">
        <ele>113.6</ele>
        <time>2023-10-28T13:21:13Z</time>
      </trkpt>
      <trkpt lat="45.10152" lon="1.27612">
        <ele>113.6</ele>
        <time>2023-10-28T13:21:14Z</time>
      </trkpt>
      <trkpt lat="45.10149" lon="1.27612">
        <ele>113.7</ele>
        <time>2023-10-28T13:21:15Z</time>
      </trkpt>
      <trkpt lat="45.10147" lon="1.27613">
        <ele>113.7</ele>
        <time>2023-10-28T13:21:16Z</time>
      </trkpt>
      <trkpt lat="45.10144" lon="1.27613">
        <ele>113.8</ele>
        <time>2023-10-28T13:21:17Z</time>
      </trkpt>
      <trkpt lat="45.10143" lon="1.27613">
        <ele>113.9</ele>
        <time>2023-10-28T13:21:18Z</time>
      </trkpt>
      <trkpt lat="45.1014" lon="1.27613">
        <ele>113.9</ele>
        <time>2023-10-28T13:21:19Z</time>
      </trkpt>
      <trkpt lat="45.10138" lon="1.27614">
        <ele>114</ele>
        <time>2023-10-28T13:21:20Z</time>
      </trkpt>
      <trkpt lat="45.10136" lon="1.27614">
        <ele>114.1</ele>
        <time>2023-10-28T13:21:21Z</time>
      </trkpt>
      <trkpt lat="45.10134" lon="1.27614">
        <ele>114.2</ele>
        <time>2023-10-28T13:21:22Z</time>
      </trkpt>
      <trkpt lat="45.10132" lon="1.27614">
        <ele>114.3</ele>
        <time>2023-10-28T13:21:23Z</time>
      </trkpt>
      <trkpt lat="45.1013" lon="1.27614">
        <ele>114.4</ele>
        <time>2023-10-28T13:21:24Z</time>
      </trkpt>
      <trkpt lat="45.10127" lon="1.27614">
        <ele>114.5</ele>
        <time>2023-10-28T13:21:25Z</time>
      </trkpt>
      <trkpt lat="45.10125" lon="1.27614">
        <ele>114.6</ele>
        <time>2023-10-28T13:21:26Z</time>
      </trkpt>
      <trkpt lat="45.10123" lon="1.27614">
        <ele>114.7</ele>
        <time>2023-10-28T13:21:27Z</time>
      </trkpt>
      <trkpt lat="45.10122" lon="1.27615">
        <ele>114.8</ele>
        <time>2023-10-28T13:21:28Z</time>
      </trkpt>
      <trkpt lat="45.10119" lon="1.27615">
        <ele>115</ele>
        <time>2023-10-28T13:21:29Z</time>
      </trkpt>
      <trkpt lat="45.10117" lon="1.27616">
        <ele>115.1</ele>
        <time>2023-10-28T13:21:30Z</time>
      </trkpt>
      <trkpt lat="45.10115" lon="1.27617">
        <ele>115.2</ele>
        <time>2023-10-28T13:21:31Z</time>
      </trkpt>
      <trkpt lat="45.10113" lon="1.27617">
        <ele>115.4</ele>
        <time>2023-10-28T13:21:32Z</time>
      </trkpt>
      <trkpt lat="45.10111" lon="1.27618">
        <ele>115.5</ele>
        <time>2023-10-28T13:21:33Z</time>
      </trkpt>
      <trkpt lat="45.10108" lon="1.27619">
        <ele>115.6</ele>
        <time>2023-10-28T13:21:34Z</time>
      </trkpt>
      <trkpt lat="45.10106" lon="1.2762">
        <ele>115.8</ele>
        <time>2023-10-28T13:21:35Z</time>
      </trkpt>
      <trkpt lat="45.10104" lon="1.2762">
        <ele>116</ele>
        <time>2023-10-28T13:21:36Z</time>
      </trkpt>
      <trkpt lat="45.10101" lon="1.2762">
        <ele>116.2</ele>
        <time>2023-10-28T13:21:37Z</time>
      </trkpt>
      <trkpt lat="45.10099" lon="1.2762">
        <ele>116.3</ele>
        <time>2023-10-28T13:21:38Z</time>
      </trkpt>
      <trkpt lat="45.10096" lon="1.2762">
        <ele>116.5</ele>
        <time>2023-10-28T13:21:39Z</time>
      </trkpt>
      <trkpt lat="45.10094" lon="1.2762">
        <ele>116.7</ele>
        <time>2023-10-28T13:21:40Z</time>
      </trkpt>
      <trkpt lat="45.10092" lon="1.27621">
        <ele>116.9</ele>
        <time>2023-10-28T13:21:41Z</time>
      </trkpt>
      <trkpt lat="45.1009" lon="1.27621">
        <ele>117.1</ele>
        <time>2023-10-28T13:21:42Z</time>
      </trkpt>
      <trkpt lat="45.10087" lon="1.27621">
        <ele>117.3</ele>
        <time>2023-10-28T13:21:43Z</time>
      </trkpt>
      <trkpt lat="45.10085" lon="1.27621">
        <ele>117.5</ele>
        <time>2023-10-28T13:21:44Z</time>
      </trkpt>
      <trkpt lat="45.10083" lon="1.27621">
        <ele>117.7</ele>
        <time>2023-10-28T13:21:45Z</time>
      </trkpt>
      <trkpt lat="45.10081" lon="1.27621">
        <ele>117.9</ele>
        <time>2023-10-28T13:21:46Z</time>
      </trkpt>
      <trkpt lat="45.10079" lon="1.27621">
        <ele>118</ele>
        <time>2023-10-28T13:21:47Z</time>
      </trkpt>
      <trkpt lat="45.10077" lon="1.27621">
        <ele>118.2</ele>
        <time>2023-10-28T13:21:48Z</time>
      </trkpt>
      <trkpt lat="45.10075" lon="1.27622">
        <ele>118.4</ele>
        <time>2023-10-28T13:21:49Z</time>
      </trkpt>
      <trkpt lat="45.10073" lon="1.27622">
        <ele>118.6</ele>
        <time>2023-10-28T13:21:50Z</time>
      </trkpt>
      <trkpt lat="45.10071" lon="1.27622">
        <ele>118.8</ele>
        <time>2023-10-28T13:21:51Z</time>
      </trkpt>
      <trkpt lat="45.10069" lon="1.27622">
        <ele>118.9</ele>
        <time>2023-10-28T13:21:52Z</time>
      </trkpt>
      <trkpt lat="45.10067" lon="1.27623">
        <ele>119.1</ele>
        <time>2023-10-28T13:21:53Z</time>
      </trkpt>
      <trkpt lat="45.10065" lon="1.27623">
        <ele>119.3</ele>
        <time>2023-10-28T13:21:54Z</time>
      </trkpt>
      <trkpt lat="45.10063" lon="1.27624">
        <ele>119.5</ele>
        <time>2023-10-28T13:21:55Z</time>
      </trkpt>
      <trkpt lat="45.10061" lon="1.27624">
        <ele>119.6</ele>
        <time>2023-10-28T13:21:56Z</time>
      </trkpt>
      <trkpt lat="45.10059" lon="1.27624">
        <ele>119.8</ele>
        <time>2023-10-28T13:21:57Z</time>
      </trkpt>
      <trkpt lat="45.10057" lon="1.27625">
        <ele>120</ele>
        <time>2023-10-28T13:21:58Z</time>
      </trkpt>
      <trkpt lat="45.10055" lon="1.27626">
        <ele>120.2</ele>
        <time>2023-10-28T13:21:59Z</time>
      </trkpt>
      <trkpt lat="45.10053" lon="1.27626">
        <ele>120.3</ele>
        <time>2023-10-28T13:22:00Z</time>
      </trkpt>
      <trkpt lat="45.10051" lon="1.27627">
        <ele>120.5</ele>
        <time>2023-10-28T13:22:01Z</time>
      </trkpt>
      <trkpt lat="45.10049" lon="1.27628">
        <ele>120.7</ele>
        <time>2023-10-28T13:22:02Z</time>
      </trkpt>
      <trkpt lat="45.10047" lon="1.27629">
        <ele>120.8</ele>
        <time>2023-10-28T13:22:03Z</time>
      </trkpt>
      <trkpt lat="45.10045" lon="1.2763">
        <ele>121</ele>
        <time>2023-10-28T13:22:04Z</time>
      </trkpt>
      <trkpt lat="45.10043" lon="1.27631">
        <ele>121.1</ele>
        <time>2023-10-28T13:22:05Z</time>
      </trkpt>
      <trkpt lat="45.10041" lon="1.27633">
        <ele>121.3</ele>
        <time>2023-10-28T13:22:06Z</time>
      </trkpt>
      <trkpt lat="45.10039" lon="1.27634">
        <ele>121.4</ele>
        <time>2023-10-28T13:22:07Z</time>
      </trkpt>
      <trkpt lat="45.10037" lon="1.27635">
        <ele>121.5</ele>
        <time>2023-10-28T13:22:08Z</time>
      </trkpt>
      <trkpt lat="45.10035" lon="1.27636">
        <ele>121.6</ele>
        <time>2023-10-28T13:22:09Z</time>
      </trkpt>
      <trkpt lat="45.10033" lon="1.27638">
        <ele>121.7</ele>
        <time>2023-10-28T13:22:10Z</time>
      </trkpt>
      <trkpt lat="45.10031" lon="1.27639">
        <ele>121.8</ele>
        <time>2023-10-28T13:22:11Z</time>
      </trkpt>
      <trkpt lat="45.10029" lon="1.2764">
        <ele>121.9</ele>
        <time>2023-10-28T13:22:12Z</time>
      </trkpt>
      <trkpt lat="45.10027" lon="1.27641">
        <ele>122</ele>
        <time>2023-10-28T13:22:13Z</time>
      </trkpt>
      <trkpt lat="45.10025" lon="1.27642">
        <ele>122.1</ele>
        <time>2023-10-28T13:22:14Z</time>
      </trkpt>
      <trkpt lat="45.10023" lon="1.27644">
        <ele>122.1</ele>
        <time>2023-10-28T13:22:15Z</time>
      </trkpt>
      <trkpt lat="45.10021" lon="1.27645">
        <ele>122.2</ele>
        <time>2023-10-28T13:22:16Z</time>
      </trkpt>
      <trkpt lat="45.10019" lon="1.27646">
        <ele>122.3</ele>
        <time>2023-10-28T13:22:17Z</time>
      </trkpt>
      <trkpt lat="45.10017" lon="1.27647">
        <ele>122.3</ele>
        <time>2023-10-28T13:22:18Z</time>
      </trkpt>
      <trkpt lat="45.10015" lon="1.27649">
        <ele>122.4</ele>
        <time>2023-10-28T13:22:19Z</time>
      </trkpt>
      <trkpt lat="45.10014" lon="1.2765">
        <ele>122.4</ele>
        <time>2023-10-28T13:22:20Z</time>
      </trkpt>
      <trkpt lat="45.10012" lon="1.27651">
        <ele>122.5</ele>
        <time>2023-10-28T13:22:21Z</time>
      </trkpt>
      <trkpt lat="45.1001" lon="1.27652">
        <ele>122.5</ele>
        <time>2023-10-28T13:22:22Z</time>
      </trkpt>
      <trkpt lat="45.10008" lon="1.27654">
        <ele>122.6</ele>
        <time>2023-10-28T13:22:23Z</time>
      </trkpt>
      <trkpt lat="45.10007" lon="1.27655">
        <ele>122.6</ele>
        <time>2023-10-28T13:22:24Z</time>
      </trkpt>
      <trkpt lat="45.10005" lon="1.27657">
        <ele>122.6</ele>
        <time>2023-10-28T13:22:25Z</time>
      </trkpt>
      <trkpt lat="45.10003" lon="1.27658">
        <ele>122.7</ele>
        <time>2023-10-28T13:22:26Z</time>
      </trkpt>
      <trkpt lat="45.10001" lon="1.2766">
        <ele>122.7</ele>
        <time>2023-10-28T13:22:27Z</time>
      </trkpt>
      <trkpt lat="45.1" lon="1.27662">
        <ele>122.8</ele>
        <time>2023-10-28T13:22:28Z</time>
      </trkpt>
      <trkpt lat="45.09998" lon="1.27664">
        <ele>122.8</ele>
        <time>2023-10-28T13:22:29Z</time>
      </trkpt>
      <trkpt lat="45.09996" lon="1.27667">
        <ele>122.8</ele>
        <time>2023-10-28T13:22:30Z</time>
      </trkpt>
      <trkpt lat="45.09995" lon="1.27669">
        <ele>122.9</ele>
        <time>2023-10-28T13:22:31Z</time>
      </trkpt>
      <trkpt lat="45.09993" lon="1.27672">
        <ele>122.9</ele>
        <time>2023-10-28T13:22:32Z</time>
      </trkpt>
      <trkpt lat="45.09991" lon="1.27675">
        <ele>122.9</ele>
        <time>2023-10-28T13:22:33Z</time>
      </trkpt>
      <trkpt lat="45.0999" lon="1.27677">
        <ele>122.9</ele>
        <time>2023-10-28T13:22:34Z</time>
      </trkpt>
      <trkpt lat="45.09988" lon="1.27679">
        <ele>122.9</ele>
        <time>2023-10-28T13:22:35Z</time>
      </trkpt>
      <trkpt lat="45.09986" lon="1.27682">
        <ele>122.9</ele>
        <time>2023-10-28T13:22:36Z</time>
      </trkpt>
      <trkpt lat="45.09985" lon="1.27684">
        <ele>122.9</ele>
        <time>2023-10-28T13:22:37Z</time>
      </trkpt>
      <trkpt lat="45.09983" lon="1.27686">
        <ele>122.9</ele>
        <time>2023-10-28T13:22:38Z</time>
      </trkpt>
      <trkpt lat="45.09981" lon="1.27689">
        <ele>122.9</ele>
        <time>2023-10-28T13:22:39Z</time>
      </trkpt>
      <trkpt lat="45.0998" lon="1.27691">
        <ele>123</ele>
        <time>2023-10-28T13:22:40Z</time>
      </trkpt>
      <trkpt lat="45.09979" lon="1.27694">
        <ele>123</ele>
        <time>2023-10-28T13:22:41Z</time>
      </trkpt>
      <trkpt lat="45.09977" lon="1.27696">
        <ele>123</ele>
        <time>2023-10-28T13:22:42Z</time>
      </trkpt>
      <trkpt lat="45.09975" lon="1.27698">
        <ele>123</ele>
        <time>2023-10-28T13:22:43Z</time>
      </trkpt>
      <trkpt lat="45.09974" lon="1.27701">
        <ele>123</ele>
        <time>2023-10-28T13:22:44Z</time>
      </trkpt>
      <trkpt lat="45.09973" lon="1.27703">
        <ele>123</ele>
        <time>2023-10-28T13:22:45Z</time>
      </trkpt>
      <trkpt lat="45.09972" lon="1.27706">
        <ele>123</ele>
        <time>2023-10-28T13:22:46Z</time>
      </trkpt>
      <trkpt lat="45.09971" lon="1.27709">
        <ele>123</ele>
        <time>2023-10-28T13:22:47Z</time>
      </trkpt>
      <trkpt lat="45.09969" lon="1.27711">
        <ele>123</ele>
        <time>2023-10-28T13:22:48Z</time>
      </trkpt>
      <trkpt lat="45.09968" lon="1.27714">
        <ele>123</ele>
        <time>2023-10-28T13:22:49Z</time>
      </trkpt>
      <trkpt lat="45.09967" lon="1.27716">
        <ele>123</ele>
        <time>2023-10-28T13:22:50Z</time>
      </trkpt>
      <trkpt lat="45.09966" lon="1.27719">
        <ele>123</ele>
        <time>2023-10-28T13:22:51Z</time>
      </trkpt>
      <trkpt lat="45.09965" lon="1.27721">
        <ele>123.1</ele>
        <time>2023-10-28T13:22:52Z</time>
      </trkpt>
      <trkpt lat="45.09965" lon="1.27724">
        <ele>123.1</ele>
        <time>2023-10-28T13:22:53Z</time>
      </trkpt>
      <trkpt lat="45.09964" lon="1.27727">
        <ele>123.1</ele>
        <time>2023-10-28T13:22:54Z</time>
      </trkpt>
      <trkpt lat="45.09963" lon="1.2773">
        <ele>123.2</ele>
        <time>2023-10-28T13:22:55Z</time>
      </trkpt>
      <trkpt lat="45.09963" lon="1.27733">
        <ele>123.2</ele>
        <time>2023-10-28T13:22:56Z</time>
      </trkpt>
      <trkpt lat="45.09962" lon="1.27735">
        <ele>123.3</ele>
        <time>2023-10-28T13:22:57Z</time>
      </trkpt>
      <trkpt lat="45.09961" lon="1.27738">
        <ele>123.3</ele>
        <time>2023-10-28T13:22:58Z</time>
      </trkpt>
      <trkpt lat="45.0996" lon="1.27741">
        <ele>123.4</ele>
        <time>2023-10-28T13:22:59Z</time>
      </trkpt>
      <trkpt lat="45.09959" lon="1.27744">
        <ele>123.4</ele>
        <time>2023-10-28T13:23:00Z</time>
      </trkpt>
      <trkpt lat="45.09958" lon="1.27747">
        <ele>123.5</ele>
        <time>2023-10-28T13:23:01Z</time>
      </trkpt>
      <trkpt lat="45.09957" lon="1.2775">
        <ele>123.6</ele>
        <time>2023-10-28T13:23:02Z</time>
      </trkpt>
      <trkpt lat="45.09956" lon="1.27753">
        <ele>123.6</ele>
        <time>2023-10-28T13:23:03Z</time>
      </trkpt>
      <trkpt lat="45.09956" lon="1.27756">
        <ele>123.7</ele>
        <time>2023-10-28T13:23:04Z</time>
      </trkpt>
      <trkpt lat="45.09955" lon="1.27759">
        <ele>123.7</ele>
        <time>2023-10-28T13:23:05Z</time>
      </trkpt>
      <trkpt lat="45.09955" lon="1.27762">
        <ele>123.8</ele>
        <time>2023-10-28T13:23:06Z</time>
      </trkpt>
      <trkpt lat="45.09955" lon="1.27765">
        <ele>123.9</ele>
        <time>2023-10-28T13:23:07Z</time>
      </trkpt>
      <trkpt lat="45.09954" lon="1.27768">
        <ele>123.9</ele>
        <time>2023-10-28T13:23:08Z</time>
      </trkpt>
      <trkpt lat="45.09954" lon="1.27772">
        <ele>124</ele>
        <time>2023-10-28T13:23:09Z</time>
      </trkpt>
      <trkpt lat="45.09954" lon="1.27775">
        <ele>124.1</ele>
        <time>2023-10-28T13:23:10Z</time>
      </trkpt>
      <trkpt lat="45.09954" lon="1.27778">
        <ele>124.1</ele>
        <time>2023-10-28T13:23:11Z</time>
      </trkpt>
      <trkpt lat="45.09953" lon="1.27782">
        <ele>124.2</ele>
        <time>2023-10-28T13:23:12Z</time>
      </trkpt>
      <trkpt lat="45.09953" lon="1.27785">
        <ele>124.3</ele>
        <time>2023-10-28T13:23:13Z</time>
      </trkpt>
      <trkpt lat="45.09953" lon="1.27788">
        <ele>124.3</ele>
        <time>2023-10-28T13:23:14Z</time>
      </trkpt>
      <trkpt lat="45.09952" lon="1.27791">
        <ele>124.4</ele>
        <time>2023-10-28T13:23:15Z</time>
      </trkpt>
      <trkpt lat="45.09952" lon="1.27793">
        <ele>124.4</ele>
        <time>2023-10-28T13:23:16Z</time>
      </trkpt>
      <trkpt lat="45.09951" lon="1.27796">
        <ele>124.5</ele>
        <time>2023-10-28T13:23:17Z</time>
      </trkpt>
      <trkpt lat="45.09951" lon="1.27799">
        <ele>124.5</ele>
        <time>2023-10-28T13:23:18Z</time>
      </trkpt>
      <trkpt lat="45.09951" lon="1.27801">
        <ele>124.6</ele>
        <time>2023-10-28T13:23:19Z</time>
      </trkpt>
      <trkpt lat="45.0995" lon="1.27804">
        <ele>124.6</ele>
        <time>2023-10-28T13:23:20Z</time>
      </trkpt>
      <trkpt lat="45.0995" lon="1.27807">
        <ele>124.7</ele>
        <time>2023-10-28T13:23:21Z</time>
      </trkpt>
      <trkpt lat="45.0995" lon="1.27809">
        <ele>124.7</ele>
        <time>2023-10-28T13:23:22Z</time>
      </trkpt>
      <trkpt lat="45.0995" lon="1.27812">
        <ele>124.8</ele>
        <time>2023-10-28T13:23:23Z</time>
      </trkpt>
      <trkpt lat="45.0995" lon="1.27815">
        <ele>124.8</ele>
        <time>2023-10-28T13:23:24Z</time>
      </trkpt>
      <trkpt lat="45.0995" lon="1.27818">
        <ele>124.8</ele>
        <time>2023-10-28T13:23:25Z</time>
      </trkpt>
      <trkpt lat="45.09951" lon="1.27821">
        <ele>124.9</ele>
        <time>2023-10-28T13:23:26Z</time>
      </trkpt>
      <trkpt lat="45.09951" lon="1.27824">
        <ele>124.9</ele>
        <time>2023-10-28T13:23:27Z</time>
      </trkpt>
      <trkpt lat="45.09951" lon="1.27827">
        <ele>124.9</ele>
        <time>2023-10-28T13:23:28Z</time>
      </trkpt>
      <trkpt lat="45.09951" lon="1.2783">
        <ele>124.9</ele>
        <time>2023-10-28T13:23:29Z</time>
      </trkpt>
      <trkpt lat="45.09952" lon="1.27833">
        <ele>124.9</ele>
        <time>2023-10-28T13:23:30Z</time>
      </trkpt>
      <trkpt lat="45.09952" lon="1.27837">
        <ele>124.8</ele>
        <time>2023-10-28T13:23:31Z</time>
      </trkpt>
      <trkpt lat="45.09952" lon="1.2784">
        <ele>124.7</ele>
        <time>2023-10-28T13:23:32Z</time>
      </trkpt>
      <trkpt lat="45.09953" lon="1.27843">
        <ele>124.7</ele>
        <time>2023-10-28T13:23:33Z</time>
      </trkpt>
      <trkpt lat="45.09953" lon="1.27846">
        <ele>124.6</ele>
        <time>2023-10-28T13:23:34Z</time>
      </trkpt>
      <trkpt lat="45.09953" lon="1.27849">
        <ele>124.5</ele>
        <time>2023-10-28T13:23:35Z</time>
      </trkpt>
      <trkpt lat="45.09953" lon="1.27853">
        <ele>124.4</ele>
        <time>2023-10-28T13:23:36Z</time>
      </trkpt>
      <trkpt lat="45.09954" lon="1.27856">
        <ele>124.3</ele>
        <time>2023-10-28T13:23:37Z</time>
      </trkpt>
      <trkpt lat="45.09954" lon="1.2786">
        <ele>124.1</ele>
        <time>2023-10-28T13:23:38Z</time>
      </trkpt>
      <trkpt lat="45.09954" lon="1.27863">
        <ele>124</ele>
        <time>2023-10-28T13:23:39Z</time>
      </trkpt>
      <trkpt lat="45.09955" lon="1.27866">
        <ele>123.9</ele>
        <time>2023-10-28T13:23:40Z</time>
      </trkpt>
      <trkpt lat="45.09956" lon="1.27869">
        <ele>123.7</ele>
        <time>2023-10-28T13:23:41Z</time>
      </trkpt>
      <trkpt lat="45.09956" lon="1.27873">
        <ele>123.5</ele>
        <time>2023-10-28T13:23:42Z</time>
      </trkpt>
      <trkpt lat="45.09957" lon="1.27876">
        <ele>123.4</ele>
        <time>2023-10-28T13:23:43Z</time>
      </trkpt>
      <trkpt lat="45.09958" lon="1.27879">
        <ele>123.2</ele>
        <time>2023-10-28T13:23:44Z</time>
      </trkpt>
      <trkpt lat="45.09958" lon="1.27882">
        <ele>123</ele>
        <time>2023-10-28T13:23:45Z</time>
      </trkpt>
      <trkpt lat="45.09958" lon="1.27885">
        <ele>122.8</ele>
        <time>2023-10-28T13:23:46Z</time>
      </trkpt>
      <trkpt lat="45.09959" lon="1.27889">
        <ele>122.6</ele>
        <time>2023-10-28T13:23:47Z</time>
      </trkpt>
      <trkpt lat="45.09959" lon="1.27892">
        <ele>122.4</ele>
        <time>2023-10-28T13:23:48Z</time>
      </trkpt>
      <trkpt lat="45.0996" lon="1.27896">
        <ele>122.2</ele>
        <time>2023-10-28T13:23:49Z</time>
      </trkpt>
      <trkpt lat="45.09961" lon="1.27899">
        <ele>122</ele>
        <time>2023-10-28T13:23:50Z</time>
      </trkpt>
      <trkpt lat="45.09961" lon="1.27903">
        <ele>121.8</ele>
        <time>2023-10-28T13:23:51Z</time>
      </trkpt>
      <trkpt lat="45.09962" lon="1.27906">
        <ele>121.6</ele>
        <time>2023-10-28T13:23:52Z</time>
      </trkpt>
      <trkpt lat="45.09962" lon="1.27909">
        <ele>121.4</ele>
        <time>2023-10-28T13:23:53Z</time>
      </trkpt>
      <trkpt lat="45.09963" lon="1.27913">
        <ele>121.2</ele>
        <time>2023-10-28T13:23:54Z</time>
      </trkpt>
      <trkpt lat="45.09963" lon="1.27916">
        <ele>121.1</ele>
        <time>2023-10-28T13:23:55Z</time>
      </trkpt>
      <trkpt lat="45.09963" lon="1.27919">
        <ele>120.9</ele>
        <time>2023-10-28T13:23:56Z</time>
      </trkpt>
      <trkpt lat="45.09963" lon="1.27922">
        <ele>120.6</ele>
        <time>2023-10-28T13:23:57Z</time>
      </trkpt>
      <trkpt lat="45.09963" lon="1.27925">
        <ele>121</ele>
        <time>2023-10-28T13:23:58Z</time>
      </trkpt>
      <trkpt lat="45.09963" lon="1.27927">
        <ele>121.3</ele>
        <time>2023-10-28T13:23:59Z</time>
      </trkpt>
      <trkpt lat="45.09963" lon="1.27929">
        <ele>121.6</ele>
        <time>2023-10-28T13:24:00Z</time>
      </trkpt>
      <trkpt lat="45.09962" lon="1.2793">
        <ele>121.8</ele>
        <time>2023-10-28T13:24:01Z</time>
      </trkpt>
      <trkpt lat="45.09961" lon="1.27931">
        <ele>122</ele>
        <time>2023-10-28T13:24:02Z</time>
      </trkpt>
      <trkpt lat="45.09959" lon="1.27931">
        <ele>122.3</ele>
        <time>2023-10-28T13:24:03Z</time>
      </trkpt>
      <trkpt lat="45.09958" lon="1.27931">
        <ele>122.5</ele>
        <time>2023-10-28T13:24:04Z</time>
      </trkpt>
      <trkpt lat="45.09956" lon="1.27931">
        <ele>122.9</ele>
        <time>2023-10-28T13:24:05Z</time>
      </trkpt>
      <trkpt lat="45.09954" lon="1.2793">
        <ele>123.2</ele>
        <time>2023-10-28T13:24:06Z</time>
      </trkpt>
      <trkpt lat="45.09953" lon="1.27929">
        <ele>123.5</ele>
        <time>2023-10-28T13:24:07Z</time>
      </trkpt>
      <trkpt lat="45.09951" lon="1.27928">
        <ele>123.8</ele>
        <time>2023-10-28T13:24:08Z</time>
      </trkpt>
      <trkpt lat="45.0995" lon="1.27927">
        <ele>124.1</ele>
        <time>2023-10-28T13:24:09Z</time>
      </trkpt>
      <trkpt lat="45.09948" lon="1.27927">
        <ele>124.5</ele>
        <time>2023-10-28T13:24:10Z</time>
      </trkpt>
      <trkpt lat="45.09947" lon="1.27925">
        <ele>124.8</ele>
        <time>2023-10-28T13:24:11Z</time>
      </trkpt>
      <trkpt lat="45.09946" lon="1.27924">
        <ele>125.1</ele>
        <time>2023-10-28T13:24:12Z</time>
      </trkpt>
      <trkpt lat="45.09945" lon="1.27922">
        <ele>125.4</ele>
        <time>2023-10-28T13:24:13Z</time>
      </trkpt>
      <trkpt lat="45.09943" lon="1.2792">
        <ele>125.7</ele>
        <time>2023-10-28T13:24:14Z</time>
      </trkpt>
      <trkpt lat="45.09943" lon="1.27919">
        <ele>125.9</ele>
        <time>2023-10-28T13:24:15Z</time>
      </trkpt>
      <trkpt lat="45.09942" lon="1.27917">
        <ele>126.2</ele>
        <time>2023-10-28T13:24:16Z</time>
      </trkpt>
      <trkpt lat="45.09942" lon="1.27915">
        <ele>126.5</ele>
        <time>2023-10-28T13:24:17Z</time>
      </trkpt>
      <trkpt lat="45.09941" lon="1.27913">
        <ele>126.7</ele>
        <time>2023-10-28T13:24:18Z</time>
      </trkpt>
      <trkpt lat="45.09941" lon="1.27911">
        <ele>127</ele>
        <time>2023-10-28T13:24:19Z</time>
      </trkpt>
      <trkpt lat="45.0994" lon="1.2791">
        <ele>127.2</ele>
        <time>2023-10-28T13:24:20Z</time>
      </trkpt>
      <trkpt lat="45.0994" lon="1.27908">
        <ele>127.5</ele>
        <time>2023-10-28T13:24:21Z</time>
      </trkpt>
      <trkpt lat="45.09939" lon="1.27906">
        <ele>127.7</ele>
        <time>2023-10-28T13:24:22Z</time>
      </trkpt>
      <trkpt lat="45.09938" lon="1.27904">
        <ele>128</ele>
        <time>2023-10-28T13:24:23Z</time>
      </trkpt>
      <trkpt lat="45.09938" lon="1.27903">
        <ele>128.2</ele>
        <time>2023-10-28T13:24:24Z</time>
      </trkpt>
      <trkpt lat="45.09938" lon="1.27901">
        <ele>128.5</ele>
        <time>2023-10-28T13:24:25Z</time>
      </trkpt>
      <trkpt lat="45.09937" lon="1.27899">
        <ele>128.8</ele>
        <time>2023-10-28T13:24:26Z</time>
      </trkpt>
      <trkpt lat="45.09937" lon="1.27897">
        <ele>129.1</ele>
        <time>2023-10-28T13:24:27Z</time>
      </trkpt>
      <trkpt lat="45.09936" lon="1.27895">
        <ele>129.4</ele>
        <time>2023-10-28T13:24:28Z</time>
      </trkpt>
      <trkpt lat="45.09935" lon="1.27893">
        <ele>129.6</ele>
        <time>2023-10-28T13:24:29Z</time>
      </trkpt>
      <trkpt lat="45.09935" lon="1.27891">
        <ele>129.9</ele>
        <time>2023-10-28T13:24:30Z</time>
      </trkpt>
      <trkpt lat="45.09934" lon="1.27889">
        <ele>130.2</ele>
        <time>2023-10-28T13:24:31Z</time>
      </trkpt>
      <trkpt lat="45.09934" lon="1.27887">
        <ele>130.5</ele>
        <time>2023-10-28T13:24:32Z</time>
      </trkpt>
      <trkpt lat="45.09933" lon="1.27886">
        <ele>130.7</ele>
        <time>2023-10-28T13:24:33Z</time>
      </trkpt>
      <trkpt lat="45.09932" lon="1.27884">
        <ele>131</ele>
        <time>2023-10-28T13:24:34Z</time>
      </trkpt>
      <trkpt lat="45.09932" lon="1.27883">
        <ele>131.1</ele>
        <time>2023-10-28T13:24:35Z</time>
      </trkpt>
      <trkpt lat="45.09931" lon="1.27882">
        <ele>131.4</ele>
        <time>2023-10-28T13:24:36Z</time>
      </trkpt>
      <trkpt lat="45.0993" lon="1.2788">
        <ele>131.6</ele>
        <time>2023-10-28T13:24:37Z</time>
      </trkpt>
      <trkpt lat="45.0993" lon="1.27879">
        <ele>131.8</ele>
        <time>2023-10-28T13:24:38Z</time>
      </trkpt>
      <trkpt lat="45.09929" lon="1.27878">
        <ele>132</ele>
        <time>2023-10-28T13:24:39Z</time>
      </trkpt>
      <trkpt lat="45.09929" lon="1.27876">
        <ele>132.3</ele>
        <time>2023-10-28T13:24:40Z</time>
      </trkpt>
      <trkpt lat="45.09928" lon="1.27874">
        <ele>132.5</ele>
        <time>2023-10-28T13:24:41Z</time>
      </trkpt>
      <trkpt lat="45.09927" lon="1.27873">
        <ele>132.8</ele>
        <time>2023-10-28T13:24:42Z</time>
      </trkpt>
      <trkpt lat="45.09927" lon="1.27871">
        <ele>133</ele>
        <time>2023-10-28T13:24:43Z</time>
      </trkpt>
      <trkpt lat="45.09927" lon="1.27869">
        <ele>133.2</ele>
        <time>2023-10-28T13:24:44Z</time>
      </trkpt>
      <trkpt lat="45.09927" lon="1.27868">
        <ele>133.4</ele>
        <time>2023-10-28T13:24:45Z</time>
      </trkpt>
      <trkpt lat="45.09926" lon="1.27866">
        <ele>133.7</ele>
        <time>2023-10-28T13:24:46Z</time>
      </trkpt>
      <trkpt lat="45.09926" lon="1.27864">
        <ele>133.9</ele>
        <time>2023-10-28T13:24:47Z</time>
      </trkpt>
      <trkpt lat="45.09925" lon="1.27863">
        <ele>134.2</ele>
        <time>2023-10-28T13:24:48Z</time>
      </trkpt>
      <trkpt lat="45.09924" lon="1.27861">
        <ele>134.4</ele>
        <time>2023-10-28T13:24:49Z</time>
      </trkpt>
      <trkpt lat="45.09924" lon="1.2786">
        <ele>134.7</ele>
        <time>2023-10-28T13:24:50Z</time>
      </trkpt>
      <trkpt lat="45.09923" lon="1.27858">
        <ele>134.9</ele>
        <time>2023-10-28T13:24:51Z</time>
      </trkpt>
      <trkpt lat="45.09922" lon="1.27857">
        <ele>135.2</ele>
        <time>2023-10-28T13:24:52Z</time>
      </trkpt>
      <trkpt lat="45.09922" lon="1.27855">
        <ele>135.4</ele>
        <time>2023-10-28T13:24:53Z</time>
      </trkpt>
      <trkpt lat="45.09921" lon="1.27854">
        <ele>135.6</ele>
        <time>2023-10-28T13:24:54Z</time>
      </trkpt>
      <trkpt lat="45.0992" lon="1.27852">
        <ele>135.8</ele>
        <time>2023-10-28T13:24:55Z</time>
      </trkpt>
      <trkpt lat="45.0992" lon="1.27851">
        <ele>136</ele>
        <time>2023-10-28T13:24:56Z</time>
      </trkpt>
      <trkpt lat="45.09919" lon="1.27849">
        <ele>136.3</ele>
        <time>2023-10-28T13:24:57Z</time>
      </trkpt>
      <trkpt lat="45.09919" lon="1.27848">
        <ele>136.5</ele>
        <time>2023-10-28T13:24:58Z</time>
      </trkpt>
      <trkpt lat="45.09918" lon="1.27847">
        <ele>136.7</ele>
        <time>2023-10-28T13:24:59Z</time>
      </trkpt>
      <trkpt lat="45.09918" lon="1.27845">
        <ele>136.9</ele>
        <time>2023-10-28T13:25:00Z</time>
      </trkpt>
      <trkpt lat="45.09917" lon="1.27844">
        <ele>137.1</ele>
        <time>2023-10-28T13:25:01Z</time>
      </trkpt>
      <trkpt lat="45.09916" lon="1.27842">
        <ele>137.3</ele>
        <time>2023-10-28T13:25:02Z</time>
      </trkpt>
      <trkpt lat="45.09916" lon="1.27841">
        <ele>137.5</ele>
        <time>2023-10-28T13:25:03Z</time>
      </trkpt>
      <trkpt lat="45.09916" lon="1.2784">
        <ele>137.7</ele>
        <time>2023-10-28T13:25:04Z</time>
      </trkpt>
      <trkpt lat="45.09915" lon="1.27839">
        <ele>137.9</ele>
        <time>2023-10-28T13:25:05Z</time>
      </trkpt>
      <trkpt lat="45.09915" lon="1.27838">
        <ele>138</ele>
        <time>2023-10-28T13:25:06Z</time>
      </trkpt>
      <trkpt lat="45.09914" lon="1.27837">
        <ele>138.2</ele>
        <time>2023-10-28T13:25:07Z</time>
      </trkpt>
      <trkpt lat="45.09914" lon="1.27836">
        <ele>138.4</ele>
        <time>2023-10-28T13:25:08Z</time>
      </trkpt>
      <trkpt lat="45.09914" lon="1.27834">
        <ele>138.5</ele>
        <time>2023-10-28T13:25:09Z</time>
      </trkpt>
      <trkpt lat="45.09913" lon="1.27833">
        <ele>138.7</ele>
        <time>2023-10-28T13:25:10Z</time>
      </trkpt>
      <trkpt lat="45.09913" lon="1.27832">
        <ele>138.9</ele>
        <time>2023-10-28T13:25:11Z</time>
      </trkpt>
      <trkpt lat="45.09913" lon="1.2783">
        <ele>139.1</ele>
        <time>2023-10-28T13:25:12Z</time>
      </trkpt>
      <trkpt lat="45.09912" lon="1.27829">
        <ele>139.3</ele>
        <time>2023-10-28T13:25:13Z</time>
      </trkpt>
      <trkpt lat="45.09912" lon="1.27828">
        <ele>139.5</ele>
        <time>2023-10-28T13:25:14Z</time>
      </trkpt>
      <trkpt lat="45.09911" lon="1.27826">
        <ele>139.7</ele>
        <time>2023-10-28T13:25:15Z</time>
      </trkpt>
      <trkpt lat="45.09911" lon="1.27825">
        <ele>139.9</ele>
        <time>2023-10-28T13:25:16Z</time>
      </trkpt>
      <trkpt lat="45.0991" lon="1.27823">
        <ele>140.2</ele>
        <time>2023-10-28T13:25:17Z</time>
      </trkpt>
      <trkpt lat="45.09909" lon="1.27822">
        <ele>140.4</ele>
        <time>2023-10-28T13:25:18Z</time>
      </trkpt>
      <trkpt lat="45.09909" lon="1.2782">
        <ele>140.6</ele>
        <time>2023-10-28T13:25:19Z</time>
      </trkpt>
      <trkpt lat="45.09908" lon="1.27819">
        <ele>140.9</ele>
        <time>2023-10-28T13:25:20Z</time>
      </trkpt>
      <trkpt lat="45.09908" lon="1.27818">
        <ele>141.1</ele>
        <time>2023-10-28T13:25:21Z</time>
      </trkpt>
      <trkpt lat="45.09907" lon="1.27816">
        <ele>141.3</ele>
        <time>2023-10-28T13:25:22Z</time>
      </trkpt>
      <trkpt lat="45.09906" lon="1.27815">
        <ele>141.5</ele>
        <time>2023-10-28T13:25:23Z</time>
      </trkpt>
      <trkpt lat="45.09906" lon="1.27813">
        <ele>141.7</ele>
        <time>2023-10-28T13:25:24Z</time>
      </trkpt>
      <trkpt lat="45.09905" lon="1.27812">
        <ele>142</ele>
        <time>2023-10-28T13:25:25Z</time>
      </trkpt>
      <trkpt lat="45.09905" lon="1.27811">
        <ele>142.2</ele>
        <time>2023-10-28T13:25:26Z</time>
      </trkpt>
      <trkpt lat="45.09904" lon="1.27809">
        <ele>142.4</ele>
        <time>2023-10-28T13:25:27Z</time>
      </trkpt>
      <trkpt lat="45.09903" lon="1.27808">
        <ele>142.6</ele>
        <time>2023-10-28T13:25:28Z</time>
      </trkpt>
      <trkpt lat="45.09902" lon="1.27806">
        <ele>142.9</ele>
        <time>2023-10-28T13:25:29Z</time>
      </trkpt>
      <trkpt lat="45.09901" lon="1.27804">
        <ele>143.1</ele>
        <time>2023-10-28T13:25:30Z</time>
      </trkpt>
      <trkpt lat="45.09901" lon="1.27803">
        <ele>143.3</ele>
        <time>2023-10-28T13:25:31Z</time>
      </trkpt>
      <trkpt lat="45.09901" lon="1.27801">
        <ele>143.5</ele>
        <time>2023-10-28T13:25:32Z</time>
      </trkpt>
      <trkpt lat="45.099" lon="1.278">
        <ele>143.8</ele>
        <time>2023-10-28T13:25:33Z</time>
      </trkpt>
      <trkpt lat="45.09899" lon="1.27798">
        <ele>144</ele>
        <time>2023-10-28T13:25:34Z</time>
      </trkpt>
      <trkpt lat="45.09899" lon="1.27797">
        <ele>144.2</ele>
        <time>2023-10-28T13:25:35Z</time>
      </trkpt>
      <trkpt lat="45.09898" lon="1.27795">
        <ele>144.4</ele>
        <time>2023-10-28T13:25:36Z</time>
      </trkpt>
      <trkpt lat="45.09898" lon="1.27794">
        <ele>144.6</ele>
        <time>2023-10-28T13:25:37Z</time>
      </trkpt>
      <trkpt lat="45.09897" lon="1.27793">
        <ele>144.8</ele>
        <time>2023-10-28T13:25:38Z</time>
      </trkpt>
      <trkpt lat="45.09897" lon="1.27791">
        <ele>144.9</ele>
        <time>2023-10-28T13:25:39Z</time>
      </trkpt>
      <trkpt lat="45.09897" lon="1.2779">
        <ele>145.1</ele>
        <time>2023-10-28T13:25:40Z</time>
      </trkpt>
      <trkpt lat="45.09897" lon="1.27789">
        <ele>145.3</ele>
        <time>2023-10-28T13:25:41Z</time>
      </trkpt>
      <trkpt lat="45.09897" lon="1.27787">
        <ele>145.4</ele>
        <time>2023-10-28T13:25:42Z</time>
      </trkpt>
      <trkpt lat="45.09896" lon="1.27786">
        <ele>145.6</ele>
        <time>2023-10-28T13:25:43Z</time>
      </trkpt>
      <trkpt lat="45.09896" lon="1.27785">
        <ele>145.8</ele>
        <time>2023-10-28T13:25:44Z</time>
      </trkpt>
      <trkpt lat="45.09895" lon="1.27783">
        <ele>145.9</ele>
        <time>2023-10-28T13:25:45Z</time>
      </trkpt>
      <trkpt lat="45.09895" lon="1.27782">
        <ele>146.1</ele>
        <time>2023-10-28T13:25:46Z</time>
      </trkpt>
      <trkpt lat="45.09895" lon="1.2778">
        <ele>146.3</ele>
        <time>2023-10-28T13:25:47Z</time>
      </trkpt>
      <trkpt lat="45.09894" lon="1.27779">
        <ele>146.4</ele>
        <time>2023-10-28T13:25:48Z</time>
      </trkpt>
      <trkpt lat="45.09894" lon="1.27778">
        <ele>146.6</ele>
        <time>2023-10-28T13:25:49Z</time>
      </trkpt>
      <trkpt lat="45.09893" lon="1.27777">
        <ele>146.8</ele>
        <time>2023-10-28T13:25:50Z</time>
      </trkpt>
      <trkpt lat="45.09893" lon="1.27775">
        <ele>146.9</ele>
        <time>2023-10-28T13:25:51Z</time>
      </trkpt>
      <trkpt lat="45.09892" lon="1.27774">
        <ele>147.2</ele>
        <time>2023-10-28T13:25:52Z</time>
      </trkpt>
      <trkpt lat="45.09892" lon="1.27772">
        <ele>147.4</ele>
        <time>2023-10-28T13:25:53Z</time>
      </trkpt>
      <trkpt lat="45.09892" lon="1.2777">
        <ele>147.6</ele>
        <time>2023-10-28T13:25:54Z</time>
      </trkpt>
      <trkpt lat="45.09891" lon="1.27769">
        <ele>147.7</ele>
        <time>2023-10-28T13:25:55Z</time>
      </trkpt>
      <trkpt lat="45.09891" lon="1.27767">
        <ele>147.9</ele>
        <time>2023-10-28T13:25:56Z</time>
      </trkpt>
      <trkpt lat="45.0989" lon="1.27766">
        <ele>148.1</ele>
        <time>2023-10-28T13:25:57Z</time>
      </trkpt>
      <trkpt lat="45.0989" lon="1.27765">
        <ele>148.3</ele>
        <time>2023-10-28T13:25:58Z</time>
      </trkpt>
      <trkpt lat="45.0989" lon="1.27763">
        <ele>148.4</ele>
        <time>2023-10-28T13:25:59Z</time>
      </trkpt>
      <trkpt lat="45.0989" lon="1.27762">
        <ele>148.6</ele>
        <time>2023-10-28T13:26:00Z</time>
      </trkpt>
      <trkpt lat="45.09889" lon="1.2776">
        <ele>148.8</ele>
        <time>2023-10-28T13:26:01Z</time>
      </trkpt>
      <trkpt lat="45.09889" lon="1.27759">
        <ele>149</ele>
        <time>2023-10-28T13:26:02Z</time>
      </trkpt>
      <trkpt lat="45.09888" lon="1.27756">
        <ele>149.3</ele>
        <time>2023-10-28T13:26:03Z</time>
      </trkpt>
      <trkpt lat="45.09887" lon="1.27754">
        <ele>149.6</ele>
        <time>2023-10-28T13:26:04Z</time>
      </trkpt>
      <trkpt lat="45.09887" lon="1.27752">
        <ele>149.8</ele>
        <time>2023-10-28T13:26:05Z</time>
      </trkpt>
      <trkpt lat="45.09887" lon="1.2775">
        <ele>150.1</ele>
        <time>2023-10-28T13:26:06Z</time>
      </trkpt>
      <trkpt lat="45.09886" lon="1.27748">
        <ele>150.3</ele>
        <time>2023-10-28T13:26:07Z</time>
      </trkpt>
      <trkpt lat="45.09885" lon="1.27746">
        <ele>150.6</ele>
        <time>2023-10-28T13:26:08Z</time>
      </trkpt>
      <trkpt lat="45.09885" lon="1.27745">
        <ele>150.8</ele>
        <time>2023-10-28T13:26:09Z</time>
      </trkpt>
      <trkpt lat="45.09884" lon="1.27743">
        <ele>151</ele>
        <time>2023-10-28T13:26:10Z</time>
      </trkpt>
      <trkpt lat="45.09883" lon="1.27742">
        <ele>151.2</ele>
        <time>2023-10-28T13:26:11Z</time>
      </trkpt>
      <trkpt lat="45.09883" lon="1.2774">
        <ele>151.4</ele>
        <time>2023-10-28T13:26:12Z</time>
      </trkpt>
      <trkpt lat="45.09882" lon="1.27738">
        <ele>151.6</ele>
        <time>2023-10-28T13:26:13Z</time>
      </trkpt>
      <trkpt lat="45.09882" lon="1.27737">
        <ele>151.9</ele>
        <time>2023-10-28T13:26:14Z</time>
      </trkpt>
      <trkpt lat="45.09882" lon="1.27735">
        <ele>152.1</ele>
        <time>2023-10-28T13:26:15Z</time>
      </trkpt>
      <trkpt lat="45.09881" lon="1.27733">
        <ele>152.3</ele>
        <time>2023-10-28T13:26:16Z</time>
      </trkpt>
      <trkpt lat="45.09881" lon="1.27732">
        <ele>152.5</ele>
        <time>2023-10-28T13:26:17Z</time>
      </trkpt>
      <trkpt lat="45.09881" lon="1.2773">
        <ele>152.7</ele>
        <time>2023-10-28T13:26:18Z</time>
      </trkpt>
      <trkpt lat="45.09881" lon="1.27729">
        <ele>152.9</ele>
        <time>2023-10-28T13:26:19Z</time>
      </trkpt>
      <trkpt lat="45.0988" lon="1.27727">
        <ele>153.1</ele>
        <time>2023-10-28T13:26:20Z</time>
      </trkpt>
      <trkpt lat="45.0988" lon="1.27726">
        <ele>153.2</ele>
        <time>2023-10-28T13:26:21Z</time>
      </trkpt>
      <trkpt lat="45.0988" lon="1.27724">
        <ele>153.4</ele>
        <time>2023-10-28T13:26:22Z</time>
      </trkpt>
      <trkpt lat="45.0988" lon="1.27723">
        <ele>153.6</ele>
        <time>2023-10-28T13:26:23Z</time>
      </trkpt>
      <trkpt lat="45.0988" lon="1.27722">
        <ele>153.7</ele>
        <time>2023-10-28T13:26:24Z</time>
      </trkpt>
      <trkpt lat="45.0988" lon="1.2772">
        <ele>153.9</ele>
        <time>2023-10-28T13:26:25Z</time>
      </trkpt>
      <trkpt lat="45.0988" lon="1.27719">
        <ele>154.1</ele>
        <time>2023-10-28T13:26:26Z</time>
      </trkpt>
      <trkpt lat="45.0988" lon="1.27717">
        <ele>154.3</ele>
        <time>2023-10-28T13:26:27Z</time>
      </trkpt>
      <trkpt lat="45.09881" lon="1.27716">
        <ele>154.5</ele>
        <time>2023-10-28T13:26:28Z</time>
      </trkpt>
      <trkpt lat="45.09881" lon="1.27714">
        <ele>154.7</ele>
        <time>2023-10-28T13:26:29Z</time>
      </trkpt>
      <trkpt lat="45.09881" lon="1.27713">
        <ele>154.9</ele>
        <time>2023-10-28T13:26:30Z</time>
      </trkpt>
      <trkpt lat="45.09881" lon="1.27711">
        <ele>155.1</ele>
        <time>2023-10-28T13:26:31Z</time>
      </trkpt>
      <trkpt lat="45.09881" lon="1.27709">
        <ele>155.4</ele>
        <time>2023-10-28T13:26:32Z</time>
      </trkpt>
      <trkpt lat="45.0988" lon="1.27707">
        <ele>155.6</ele>
        <time>2023-10-28T13:26:33Z</time>
      </trkpt>
      <trkpt lat="45.0988" lon="1.27705">
        <ele>155.9</ele>
        <time>2023-10-28T13:26:34Z</time>
      </trkpt>
      <trkpt lat="45.0988" lon="1.27703">
        <ele>156.1</ele>
        <time>2023-10-28T13:26:35Z</time>
      </trkpt>
      <trkpt lat="45.0988" lon="1.27702">
        <ele>156.4</ele>
        <time>2023-10-28T13:26:36Z</time>
      </trkpt>
      <trkpt lat="45.0988" lon="1.277">
        <ele>156.6</ele>
        <time>2023-10-28T13:26:37Z</time>
      </trkpt>
      <trkpt lat="45.0988" lon="1.27698">
        <ele>156.8</ele>
        <time>2023-10-28T13:26:38Z</time>
      </trkpt>
      <trkpt lat="45.0988" lon="1.27697">
        <ele>157</ele>
        <time>2023-10-28T13:26:39Z</time>
      </trkpt>
      <trkpt lat="45.0988" lon="1.27695">
        <ele>157.3</ele>
        <time>2023-10-28T13:26:40Z</time>
      </trkpt>
      <trkpt lat="45.0988" lon="1.27693">
        <ele>157.5</ele>
        <time>2023-10-28T13:26:41Z</time>
      </trkpt>
      <trkpt lat="45.0988" lon="1.27692">
        <ele>157.7</ele>
        <time>2023-10-28T13:26:42Z</time>
      </trkpt>
      <trkpt lat="45.0988" lon="1.2769">
        <ele>158</ele>
        <time>2023-10-28T13:26:43Z</time>
      </trkpt>
      <trkpt lat="45.0988" lon="1.27688">
        <ele>158.3</ele>
        <time>2023-10-28T13:26:44Z</time>
      </trkpt>
      <trkpt lat="45.0988" lon="1.27686">
        <ele>158.5</ele>
        <time>2023-10-28T13:26:45Z</time>
      </trkpt>
      <trkpt lat="45.0988" lon="1.27684">
        <ele>158.8</ele>
        <time>2023-10-28T13:26:46Z</time>
      </trkpt>
      <trkpt lat="45.09881" lon="1.27683">
        <ele>159</ele>
        <time>2023-10-28T13:26:47Z</time>
      </trkpt>
      <trkpt lat="45.09881" lon="1.27681">
        <ele>159.3</ele>
        <time>2023-10-28T13:26:48Z</time>
      </trkpt>
      <trkpt lat="45.09881" lon="1.27679">
        <ele>159.5</ele>
        <time>2023-10-28T13:26:49Z</time>
      </trkpt>
      <trkpt lat="45.09881" lon="1.27677">
        <ele>159.7</ele>
        <time>2023-10-28T13:26:50Z</time>
      </trkpt>
      <trkpt lat="45.09881" lon="1.27676">
        <ele>160</ele>
        <time>2023-10-28T13:26:51Z</time>
      </trkpt>
      <trkpt lat="45.09881" lon="1.27674">
        <ele>160.2</ele>
        <time>2023-10-28T13:26:52Z</time>
      </trkpt>
      <trkpt lat="45.09881" lon="1.27672">
        <ele>160.4</ele>
        <time>2023-10-28T13:26:53Z</time>
      </trkpt>
      <trkpt lat="45.09881" lon="1.27671">
        <ele>160.6</ele>
        <time>2023-10-28T13:26:54Z</time>
      </trkpt>
      <trkpt lat="45.0988" lon="1.2767">
        <ele>160.8</ele>
        <time>2023-10-28T13:26:55Z</time>
      </trkpt>
      <trkpt lat="45.0988" lon="1.27668">
        <ele>161</ele>
        <time>2023-10-28T13:26:56Z</time>
      </trkpt>
      <trkpt lat="45.0988" lon="1.27667">
        <ele>161.2</ele>
        <time>2023-10-28T13:26:57Z</time>
      </trkpt>
      <trkpt lat="45.0988" lon="1.27665">
        <ele>161.4</ele>
        <time>2023-10-28T13:26:58Z</time>
      </trkpt>
      <trkpt lat="45.0988" lon="1.27664">
        <ele>161.6</ele>
        <time>2023-10-28T13:26:59Z</time>
      </trkpt>
      <trkpt lat="45.0988" lon="1.27662">
        <ele>161.8</ele>
        <time>2023-10-28T13:27:00Z</time>
      </trkpt>
      <trkpt lat="45.0988" lon="1.2766">
        <ele>162.1</ele>
        <time>2023-10-28T13:27:01Z</time>
      </trkpt>
      <trkpt lat="45.0988" lon="1.27659">
        <ele>162.3</ele>
        <time>2023-10-28T13:27:02Z</time>
      </trkpt>
      <trkpt lat="45.0988" lon="1.27657">
        <ele>162.6</ele>
        <time>2023-10-28T13:27:03Z</time>
      </trkpt>
      <trkpt lat="45.0988" lon="1.27656">
        <ele>162.8</ele>
        <time>2023-10-28T13:27:04Z</time>
      </trkpt>
      <trkpt lat="45.09879" lon="1.27654">
        <ele>163</ele>
        <time>2023-10-28T13:27:05Z</time>
      </trkpt>
      <trkpt lat="45.09879" lon="1.27653">
        <ele>163.2</ele>
        <time>2023-10-28T13:27:06Z</time>
      </trkpt>
      <trkpt lat="45.09879" lon="1.27651">
        <ele>163.4</ele>
        <time>2023-10-28T13:27:07Z</time>
      </trkpt>
      <trkpt lat="45.09879" lon="1.2765">
        <ele>163.6</ele>
        <time>2023-10-28T13:27:08Z</time>
      </trkpt>
      <trkpt lat="45.09879" lon="1.27649">
        <ele>163.8</ele>
        <time>2023-10-28T13:27:09Z</time>
      </trkpt>
      <trkpt lat="45.09878" lon="1.27647">
        <ele>164</ele>
        <time>2023-10-28T13:27:10Z</time>
      </trkpt>
      <trkpt lat="45.09877" lon="1.27647">
        <ele>164.2</ele>
        <time>2023-10-28T13:27:11Z</time>
      </trkpt>
      <trkpt lat="45.09877" lon="1.27646">
        <ele>164.4</ele>
        <time>2023-10-28T13:27:12Z</time>
      </trkpt>
      <trkpt lat="45.09876" lon="1.27647">
        <ele>164.5</ele>
        <time>2023-10-28T13:27:13Z</time>
      </trkpt>
      <trkpt lat="45.09876" lon="1.27648">
        <ele>164.6</ele>
        <time>2023-10-28T13:27:14Z</time>
      </trkpt>
      <trkpt lat="45.09875" lon="1.27649">
        <ele>164.8</ele>
        <time>2023-10-28T13:27:15Z</time>
      </trkpt>
      <trkpt lat="45.09874" lon="1.2765">
        <ele>165.1</ele>
        <time>2023-10-28T13:27:16Z</time>
      </trkpt>
      <trkpt lat="45.09874" lon="1.27652">
        <ele>165.3</ele>
        <time>2023-10-28T13:27:17Z</time>
      </trkpt>
      <trkpt lat="45.09873" lon="1.27653">
        <ele>165.5</ele>
        <time>2023-10-28T13:27:18Z</time>
      </trkpt>
      <trkpt lat="45.09872" lon="1.27655">
        <ele>165.8</ele>
        <time>2023-10-28T13:27:19Z</time>
      </trkpt>
      <trkpt lat="45.09871" lon="1.27656">
        <ele>166</ele>
        <time>2023-10-28T13:27:20Z</time>
      </trkpt>
      <trkpt lat="45.0987" lon="1.27657">
        <ele>166.1</ele>
        <time>2023-10-28T13:27:21Z</time>
      </trkpt>
      <trkpt lat="45.09869" lon="1.27658">
        <ele>166.3</ele>
        <time>2023-10-28T13:27:22Z</time>
      </trkpt>
      <trkpt lat="45.09868" lon="1.27659">
        <ele>166.5</ele>
        <time>2023-10-28T13:27:23Z</time>
      </trkpt>
      <trkpt lat="45.09867" lon="1.2766">
        <ele>166.7</ele>
        <time>2023-10-28T13:27:24Z</time>
      </trkpt>
      <trkpt lat="45.09866" lon="1.27661">
        <ele>166.9</ele>
        <time>2023-10-28T13:27:25Z</time>
      </trkpt>
      <trkpt lat="45.09866" lon="1.27662">
        <ele>167</ele>
        <time>2023-10-28T13:27:26Z</time>
      </trkpt>
      <trkpt lat="45.09864" lon="1.27663">
        <ele>167.2</ele>
        <time>2023-10-28T13:27:27Z</time>
      </trkpt>
      <trkpt lat="45.09864" lon="1.27664">
        <ele>167.3</ele>
        <time>2023-10-28T13:27:28Z</time>
      </trkpt>
      <trkpt lat="45.09863" lon="1.27664">
        <ele>167.5</ele>
        <time>2023-10-28T13:27:29Z</time>
      </trkpt>
      <trkpt lat="45.09862" lon="1.27665">
        <ele>167.6</ele>
        <time>2023-10-28T13:27:30Z</time>
      </trkpt>
      <trkpt lat="45.09861" lon="1.27665">
        <ele>167.8</ele>
        <time>2023-10-28T13:27:31Z</time>
      </trkpt>
      <trkpt lat="45.0986" lon="1.27666">
        <ele>167.9</ele>
        <time>2023-10-28T13:27:32Z</time>
      </trkpt>
      <trkpt lat="45.09858" lon="1.27666">
        <ele>168.1</ele>
        <time>2023-10-28T13:27:33Z</time>
      </trkpt>
      <trkpt lat="45.09858" lon="1.27667">
        <ele>168.2</ele>
        <time>2023-10-28T13:27:34Z</time>
      </trkpt>
      <trkpt lat="45.09856" lon="1.27667">
        <ele>168.4</ele>
        <time>2023-10-28T13:27:35Z</time>
      </trkpt>
      <trkpt lat="45.09856" lon="1.27668">
        <ele>168.5</ele>
        <time>2023-10-28T13:27:36Z</time>
      </trkpt>
      <trkpt lat="45.09855" lon="1.27669">
        <ele>168.6</ele>
        <time>2023-10-28T13:27:37Z</time>
      </trkpt>
      <trkpt lat="45.09854" lon="1.2767">
        <ele>168.8</ele>
        <time>2023-10-28T13:27:38Z</time>
      </trkpt>
      <trkpt lat="45.09853" lon="1.27671">
        <ele>168.9</ele>
        <time>2023-10-28T13:27:39Z</time>
      </trkpt>
      <trkpt lat="45.09852" lon="1.27672">
        <ele>169.1</ele>
        <time>2023-10-28T13:27:40Z</time>
      </trkpt>
      <trkpt lat="45.09851" lon="1.27672">
        <ele>169.2</ele>
        <time>2023-10-28T13:27:41Z</time>
      </trkpt>
      <trkpt lat="45.0985" lon="1.27673">
        <ele>169.4</ele>
        <time>2023-10-28T13:27:42Z</time>
      </trkpt>
      <trkpt lat="45.09849" lon="1.27673">
        <ele>169.5</ele>
        <time>2023-10-28T13:27:43Z</time>
      </trkpt>
      <trkpt lat="45.09848" lon="1.27673">
        <ele>169.6</ele>
        <time>2023-10-28T13:27:44Z</time>
      </trkpt>
      <trkpt lat="45.09847" lon="1.27673">
        <ele>169.8</ele>
        <time>2023-10-28T13:27:45Z</time>
      </trkpt>
      <trkpt lat="45.09845" lon="1.27673">
        <ele>169.9</ele>
        <time>2023-10-28T13:27:46Z</time>
      </trkpt>
      <trkpt lat="45.09844" lon="1.27673">
        <ele>170</ele>
        <time>2023-10-28T13:27:47Z</time>
      </trkpt>
      <trkpt lat="45.09843" lon="1.27672">
        <ele>170.1</ele>
        <time>2023-10-28T13:27:48Z</time>
      </trkpt>
      <trkpt lat="45.09842" lon="1.27672">
        <ele>170.3</ele>
        <time>2023-10-28T13:27:49Z</time>
      </trkpt>
      <trkpt lat="45.09841" lon="1.27672">
        <ele>170.4</ele>
        <time>2023-10-28T13:27:50Z</time>
      </trkpt>
      <trkpt lat="45.09839" lon="1.27672">
        <ele>170.6</ele>
        <time>2023-10-28T13:27:51Z</time>
      </trkpt>
      <trkpt lat="45.09838" lon="1.27673">
        <ele>170.7</ele>
        <time>2023-10-28T13:27:52Z</time>
      </trkpt>
      <trkpt lat="45.09837" lon="1.27674">
        <ele>170.8</ele>
        <time>2023-10-28T13:27:53Z</time>
      </trkpt>
      <trkpt lat="45.09836" lon="1.27675">
        <ele>170.9</ele>
        <time>2023-10-28T13:27:54Z</time>
      </trkpt>
      <trkpt lat="45.09835" lon="1.27676">
        <ele>171</ele>
        <time>2023-10-28T13:27:55Z</time>
      </trkpt>
      <trkpt lat="45.09834" lon="1.27677">
        <ele>171.1</ele>
        <time>2023-10-28T13:27:56Z</time>
      </trkpt>
      <trkpt lat="45.09834" lon="1.27678">
        <ele>169.5</ele>
        <time>2023-10-28T13:27:57Z</time>
      </trkpt>
      <trkpt lat="45.09832" lon="1.27679">
        <ele>168</ele>
        <time>2023-10-28T13:27:58Z</time>
      </trkpt>
      <trkpt lat="45.09831" lon="1.27679">
        <ele>166.5</ele>
        <time>2023-10-28T13:27:59Z</time>
      </trkpt>
      <trkpt lat="45.09831" lon="1.2768">
        <ele>165.5</ele>
        <time>2023-10-28T13:28:00Z</time>
      </trkpt>
      <trkpt lat="45.09829" lon="1.27681">
        <ele>163.5</ele>
        <time>2023-10-28T13:28:01Z</time>
      </trkpt>
      <trkpt lat="45.09827" lon="1.27682">
        <ele>163.9</ele>
        <time>2023-10-28T13:28:02Z</time>
      </trkpt>
      <trkpt lat="45.09826" lon="1.27684">
        <ele>164.5</ele>
        <time>2023-10-28T13:28:03Z</time>
      </trkpt>
      <trkpt lat="45.09824" lon="1.27685">
        <ele>165.1</ele>
        <time>2023-10-28T13:28:04Z</time>
      </trkpt>
      <trkpt lat="45.09823" lon="1.27687">
        <ele>165.7</ele>
        <time>2023-10-28T13:28:05Z</time>
      </trkpt>
      <trkpt lat="45.09821" lon="1.27689">
        <ele>166.3</ele>
        <time>2023-10-28T13:28:06Z</time>
      </trkpt>
      <trkpt lat="45.0982" lon="1.27691">
        <ele>166.9</ele>
        <time>2023-10-28T13:28:07Z</time>
      </trkpt>
      <trkpt lat="45.09819" lon="1.27692">
        <ele>167.5</ele>
        <time>2023-10-28T13:28:08Z</time>
      </trkpt>
      <trkpt lat="45.09817" lon="1.27694">
        <ele>168.1</ele>
        <time>2023-10-28T13:28:09Z</time>
      </trkpt>
      <trkpt lat="45.09816" lon="1.27695">
        <ele>168.4</ele>
        <time>2023-10-28T13:28:10Z</time>
      </trkpt>
      <trkpt lat="45.09814" lon="1.27697">
        <ele>168.6</ele>
        <time>2023-10-28T13:28:11Z</time>
      </trkpt>
      <trkpt lat="45.09813" lon="1.27698">
        <ele>168.9</ele>
        <time>2023-10-28T13:28:12Z</time>
      </trkpt>
      <trkpt lat="45.09811" lon="1.27699">
        <ele>169.1</ele>
        <time>2023-10-28T13:28:13Z</time>
      </trkpt>
      <trkpt lat="45.09809" lon="1.277">
        <ele>169.4</ele>
        <time>2023-10-28T13:28:14Z</time>
      </trkpt>
      <trkpt lat="45.09807" lon="1.27701">
        <ele>169.7</ele>
        <time>2023-10-28T13:28:15Z</time>
      </trkpt>
      <trkpt lat="45.09806" lon="1.27702">
        <ele>169.9</ele>
        <time>2023-10-28T13:28:16Z</time>
      </trkpt>
      <trkpt lat="45.09804" lon="1.27703">
        <ele>170.2</ele>
        <time>2023-10-28T13:28:17Z</time>
      </trkpt>
      <trkpt lat="45.09802" lon="1.27703">
        <ele>170.4</ele>
        <time>2023-10-28T13:28:18Z</time>
      </trkpt>
      <trkpt lat="45.098" lon="1.27704">
        <ele>170.7</ele>
        <time>2023-10-28T13:28:19Z</time>
      </trkpt>
      <trkpt lat="45.09798" lon="1.27704">
        <ele>170.9</ele>
        <time>2023-10-28T13:28:20Z</time>
      </trkpt>
      <trkpt lat="45.09797" lon="1.27705">
        <ele>171.2</ele>
        <time>2023-10-28T13:28:21Z</time>
      </trkpt>
      <trkpt lat="45.09795" lon="1.27705">
        <ele>171.5</ele>
        <time>2023-10-28T13:28:22Z</time>
      </trkpt>
      <trkpt lat="45.09793" lon="1.27706">
        <ele>171.7</ele>
        <time>2023-10-28T13:28:23Z</time>
      </trkpt>
      <trkpt lat="45.09791" lon="1.27706">
        <ele>171.9</ele>
        <time>2023-10-28T13:28:24Z</time>
      </trkpt>
      <trkpt lat="45.09789" lon="1.27706">
        <ele>172.2</ele>
        <time>2023-10-28T13:28:25Z</time>
      </trkpt>
      <trkpt lat="45.09788" lon="1.27707">
        <ele>172.4</ele>
        <time>2023-10-28T13:28:26Z</time>
      </trkpt>
      <trkpt lat="45.09786" lon="1.27707">
        <ele>172.6</ele>
        <time>2023-10-28T13:28:27Z</time>
      </trkpt>
      <trkpt lat="45.09784" lon="1.27707">
        <ele>172.8</ele>
        <time>2023-10-28T13:28:28Z</time>
      </trkpt>
      <trkpt lat="45.09782" lon="1.27707">
        <ele>173</ele>
        <time>2023-10-28T13:28:29Z</time>
      </trkpt>
      <trkpt lat="45.09781" lon="1.27707">
        <ele>173.2</ele>
        <time>2023-10-28T13:28:30Z</time>
      </trkpt>
      <trkpt lat="45.09779" lon="1.27706">
        <ele>173.4</ele>
        <time>2023-10-28T13:28:31Z</time>
      </trkpt>
      <trkpt lat="45.09777" lon="1.27706">
        <ele>173.6</ele>
        <time>2023-10-28T13:28:32Z</time>
      </trkpt>
      <trkpt lat="45.09775" lon="1.27705">
        <ele>173.8</ele>
        <time>2023-10-28T13:28:33Z</time>
      </trkpt>
      <trkpt lat="45.09773" lon="1.27704">
        <ele>174</ele>
        <time>2023-10-28T13:28:34Z</time>
      </trkpt>
      <trkpt lat="45.09771" lon="1.27702">
        <ele>174.2</ele>
        <time>2023-10-28T13:28:35Z</time>
      </trkpt>
      <trkpt lat="45.0977" lon="1.27701">
        <ele>174.4</ele>
        <time>2023-10-28T13:28:36Z</time>
      </trkpt>
      <trkpt lat="45.09768" lon="1.27699">
        <ele>174.6</ele>
        <time>2023-10-28T13:28:37Z</time>
      </trkpt>
      <trkpt lat="45.09766" lon="1.27697">
        <ele>174.8</ele>
        <time>2023-10-28T13:28:38Z</time>
      </trkpt>
      <trkpt lat="45.09765" lon="1.27696">
        <ele>175</ele>
        <time>2023-10-28T13:28:39Z</time>
      </trkpt>
      <trkpt lat="45.09763" lon="1.27694">
        <ele>175.3</ele>
        <time>2023-10-28T13:28:40Z</time>
      </trkpt>
      <trkpt lat="45.09761" lon="1.27692">
        <ele>175.5</ele>
        <time>2023-10-28T13:28:41Z</time>
      </trkpt>
      <trkpt lat="45.0976" lon="1.2769">
        <ele>175.8</ele>
        <time>2023-10-28T13:28:42Z</time>
      </trkpt>
      <trkpt lat="45.09758" lon="1.27688">
        <ele>176</ele>
        <time>2023-10-28T13:28:43Z</time>
      </trkpt>
      <trkpt lat="45.09757" lon="1.27686">
        <ele>176.2</ele>
        <time>2023-10-28T13:28:44Z</time>
      </trkpt>
      <trkpt lat="45.09755" lon="1.27684">
        <ele>176.5</ele>
        <time>2023-10-28T13:28:45Z</time>
      </trkpt>
      <trkpt lat="45.09754" lon="1.27682">
        <ele>176.7</ele>
        <time>2023-10-28T13:28:46Z</time>
      </trkpt>
      <trkpt lat="45.09753" lon="1.2768">
        <ele>176.9</ele>
        <time>2023-10-28T13:28:47Z</time>
      </trkpt>
      <trkpt lat="45.09751" lon="1.27678">
        <ele>177.2</ele>
        <time>2023-10-28T13:28:48Z</time>
      </trkpt>
      <trkpt lat="45.0975" lon="1.27677">
        <ele>177.4</ele>
        <time>2023-10-28T13:28:49Z</time>
      </trkpt>
      <trkpt lat="45.09748" lon="1.27675">
        <ele>177.6</ele>
        <time>2023-10-28T13:28:50Z</time>
      </trkpt>
      <trkpt lat="45.09746" lon="1.27674">
        <ele>177.9</ele>
        <time>2023-10-28T13:28:51Z</time>
      </trkpt>
      <trkpt lat="45.09745" lon="1.27673">
        <ele>178.1</ele>
        <time>2023-10-28T13:28:52Z</time>
      </trkpt>
      <trkpt lat="45.09742" lon="1.27672">
        <ele>178.3</ele>
        <time>2023-10-28T13:28:53Z</time>
      </trkpt>
      <trkpt lat="45.09741" lon="1.27671">
        <ele>178.5</ele>
        <time>2023-10-28T13:28:54Z</time>
      </trkpt>
      <trkpt lat="45.09739" lon="1.2767">
        <ele>178.8</ele>
        <time>2023-10-28T13:28:55Z</time>
      </trkpt>
      <trkpt lat="45.09737" lon="1.2767">
        <ele>179</ele>
        <time>2023-10-28T13:28:56Z</time>
      </trkpt>
      <trkpt lat="45.09735" lon="1.27669">
        <ele>179.2</ele>
        <time>2023-10-28T13:28:57Z</time>
      </trkpt>
      <trkpt lat="45.09733" lon="1.27668">
        <ele>179.3</ele>
        <time>2023-10-28T13:28:58Z</time>
      </trkpt>
      <trkpt lat="45.09731" lon="1.27668">
        <ele>179.4</ele>
        <time>2023-10-28T13:28:59Z</time>
      </trkpt>
      <trkpt lat="45.09728" lon="1.27667">
        <ele>179.5</ele>
        <time>2023-10-28T13:29:00Z</time>
      </trkpt>
      <trkpt lat="45.09726" lon="1.27667">
        <ele>179.6</ele>
        <time>2023-10-28T13:29:01Z</time>
      </trkpt>
      <trkpt lat="45.09723" lon="1.27666">
        <ele>179.7</ele>
        <time>2023-10-28T13:29:02Z</time>
      </trkpt>
      <trkpt lat="45.09721" lon="1.27666">
        <ele>179.8</ele>
        <time>2023-10-28T13:29:03Z</time>
      </trkpt>
      <trkpt lat="45.09719" lon="1.27665">
        <ele>179.8</ele>
        <time>2023-10-28T13:29:04Z</time>
      </trkpt>
      <trkpt lat="45.09717" lon="1.27665">
        <ele>179.9</ele>
        <time>2023-10-28T13:29:05Z</time>
      </trkpt>
      <trkpt lat="45.09715" lon="1.27664">
        <ele>180</ele>
        <time>2023-10-28T13:29:06Z</time>
      </trkpt>
      <trkpt lat="45.09713" lon="1.27664">
        <ele>180.1</ele>
        <time>2023-10-28T13:29:07Z</time>
      </trkpt>
      <trkpt lat="45.09711" lon="1.27663">
        <ele>180.1</ele>
        <time>2023-10-28T13:29:08Z</time>
      </trkpt>
      <trkpt lat="45.09709" lon="1.27663">
        <ele>180.2</ele>
        <time>2023-10-28T13:29:09Z</time>
      </trkpt>
      <trkpt lat="45.09707" lon="1.27663">
        <ele>180.3</ele>
        <time>2023-10-28T13:29:10Z</time>
      </trkpt>
      <trkpt lat="45.09705" lon="1.27663">
        <ele>180.3</ele>
        <time>2023-10-28T13:29:11Z</time>
      </trkpt>
      <trkpt lat="45.09703" lon="1.27662">
        <ele>180.4</ele>
        <time>2023-10-28T13:29:12Z</time>
      </trkpt>
      <trkpt lat="45.09702" lon="1.27662">
        <ele>180.5</ele>
        <time>2023-10-28T13:29:13Z</time>
      </trkpt>
      <trkpt lat="45.097" lon="1.27662">
        <ele>180.6</ele>
        <time>2023-10-28T13:29:14Z</time>
      </trkpt>
      <trkpt lat="45.09698" lon="1.27662">
        <ele>180.6</ele>
        <time>2023-10-28T13:29:15Z</time>
      </trkpt>
      <trkpt lat="45.09696" lon="1.27662">
        <ele>180.7</ele>
        <time>2023-10-28T13:29:16Z</time>
      </trkpt>
      <trkpt lat="45.09694" lon="1.27662">
        <ele>180.8</ele>
        <time>2023-10-28T13:29:17Z</time>
      </trkpt>
      <trkpt lat="45.09692" lon="1.27662">
        <ele>180.9</ele>
        <time>2023-10-28T13:29:18Z</time>
      </trkpt>
      <trkpt lat="45.09691" lon="1.27662">
        <ele>180.9</ele>
        <time>2023-10-28T13:29:19Z</time>
      </trkpt>
      <trkpt lat="45.09689" lon="1.27662">
        <ele>181</ele>
        <time>2023-10-28T13:29:20Z</time>
      </trkpt>
      <trkpt lat="45.09687" lon="1.27662">
        <ele>181.1</ele>
        <time>2023-10-28T13:29:21Z</time>
      </trkpt>
      <trkpt lat="45.09685" lon="1.27661">
        <ele>181.1</ele>
        <time>2023-10-28T13:29:22Z</time>
      </trkpt>
      <trkpt lat="45.09683" lon="1.27661">
        <ele>181.2</ele>
        <time>2023-10-28T13:29:23Z</time>
      </trkpt>
      <trkpt lat="45.09681" lon="1.2766">
        <ele>181.3</ele>
        <time>2023-10-28T13:29:24Z</time>
      </trkpt>
      <trkpt lat="45.09679" lon="1.27659">
        <ele>181.4</ele>
        <time>2023-10-28T13:29:25Z</time>
      </trkpt>
      <trkpt lat="45.09677" lon="1.27658">
        <ele>181.5</ele>
        <time>2023-10-28T13:29:26Z</time>
      </trkpt>
      <trkpt lat="45.09676" lon="1.27656">
        <ele>181.6</ele>
        <time>2023-10-28T13:29:27Z</time>
      </trkpt>
      <trkpt lat="45.09675" lon="1.27655">
        <ele>181.6</ele>
        <time>2023-10-28T13:29:28Z</time>
      </trkpt>
      <trkpt lat="45.09673" lon="1.27653">
        <ele>181.7</ele>
        <time>2023-10-28T13:29:29Z</time>
      </trkpt>
      <trkpt lat="45.09672" lon="1.27651">
        <ele>181.8</ele>
        <time>2023-10-28T13:29:30Z</time>
      </trkpt>
      <trkpt lat="45.09671" lon="1.27649">
        <ele>181.9</ele>
        <time>2023-10-28T13:29:31Z</time>
      </trkpt>
      <trkpt lat="45.0967" lon="1.27647">
        <ele>182</ele>
        <time>2023-10-28T13:29:32Z</time>
      </trkpt>
      <trkpt lat="45.09668" lon="1.27645">
        <ele>182.1</ele>
        <time>2023-10-28T13:29:33Z</time>
      </trkpt>
      <trkpt lat="45.09668" lon="1.27643">
        <ele>182.2</ele>
        <time>2023-10-28T13:29:34Z</time>
      </trkpt>
      <trkpt lat="45.09666" lon="1.27641">
        <ele>182.3</ele>
        <time>2023-10-28T13:29:35Z</time>
      </trkpt>
      <trkpt lat="45.09665" lon="1.27639">
        <ele>182.4</ele>
        <time>2023-10-28T13:29:36Z</time>
      </trkpt>
      <trkpt lat="45.09664" lon="1.27637">
        <ele>182.6</ele>
        <time>2023-10-28T13:29:37Z</time>
      </trkpt>
      <trkpt lat="45.09663" lon="1.27635">
        <ele>182.7</ele>
        <time>2023-10-28T13:29:38Z</time>
      </trkpt>
      <trkpt lat="45.09662" lon="1.27633">
        <ele>182.8</ele>
        <time>2023-10-28T13:29:39Z</time>
      </trkpt>
      <trkpt lat="45.0966" lon="1.27631">
        <ele>182.9</ele>
        <time>2023-10-28T13:29:40Z</time>
      </trkpt>
      <trkpt lat="45.09659" lon="1.2763">
        <ele>183</ele>
        <time>2023-10-28T13:29:41Z</time>
      </trkpt>
      <trkpt lat="45.09658" lon="1.27628">
        <ele>183.2</ele>
        <time>2023-10-28T13:29:42Z</time>
      </trkpt>
      <trkpt lat="45.09657" lon="1.27626">
        <ele>183.3</ele>
        <time>2023-10-28T13:29:43Z</time>
      </trkpt>
      <trkpt lat="45.09656" lon="1.27624">
        <ele>183.4</ele>
        <time>2023-10-28T13:29:44Z</time>
      </trkpt>
      <trkpt lat="45.09655" lon="1.27622">
        <ele>183.6</ele>
        <time>2023-10-28T13:29:45Z</time>
      </trkpt>
      <trkpt lat="45.09654" lon="1.2762">
        <ele>183.7</ele>
        <time>2023-10-28T13:29:46Z</time>
      </trkpt>
      <trkpt lat="45.09653" lon="1.27618">
        <ele>183.9</ele>
        <time>2023-10-28T13:29:47Z</time>
      </trkpt>
      <trkpt lat="45.09652" lon="1.27616">
        <ele>184</ele>
        <time>2023-10-28T13:29:48Z</time>
      </trkpt>
      <trkpt lat="45.09651" lon="1.27614">
        <ele>184.1</ele>
        <time>2023-10-28T13:29:49Z</time>
      </trkpt>
      <trkpt lat="45.0965" lon="1.27612">
        <ele>184.3</ele>
        <time>2023-10-28T13:29:50Z</time>
      </trkpt>
      <trkpt lat="45.09649" lon="1.27611">
        <ele>184.4</ele>
        <time>2023-10-28T13:29:51Z</time>
      </trkpt>
      <trkpt lat="45.09648" lon="1.27609">
        <ele>184.5</ele>
        <time>2023-10-28T13:29:52Z</time>
      </trkpt>
      <trkpt lat="45.09647" lon="1.27607">
        <ele>184.7</ele>
        <time>2023-10-28T13:29:53Z</time>
      </trkpt>
      <trkpt lat="45.09646" lon="1.27605">
        <ele>184.8</ele>
        <time>2023-10-28T13:29:54Z</time>
      </trkpt>
      <trkpt lat="45.09645" lon="1.27604">
        <ele>184.9</ele>
        <time>2023-10-28T13:29:55Z</time>
      </trkpt>
      <trkpt lat="45.09644" lon="1.27602">
        <ele>185.1</ele>
        <time>2023-10-28T13:29:56Z</time>
      </trkpt>
      <trkpt lat="45.09643" lon="1.276">
        <ele>185.2</ele>
        <time>2023-10-28T13:29:57Z</time>
      </trkpt>
      <trkpt lat="45.09642" lon="1.27598">
        <ele>185.4</ele>
        <time>2023-10-28T13:29:58Z</time>
      </trkpt>
      <trkpt lat="45.09641" lon="1.27596">
        <ele>185.5</ele>
        <time>2023-10-28T13:29:59Z</time>
      </trkpt>
      <trkpt lat="45.09639" lon="1.27594">
        <ele>185.7</ele>
        <time>2023-10-28T13:30:00Z</time>
      </trkpt>
      <trkpt lat="45.09639" lon="1.27592">
        <ele>185.9</ele>
        <time>2023-10-28T13:30:01Z</time>
      </trkpt>
      <trkpt lat="45.09638" lon="1.2759">
        <ele>186</ele>
        <time>2023-10-28T13:30:02Z</time>
      </trkpt>
      <trkpt lat="45.09637" lon="1.27588">
        <ele>186.2</ele>
        <time>2023-10-28T13:30:03Z</time>
      </trkpt>
      <trkpt lat="45.09636" lon="1.27586">
        <ele>186.4</ele>
        <time>2023-10-28T13:30:04Z</time>
      </trkpt>
      <trkpt lat="45.09634" lon="1.27584">
        <ele>186.5</ele>
        <time>2023-10-28T13:30:05Z</time>
      </trkpt>
      <trkpt lat="45.09633" lon="1.27582">
        <ele>186.7</ele>
        <time>2023-10-28T13:30:06Z</time>
      </trkpt>
      <trkpt lat="45.09632" lon="1.2758">
        <ele>186.9</ele>
        <time>2023-10-28T13:30:07Z</time>
      </trkpt>
      <trkpt lat="45.09631" lon="1.27578">
        <ele>187</ele>
        <time>2023-10-28T13:30:08Z</time>
      </trkpt>
      <trkpt lat="45.09629" lon="1.27576">
        <ele>187.2</ele>
        <time>2023-10-28T13:30:09Z</time>
      </trkpt>
      <trkpt lat="45.09628" lon="1.27574">
        <ele>187.4</ele>
        <time>2023-10-28T13:30:10Z</time>
      </trkpt>
      <trkpt lat="45.09627" lon="1.27572">
        <ele>187.5</ele>
        <time>2023-10-28T13:30:11Z</time>
      </trkpt>
      <trkpt lat="45.09625" lon="1.2757">
        <ele>187.7</ele>
        <time>2023-10-28T13:30:12Z</time>
      </trkpt>
      <trkpt lat="45.09624" lon="1.27569">
        <ele>187.9</ele>
        <time>2023-10-28T13:30:13Z</time>
      </trkpt>
      <trkpt lat="45.09623" lon="1.27567">
        <ele>188</ele>
        <time>2023-10-28T13:30:14Z</time>
      </trkpt>
      <trkpt lat="45.09621" lon="1.27565">
        <ele>188.1</ele>
        <time>2023-10-28T13:30:15Z</time>
      </trkpt>
      <trkpt lat="45.0962" lon="1.27564">
        <ele>188.3</ele>
        <time>2023-10-28T13:30:16Z</time>
      </trkpt>
      <trkpt lat="45.09618" lon="1.27562">
        <ele>188.4</ele>
        <time>2023-10-28T13:30:17Z</time>
      </trkpt>
      <trkpt lat="45.09617" lon="1.2756">
        <ele>188.5</ele>
        <time>2023-10-28T13:30:18Z</time>
      </trkpt>
      <trkpt lat="45.09615" lon="1.27559">
        <ele>188.7</ele>
        <time>2023-10-28T13:30:19Z</time>
      </trkpt>
      <trkpt lat="45.09614" lon="1.27557">
        <ele>188.8</ele>
        <time>2023-10-28T13:30:20Z</time>
      </trkpt>
      <trkpt lat="45.09613" lon="1.27556">
        <ele>188.9</ele>
        <time>2023-10-28T13:30:21Z</time>
      </trkpt>
      <trkpt lat="45.09611" lon="1.27555">
        <ele>189.1</ele>
        <time>2023-10-28T13:30:22Z</time>
      </trkpt>
      <trkpt lat="45.09609" lon="1.27553">
        <ele>189.2</ele>
        <time>2023-10-28T13:30:23Z</time>
      </trkpt>
      <trkpt lat="45.09608" lon="1.27552">
        <ele>189.3</ele>
        <time>2023-10-28T13:30:24Z</time>
      </trkpt>
      <trkpt lat="45.09607" lon="1.27551">
        <ele>189.4</ele>
        <time>2023-10-28T13:30:25Z</time>
      </trkpt>
      <trkpt lat="45.09605" lon="1.2755">
        <ele>189.6</ele>
        <time>2023-10-28T13:30:26Z</time>
      </trkpt>
      <trkpt lat="45.09604" lon="1.27549">
        <ele>189.7</ele>
        <time>2023-10-28T13:30:27Z</time>
      </trkpt>
      <trkpt lat="45.09602" lon="1.27548">
        <ele>189.8</ele>
        <time>2023-10-28T13:30:28Z</time>
      </trkpt>
      <trkpt lat="45.096" lon="1.27546">
        <ele>189.9</ele>
        <time>2023-10-28T13:30:29Z</time>
      </trkpt>
      <trkpt lat="45.09598" lon="1.27545">
        <ele>190</ele>
        <time>2023-10-28T13:30:30Z</time>
      </trkpt>
      <trkpt lat="45.09596" lon="1.27544">
        <ele>190.1</ele>
        <time>2023-10-28T13:30:31Z</time>
      </trkpt>
      <trkpt lat="45.09594" lon="1.27544">
        <ele>190.2</ele>
        <time>2023-10-28T13:30:32Z</time>
      </trkpt>
      <trkpt lat="45.09592" lon="1.27543">
        <ele>190.3</ele>
        <time>2023-10-28T13:30:33Z</time>
      </trkpt>
      <trkpt lat="45.09591" lon="1.27542">
        <ele>190.4</ele>
        <time>2023-10-28T13:30:34Z</time>
      </trkpt>
      <trkpt lat="45.09589" lon="1.27541">
        <ele>190.5</ele>
        <time>2023-10-28T13:30:35Z</time>
      </trkpt>
      <trkpt lat="45.09587" lon="1.2754">
        <ele>190.6</ele>
        <time>2023-10-28T13:30:36Z</time>
      </trkpt>
      <trkpt lat="45.09585" lon="1.27539">
        <ele>190.7</ele>
        <time>2023-10-28T13:30:37Z</time>
      </trkpt>
      <trkpt lat="45.09583" lon="1.27538">
        <ele>190.8</ele>
        <time>2023-10-28T13:30:38Z</time>
      </trkpt>
      <trkpt lat="45.09581" lon="1.27538">
        <ele>190.9</ele>
        <time>2023-10-28T13:30:39Z</time>
      </trkpt>
      <trkpt lat="45.09579" lon="1.27537">
        <ele>191</ele>
        <time>2023-10-28T13:30:40Z</time>
      </trkpt>
      <trkpt lat="45.09577" lon="1.27536">
        <ele>191.1</ele>
        <time>2023-10-28T13:30:41Z</time>
      </trkpt>
      <trkpt lat="45.09575" lon="1.27535">
        <ele>191.2</ele>
        <time>2023-10-28T13:30:42Z</time>
      </trkpt>
      <trkpt lat="45.09573" lon="1.27535">
        <ele>191.3</ele>
        <time>2023-10-28T13:30:43Z</time>
      </trkpt>
      <trkpt lat="45.09572" lon="1.27534">
        <ele>191.4</ele>
        <time>2023-10-28T13:30:44Z</time>
      </trkpt>
      <trkpt lat="45.0957" lon="1.27534">
        <ele>191.5</ele>
        <time>2023-10-28T13:30:45Z</time>
      </trkpt>
      <trkpt lat="45.09568" lon="1.27533">
        <ele>191.5</ele>
        <time>2023-10-28T13:30:46Z</time>
      </trkpt>
      <trkpt lat="45.09566" lon="1.27533">
        <ele>191.6</ele>
        <time>2023-10-28T13:30:47Z</time>
      </trkpt>
      <trkpt lat="45.09564" lon="1.27532">
        <ele>191.7</ele>
        <time>2023-10-28T13:30:48Z</time>
      </trkpt>
      <trkpt lat="45.09562" lon="1.27532">
        <ele>191.8</ele>
        <time>2023-10-28T13:30:49Z</time>
      </trkpt>
      <trkpt lat="45.0956" lon="1.27532">
        <ele>191.9</ele>
        <time>2023-10-28T13:30:50Z</time>
      </trkpt>
      <trkpt lat="45.09559" lon="1.27532">
        <ele>192</ele>
        <time>2023-10-28T13:30:51Z</time>
      </trkpt>
      <trkpt lat="45.09557" lon="1.27532">
        <ele>192</ele>
        <time>2023-10-28T13:30:52Z</time>
      </trkpt>
      <trkpt lat="45.09555" lon="1.27532">
        <ele>192.1</ele>
        <time>2023-10-28T13:30:53Z</time>
      </trkpt>
      <trkpt lat="45.09552" lon="1.27532">
        <ele>192.2</ele>
        <time>2023-10-28T13:30:54Z</time>
      </trkpt>
      <trkpt lat="45.09551" lon="1.27532">
        <ele>192.2</ele>
        <time>2023-10-28T13:30:55Z</time>
      </trkpt>
      <trkpt lat="45.09549" lon="1.27533">
        <ele>192.3</ele>
        <time>2023-10-28T13:30:56Z</time>
      </trkpt>
      <trkpt lat="45.09546" lon="1.27533">
        <ele>192.4</ele>
        <time>2023-10-28T13:30:57Z</time>
      </trkpt>
      <trkpt lat="45.09544" lon="1.27533">
        <ele>192.4</ele>
        <time>2023-10-28T13:30:58Z</time>
      </trkpt>
      <trkpt lat="45.09543" lon="1.27533">
        <ele>192.5</ele>
        <time>2023-10-28T13:30:59Z</time>
      </trkpt>
      <trkpt lat="45.0954" lon="1.27533">
        <ele>192.6</ele>
        <time>2023-10-28T13:31:00Z</time>
      </trkpt>
      <trkpt lat="45.09538" lon="1.27533">
        <ele>192.6</ele>
        <time>2023-10-28T13:31:01Z</time>
      </trkpt>
      <trkpt lat="45.09536" lon="1.27533">
        <ele>192.7</ele>
        <time>2023-10-28T13:31:02Z</time>
      </trkpt>
      <trkpt lat="45.09535" lon="1.27532">
        <ele>192.7</ele>
        <time>2023-10-28T13:31:03Z</time>
      </trkpt>
      <trkpt lat="45.09533" lon="1.27532">
        <ele>192.7</ele>
        <time>2023-10-28T13:31:04Z</time>
      </trkpt>
      <trkpt lat="45.09531" lon="1.27532">
        <ele>192.8</ele>
        <time>2023-10-28T13:31:05Z</time>
      </trkpt>
      <trkpt lat="45.09528" lon="1.27532">
        <ele>192.8</ele>
        <time>2023-10-28T13:31:06Z</time>
      </trkpt>
      <trkpt lat="45.09526" lon="1.27531">
        <ele>192.9</ele>
        <time>2023-10-28T13:31:07Z</time>
      </trkpt>
      <trkpt lat="45.09525" lon="1.27531">
        <ele>192.9</ele>
        <time>2023-10-28T13:31:08Z</time>
      </trkpt>
      <trkpt lat="45.09522" lon="1.27531">
        <ele>192.9</ele>
        <time>2023-10-28T13:31:09Z</time>
      </trkpt>
      <trkpt lat="45.0952" lon="1.2753">
        <ele>193</ele>
        <time>2023-10-28T13:31:10Z</time>
      </trkpt>
      <trkpt lat="45.09518" lon="1.2753">
        <ele>193</ele>
        <time>2023-10-28T13:31:11Z</time>
      </trkpt>
      <trkpt lat="45.09516" lon="1.27529">
        <ele>193</ele>
        <time>2023-10-28T13:31:12Z</time>
      </trkpt>
      <trkpt lat="45.09514" lon="1.27529">
        <ele>193.1</ele>
        <time>2023-10-28T13:31:13Z</time>
      </trkpt>
      <trkpt lat="45.09511" lon="1.27528">
        <ele>193.1</ele>
        <time>2023-10-28T13:31:14Z</time>
      </trkpt>
      <trkpt lat="45.09509" lon="1.27528">
        <ele>193.1</ele>
        <time>2023-10-28T13:31:15Z</time>
      </trkpt>
      <trkpt lat="45.09507" lon="1.27527">
        <ele>193.1</ele>
        <time>2023-10-28T13:31:16Z</time>
      </trkpt>
      <trkpt lat="45.09504" lon="1.27526">
        <ele>193.2</ele>
        <time>2023-10-28T13:31:17Z</time>
      </trkpt>
      <trkpt lat="45.09502" lon="1.27526">
        <ele>193.2</ele>
        <time>2023-10-28T13:31:18Z</time>
      </trkpt>
      <trkpt lat="45.095" lon="1.27525">
        <ele>193.2</ele>
        <time>2023-10-28T13:31:19Z</time>
      </trkpt>
      <trkpt lat="45.09498" lon="1.27524">
        <ele>193.2</ele>
        <time>2023-10-28T13:31:20Z</time>
      </trkpt>
      <trkpt lat="45.09496" lon="1.27524">
        <ele>193.3</ele>
        <time>2023-10-28T13:31:21Z</time>
      </trkpt>
      <trkpt lat="45.09494" lon="1.27523">
        <ele>193.3</ele>
        <time>2023-10-28T13:31:22Z</time>
      </trkpt>
      <trkpt lat="45.09491" lon="1.27522">
        <ele>193.3</ele>
        <time>2023-10-28T13:31:23Z</time>
      </trkpt>
      <trkpt lat="45.09489" lon="1.27521">
        <ele>193.3</ele>
        <time>2023-10-28T13:31:24Z</time>
      </trkpt>
      <trkpt lat="45.09488" lon="1.2752">
        <ele>193.3</ele>
        <time>2023-10-28T13:31:25Z</time>
      </trkpt>
      <trkpt lat="45.09486" lon="1.27518">
        <ele>193.3</ele>
        <time>2023-10-28T13:31:26Z</time>
      </trkpt>
      <trkpt lat="45.09484" lon="1.27517">
        <ele>193.4</ele>
        <time>2023-10-28T13:31:27Z</time>
      </trkpt>
      <trkpt lat="45.09482" lon="1.27515">
        <ele>193.4</ele>
        <time>2023-10-28T13:31:28Z</time>
      </trkpt>
      <trkpt lat="45.0948" lon="1.27513">
        <ele>193.4</ele>
        <time>2023-10-28T13:31:29Z</time>
      </trkpt>
      <trkpt lat="45.09478" lon="1.27511">
        <ele>193.4</ele>
        <time>2023-10-28T13:31:30Z</time>
      </trkpt>
      <trkpt lat="45.09477" lon="1.27509">
        <ele>193.4</ele>
        <time>2023-10-28T13:31:31Z</time>
      </trkpt>
      <trkpt lat="45.09475" lon="1.27506">
        <ele>193.3</ele>
        <time>2023-10-28T13:31:32Z</time>
      </trkpt>
      <trkpt lat="45.09473" lon="1.27504">
        <ele>193.3</ele>
        <time>2023-10-28T13:31:33Z</time>
      </trkpt>
      <trkpt lat="45.09472" lon="1.27501">
        <ele>193.2</ele>
        <time>2023-10-28T13:31:34Z</time>
      </trkpt>
      <trkpt lat="45.0947" lon="1.27498">
        <ele>193.2</ele>
        <time>2023-10-28T13:31:35Z</time>
      </trkpt>
      <trkpt lat="45.09468" lon="1.27496">
        <ele>193.1</ele>
        <time>2023-10-28T13:31:36Z</time>
      </trkpt>
      <trkpt lat="45.09466" lon="1.27493">
        <ele>193</ele>
        <time>2023-10-28T13:31:37Z</time>
      </trkpt>
      <trkpt lat="45.09464" lon="1.2749">
        <ele>193</ele>
        <time>2023-10-28T13:31:38Z</time>
      </trkpt>
      <trkpt lat="45.09462" lon="1.27488">
        <ele>192.9</ele>
        <time>2023-10-28T13:31:39Z</time>
      </trkpt>
      <trkpt lat="45.0946" lon="1.27486">
        <ele>192.8</ele>
        <time>2023-10-28T13:31:40Z</time>
      </trkpt>
      <trkpt lat="45.09458" lon="1.27484">
        <ele>192.7</ele>
        <time>2023-10-28T13:31:41Z</time>
      </trkpt>
      <trkpt lat="45.09456" lon="1.27482">
        <ele>192.7</ele>
        <time>2023-10-28T13:31:42Z</time>
      </trkpt>
      <trkpt lat="45.09454" lon="1.2748">
        <ele>192.6</ele>
        <time>2023-10-28T13:31:43Z</time>
      </trkpt>
      <trkpt lat="45.09451" lon="1.27478">
        <ele>192.5</ele>
        <time>2023-10-28T13:31:44Z</time>
      </trkpt>
      <trkpt lat="45.09449" lon="1.27476">
        <ele>192.5</ele>
        <time>2023-10-28T13:31:45Z</time>
      </trkpt>
      <trkpt lat="45.09447" lon="1.27475">
        <ele>192.4</ele>
        <time>2023-10-28T13:31:46Z</time>
      </trkpt>
      <trkpt lat="45.09444" lon="1.27474">
        <ele>192.4</ele>
        <time>2023-10-28T13:31:47Z</time>
      </trkpt>
      <trkpt lat="45.09443" lon="1.27472">
        <ele>192.3</ele>
        <time>2023-10-28T13:31:48Z</time>
      </trkpt>
      <trkpt lat="45.0944" lon="1.27471">
        <ele>192.3</ele>
        <time>2023-10-28T13:31:49Z</time>
      </trkpt>
      <trkpt lat="45.09438" lon="1.27469">
        <ele>192.2</ele>
        <time>2023-10-28T13:31:50Z</time>
      </trkpt>
      <trkpt lat="45.09436" lon="1.27468">
        <ele>192.2</ele>
        <time>2023-10-28T13:31:51Z</time>
      </trkpt>
      <trkpt lat="45.09434" lon="1.27466">
        <ele>192.1</ele>
        <time>2023-10-28T13:31:52Z</time>
      </trkpt>
      <trkpt lat="45.09432" lon="1.27464">
        <ele>192</ele>
        <time>2023-10-28T13:31:53Z</time>
      </trkpt>
      <trkpt lat="45.0943" lon="1.27462">
        <ele>192</ele>
        <time>2023-10-28T13:31:54Z</time>
      </trkpt>
      <trkpt lat="45.09428" lon="1.2746">
        <ele>191.9</ele>
        <time>2023-10-28T13:31:55Z</time>
      </trkpt>
      <trkpt lat="45.09426" lon="1.27458">
        <ele>191.8</ele>
        <time>2023-10-28T13:31:56Z</time>
      </trkpt>
      <trkpt lat="45.09425" lon="1.27456">
        <ele>191.8</ele>
        <time>2023-10-28T13:31:57Z</time>
      </trkpt>
      <trkpt lat="45.09423" lon="1.27454">
        <ele>191.7</ele>
        <time>2023-10-28T13:31:58Z</time>
      </trkpt>
      <trkpt lat="45.09421" lon="1.27451">
        <ele>191.6</ele>
        <time>2023-10-28T13:31:59Z</time>
      </trkpt>
      <trkpt lat="45.09419" lon="1.27449">
        <ele>191.6</ele>
        <time>2023-10-28T13:32:00Z</time>
      </trkpt>
      <trkpt lat="45.09418" lon="1.27446">
        <ele>191.5</ele>
        <time>2023-10-28T13:32:01Z</time>
      </trkpt>
      <trkpt lat="45.09416" lon="1.27443">
        <ele>191.4</ele>
        <time>2023-10-28T13:32:02Z</time>
      </trkpt>
      <trkpt lat="45.09414" lon="1.2744">
        <ele>191.3</ele>
        <time>2023-10-28T13:32:03Z</time>
      </trkpt>
      <trkpt lat="45.09413" lon="1.27437">
        <ele>191.3</ele>
        <time>2023-10-28T13:32:04Z</time>
      </trkpt>
      <trkpt lat="45.09411" lon="1.27435">
        <ele>191.2</ele>
        <time>2023-10-28T13:32:05Z</time>
      </trkpt>
      <trkpt lat="45.09409" lon="1.27432">
        <ele>191.1</ele>
        <time>2023-10-28T13:32:06Z</time>
      </trkpt>
      <trkpt lat="45.09407" lon="1.27429">
        <ele>191</ele>
        <time>2023-10-28T13:32:07Z</time>
      </trkpt>
      <trkpt lat="45.09406" lon="1.27426">
        <ele>190.8</ele>
        <time>2023-10-28T13:32:08Z</time>
      </trkpt>
      <trkpt lat="45.09404" lon="1.27423">
        <ele>190.7</ele>
        <time>2023-10-28T13:32:09Z</time>
      </trkpt>
      <trkpt lat="45.09403" lon="1.2742">
        <ele>190.6</ele>
        <time>2023-10-28T13:32:10Z</time>
      </trkpt>
      <trkpt lat="45.09401" lon="1.27418">
        <ele>190.5</ele>
        <time>2023-10-28T13:32:11Z</time>
      </trkpt>
      <trkpt lat="45.09399" lon="1.27415">
        <ele>190.3</ele>
        <time>2023-10-28T13:32:12Z</time>
      </trkpt>
      <trkpt lat="45.09398" lon="1.27412">
        <ele>190.2</ele>
        <time>2023-10-28T13:32:13Z</time>
      </trkpt>
      <trkpt lat="45.09396" lon="1.27409">
        <ele>190</ele>
        <time>2023-10-28T13:32:14Z</time>
      </trkpt>
      <trkpt lat="45.09394" lon="1.27406">
        <ele>189.9</ele>
        <time>2023-10-28T13:32:15Z</time>
      </trkpt>
      <trkpt lat="45.09392" lon="1.27403">
        <ele>189.7</ele>
        <time>2023-10-28T13:32:16Z</time>
      </trkpt>
      <trkpt lat="45.0939" lon="1.274">
        <ele>189.6</ele>
        <time>2023-10-28T13:32:17Z</time>
      </trkpt>
      <trkpt lat="45.09388" lon="1.27397">
        <ele>189.4</ele>
        <time>2023-10-28T13:32:18Z</time>
      </trkpt>
      <trkpt lat="45.09386" lon="1.27394">
        <ele>189.3</ele>
        <time>2023-10-28T13:32:19Z</time>
      </trkpt>
      <trkpt lat="45.09384" lon="1.27392">
        <ele>189.1</ele>
        <time>2023-10-28T13:32:20Z</time>
      </trkpt>
      <trkpt lat="45.09382" lon="1.27389">
        <ele>189</ele>
        <time>2023-10-28T13:32:21Z</time>
      </trkpt>
      <trkpt lat="45.0938" lon="1.27386">
        <ele>188.8</ele>
        <time>2023-10-28T13:32:22Z</time>
      </trkpt>
      <trkpt lat="45.09378" lon="1.27384">
        <ele>188.7</ele>
        <time>2023-10-28T13:32:23Z</time>
      </trkpt>
      <trkpt lat="45.09376" lon="1.27381">
        <ele>188.5</ele>
        <time>2023-10-28T13:32:24Z</time>
      </trkpt>
      <trkpt lat="45.09374" lon="1.27378">
        <ele>188.4</ele>
        <time>2023-10-28T13:32:25Z</time>
      </trkpt>
      <trkpt lat="45.09373" lon="1.27375">
        <ele>188.3</ele>
        <time>2023-10-28T13:32:26Z</time>
      </trkpt>
      <trkpt lat="45.09371" lon="1.27373">
        <ele>188.2</ele>
        <time>2023-10-28T13:32:27Z</time>
      </trkpt>
      <trkpt lat="45.09369" lon="1.2737">
        <ele>188.1</ele>
        <time>2023-10-28T13:32:28Z</time>
      </trkpt>
      <trkpt lat="45.09367" lon="1.27367">
        <ele>188</ele>
        <time>2023-10-28T13:32:29Z</time>
      </trkpt>
      <trkpt lat="45.09365" lon="1.27364">
        <ele>187.9</ele>
        <time>2023-10-28T13:32:30Z</time>
      </trkpt>
      <trkpt lat="45.09363" lon="1.27361">
        <ele>187.8</ele>
        <time>2023-10-28T13:32:31Z</time>
      </trkpt>
      <trkpt lat="45.09361" lon="1.27359">
        <ele>187.7</ele>
        <time>2023-10-28T13:32:32Z</time>
      </trkpt>
      <trkpt lat="45.0936" lon="1.27356">
        <ele>187.5</ele>
        <time>2023-10-28T13:32:33Z</time>
      </trkpt>
      <trkpt lat="45.09358" lon="1.27353">
        <ele>187.4</ele>
        <time>2023-10-28T13:32:34Z</time>
      </trkpt>
      <trkpt lat="45.09356" lon="1.2735">
        <ele>187.3</ele>
        <time>2023-10-28T13:32:35Z</time>
      </trkpt>
      <trkpt lat="45.09355" lon="1.27346">
        <ele>187.2</ele>
        <time>2023-10-28T13:32:36Z</time>
      </trkpt>
      <trkpt lat="45.09353" lon="1.27343">
        <ele>187</ele>
        <time>2023-10-28T13:32:37Z</time>
      </trkpt>
      <trkpt lat="45.09351" lon="1.27341">
        <ele>186.9</ele>
        <time>2023-10-28T13:32:38Z</time>
      </trkpt>
      <trkpt lat="45.0935" lon="1.27338">
        <ele>186.7</ele>
        <time>2023-10-28T13:32:39Z</time>
      </trkpt>
      <trkpt lat="45.09348" lon="1.27335">
        <ele>186.6</ele>
        <time>2023-10-28T13:32:40Z</time>
      </trkpt>
      <trkpt lat="45.09346" lon="1.27332">
        <ele>186.4</ele>
        <time>2023-10-28T13:32:41Z</time>
      </trkpt>
      <trkpt lat="45.09344" lon="1.2733">
        <ele>186.2</ele>
        <time>2023-10-28T13:32:42Z</time>
      </trkpt>
      <trkpt lat="45.09341" lon="1.27327">
        <ele>186.1</ele>
        <time>2023-10-28T13:32:43Z</time>
      </trkpt>
      <trkpt lat="45.09339" lon="1.27325">
        <ele>185.9</ele>
        <time>2023-10-28T13:32:44Z</time>
      </trkpt>
      <trkpt lat="45.09337" lon="1.27323">
        <ele>185.7</ele>
        <time>2023-10-28T13:32:45Z</time>
      </trkpt>
      <trkpt lat="45.09335" lon="1.27321">
        <ele>185.5</ele>
        <time>2023-10-28T13:32:46Z</time>
      </trkpt>
      <trkpt lat="45.09332" lon="1.27319">
        <ele>185.3</ele>
        <time>2023-10-28T13:32:47Z</time>
      </trkpt>
      <trkpt lat="45.0933" lon="1.27317">
        <ele>185.1</ele>
        <time>2023-10-28T13:32:48Z</time>
      </trkpt>
      <trkpt lat="45.09328" lon="1.27315">
        <ele>185</ele>
        <time>2023-10-28T13:32:49Z</time>
      </trkpt>
      <trkpt lat="45.09326" lon="1.27314">
        <ele>184.8</ele>
        <time>2023-10-28T13:32:50Z</time>
      </trkpt>
      <trkpt lat="45.09324" lon="1.27312">
        <ele>184.7</ele>
        <time>2023-10-28T13:32:51Z</time>
      </trkpt>
      <trkpt lat="45.09322" lon="1.2731">
        <ele>184.5</ele>
        <time>2023-10-28T13:32:52Z</time>
      </trkpt>
      <trkpt lat="45.09319" lon="1.27309">
        <ele>184.4</ele>
        <time>2023-10-28T13:32:53Z</time>
      </trkpt>
      <trkpt lat="45.09317" lon="1.27308">
        <ele>184.3</ele>
        <time>2023-10-28T13:32:54Z</time>
      </trkpt>
      <trkpt lat="45.09315" lon="1.27307">
        <ele>184.1</ele>
        <time>2023-10-28T13:32:55Z</time>
      </trkpt>
      <trkpt lat="45.09312" lon="1.27306">
        <ele>184</ele>
        <time>2023-10-28T13:32:56Z</time>
      </trkpt>
      <trkpt lat="45.09309" lon="1.27305">
        <ele>183.9</ele>
        <time>2023-10-28T13:32:57Z</time>
      </trkpt>
      <trkpt lat="45.09307" lon="1.27304">
        <ele>183.9</ele>
        <time>2023-10-28T13:32:58Z</time>
      </trkpt>
      <trkpt lat="45.09304" lon="1.27303">
        <ele>183.9</ele>
        <time>2023-10-28T13:32:59Z</time>
      </trkpt>
      <trkpt lat="45.09301" lon="1.27303">
        <ele>183.9</ele>
        <time>2023-10-28T13:33:00Z</time>
      </trkpt>
      <trkpt lat="45.09298" lon="1.27302">
        <ele>183.8</ele>
        <time>2023-10-28T13:33:01Z</time>
      </trkpt>
      <trkpt lat="45.09295" lon="1.27301">
        <ele>183.8</ele>
        <time>2023-10-28T13:33:02Z</time>
      </trkpt>
      <trkpt lat="45.09292" lon="1.27301">
        <ele>183.7</ele>
        <time>2023-10-28T13:33:03Z</time>
      </trkpt>
      <trkpt lat="45.09289" lon="1.27301">
        <ele>183.6</ele>
        <time>2023-10-28T13:33:04Z</time>
      </trkpt>
      <trkpt lat="45.09286" lon="1.27301">
        <ele>183.5</ele>
        <time>2023-10-28T13:33:05Z</time>
      </trkpt>
      <trkpt lat="45.09283" lon="1.27301">
        <ele>183.4</ele>
        <time>2023-10-28T13:33:06Z</time>
      </trkpt>
      <trkpt lat="45.0928" lon="1.27302">
        <ele>183.3</ele>
        <time>2023-10-28T13:33:07Z</time>
      </trkpt>
      <trkpt lat="45.09277" lon="1.27303">
        <ele>183.2</ele>
        <time>2023-10-28T13:33:08Z</time>
      </trkpt>
      <trkpt lat="45.09274" lon="1.27304">
        <ele>183.1</ele>
        <time>2023-10-28T13:33:09Z</time>
      </trkpt>
      <trkpt lat="45.09271" lon="1.27305">
        <ele>183</ele>
        <time>2023-10-28T13:33:10Z</time>
      </trkpt>
      <trkpt lat="45.09269" lon="1.27306">
        <ele>182.8</ele>
        <time>2023-10-28T13:33:11Z</time>
      </trkpt>
      <trkpt lat="45.09266" lon="1.27308">
        <ele>182.7</ele>
        <time>2023-10-28T13:33:12Z</time>
      </trkpt>
      <trkpt lat="45.09263" lon="1.2731">
        <ele>182.6</ele>
        <time>2023-10-28T13:33:13Z</time>
      </trkpt>
      <trkpt lat="45.0926" lon="1.27312">
        <ele>182.4</ele>
        <time>2023-10-28T13:33:14Z</time>
      </trkpt>
      <trkpt lat="45.09257" lon="1.27315">
        <ele>182.2</ele>
        <time>2023-10-28T13:33:15Z</time>
      </trkpt>
      <trkpt lat="45.09254" lon="1.27317">
        <ele>182.1</ele>
        <time>2023-10-28T13:33:16Z</time>
      </trkpt>
      <trkpt lat="45.09251" lon="1.2732">
        <ele>181.9</ele>
        <time>2023-10-28T13:33:17Z</time>
      </trkpt>
      <trkpt lat="45.09248" lon="1.27323">
        <ele>181.8</ele>
        <time>2023-10-28T13:33:18Z</time>
      </trkpt>
      <trkpt lat="45.09246" lon="1.27326">
        <ele>181.6</ele>
        <time>2023-10-28T13:33:19Z</time>
      </trkpt>
      <trkpt lat="45.09243" lon="1.27328">
        <ele>181.4</ele>
        <time>2023-10-28T13:33:20Z</time>
      </trkpt>
      <trkpt lat="45.09241" lon="1.27331">
        <ele>181.3</ele>
        <time>2023-10-28T13:33:21Z</time>
      </trkpt>
      <trkpt lat="45.09238" lon="1.27334">
        <ele>181.1</ele>
        <time>2023-10-28T13:33:22Z</time>
      </trkpt>
      <trkpt lat="45.09236" lon="1.27337">
        <ele>180.9</ele>
        <time>2023-10-28T13:33:23Z</time>
      </trkpt>
      <trkpt lat="45.09234" lon="1.2734">
        <ele>180.7</ele>
        <time>2023-10-28T13:33:24Z</time>
      </trkpt>
      <trkpt lat="45.09231" lon="1.27343">
        <ele>180.5</ele>
        <time>2023-10-28T13:33:25Z</time>
      </trkpt>
      <trkpt lat="45.09229" lon="1.27346">
        <ele>180.4</ele>
        <time>2023-10-28T13:33:26Z</time>
      </trkpt>
      <trkpt lat="45.09226" lon="1.27349">
        <ele>180.2</ele>
        <time>2023-10-28T13:33:27Z</time>
      </trkpt>
      <trkpt lat="45.09224" lon="1.27352">
        <ele>180.1</ele>
        <time>2023-10-28T13:33:28Z</time>
      </trkpt>
      <trkpt lat="45.09221" lon="1.27355">
        <ele>180</ele>
        <time>2023-10-28T13:33:29Z</time>
      </trkpt>
      <trkpt lat="45.09219" lon="1.27358">
        <ele>179.9</ele>
        <time>2023-10-28T13:33:30Z</time>
      </trkpt>
      <trkpt lat="45.09216" lon="1.27361">
        <ele>179.8</ele>
        <time>2023-10-28T13:33:31Z</time>
      </trkpt>
      <trkpt lat="45.09213" lon="1.27363">
        <ele>179.7</ele>
        <time>2023-10-28T13:33:32Z</time>
      </trkpt>
      <trkpt lat="45.0921" lon="1.27366">
        <ele>179.5</ele>
        <time>2023-10-28T13:33:33Z</time>
      </trkpt>
      <trkpt lat="45.09208" lon="1.27368">
        <ele>179.4</ele>
        <time>2023-10-28T13:33:34Z</time>
      </trkpt>
      <trkpt lat="45.09205" lon="1.27369">
        <ele>179.3</ele>
        <time>2023-10-28T13:33:35Z</time>
      </trkpt>
      <trkpt lat="45.09201" lon="1.27371">
        <ele>179.2</ele>
        <time>2023-10-28T13:33:36Z</time>
      </trkpt>
      <trkpt lat="45.09198" lon="1.27371">
        <ele>179.1</ele>
        <time>2023-10-28T13:33:37Z</time>
      </trkpt>
      <trkpt lat="45.09195" lon="1.27372">
        <ele>179</ele>
        <time>2023-10-28T13:33:38Z</time>
      </trkpt>
      <trkpt lat="45.09192" lon="1.27372">
        <ele>178.8</ele>
        <time>2023-10-28T13:33:39Z</time>
      </trkpt>
      <trkpt lat="45.09189" lon="1.27372">
        <ele>178.7</ele>
        <time>2023-10-28T13:33:40Z</time>
      </trkpt>
      <trkpt lat="45.09186" lon="1.27371">
        <ele>178.6</ele>
        <time>2023-10-28T13:33:41Z</time>
      </trkpt>
      <trkpt lat="45.09184" lon="1.2737">
        <ele>178.4</ele>
        <time>2023-10-28T13:33:42Z</time>
      </trkpt>
      <trkpt lat="45.0918" lon="1.27369">
        <ele>178.3</ele>
        <time>2023-10-28T13:33:43Z</time>
      </trkpt>
      <trkpt lat="45.09178" lon="1.27368">
        <ele>178.1</ele>
        <time>2023-10-28T13:33:44Z</time>
      </trkpt>
      <trkpt lat="45.09175" lon="1.27367">
        <ele>178</ele>
        <time>2023-10-28T13:33:45Z</time>
      </trkpt>
      <trkpt lat="45.09172" lon="1.27366">
        <ele>177.7</ele>
        <time>2023-10-28T13:33:46Z</time>
      </trkpt>
      <trkpt lat="45.0917" lon="1.27365">
        <ele>177.2</ele>
        <time>2023-10-28T13:33:47Z</time>
      </trkpt>
      <trkpt lat="45.09167" lon="1.27364">
        <ele>176.7</ele>
        <time>2023-10-28T13:33:48Z</time>
      </trkpt>
      <trkpt lat="45.09164" lon="1.27364">
        <ele>176.2</ele>
        <time>2023-10-28T13:33:49Z</time>
      </trkpt>
      <trkpt lat="45.09161" lon="1.27363">
        <ele>175.7</ele>
        <time>2023-10-28T13:33:50Z</time>
      </trkpt>
      <trkpt lat="45.09158" lon="1.27362">
        <ele>175.3</ele>
        <time>2023-10-28T13:33:51Z</time>
      </trkpt>
      <trkpt lat="45.09155" lon="1.27362">
        <ele>174.8</ele>
        <time>2023-10-28T13:33:52Z</time>
      </trkpt>
      <trkpt lat="45.09152" lon="1.27361">
        <ele>174.4</ele>
        <time>2023-10-28T13:33:53Z</time>
      </trkpt>
      <trkpt lat="45.09148" lon="1.27361">
        <ele>173.9</ele>
        <time>2023-10-28T13:33:54Z</time>
      </trkpt>
      <trkpt lat="45.09145" lon="1.2736">
        <ele>173.5</ele>
        <time>2023-10-28T13:33:55Z</time>
      </trkpt>
      <trkpt lat="45.09142" lon="1.27359">
        <ele>173.1</ele>
        <time>2023-10-28T13:33:56Z</time>
      </trkpt>
      <trkpt lat="45.09139" lon="1.27358">
        <ele>172.7</ele>
        <time>2023-10-28T13:33:57Z</time>
      </trkpt>
      <trkpt lat="45.09136" lon="1.27357">
        <ele>172.3</ele>
        <time>2023-10-28T13:33:58Z</time>
      </trkpt>
      <trkpt lat="45.09133" lon="1.27356">
        <ele>171.9</ele>
        <time>2023-10-28T13:33:59Z</time>
      </trkpt>
      <trkpt lat="45.0913" lon="1.27355">
        <ele>171.5</ele>
        <time>2023-10-28T13:34:00Z</time>
      </trkpt>
      <trkpt lat="45.09127" lon="1.27354">
        <ele>171.2</ele>
        <time>2023-10-28T13:34:01Z</time>
      </trkpt>
      <trkpt lat="45.09124" lon="1.27353">
        <ele>170.8</ele>
        <time>2023-10-28T13:34:02Z</time>
      </trkpt>
      <trkpt lat="45.09121" lon="1.27352">
        <ele>170.5</ele>
        <time>2023-10-28T13:34:03Z</time>
      </trkpt>
      <trkpt lat="45.09118" lon="1.2735">
        <ele>170.1</ele>
        <time>2023-10-28T13:34:04Z</time>
      </trkpt>
      <trkpt lat="45.09115" lon="1.27349">
        <ele>169.8</ele>
        <time>2023-10-28T13:34:05Z</time>
      </trkpt>
      <trkpt lat="45.09112" lon="1.27348">
        <ele>169.5</ele>
        <time>2023-10-28T13:34:06Z</time>
      </trkpt>
      <trkpt lat="45.09109" lon="1.27347">
        <ele>169.1</ele>
        <time>2023-10-28T13:34:07Z</time>
      </trkpt>
      <trkpt lat="45.09106" lon="1.27345">
        <ele>168.7</ele>
        <time>2023-10-28T13:34:08Z</time>
      </trkpt>
      <trkpt lat="45.09103" lon="1.27344">
        <ele>168.4</ele>
        <time>2023-10-28T13:34:09Z</time>
      </trkpt>
      <trkpt lat="45.091" lon="1.27343">
        <ele>168</ele>
        <time>2023-10-28T13:34:10Z</time>
      </trkpt>
      <trkpt lat="45.09097" lon="1.27342">
        <ele>167.6</ele>
        <time>2023-10-28T13:34:11Z</time>
      </trkpt>
      <trkpt lat="45.09094" lon="1.27341">
        <ele>167.2</ele>
        <time>2023-10-28T13:34:12Z</time>
      </trkpt>
      <trkpt lat="45.09091" lon="1.2734">
        <ele>166.8</ele>
        <time>2023-10-28T13:34:13Z</time>
      </trkpt>
      <trkpt lat="45.09088" lon="1.27339">
        <ele>166.4</ele>
        <time>2023-10-28T13:34:14Z</time>
      </trkpt>
      <trkpt lat="45.09085" lon="1.27338">
        <ele>166</ele>
        <time>2023-10-28T13:34:15Z</time>
      </trkpt>
      <trkpt lat="45.09082" lon="1.27337">
        <ele>165.6</ele>
        <time>2023-10-28T13:34:16Z</time>
      </trkpt>
      <trkpt lat="45.09078" lon="1.27336">
        <ele>165.2</ele>
        <time>2023-10-28T13:34:17Z</time>
      </trkpt>
      <trkpt lat="45.09075" lon="1.27335">
        <ele>164.8</ele>
        <time>2023-10-28T13:34:18Z</time>
      </trkpt>
      <trkpt lat="45.09072" lon="1.27334">
        <ele>164.4</ele>
        <time>2023-10-28T13:34:19Z</time>
      </trkpt>
      <trkpt lat="45.09069" lon="1.27333">
        <ele>164</ele>
        <time>2023-10-28T13:34:20Z</time>
      </trkpt>
      <trkpt lat="45.09066" lon="1.27333">
        <ele>163.6</ele>
        <time>2023-10-28T13:34:21Z</time>
      </trkpt>
      <trkpt lat="45.09063" lon="1.27332">
        <ele>163.2</ele>
        <time>2023-10-28T13:34:22Z</time>
      </trkpt>
      <trkpt lat="45.0906" lon="1.27331">
        <ele>162.8</ele>
        <time>2023-10-28T13:34:23Z</time>
      </trkpt>
      <trkpt lat="45.09057" lon="1.2733">
        <ele>162.4</ele>
        <time>2023-10-28T13:34:24Z</time>
      </trkpt>
      <trkpt lat="45.09053" lon="1.27329">
        <ele>162</ele>
        <time>2023-10-28T13:34:25Z</time>
      </trkpt>
      <trkpt lat="45.0905" lon="1.27327">
        <ele>161.5</ele>
        <time>2023-10-28T13:34:26Z</time>
      </trkpt>
      <trkpt lat="45.09047" lon="1.27326">
        <ele>161.1</ele>
        <time>2023-10-28T13:34:27Z</time>
      </trkpt>
      <trkpt lat="45.09044" lon="1.27324">
        <ele>160.6</ele>
        <time>2023-10-28T13:34:28Z</time>
      </trkpt>
      <trkpt lat="45.09041" lon="1.27323">
        <ele>160.2</ele>
        <time>2023-10-28T13:34:29Z</time>
      </trkpt>
      <trkpt lat="45.09038" lon="1.27321">
        <ele>159.7</ele>
        <time>2023-10-28T13:34:30Z</time>
      </trkpt>
      <trkpt lat="45.09034" lon="1.2732">
        <ele>159.2</ele>
        <time>2023-10-28T13:34:31Z</time>
      </trkpt>
      <trkpt lat="45.09031" lon="1.27318">
        <ele>158.7</ele>
        <time>2023-10-28T13:34:32Z</time>
      </trkpt>
      <trkpt lat="45.09028" lon="1.27317">
        <ele>158.2</ele>
        <time>2023-10-28T13:34:33Z</time>
      </trkpt>
      <trkpt lat="45.09025" lon="1.27315">
        <ele>157.7</ele>
        <time>2023-10-28T13:34:34Z</time>
      </trkpt>
      <trkpt lat="45.09022" lon="1.27313">
        <ele>157.2</ele>
        <time>2023-10-28T13:34:35Z</time>
      </trkpt>
      <trkpt lat="45.09019" lon="1.27311">
        <ele>156.7</ele>
        <time>2023-10-28T13:34:36Z</time>
      </trkpt>
      <trkpt lat="45.09016" lon="1.27309">
        <ele>156.2</ele>
        <time>2023-10-28T13:34:37Z</time>
      </trkpt>
      <trkpt lat="45.09014" lon="1.27307">
        <ele>155.7</ele>
        <time>2023-10-28T13:34:38Z</time>
      </trkpt>
      <trkpt lat="45.09011" lon="1.27304">
        <ele>155.1</ele>
        <time>2023-10-28T13:34:39Z</time>
      </trkpt>
      <trkpt lat="45.09009" lon="1.27301">
        <ele>154.6</ele>
        <time>2023-10-28T13:34:40Z</time>
      </trkpt>
      <trkpt lat="45.09007" lon="1.27297">
        <ele>154.1</ele>
        <time>2023-10-28T13:34:41Z</time>
      </trkpt>
      <trkpt lat="45.09005" lon="1.27294">
        <ele>153.6</ele>
        <time>2023-10-28T13:34:42Z</time>
      </trkpt>
      <trkpt lat="45.09004" lon="1.2729">
        <ele>153</ele>
        <time>2023-10-28T13:34:43Z</time>
      </trkpt>
      <trkpt lat="45.09003" lon="1.27286">
        <ele>152.5</ele>
        <time>2023-10-28T13:34:44Z</time>
      </trkpt>
      <trkpt lat="45.09003" lon="1.27282">
        <ele>152</ele>
        <time>2023-10-28T13:34:45Z</time>
      </trkpt>
      <trkpt lat="45.09003" lon="1.27278">
        <ele>151.4</ele>
        <time>2023-10-28T13:34:46Z</time>
      </trkpt>
      <trkpt lat="45.09004" lon="1.27273">
        <ele>150.8</ele>
        <time>2023-10-28T13:34:47Z</time>
      </trkpt>
      <trkpt lat="45.09005" lon="1.27269">
        <ele>150.3</ele>
        <time>2023-10-28T13:34:48Z</time>
      </trkpt>
      <trkpt lat="45.09005" lon="1.27264">
        <ele>149.7</ele>
        <time>2023-10-28T13:34:49Z</time>
      </trkpt>
      <trkpt lat="45.09006" lon="1.2726">
        <ele>149.2</ele>
        <time>2023-10-28T13:34:50Z</time>
      </trkpt>
      <trkpt lat="45.09006" lon="1.27255">
        <ele>148.6</ele>
        <time>2023-10-28T13:34:51Z</time>
      </trkpt>
      <trkpt lat="45.09006" lon="1.27251">
        <ele>148.1</ele>
        <time>2023-10-28T13:34:52Z</time>
      </trkpt>
      <trkpt lat="45.09006" lon="1.27247">
        <ele>147.6</ele>
        <time>2023-10-28T13:34:53Z</time>
      </trkpt>
      <trkpt lat="45.09006" lon="1.27242">
        <ele>147</ele>
        <time>2023-10-28T13:34:54Z</time>
      </trkpt>
      <trkpt lat="45.09005" lon="1.27238">
        <ele>146.5</ele>
        <time>2023-10-28T13:34:55Z</time>
      </trkpt>
      <trkpt lat="45.09004" lon="1.27234">
        <ele>146</ele>
        <time>2023-10-28T13:34:56Z</time>
      </trkpt>
      <trkpt lat="45.09002" lon="1.27231">
        <ele>145.5</ele>
        <time>2023-10-28T13:34:57Z</time>
      </trkpt>
      <trkpt lat="45.09001" lon="1.27227">
        <ele>144.9</ele>
        <time>2023-10-28T13:34:58Z</time>
      </trkpt>
      <trkpt lat="45.08999" lon="1.27223">
        <ele>144.4</ele>
        <time>2023-10-28T13:34:59Z</time>
      </trkpt>
      <trkpt lat="45.08997" lon="1.2722">
        <ele>143.8</ele>
        <time>2023-10-28T13:35:00Z</time>
      </trkpt>
      <trkpt lat="45.08995" lon="1.27217">
        <ele>143.2</ele>
        <time>2023-10-28T13:35:01Z</time>
      </trkpt>
      <trkpt lat="45.08993" lon="1.27213">
        <ele>142.7</ele>
        <time>2023-10-28T13:35:02Z</time>
      </trkpt>
      <trkpt lat="45.08991" lon="1.27211">
        <ele>142.1</ele>
        <time>2023-10-28T13:35:03Z</time>
      </trkpt>
      <trkpt lat="45.08989" lon="1.27208">
        <ele>141.5</ele>
        <time>2023-10-28T13:35:04Z</time>
      </trkpt>
      <trkpt lat="45.08987" lon="1.27205">
        <ele>141</ele>
        <time>2023-10-28T13:35:05Z</time>
      </trkpt>
      <trkpt lat="45.08984" lon="1.27202">
        <ele>140.5</ele>
        <time>2023-10-28T13:35:06Z</time>
      </trkpt>
      <trkpt lat="45.08982" lon="1.272">
        <ele>140</ele>
        <time>2023-10-28T13:35:07Z</time>
      </trkpt>
      <trkpt lat="45.0898" lon="1.27198">
        <ele>139.6</ele>
        <time>2023-10-28T13:35:08Z</time>
      </trkpt>
      <trkpt lat="45.08978" lon="1.27196">
        <ele>139.3</ele>
        <time>2023-10-28T13:35:09Z</time>
      </trkpt>
      <trkpt lat="45.08977" lon="1.27194">
        <ele>138.9</ele>
        <time>2023-10-28T13:35:10Z</time>
      </trkpt>
      <trkpt lat="45.08975" lon="1.27193">
        <ele>138.6</ele>
        <time>2023-10-28T13:35:11Z</time>
      </trkpt>
      <trkpt lat="45.08974" lon="1.27191">
        <ele>138.4</ele>
        <time>2023-10-28T13:35:12Z</time>
      </trkpt>
      <trkpt lat="45.08973" lon="1.2719">
        <ele>138.1</ele>
        <time>2023-10-28T13:35:13Z</time>
      </trkpt>
      <trkpt lat="45.08972" lon="1.27189">
        <ele>137.9</ele>
        <time>2023-10-28T13:35:14Z</time>
      </trkpt>
      <trkpt lat="45.08971" lon="1.27187">
        <ele>137.5</ele>
        <time>2023-10-28T13:35:15Z</time>
      </trkpt>
      <trkpt lat="45.0897" lon="1.27185">
        <ele>137.3</ele>
        <time>2023-10-28T13:35:16Z</time>
      </trkpt>
      <trkpt lat="45.08968" lon="1.27183">
        <ele>136.9</ele>
        <time>2023-10-28T13:35:17Z</time>
      </trkpt>
      <trkpt lat="45.08967" lon="1.2718">
        <ele>136.4</ele>
        <time>2023-10-28T13:35:18Z</time>
      </trkpt>
      <trkpt lat="45.08966" lon="1.27176">
        <ele>136</ele>
        <time>2023-10-28T13:35:19Z</time>
      </trkpt>
      <trkpt lat="45.08965" lon="1.27173">
        <ele>135.5</ele>
        <time>2023-10-28T13:35:20Z</time>
      </trkpt>
      <trkpt lat="45.08964" lon="1.27169">
        <ele>135.1</ele>
        <time>2023-10-28T13:35:21Z</time>
      </trkpt>
      <trkpt lat="45.08963" lon="1.27165">
        <ele>134.6</ele>
        <time>2023-10-28T13:35:22Z</time>
      </trkpt>
      <trkpt lat="45.08962" lon="1.27162">
        <ele>134.2</ele>
        <time>2023-10-28T13:35:23Z</time>
      </trkpt>
      <trkpt lat="45.08962" lon="1.27158">
        <ele>133.7</ele>
        <time>2023-10-28T13:35:24Z</time>
      </trkpt>
      <trkpt lat="45.0896" lon="1.27154">
        <ele>133.3</ele>
        <time>2023-10-28T13:35:25Z</time>
      </trkpt>
      <trkpt lat="45.0896" lon="1.2715">
        <ele>132.8</ele>
        <time>2023-10-28T13:35:26Z</time>
      </trkpt>
      <trkpt lat="45.08959" lon="1.27146">
        <ele>132.4</ele>
        <time>2023-10-28T13:35:27Z</time>
      </trkpt>
      <trkpt lat="45.08958" lon="1.27143">
        <ele>131.9</ele>
        <time>2023-10-28T13:35:28Z</time>
      </trkpt>
      <trkpt lat="45.08957" lon="1.27139">
        <ele>131.4</ele>
        <time>2023-10-28T13:35:29Z</time>
      </trkpt>
      <trkpt lat="45.08956" lon="1.27135">
        <ele>131</ele>
        <time>2023-10-28T13:35:30Z</time>
      </trkpt>
      <trkpt lat="45.08954" lon="1.27132">
        <ele>130.5</ele>
        <time>2023-10-28T13:35:31Z</time>
      </trkpt>
      <trkpt lat="45.08953" lon="1.27128">
        <ele>130.1</ele>
        <time>2023-10-28T13:35:32Z</time>
      </trkpt>
      <trkpt lat="45.08951" lon="1.27125">
        <ele>129.6</ele>
        <time>2023-10-28T13:35:33Z</time>
      </trkpt>
      <trkpt lat="45.0895" lon="1.27122">
        <ele>129.1</ele>
        <time>2023-10-28T13:35:34Z</time>
      </trkpt>
      <trkpt lat="45.08947" lon="1.27119">
        <ele>128.6</ele>
        <time>2023-10-28T13:35:35Z</time>
      </trkpt>
      <trkpt lat="45.08945" lon="1.27116">
        <ele>128.1</ele>
        <time>2023-10-28T13:35:36Z</time>
      </trkpt>
      <trkpt lat="45.08943" lon="1.27114">
        <ele>127.6</ele>
        <time>2023-10-28T13:35:37Z</time>
      </trkpt>
      <trkpt lat="45.08941" lon="1.27112">
        <ele>127.2</ele>
        <time>2023-10-28T13:35:38Z</time>
      </trkpt>
      <trkpt lat="45.08938" lon="1.2711">
        <ele>126.8</ele>
        <time>2023-10-28T13:35:39Z</time>
      </trkpt>
      <trkpt lat="45.08936" lon="1.27109">
        <ele>126.3</ele>
        <time>2023-10-28T13:35:40Z</time>
      </trkpt>
      <trkpt lat="45.08933" lon="1.27107">
        <ele>125.9</ele>
        <time>2023-10-28T13:35:41Z</time>
      </trkpt>
      <trkpt lat="45.08931" lon="1.27106">
        <ele>125.5</ele>
        <time>2023-10-28T13:35:42Z</time>
      </trkpt>
      <trkpt lat="45.08928" lon="1.27105">
        <ele>125</ele>
        <time>2023-10-28T13:35:43Z</time>
      </trkpt>
      <trkpt lat="45.08925" lon="1.27104">
        <ele>124.6</ele>
        <time>2023-10-28T13:35:44Z</time>
      </trkpt>
      <trkpt lat="45.08923" lon="1.27104">
        <ele>124.2</ele>
        <time>2023-10-28T13:35:45Z</time>
      </trkpt>
      <trkpt lat="45.0892" lon="1.27103">
        <ele>123.7</ele>
        <time>2023-10-28T13:35:46Z</time>
      </trkpt>
      <trkpt lat="45.08917" lon="1.27103">
        <ele>123.3</ele>
        <time>2023-10-28T13:35:47Z</time>
      </trkpt>
      <trkpt lat="45.08914" lon="1.27102">
        <ele>122.8</ele>
        <time>2023-10-28T13:35:48Z</time>
      </trkpt>
      <trkpt lat="45.08911" lon="1.27101">
        <ele>122.4</ele>
        <time>2023-10-28T13:35:49Z</time>
      </trkpt>
      <trkpt lat="45.08908" lon="1.271">
        <ele>122</ele>
        <time>2023-10-28T13:35:50Z</time>
      </trkpt>
      <trkpt lat="45.08905" lon="1.271">
        <ele>121.5</ele>
        <time>2023-10-28T13:35:51Z</time>
      </trkpt>
      <trkpt lat="45.08902" lon="1.27099">
        <ele>121.2</ele>
        <time>2023-10-28T13:35:52Z</time>
      </trkpt>
      <trkpt lat="45.089" lon="1.27098">
        <ele>120.8</ele>
        <time>2023-10-28T13:35:53Z</time>
      </trkpt>
      <trkpt lat="45.08897" lon="1.27097">
        <ele>120.4</ele>
        <time>2023-10-28T13:35:54Z</time>
      </trkpt>
      <trkpt lat="45.08894" lon="1.27096">
        <ele>120</ele>
        <time>2023-10-28T13:35:55Z</time>
      </trkpt>
      <trkpt lat="45.08891" lon="1.27096">
        <ele>119.6</ele>
        <time>2023-10-28T13:35:56Z</time>
      </trkpt>
      <trkpt lat="45.08888" lon="1.27095">
        <ele>119.2</ele>
        <time>2023-10-28T13:35:57Z</time>
      </trkpt>
      <trkpt lat="45.08885" lon="1.27094">
        <ele>118.9</ele>
        <time>2023-10-28T13:35:58Z</time>
      </trkpt>
      <trkpt lat="45.08882" lon="1.27093">
        <ele>118.5</ele>
        <time>2023-10-28T13:35:59Z</time>
      </trkpt>
      <trkpt lat="45.0888" lon="1.27092">
        <ele>118.2</ele>
        <time>2023-10-28T13:36:00Z</time>
      </trkpt>
      <trkpt lat="45.08876" lon="1.27091">
        <ele>117.8</ele>
        <time>2023-10-28T13:36:01Z</time>
      </trkpt>
      <trkpt lat="45.08874" lon="1.2709">
        <ele>117.5</ele>
        <time>2023-10-28T13:36:02Z</time>
      </trkpt>
      <trkpt lat="45.08871" lon="1.27089">
        <ele>117.2</ele>
        <time>2023-10-28T13:36:03Z</time>
      </trkpt>
      <trkpt lat="45.08868" lon="1.27089">
        <ele>116.9</ele>
        <time>2023-10-28T13:36:04Z</time>
      </trkpt>
      <trkpt lat="45.08865" lon="1.27088">
        <ele>116.6</ele>
        <time>2023-10-28T13:36:05Z</time>
      </trkpt>
      <trkpt lat="45.08862" lon="1.27087">
        <ele>116.3</ele>
        <time>2023-10-28T13:36:06Z</time>
      </trkpt>
      <trkpt lat="45.08859" lon="1.27086">
        <ele>116.1</ele>
        <time>2023-10-28T13:36:07Z</time>
      </trkpt>
      <trkpt lat="45.08857" lon="1.27086">
        <ele>115.8</ele>
        <time>2023-10-28T13:36:08Z</time>
      </trkpt>
      <trkpt lat="45.08854" lon="1.27085">
        <ele>115.5</ele>
        <time>2023-10-28T13:36:09Z</time>
      </trkpt>
      <trkpt lat="45.08851" lon="1.27085">
        <ele>115.3</ele>
        <time>2023-10-28T13:36:10Z</time>
      </trkpt>
      <trkpt lat="45.08848" lon="1.27084">
        <ele>115.1</ele>
        <time>2023-10-28T13:36:11Z</time>
      </trkpt>
      <trkpt lat="45.08845" lon="1.27083">
        <ele>114.9</ele>
        <time>2023-10-28T13:36:12Z</time>
      </trkpt>
      <trkpt lat="45.08842" lon="1.27083">
        <ele>114.7</ele>
        <time>2023-10-28T13:36:13Z</time>
      </trkpt>
      <trkpt lat="45.08839" lon="1.27082">
        <ele>114.5</ele>
        <time>2023-10-28T13:36:14Z</time>
      </trkpt>
      <trkpt lat="45.08836" lon="1.27081">
        <ele>114.4</ele>
        <time>2023-10-28T13:36:15Z</time>
      </trkpt>
      <trkpt lat="45.08833" lon="1.2708">
        <ele>114.2</ele>
        <time>2023-10-28T13:36:16Z</time>
      </trkpt>
      <trkpt lat="45.0883" lon="1.27079">
        <ele>114.1</ele>
        <time>2023-10-28T13:36:17Z</time>
      </trkpt>
      <trkpt lat="45.08828" lon="1.27078">
        <ele>114</ele>
        <time>2023-10-28T13:36:18Z</time>
      </trkpt>
      <trkpt lat="45.08825" lon="1.27077">
        <ele>113.8</ele>
        <time>2023-10-28T13:36:19Z</time>
      </trkpt>
      <trkpt lat="45.08822" lon="1.27076">
        <ele>113.7</ele>
        <time>2023-10-28T13:36:20Z</time>
      </trkpt>
      <trkpt lat="45.0882" lon="1.27074">
        <ele>113.7</ele>
        <time>2023-10-28T13:36:21Z</time>
      </trkpt>
      <trkpt lat="45.08817" lon="1.27073">
        <ele>113.7</ele>
        <time>2023-10-28T13:36:22Z</time>
      </trkpt>
      <trkpt lat="45.08815" lon="1.2707">
        <ele>113.7</ele>
        <time>2023-10-28T13:36:23Z</time>
      </trkpt>
      <trkpt lat="45.08813" lon="1.27068">
        <ele>113.7</ele>
        <time>2023-10-28T13:36:24Z</time>
      </trkpt>
      <trkpt lat="45.0881" lon="1.27065">
        <ele>113.8</ele>
        <time>2023-10-28T13:36:25Z</time>
      </trkpt>
      <trkpt lat="45.08809" lon="1.27062">
        <ele>113.8</ele>
        <time>2023-10-28T13:36:26Z</time>
      </trkpt>
      <trkpt lat="45.08807" lon="1.27058">
        <ele>113.8</ele>
        <time>2023-10-28T13:36:27Z</time>
      </trkpt>
      <trkpt lat="45.08805" lon="1.27055">
        <ele>113.8</ele>
        <time>2023-10-28T13:36:28Z</time>
      </trkpt>
      <trkpt lat="45.08803" lon="1.27052">
        <ele>113.7</ele>
        <time>2023-10-28T13:36:29Z</time>
      </trkpt>
      <trkpt lat="45.08801" lon="1.27049">
        <ele>113.7</ele>
        <time>2023-10-28T13:36:30Z</time>
      </trkpt>
      <trkpt lat="45.08799" lon="1.27045">
        <ele>113.7</ele>
        <time>2023-10-28T13:36:31Z</time>
      </trkpt>
      <trkpt lat="45.08798" lon="1.27042">
        <ele>113.6</ele>
        <time>2023-10-28T13:36:32Z</time>
      </trkpt>
      <trkpt lat="45.08796" lon="1.27039">
        <ele>113.6</ele>
        <time>2023-10-28T13:36:33Z</time>
      </trkpt>
      <trkpt lat="45.08793" lon="1.27035">
        <ele>113.6</ele>
        <time>2023-10-28T13:36:34Z</time>
      </trkpt>
      <trkpt lat="45.08791" lon="1.27032">
        <ele>113.6</ele>
        <time>2023-10-28T13:36:35Z</time>
      </trkpt>
      <trkpt lat="45.08789" lon="1.27029">
        <ele>113.6</ele>
        <time>2023-10-28T13:36:36Z</time>
      </trkpt>
      <trkpt lat="45.08788" lon="1.27026">
        <ele>113.6</ele>
        <time>2023-10-28T13:36:37Z</time>
      </trkpt>
      <trkpt lat="45.08786" lon="1.27023">
        <ele>113.6</ele>
        <time>2023-10-28T13:36:38Z</time>
      </trkpt>
      <trkpt lat="45.08784" lon="1.2702">
        <ele>113.6</ele>
        <time>2023-10-28T13:36:39Z</time>
      </trkpt>
      <trkpt lat="45.08781" lon="1.27017">
        <ele>113.6</ele>
        <time>2023-10-28T13:36:40Z</time>
      </trkpt>
      <trkpt lat="45.0878" lon="1.27014">
        <ele>113.6</ele>
        <time>2023-10-28T13:36:41Z</time>
      </trkpt>
      <trkpt lat="45.08778" lon="1.27011">
        <ele>113.6</ele>
        <time>2023-10-28T13:36:42Z</time>
      </trkpt>
      <trkpt lat="45.08776" lon="1.27008">
        <ele>113.6</ele>
        <time>2023-10-28T13:36:43Z</time>
      </trkpt>
      <trkpt lat="45.08774" lon="1.27006">
        <ele>113.7</ele>
        <time>2023-10-28T13:36:44Z</time>
      </trkpt>
      <trkpt lat="45.08772" lon="1.27003">
        <ele>113.7</ele>
        <time>2023-10-28T13:36:45Z</time>
      </trkpt>
      <trkpt lat="45.0877" lon="1.27">
        <ele>113.7</ele>
        <time>2023-10-28T13:36:46Z</time>
      </trkpt>
      <trkpt lat="45.08769" lon="1.26997">
        <ele>113.7</ele>
        <time>2023-10-28T13:36:47Z</time>
      </trkpt>
      <trkpt lat="45.08767" lon="1.26994">
        <ele>113.7</ele>
        <time>2023-10-28T13:36:48Z</time>
      </trkpt>
      <trkpt lat="45.08765" lon="1.26991">
        <ele>113.7</ele>
        <time>2023-10-28T13:36:49Z</time>
      </trkpt>
      <trkpt lat="45.08763" lon="1.26988">
        <ele>113.7</ele>
        <time>2023-10-28T13:36:50Z</time>
      </trkpt>
      <trkpt lat="45.08761" lon="1.26985">
        <ele>113.8</ele>
        <time>2023-10-28T13:36:51Z</time>
      </trkpt>
      <trkpt lat="45.08759" lon="1.26981">
        <ele>113.8</ele>
        <time>2023-10-28T13:36:52Z</time>
      </trkpt>
      <trkpt lat="45.08757" lon="1.26978">
        <ele>113.8</ele>
        <time>2023-10-28T13:36:53Z</time>
      </trkpt>
      <trkpt lat="45.08755" lon="1.26975">
        <ele>113.8</ele>
        <time>2023-10-28T13:36:54Z</time>
      </trkpt>
      <trkpt lat="45.08753" lon="1.26972">
        <ele>113.8</ele>
        <time>2023-10-28T13:36:55Z</time>
      </trkpt>
      <trkpt lat="45.08751" lon="1.26969">
        <ele>113.9</ele>
        <time>2023-10-28T13:36:56Z</time>
      </trkpt>
      <trkpt lat="45.08749" lon="1.26966">
        <ele>113.9</ele>
        <time>2023-10-28T13:36:57Z</time>
      </trkpt>
      <trkpt lat="45.08747" lon="1.26963">
        <ele>113.9</ele>
        <time>2023-10-28T13:36:58Z</time>
      </trkpt>
      <trkpt lat="45.08745" lon="1.26959">
        <ele>113.9</ele>
        <time>2023-10-28T13:36:59Z</time>
      </trkpt>
      <trkpt lat="45.08743" lon="1.26956">
        <ele>113.9</ele>
        <time>2023-10-28T13:37:00Z</time>
      </trkpt>
      <trkpt lat="45.08741" lon="1.26953">
        <ele>114</ele>
        <time>2023-10-28T13:37:01Z</time>
      </trkpt>
      <trkpt lat="45.08739" lon="1.2695">
        <ele>114</ele>
        <time>2023-10-28T13:37:02Z</time>
      </trkpt>
      <trkpt lat="45.08737" lon="1.26947">
        <ele>114</ele>
        <time>2023-10-28T13:37:03Z</time>
      </trkpt>
      <trkpt lat="45.08735" lon="1.26944">
        <ele>114</ele>
        <time>2023-10-28T13:37:04Z</time>
      </trkpt>
      <trkpt lat="45.08733" lon="1.26941">
        <ele>114</ele>
        <time>2023-10-28T13:37:05Z</time>
      </trkpt>
      <trkpt lat="45.08732" lon="1.26938">
        <ele>114.1</ele>
        <time>2023-10-28T13:37:06Z</time>
      </trkpt>
      <trkpt lat="45.08729" lon="1.26935">
        <ele>114.1</ele>
        <time>2023-10-28T13:37:07Z</time>
      </trkpt>
      <trkpt lat="45.08727" lon="1.26932">
        <ele>114.1</ele>
        <time>2023-10-28T13:37:08Z</time>
      </trkpt>
      <trkpt lat="45.08725" lon="1.2693">
        <ele>114.1</ele>
        <time>2023-10-28T13:37:09Z</time>
      </trkpt>
      <trkpt lat="45.08723" lon="1.26927">
        <ele>114.1</ele>
        <time>2023-10-28T13:37:10Z</time>
      </trkpt>
      <trkpt lat="45.08721" lon="1.26925">
        <ele>114.1</ele>
        <time>2023-10-28T13:37:11Z</time>
      </trkpt>
      <trkpt lat="45.08719" lon="1.26922">
        <ele>114.1</ele>
        <time>2023-10-28T13:37:12Z</time>
      </trkpt>
      <trkpt lat="45.08717" lon="1.2692">
        <ele>114.1</ele>
        <time>2023-10-28T13:37:13Z</time>
      </trkpt>
      <trkpt lat="45.08715" lon="1.26918">
        <ele>114.1</ele>
        <time>2023-10-28T13:37:14Z</time>
      </trkpt>
      <trkpt lat="45.08713" lon="1.26916">
        <ele>114.1</ele>
        <time>2023-10-28T13:37:15Z</time>
      </trkpt>
      <trkpt lat="45.08711" lon="1.26914">
        <ele>114.1</ele>
        <time>2023-10-28T13:37:16Z</time>
      </trkpt>
      <trkpt lat="45.08708" lon="1.26912">
        <ele>114.1</ele>
        <time>2023-10-28T13:37:17Z</time>
      </trkpt>
      <trkpt lat="45.08706" lon="1.26911">
        <ele>114.1</ele>
        <time>2023-10-28T13:37:18Z</time>
      </trkpt>
      <trkpt lat="45.08703" lon="1.26909">
        <ele>114</ele>
        <time>2023-10-28T13:37:19Z</time>
      </trkpt>
      <trkpt lat="45.08701" lon="1.26907">
        <ele>114</ele>
        <time>2023-10-28T13:37:20Z</time>
      </trkpt>
      <trkpt lat="45.08699" lon="1.26906">
        <ele>114</ele>
        <time>2023-10-28T13:37:21Z</time>
      </trkpt>
      <trkpt lat="45.08696" lon="1.26904">
        <ele>114</ele>
        <time>2023-10-28T13:37:22Z</time>
      </trkpt>
      <trkpt lat="45.08693" lon="1.26903">
        <ele>114</ele>
        <time>2023-10-28T13:37:23Z</time>
      </trkpt>
      <trkpt lat="45.08691" lon="1.26901">
        <ele>114</ele>
        <time>2023-10-28T13:37:24Z</time>
      </trkpt>
      <trkpt lat="45.08689" lon="1.269">
        <ele>114</ele>
        <time>2023-10-28T13:37:25Z</time>
      </trkpt>
      <trkpt lat="45.08686" lon="1.26898">
        <ele>114</ele>
        <time>2023-10-28T13:37:26Z</time>
      </trkpt>
      <trkpt lat="45.08684" lon="1.26896">
        <ele>114</ele>
        <time>2023-10-28T13:37:27Z</time>
      </trkpt>
      <trkpt lat="45.08682" lon="1.26895">
        <ele>114</ele>
        <time>2023-10-28T13:37:28Z</time>
      </trkpt>
      <trkpt lat="45.08679" lon="1.26893">
        <ele>114</ele>
        <time>2023-10-28T13:37:29Z</time>
      </trkpt>
      <trkpt lat="45.08676" lon="1.26892">
        <ele>114</ele>
        <time>2023-10-28T13:37:30Z</time>
      </trkpt>
      <trkpt lat="45.08674" lon="1.2689">
        <ele>114</ele>
        <time>2023-10-28T13:37:31Z</time>
      </trkpt>
      <trkpt lat="45.08671" lon="1.26888">
        <ele>114</ele>
        <time>2023-10-28T13:37:32Z</time>
      </trkpt>
      <trkpt lat="45.08669" lon="1.26887">
        <ele>114</ele>
        <time>2023-10-28T13:37:33Z</time>
      </trkpt>
      <trkpt lat="45.08666" lon="1.26886">
        <ele>114</ele>
        <time>2023-10-28T13:37:34Z</time>
      </trkpt>
      <trkpt lat="45.08664" lon="1.26884">
        <ele>114</ele>
        <time>2023-10-28T13:37:35Z</time>
      </trkpt>
      <trkpt lat="45.08662" lon="1.26883">
        <ele>114.1</ele>
        <time>2023-10-28T13:37:36Z</time>
      </trkpt>
      <trkpt lat="45.08659" lon="1.26881">
        <ele>114.1</ele>
        <time>2023-10-28T13:37:37Z</time>
      </trkpt>
      <trkpt lat="45.08658" lon="1.2688">
        <ele>114.1</ele>
        <time>2023-10-28T13:37:38Z</time>
      </trkpt>
      <trkpt lat="45.08655" lon="1.26878">
        <ele>114.1</ele>
        <time>2023-10-28T13:37:39Z</time>
      </trkpt>
      <trkpt lat="45.08653" lon="1.26877">
        <ele>114.1</ele>
        <time>2023-10-28T13:37:40Z</time>
      </trkpt>
      <trkpt lat="45.08651" lon="1.26875">
        <ele>114.1</ele>
        <time>2023-10-28T13:37:41Z</time>
      </trkpt>
      <trkpt lat="45.08648" lon="1.26874">
        <ele>114.2</ele>
        <time>2023-10-28T13:37:42Z</time>
      </trkpt>
      <trkpt lat="45.08646" lon="1.26872">
        <ele>114.2</ele>
        <time>2023-10-28T13:37:43Z</time>
      </trkpt>
      <trkpt lat="45.08643" lon="1.2687">
        <ele>114.2</ele>
        <time>2023-10-28T13:37:44Z</time>
      </trkpt>
      <trkpt lat="45.08641" lon="1.26869">
        <ele>114.2</ele>
        <time>2023-10-28T13:37:45Z</time>
      </trkpt>
      <trkpt lat="45.08639" lon="1.26867">
        <ele>114.2</ele>
        <time>2023-10-28T13:37:46Z</time>
      </trkpt>
      <trkpt lat="45.08637" lon="1.26866">
        <ele>114.2</ele>
        <time>2023-10-28T13:37:47Z</time>
      </trkpt>
      <trkpt lat="45.08634" lon="1.26864">
        <ele>114.2</ele>
        <time>2023-10-28T13:37:48Z</time>
      </trkpt>
      <trkpt lat="45.08632" lon="1.26862">
        <ele>114.3</ele>
        <time>2023-10-28T13:37:49Z</time>
      </trkpt>
      <trkpt lat="45.08629" lon="1.26861">
        <ele>114.3</ele>
        <time>2023-10-28T13:37:50Z</time>
      </trkpt>
      <trkpt lat="45.08627" lon="1.26859">
        <ele>114.3</ele>
        <time>2023-10-28T13:37:51Z</time>
      </trkpt>
      <trkpt lat="45.08625" lon="1.26858">
        <ele>114.3</ele>
        <time>2023-10-28T13:37:52Z</time>
      </trkpt>
      <trkpt lat="45.08622" lon="1.26856">
        <ele>114.3</ele>
        <time>2023-10-28T13:37:53Z</time>
      </trkpt>
      <trkpt lat="45.0862" lon="1.26854">
        <ele>114.3</ele>
        <time>2023-10-28T13:37:54Z</time>
      </trkpt>
      <trkpt lat="45.08618" lon="1.26853">
        <ele>114.4</ele>
        <time>2023-10-28T13:37:55Z</time>
      </trkpt>
      <trkpt lat="45.08616" lon="1.26851">
        <ele>114.4</ele>
        <time>2023-10-28T13:37:56Z</time>
      </trkpt>
      <trkpt lat="45.08613" lon="1.2685">
        <ele>114.5</ele>
        <time>2023-10-28T13:37:57Z</time>
      </trkpt>
      <trkpt lat="45.08611" lon="1.26848">
        <ele>114.5</ele>
        <time>2023-10-28T13:37:58Z</time>
      </trkpt>
      <trkpt lat="45.08609" lon="1.26846">
        <ele>114.6</ele>
        <time>2023-10-28T13:37:59Z</time>
      </trkpt>
      <trkpt lat="45.08607" lon="1.26845">
        <ele>114.6</ele>
        <time>2023-10-28T13:38:00Z</time>
      </trkpt>
      <trkpt lat="45.08605" lon="1.26843">
        <ele>114.6</ele>
        <time>2023-10-28T13:38:01Z</time>
      </trkpt>
      <trkpt lat="45.08603" lon="1.26842">
        <ele>114.7</ele>
        <time>2023-10-28T13:38:02Z</time>
      </trkpt>
      <trkpt lat="45.08602" lon="1.26841">
        <ele>114.8</ele>
        <time>2023-10-28T13:38:03Z</time>
      </trkpt>
      <trkpt lat="45.08601" lon="1.2684">
        <ele>114.8</ele>
        <time>2023-10-28T13:38:04Z</time>
      </trkpt>
      <trkpt lat="45.086" lon="1.2684">
        <ele>114.8</ele>
        <time>2023-10-28T13:38:05Z</time>
      </trkpt>
      <trkpt lat="45.08598" lon="1.26839">
        <ele>114.8</ele>
        <time>2023-10-28T13:38:06Z</time>
      </trkpt>
      <trkpt lat="45.08597" lon="1.26838">
        <ele>114.8</ele>
        <time>2023-10-28T13:38:07Z</time>
      </trkpt>
      <trkpt lat="45.08596" lon="1.26838">
        <ele>114.8</ele>
        <time>2023-10-28T13:38:08Z</time>
      </trkpt>
      <trkpt lat="45.08595" lon="1.26837">
        <ele>114.8</ele>
        <time>2023-10-28T13:38:09Z</time>
      </trkpt>
      <trkpt lat="45.08593" lon="1.26836">
        <ele>114.8</ele>
        <time>2023-10-28T13:38:10Z</time>
      </trkpt>
      <trkpt lat="45.08592" lon="1.26835">
        <ele>114.9</ele>
        <time>2023-10-28T13:38:11Z</time>
      </trkpt>
      <trkpt lat="45.0859" lon="1.26833">
        <ele>115</ele>
        <time>2023-10-28T13:38:12Z</time>
      </trkpt>
      <trkpt lat="45.08588" lon="1.26832">
        <ele>115</ele>
        <time>2023-10-28T13:38:13Z</time>
      </trkpt>
      <trkpt lat="45.08586" lon="1.2683">
        <ele>115.1</ele>
        <time>2023-10-28T13:38:14Z</time>
      </trkpt>
      <trkpt lat="45.08584" lon="1.26829">
        <ele>115.3</ele>
        <time>2023-10-28T13:38:15Z</time>
      </trkpt>
      <trkpt lat="45.08582" lon="1.26828">
        <ele>115.3</ele>
        <time>2023-10-28T13:38:16Z</time>
      </trkpt>
      <trkpt lat="45.0858" lon="1.26826">
        <ele>115.4</ele>
        <time>2023-10-28T13:38:17Z</time>
      </trkpt>
      <trkpt lat="45.08579" lon="1.26824">
        <ele>115.5</ele>
        <time>2023-10-28T13:38:18Z</time>
      </trkpt>
      <trkpt lat="45.08578" lon="1.26822">
        <ele>115.5</ele>
        <time>2023-10-28T13:38:19Z</time>
      </trkpt>
      <trkpt lat="45.08577" lon="1.2682">
        <ele>115.6</ele>
        <time>2023-10-28T13:38:20Z</time>
      </trkpt>
      <trkpt lat="45.08578" lon="1.26819">
        <ele>115.6</ele>
        <time>2023-10-28T13:38:21Z</time>
      </trkpt>
      <trkpt lat="45.08579" lon="1.26817">
        <ele>116.6</ele>
        <time>2023-10-28T13:38:22Z</time>
      </trkpt>
      <trkpt lat="45.0858" lon="1.26815">
        <ele>116.8</ele>
        <time>2023-10-28T13:38:23Z</time>
      </trkpt>
      <trkpt lat="45.08582" lon="1.26814">
        <ele>117</ele>
        <time>2023-10-28T13:38:24Z</time>
      </trkpt>
      <trkpt lat="45.08584" lon="1.26813">
        <ele>117.3</ele>
        <time>2023-10-28T13:38:25Z</time>
      </trkpt>
      <trkpt lat="45.08586" lon="1.26812">
        <ele>117.5</ele>
        <time>2023-10-28T13:38:26Z</time>
      </trkpt>
      <trkpt lat="45.08588" lon="1.2681">
        <ele>117.9</ele>
        <time>2023-10-28T13:38:27Z</time>
      </trkpt>
      <trkpt lat="45.0859" lon="1.26809">
        <ele>118.1</ele>
        <time>2023-10-28T13:38:28Z</time>
      </trkpt>
      <trkpt lat="45.08592" lon="1.26807">
        <ele>118.4</ele>
        <time>2023-10-28T13:38:29Z</time>
      </trkpt>
      <trkpt lat="45.08594" lon="1.26806">
        <ele>118.7</ele>
        <time>2023-10-28T13:38:30Z</time>
      </trkpt>
      <trkpt lat="45.08596" lon="1.26804">
        <ele>119</ele>
        <time>2023-10-28T13:38:31Z</time>
      </trkpt>
      <trkpt lat="45.08597" lon="1.26802">
        <ele>119.3</ele>
        <time>2023-10-28T13:38:32Z</time>
      </trkpt>
      <trkpt lat="45.08598" lon="1.26801">
        <ele>119.5</ele>
        <time>2023-10-28T13:38:33Z</time>
      </trkpt>
      <trkpt lat="45.08598" lon="1.26799">
        <ele>119.7</ele>
        <time>2023-10-28T13:38:34Z</time>
      </trkpt>
      <trkpt lat="45.08598" lon="1.26797">
        <ele>119.9</ele>
        <time>2023-10-28T13:38:35Z</time>
      </trkpt>
      <trkpt lat="45.08598" lon="1.26795">
        <ele>120.4</ele>
        <time>2023-10-28T13:38:36Z</time>
      </trkpt>
      <trkpt lat="45.08596" lon="1.26793">
        <ele>120.9</ele>
        <time>2023-10-28T13:38:37Z</time>
      </trkpt>
      <trkpt lat="45.08595" lon="1.26791">
        <ele>121.3</ele>
        <time>2023-10-28T13:38:38Z</time>
      </trkpt>
      <trkpt lat="45.08593" lon="1.2679">
        <ele>121.9</ele>
        <time>2023-10-28T13:38:39Z</time>
      </trkpt>
      <trkpt lat="45.08592" lon="1.26788">
        <ele>122.3</ele>
        <time>2023-10-28T13:38:40Z</time>
      </trkpt>
      <trkpt lat="45.0859" lon="1.26787">
        <ele>122.8</ele>
        <time>2023-10-28T13:38:41Z</time>
      </trkpt>
      <trkpt lat="45.08588" lon="1.26785">
        <ele>123.1</ele>
        <time>2023-10-28T13:38:42Z</time>
      </trkpt>
      <trkpt lat="45.08587" lon="1.26784">
        <ele>122.8</ele>
        <time>2023-10-28T13:38:43Z</time>
      </trkpt>
      <trkpt lat="45.08585" lon="1.26782">
        <ele>122.6</ele>
        <time>2023-10-28T13:38:44Z</time>
      </trkpt>
      <trkpt lat="45.08584" lon="1.26781">
        <ele>122.3</ele>
        <time>2023-10-28T13:38:45Z</time>
      </trkpt>
      <trkpt lat="45.08582" lon="1.2678">
        <ele>122</ele>
        <time>2023-10-28T13:38:46Z</time>
      </trkpt>
      <trkpt lat="45.0858" lon="1.26779">
        <ele>121.8</ele>
        <time>2023-10-28T13:38:47Z</time>
      </trkpt>
      <trkpt lat="45.08578" lon="1.26778">
        <ele>121.5</ele>
        <time>2023-10-28T13:38:48Z</time>
      </trkpt>
      <trkpt lat="45.08576" lon="1.26778">
        <ele>121.3</ele>
        <time>2023-10-28T13:38:49Z</time>
      </trkpt>
      <trkpt lat="45.08574" lon="1.26777">
        <ele>121</ele>
        <time>2023-10-28T13:38:50Z</time>
      </trkpt>
      <trkpt lat="45.08573" lon="1.26776">
        <ele>120.9</ele>
        <time>2023-10-28T13:38:51Z</time>
      </trkpt>
      <trkpt lat="45.08572" lon="1.26776">
        <ele>120.8</ele>
        <time>2023-10-28T13:38:52Z</time>
      </trkpt>
      <trkpt lat="45.08571" lon="1.26775">
        <ele>120.7</ele>
        <time>2023-10-28T13:38:53Z</time>
      </trkpt>
      <trkpt lat="45.0857" lon="1.26775">
        <ele>120.7</ele>
        <time>2023-10-28T13:38:54Z</time>
      </trkpt>
      <trkpt lat="45.08569" lon="1.26774">
        <ele>120.8</ele>
        <time>2023-10-28T13:38:55Z</time>
      </trkpt>
      <trkpt lat="45.08569" lon="1.26773">
        <ele>120.9</ele>
        <time>2023-10-28T13:38:56Z</time>
      </trkpt>
      <trkpt lat="45.08568" lon="1.26772">
        <ele>121</ele>
        <time>2023-10-28T13:38:57Z</time>
      </trkpt>
      <trkpt lat="45.08568" lon="1.26771">
        <ele>121</ele>
        <time>2023-10-28T13:38:58Z</time>
      </trkpt>
      <trkpt lat="45.08569" lon="1.26772">
        <ele>121.1</ele>
        <time>2023-10-28T13:38:59Z</time>
      </trkpt>
      <trkpt lat="45.08569" lon="1.26772">
        <ele>121.1</ele>
        <time>2023-10-28T13:39:00Z</time>
      </trkpt>
      <trkpt lat="45.08571" lon="1.26773">
        <ele>121.2</ele>
        <time>2023-10-28T13:39:01Z</time>
      </trkpt>
      <trkpt lat="45.08572" lon="1.26773">
        <ele>121.4</ele>
        <time>2023-10-28T13:39:02Z</time>
      </trkpt>
      <trkpt lat="45.08574" lon="1.26774">
        <ele>121.6</ele>
        <time>2023-10-28T13:39:03Z</time>
      </trkpt>
      <trkpt lat="45.08576" lon="1.26775">
        <ele>121.7</ele>
        <time>2023-10-28T13:39:04Z</time>
      </trkpt>
      <trkpt lat="45.08578" lon="1.26776">
        <ele>122</ele>
        <time>2023-10-28T13:39:05Z</time>
      </trkpt>
      <trkpt lat="45.08581" lon="1.26776">
        <ele>122.2</ele>
        <time>2023-10-28T13:39:06Z</time>
      </trkpt>
      <trkpt lat="45.08583" lon="1.26776">
        <ele>122.4</ele>
        <time>2023-10-28T13:39:07Z</time>
      </trkpt>
      <trkpt lat="45.08585" lon="1.26776">
        <ele>122.7</ele>
        <time>2023-10-28T13:39:08Z</time>
      </trkpt>
      <trkpt lat="45.08588" lon="1.26775">
        <ele>122.9</ele>
        <time>2023-10-28T13:39:09Z</time>
      </trkpt>
      <trkpt lat="45.0859" lon="1.26774">
        <ele>123.1</ele>
        <time>2023-10-28T13:39:10Z</time>
      </trkpt>
      <trkpt lat="45.08592" lon="1.26773">
        <ele>124.9</ele>
        <time>2023-10-28T13:39:11Z</time>
      </trkpt>
      <trkpt lat="45.08593" lon="1.26772">
        <ele>125.3</ele>
        <time>2023-10-28T13:39:12Z</time>
      </trkpt>
      <trkpt lat="45.08594" lon="1.2677">
        <ele>125.5</ele>
        <time>2023-10-28T13:39:13Z</time>
      </trkpt>
      <trkpt lat="45.08595" lon="1.26768">
        <ele>125.8</ele>
        <time>2023-10-28T13:39:14Z</time>
      </trkpt>
      <trkpt lat="45.08595" lon="1.26765">
        <ele>126</ele>
        <time>2023-10-28T13:39:15Z</time>
      </trkpt>
      <trkpt lat="45.08596" lon="1.26763">
        <ele>126.3</ele>
        <time>2023-10-28T13:39:16Z</time>
      </trkpt>
      <trkpt lat="45.08596" lon="1.2676">
        <ele>126.6</ele>
        <time>2023-10-28T13:39:17Z</time>
      </trkpt>
      <trkpt lat="45.08596" lon="1.26757">
        <ele>126.8</ele>
        <time>2023-10-28T13:39:18Z</time>
      </trkpt>
      <trkpt lat="45.08596" lon="1.26755">
        <ele>127</ele>
        <time>2023-10-28T13:39:19Z</time>
      </trkpt>
      <trkpt lat="45.08597" lon="1.26752">
        <ele>127.2</ele>
        <time>2023-10-28T13:39:20Z</time>
      </trkpt>
      <trkpt lat="45.08598" lon="1.2675">
        <ele>127.4</ele>
        <time>2023-10-28T13:39:21Z</time>
      </trkpt>
      <trkpt lat="45.086" lon="1.26747">
        <ele>127.6</ele>
        <time>2023-10-28T13:39:22Z</time>
      </trkpt>
      <trkpt lat="45.08601" lon="1.26745">
        <ele>127.7</ele>
        <time>2023-10-28T13:39:23Z</time>
      </trkpt>
      <trkpt lat="45.08602" lon="1.26743">
        <ele>127.9</ele>
        <time>2023-10-28T13:39:24Z</time>
      </trkpt>
      <trkpt lat="45.08604" lon="1.26741">
        <ele>128</ele>
        <time>2023-10-28T13:39:25Z</time>
      </trkpt>
      <trkpt lat="45.08605" lon="1.26739">
        <ele>128.1</ele>
        <time>2023-10-28T13:39:26Z</time>
      </trkpt>
      <trkpt lat="45.08607" lon="1.26738">
        <ele>128.3</ele>
        <time>2023-10-28T13:39:27Z</time>
      </trkpt>
      <trkpt lat="45.08608" lon="1.26736">
        <ele>128.4</ele>
        <time>2023-10-28T13:39:28Z</time>
      </trkpt>
      <trkpt lat="45.0861" lon="1.26734">
        <ele>128.5</ele>
        <time>2023-10-28T13:39:29Z</time>
      </trkpt>
      <trkpt lat="45.08612" lon="1.26732">
        <ele>128.6</ele>
        <time>2023-10-28T13:39:30Z</time>
      </trkpt>
      <trkpt lat="45.08614" lon="1.2673">
        <ele>128.7</ele>
        <time>2023-10-28T13:39:31Z</time>
      </trkpt>
      <trkpt lat="45.08615" lon="1.26729">
        <ele>128.7</ele>
        <time>2023-10-28T13:39:32Z</time>
      </trkpt>
      <trkpt lat="45.08617" lon="1.26727">
        <ele>128.8</ele>
        <time>2023-10-28T13:39:33Z</time>
      </trkpt>
      <trkpt lat="45.08619" lon="1.26725">
        <ele>128.9</ele>
        <time>2023-10-28T13:39:34Z</time>
      </trkpt>
      <trkpt lat="45.08621" lon="1.26724">
        <ele>129</ele>
        <time>2023-10-28T13:39:35Z</time>
      </trkpt>
      <trkpt lat="45.08622" lon="1.26722">
        <ele>129.1</ele>
        <time>2023-10-28T13:39:36Z</time>
      </trkpt>
      <trkpt lat="45.08624" lon="1.2672">
        <ele>129.2</ele>
        <time>2023-10-28T13:39:37Z</time>
      </trkpt>
      <trkpt lat="45.08626" lon="1.26719">
        <ele>129.3</ele>
        <time>2023-10-28T13:39:38Z</time>
      </trkpt>
      <trkpt lat="45.08627" lon="1.26717">
        <ele>129.4</ele>
        <time>2023-10-28T13:39:39Z</time>
      </trkpt>
      <trkpt lat="45.08629" lon="1.26715">
        <ele>129.5</ele>
        <time>2023-10-28T13:39:40Z</time>
      </trkpt>
      <trkpt lat="45.08631" lon="1.26713">
        <ele>129.7</ele>
        <time>2023-10-28T13:39:41Z</time>
      </trkpt>
      <trkpt lat="45.08633" lon="1.26712">
        <ele>129.9</ele>
        <time>2023-10-28T13:39:42Z</time>
      </trkpt>
      <trkpt lat="45.08635" lon="1.2671">
        <ele>130</ele>
        <time>2023-10-28T13:39:43Z</time>
      </trkpt>
      <trkpt lat="45.08636" lon="1.26707">
        <ele>130.1</ele>
        <time>2023-10-28T13:39:44Z</time>
      </trkpt>
      <trkpt lat="45.08637" lon="1.26705">
        <ele>130.4</ele>
        <time>2023-10-28T13:39:45Z</time>
      </trkpt>
      <trkpt lat="45.08638" lon="1.26702">
        <ele>130.7</ele>
        <time>2023-10-28T13:39:46Z</time>
      </trkpt>
      <trkpt lat="45.08639" lon="1.267">
        <ele>130.9</ele>
        <time>2023-10-28T13:39:47Z</time>
      </trkpt>
      <trkpt lat="45.0864" lon="1.26697">
        <ele>131.2</ele>
        <time>2023-10-28T13:39:48Z</time>
      </trkpt>
      <trkpt lat="45.08641" lon="1.26695">
        <ele>131.5</ele>
        <time>2023-10-28T13:39:49Z</time>
      </trkpt>
      <trkpt lat="45.08642" lon="1.26692">
        <ele>131.8</ele>
        <time>2023-10-28T13:39:50Z</time>
      </trkpt>
      <trkpt lat="45.08643" lon="1.26689">
        <ele>132.1</ele>
        <time>2023-10-28T13:39:51Z</time>
      </trkpt>
      <trkpt lat="45.08644" lon="1.26686">
        <ele>132.3</ele>
        <time>2023-10-28T13:39:52Z</time>
      </trkpt>
      <trkpt lat="45.08645" lon="1.26684">
        <ele>132.6</ele>
        <time>2023-10-28T13:39:53Z</time>
      </trkpt>
      <trkpt lat="45.08645" lon="1.26681">
        <ele>132.8</ele>
        <time>2023-10-28T13:39:54Z</time>
      </trkpt>
      <trkpt lat="45.08646" lon="1.26679">
        <ele>133.1</ele>
        <time>2023-10-28T13:39:55Z</time>
      </trkpt>
      <trkpt lat="45.08646" lon="1.26676">
        <ele>133.4</ele>
        <time>2023-10-28T13:39:56Z</time>
      </trkpt>
      <trkpt lat="45.08646" lon="1.26674">
        <ele>133.6</ele>
        <time>2023-10-28T13:39:57Z</time>
      </trkpt>
      <trkpt lat="45.08647" lon="1.26671">
        <ele>133.9</ele>
        <time>2023-10-28T13:39:58Z</time>
      </trkpt>
      <trkpt lat="45.08647" lon="1.26669">
        <ele>134.1</ele>
        <time>2023-10-28T13:39:59Z</time>
      </trkpt>
      <trkpt lat="45.08647" lon="1.26666">
        <ele>134.4</ele>
        <time>2023-10-28T13:40:00Z</time>
      </trkpt>
      <trkpt lat="45.08647" lon="1.26664">
        <ele>134.6</ele>
        <time>2023-10-28T13:40:01Z</time>
      </trkpt>
      <trkpt lat="45.08647" lon="1.26661">
        <ele>134.9</ele>
        <time>2023-10-28T13:40:02Z</time>
      </trkpt>
      <trkpt lat="45.08647" lon="1.26659">
        <ele>135.1</ele>
        <time>2023-10-28T13:40:03Z</time>
      </trkpt>
      <trkpt lat="45.08647" lon="1.26656">
        <ele>135.4</ele>
        <time>2023-10-28T13:40:04Z</time>
      </trkpt>
      <trkpt lat="45.08647" lon="1.26654">
        <ele>135.6</ele>
        <time>2023-10-28T13:40:05Z</time>
      </trkpt>
      <trkpt lat="45.08647" lon="1.26651">
        <ele>135.9</ele>
        <time>2023-10-28T13:40:06Z</time>
      </trkpt>
      <trkpt lat="45.08648" lon="1.26648">
        <ele>136.2</ele>
        <time>2023-10-28T13:40:07Z</time>
      </trkpt>
      <trkpt lat="45.08648" lon="1.26646">
        <ele>136.4</ele>
        <time>2023-10-28T13:40:08Z</time>
      </trkpt>
      <trkpt lat="45.08648" lon="1.26643">
        <ele>136.7</ele>
        <time>2023-10-28T13:40:09Z</time>
      </trkpt>
      <trkpt lat="45.08648" lon="1.26641">
        <ele>136.9</ele>
        <time>2023-10-28T13:40:10Z</time>
      </trkpt>
      <trkpt lat="45.08648" lon="1.26638">
        <ele>137.2</ele>
        <time>2023-10-28T13:40:11Z</time>
      </trkpt>
      <trkpt lat="45.08649" lon="1.26636">
        <ele>137.4</ele>
        <time>2023-10-28T13:40:12Z</time>
      </trkpt>
      <trkpt lat="45.08649" lon="1.26633">
        <ele>137.7</ele>
        <time>2023-10-28T13:40:13Z</time>
      </trkpt>
      <trkpt lat="45.08649" lon="1.26631">
        <ele>137.9</ele>
        <time>2023-10-28T13:40:14Z</time>
      </trkpt>
      <trkpt lat="45.08649" lon="1.26628">
        <ele>138.2</ele>
        <time>2023-10-28T13:40:15Z</time>
      </trkpt>
      <trkpt lat="45.08649" lon="1.26626">
        <ele>138.5</ele>
        <time>2023-10-28T13:40:16Z</time>
      </trkpt>
      <trkpt lat="45.08649" lon="1.26624">
        <ele>138.8</ele>
        <time>2023-10-28T13:40:17Z</time>
      </trkpt>
      <trkpt lat="45.08649" lon="1.26621">
        <ele>139</ele>
        <time>2023-10-28T13:40:18Z</time>
      </trkpt>
      <trkpt lat="45.08649" lon="1.26619">
        <ele>139.3</ele>
        <time>2023-10-28T13:40:19Z</time>
      </trkpt>
      <trkpt lat="45.08649" lon="1.26616">
        <ele>139.5</ele>
        <time>2023-10-28T13:40:20Z</time>
      </trkpt>
      <trkpt lat="45.0865" lon="1.26613">
        <ele>139.8</ele>
        <time>2023-10-28T13:40:21Z</time>
      </trkpt>
      <trkpt lat="45.0865" lon="1.26611">
        <ele>140</ele>
        <time>2023-10-28T13:40:22Z</time>
      </trkpt>
      <trkpt lat="45.0865" lon="1.26608">
        <ele>140.3</ele>
        <time>2023-10-28T13:40:23Z</time>
      </trkpt>
      <trkpt lat="45.08649" lon="1.26606">
        <ele>140.5</ele>
        <time>2023-10-28T13:40:24Z</time>
      </trkpt>
      <trkpt lat="45.08649" lon="1.26603">
        <ele>140.8</ele>
        <time>2023-10-28T13:40:25Z</time>
      </trkpt>
      <trkpt lat="45.08649" lon="1.26601">
        <ele>141</ele>
        <time>2023-10-28T13:40:26Z</time>
      </trkpt>
      <trkpt lat="45.08649" lon="1.26598">
        <ele>141.2</ele>
        <time>2023-10-28T13:40:27Z</time>
      </trkpt>
      <trkpt lat="45.08649" lon="1.26596">
        <ele>141.4</ele>
        <time>2023-10-28T13:40:28Z</time>
      </trkpt>
      <trkpt lat="45.08648" lon="1.26594">
        <ele>141.6</ele>
        <time>2023-10-28T13:40:29Z</time>
      </trkpt>
      <trkpt lat="45.08648" lon="1.26591">
        <ele>141.8</ele>
        <time>2023-10-28T13:40:30Z</time>
      </trkpt>
      <trkpt lat="45.08648" lon="1.26589">
        <ele>142</ele>
        <time>2023-10-28T13:40:31Z</time>
      </trkpt>
      <trkpt lat="45.08647" lon="1.26587">
        <ele>142.2</ele>
        <time>2023-10-28T13:40:32Z</time>
      </trkpt>
      <trkpt lat="45.08647" lon="1.26585">
        <ele>142.4</ele>
        <time>2023-10-28T13:40:33Z</time>
      </trkpt>
      <trkpt lat="45.08646" lon="1.26583">
        <ele>142.5</ele>
        <time>2023-10-28T13:40:34Z</time>
      </trkpt>
      <trkpt lat="45.08646" lon="1.26581">
        <ele>142.7</ele>
        <time>2023-10-28T13:40:35Z</time>
      </trkpt>
      <trkpt lat="45.08646" lon="1.26579">
        <ele>142.9</ele>
        <time>2023-10-28T13:40:36Z</time>
      </trkpt>
      <trkpt lat="45.08645" lon="1.26577">
        <ele>143</ele>
        <time>2023-10-28T13:40:37Z</time>
      </trkpt>
      <trkpt lat="45.08645" lon="1.26575">
        <ele>143.2</ele>
        <time>2023-10-28T13:40:38Z</time>
      </trkpt>
      <trkpt lat="45.08645" lon="1.26574">
        <ele>143.3</ele>
        <time>2023-10-28T13:40:39Z</time>
      </trkpt>
      <trkpt lat="45.08645" lon="1.26572">
        <ele>143.5</ele>
        <time>2023-10-28T13:40:40Z</time>
      </trkpt>
      <trkpt lat="45.08644" lon="1.2657">
        <ele>143.7</ele>
        <time>2023-10-28T13:40:41Z</time>
      </trkpt>
      <trkpt lat="45.08643" lon="1.26568">
        <ele>143.8</ele>
        <time>2023-10-28T13:40:42Z</time>
      </trkpt>
      <trkpt lat="45.08643" lon="1.26567">
        <ele>143.9</ele>
        <time>2023-10-28T13:40:43Z</time>
      </trkpt>
      <trkpt lat="45.08643" lon="1.26565">
        <ele>144.1</ele>
        <time>2023-10-28T13:40:44Z</time>
      </trkpt>
      <trkpt lat="45.08642" lon="1.26564">
        <ele>144.2</ele>
        <time>2023-10-28T13:40:45Z</time>
      </trkpt>
      <trkpt lat="45.08642" lon="1.26562">
        <ele>144.3</ele>
        <time>2023-10-28T13:40:46Z</time>
      </trkpt>
      <trkpt lat="45.08641" lon="1.2656">
        <ele>144.4</ele>
        <time>2023-10-28T13:40:47Z</time>
      </trkpt>
      <trkpt lat="45.08641" lon="1.26559">
        <ele>144.6</ele>
        <time>2023-10-28T13:40:48Z</time>
      </trkpt>
      <trkpt lat="45.08641" lon="1.26557">
        <ele>144.7</ele>
        <time>2023-10-28T13:40:49Z</time>
      </trkpt>
      <trkpt lat="45.0864" lon="1.26555">
        <ele>144.9</ele>
        <time>2023-10-28T13:40:50Z</time>
      </trkpt>
      <trkpt lat="45.0864" lon="1.26554">
        <ele>145</ele>
        <time>2023-10-28T13:40:51Z</time>
      </trkpt>
      <trkpt lat="45.08639" lon="1.26552">
        <ele>145.2</ele>
        <time>2023-10-28T13:40:52Z</time>
      </trkpt>
      <trkpt lat="45.08639" lon="1.2655">
        <ele>145.3</ele>
        <time>2023-10-28T13:40:53Z</time>
      </trkpt>
      <trkpt lat="45.08638" lon="1.26548">
        <ele>145.5</ele>
        <time>2023-10-28T13:40:54Z</time>
      </trkpt>
      <trkpt lat="45.08638" lon="1.26546">
        <ele>145.6</ele>
        <time>2023-10-28T13:40:55Z</time>
      </trkpt>
      <trkpt lat="45.08637" lon="1.26545">
        <ele>145.8</ele>
        <time>2023-10-28T13:40:56Z</time>
      </trkpt>
      <trkpt lat="45.08637" lon="1.26543">
        <ele>145.9</ele>
        <time>2023-10-28T13:40:57Z</time>
      </trkpt>
      <trkpt lat="45.08636" lon="1.26541">
        <ele>146.1</ele>
        <time>2023-10-28T13:40:58Z</time>
      </trkpt>
      <trkpt lat="45.08636" lon="1.2654">
        <ele>146.2</ele>
        <time>2023-10-28T13:40:59Z</time>
      </trkpt>
      <trkpt lat="45.08635" lon="1.26538">
        <ele>146.3</ele>
        <time>2023-10-28T13:41:00Z</time>
      </trkpt>
      <trkpt lat="45.08634" lon="1.26537">
        <ele>146.5</ele>
        <time>2023-10-28T13:41:01Z</time>
      </trkpt>
      <trkpt lat="45.08633" lon="1.26535">
        <ele>146.6</ele>
        <time>2023-10-28T13:41:02Z</time>
      </trkpt>
      <trkpt lat="45.08633" lon="1.26533">
        <ele>146.8</ele>
        <time>2023-10-28T13:41:03Z</time>
      </trkpt>
      <trkpt lat="45.08632" lon="1.26532">
        <ele>146.9</ele>
        <time>2023-10-28T13:41:04Z</time>
      </trkpt>
      <trkpt lat="45.08632" lon="1.2653">
        <ele>147.1</ele>
        <time>2023-10-28T13:41:05Z</time>
      </trkpt>
      <trkpt lat="45.08631" lon="1.26529">
        <ele>147.2</ele>
        <time>2023-10-28T13:41:06Z</time>
      </trkpt>
      <trkpt lat="45.0863" lon="1.26527">
        <ele>147.4</ele>
        <time>2023-10-28T13:41:07Z</time>
      </trkpt>
      <trkpt lat="45.08629" lon="1.26525">
        <ele>147.6</ele>
        <time>2023-10-28T13:41:08Z</time>
      </trkpt>
      <trkpt lat="45.08629" lon="1.26523">
        <ele>147.8</ele>
        <time>2023-10-28T13:41:09Z</time>
      </trkpt>
      <trkpt lat="45.08627" lon="1.26521">
        <ele>148</ele>
        <time>2023-10-28T13:41:10Z</time>
      </trkpt>
      <trkpt lat="45.08627" lon="1.2652">
        <ele>148.2</ele>
        <time>2023-10-28T13:41:11Z</time>
      </trkpt>
      <trkpt lat="45.08626" lon="1.26518">
        <ele>148.4</ele>
        <time>2023-10-28T13:41:12Z</time>
      </trkpt>
      <trkpt lat="45.08625" lon="1.26516">
        <ele>148.5</ele>
        <time>2023-10-28T13:41:13Z</time>
      </trkpt>
      <trkpt lat="45.08624" lon="1.26515">
        <ele>148.7</ele>
        <time>2023-10-28T13:41:14Z</time>
      </trkpt>
      <trkpt lat="45.08623" lon="1.26513">
        <ele>148.9</ele>
        <time>2023-10-28T13:41:15Z</time>
      </trkpt>
      <trkpt lat="45.08623" lon="1.26511">
        <ele>149.1</ele>
        <time>2023-10-28T13:41:16Z</time>
      </trkpt>
      <trkpt lat="45.08622" lon="1.2651">
        <ele>149.3</ele>
        <time>2023-10-28T13:41:17Z</time>
      </trkpt>
      <trkpt lat="45.08622" lon="1.26508">
        <ele>149.4</ele>
        <time>2023-10-28T13:41:18Z</time>
      </trkpt>
      <trkpt lat="45.08621" lon="1.26506">
        <ele>149.6</ele>
        <time>2023-10-28T13:41:19Z</time>
      </trkpt>
      <trkpt lat="45.08621" lon="1.26505">
        <ele>149.8</ele>
        <time>2023-10-28T13:41:20Z</time>
      </trkpt>
      <trkpt lat="45.0862" lon="1.26503">
        <ele>150</ele>
        <time>2023-10-28T13:41:21Z</time>
      </trkpt>
      <trkpt lat="45.08619" lon="1.26502">
        <ele>150.2</ele>
        <time>2023-10-28T13:41:22Z</time>
      </trkpt>
      <trkpt lat="45.08618" lon="1.265">
        <ele>150.4</ele>
        <time>2023-10-28T13:41:23Z</time>
      </trkpt>
      <trkpt lat="45.08618" lon="1.26498">
        <ele>150.5</ele>
        <time>2023-10-28T13:41:24Z</time>
      </trkpt>
      <trkpt lat="45.08617" lon="1.26497">
        <ele>150.7</ele>
        <time>2023-10-28T13:41:25Z</time>
      </trkpt>
      <trkpt lat="45.08616" lon="1.26496">
        <ele>150.9</ele>
        <time>2023-10-28T13:41:26Z</time>
      </trkpt>
      <trkpt lat="45.08615" lon="1.26495">
        <ele>151.1</ele>
        <time>2023-10-28T13:41:27Z</time>
      </trkpt>
      <trkpt lat="45.08614" lon="1.26494">
        <ele>151.2</ele>
        <time>2023-10-28T13:41:28Z</time>
      </trkpt>
      <trkpt lat="45.08613" lon="1.26493">
        <ele>151.4</ele>
        <time>2023-10-28T13:41:29Z</time>
      </trkpt>
      <trkpt lat="45.08612" lon="1.26492">
        <ele>151.6</ele>
        <time>2023-10-28T13:41:30Z</time>
      </trkpt>
      <trkpt lat="45.08611" lon="1.2649">
        <ele>151.8</ele>
        <time>2023-10-28T13:41:31Z</time>
      </trkpt>
      <trkpt lat="45.0861" lon="1.26489">
        <ele>152</ele>
        <time>2023-10-28T13:41:32Z</time>
      </trkpt>
      <trkpt lat="45.08609" lon="1.26487">
        <ele>152.3</ele>
        <time>2023-10-28T13:41:33Z</time>
      </trkpt>
      <trkpt lat="45.08608" lon="1.26486">
        <ele>152.5</ele>
        <time>2023-10-28T13:41:34Z</time>
      </trkpt>
      <trkpt lat="45.08606" lon="1.26484">
        <ele>152.7</ele>
        <time>2023-10-28T13:41:35Z</time>
      </trkpt>
      <trkpt lat="45.08606" lon="1.26483">
        <ele>152.9</ele>
        <time>2023-10-28T13:41:36Z</time>
      </trkpt>
      <trkpt lat="45.08604" lon="1.26481">
        <ele>153.1</ele>
        <time>2023-10-28T13:41:37Z</time>
      </trkpt>
      <trkpt lat="45.08604" lon="1.2648">
        <ele>153.3</ele>
        <time>2023-10-28T13:41:38Z</time>
      </trkpt>
      <trkpt lat="45.08603" lon="1.26479">
        <ele>153.6</ele>
        <time>2023-10-28T13:41:39Z</time>
      </trkpt>
      <trkpt lat="45.08602" lon="1.26477">
        <ele>153.7</ele>
        <time>2023-10-28T13:41:40Z</time>
      </trkpt>
      <trkpt lat="45.08601" lon="1.26476">
        <ele>154</ele>
        <time>2023-10-28T13:41:41Z</time>
      </trkpt>
      <trkpt lat="45.086" lon="1.26475">
        <ele>154.1</ele>
        <time>2023-10-28T13:41:42Z</time>
      </trkpt>
      <trkpt lat="45.08599" lon="1.26473">
        <ele>154.3</ele>
        <time>2023-10-28T13:41:43Z</time>
      </trkpt>
      <trkpt lat="45.08598" lon="1.26472">
        <ele>154.5</ele>
        <time>2023-10-28T13:41:44Z</time>
      </trkpt>
      <trkpt lat="45.08598" lon="1.26471">
        <ele>154.7</ele>
        <time>2023-10-28T13:41:45Z</time>
      </trkpt>
      <trkpt lat="45.08597" lon="1.2647">
        <ele>154.8</ele>
        <time>2023-10-28T13:41:46Z</time>
      </trkpt>
      <trkpt lat="45.08596" lon="1.26468">
        <ele>155</ele>
        <time>2023-10-28T13:41:47Z</time>
      </trkpt>
      <trkpt lat="45.08595" lon="1.26467">
        <ele>155.2</ele>
        <time>2023-10-28T13:41:48Z</time>
      </trkpt>
      <trkpt lat="45.08594" lon="1.26466">
        <ele>155.4</ele>
        <time>2023-10-28T13:41:49Z</time>
      </trkpt>
      <trkpt lat="45.08593" lon="1.26464">
        <ele>155.6</ele>
        <time>2023-10-28T13:41:50Z</time>
      </trkpt>
      <trkpt lat="45.08592" lon="1.26463">
        <ele>155.8</ele>
        <time>2023-10-28T13:41:51Z</time>
      </trkpt>
      <trkpt lat="45.08591" lon="1.26462">
        <ele>156</ele>
        <time>2023-10-28T13:41:52Z</time>
      </trkpt>
      <trkpt lat="45.0859" lon="1.26461">
        <ele>156.2</ele>
        <time>2023-10-28T13:41:53Z</time>
      </trkpt>
      <trkpt lat="45.08588" lon="1.2646">
        <ele>156.5</ele>
        <time>2023-10-28T13:41:54Z</time>
      </trkpt>
      <trkpt lat="45.08587" lon="1.26458">
        <ele>156.7</ele>
        <time>2023-10-28T13:41:55Z</time>
      </trkpt>
      <trkpt lat="45.08586" lon="1.26457">
        <ele>156.9</ele>
        <time>2023-10-28T13:41:56Z</time>
      </trkpt>
      <trkpt lat="45.08585" lon="1.26456">
        <ele>157.1</ele>
        <time>2023-10-28T13:41:57Z</time>
      </trkpt>
      <trkpt lat="45.08583" lon="1.26455">
        <ele>157.3</ele>
        <time>2023-10-28T13:41:58Z</time>
      </trkpt>
      <trkpt lat="45.08582" lon="1.26454">
        <ele>157.5</ele>
        <time>2023-10-28T13:41:59Z</time>
      </trkpt>
      <trkpt lat="45.08581" lon="1.26454">
        <ele>157.7</ele>
        <time>2023-10-28T13:42:00Z</time>
      </trkpt>
      <trkpt lat="45.08579" lon="1.26453">
        <ele>157.9</ele>
        <time>2023-10-28T13:42:01Z</time>
      </trkpt>
      <trkpt lat="45.08578" lon="1.26453">
        <ele>158</ele>
        <time>2023-10-28T13:42:02Z</time>
      </trkpt>
      <trkpt lat="45.08577" lon="1.26453">
        <ele>158.2</ele>
        <time>2023-10-28T13:42:03Z</time>
      </trkpt>
      <trkpt lat="45.08575" lon="1.26453">
        <ele>158.4</ele>
        <time>2023-10-28T13:42:04Z</time>
      </trkpt>
      <trkpt lat="45.08574" lon="1.26453">
        <ele>158.6</ele>
        <time>2023-10-28T13:42:05Z</time>
      </trkpt>
      <trkpt lat="45.08572" lon="1.26453">
        <ele>158.7</ele>
        <time>2023-10-28T13:42:06Z</time>
      </trkpt>
      <trkpt lat="45.08571" lon="1.26453">
        <ele>158.9</ele>
        <time>2023-10-28T13:42:07Z</time>
      </trkpt>
      <trkpt lat="45.0857" lon="1.26452">
        <ele>159</ele>
        <time>2023-10-28T13:42:08Z</time>
      </trkpt>
      <trkpt lat="45.08569" lon="1.26452">
        <ele>159.2</ele>
        <time>2023-10-28T13:42:09Z</time>
      </trkpt>
      <trkpt lat="45.08567" lon="1.26451">
        <ele>159.3</ele>
        <time>2023-10-28T13:42:10Z</time>
      </trkpt>
      <trkpt lat="45.08566" lon="1.2645">
        <ele>159.5</ele>
        <time>2023-10-28T13:42:11Z</time>
      </trkpt>
      <trkpt lat="45.08564" lon="1.26449">
        <ele>159.6</ele>
        <time>2023-10-28T13:42:12Z</time>
      </trkpt>
      <trkpt lat="45.08563" lon="1.26448">
        <ele>159.8</ele>
        <time>2023-10-28T13:42:13Z</time>
      </trkpt>
      <trkpt lat="45.08561" lon="1.26446">
        <ele>160</ele>
        <time>2023-10-28T13:42:14Z</time>
      </trkpt>
      <trkpt lat="45.0856" lon="1.26444">
        <ele>160.1</ele>
        <time>2023-10-28T13:42:15Z</time>
      </trkpt>
      <trkpt lat="45.08559" lon="1.26443">
        <ele>160.3</ele>
        <time>2023-10-28T13:42:16Z</time>
      </trkpt>
      <trkpt lat="45.08557" lon="1.26441">
        <ele>160.4</ele>
        <time>2023-10-28T13:42:17Z</time>
      </trkpt>
      <trkpt lat="45.08556" lon="1.26439">
        <ele>160.5</ele>
        <time>2023-10-28T13:42:18Z</time>
      </trkpt>
      <trkpt lat="45.08555" lon="1.26437">
        <ele>160.7</ele>
        <time>2023-10-28T13:42:19Z</time>
      </trkpt>
      <trkpt lat="45.08553" lon="1.26436">
        <ele>160.8</ele>
        <time>2023-10-28T13:42:20Z</time>
      </trkpt>
      <trkpt lat="45.08552" lon="1.26434">
        <ele>160.9</ele>
        <time>2023-10-28T13:42:21Z</time>
      </trkpt>
      <trkpt lat="45.08551" lon="1.26433">
        <ele>161</ele>
        <time>2023-10-28T13:42:22Z</time>
      </trkpt>
      <trkpt lat="45.0855" lon="1.26431">
        <ele>161.1</ele>
        <time>2023-10-28T13:42:23Z</time>
      </trkpt>
      <trkpt lat="45.08549" lon="1.2643">
        <ele>161.2</ele>
        <time>2023-10-28T13:42:24Z</time>
      </trkpt>
      <trkpt lat="45.08548" lon="1.26428">
        <ele>161.3</ele>
        <time>2023-10-28T13:42:25Z</time>
      </trkpt>
      <trkpt lat="45.08548" lon="1.26427">
        <ele>161.4</ele>
        <time>2023-10-28T13:42:26Z</time>
      </trkpt>
      <trkpt lat="45.08547" lon="1.26425">
        <ele>161.5</ele>
        <time>2023-10-28T13:42:27Z</time>
      </trkpt>
      <trkpt lat="45.08547" lon="1.26424">
        <ele>161.5</ele>
        <time>2023-10-28T13:42:28Z</time>
      </trkpt>
      <trkpt lat="45.08546" lon="1.26422">
        <ele>161.7</ele>
        <time>2023-10-28T13:42:29Z</time>
      </trkpt>
      <trkpt lat="45.08546" lon="1.2642">
        <ele>161.7</ele>
        <time>2023-10-28T13:42:30Z</time>
      </trkpt>
      <trkpt lat="45.08545" lon="1.26419">
        <ele>161.9</ele>
        <time>2023-10-28T13:42:31Z</time>
      </trkpt>
      <trkpt lat="45.08544" lon="1.26417">
        <ele>162</ele>
        <time>2023-10-28T13:42:32Z</time>
      </trkpt>
      <trkpt lat="45.08543" lon="1.26415">
        <ele>162.1</ele>
        <time>2023-10-28T13:42:33Z</time>
      </trkpt>
      <trkpt lat="45.08543" lon="1.26413">
        <ele>162.2</ele>
        <time>2023-10-28T13:42:34Z</time>
      </trkpt>
      <trkpt lat="45.08542" lon="1.26411">
        <ele>162.3</ele>
        <time>2023-10-28T13:42:35Z</time>
      </trkpt>
      <trkpt lat="45.08542" lon="1.26409">
        <ele>162.4</ele>
        <time>2023-10-28T13:42:36Z</time>
      </trkpt>
      <trkpt lat="45.08542" lon="1.26408">
        <ele>162.5</ele>
        <time>2023-10-28T13:42:37Z</time>
      </trkpt>
      <trkpt lat="45.08541" lon="1.26406">
        <ele>162.6</ele>
        <time>2023-10-28T13:42:38Z</time>
      </trkpt>
      <trkpt lat="45.08541" lon="1.26404">
        <ele>162.8</ele>
        <time>2023-10-28T13:42:39Z</time>
      </trkpt>
      <trkpt lat="45.08541" lon="1.26402">
        <ele>162.9</ele>
        <time>2023-10-28T13:42:40Z</time>
      </trkpt>
      <trkpt lat="45.0854" lon="1.264">
        <ele>163</ele>
        <time>2023-10-28T13:42:41Z</time>
      </trkpt>
      <trkpt lat="45.0854" lon="1.26398">
        <ele>163.1</ele>
        <time>2023-10-28T13:42:42Z</time>
      </trkpt>
      <trkpt lat="45.0854" lon="1.26396">
        <ele>163.2</ele>
        <time>2023-10-28T13:42:43Z</time>
      </trkpt>
      <trkpt lat="45.0854" lon="1.26394">
        <ele>163.4</ele>
        <time>2023-10-28T13:42:44Z</time>
      </trkpt>
      <trkpt lat="45.0854" lon="1.26391">
        <ele>163.6</ele>
        <time>2023-10-28T13:42:45Z</time>
      </trkpt>
      <trkpt lat="45.0854" lon="1.26389">
        <ele>163.7</ele>
        <time>2023-10-28T13:42:46Z</time>
      </trkpt>
      <trkpt lat="45.0854" lon="1.26387">
        <ele>164</ele>
        <time>2023-10-28T13:42:47Z</time>
      </trkpt>
      <trkpt lat="45.0854" lon="1.26384">
        <ele>164.2</ele>
        <time>2023-10-28T13:42:48Z</time>
      </trkpt>
      <trkpt lat="45.0854" lon="1.26382">
        <ele>164.4</ele>
        <time>2023-10-28T13:42:49Z</time>
      </trkpt>
      <trkpt lat="45.0854" lon="1.2638">
        <ele>164.6</ele>
        <time>2023-10-28T13:42:50Z</time>
      </trkpt>
      <trkpt lat="45.0854" lon="1.26377">
        <ele>164.8</ele>
        <time>2023-10-28T13:42:51Z</time>
      </trkpt>
      <trkpt lat="45.08539" lon="1.26375">
        <ele>165.1</ele>
        <time>2023-10-28T13:42:52Z</time>
      </trkpt>
      <trkpt lat="45.08539" lon="1.26373">
        <ele>165.3</ele>
        <time>2023-10-28T13:42:53Z</time>
      </trkpt>
      <trkpt lat="45.08539" lon="1.2637">
        <ele>165.5</ele>
        <time>2023-10-28T13:42:54Z</time>
      </trkpt>
      <trkpt lat="45.08538" lon="1.26368">
        <ele>165.7</ele>
        <time>2023-10-28T13:42:55Z</time>
      </trkpt>
      <trkpt lat="45.08538" lon="1.26367">
        <ele>165.9</ele>
        <time>2023-10-28T13:42:56Z</time>
      </trkpt>
      <trkpt lat="45.08538" lon="1.26365">
        <ele>166</ele>
        <time>2023-10-28T13:42:57Z</time>
      </trkpt>
      <trkpt lat="45.08538" lon="1.26363">
        <ele>166.2</ele>
        <time>2023-10-28T13:42:58Z</time>
      </trkpt>
      <trkpt lat="45.08538" lon="1.26361">
        <ele>166.4</ele>
        <time>2023-10-28T13:42:59Z</time>
      </trkpt>
      <trkpt lat="45.08538" lon="1.26359">
        <ele>166.6</ele>
        <time>2023-10-28T13:43:00Z</time>
      </trkpt>
      <trkpt lat="45.08538" lon="1.26357">
        <ele>166.8</ele>
        <time>2023-10-28T13:43:01Z</time>
      </trkpt>
      <trkpt lat="45.08537" lon="1.26355">
        <ele>167</ele>
        <time>2023-10-28T13:43:02Z</time>
      </trkpt>
      <trkpt lat="45.08537" lon="1.26353">
        <ele>167.2</ele>
        <time>2023-10-28T13:43:03Z</time>
      </trkpt>
      <trkpt lat="45.08537" lon="1.26351">
        <ele>167.4</ele>
        <time>2023-10-28T13:43:04Z</time>
      </trkpt>
      <trkpt lat="45.08537" lon="1.26348">
        <ele>167.6</ele>
        <time>2023-10-28T13:43:05Z</time>
      </trkpt>
      <trkpt lat="45.08536" lon="1.26346">
        <ele>167.9</ele>
        <time>2023-10-28T13:43:06Z</time>
      </trkpt>
      <trkpt lat="45.08536" lon="1.26344">
        <ele>168.1</ele>
        <time>2023-10-28T13:43:07Z</time>
      </trkpt>
      <trkpt lat="45.08536" lon="1.26342">
        <ele>168.3</ele>
        <time>2023-10-28T13:43:08Z</time>
      </trkpt>
      <trkpt lat="45.08536" lon="1.26339">
        <ele>168.5</ele>
        <time>2023-10-28T13:43:09Z</time>
      </trkpt>
      <trkpt lat="45.08535" lon="1.26337">
        <ele>168.7</ele>
        <time>2023-10-28T13:43:10Z</time>
      </trkpt>
      <trkpt lat="45.08535" lon="1.26334">
        <ele>169</ele>
        <time>2023-10-28T13:43:11Z</time>
      </trkpt>
      <trkpt lat="45.08535" lon="1.26332">
        <ele>169.2</ele>
        <time>2023-10-28T13:43:12Z</time>
      </trkpt>
      <trkpt lat="45.08535" lon="1.26329">
        <ele>169.4</ele>
        <time>2023-10-28T13:43:13Z</time>
      </trkpt>
      <trkpt lat="45.08534" lon="1.26327">
        <ele>169.6</ele>
        <time>2023-10-28T13:43:14Z</time>
      </trkpt>
      <trkpt lat="45.08534" lon="1.26325">
        <ele>169.8</ele>
        <time>2023-10-28T13:43:15Z</time>
      </trkpt>
      <trkpt lat="45.08534" lon="1.26322">
        <ele>170</ele>
        <time>2023-10-28T13:43:16Z</time>
      </trkpt>
      <trkpt lat="45.08534" lon="1.2632">
        <ele>170.2</ele>
        <time>2023-10-28T13:43:17Z</time>
      </trkpt>
      <trkpt lat="45.08534" lon="1.26318">
        <ele>170.4</ele>
        <time>2023-10-28T13:43:18Z</time>
      </trkpt>
      <trkpt lat="45.08534" lon="1.26316">
        <ele>170.5</ele>
        <time>2023-10-28T13:43:19Z</time>
      </trkpt>
      <trkpt lat="45.08534" lon="1.26314">
        <ele>170.7</ele>
        <time>2023-10-28T13:43:20Z</time>
      </trkpt>
      <trkpt lat="45.08533" lon="1.26312">
        <ele>170.8</ele>
        <time>2023-10-28T13:43:21Z</time>
      </trkpt>
      <trkpt lat="45.08533" lon="1.2631">
        <ele>171</ele>
        <time>2023-10-28T13:43:22Z</time>
      </trkpt>
      <trkpt lat="45.08533" lon="1.26309">
        <ele>171.1</ele>
        <time>2023-10-28T13:43:23Z</time>
      </trkpt>
      <trkpt lat="45.08533" lon="1.26307">
        <ele>171.2</ele>
        <time>2023-10-28T13:43:24Z</time>
      </trkpt>
      <trkpt lat="45.08533" lon="1.26306">
        <ele>171.3</ele>
        <time>2023-10-28T13:43:25Z</time>
      </trkpt>
      <trkpt lat="45.08532" lon="1.26304">
        <ele>171.5</ele>
        <time>2023-10-28T13:43:26Z</time>
      </trkpt>
      <trkpt lat="45.08532" lon="1.26303">
        <ele>171.6</ele>
        <time>2023-10-28T13:43:27Z</time>
      </trkpt>
      <trkpt lat="45.08532" lon="1.26301">
        <ele>171.7</ele>
        <time>2023-10-28T13:43:28Z</time>
      </trkpt>
      <trkpt lat="45.08532" lon="1.26299">
        <ele>171.9</ele>
        <time>2023-10-28T13:43:29Z</time>
      </trkpt>
      <trkpt lat="45.08532" lon="1.26298">
        <ele>172</ele>
        <time>2023-10-28T13:43:30Z</time>
      </trkpt>
      <trkpt lat="45.08532" lon="1.26295">
        <ele>172.2</ele>
        <time>2023-10-28T13:43:31Z</time>
      </trkpt>
      <trkpt lat="45.08532" lon="1.26293">
        <ele>172.3</ele>
        <time>2023-10-28T13:43:32Z</time>
      </trkpt>
      <trkpt lat="45.08532" lon="1.26291">
        <ele>172.5</ele>
        <time>2023-10-28T13:43:33Z</time>
      </trkpt>
      <trkpt lat="45.08532" lon="1.26289">
        <ele>172.7</ele>
        <time>2023-10-28T13:43:34Z</time>
      </trkpt>
      <trkpt lat="45.08532" lon="1.26286">
        <ele>172.9</ele>
        <time>2023-10-28T13:43:35Z</time>
      </trkpt>
      <trkpt lat="45.08532" lon="1.26284">
        <ele>173</ele>
        <time>2023-10-28T13:43:36Z</time>
      </trkpt>
      <trkpt lat="45.08532" lon="1.26281">
        <ele>173.2</ele>
        <time>2023-10-28T13:43:37Z</time>
      </trkpt>
      <trkpt lat="45.08532" lon="1.26279">
        <ele>173.4</ele>
        <time>2023-10-28T13:43:38Z</time>
      </trkpt>
      <trkpt lat="45.08531" lon="1.26276">
        <ele>173.5</ele>
        <time>2023-10-28T13:43:39Z</time>
      </trkpt>
      <trkpt lat="45.08531" lon="1.26274">
        <ele>173.7</ele>
        <time>2023-10-28T13:43:40Z</time>
      </trkpt>
      <trkpt lat="45.08531" lon="1.26272">
        <ele>173.9</ele>
        <time>2023-10-28T13:43:41Z</time>
      </trkpt>
      <trkpt lat="45.0853" lon="1.2627">
        <ele>174</ele>
        <time>2023-10-28T13:43:42Z</time>
      </trkpt>
      <trkpt lat="45.0853" lon="1.26268">
        <ele>174.1</ele>
        <time>2023-10-28T13:43:43Z</time>
      </trkpt>
      <trkpt lat="45.0853" lon="1.26266">
        <ele>174.3</ele>
        <time>2023-10-28T13:43:44Z</time>
      </trkpt>
      <trkpt lat="45.08529" lon="1.26264">
        <ele>174.4</ele>
        <time>2023-10-28T13:43:45Z</time>
      </trkpt>
      <trkpt lat="45.08529" lon="1.26262">
        <ele>174.5</ele>
        <time>2023-10-28T13:43:46Z</time>
      </trkpt>
      <trkpt lat="45.08527" lon="1.26261">
        <ele>174.6</ele>
        <time>2023-10-28T13:43:47Z</time>
      </trkpt>
      <trkpt lat="45.08526" lon="1.2626">
        <ele>174.7</ele>
        <time>2023-10-28T13:43:48Z</time>
      </trkpt>
      <trkpt lat="45.08525" lon="1.26258">
        <ele>174.9</ele>
        <time>2023-10-28T13:43:49Z</time>
      </trkpt>
      <trkpt lat="45.08523" lon="1.26256">
        <ele>175</ele>
        <time>2023-10-28T13:43:50Z</time>
      </trkpt>
      <trkpt lat="45.08522" lon="1.26254">
        <ele>175.2</ele>
        <time>2023-10-28T13:43:51Z</time>
      </trkpt>
      <trkpt lat="45.08521" lon="1.26251">
        <ele>175.3</ele>
        <time>2023-10-28T13:43:52Z</time>
      </trkpt>
      <trkpt lat="45.0852" lon="1.26248">
        <ele>175.5</ele>
        <time>2023-10-28T13:43:53Z</time>
      </trkpt>
      <trkpt lat="45.08519" lon="1.26245">
        <ele>175.6</ele>
        <time>2023-10-28T13:43:54Z</time>
      </trkpt>
      <trkpt lat="45.08518" lon="1.26241">
        <ele>175.8</ele>
        <time>2023-10-28T13:43:55Z</time>
      </trkpt>
      <trkpt lat="45.08518" lon="1.26238">
        <ele>175.9</ele>
        <time>2023-10-28T13:43:56Z</time>
      </trkpt>
      <trkpt lat="45.08518" lon="1.26234">
        <ele>176</ele>
        <time>2023-10-28T13:43:57Z</time>
      </trkpt>
      <trkpt lat="45.08518" lon="1.2623">
        <ele>176.2</ele>
        <time>2023-10-28T13:43:58Z</time>
      </trkpt>
      <trkpt lat="45.08517" lon="1.26227">
        <ele>176.3</ele>
        <time>2023-10-28T13:43:59Z</time>
      </trkpt>
      <trkpt lat="45.08517" lon="1.26223">
        <ele>176.3</ele>
        <time>2023-10-28T13:44:00Z</time>
      </trkpt>
      <trkpt lat="45.08517" lon="1.2622">
        <ele>176.4</ele>
        <time>2023-10-28T13:44:01Z</time>
      </trkpt>
      <trkpt lat="45.08517" lon="1.26216">
        <ele>176.5</ele>
        <time>2023-10-28T13:44:02Z</time>
      </trkpt>
      <trkpt lat="45.08517" lon="1.26213">
        <ele>176.5</ele>
        <time>2023-10-28T13:44:03Z</time>
      </trkpt>
      <trkpt lat="45.08516" lon="1.2621">
        <ele>176.5</ele>
        <time>2023-10-28T13:44:04Z</time>
      </trkpt>
      <trkpt lat="45.08516" lon="1.26206">
        <ele>176.6</ele>
        <time>2023-10-28T13:44:05Z</time>
      </trkpt>
      <trkpt lat="45.08516" lon="1.26203">
        <ele>176.6</ele>
        <time>2023-10-28T13:44:06Z</time>
      </trkpt>
      <trkpt lat="45.08515" lon="1.262">
        <ele>176.6</ele>
        <time>2023-10-28T13:44:07Z</time>
      </trkpt>
      <trkpt lat="45.08515" lon="1.26196">
        <ele>176.6</ele>
        <time>2023-10-28T13:44:08Z</time>
      </trkpt>
      <trkpt lat="45.08515" lon="1.26193">
        <ele>176.6</ele>
        <time>2023-10-28T13:44:09Z</time>
      </trkpt>
      <trkpt lat="45.08514" lon="1.2619">
        <ele>176.6</ele>
        <time>2023-10-28T13:44:10Z</time>
      </trkpt>
      <trkpt lat="45.08514" lon="1.26186">
        <ele>176.6</ele>
        <time>2023-10-28T13:44:11Z</time>
      </trkpt>
      <trkpt lat="45.08514" lon="1.26183">
        <ele>176.5</ele>
        <time>2023-10-28T13:44:12Z</time>
      </trkpt>
      <trkpt lat="45.08514" lon="1.2618">
        <ele>176.5</ele>
        <time>2023-10-28T13:44:13Z</time>
      </trkpt>
      <trkpt lat="45.08513" lon="1.26176">
        <ele>176.5</ele>
        <time>2023-10-28T13:44:14Z</time>
      </trkpt>
      <trkpt lat="45.08513" lon="1.26173">
        <ele>176.4</ele>
        <time>2023-10-28T13:44:15Z</time>
      </trkpt>
      <trkpt lat="45.08512" lon="1.2617">
        <ele>176.4</ele>
        <time>2023-10-28T13:44:16Z</time>
      </trkpt>
      <trkpt lat="45.08512" lon="1.26166">
        <ele>176.3</ele>
        <time>2023-10-28T13:44:17Z</time>
      </trkpt>
      <trkpt lat="45.08512" lon="1.26163">
        <ele>176.3</ele>
        <time>2023-10-28T13:44:18Z</time>
      </trkpt>
      <trkpt lat="45.08511" lon="1.2616">
        <ele>176.2</ele>
        <time>2023-10-28T13:44:19Z</time>
      </trkpt>
      <trkpt lat="45.08511" lon="1.26156">
        <ele>176.2</ele>
        <time>2023-10-28T13:44:20Z</time>
      </trkpt>
      <trkpt lat="45.08511" lon="1.26153">
        <ele>176.1</ele>
        <time>2023-10-28T13:44:21Z</time>
      </trkpt>
      <trkpt lat="45.08511" lon="1.2615">
        <ele>176</ele>
        <time>2023-10-28T13:44:22Z</time>
      </trkpt>
      <trkpt lat="45.08511" lon="1.26147">
        <ele>175.9</ele>
        <time>2023-10-28T13:44:23Z</time>
      </trkpt>
      <trkpt lat="45.0851" lon="1.26143">
        <ele>175.9</ele>
        <time>2023-10-28T13:44:24Z</time>
      </trkpt>
      <trkpt lat="45.0851" lon="1.2614">
        <ele>175.8</ele>
        <time>2023-10-28T13:44:25Z</time>
      </trkpt>
      <trkpt lat="45.0851" lon="1.26137">
        <ele>175.7</ele>
        <time>2023-10-28T13:44:26Z</time>
      </trkpt>
      <trkpt lat="45.0851" lon="1.26134">
        <ele>175.7</ele>
        <time>2023-10-28T13:44:27Z</time>
      </trkpt>
      <trkpt lat="45.08511" lon="1.2613">
        <ele>175.6</ele>
        <time>2023-10-28T13:44:28Z</time>
      </trkpt>
      <trkpt lat="45.08511" lon="1.26127">
        <ele>175.5</ele>
        <time>2023-10-28T13:44:29Z</time>
      </trkpt>
      <trkpt lat="45.08511" lon="1.26123">
        <ele>175.4</ele>
        <time>2023-10-28T13:44:30Z</time>
      </trkpt>
      <trkpt lat="45.08511" lon="1.2612">
        <ele>175.3</ele>
        <time>2023-10-28T13:44:31Z</time>
      </trkpt>
      <trkpt lat="45.08511" lon="1.26117">
        <ele>175.2</ele>
        <time>2023-10-28T13:44:32Z</time>
      </trkpt>
      <trkpt lat="45.08512" lon="1.26113">
        <ele>175.1</ele>
        <time>2023-10-28T13:44:33Z</time>
      </trkpt>
      <trkpt lat="45.08512" lon="1.2611">
        <ele>175</ele>
        <time>2023-10-28T13:44:34Z</time>
      </trkpt>
      <trkpt lat="45.08513" lon="1.26107">
        <ele>174.9</ele>
        <time>2023-10-28T13:44:35Z</time>
      </trkpt>
      <trkpt lat="45.08513" lon="1.26103">
        <ele>174.7</ele>
        <time>2023-10-28T13:44:36Z</time>
      </trkpt>
      <trkpt lat="45.08514" lon="1.261">
        <ele>174.6</ele>
        <time>2023-10-28T13:44:37Z</time>
      </trkpt>
      <trkpt lat="45.08514" lon="1.26097">
        <ele>174.5</ele>
        <time>2023-10-28T13:44:38Z</time>
      </trkpt>
      <trkpt lat="45.08515" lon="1.26094">
        <ele>174.3</ele>
        <time>2023-10-28T13:44:39Z</time>
      </trkpt>
      <trkpt lat="45.08516" lon="1.2609">
        <ele>174.2</ele>
        <time>2023-10-28T13:44:40Z</time>
      </trkpt>
      <trkpt lat="45.08516" lon="1.26087">
        <ele>174.1</ele>
        <time>2023-10-28T13:44:41Z</time>
      </trkpt>
      <trkpt lat="45.08517" lon="1.26084">
        <ele>173.9</ele>
        <time>2023-10-28T13:44:42Z</time>
      </trkpt>
      <trkpt lat="45.08518" lon="1.26081">
        <ele>173.8</ele>
        <time>2023-10-28T13:44:43Z</time>
      </trkpt>
      <trkpt lat="45.08518" lon="1.26077">
        <ele>173.7</ele>
        <time>2023-10-28T13:44:44Z</time>
      </trkpt>
      <trkpt lat="45.08519" lon="1.26074">
        <ele>173.5</ele>
        <time>2023-10-28T13:44:45Z</time>
      </trkpt>
      <trkpt lat="45.08519" lon="1.2607">
        <ele>173.4</ele>
        <time>2023-10-28T13:44:46Z</time>
      </trkpt>
      <trkpt lat="45.08519" lon="1.26067">
        <ele>173.3</ele>
        <time>2023-10-28T13:44:47Z</time>
      </trkpt>
      <trkpt lat="45.08519" lon="1.26064">
        <ele>173.3</ele>
        <time>2023-10-28T13:44:48Z</time>
      </trkpt>
      <trkpt lat="45.08519" lon="1.2606">
        <ele>173.2</ele>
        <time>2023-10-28T13:44:49Z</time>
      </trkpt>
      <trkpt lat="45.08519" lon="1.26057">
        <ele>173.2</ele>
        <time>2023-10-28T13:44:50Z</time>
      </trkpt>
      <trkpt lat="45.08519" lon="1.26054">
        <ele>173.2</ele>
        <time>2023-10-28T13:44:51Z</time>
      </trkpt>
      <trkpt lat="45.08519" lon="1.26051">
        <ele>173.2</ele>
        <time>2023-10-28T13:44:52Z</time>
      </trkpt>
      <trkpt lat="45.08519" lon="1.26047">
        <ele>173.2</ele>
        <time>2023-10-28T13:44:53Z</time>
      </trkpt>
      <trkpt lat="45.08519" lon="1.26044">
        <ele>173.2</ele>
        <time>2023-10-28T13:44:54Z</time>
      </trkpt>
      <trkpt lat="45.08519" lon="1.26041">
        <ele>173.2</ele>
        <time>2023-10-28T13:44:55Z</time>
      </trkpt>
      <trkpt lat="45.08519" lon="1.26038">
        <ele>173.2</ele>
        <time>2023-10-28T13:44:56Z</time>
      </trkpt>
      <trkpt lat="45.08519" lon="1.26035">
        <ele>173.2</ele>
        <time>2023-10-28T13:44:57Z</time>
      </trkpt>
      <trkpt lat="45.0852" lon="1.26032">
        <ele>173.2</ele>
        <time>2023-10-28T13:44:58Z</time>
      </trkpt>
      <trkpt lat="45.0852" lon="1.2603">
        <ele>173.3</ele>
        <time>2023-10-28T13:44:59Z</time>
      </trkpt>
      <trkpt lat="45.08521" lon="1.26027">
        <ele>173.3</ele>
        <time>2023-10-28T13:45:00Z</time>
      </trkpt>
      <trkpt lat="45.08521" lon="1.26025">
        <ele>173.3</ele>
        <time>2023-10-28T13:45:01Z</time>
      </trkpt>
      <trkpt lat="45.08521" lon="1.26023">
        <ele>173.3</ele>
        <time>2023-10-28T13:45:02Z</time>
      </trkpt>
      <trkpt lat="45.08521" lon="1.2602">
        <ele>173.4</ele>
        <time>2023-10-28T13:45:03Z</time>
      </trkpt>
      <trkpt lat="45.08521" lon="1.26018">
        <ele>173.4</ele>
        <time>2023-10-28T13:45:04Z</time>
      </trkpt>
      <trkpt lat="45.08521" lon="1.26015">
        <ele>173.5</ele>
        <time>2023-10-28T13:45:05Z</time>
      </trkpt>
      <trkpt lat="45.08521" lon="1.26012">
        <ele>173.5</ele>
        <time>2023-10-28T13:45:06Z</time>
      </trkpt>
      <trkpt lat="45.08521" lon="1.26009">
        <ele>173.6</ele>
        <time>2023-10-28T13:45:07Z</time>
      </trkpt>
      <trkpt lat="45.08521" lon="1.26006">
        <ele>173.7</ele>
        <time>2023-10-28T13:45:08Z</time>
      </trkpt>
      <trkpt lat="45.0852" lon="1.26002">
        <ele>173.8</ele>
        <time>2023-10-28T13:45:09Z</time>
      </trkpt>
      <trkpt lat="45.0852" lon="1.25999">
        <ele>173.9</ele>
        <time>2023-10-28T13:45:10Z</time>
      </trkpt>
      <trkpt lat="45.08521" lon="1.25996">
        <ele>174</ele>
        <time>2023-10-28T13:45:11Z</time>
      </trkpt>
      <trkpt lat="45.08521" lon="1.25993">
        <ele>174.1</ele>
        <time>2023-10-28T13:45:12Z</time>
      </trkpt>
      <trkpt lat="45.08521" lon="1.2599">
        <ele>174.2</ele>
        <time>2023-10-28T13:45:13Z</time>
      </trkpt>
      <trkpt lat="45.08521" lon="1.25987">
        <ele>174.3</ele>
        <time>2023-10-28T13:45:14Z</time>
      </trkpt>
      <trkpt lat="45.08521" lon="1.25984">
        <ele>174.4</ele>
        <time>2023-10-28T13:45:15Z</time>
      </trkpt>
      <trkpt lat="45.08521" lon="1.25982">
        <ele>174.6</ele>
        <time>2023-10-28T13:45:16Z</time>
      </trkpt>
      <trkpt lat="45.08521" lon="1.25979">
        <ele>174.7</ele>
        <time>2023-10-28T13:45:17Z</time>
      </trkpt>
      <trkpt lat="45.08521" lon="1.25976">
        <ele>174.9</ele>
        <time>2023-10-28T13:45:18Z</time>
      </trkpt>
      <trkpt lat="45.0852" lon="1.25973">
        <ele>175</ele>
        <time>2023-10-28T13:45:19Z</time>
      </trkpt>
      <trkpt lat="45.0852" lon="1.25971">
        <ele>175.2</ele>
        <time>2023-10-28T13:45:20Z</time>
      </trkpt>
      <trkpt lat="45.0852" lon="1.25968">
        <ele>175.3</ele>
        <time>2023-10-28T13:45:21Z</time>
      </trkpt>
      <trkpt lat="45.08519" lon="1.25965">
        <ele>175.5</ele>
        <time>2023-10-28T13:45:22Z</time>
      </trkpt>
      <trkpt lat="45.08519" lon="1.25962">
        <ele>175.7</ele>
        <time>2023-10-28T13:45:23Z</time>
      </trkpt>
      <trkpt lat="45.08518" lon="1.25959">
        <ele>175.9</ele>
        <time>2023-10-28T13:45:24Z</time>
      </trkpt>
      <trkpt lat="45.08518" lon="1.25956">
        <ele>176.1</ele>
        <time>2023-10-28T13:45:25Z</time>
      </trkpt>
      <trkpt lat="45.08517" lon="1.25953">
        <ele>176.3</ele>
        <time>2023-10-28T13:45:26Z</time>
      </trkpt>
      <trkpt lat="45.08516" lon="1.25951">
        <ele>176.5</ele>
        <time>2023-10-28T13:45:27Z</time>
      </trkpt>
      <trkpt lat="45.08515" lon="1.25948">
        <ele>176.7</ele>
        <time>2023-10-28T13:45:28Z</time>
      </trkpt>
      <trkpt lat="45.08514" lon="1.25945">
        <ele>176.9</ele>
        <time>2023-10-28T13:45:29Z</time>
      </trkpt>
      <trkpt lat="45.08514" lon="1.25943">
        <ele>177.1</ele>
        <time>2023-10-28T13:45:30Z</time>
      </trkpt>
      <trkpt lat="45.08513" lon="1.2594">
        <ele>177.3</ele>
        <time>2023-10-28T13:45:31Z</time>
      </trkpt>
      <trkpt lat="45.08511" lon="1.25937">
        <ele>177.5</ele>
        <time>2023-10-28T13:45:32Z</time>
      </trkpt>
      <trkpt lat="45.08511" lon="1.25934">
        <ele>177.7</ele>
        <time>2023-10-28T13:45:33Z</time>
      </trkpt>
      <trkpt lat="45.08509" lon="1.25932">
        <ele>177.9</ele>
        <time>2023-10-28T13:45:34Z</time>
      </trkpt>
      <trkpt lat="45.08508" lon="1.25929">
        <ele>178.1</ele>
        <time>2023-10-28T13:45:35Z</time>
      </trkpt>
      <trkpt lat="45.08507" lon="1.25926">
        <ele>178.3</ele>
        <time>2023-10-28T13:45:36Z</time>
      </trkpt>
      <trkpt lat="45.08506" lon="1.25923">
        <ele>178.4</ele>
        <time>2023-10-28T13:45:37Z</time>
      </trkpt>
      <trkpt lat="45.08505" lon="1.2592">
        <ele>178.6</ele>
        <time>2023-10-28T13:45:38Z</time>
      </trkpt>
      <trkpt lat="45.08504" lon="1.25918">
        <ele>178.8</ele>
        <time>2023-10-28T13:45:39Z</time>
      </trkpt>
      <trkpt lat="45.08503" lon="1.25915">
        <ele>178.9</ele>
        <time>2023-10-28T13:45:40Z</time>
      </trkpt>
      <trkpt lat="45.08501" lon="1.25912">
        <ele>179.1</ele>
        <time>2023-10-28T13:45:41Z</time>
      </trkpt>
      <trkpt lat="45.085" lon="1.25909">
        <ele>179.3</ele>
        <time>2023-10-28T13:45:42Z</time>
      </trkpt>
      <trkpt lat="45.08499" lon="1.25906">
        <ele>179.5</ele>
        <time>2023-10-28T13:45:43Z</time>
      </trkpt>
      <trkpt lat="45.08497" lon="1.25903">
        <ele>179.6</ele>
        <time>2023-10-28T13:45:44Z</time>
      </trkpt>
      <trkpt lat="45.08496" lon="1.259">
        <ele>179.8</ele>
        <time>2023-10-28T13:45:45Z</time>
      </trkpt>
      <trkpt lat="45.08495" lon="1.25897">
        <ele>179.9</ele>
        <time>2023-10-28T13:45:46Z</time>
      </trkpt>
      <trkpt lat="45.08494" lon="1.25894">
        <ele>180</ele>
        <time>2023-10-28T13:45:47Z</time>
      </trkpt>
      <trkpt lat="45.08493" lon="1.25891">
        <ele>180.2</ele>
        <time>2023-10-28T13:45:48Z</time>
      </trkpt>
      <trkpt lat="45.08492" lon="1.25888">
        <ele>180.3</ele>
        <time>2023-10-28T13:45:49Z</time>
      </trkpt>
      <trkpt lat="45.08492" lon="1.25886">
        <ele>180.4</ele>
        <time>2023-10-28T13:45:50Z</time>
      </trkpt>
      <trkpt lat="45.08491" lon="1.25883">
        <ele>180.5</ele>
        <time>2023-10-28T13:45:51Z</time>
      </trkpt>
      <trkpt lat="45.0849" lon="1.25881">
        <ele>180.6</ele>
        <time>2023-10-28T13:45:52Z</time>
      </trkpt>
      <trkpt lat="45.0849" lon="1.25878">
        <ele>180.7</ele>
        <time>2023-10-28T13:45:53Z</time>
      </trkpt>
      <trkpt lat="45.08489" lon="1.25875">
        <ele>180.8</ele>
        <time>2023-10-28T13:45:54Z</time>
      </trkpt>
      <trkpt lat="45.08489" lon="1.25873">
        <ele>180.8</ele>
        <time>2023-10-28T13:45:55Z</time>
      </trkpt>
      <trkpt lat="45.08489" lon="1.25871">
        <ele>180.9</ele>
        <time>2023-10-28T13:45:56Z</time>
      </trkpt>
      <trkpt lat="45.08489" lon="1.25868">
        <ele>181</ele>
        <time>2023-10-28T13:45:57Z</time>
      </trkpt>
      <trkpt lat="45.08489" lon="1.25866">
        <ele>181.1</ele>
        <time>2023-10-28T13:45:58Z</time>
      </trkpt>
      <trkpt lat="45.08489" lon="1.25863">
        <ele>181.1</ele>
        <time>2023-10-28T13:45:59Z</time>
      </trkpt>
      <trkpt lat="45.08489" lon="1.25861">
        <ele>181.2</ele>
        <time>2023-10-28T13:46:00Z</time>
      </trkpt>
      <trkpt lat="45.08488" lon="1.25858">
        <ele>181.3</ele>
        <time>2023-10-28T13:46:01Z</time>
      </trkpt>
      <trkpt lat="45.08488" lon="1.25856">
        <ele>181.4</ele>
        <time>2023-10-28T13:46:02Z</time>
      </trkpt>
      <trkpt lat="45.08489" lon="1.25852">
        <ele>181.5</ele>
        <time>2023-10-28T13:46:03Z</time>
      </trkpt>
      <trkpt lat="45.08489" lon="1.25849">
        <ele>181.5</ele>
        <time>2023-10-28T13:46:04Z</time>
      </trkpt>
      <trkpt lat="45.08489" lon="1.25845">
        <ele>181.6</ele>
        <time>2023-10-28T13:46:05Z</time>
      </trkpt>
      <trkpt lat="45.08489" lon="1.25842">
        <ele>181.7</ele>
        <time>2023-10-28T13:46:06Z</time>
      </trkpt>
      <trkpt lat="45.0849" lon="1.25838">
        <ele>181.8</ele>
        <time>2023-10-28T13:46:07Z</time>
      </trkpt>
      <trkpt lat="45.0849" lon="1.25835">
        <ele>181.9</ele>
        <time>2023-10-28T13:46:08Z</time>
      </trkpt>
      <trkpt lat="45.08491" lon="1.25831">
        <ele>182</ele>
        <time>2023-10-28T13:46:09Z</time>
      </trkpt>
      <trkpt lat="45.08491" lon="1.25828">
        <ele>182.1</ele>
        <time>2023-10-28T13:46:10Z</time>
      </trkpt>
      <trkpt lat="45.08491" lon="1.25825">
        <ele>182.2</ele>
        <time>2023-10-28T13:46:11Z</time>
      </trkpt>
      <trkpt lat="45.08492" lon="1.25821">
        <ele>182.3</ele>
        <time>2023-10-28T13:46:12Z</time>
      </trkpt>
      <trkpt lat="45.08492" lon="1.25818">
        <ele>182.4</ele>
        <time>2023-10-28T13:46:13Z</time>
      </trkpt>
      <trkpt lat="45.08492" lon="1.25815">
        <ele>182.4</ele>
        <time>2023-10-28T13:46:14Z</time>
      </trkpt>
      <trkpt lat="45.08492" lon="1.25812">
        <ele>182.5</ele>
        <time>2023-10-28T13:46:15Z</time>
      </trkpt>
      <trkpt lat="45.08492" lon="1.25809">
        <ele>182.6</ele>
        <time>2023-10-28T13:46:16Z</time>
      </trkpt>
      <trkpt lat="45.08491" lon="1.25806">
        <ele>182.7</ele>
        <time>2023-10-28T13:46:17Z</time>
      </trkpt>
      <trkpt lat="45.08491" lon="1.25803">
        <ele>182.8</ele>
        <time>2023-10-28T13:46:18Z</time>
      </trkpt>
      <trkpt lat="45.08491" lon="1.258">
        <ele>182.8</ele>
        <time>2023-10-28T13:46:19Z</time>
      </trkpt>
      <trkpt lat="45.08491" lon="1.25797">
        <ele>182.9</ele>
        <time>2023-10-28T13:46:20Z</time>
      </trkpt>
      <trkpt lat="45.0849" lon="1.25794">
        <ele>183</ele>
        <time>2023-10-28T13:46:21Z</time>
      </trkpt>
      <trkpt lat="45.0849" lon="1.25791">
        <ele>183.1</ele>
        <time>2023-10-28T13:46:22Z</time>
      </trkpt>
      <trkpt lat="45.0849" lon="1.25788">
        <ele>183.1</ele>
        <time>2023-10-28T13:46:23Z</time>
      </trkpt>
      <trkpt lat="45.0849" lon="1.25785">
        <ele>183.2</ele>
        <time>2023-10-28T13:46:24Z</time>
      </trkpt>
      <trkpt lat="45.0849" lon="1.25782">
        <ele>183.3</ele>
        <time>2023-10-28T13:46:25Z</time>
      </trkpt>
      <trkpt lat="45.0849" lon="1.25779">
        <ele>183.4</ele>
        <time>2023-10-28T13:46:26Z</time>
      </trkpt>
      <trkpt lat="45.08489" lon="1.25776">
        <ele>183.5</ele>
        <time>2023-10-28T13:46:27Z</time>
      </trkpt>
      <trkpt lat="45.08489" lon="1.25773">
        <ele>183.5</ele>
        <time>2023-10-28T13:46:28Z</time>
      </trkpt>
      <trkpt lat="45.08489" lon="1.2577">
        <ele>183.6</ele>
        <time>2023-10-28T13:46:29Z</time>
      </trkpt>
      <trkpt lat="45.08489" lon="1.25768">
        <ele>183.7</ele>
        <time>2023-10-28T13:46:30Z</time>
      </trkpt>
      <trkpt lat="45.08489" lon="1.25766">
        <ele>183.7</ele>
        <time>2023-10-28T13:46:31Z</time>
      </trkpt>
      <trkpt lat="45.08489" lon="1.25764">
        <ele>183.8</ele>
        <time>2023-10-28T13:46:32Z</time>
      </trkpt>
      <trkpt lat="45.08489" lon="1.25761">
        <ele>183.8</ele>
        <time>2023-10-28T13:46:33Z</time>
      </trkpt>
      <trkpt lat="45.08489" lon="1.25759">
        <ele>183.9</ele>
        <time>2023-10-28T13:46:34Z</time>
      </trkpt>
      <trkpt lat="45.08489" lon="1.25757">
        <ele>183.9</ele>
        <time>2023-10-28T13:46:35Z</time>
      </trkpt>
      <trkpt lat="45.08489" lon="1.25755">
        <ele>184</ele>
        <time>2023-10-28T13:46:36Z</time>
      </trkpt>
      <trkpt lat="45.08489" lon="1.25753">
        <ele>184</ele>
        <time>2023-10-28T13:46:37Z</time>
      </trkpt>
      <trkpt lat="45.08489" lon="1.25751">
        <ele>184.1</ele>
        <time>2023-10-28T13:46:38Z</time>
      </trkpt>
      <trkpt lat="45.08489" lon="1.25749">
        <ele>184.1</ele>
        <time>2023-10-28T13:46:39Z</time>
      </trkpt>
      <trkpt lat="45.08489" lon="1.25747">
        <ele>184.2</ele>
        <time>2023-10-28T13:46:40Z</time>
      </trkpt>
      <trkpt lat="45.0849" lon="1.25746">
        <ele>184.2</ele>
        <time>2023-10-28T13:46:41Z</time>
      </trkpt>
      <trkpt lat="45.0849" lon="1.25744">
        <ele>184.3</ele>
        <time>2023-10-28T13:46:42Z</time>
      </trkpt>
      <trkpt lat="45.0849" lon="1.25743">
        <ele>184.3</ele>
        <time>2023-10-28T13:46:43Z</time>
      </trkpt>
      <trkpt lat="45.0849" lon="1.25743">
        <ele>184.3</ele>
        <time>2023-10-28T13:46:44Z</time>
      </trkpt>
      <trkpt lat="45.0849" lon="1.25742">
        <ele>184.3</ele>
        <time>2023-10-28T13:46:45Z</time>
      </trkpt>
      <trkpt lat="45.0849" lon="1.25741">
        <ele>184.4</ele>
        <time>2023-10-28T13:46:46Z</time>
      </trkpt>
      <trkpt lat="45.0849" lon="1.2574">
        <ele>184.4</ele>
        <time>2023-10-28T13:46:47Z</time>
      </trkpt>
      <trkpt lat="45.08491" lon="1.25739">
        <ele>184.4</ele>
        <time>2023-10-28T13:46:48Z</time>
      </trkpt>
      <trkpt lat="45.08491" lon="1.25738">
        <ele>184.4</ele>
        <time>2023-10-28T13:46:49Z</time>
      </trkpt>
      <trkpt lat="45.08491" lon="1.25737">
        <ele>184.4</ele>
        <time>2023-10-28T13:46:50Z</time>
      </trkpt>
      <trkpt lat="45.08492" lon="1.25736">
        <ele>184.5</ele>
        <time>2023-10-28T13:46:51Z</time>
      </trkpt>
      <trkpt lat="45.08492" lon="1.25735">
        <ele>184.5</ele>
        <time>2023-10-28T13:46:52Z</time>
      </trkpt>
      <trkpt lat="45.08493" lon="1.25733">
        <ele>184.5</ele>
        <time>2023-10-28T13:46:53Z</time>
      </trkpt>
      <trkpt lat="45.08493" lon="1.25731">
        <ele>184.6</ele>
        <time>2023-10-28T13:46:54Z</time>
      </trkpt>
      <trkpt lat="45.08495" lon="1.25728">
        <ele>184.6</ele>
        <time>2023-10-28T13:46:55Z</time>
      </trkpt>
      <trkpt lat="45.08495" lon="1.25726">
        <ele>184.7</ele>
        <time>2023-10-28T13:46:56Z</time>
      </trkpt>
      <trkpt lat="45.08497" lon="1.25723">
        <ele>184.7</ele>
        <time>2023-10-28T13:46:57Z</time>
      </trkpt>
      <trkpt lat="45.08498" lon="1.25721">
        <ele>184.8</ele>
        <time>2023-10-28T13:46:58Z</time>
      </trkpt>
      <trkpt lat="45.085" lon="1.25719">
        <ele>184.8</ele>
        <time>2023-10-28T13:46:59Z</time>
      </trkpt>
      <trkpt lat="45.08501" lon="1.25716">
        <ele>184.9</ele>
        <time>2023-10-28T13:47:00Z</time>
      </trkpt>
      <trkpt lat="45.08503" lon="1.25714">
        <ele>184.9</ele>
        <time>2023-10-28T13:47:01Z</time>
      </trkpt>
      <trkpt lat="45.08504" lon="1.25712">
        <ele>185</ele>
        <time>2023-10-28T13:47:02Z</time>
      </trkpt>
      <trkpt lat="45.08506" lon="1.2571">
        <ele>185</ele>
        <time>2023-10-28T13:47:03Z</time>
      </trkpt>
      <trkpt lat="45.08508" lon="1.25708">
        <ele>185.1</ele>
        <time>2023-10-28T13:47:04Z</time>
      </trkpt>
      <trkpt lat="45.08509" lon="1.25706">
        <ele>185.1</ele>
        <time>2023-10-28T13:47:05Z</time>
      </trkpt>
      <trkpt lat="45.08511" lon="1.25704">
        <ele>185.2</ele>
        <time>2023-10-28T13:47:06Z</time>
      </trkpt>
      <trkpt lat="45.08513" lon="1.25701">
        <ele>185.2</ele>
        <time>2023-10-28T13:47:07Z</time>
      </trkpt>
      <trkpt lat="45.08514" lon="1.25699">
        <ele>185.3</ele>
        <time>2023-10-28T13:47:08Z</time>
      </trkpt>
      <trkpt lat="45.08516" lon="1.25696">
        <ele>185.3</ele>
        <time>2023-10-28T13:47:09Z</time>
      </trkpt>
      <trkpt lat="45.08518" lon="1.25694">
        <ele>185.4</ele>
        <time>2023-10-28T13:47:10Z</time>
      </trkpt>
      <trkpt lat="45.08519" lon="1.25691">
        <ele>185.4</ele>
        <time>2023-10-28T13:47:11Z</time>
      </trkpt>
      <trkpt lat="45.0852" lon="1.25689">
        <ele>185.5</ele>
        <time>2023-10-28T13:47:12Z</time>
      </trkpt>
      <trkpt lat="45.08522" lon="1.25686">
        <ele>185.5</ele>
        <time>2023-10-28T13:47:13Z</time>
      </trkpt>
      <trkpt lat="45.08523" lon="1.25683">
        <ele>185.6</ele>
        <time>2023-10-28T13:47:14Z</time>
      </trkpt>
      <trkpt lat="45.08524" lon="1.2568">
        <ele>185.6</ele>
        <time>2023-10-28T13:47:15Z</time>
      </trkpt>
      <trkpt lat="45.08526" lon="1.25677">
        <ele>185.7</ele>
        <time>2023-10-28T13:47:16Z</time>
      </trkpt>
      <trkpt lat="45.08527" lon="1.25675">
        <ele>185.7</ele>
        <time>2023-10-28T13:47:17Z</time>
      </trkpt>
      <trkpt lat="45.08528" lon="1.25672">
        <ele>185.8</ele>
        <time>2023-10-28T13:47:18Z</time>
      </trkpt>
      <trkpt lat="45.08529" lon="1.25669">
        <ele>185.9</ele>
        <time>2023-10-28T13:47:19Z</time>
      </trkpt>
      <trkpt lat="45.0853" lon="1.25666">
        <ele>185.9</ele>
        <time>2023-10-28T13:47:20Z</time>
      </trkpt>
      <trkpt lat="45.08532" lon="1.25663">
        <ele>186</ele>
        <time>2023-10-28T13:47:21Z</time>
      </trkpt>
      <trkpt lat="45.08533" lon="1.25661">
        <ele>186.1</ele>
        <time>2023-10-28T13:47:22Z</time>
      </trkpt>
      <trkpt lat="45.08534" lon="1.25658">
        <ele>186.1</ele>
        <time>2023-10-28T13:47:23Z</time>
      </trkpt>
      <trkpt lat="45.08535" lon="1.25655">
        <ele>186.2</ele>
        <time>2023-10-28T13:47:24Z</time>
      </trkpt>
      <trkpt lat="45.08537" lon="1.25652">
        <ele>186.3</ele>
        <time>2023-10-28T13:47:25Z</time>
      </trkpt>
      <trkpt lat="45.08538" lon="1.2565">
        <ele>186.3</ele>
        <time>2023-10-28T13:47:26Z</time>
      </trkpt>
      <trkpt lat="45.08539" lon="1.25647">
        <ele>186.4</ele>
        <time>2023-10-28T13:47:27Z</time>
      </trkpt>
      <trkpt lat="45.0854" lon="1.25644">
        <ele>186.5</ele>
        <time>2023-10-28T13:47:28Z</time>
      </trkpt>
      <trkpt lat="45.08542" lon="1.25642">
        <ele>186.5</ele>
        <time>2023-10-28T13:47:29Z</time>
      </trkpt>
      <trkpt lat="45.08543" lon="1.25639">
        <ele>186.6</ele>
        <time>2023-10-28T13:47:30Z</time>
      </trkpt>
      <trkpt lat="45.08544" lon="1.25636">
        <ele>186.7</ele>
        <time>2023-10-28T13:47:31Z</time>
      </trkpt>
      <trkpt lat="45.08545" lon="1.25633">
        <ele>186.7</ele>
        <time>2023-10-28T13:47:32Z</time>
      </trkpt>
      <trkpt lat="45.08546" lon="1.2563">
        <ele>186.8</ele>
        <time>2023-10-28T13:47:33Z</time>
      </trkpt>
      <trkpt lat="45.08546" lon="1.25627">
        <ele>186.9</ele>
        <time>2023-10-28T13:47:34Z</time>
      </trkpt>
      <trkpt lat="45.08547" lon="1.25625">
        <ele>186.9</ele>
        <time>2023-10-28T13:47:35Z</time>
      </trkpt>
      <trkpt lat="45.08548" lon="1.25622">
        <ele>187</ele>
        <time>2023-10-28T13:47:36Z</time>
      </trkpt>
      <trkpt lat="45.08549" lon="1.25619">
        <ele>187.1</ele>
        <time>2023-10-28T13:47:37Z</time>
      </trkpt>
      <trkpt lat="45.0855" lon="1.25616">
        <ele>187.2</ele>
        <time>2023-10-28T13:47:38Z</time>
      </trkpt>
      <trkpt lat="45.08551" lon="1.25613">
        <ele>187.3</ele>
        <time>2023-10-28T13:47:39Z</time>
      </trkpt>
      <trkpt lat="45.08551" lon="1.2561">
        <ele>187.3</ele>
        <time>2023-10-28T13:47:40Z</time>
      </trkpt>
      <trkpt lat="45.08552" lon="1.25607">
        <ele>187.4</ele>
        <time>2023-10-28T13:47:41Z</time>
      </trkpt>
      <trkpt lat="45.08553" lon="1.25604">
        <ele>187.5</ele>
        <time>2023-10-28T13:47:42Z</time>
      </trkpt>
      <trkpt lat="45.08554" lon="1.25601">
        <ele>187.6</ele>
        <time>2023-10-28T13:47:43Z</time>
      </trkpt>
      <trkpt lat="45.08555" lon="1.25598">
        <ele>187.6</ele>
        <time>2023-10-28T13:47:44Z</time>
      </trkpt>
      <trkpt lat="45.08555" lon="1.25595">
        <ele>187.7</ele>
        <time>2023-10-28T13:47:45Z</time>
      </trkpt>
      <trkpt lat="45.08556" lon="1.25592">
        <ele>187.8</ele>
        <time>2023-10-28T13:47:46Z</time>
      </trkpt>
      <trkpt lat="45.08557" lon="1.2559">
        <ele>187.9</ele>
        <time>2023-10-28T13:47:47Z</time>
      </trkpt>
      <trkpt lat="45.08558" lon="1.25587">
        <ele>188</ele>
        <time>2023-10-28T13:47:48Z</time>
      </trkpt>
      <trkpt lat="45.08559" lon="1.25584">
        <ele>188.1</ele>
        <time>2023-10-28T13:47:49Z</time>
      </trkpt>
      <trkpt lat="45.08559" lon="1.25582">
        <ele>188.1</ele>
        <time>2023-10-28T13:47:50Z</time>
      </trkpt>
      <trkpt lat="45.0856" lon="1.25579">
        <ele>188.2</ele>
        <time>2023-10-28T13:47:51Z</time>
      </trkpt>
      <trkpt lat="45.08561" lon="1.25576">
        <ele>188.3</ele>
        <time>2023-10-28T13:47:52Z</time>
      </trkpt>
      <trkpt lat="45.08562" lon="1.25573">
        <ele>188.4</ele>
        <time>2023-10-28T13:47:53Z</time>
      </trkpt>
      <trkpt lat="45.08563" lon="1.2557">
        <ele>188.5</ele>
        <time>2023-10-28T13:47:54Z</time>
      </trkpt>
      <trkpt lat="45.08563" lon="1.25568">
        <ele>188.6</ele>
        <time>2023-10-28T13:47:55Z</time>
      </trkpt>
      <trkpt lat="45.08564" lon="1.25565">
        <ele>188.8</ele>
        <time>2023-10-28T13:47:56Z</time>
      </trkpt>
      <trkpt lat="45.08565" lon="1.25562">
        <ele>188.9</ele>
        <time>2023-10-28T13:47:57Z</time>
      </trkpt>
      <trkpt lat="45.08566" lon="1.25559">
        <ele>189</ele>
        <time>2023-10-28T13:47:58Z</time>
      </trkpt>
      <trkpt lat="45.08567" lon="1.25556">
        <ele>189.1</ele>
        <time>2023-10-28T13:47:59Z</time>
      </trkpt>
      <trkpt lat="45.08567" lon="1.25553">
        <ele>189.2</ele>
        <time>2023-10-28T13:48:00Z</time>
      </trkpt>
      <trkpt lat="45.08569" lon="1.2555">
        <ele>189.3</ele>
        <time>2023-10-28T13:48:01Z</time>
      </trkpt>
      <trkpt lat="45.08569" lon="1.25548">
        <ele>189.4</ele>
        <time>2023-10-28T13:48:02Z</time>
      </trkpt>
      <trkpt lat="45.0857" lon="1.25545">
        <ele>189.5</ele>
        <time>2023-10-28T13:48:03Z</time>
      </trkpt>
      <trkpt lat="45.08571" lon="1.25542">
        <ele>189.5</ele>
        <time>2023-10-28T13:48:04Z</time>
      </trkpt>
      <trkpt lat="45.08572" lon="1.2554">
        <ele>189.6</ele>
        <time>2023-10-28T13:48:05Z</time>
      </trkpt>
      <trkpt lat="45.08573" lon="1.25537">
        <ele>189.7</ele>
        <time>2023-10-28T13:48:06Z</time>
      </trkpt>
      <trkpt lat="45.08574" lon="1.25534">
        <ele>189.8</ele>
        <time>2023-10-28T13:48:07Z</time>
      </trkpt>
      <trkpt lat="45.08575" lon="1.25532">
        <ele>189.8</ele>
        <time>2023-10-28T13:48:08Z</time>
      </trkpt>
      <trkpt lat="45.08577" lon="1.25529">
        <ele>189.9</ele>
        <time>2023-10-28T13:48:09Z</time>
      </trkpt>
      <trkpt lat="45.08578" lon="1.25526">
        <ele>190</ele>
        <time>2023-10-28T13:48:10Z</time>
      </trkpt>
      <trkpt lat="45.08579" lon="1.25524">
        <ele>190</ele>
        <time>2023-10-28T13:48:11Z</time>
      </trkpt>
      <trkpt lat="45.0858" lon="1.25521">
        <ele>190.1</ele>
        <time>2023-10-28T13:48:12Z</time>
      </trkpt>
      <trkpt lat="45.08581" lon="1.25518">
        <ele>190.1</ele>
        <time>2023-10-28T13:48:13Z</time>
      </trkpt>
      <trkpt lat="45.08582" lon="1.25516">
        <ele>190.2</ele>
        <time>2023-10-28T13:48:14Z</time>
      </trkpt>
      <trkpt lat="45.08583" lon="1.25513">
        <ele>190.2</ele>
        <time>2023-10-28T13:48:15Z</time>
      </trkpt>
      <trkpt lat="45.08584" lon="1.2551">
        <ele>190.3</ele>
        <time>2023-10-28T13:48:16Z</time>
      </trkpt>
      <trkpt lat="45.08585" lon="1.25508">
        <ele>190.3</ele>
        <time>2023-10-28T13:48:17Z</time>
      </trkpt>
      <trkpt lat="45.08586" lon="1.25505">
        <ele>190.4</ele>
        <time>2023-10-28T13:48:18Z</time>
      </trkpt>
      <trkpt lat="45.08587" lon="1.25502">
        <ele>190.4</ele>
        <time>2023-10-28T13:48:19Z</time>
      </trkpt>
      <trkpt lat="45.08588" lon="1.25499">
        <ele>190.5</ele>
        <time>2023-10-28T13:48:20Z</time>
      </trkpt>
      <trkpt lat="45.08589" lon="1.25497">
        <ele>190.5</ele>
        <time>2023-10-28T13:48:21Z</time>
      </trkpt>
      <trkpt lat="45.0859" lon="1.25494">
        <ele>190.5</ele>
        <time>2023-10-28T13:48:22Z</time>
      </trkpt>
      <trkpt lat="45.08591" lon="1.25492">
        <ele>190.6</ele>
        <time>2023-10-28T13:48:23Z</time>
      </trkpt>
      <trkpt lat="45.08592" lon="1.25489">
        <ele>190.6</ele>
        <time>2023-10-28T13:48:24Z</time>
      </trkpt>
      <trkpt lat="45.08593" lon="1.25486">
        <ele>190.7</ele>
        <time>2023-10-28T13:48:25Z</time>
      </trkpt>
      <trkpt lat="45.08594" lon="1.25483">
        <ele>190.7</ele>
        <time>2023-10-28T13:48:26Z</time>
      </trkpt>
      <trkpt lat="45.08595" lon="1.2548">
        <ele>190.8</ele>
        <time>2023-10-28T13:48:27Z</time>
      </trkpt>
      <trkpt lat="45.08596" lon="1.25478">
        <ele>190.8</ele>
        <time>2023-10-28T13:48:28Z</time>
      </trkpt>
      <trkpt lat="45.08597" lon="1.25475">
        <ele>190.9</ele>
        <time>2023-10-28T13:48:29Z</time>
      </trkpt>
      <trkpt lat="45.08598" lon="1.25472">
        <ele>191</ele>
        <time>2023-10-28T13:48:30Z</time>
      </trkpt>
      <trkpt lat="45.08599" lon="1.25469">
        <ele>191</ele>
        <time>2023-10-28T13:48:31Z</time>
      </trkpt>
      <trkpt lat="45.086" lon="1.25466">
        <ele>191.1</ele>
        <time>2023-10-28T13:48:32Z</time>
      </trkpt>
      <trkpt lat="45.086" lon="1.25463">
        <ele>191.1</ele>
        <time>2023-10-28T13:48:33Z</time>
      </trkpt>
      <trkpt lat="45.08601" lon="1.2546">
        <ele>191.2</ele>
        <time>2023-10-28T13:48:34Z</time>
      </trkpt>
      <trkpt lat="45.08602" lon="1.25457">
        <ele>191.2</ele>
        <time>2023-10-28T13:48:35Z</time>
      </trkpt>
      <trkpt lat="45.08603" lon="1.25454">
        <ele>191.3</ele>
        <time>2023-10-28T13:48:36Z</time>
      </trkpt>
      <trkpt lat="45.08603" lon="1.25451">
        <ele>191.3</ele>
        <time>2023-10-28T13:48:37Z</time>
      </trkpt>
      <trkpt lat="45.08604" lon="1.25449">
        <ele>191.4</ele>
        <time>2023-10-28T13:48:38Z</time>
      </trkpt>
      <trkpt lat="45.08605" lon="1.25446">
        <ele>191.4</ele>
        <time>2023-10-28T13:48:39Z</time>
      </trkpt>
      <trkpt lat="45.08606" lon="1.25443">
        <ele>191.5</ele>
        <time>2023-10-28T13:48:40Z</time>
      </trkpt>
      <trkpt lat="45.08606" lon="1.2544">
        <ele>191.6</ele>
        <time>2023-10-28T13:48:41Z</time>
      </trkpt>
      <trkpt lat="45.08607" lon="1.25437">
        <ele>191.6</ele>
        <time>2023-10-28T13:48:42Z</time>
      </trkpt>
      <trkpt lat="45.08608" lon="1.25434">
        <ele>191.7</ele>
        <time>2023-10-28T13:48:43Z</time>
      </trkpt>
      <trkpt lat="45.08608" lon="1.25431">
        <ele>191.7</ele>
        <time>2023-10-28T13:48:44Z</time>
      </trkpt>
      <trkpt lat="45.08609" lon="1.25428">
        <ele>191.8</ele>
        <time>2023-10-28T13:48:45Z</time>
      </trkpt>
      <trkpt lat="45.08609" lon="1.25425">
        <ele>191.9</ele>
        <time>2023-10-28T13:48:46Z</time>
      </trkpt>
      <trkpt lat="45.0861" lon="1.25423">
        <ele>191.9</ele>
        <time>2023-10-28T13:48:47Z</time>
      </trkpt>
      <trkpt lat="45.08611" lon="1.2542">
        <ele>192</ele>
        <time>2023-10-28T13:48:48Z</time>
      </trkpt>
      <trkpt lat="45.08612" lon="1.25417">
        <ele>192</ele>
        <time>2023-10-28T13:48:49Z</time>
      </trkpt>
      <trkpt lat="45.08613" lon="1.25415">
        <ele>192.1</ele>
        <time>2023-10-28T13:48:50Z</time>
      </trkpt>
      <trkpt lat="45.08614" lon="1.25412">
        <ele>192.2</ele>
        <time>2023-10-28T13:48:51Z</time>
      </trkpt>
      <trkpt lat="45.08615" lon="1.25409">
        <ele>192.2</ele>
        <time>2023-10-28T13:48:52Z</time>
      </trkpt>
      <trkpt lat="45.08616" lon="1.25407">
        <ele>192.3</ele>
        <time>2023-10-28T13:48:53Z</time>
      </trkpt>
      <trkpt lat="45.08617" lon="1.25404">
        <ele>192.4</ele>
        <time>2023-10-28T13:48:54Z</time>
      </trkpt>
      <trkpt lat="45.08618" lon="1.25402">
        <ele>192.4</ele>
        <time>2023-10-28T13:48:55Z</time>
      </trkpt>
      <trkpt lat="45.08619" lon="1.254">
        <ele>192.5</ele>
        <time>2023-10-28T13:48:56Z</time>
      </trkpt>
      <trkpt lat="45.0862" lon="1.25397">
        <ele>192.6</ele>
        <time>2023-10-28T13:48:57Z</time>
      </trkpt>
      <trkpt lat="45.08621" lon="1.25395">
        <ele>192.6</ele>
        <time>2023-10-28T13:48:58Z</time>
      </trkpt>
      <trkpt lat="45.08622" lon="1.25392">
        <ele>192.7</ele>
        <time>2023-10-28T13:48:59Z</time>
      </trkpt>
      <trkpt lat="45.08623" lon="1.2539">
        <ele>192.8</ele>
        <time>2023-10-28T13:49:00Z</time>
      </trkpt>
      <trkpt lat="45.08624" lon="1.25387">
        <ele>192.9</ele>
        <time>2023-10-28T13:49:01Z</time>
      </trkpt>
      <trkpt lat="45.08625" lon="1.25385">
        <ele>193</ele>
        <time>2023-10-28T13:49:02Z</time>
      </trkpt>
      <trkpt lat="45.08626" lon="1.25382">
        <ele>193.1</ele>
        <time>2023-10-28T13:49:03Z</time>
      </trkpt>
      <trkpt lat="45.08627" lon="1.2538">
        <ele>193.2</ele>
        <time>2023-10-28T13:49:04Z</time>
      </trkpt>
      <trkpt lat="45.08628" lon="1.25377">
        <ele>193.3</ele>
        <time>2023-10-28T13:49:05Z</time>
      </trkpt>
      <trkpt lat="45.08629" lon="1.25374">
        <ele>193.4</ele>
        <time>2023-10-28T13:49:06Z</time>
      </trkpt>
      <trkpt lat="45.0863" lon="1.25372">
        <ele>193.5</ele>
        <time>2023-10-28T13:49:07Z</time>
      </trkpt>
      <trkpt lat="45.08631" lon="1.25369">
        <ele>193.6</ele>
        <time>2023-10-28T13:49:08Z</time>
      </trkpt>
      <trkpt lat="45.08632" lon="1.25366">
        <ele>193.7</ele>
        <time>2023-10-28T13:49:09Z</time>
      </trkpt>
      <trkpt lat="45.08633" lon="1.25364">
        <ele>193.8</ele>
        <time>2023-10-28T13:49:10Z</time>
      </trkpt>
      <trkpt lat="45.08634" lon="1.25362">
        <ele>193.9</ele>
        <time>2023-10-28T13:49:11Z</time>
      </trkpt>
      <trkpt lat="45.08635" lon="1.25359">
        <ele>194</ele>
        <time>2023-10-28T13:49:12Z</time>
      </trkpt>
      <trkpt lat="45.08636" lon="1.25357">
        <ele>194.1</ele>
        <time>2023-10-28T13:49:13Z</time>
      </trkpt>
      <trkpt lat="45.08637" lon="1.25355">
        <ele>194.2</ele>
        <time>2023-10-28T13:49:14Z</time>
      </trkpt>
      <trkpt lat="45.08638" lon="1.25352">
        <ele>194.3</ele>
        <time>2023-10-28T13:49:15Z</time>
      </trkpt>
      <trkpt lat="45.08639" lon="1.2535">
        <ele>194.5</ele>
        <time>2023-10-28T13:49:16Z</time>
      </trkpt>
      <trkpt lat="45.0864" lon="1.25347">
        <ele>194.6</ele>
        <time>2023-10-28T13:49:17Z</time>
      </trkpt>
      <trkpt lat="45.08641" lon="1.25345">
        <ele>194.7</ele>
        <time>2023-10-28T13:49:18Z</time>
      </trkpt>
      <trkpt lat="45.08642" lon="1.25343">
        <ele>194.9</ele>
        <time>2023-10-28T13:49:19Z</time>
      </trkpt>
      <trkpt lat="45.08643" lon="1.2534">
        <ele>195</ele>
        <time>2023-10-28T13:49:20Z</time>
      </trkpt>
      <trkpt lat="45.08645" lon="1.25338">
        <ele>195.2</ele>
        <time>2023-10-28T13:49:21Z</time>
      </trkpt>
      <trkpt lat="45.08645" lon="1.25336">
        <ele>195.3</ele>
        <time>2023-10-28T13:49:22Z</time>
      </trkpt>
      <trkpt lat="45.08646" lon="1.25333">
        <ele>195.4</ele>
        <time>2023-10-28T13:49:23Z</time>
      </trkpt>
      <trkpt lat="45.08648" lon="1.25331">
        <ele>195.6</ele>
        <time>2023-10-28T13:49:24Z</time>
      </trkpt>
      <trkpt lat="45.08649" lon="1.25329">
        <ele>195.7</ele>
        <time>2023-10-28T13:49:25Z</time>
      </trkpt>
      <trkpt lat="45.0865" lon="1.25327">
        <ele>195.9</ele>
        <time>2023-10-28T13:49:26Z</time>
      </trkpt>
      <trkpt lat="45.08651" lon="1.25324">
        <ele>196</ele>
        <time>2023-10-28T13:49:27Z</time>
      </trkpt>
      <trkpt lat="45.08652" lon="1.25322">
        <ele>196.2</ele>
        <time>2023-10-28T13:49:28Z</time>
      </trkpt>
      <trkpt lat="45.08653" lon="1.2532">
        <ele>196.3</ele>
        <time>2023-10-28T13:49:29Z</time>
      </trkpt>
      <trkpt lat="45.08654" lon="1.25317">
        <ele>196.5</ele>
        <time>2023-10-28T13:49:30Z</time>
      </trkpt>
      <trkpt lat="45.08655" lon="1.25315">
        <ele>196.7</ele>
        <time>2023-10-28T13:49:31Z</time>
      </trkpt>
      <trkpt lat="45.08656" lon="1.25313">
        <ele>196.8</ele>
        <time>2023-10-28T13:49:32Z</time>
      </trkpt>
      <trkpt lat="45.08658" lon="1.25311">
        <ele>197</ele>
        <time>2023-10-28T13:49:33Z</time>
      </trkpt>
      <trkpt lat="45.08659" lon="1.25309">
        <ele>197.2</ele>
        <time>2023-10-28T13:49:34Z</time>
      </trkpt>
      <trkpt lat="45.0866" lon="1.25307">
        <ele>197.3</ele>
        <time>2023-10-28T13:49:35Z</time>
      </trkpt>
      <trkpt lat="45.08661" lon="1.25304">
        <ele>197.5</ele>
        <time>2023-10-28T13:49:36Z</time>
      </trkpt>
      <trkpt lat="45.08662" lon="1.25303">
        <ele>197.6</ele>
        <time>2023-10-28T13:49:37Z</time>
      </trkpt>
      <trkpt lat="45.08664" lon="1.25301">
        <ele>197.8</ele>
        <time>2023-10-28T13:49:38Z</time>
      </trkpt>
      <trkpt lat="45.08665" lon="1.25299">
        <ele>198</ele>
        <time>2023-10-28T13:49:39Z</time>
      </trkpt>
      <trkpt lat="45.08666" lon="1.25297">
        <ele>198.1</ele>
        <time>2023-10-28T13:49:40Z</time>
      </trkpt>
      <trkpt lat="45.08667" lon="1.25295">
        <ele>198.3</ele>
        <time>2023-10-28T13:49:41Z</time>
      </trkpt>
      <trkpt lat="45.08669" lon="1.25293">
        <ele>198.5</ele>
        <time>2023-10-28T13:49:42Z</time>
      </trkpt>
      <trkpt lat="45.0867" lon="1.25292">
        <ele>198.7</ele>
        <time>2023-10-28T13:49:43Z</time>
      </trkpt>
      <trkpt lat="45.08671" lon="1.2529">
        <ele>198.8</ele>
        <time>2023-10-28T13:49:44Z</time>
      </trkpt>
      <trkpt lat="45.08672" lon="1.25288">
        <ele>199</ele>
        <time>2023-10-28T13:49:45Z</time>
      </trkpt>
      <trkpt lat="45.08673" lon="1.25286">
        <ele>199.2</ele>
        <time>2023-10-28T13:49:46Z</time>
      </trkpt>
      <trkpt lat="45.08674" lon="1.25283">
        <ele>199.4</ele>
        <time>2023-10-28T13:49:47Z</time>
      </trkpt>
      <trkpt lat="45.08675" lon="1.25281">
        <ele>199.5</ele>
        <time>2023-10-28T13:49:48Z</time>
      </trkpt>
      <trkpt lat="45.08675" lon="1.25279">
        <ele>199.7</ele>
        <time>2023-10-28T13:49:49Z</time>
      </trkpt>
      <trkpt lat="45.08676" lon="1.25276">
        <ele>199.9</ele>
        <time>2023-10-28T13:49:50Z</time>
      </trkpt>
      <trkpt lat="45.08676" lon="1.25274">
        <ele>200.1</ele>
        <time>2023-10-28T13:49:51Z</time>
      </trkpt>
      <trkpt lat="45.08677" lon="1.25272">
        <ele>200.2</ele>
        <time>2023-10-28T13:49:52Z</time>
      </trkpt>
      <trkpt lat="45.08677" lon="1.25269">
        <ele>200.4</ele>
        <time>2023-10-28T13:49:53Z</time>
      </trkpt>
      <trkpt lat="45.08677" lon="1.25267">
        <ele>200.6</ele>
        <time>2023-10-28T13:49:54Z</time>
      </trkpt>
      <trkpt lat="45.08678" lon="1.25264">
        <ele>200.8</ele>
        <time>2023-10-28T13:49:55Z</time>
      </trkpt>
      <trkpt lat="45.08678" lon="1.25262">
        <ele>201</ele>
        <time>2023-10-28T13:49:56Z</time>
      </trkpt>
      <trkpt lat="45.08678" lon="1.2526">
        <ele>201.2</ele>
        <time>2023-10-28T13:49:57Z</time>
      </trkpt>
      <trkpt lat="45.08679" lon="1.25257">
        <ele>201.4</ele>
        <time>2023-10-28T13:49:58Z</time>
      </trkpt>
      <trkpt lat="45.08679" lon="1.25255">
        <ele>201.5</ele>
        <time>2023-10-28T13:49:59Z</time>
      </trkpt>
      <trkpt lat="45.0868" lon="1.25253">
        <ele>201.7</ele>
        <time>2023-10-28T13:50:00Z</time>
      </trkpt>
      <trkpt lat="45.0868" lon="1.2525">
        <ele>201.9</ele>
        <time>2023-10-28T13:50:01Z</time>
      </trkpt>
      <trkpt lat="45.0868" lon="1.25248">
        <ele>202.1</ele>
        <time>2023-10-28T13:50:02Z</time>
      </trkpt>
      <trkpt lat="45.0868" lon="1.25246">
        <ele>202.3</ele>
        <time>2023-10-28T13:50:03Z</time>
      </trkpt>
      <trkpt lat="45.0868" lon="1.25243">
        <ele>202.4</ele>
        <time>2023-10-28T13:50:04Z</time>
      </trkpt>
      <trkpt lat="45.0868" lon="1.25241">
        <ele>202.6</ele>
        <time>2023-10-28T13:50:05Z</time>
      </trkpt>
      <trkpt lat="45.0868" lon="1.25239">
        <ele>202.8</ele>
        <time>2023-10-28T13:50:06Z</time>
      </trkpt>
      <trkpt lat="45.0868" lon="1.25238">
        <ele>202.9</ele>
        <time>2023-10-28T13:50:07Z</time>
      </trkpt>
      <trkpt lat="45.0868" lon="1.25236">
        <ele>203</ele>
        <time>2023-10-28T13:50:08Z</time>
      </trkpt>
      <trkpt lat="45.0868" lon="1.25234">
        <ele>203.2</ele>
        <time>2023-10-28T13:50:09Z</time>
      </trkpt>
      <trkpt lat="45.0868" lon="1.25232">
        <ele>203.3</ele>
        <time>2023-10-28T13:50:10Z</time>
      </trkpt>
      <trkpt lat="45.08681" lon="1.25231">
        <ele>203.4</ele>
        <time>2023-10-28T13:50:11Z</time>
      </trkpt>
      <trkpt lat="45.08681" lon="1.25229">
        <ele>203.6</ele>
        <time>2023-10-28T13:50:12Z</time>
      </trkpt>
      <trkpt lat="45.08682" lon="1.25227">
        <ele>203.7</ele>
        <time>2023-10-28T13:50:13Z</time>
      </trkpt>
      <trkpt lat="45.08682" lon="1.25225">
        <ele>203.9</ele>
        <time>2023-10-28T13:50:14Z</time>
      </trkpt>
      <trkpt lat="45.08682" lon="1.25223">
        <ele>204</ele>
        <time>2023-10-28T13:50:15Z</time>
      </trkpt>
      <trkpt lat="45.08682" lon="1.25221">
        <ele>204.2</ele>
        <time>2023-10-28T13:50:16Z</time>
      </trkpt>
      <trkpt lat="45.08683" lon="1.25219">
        <ele>204.3</ele>
        <time>2023-10-28T13:50:17Z</time>
      </trkpt>
      <trkpt lat="45.08684" lon="1.25217">
        <ele>204.5</ele>
        <time>2023-10-28T13:50:18Z</time>
      </trkpt>
      <trkpt lat="45.08685" lon="1.25215">
        <ele>204.7</ele>
        <time>2023-10-28T13:50:19Z</time>
      </trkpt>
      <trkpt lat="45.08685" lon="1.25212">
        <ele>204.9</ele>
        <time>2023-10-28T13:50:20Z</time>
      </trkpt>
      <trkpt lat="45.08686" lon="1.2521">
        <ele>205.1</ele>
        <time>2023-10-28T13:50:21Z</time>
      </trkpt>
      <trkpt lat="45.08687" lon="1.25208">
        <ele>205.3</ele>
        <time>2023-10-28T13:50:22Z</time>
      </trkpt>
      <trkpt lat="45.08688" lon="1.25205">
        <ele>205.5</ele>
        <time>2023-10-28T13:50:23Z</time>
      </trkpt>
      <trkpt lat="45.08689" lon="1.25203">
        <ele>205.6</ele>
        <time>2023-10-28T13:50:24Z</time>
      </trkpt>
      <trkpt lat="45.0869" lon="1.25201">
        <ele>205.8</ele>
        <time>2023-10-28T13:50:25Z</time>
      </trkpt>
      <trkpt lat="45.08691" lon="1.25199">
        <ele>206</ele>
        <time>2023-10-28T13:50:26Z</time>
      </trkpt>
      <trkpt lat="45.08691" lon="1.25199">
        <ele>206</ele>
        <time>2023-10-28T13:50:27Z</time>
      </trkpt>
      <trkpt lat="45.08691" lon="1.25199">
        <ele>206</ele>
        <time>2023-10-28T13:50:28Z</time>
      </trkpt>
      <trkpt lat="45.08691" lon="1.25199">
        <ele>206</ele>
        <time>2023-10-28T13:50:29Z</time>
      </trkpt>
      <trkpt lat="45.08691" lon="1.25199">
        <ele>206</ele>
        <time>2023-10-28T13:50:30Z</time>
      </trkpt>
      <trkpt lat="45.08691" lon="1.25199">
        <ele>206</ele>
        <time>2023-10-28T13:50:31Z</time>
      </trkpt>
      <trkpt lat="45.08691" lon="1.25199">
        <ele>206</ele>
        <time>2023-10-28T13:50:32Z</time>
      </trkpt>
      <trkpt lat="45.08691" lon="1.25199">
        <ele>206</ele>
        <time>2023-10-28T13:50:33Z</time>
      </trkpt>
      <trkpt lat="45.08691" lon="1.25199">
        <ele>206</ele>
        <time>2023-10-28T13:50:34Z</time>
      </trkpt>
      <trkpt lat="45.08691" lon="1.25199">
        <ele>206</ele>
        <time>2023-10-28T13:50:35Z</time>
      </trkpt>
      <trkpt lat="45.08691" lon="1.25199">
        <ele>206</ele>
        <time>2023-10-28T13:50:36Z</time>
      </trkpt>
      <trkpt lat="45.08691" lon="1.25199">
        <ele>206</ele>
        <time>2023-10-28T13:50:37Z</time>
      </trkpt>
      <trkpt lat="45.08691" lon="1.25199">
        <ele>206</ele>
        <time>2023-10-28T13:50:38Z</time>
      </trkpt>
      <trkpt lat="45.08691" lon="1.25199">
        <ele>206</ele>
        <time>2023-10-28T13:50:39Z</time>
      </trkpt>
      <trkpt lat="45.08691" lon="1.25199">
        <ele>206</ele>
        <time>2023-10-28T13:50:40Z</time>
      </trkpt>
      <trkpt lat="45.08691" lon="1.25199">
        <ele>206</ele>
        <time>2023-10-28T13:50:41Z</time>
      </trkpt>
      <trkpt lat="45.08691" lon="1.25199">
        <ele>206</ele>
        <time>2023-10-28T13:50:42Z</time>
      </trkpt>
      <trkpt lat="45.08691" lon="1.25199">
        <ele>206</ele>
        <time>2023-10-28T13:50:43Z</time>
      </trkpt>
      <trkpt lat="45.08691" lon="1.25199">
        <ele>206</ele>
        <time>2023-10-28T13:50:44Z</time>
      </trkpt>
      <trkpt lat="45.08691" lon="1.25199">
        <ele>206</ele>
        <time>2023-10-28T13:50:45Z</time>
      </trkpt>
      <trkpt lat="45.08691" lon="1.25199">
        <ele>206</ele>
        <time>2023-10-28T13:50:46Z</time>
      </trkpt>
      <trkpt lat="45.08691" lon="1.25199">
        <ele>206</ele>
        <time>2023-10-28T13:50:47Z</time>
      </trkpt>
      <trkpt lat="45.08691" lon="1.25199">
        <ele>206</ele>
        <time>2023-10-28T13:50:48Z</time>
      </trkpt>
      <trkpt lat="45.08691" lon="1.25199">
        <ele>206</ele>
        <time>2023-10-28T13:50:49Z</time>
      </trkpt>
      <trkpt lat="45.08691" lon="1.25199">
        <ele>206</ele>
        <time>2023-10-28T13:50:50Z</time>
      </trkpt>
      <trkpt lat="45.08691" lon="1.25199">
        <ele>206</ele>
        <time>2023-10-28T13:50:51Z</time>
      </trkpt>
      <trkpt lat="45.08691" lon="1.25199">
        <ele>206</ele>
        <time>2023-10-28T13:50:52Z</time>
      </trkpt>
      <trkpt lat="45.08691" lon="1.25199">
        <ele>206</ele>
        <time>2023-10-28T13:50:53Z</time>
      </trkpt>
      <trkpt lat="45.08691" lon="1.25199">
        <ele>206</ele>
        <time>2023-10-28T13:50:54Z</time>
      </trkpt>
      <trkpt lat="45.08691" lon="1.25199">
        <ele>206</ele>
        <time>2023-10-28T13:50:55Z</time>
      </trkpt>
      <trkpt lat="45.08691" lon="1.25199">
        <ele>206</ele>
        <time>2023-10-28T13:50:56Z</time>
      </trkpt>
      <trkpt lat="45.08691" lon="1.25199">
        <ele>206</ele>
        <time>2023-10-28T13:50:57Z</time>
      </trkpt>
      <trkpt lat="45.08691" lon="1.25199">
        <ele>206</ele>
        <time>2023-10-28T13:50:58Z</time>
      </trkpt>
      <trkpt lat="45.08691" lon="1.25199">
        <ele>206</ele>
        <time>2023-10-28T13:50:59Z</time>
      </trkpt>
      <trkpt lat="45.08691" lon="1.25199">
        <ele>206</ele>
        <time>2023-10-28T13:51:00Z</time>
      </trkpt>
      <trkpt lat="45.08691" lon="1.25199">
        <ele>206</ele>
        <time>2023-10-28T13:51:01Z</time>
      </trkpt>
      <trkpt lat="45.08691" lon="1.25199">
        <ele>206</ele>
        <time>2023-10-28T13:51:02Z</time>
      </trkpt>
      <trkpt lat="45.08691" lon="1.25199">
        <ele>206</ele>
        <time>2023-10-28T13:51:03Z</time>
      </trkpt>
      <trkpt lat="45.08692" lon="1.25197">
        <ele>206.2</ele>
        <time>2023-10-28T13:51:04Z</time>
      </trkpt>
      <trkpt lat="45.08692" lon="1.25196">
        <ele>206.3</ele>
        <time>2023-10-28T13:51:05Z</time>
      </trkpt>
      <trkpt lat="45.08693" lon="1.25195">
        <ele>206.4</ele>
        <time>2023-10-28T13:51:06Z</time>
      </trkpt>
      <trkpt lat="45.08693" lon="1.25193">
        <ele>206.5</ele>
        <time>2023-10-28T13:51:07Z</time>
      </trkpt>
      <trkpt lat="45.08694" lon="1.25192">
        <ele>206.6</ele>
        <time>2023-10-28T13:51:08Z</time>
      </trkpt>
      <trkpt lat="45.08695" lon="1.2519">
        <ele>206.8</ele>
        <time>2023-10-28T13:51:09Z</time>
      </trkpt>
      <trkpt lat="45.08696" lon="1.25188">
        <ele>206.9</ele>
        <time>2023-10-28T13:51:10Z</time>
      </trkpt>
      <trkpt lat="45.08697" lon="1.25186">
        <ele>207.1</ele>
        <time>2023-10-28T13:51:11Z</time>
      </trkpt>
      <trkpt lat="45.08698" lon="1.25184">
        <ele>207.3</ele>
        <time>2023-10-28T13:51:12Z</time>
      </trkpt>
      <trkpt lat="45.08699" lon="1.25182">
        <ele>207.5</ele>
        <time>2023-10-28T13:51:13Z</time>
      </trkpt>
      <trkpt lat="45.08699" lon="1.2518">
        <ele>207.7</ele>
        <time>2023-10-28T13:51:14Z</time>
      </trkpt>
      <trkpt lat="45.08701" lon="1.25178">
        <ele>207.8</ele>
        <time>2023-10-28T13:51:15Z</time>
      </trkpt>
      <trkpt lat="45.08702" lon="1.25176">
        <ele>208</ele>
        <time>2023-10-28T13:51:16Z</time>
      </trkpt>
      <trkpt lat="45.08703" lon="1.25174">
        <ele>208.2</ele>
        <time>2023-10-28T13:51:17Z</time>
      </trkpt>
      <trkpt lat="45.08704" lon="1.25172">
        <ele>208.4</ele>
        <time>2023-10-28T13:51:18Z</time>
      </trkpt>
      <trkpt lat="45.08704" lon="1.2517">
        <ele>208.5</ele>
        <time>2023-10-28T13:51:19Z</time>
      </trkpt>
      <trkpt lat="45.08705" lon="1.25168">
        <ele>208.7</ele>
        <time>2023-10-28T13:51:20Z</time>
      </trkpt>
      <trkpt lat="45.08706" lon="1.25166">
        <ele>208.8</ele>
        <time>2023-10-28T13:51:21Z</time>
      </trkpt>
      <trkpt lat="45.08706" lon="1.25164">
        <ele>209</ele>
        <time>2023-10-28T13:51:22Z</time>
      </trkpt>
      <trkpt lat="45.08707" lon="1.25162">
        <ele>209.2</ele>
        <time>2023-10-28T13:51:23Z</time>
      </trkpt>
      <trkpt lat="45.08708" lon="1.2516">
        <ele>209.3</ele>
        <time>2023-10-28T13:51:24Z</time>
      </trkpt>
      <trkpt lat="45.08709" lon="1.25157">
        <ele>209.5</ele>
        <time>2023-10-28T13:51:25Z</time>
      </trkpt>
      <trkpt lat="45.08709" lon="1.25155">
        <ele>209.7</ele>
        <time>2023-10-28T13:51:26Z</time>
      </trkpt>
      <trkpt lat="45.08711" lon="1.25153">
        <ele>209.9</ele>
        <time>2023-10-28T13:51:27Z</time>
      </trkpt>
      <trkpt lat="45.08712" lon="1.25151">
        <ele>210</ele>
        <time>2023-10-28T13:51:28Z</time>
      </trkpt>
      <trkpt lat="45.08713" lon="1.25149">
        <ele>210.2</ele>
        <time>2023-10-28T13:51:29Z</time>
      </trkpt>
      <trkpt lat="45.08714" lon="1.25147">
        <ele>210.4</ele>
        <time>2023-10-28T13:51:30Z</time>
      </trkpt>
      <trkpt lat="45.08715" lon="1.25145">
        <ele>210.6</ele>
        <time>2023-10-28T13:51:31Z</time>
      </trkpt>
      <trkpt lat="45.08716" lon="1.25143">
        <ele>210.7</ele>
        <time>2023-10-28T13:51:32Z</time>
      </trkpt>
      <trkpt lat="45.08717" lon="1.2514">
        <ele>210.9</ele>
        <time>2023-10-28T13:51:33Z</time>
      </trkpt>
      <trkpt lat="45.08718" lon="1.25138">
        <ele>211.1</ele>
        <time>2023-10-28T13:51:34Z</time>
      </trkpt>
      <trkpt lat="45.08719" lon="1.25135">
        <ele>211.3</ele>
        <time>2023-10-28T13:51:35Z</time>
      </trkpt>
      <trkpt lat="45.0872" lon="1.25133">
        <ele>211.5</ele>
        <time>2023-10-28T13:51:36Z</time>
      </trkpt>
      <trkpt lat="45.08722" lon="1.2513">
        <ele>211.7</ele>
        <time>2023-10-28T13:51:37Z</time>
      </trkpt>
      <trkpt lat="45.08723" lon="1.25128">
        <ele>211.9</ele>
        <time>2023-10-28T13:51:38Z</time>
      </trkpt>
      <trkpt lat="45.08723" lon="1.25126">
        <ele>212</ele>
        <time>2023-10-28T13:51:39Z</time>
      </trkpt>
      <trkpt lat="45.08725" lon="1.25123">
        <ele>212.2</ele>
        <time>2023-10-28T13:51:40Z</time>
      </trkpt>
      <trkpt lat="45.08726" lon="1.25121">
        <ele>212.4</ele>
        <time>2023-10-28T13:51:41Z</time>
      </trkpt>
      <trkpt lat="45.08727" lon="1.25119">
        <ele>212.5</ele>
        <time>2023-10-28T13:51:42Z</time>
      </trkpt>
      <trkpt lat="45.08728" lon="1.25117">
        <ele>212.7</ele>
        <time>2023-10-28T13:51:43Z</time>
      </trkpt>
      <trkpt lat="45.08729" lon="1.25116">
        <ele>212.8</ele>
        <time>2023-10-28T13:51:44Z</time>
      </trkpt>
      <trkpt lat="45.0873" lon="1.25114">
        <ele>212.9</ele>
        <time>2023-10-28T13:51:45Z</time>
      </trkpt>
      <trkpt lat="45.08732" lon="1.25112">
        <ele>213.1</ele>
        <time>2023-10-28T13:51:46Z</time>
      </trkpt>
      <trkpt lat="45.08733" lon="1.25111">
        <ele>213.2</ele>
        <time>2023-10-28T13:51:47Z</time>
      </trkpt>
      <trkpt lat="45.08734" lon="1.25109">
        <ele>213.4</ele>
        <time>2023-10-28T13:51:48Z</time>
      </trkpt>
      <trkpt lat="45.08735" lon="1.25107">
        <ele>213.5</ele>
        <time>2023-10-28T13:51:49Z</time>
      </trkpt>
      <trkpt lat="45.08736" lon="1.25105">
        <ele>213.7</ele>
        <time>2023-10-28T13:51:50Z</time>
      </trkpt>
      <trkpt lat="45.08738" lon="1.25103">
        <ele>213.8</ele>
        <time>2023-10-28T13:51:51Z</time>
      </trkpt>
      <trkpt lat="45.08738" lon="1.25101">
        <ele>214</ele>
        <time>2023-10-28T13:51:52Z</time>
      </trkpt>
      <trkpt lat="45.0874" lon="1.25099">
        <ele>214.1</ele>
        <time>2023-10-28T13:51:53Z</time>
      </trkpt>
      <trkpt lat="45.0874" lon="1.25097">
        <ele>214.3</ele>
        <time>2023-10-28T13:51:54Z</time>
      </trkpt>
      <trkpt lat="45.08741" lon="1.25096">
        <ele>214.4</ele>
        <time>2023-10-28T13:51:55Z</time>
      </trkpt>
      <trkpt lat="45.08743" lon="1.25094">
        <ele>214.6</ele>
        <time>2023-10-28T13:51:56Z</time>
      </trkpt>
      <trkpt lat="45.08744" lon="1.25092">
        <ele>214.7</ele>
        <time>2023-10-28T13:51:57Z</time>
      </trkpt>
      <trkpt lat="45.08745" lon="1.25091">
        <ele>214.9</ele>
        <time>2023-10-28T13:51:58Z</time>
      </trkpt>
      <trkpt lat="45.08746" lon="1.25089">
        <ele>215</ele>
        <time>2023-10-28T13:51:59Z</time>
      </trkpt>
      <trkpt lat="45.08747" lon="1.25087">
        <ele>215.2</ele>
        <time>2023-10-28T13:52:00Z</time>
      </trkpt>
      <trkpt lat="45.08748" lon="1.25085">
        <ele>215.3</ele>
        <time>2023-10-28T13:52:01Z</time>
      </trkpt>
      <trkpt lat="45.08749" lon="1.25083">
        <ele>215.5</ele>
        <time>2023-10-28T13:52:02Z</time>
      </trkpt>
      <trkpt lat="45.08752" lon="1.2508">
        <ele>215.8</ele>
        <time>2023-10-28T13:52:03Z</time>
      </trkpt>
      <trkpt lat="45.08755" lon="1.25077">
        <ele>216.1</ele>
        <time>2023-10-28T13:52:04Z</time>
      </trkpt>
      <trkpt lat="45.08756" lon="1.25076">
        <ele>216.2</ele>
        <time>2023-10-28T13:52:05Z</time>
      </trkpt>
      <trkpt lat="45.08761" lon="1.25071">
        <ele>216.7</ele>
        <time>2023-10-28T13:52:09Z</time>
      </trkpt>
      <trkpt lat="45.08761" lon="1.2507">
        <ele>216.8</ele>
        <time>2023-10-28T13:52:10Z</time>
      </trkpt>
      <trkpt lat="45.08762" lon="1.25069">
        <ele>216.8</ele>
        <time>2023-10-28T13:52:11Z</time>
      </trkpt>
      <trkpt lat="45.08762" lon="1.25068">
        <ele>216.9</ele>
        <time>2023-10-28T13:52:12Z</time>
      </trkpt>
      <trkpt lat="45.08763" lon="1.25068">
        <ele>217</ele>
        <time>2023-10-28T13:52:13Z</time>
      </trkpt>
      <trkpt lat="45.08764" lon="1.25066">
        <ele>217.1</ele>
        <time>2023-10-28T13:52:14Z</time>
      </trkpt>
      <trkpt lat="45.08765" lon="1.25065">
        <ele>217.2</ele>
        <time>2023-10-28T13:52:15Z</time>
      </trkpt>
      <trkpt lat="45.08765" lon="1.25063">
        <ele>217.3</ele>
        <time>2023-10-28T13:52:16Z</time>
      </trkpt>
      <trkpt lat="45.08767" lon="1.25061">
        <ele>217.4</ele>
        <time>2023-10-28T13:52:17Z</time>
      </trkpt>
      <trkpt lat="45.08768" lon="1.2506">
        <ele>217.5</ele>
        <time>2023-10-28T13:52:18Z</time>
      </trkpt>
      <trkpt lat="45.08769" lon="1.25058">
        <ele>217.7</ele>
        <time>2023-10-28T13:52:19Z</time>
      </trkpt>
      <trkpt lat="45.0877" lon="1.25055">
        <ele>217.8</ele>
        <time>2023-10-28T13:52:20Z</time>
      </trkpt>
      <trkpt lat="45.08772" lon="1.25053">
        <ele>217.9</ele>
        <time>2023-10-28T13:52:21Z</time>
      </trkpt>
      <trkpt lat="45.08773" lon="1.25051">
        <ele>218.1</ele>
        <time>2023-10-28T13:52:22Z</time>
      </trkpt>
      <trkpt lat="45.08774" lon="1.25048">
        <ele>218.2</ele>
        <time>2023-10-28T13:52:23Z</time>
      </trkpt>
      <trkpt lat="45.08775" lon="1.25046">
        <ele>218.3</ele>
        <time>2023-10-28T13:52:24Z</time>
      </trkpt>
      <trkpt lat="45.08777" lon="1.25043">
        <ele>218.4</ele>
        <time>2023-10-28T13:52:25Z</time>
      </trkpt>
      <trkpt lat="45.08778" lon="1.25041">
        <ele>218.6</ele>
        <time>2023-10-28T13:52:26Z</time>
      </trkpt>
      <trkpt lat="45.08779" lon="1.25038">
        <ele>218.7</ele>
        <time>2023-10-28T13:52:27Z</time>
      </trkpt>
      <trkpt lat="45.0878" lon="1.25036">
        <ele>218.8</ele>
        <time>2023-10-28T13:52:28Z</time>
      </trkpt>
      <trkpt lat="45.08781" lon="1.25033">
        <ele>218.9</ele>
        <time>2023-10-28T13:52:29Z</time>
      </trkpt>
      <trkpt lat="45.08783" lon="1.25031">
        <ele>219</ele>
        <time>2023-10-28T13:52:30Z</time>
      </trkpt>
      <trkpt lat="45.08783" lon="1.25028">
        <ele>219.1</ele>
        <time>2023-10-28T13:52:31Z</time>
      </trkpt>
      <trkpt lat="45.08785" lon="1.25026">
        <ele>219.2</ele>
        <time>2023-10-28T13:52:32Z</time>
      </trkpt>
      <trkpt lat="45.08786" lon="1.25024">
        <ele>219.3</ele>
        <time>2023-10-28T13:52:33Z</time>
      </trkpt>
      <trkpt lat="45.08787" lon="1.25022">
        <ele>219.4</ele>
        <time>2023-10-28T13:52:34Z</time>
      </trkpt>
      <trkpt lat="45.08788" lon="1.25019">
        <ele>219.5</ele>
        <time>2023-10-28T13:52:35Z</time>
      </trkpt>
      <trkpt lat="45.08789" lon="1.25017">
        <ele>219.6</ele>
        <time>2023-10-28T13:52:36Z</time>
      </trkpt>
      <trkpt lat="45.08791" lon="1.25015">
        <ele>219.7</ele>
        <time>2023-10-28T13:52:37Z</time>
      </trkpt>
      <trkpt lat="45.08791" lon="1.25013">
        <ele>219.8</ele>
        <time>2023-10-28T13:52:38Z</time>
      </trkpt>
      <trkpt lat="45.08793" lon="1.2501">
        <ele>219.9</ele>
        <time>2023-10-28T13:52:39Z</time>
      </trkpt>
      <trkpt lat="45.08794" lon="1.25008">
        <ele>220</ele>
        <time>2023-10-28T13:52:40Z</time>
      </trkpt>
      <trkpt lat="45.08795" lon="1.25005">
        <ele>220.1</ele>
        <time>2023-10-28T13:52:41Z</time>
      </trkpt>
      <trkpt lat="45.08796" lon="1.25003">
        <ele>220.2</ele>
        <time>2023-10-28T13:52:42Z</time>
      </trkpt>
      <trkpt lat="45.08797" lon="1.25">
        <ele>220.3</ele>
        <time>2023-10-28T13:52:43Z</time>
      </trkpt>
      <trkpt lat="45.08798" lon="1.24998">
        <ele>220.4</ele>
        <time>2023-10-28T13:52:44Z</time>
      </trkpt>
      <trkpt lat="45.08799" lon="1.24996">
        <ele>220.5</ele>
        <time>2023-10-28T13:52:45Z</time>
      </trkpt>
      <trkpt lat="45.088" lon="1.24993">
        <ele>220.6</ele>
        <time>2023-10-28T13:52:46Z</time>
      </trkpt>
      <trkpt lat="45.08801" lon="1.24991">
        <ele>220.7</ele>
        <time>2023-10-28T13:52:47Z</time>
      </trkpt>
      <trkpt lat="45.08802" lon="1.24988">
        <ele>220.8</ele>
        <time>2023-10-28T13:52:48Z</time>
      </trkpt>
      <trkpt lat="45.08804" lon="1.24986">
        <ele>220.9</ele>
        <time>2023-10-28T13:52:49Z</time>
      </trkpt>
      <trkpt lat="45.08805" lon="1.24983">
        <ele>221</ele>
        <time>2023-10-28T13:52:50Z</time>
      </trkpt>
      <trkpt lat="45.08806" lon="1.24981">
        <ele>221.1</ele>
        <time>2023-10-28T13:52:51Z</time>
      </trkpt>
      <trkpt lat="45.08807" lon="1.24979">
        <ele>221.2</ele>
        <time>2023-10-28T13:52:52Z</time>
      </trkpt>
      <trkpt lat="45.08809" lon="1.24976">
        <ele>221.3</ele>
        <time>2023-10-28T13:52:53Z</time>
      </trkpt>
      <trkpt lat="45.0881" lon="1.24974">
        <ele>221.4</ele>
        <time>2023-10-28T13:52:54Z</time>
      </trkpt>
      <trkpt lat="45.08811" lon="1.24972">
        <ele>221.5</ele>
        <time>2023-10-28T13:52:55Z</time>
      </trkpt>
      <trkpt lat="45.08812" lon="1.2497">
        <ele>221.6</ele>
        <time>2023-10-28T13:52:56Z</time>
      </trkpt>
      <trkpt lat="45.08814" lon="1.24968">
        <ele>221.8</ele>
        <time>2023-10-28T13:52:57Z</time>
      </trkpt>
      <trkpt lat="45.08815" lon="1.24965">
        <ele>221.9</ele>
        <time>2023-10-28T13:52:58Z</time>
      </trkpt>
      <trkpt lat="45.08816" lon="1.24963">
        <ele>222</ele>
        <time>2023-10-28T13:52:59Z</time>
      </trkpt>
      <trkpt lat="45.08818" lon="1.2496">
        <ele>222.1</ele>
        <time>2023-10-28T13:53:00Z</time>
      </trkpt>
      <trkpt lat="45.08819" lon="1.24958">
        <ele>222.2</ele>
        <time>2023-10-28T13:53:01Z</time>
      </trkpt>
      <trkpt lat="45.0882" lon="1.24955">
        <ele>222.3</ele>
        <time>2023-10-28T13:53:02Z</time>
      </trkpt>
      <trkpt lat="45.08821" lon="1.24953">
        <ele>222.4</ele>
        <time>2023-10-28T13:53:03Z</time>
      </trkpt>
      <trkpt lat="45.08822" lon="1.2495">
        <ele>222.5</ele>
        <time>2023-10-28T13:53:04Z</time>
      </trkpt>
      <trkpt lat="45.08823" lon="1.24947">
        <ele>222.6</ele>
        <time>2023-10-28T13:53:05Z</time>
      </trkpt>
      <trkpt lat="45.08825" lon="1.24945">
        <ele>222.7</ele>
        <time>2023-10-28T13:53:06Z</time>
      </trkpt>
      <trkpt lat="45.08826" lon="1.24943">
        <ele>222.8</ele>
        <time>2023-10-28T13:53:07Z</time>
      </trkpt>
      <trkpt lat="45.08827" lon="1.2494">
        <ele>222.9</ele>
        <time>2023-10-28T13:53:08Z</time>
      </trkpt>
      <trkpt lat="45.08828" lon="1.24938">
        <ele>223</ele>
        <time>2023-10-28T13:53:09Z</time>
      </trkpt>
      <trkpt lat="45.0883" lon="1.24936">
        <ele>223.1</ele>
        <time>2023-10-28T13:53:10Z</time>
      </trkpt>
      <trkpt lat="45.08831" lon="1.24934">
        <ele>223.2</ele>
        <time>2023-10-28T13:53:11Z</time>
      </trkpt>
      <trkpt lat="45.08833" lon="1.24932">
        <ele>223.2</ele>
        <time>2023-10-28T13:53:12Z</time>
      </trkpt>
      <trkpt lat="45.08834" lon="1.2493">
        <ele>223.3</ele>
        <time>2023-10-28T13:53:13Z</time>
      </trkpt>
      <trkpt lat="45.08836" lon="1.24928">
        <ele>223.4</ele>
        <time>2023-10-28T13:53:14Z</time>
      </trkpt>
      <trkpt lat="45.08837" lon="1.24926">
        <ele>223.5</ele>
        <time>2023-10-28T13:53:15Z</time>
      </trkpt>
      <trkpt lat="45.08838" lon="1.24924">
        <ele>223.6</ele>
        <time>2023-10-28T13:53:16Z</time>
      </trkpt>
      <trkpt lat="45.08839" lon="1.24921">
        <ele>223.6</ele>
        <time>2023-10-28T13:53:17Z</time>
      </trkpt>
      <trkpt lat="45.08841" lon="1.24919">
        <ele>223.7</ele>
        <time>2023-10-28T13:53:18Z</time>
      </trkpt>
      <trkpt lat="45.08842" lon="1.24917">
        <ele>223.8</ele>
        <time>2023-10-28T13:53:19Z</time>
      </trkpt>
      <trkpt lat="45.08843" lon="1.24915">
        <ele>223.8</ele>
        <time>2023-10-28T13:53:20Z</time>
      </trkpt>
      <trkpt lat="45.08845" lon="1.24912">
        <ele>223.9</ele>
        <time>2023-10-28T13:53:21Z</time>
      </trkpt>
      <trkpt lat="45.08846" lon="1.2491">
        <ele>224</ele>
        <time>2023-10-28T13:53:22Z</time>
      </trkpt>
      <trkpt lat="45.08847" lon="1.24908">
        <ele>224</ele>
        <time>2023-10-28T13:53:23Z</time>
      </trkpt>
      <trkpt lat="45.08849" lon="1.24905">
        <ele>224.1</ele>
        <time>2023-10-28T13:53:24Z</time>
      </trkpt>
      <trkpt lat="45.0885" lon="1.24903">
        <ele>224.1</ele>
        <time>2023-10-28T13:53:25Z</time>
      </trkpt>
      <trkpt lat="45.08852" lon="1.24901">
        <ele>224.2</ele>
        <time>2023-10-28T13:53:26Z</time>
      </trkpt>
      <trkpt lat="45.08853" lon="1.24898">
        <ele>224.2</ele>
        <time>2023-10-28T13:53:27Z</time>
      </trkpt>
      <trkpt lat="45.08854" lon="1.24896">
        <ele>224.3</ele>
        <time>2023-10-28T13:53:28Z</time>
      </trkpt>
      <trkpt lat="45.08855" lon="1.24894">
        <ele>224.3</ele>
        <time>2023-10-28T13:53:29Z</time>
      </trkpt>
      <trkpt lat="45.08857" lon="1.24891">
        <ele>224.3</ele>
        <time>2023-10-28T13:53:30Z</time>
      </trkpt>
      <trkpt lat="45.08859" lon="1.24889">
        <ele>224.4</ele>
        <time>2023-10-28T13:53:31Z</time>
      </trkpt>
      <trkpt lat="45.0886" lon="1.24887">
        <ele>224.4</ele>
        <time>2023-10-28T13:53:32Z</time>
      </trkpt>
      <trkpt lat="45.08861" lon="1.24884">
        <ele>224.4</ele>
        <time>2023-10-28T13:53:33Z</time>
      </trkpt>
      <trkpt lat="45.08863" lon="1.24882">
        <ele>224.4</ele>
        <time>2023-10-28T13:53:34Z</time>
      </trkpt>
      <trkpt lat="45.08864" lon="1.24879">
        <ele>224.4</ele>
        <time>2023-10-28T13:53:35Z</time>
      </trkpt>
      <trkpt lat="45.08865" lon="1.24876">
        <ele>224.5</ele>
        <time>2023-10-28T13:53:36Z</time>
      </trkpt>
      <trkpt lat="45.08867" lon="1.24873">
        <ele>224.5</ele>
        <time>2023-10-28T13:53:37Z</time>
      </trkpt>
      <trkpt lat="45.08868" lon="1.2487">
        <ele>224.5</ele>
        <time>2023-10-28T13:53:38Z</time>
      </trkpt>
      <trkpt lat="45.08869" lon="1.24868">
        <ele>224.5</ele>
        <time>2023-10-28T13:53:39Z</time>
      </trkpt>
      <trkpt lat="45.08871" lon="1.24865">
        <ele>224.5</ele>
        <time>2023-10-28T13:53:40Z</time>
      </trkpt>
      <trkpt lat="45.08872" lon="1.24863">
        <ele>224.5</ele>
        <time>2023-10-28T13:53:41Z</time>
      </trkpt>
      <trkpt lat="45.08873" lon="1.2486">
        <ele>224.6</ele>
        <time>2023-10-28T13:53:42Z</time>
      </trkpt>
      <trkpt lat="45.08875" lon="1.24858">
        <ele>224.6</ele>
        <time>2023-10-28T13:53:43Z</time>
      </trkpt>
      <trkpt lat="45.08876" lon="1.24856">
        <ele>224.6</ele>
        <time>2023-10-28T13:53:44Z</time>
      </trkpt>
      <trkpt lat="45.08877" lon="1.24853">
        <ele>224.6</ele>
        <time>2023-10-28T13:53:45Z</time>
      </trkpt>
      <trkpt lat="45.08878" lon="1.24851">
        <ele>224.6</ele>
        <time>2023-10-28T13:53:46Z</time>
      </trkpt>
      <trkpt lat="45.0888" lon="1.24848">
        <ele>224.6</ele>
        <time>2023-10-28T13:53:47Z</time>
      </trkpt>
      <trkpt lat="45.08881" lon="1.24846">
        <ele>224.6</ele>
        <time>2023-10-28T13:53:48Z</time>
      </trkpt>
      <trkpt lat="45.08883" lon="1.24844">
        <ele>224.6</ele>
        <time>2023-10-28T13:53:49Z</time>
      </trkpt>
      <trkpt lat="45.08884" lon="1.24842">
        <ele>224.6</ele>
        <time>2023-10-28T13:53:50Z</time>
      </trkpt>
      <trkpt lat="45.08886" lon="1.2484">
        <ele>224.7</ele>
        <time>2023-10-28T13:53:51Z</time>
      </trkpt>
      <trkpt lat="45.08887" lon="1.24837">
        <ele>224.7</ele>
        <time>2023-10-28T13:53:52Z</time>
      </trkpt>
      <trkpt lat="45.08889" lon="1.24835">
        <ele>224.7</ele>
        <time>2023-10-28T13:53:53Z</time>
      </trkpt>
      <trkpt lat="45.0889" lon="1.24832">
        <ele>224.7</ele>
        <time>2023-10-28T13:53:54Z</time>
      </trkpt>
      <trkpt lat="45.08891" lon="1.2483">
        <ele>224.7</ele>
        <time>2023-10-28T13:53:55Z</time>
      </trkpt>
      <trkpt lat="45.08892" lon="1.24828">
        <ele>224.7</ele>
        <time>2023-10-28T13:53:56Z</time>
      </trkpt>
      <trkpt lat="45.08894" lon="1.24825">
        <ele>224.7</ele>
        <time>2023-10-28T13:53:57Z</time>
      </trkpt>
      <trkpt lat="45.08895" lon="1.24824">
        <ele>224.7</ele>
        <time>2023-10-28T13:53:58Z</time>
      </trkpt>
      <trkpt lat="45.08897" lon="1.24822">
        <ele>224.7</ele>
        <time>2023-10-28T13:53:59Z</time>
      </trkpt>
      <trkpt lat="45.08899" lon="1.2482">
        <ele>224.7</ele>
        <time>2023-10-28T13:54:00Z</time>
      </trkpt>
      <trkpt lat="45.089" lon="1.24818">
        <ele>224.7</ele>
        <time>2023-10-28T13:54:01Z</time>
      </trkpt>
      <trkpt lat="45.08902" lon="1.24816">
        <ele>224.7</ele>
        <time>2023-10-28T13:54:02Z</time>
      </trkpt>
      <trkpt lat="45.08903" lon="1.24815">
        <ele>224.7</ele>
        <time>2023-10-28T13:54:03Z</time>
      </trkpt>
      <trkpt lat="45.08905" lon="1.24813">
        <ele>224.7</ele>
        <time>2023-10-28T13:54:04Z</time>
      </trkpt>
      <trkpt lat="45.08906" lon="1.24811">
        <ele>224.7</ele>
        <time>2023-10-28T13:54:05Z</time>
      </trkpt>
      <trkpt lat="45.08907" lon="1.24809">
        <ele>224.7</ele>
        <time>2023-10-28T13:54:06Z</time>
      </trkpt>
      <trkpt lat="45.08909" lon="1.24807">
        <ele>224.7</ele>
        <time>2023-10-28T13:54:07Z</time>
      </trkpt>
      <trkpt lat="45.0891" lon="1.24805">
        <ele>224.7</ele>
        <time>2023-10-28T13:54:08Z</time>
      </trkpt>
      <trkpt lat="45.08911" lon="1.24803">
        <ele>224.7</ele>
        <time>2023-10-28T13:54:09Z</time>
      </trkpt>
      <trkpt lat="45.08913" lon="1.24802">
        <ele>224.7</ele>
        <time>2023-10-28T13:54:10Z</time>
      </trkpt>
      <trkpt lat="45.08915" lon="1.248">
        <ele>224.8</ele>
        <time>2023-10-28T13:54:11Z</time>
      </trkpt>
      <trkpt lat="45.08916" lon="1.24798">
        <ele>224.8</ele>
        <time>2023-10-28T13:54:12Z</time>
      </trkpt>
      <trkpt lat="45.08918" lon="1.24796">
        <ele>224.8</ele>
        <time>2023-10-28T13:54:13Z</time>
      </trkpt>
      <trkpt lat="45.08919" lon="1.24794">
        <ele>224.8</ele>
        <time>2023-10-28T13:54:14Z</time>
      </trkpt>
      <trkpt lat="45.08921" lon="1.24792">
        <ele>224.8</ele>
        <time>2023-10-28T13:54:15Z</time>
      </trkpt>
      <trkpt lat="45.08922" lon="1.2479">
        <ele>224.8</ele>
        <time>2023-10-28T13:54:16Z</time>
      </trkpt>
      <trkpt lat="45.08924" lon="1.24788">
        <ele>224.8</ele>
        <time>2023-10-28T13:54:17Z</time>
      </trkpt>
      <trkpt lat="45.08925" lon="1.24785">
        <ele>224.8</ele>
        <time>2023-10-28T13:54:18Z</time>
      </trkpt>
      <trkpt lat="45.08926" lon="1.24783">
        <ele>224.8</ele>
        <time>2023-10-28T13:54:19Z</time>
      </trkpt>
      <trkpt lat="45.08928" lon="1.2478">
        <ele>224.8</ele>
        <time>2023-10-28T13:54:20Z</time>
      </trkpt>
      <trkpt lat="45.08929" lon="1.24778">
        <ele>224.8</ele>
        <time>2023-10-28T13:54:21Z</time>
      </trkpt>
      <trkpt lat="45.0893" lon="1.24775">
        <ele>224.8</ele>
        <time>2023-10-28T13:54:22Z</time>
      </trkpt>
      <trkpt lat="45.08932" lon="1.24773">
        <ele>224.9</ele>
        <time>2023-10-28T13:54:23Z</time>
      </trkpt>
      <trkpt lat="45.08933" lon="1.2477">
        <ele>224.9</ele>
        <time>2023-10-28T13:54:24Z</time>
      </trkpt>
      <trkpt lat="45.08934" lon="1.24768">
        <ele>224.9</ele>
        <time>2023-10-28T13:54:25Z</time>
      </trkpt>
      <trkpt lat="45.08936" lon="1.24766">
        <ele>224.9</ele>
        <time>2023-10-28T13:54:26Z</time>
      </trkpt>
      <trkpt lat="45.08937" lon="1.24763">
        <ele>224.9</ele>
        <time>2023-10-28T13:54:27Z</time>
      </trkpt>
      <trkpt lat="45.08938" lon="1.24761">
        <ele>224.9</ele>
        <time>2023-10-28T13:54:28Z</time>
      </trkpt>
      <trkpt lat="45.08939" lon="1.24758">
        <ele>224.9</ele>
        <time>2023-10-28T13:54:29Z</time>
      </trkpt>
      <trkpt lat="45.0894" lon="1.24756">
        <ele>225</ele>
        <time>2023-10-28T13:54:30Z</time>
      </trkpt>
      <trkpt lat="45.08941" lon="1.24754">
        <ele>225</ele>
        <time>2023-10-28T13:54:31Z</time>
      </trkpt>
      <trkpt lat="45.08942" lon="1.24751">
        <ele>225</ele>
        <time>2023-10-28T13:54:32Z</time>
      </trkpt>
      <trkpt lat="45.08943" lon="1.24748">
        <ele>225</ele>
        <time>2023-10-28T13:54:33Z</time>
      </trkpt>
      <trkpt lat="45.08944" lon="1.24746">
        <ele>225</ele>
        <time>2023-10-28T13:54:34Z</time>
      </trkpt>
      <trkpt lat="45.08945" lon="1.24743">
        <ele>225</ele>
        <time>2023-10-28T13:54:35Z</time>
      </trkpt>
      <trkpt lat="45.08946" lon="1.2474">
        <ele>225</ele>
        <time>2023-10-28T13:54:36Z</time>
      </trkpt>
      <trkpt lat="45.08947" lon="1.24737">
        <ele>225</ele>
        <time>2023-10-28T13:54:37Z</time>
      </trkpt>
      <trkpt lat="45.08948" lon="1.24735">
        <ele>225</ele>
        <time>2023-10-28T13:54:38Z</time>
      </trkpt>
      <trkpt lat="45.08949" lon="1.24732">
        <ele>225</ele>
        <time>2023-10-28T13:54:39Z</time>
      </trkpt>
      <trkpt lat="45.0895" lon="1.24729">
        <ele>225</ele>
        <time>2023-10-28T13:54:40Z</time>
      </trkpt>
      <trkpt lat="45.0895" lon="1.24726">
        <ele>225</ele>
        <time>2023-10-28T13:54:41Z</time>
      </trkpt>
      <trkpt lat="45.08952" lon="1.24724">
        <ele>225</ele>
        <time>2023-10-28T13:54:42Z</time>
      </trkpt>
      <trkpt lat="45.08953" lon="1.24721">
        <ele>225</ele>
        <time>2023-10-28T13:54:43Z</time>
      </trkpt>
      <trkpt lat="45.08954" lon="1.24719">
        <ele>224.9</ele>
        <time>2023-10-28T13:54:44Z</time>
      </trkpt>
      <trkpt lat="45.08955" lon="1.24716">
        <ele>224.9</ele>
        <time>2023-10-28T13:54:45Z</time>
      </trkpt>
      <trkpt lat="45.08956" lon="1.24713">
        <ele>224.9</ele>
        <time>2023-10-28T13:54:46Z</time>
      </trkpt>
      <trkpt lat="45.08957" lon="1.24711">
        <ele>224.9</ele>
        <time>2023-10-28T13:54:47Z</time>
      </trkpt>
      <trkpt lat="45.08958" lon="1.24708">
        <ele>224.8</ele>
        <time>2023-10-28T13:54:48Z</time>
      </trkpt>
      <trkpt lat="45.08959" lon="1.24705">
        <ele>224.8</ele>
        <time>2023-10-28T13:54:49Z</time>
      </trkpt>
      <trkpt lat="45.0896" lon="1.24702">
        <ele>224.7</ele>
        <time>2023-10-28T13:54:50Z</time>
      </trkpt>
      <trkpt lat="45.08961" lon="1.24699">
        <ele>224.7</ele>
        <time>2023-10-28T13:54:51Z</time>
      </trkpt>
      <trkpt lat="45.08962" lon="1.24697">
        <ele>224.6</ele>
        <time>2023-10-28T13:54:52Z</time>
      </trkpt>
      <trkpt lat="45.08963" lon="1.24694">
        <ele>224.6</ele>
        <time>2023-10-28T13:54:53Z</time>
      </trkpt>
      <trkpt lat="45.08965" lon="1.24691">
        <ele>224.5</ele>
        <time>2023-10-28T13:54:54Z</time>
      </trkpt>
      <trkpt lat="45.08966" lon="1.24688">
        <ele>224.5</ele>
        <time>2023-10-28T13:54:55Z</time>
      </trkpt>
      <trkpt lat="45.08967" lon="1.24685">
        <ele>224.4</ele>
        <time>2023-10-28T13:54:56Z</time>
      </trkpt>
      <trkpt lat="45.08968" lon="1.24682">
        <ele>224.4</ele>
        <time>2023-10-28T13:54:57Z</time>
      </trkpt>
      <trkpt lat="45.0897" lon="1.24679">
        <ele>224.3</ele>
        <time>2023-10-28T13:54:58Z</time>
      </trkpt>
      <trkpt lat="45.08971" lon="1.24677">
        <ele>224.2</ele>
        <time>2023-10-28T13:54:59Z</time>
      </trkpt>
      <trkpt lat="45.08973" lon="1.24674">
        <ele>224.2</ele>
        <time>2023-10-28T13:55:00Z</time>
      </trkpt>
      <trkpt lat="45.08974" lon="1.24671">
        <ele>224.2</ele>
        <time>2023-10-28T13:55:01Z</time>
      </trkpt>
      <trkpt lat="45.08975" lon="1.24668">
        <ele>224.1</ele>
        <time>2023-10-28T13:55:02Z</time>
      </trkpt>
      <trkpt lat="45.08977" lon="1.24666">
        <ele>224.1</ele>
        <time>2023-10-28T13:55:03Z</time>
      </trkpt>
      <trkpt lat="45.08978" lon="1.24663">
        <ele>224</ele>
        <time>2023-10-28T13:55:04Z</time>
      </trkpt>
      <trkpt lat="45.0898" lon="1.2466">
        <ele>224</ele>
        <time>2023-10-28T13:55:05Z</time>
      </trkpt>
      <trkpt lat="45.08981" lon="1.24658">
        <ele>224</ele>
        <time>2023-10-28T13:55:06Z</time>
      </trkpt>
      <trkpt lat="45.08983" lon="1.24655">
        <ele>223.9</ele>
        <time>2023-10-28T13:55:07Z</time>
      </trkpt>
      <trkpt lat="45.08984" lon="1.24652">
        <ele>223.9</ele>
        <time>2023-10-28T13:55:08Z</time>
      </trkpt>
      <trkpt lat="45.08984" lon="1.2465">
        <ele>223.8</ele>
        <time>2023-10-28T13:55:09Z</time>
      </trkpt>
      <trkpt lat="45.08985" lon="1.24647">
        <ele>223.8</ele>
        <time>2023-10-28T13:55:10Z</time>
      </trkpt>
      <trkpt lat="45.08986" lon="1.24644">
        <ele>223.7</ele>
        <time>2023-10-28T13:55:11Z</time>
      </trkpt>
      <trkpt lat="45.08987" lon="1.24642">
        <ele>223.6</ele>
        <time>2023-10-28T13:55:12Z</time>
      </trkpt>
      <trkpt lat="45.08987" lon="1.24639">
        <ele>223.6</ele>
        <time>2023-10-28T13:55:13Z</time>
      </trkpt>
      <trkpt lat="45.08988" lon="1.24636">
        <ele>223.5</ele>
        <time>2023-10-28T13:55:14Z</time>
      </trkpt>
      <trkpt lat="45.08989" lon="1.24633">
        <ele>223.5</ele>
        <time>2023-10-28T13:55:15Z</time>
      </trkpt>
      <trkpt lat="45.0899" lon="1.24631">
        <ele>223.4</ele>
        <time>2023-10-28T13:55:16Z</time>
      </trkpt>
      <trkpt lat="45.08991" lon="1.24628">
        <ele>223.3</ele>
        <time>2023-10-28T13:55:17Z</time>
      </trkpt>
      <trkpt lat="45.08991" lon="1.24625">
        <ele>223.3</ele>
        <time>2023-10-28T13:55:18Z</time>
      </trkpt>
      <trkpt lat="45.08992" lon="1.24622">
        <ele>223.2</ele>
        <time>2023-10-28T13:55:19Z</time>
      </trkpt>
      <trkpt lat="45.08994" lon="1.24619">
        <ele>223.2</ele>
        <time>2023-10-28T13:55:20Z</time>
      </trkpt>
      <trkpt lat="45.08995" lon="1.24617">
        <ele>223.1</ele>
        <time>2023-10-28T13:55:21Z</time>
      </trkpt>
      <trkpt lat="45.08995" lon="1.24614">
        <ele>223</ele>
        <time>2023-10-28T13:55:22Z</time>
      </trkpt>
      <trkpt lat="45.08996" lon="1.24611">
        <ele>223</ele>
        <time>2023-10-28T13:55:23Z</time>
      </trkpt>
      <trkpt lat="45.08997" lon="1.24609">
        <ele>223</ele>
        <time>2023-10-28T13:55:24Z</time>
      </trkpt>
      <trkpt lat="45.08998" lon="1.24606">
        <ele>223</ele>
        <time>2023-10-28T13:55:25Z</time>
      </trkpt>
      <trkpt lat="45.08998" lon="1.24603">
        <ele>223</ele>
        <time>2023-10-28T13:55:26Z</time>
      </trkpt>
      <trkpt lat="45.08998" lon="1.246">
        <ele>223</ele>
        <time>2023-10-28T13:55:27Z</time>
      </trkpt>
      <trkpt lat="45.08999" lon="1.24598">
        <ele>223</ele>
        <time>2023-10-28T13:55:28Z</time>
      </trkpt>
      <trkpt lat="45.08999" lon="1.24595">
        <ele>223</ele>
        <time>2023-10-28T13:55:29Z</time>
      </trkpt>
      <trkpt lat="45.08998" lon="1.24592">
        <ele>223</ele>
        <time>2023-10-28T13:55:30Z</time>
      </trkpt>
      <trkpt lat="45.08998" lon="1.2459">
        <ele>223</ele>
        <time>2023-10-28T13:55:31Z</time>
      </trkpt>
      <trkpt lat="45.08997" lon="1.24588">
        <ele>223.1</ele>
        <time>2023-10-28T13:55:32Z</time>
      </trkpt>
      <trkpt lat="45.08996" lon="1.24585">
        <ele>223.1</ele>
        <time>2023-10-28T13:55:33Z</time>
      </trkpt>
      <trkpt lat="45.08995" lon="1.24583">
        <ele>223.1</ele>
        <time>2023-10-28T13:55:34Z</time>
      </trkpt>
      <trkpt lat="45.08994" lon="1.2458">
        <ele>223.1</ele>
        <time>2023-10-28T13:55:35Z</time>
      </trkpt>
      <trkpt lat="45.08992" lon="1.24578">
        <ele>223.1</ele>
        <time>2023-10-28T13:55:36Z</time>
      </trkpt>
      <trkpt lat="45.08991" lon="1.24575">
        <ele>223.2</ele>
        <time>2023-10-28T13:55:37Z</time>
      </trkpt>
      <trkpt lat="45.08989" lon="1.24572">
        <ele>223.2</ele>
        <time>2023-10-28T13:55:38Z</time>
      </trkpt>
      <trkpt lat="45.08988" lon="1.2457">
        <ele>223.2</ele>
        <time>2023-10-28T13:55:39Z</time>
      </trkpt>
      <trkpt lat="45.08987" lon="1.24567">
        <ele>223.3</ele>
        <time>2023-10-28T13:55:40Z</time>
      </trkpt>
      <trkpt lat="45.08985" lon="1.24565">
        <ele>223.3</ele>
        <time>2023-10-28T13:55:41Z</time>
      </trkpt>
      <trkpt lat="45.08984" lon="1.24562">
        <ele>223.4</ele>
        <time>2023-10-28T13:55:42Z</time>
      </trkpt>
      <trkpt lat="45.08983" lon="1.2456">
        <ele>223.4</ele>
        <time>2023-10-28T13:55:43Z</time>
      </trkpt>
      <trkpt lat="45.08981" lon="1.24557">
        <ele>223.4</ele>
        <time>2023-10-28T13:55:44Z</time>
      </trkpt>
      <trkpt lat="45.0898" lon="1.24555">
        <ele>223.5</ele>
        <time>2023-10-28T13:55:45Z</time>
      </trkpt>
      <trkpt lat="45.08979" lon="1.24553">
        <ele>223.5</ele>
        <time>2023-10-28T13:55:46Z</time>
      </trkpt>
      <trkpt lat="45.08978" lon="1.2455">
        <ele>223.6</ele>
        <time>2023-10-28T13:55:47Z</time>
      </trkpt>
      <trkpt lat="45.08976" lon="1.24548">
        <ele>223.6</ele>
        <time>2023-10-28T13:55:48Z</time>
      </trkpt>
      <trkpt lat="45.08975" lon="1.24546">
        <ele>223.6</ele>
        <time>2023-10-28T13:55:49Z</time>
      </trkpt>
      <trkpt lat="45.08975" lon="1.24543">
        <ele>223.7</ele>
        <time>2023-10-28T13:55:50Z</time>
      </trkpt>
      <trkpt lat="45.08973" lon="1.24541">
        <ele>223.7</ele>
        <time>2023-10-28T13:55:51Z</time>
      </trkpt>
      <trkpt lat="45.08972" lon="1.24539">
        <ele>223.8</ele>
        <time>2023-10-28T13:55:52Z</time>
      </trkpt>
      <trkpt lat="45.08971" lon="1.24536">
        <ele>223.8</ele>
        <time>2023-10-28T13:55:53Z</time>
      </trkpt>
      <trkpt lat="45.0897" lon="1.24534">
        <ele>223.8</ele>
        <time>2023-10-28T13:55:54Z</time>
      </trkpt>
      <trkpt lat="45.08968" lon="1.24532">
        <ele>223.8</ele>
        <time>2023-10-28T13:55:55Z</time>
      </trkpt>
      <trkpt lat="45.08966" lon="1.24529">
        <ele>223.9</ele>
        <time>2023-10-28T13:55:56Z</time>
      </trkpt>
      <trkpt lat="45.08965" lon="1.24527">
        <ele>223.9</ele>
        <time>2023-10-28T13:55:57Z</time>
      </trkpt>
      <trkpt lat="45.08963" lon="1.24524">
        <ele>223.9</ele>
        <time>2023-10-28T13:55:58Z</time>
      </trkpt>
      <trkpt lat="45.08962" lon="1.24522">
        <ele>223.9</ele>
        <time>2023-10-28T13:55:59Z</time>
      </trkpt>
      <trkpt lat="45.0896" lon="1.2452">
        <ele>223.9</ele>
        <time>2023-10-28T13:56:00Z</time>
      </trkpt>
      <trkpt lat="45.08958" lon="1.24517">
        <ele>223.9</ele>
        <time>2023-10-28T13:56:01Z</time>
      </trkpt>
      <trkpt lat="45.08957" lon="1.24515">
        <ele>223.9</ele>
        <time>2023-10-28T13:56:02Z</time>
      </trkpt>
      <trkpt lat="45.08955" lon="1.24513">
        <ele>223.9</ele>
        <time>2023-10-28T13:56:03Z</time>
      </trkpt>
      <trkpt lat="45.08954" lon="1.24511">
        <ele>223.9</ele>
        <time>2023-10-28T13:56:04Z</time>
      </trkpt>
      <trkpt lat="45.08952" lon="1.24509">
        <ele>223.9</ele>
        <time>2023-10-28T13:56:05Z</time>
      </trkpt>
      <trkpt lat="45.0895" lon="1.24507">
        <ele>223.9</ele>
        <time>2023-10-28T13:56:06Z</time>
      </trkpt>
      <trkpt lat="45.08948" lon="1.24505">
        <ele>223.9</ele>
        <time>2023-10-28T13:56:07Z</time>
      </trkpt>
      <trkpt lat="45.08946" lon="1.24504">
        <ele>223.8</ele>
        <time>2023-10-28T13:56:08Z</time>
      </trkpt>
      <trkpt lat="45.08944" lon="1.24503">
        <ele>223.8</ele>
        <time>2023-10-28T13:56:09Z</time>
      </trkpt>
      <trkpt lat="45.08942" lon="1.24501">
        <ele>223.8</ele>
        <time>2023-10-28T13:56:10Z</time>
      </trkpt>
      <trkpt lat="45.0894" lon="1.245">
        <ele>223.8</ele>
        <time>2023-10-28T13:56:11Z</time>
      </trkpt>
      <trkpt lat="45.08938" lon="1.24498">
        <ele>223.7</ele>
        <time>2023-10-28T13:56:12Z</time>
      </trkpt>
      <trkpt lat="45.08936" lon="1.24497">
        <ele>223.7</ele>
        <time>2023-10-28T13:56:13Z</time>
      </trkpt>
      <trkpt lat="45.08934" lon="1.24495">
        <ele>223.7</ele>
        <time>2023-10-28T13:56:14Z</time>
      </trkpt>
      <trkpt lat="45.08932" lon="1.24493">
        <ele>223.7</ele>
        <time>2023-10-28T13:56:15Z</time>
      </trkpt>
      <trkpt lat="45.0893" lon="1.24492">
        <ele>223.7</ele>
        <time>2023-10-28T13:56:16Z</time>
      </trkpt>
      <trkpt lat="45.08928" lon="1.2449">
        <ele>223.6</ele>
        <time>2023-10-28T13:56:17Z</time>
      </trkpt>
      <trkpt lat="45.08926" lon="1.24489">
        <ele>223.6</ele>
        <time>2023-10-28T13:56:18Z</time>
      </trkpt>
      <trkpt lat="45.08925" lon="1.24487">
        <ele>223.6</ele>
        <time>2023-10-28T13:56:19Z</time>
      </trkpt>
      <trkpt lat="45.08923" lon="1.24485">
        <ele>223.6</ele>
        <time>2023-10-28T13:56:20Z</time>
      </trkpt>
      <trkpt lat="45.08921" lon="1.24484">
        <ele>223.5</ele>
        <time>2023-10-28T13:56:21Z</time>
      </trkpt>
      <trkpt lat="45.08919" lon="1.24482">
        <ele>223.5</ele>
        <time>2023-10-28T13:56:22Z</time>
      </trkpt>
      <trkpt lat="45.08917" lon="1.24481">
        <ele>223.5</ele>
        <time>2023-10-28T13:56:23Z</time>
      </trkpt>
      <trkpt lat="45.08915" lon="1.24479">
        <ele>223.5</ele>
        <time>2023-10-28T13:56:24Z</time>
      </trkpt>
      <trkpt lat="45.08913" lon="1.24478">
        <ele>223.4</ele>
        <time>2023-10-28T13:56:25Z</time>
      </trkpt>
      <trkpt lat="45.08911" lon="1.24476">
        <ele>223.4</ele>
        <time>2023-10-28T13:56:26Z</time>
      </trkpt>
      <trkpt lat="45.08909" lon="1.24475">
        <ele>223.4</ele>
        <time>2023-10-28T13:56:27Z</time>
      </trkpt>
      <trkpt lat="45.08907" lon="1.24474">
        <ele>223.4</ele>
        <time>2023-10-28T13:56:28Z</time>
      </trkpt>
      <trkpt lat="45.08904" lon="1.24473">
        <ele>223.4</ele>
        <time>2023-10-28T13:56:29Z</time>
      </trkpt>
      <trkpt lat="45.08902" lon="1.24472">
        <ele>223.3</ele>
        <time>2023-10-28T13:56:30Z</time>
      </trkpt>
      <trkpt lat="45.089" lon="1.24471">
        <ele>223.3</ele>
        <time>2023-10-28T13:56:31Z</time>
      </trkpt>
      <trkpt lat="45.08898" lon="1.2447">
        <ele>223.3</ele>
        <time>2023-10-28T13:56:32Z</time>
      </trkpt>
      <trkpt lat="45.08896" lon="1.24469">
        <ele>223.3</ele>
        <time>2023-10-28T13:56:33Z</time>
      </trkpt>
      <trkpt lat="45.08894" lon="1.24468">
        <ele>223.2</ele>
        <time>2023-10-28T13:56:34Z</time>
      </trkpt>
      <trkpt lat="45.08892" lon="1.24467">
        <ele>223.2</ele>
        <time>2023-10-28T13:56:35Z</time>
      </trkpt>
      <trkpt lat="45.0889" lon="1.24465">
        <ele>223.2</ele>
        <time>2023-10-28T13:56:36Z</time>
      </trkpt>
      <trkpt lat="45.08888" lon="1.24464">
        <ele>223.2</ele>
        <time>2023-10-28T13:56:37Z</time>
      </trkpt>
      <trkpt lat="45.08886" lon="1.24464">
        <ele>223.2</ele>
        <time>2023-10-28T13:56:38Z</time>
      </trkpt>
      <trkpt lat="45.08883" lon="1.24463">
        <ele>223.1</ele>
        <time>2023-10-28T13:56:39Z</time>
      </trkpt>
      <trkpt lat="45.08881" lon="1.24462">
        <ele>223.1</ele>
        <time>2023-10-28T13:56:40Z</time>
      </trkpt>
      <trkpt lat="45.08878" lon="1.24461">
        <ele>223</ele>
        <time>2023-10-28T13:56:41Z</time>
      </trkpt>
      <trkpt lat="45.08876" lon="1.2446">
        <ele>223</ele>
        <time>2023-10-28T13:56:42Z</time>
      </trkpt>
      <trkpt lat="45.08874" lon="1.2446">
        <ele>223</ele>
        <time>2023-10-28T13:56:43Z</time>
      </trkpt>
      <trkpt lat="45.08872" lon="1.24458">
        <ele>222.9</ele>
        <time>2023-10-28T13:56:44Z</time>
      </trkpt>
      <trkpt lat="45.0887" lon="1.24457">
        <ele>222.9</ele>
        <time>2023-10-28T13:56:45Z</time>
      </trkpt>
      <trkpt lat="45.08867" lon="1.24456">
        <ele>222.9</ele>
        <time>2023-10-28T13:56:46Z</time>
      </trkpt>
      <trkpt lat="45.08865" lon="1.24455">
        <ele>222.8</ele>
        <time>2023-10-28T13:56:47Z</time>
      </trkpt>
      <trkpt lat="45.08863" lon="1.24455">
        <ele>222.8</ele>
        <time>2023-10-28T13:56:48Z</time>
      </trkpt>
      <trkpt lat="45.0886" lon="1.24454">
        <ele>222.7</ele>
        <time>2023-10-28T13:56:49Z</time>
      </trkpt>
      <trkpt lat="45.08858" lon="1.24453">
        <ele>222.7</ele>
        <time>2023-10-28T13:56:50Z</time>
      </trkpt>
      <trkpt lat="45.08856" lon="1.24453">
        <ele>222.7</ele>
        <time>2023-10-28T13:56:51Z</time>
      </trkpt>
      <trkpt lat="45.08854" lon="1.24452">
        <ele>222.7</ele>
        <time>2023-10-28T13:56:52Z</time>
      </trkpt>
      <trkpt lat="45.08852" lon="1.24451">
        <ele>222.6</ele>
        <time>2023-10-28T13:56:53Z</time>
      </trkpt>
      <trkpt lat="45.08849" lon="1.24451">
        <ele>222.6</ele>
        <time>2023-10-28T13:56:54Z</time>
      </trkpt>
      <trkpt lat="45.08847" lon="1.2445">
        <ele>222.6</ele>
        <time>2023-10-28T13:56:55Z</time>
      </trkpt>
      <trkpt lat="45.08845" lon="1.2445">
        <ele>222.6</ele>
        <time>2023-10-28T13:56:56Z</time>
      </trkpt>
      <trkpt lat="45.08843" lon="1.24449">
        <ele>222.6</ele>
        <time>2023-10-28T13:56:57Z</time>
      </trkpt>
      <trkpt lat="45.0884" lon="1.24449">
        <ele>222.5</ele>
        <time>2023-10-28T13:56:58Z</time>
      </trkpt>
      <trkpt lat="45.08838" lon="1.24448">
        <ele>222.5</ele>
        <time>2023-10-28T13:56:59Z</time>
      </trkpt>
      <trkpt lat="45.08835" lon="1.24448">
        <ele>222.5</ele>
        <time>2023-10-28T13:57:00Z</time>
      </trkpt>
      <trkpt lat="45.08833" lon="1.24448">
        <ele>222.5</ele>
        <time>2023-10-28T13:57:01Z</time>
      </trkpt>
      <trkpt lat="45.0883" lon="1.24448">
        <ele>222.5</ele>
        <time>2023-10-28T13:57:02Z</time>
      </trkpt>
      <trkpt lat="45.08827" lon="1.24447">
        <ele>222.5</ele>
        <time>2023-10-28T13:57:03Z</time>
      </trkpt>
      <trkpt lat="45.08825" lon="1.24447">
        <ele>222.4</ele>
        <time>2023-10-28T13:57:04Z</time>
      </trkpt>
      <trkpt lat="45.08822" lon="1.24447">
        <ele>222.4</ele>
        <time>2023-10-28T13:57:05Z</time>
      </trkpt>
      <trkpt lat="45.0882" lon="1.24446">
        <ele>222.4</ele>
        <time>2023-10-28T13:57:06Z</time>
      </trkpt>
      <trkpt lat="45.08818" lon="1.24445">
        <ele>222.4</ele>
        <time>2023-10-28T13:57:07Z</time>
      </trkpt>
      <trkpt lat="45.08815" lon="1.24444">
        <ele>222.4</ele>
        <time>2023-10-28T13:57:08Z</time>
      </trkpt>
      <trkpt lat="45.08813" lon="1.24443">
        <ele>222.4</ele>
        <time>2023-10-28T13:57:09Z</time>
      </trkpt>
      <trkpt lat="45.08811" lon="1.24442">
        <ele>222.4</ele>
        <time>2023-10-28T13:57:10Z</time>
      </trkpt>
      <trkpt lat="45.08809" lon="1.24441">
        <ele>222.4</ele>
        <time>2023-10-28T13:57:11Z</time>
      </trkpt>
      <trkpt lat="45.08807" lon="1.2444">
        <ele>222.3</ele>
        <time>2023-10-28T13:57:12Z</time>
      </trkpt>
      <trkpt lat="45.08805" lon="1.24439">
        <ele>222.3</ele>
        <time>2023-10-28T13:57:13Z</time>
      </trkpt>
      <trkpt lat="45.08803" lon="1.24438">
        <ele>222.3</ele>
        <time>2023-10-28T13:57:14Z</time>
      </trkpt>
      <trkpt lat="45.08801" lon="1.24437">
        <ele>222.3</ele>
        <time>2023-10-28T13:57:15Z</time>
      </trkpt>
      <trkpt lat="45.08799" lon="1.24436">
        <ele>222.3</ele>
        <time>2023-10-28T13:57:16Z</time>
      </trkpt>
      <trkpt lat="45.08797" lon="1.24434">
        <ele>222.3</ele>
        <time>2023-10-28T13:57:17Z</time>
      </trkpt>
      <trkpt lat="45.08794" lon="1.24433">
        <ele>222.3</ele>
        <time>2023-10-28T13:57:18Z</time>
      </trkpt>
      <trkpt lat="45.08793" lon="1.24431">
        <ele>222.2</ele>
        <time>2023-10-28T13:57:19Z</time>
      </trkpt>
      <trkpt lat="45.08791" lon="1.24429">
        <ele>222.2</ele>
        <time>2023-10-28T13:57:20Z</time>
      </trkpt>
      <trkpt lat="45.08789" lon="1.24428">
        <ele>222.2</ele>
        <time>2023-10-28T13:57:21Z</time>
      </trkpt>
      <trkpt lat="45.08786" lon="1.24426">
        <ele>222.2</ele>
        <time>2023-10-28T13:57:22Z</time>
      </trkpt>
      <trkpt lat="45.08785" lon="1.24425">
        <ele>222.2</ele>
        <time>2023-10-28T13:57:23Z</time>
      </trkpt>
      <trkpt lat="45.08783" lon="1.24423">
        <ele>222.1</ele>
        <time>2023-10-28T13:57:24Z</time>
      </trkpt>
      <trkpt lat="45.08781" lon="1.24422">
        <ele>222.1</ele>
        <time>2023-10-28T13:57:25Z</time>
      </trkpt>
      <trkpt lat="45.08779" lon="1.2442">
        <ele>222.1</ele>
        <time>2023-10-28T13:57:26Z</time>
      </trkpt>
      <trkpt lat="45.08777" lon="1.24418">
        <ele>222.1</ele>
        <time>2023-10-28T13:57:27Z</time>
      </trkpt>
      <trkpt lat="45.08775" lon="1.24416">
        <ele>222</ele>
        <time>2023-10-28T13:57:28Z</time>
      </trkpt>
      <trkpt lat="45.08773" lon="1.24414">
        <ele>222</ele>
        <time>2023-10-28T13:57:29Z</time>
      </trkpt>
      <trkpt lat="45.08771" lon="1.24412">
        <ele>222</ele>
        <time>2023-10-28T13:57:30Z</time>
      </trkpt>
      <trkpt lat="45.08769" lon="1.2441">
        <ele>222</ele>
        <time>2023-10-28T13:57:31Z</time>
      </trkpt>
      <trkpt lat="45.08767" lon="1.24408">
        <ele>222</ele>
        <time>2023-10-28T13:57:32Z</time>
      </trkpt>
      <trkpt lat="45.08765" lon="1.24406">
        <ele>222</ele>
        <time>2023-10-28T13:57:33Z</time>
      </trkpt>
      <trkpt lat="45.08764" lon="1.24404">
        <ele>221.9</ele>
        <time>2023-10-28T13:57:34Z</time>
      </trkpt>
      <trkpt lat="45.08761" lon="1.24402">
        <ele>221.9</ele>
        <time>2023-10-28T13:57:35Z</time>
      </trkpt>
      <trkpt lat="45.08759" lon="1.244">
        <ele>221.9</ele>
        <time>2023-10-28T13:57:36Z</time>
      </trkpt>
      <trkpt lat="45.08757" lon="1.24398">
        <ele>221.9</ele>
        <time>2023-10-28T13:57:37Z</time>
      </trkpt>
      <trkpt lat="45.08755" lon="1.24396">
        <ele>221.9</ele>
        <time>2023-10-28T13:57:38Z</time>
      </trkpt>
      <trkpt lat="45.08753" lon="1.24394">
        <ele>221.9</ele>
        <time>2023-10-28T13:57:39Z</time>
      </trkpt>
      <trkpt lat="45.08751" lon="1.24392">
        <ele>221.9</ele>
        <time>2023-10-28T13:57:40Z</time>
      </trkpt>
      <trkpt lat="45.08749" lon="1.2439">
        <ele>221.9</ele>
        <time>2023-10-28T13:57:41Z</time>
      </trkpt>
      <trkpt lat="45.08746" lon="1.24388">
        <ele>221.9</ele>
        <time>2023-10-28T13:57:42Z</time>
      </trkpt>
      <trkpt lat="45.08744" lon="1.24386">
        <ele>221.9</ele>
        <time>2023-10-28T13:57:43Z</time>
      </trkpt>
      <trkpt lat="45.08742" lon="1.24385">
        <ele>221.9</ele>
        <time>2023-10-28T13:57:44Z</time>
      </trkpt>
      <trkpt lat="45.0874" lon="1.24383">
        <ele>221.9</ele>
        <time>2023-10-28T13:57:45Z</time>
      </trkpt>
      <trkpt lat="45.08738" lon="1.24382">
        <ele>221.9</ele>
        <time>2023-10-28T13:57:46Z</time>
      </trkpt>
      <trkpt lat="45.08736" lon="1.2438">
        <ele>221.8</ele>
        <time>2023-10-28T13:57:47Z</time>
      </trkpt>
      <trkpt lat="45.08733" lon="1.24378">
        <ele>221.8</ele>
        <time>2023-10-28T13:57:48Z</time>
      </trkpt>
      <trkpt lat="45.08732" lon="1.24376">
        <ele>221.8</ele>
        <time>2023-10-28T13:57:49Z</time>
      </trkpt>
      <trkpt lat="45.0873" lon="1.24374">
        <ele>221.8</ele>
        <time>2023-10-28T13:57:50Z</time>
      </trkpt>
      <trkpt lat="45.08727" lon="1.24372">
        <ele>221.8</ele>
        <time>2023-10-28T13:57:51Z</time>
      </trkpt>
      <trkpt lat="45.08725" lon="1.2437">
        <ele>221.8</ele>
        <time>2023-10-28T13:57:52Z</time>
      </trkpt>
      <trkpt lat="45.08723" lon="1.24368">
        <ele>221.8</ele>
        <time>2023-10-28T13:57:53Z</time>
      </trkpt>
      <trkpt lat="45.08721" lon="1.24366">
        <ele>221.8</ele>
        <time>2023-10-28T13:57:54Z</time>
      </trkpt>
      <trkpt lat="45.08719" lon="1.24364">
        <ele>221.8</ele>
        <time>2023-10-28T13:57:55Z</time>
      </trkpt>
      <trkpt lat="45.08717" lon="1.24362">
        <ele>221.7</ele>
        <time>2023-10-28T13:57:56Z</time>
      </trkpt>
      <trkpt lat="45.08715" lon="1.2436">
        <ele>221.7</ele>
        <time>2023-10-28T13:57:57Z</time>
      </trkpt>
      <trkpt lat="45.08714" lon="1.24358">
        <ele>221.7</ele>
        <time>2023-10-28T13:57:58Z</time>
      </trkpt>
      <trkpt lat="45.08712" lon="1.24355">
        <ele>221.7</ele>
        <time>2023-10-28T13:57:59Z</time>
      </trkpt>
      <trkpt lat="45.0871" lon="1.24353">
        <ele>221.6</ele>
        <time>2023-10-28T13:58:00Z</time>
      </trkpt>
      <trkpt lat="45.08708" lon="1.24351">
        <ele>221.6</ele>
        <time>2023-10-28T13:58:01Z</time>
      </trkpt>
      <trkpt lat="45.08707" lon="1.24349">
        <ele>221.6</ele>
        <time>2023-10-28T13:58:02Z</time>
      </trkpt>
      <trkpt lat="45.08705" lon="1.24346">
        <ele>221.6</ele>
        <time>2023-10-28T13:58:03Z</time>
      </trkpt>
      <trkpt lat="45.08704" lon="1.24344">
        <ele>221.6</ele>
        <time>2023-10-28T13:58:04Z</time>
      </trkpt>
      <trkpt lat="45.08702" lon="1.24342">
        <ele>221.5</ele>
        <time>2023-10-28T13:58:05Z</time>
      </trkpt>
      <trkpt lat="45.08701" lon="1.24339">
        <ele>221.5</ele>
        <time>2023-10-28T13:58:06Z</time>
      </trkpt>
      <trkpt lat="45.08699" lon="1.24337">
        <ele>221.5</ele>
        <time>2023-10-28T13:58:07Z</time>
      </trkpt>
      <trkpt lat="45.08698" lon="1.24334">
        <ele>221.5</ele>
        <time>2023-10-28T13:58:08Z</time>
      </trkpt>
      <trkpt lat="45.08697" lon="1.24332">
        <ele>221.5</ele>
        <time>2023-10-28T13:58:09Z</time>
      </trkpt>
      <trkpt lat="45.08696" lon="1.24329">
        <ele>221.5</ele>
        <time>2023-10-28T13:58:10Z</time>
      </trkpt>
      <trkpt lat="45.08695" lon="1.24326">
        <ele>221.5</ele>
        <time>2023-10-28T13:58:11Z</time>
      </trkpt>
      <trkpt lat="45.08693" lon="1.24323">
        <ele>221.5</ele>
        <time>2023-10-28T13:58:12Z</time>
      </trkpt>
      <trkpt lat="45.08693" lon="1.2432">
        <ele>221.5</ele>
        <time>2023-10-28T13:58:13Z</time>
      </trkpt>
      <trkpt lat="45.08691" lon="1.24317">
        <ele>221.5</ele>
        <time>2023-10-28T13:58:14Z</time>
      </trkpt>
      <trkpt lat="45.08691" lon="1.24313">
        <ele>221.5</ele>
        <time>2023-10-28T13:58:15Z</time>
      </trkpt>
      <trkpt lat="45.0869" lon="1.2431">
        <ele>221.5</ele>
        <time>2023-10-28T13:58:16Z</time>
      </trkpt>
      <trkpt lat="45.08688" lon="1.24307">
        <ele>221.5</ele>
        <time>2023-10-28T13:58:17Z</time>
      </trkpt>
      <trkpt lat="45.08687" lon="1.24304">
        <ele>221.5</ele>
        <time>2023-10-28T13:58:18Z</time>
      </trkpt>
      <trkpt lat="45.08686" lon="1.24302">
        <ele>221.5</ele>
        <time>2023-10-28T13:58:19Z</time>
      </trkpt>
      <trkpt lat="45.08685" lon="1.24299">
        <ele>221.5</ele>
        <time>2023-10-28T13:58:20Z</time>
      </trkpt>
      <trkpt lat="45.08684" lon="1.24296">
        <ele>221.5</ele>
        <time>2023-10-28T13:58:21Z</time>
      </trkpt>
      <trkpt lat="45.08682" lon="1.24293">
        <ele>221.5</ele>
        <time>2023-10-28T13:58:22Z</time>
      </trkpt>
      <trkpt lat="45.08681" lon="1.24291">
        <ele>221.6</ele>
        <time>2023-10-28T13:58:23Z</time>
      </trkpt>
      <trkpt lat="45.0868" lon="1.24288">
        <ele>221.6</ele>
        <time>2023-10-28T13:58:24Z</time>
      </trkpt>
      <trkpt lat="45.08678" lon="1.24285">
        <ele>221.6</ele>
        <time>2023-10-28T13:58:25Z</time>
      </trkpt>
      <trkpt lat="45.08677" lon="1.24282">
        <ele>221.6</ele>
        <time>2023-10-28T13:58:26Z</time>
      </trkpt>
      <trkpt lat="45.08676" lon="1.24279">
        <ele>221.6</ele>
        <time>2023-10-28T13:58:27Z</time>
      </trkpt>
      <trkpt lat="45.08674" lon="1.24276">
        <ele>221.6</ele>
        <time>2023-10-28T13:58:28Z</time>
      </trkpt>
      <trkpt lat="45.08673" lon="1.24273">
        <ele>221.6</ele>
        <time>2023-10-28T13:58:29Z</time>
      </trkpt>
      <trkpt lat="45.08672" lon="1.2427">
        <ele>221.6</ele>
        <time>2023-10-28T13:58:30Z</time>
      </trkpt>
      <trkpt lat="45.0867" lon="1.24267">
        <ele>221.7</ele>
        <time>2023-10-28T13:58:31Z</time>
      </trkpt>
      <trkpt lat="45.08669" lon="1.24264">
        <ele>221.7</ele>
        <time>2023-10-28T13:58:32Z</time>
      </trkpt>
      <trkpt lat="45.08668" lon="1.24261">
        <ele>221.7</ele>
        <time>2023-10-28T13:58:33Z</time>
      </trkpt>
      <trkpt lat="45.08667" lon="1.24258">
        <ele>221.7</ele>
        <time>2023-10-28T13:58:34Z</time>
      </trkpt>
      <trkpt lat="45.08666" lon="1.24255">
        <ele>221.7</ele>
        <time>2023-10-28T13:58:35Z</time>
      </trkpt>
      <trkpt lat="45.08664" lon="1.24252">
        <ele>221.7</ele>
        <time>2023-10-28T13:58:36Z</time>
      </trkpt>
      <trkpt lat="45.08663" lon="1.24249">
        <ele>221.7</ele>
        <time>2023-10-28T13:58:37Z</time>
      </trkpt>
      <trkpt lat="45.08661" lon="1.24247">
        <ele>221.7</ele>
        <time>2023-10-28T13:58:38Z</time>
      </trkpt>
      <trkpt lat="45.0866" lon="1.24244">
        <ele>221.7</ele>
        <time>2023-10-28T13:58:39Z</time>
      </trkpt>
      <trkpt lat="45.08658" lon="1.24242">
        <ele>221.7</ele>
        <time>2023-10-28T13:58:40Z</time>
      </trkpt>
      <trkpt lat="45.08657" lon="1.24239">
        <ele>221.7</ele>
        <time>2023-10-28T13:58:41Z</time>
      </trkpt>
      <trkpt lat="45.08656" lon="1.24236">
        <ele>221.7</ele>
        <time>2023-10-28T13:58:42Z</time>
      </trkpt>
      <trkpt lat="45.08654" lon="1.24234">
        <ele>221.7</ele>
        <time>2023-10-28T13:58:43Z</time>
      </trkpt>
      <trkpt lat="45.08653" lon="1.24231">
        <ele>221.7</ele>
        <time>2023-10-28T13:58:44Z</time>
      </trkpt>
      <trkpt lat="45.08651" lon="1.24229">
        <ele>221.7</ele>
        <time>2023-10-28T13:58:45Z</time>
      </trkpt>
      <trkpt lat="45.08649" lon="1.24226">
        <ele>221.7</ele>
        <time>2023-10-28T13:58:46Z</time>
      </trkpt>
      <trkpt lat="45.08648" lon="1.24224">
        <ele>221.7</ele>
        <time>2023-10-28T13:58:47Z</time>
      </trkpt>
      <trkpt lat="45.08646" lon="1.24222">
        <ele>221.7</ele>
        <time>2023-10-28T13:58:48Z</time>
      </trkpt>
      <trkpt lat="45.08645" lon="1.2422">
        <ele>221.7</ele>
        <time>2023-10-28T13:58:49Z</time>
      </trkpt>
      <trkpt lat="45.08643" lon="1.24218">
        <ele>221.7</ele>
        <time>2023-10-28T13:58:50Z</time>
      </trkpt>
      <trkpt lat="45.08642" lon="1.24216">
        <ele>221.7</ele>
        <time>2023-10-28T13:58:51Z</time>
      </trkpt>
      <trkpt lat="45.0864" lon="1.24213">
        <ele>221.7</ele>
        <time>2023-10-28T13:58:52Z</time>
      </trkpt>
      <trkpt lat="45.08639" lon="1.24211">
        <ele>221.7</ele>
        <time>2023-10-28T13:58:53Z</time>
      </trkpt>
      <trkpt lat="45.08637" lon="1.24209">
        <ele>221.7</ele>
        <time>2023-10-28T13:58:54Z</time>
      </trkpt>
      <trkpt lat="45.08636" lon="1.24207">
        <ele>221.7</ele>
        <time>2023-10-28T13:58:55Z</time>
      </trkpt>
      <trkpt lat="45.08634" lon="1.24205">
        <ele>221.7</ele>
        <time>2023-10-28T13:58:56Z</time>
      </trkpt>
      <trkpt lat="45.08633" lon="1.24203">
        <ele>221.7</ele>
        <time>2023-10-28T13:58:57Z</time>
      </trkpt>
      <trkpt lat="45.08631" lon="1.24201">
        <ele>221.6</ele>
        <time>2023-10-28T13:58:58Z</time>
      </trkpt>
      <trkpt lat="45.08629" lon="1.24198">
        <ele>221.6</ele>
        <time>2023-10-28T13:58:59Z</time>
      </trkpt>
      <trkpt lat="45.08628" lon="1.24196">
        <ele>221.6</ele>
        <time>2023-10-28T13:59:00Z</time>
      </trkpt>
      <trkpt lat="45.08626" lon="1.24194">
        <ele>221.6</ele>
        <time>2023-10-28T13:59:01Z</time>
      </trkpt>
      <trkpt lat="45.08625" lon="1.24191">
        <ele>221.5</ele>
        <time>2023-10-28T13:59:02Z</time>
      </trkpt>
      <trkpt lat="45.08623" lon="1.24189">
        <ele>221.5</ele>
        <time>2023-10-28T13:59:03Z</time>
      </trkpt>
      <trkpt lat="45.08621" lon="1.24186">
        <ele>221.5</ele>
        <time>2023-10-28T13:59:04Z</time>
      </trkpt>
      <trkpt lat="45.08619" lon="1.24184">
        <ele>221.5</ele>
        <time>2023-10-28T13:59:05Z</time>
      </trkpt>
      <trkpt lat="45.08617" lon="1.24182">
        <ele>221.4</ele>
        <time>2023-10-28T13:59:06Z</time>
      </trkpt>
      <trkpt lat="45.08615" lon="1.2418">
        <ele>221.4</ele>
        <time>2023-10-28T13:59:07Z</time>
      </trkpt>
      <trkpt lat="45.08613" lon="1.24177">
        <ele>221.4</ele>
        <time>2023-10-28T13:59:08Z</time>
      </trkpt>
      <trkpt lat="45.08611" lon="1.24175">
        <ele>221.3</ele>
        <time>2023-10-28T13:59:09Z</time>
      </trkpt>
      <trkpt lat="45.08609" lon="1.24173">
        <ele>221.3</ele>
        <time>2023-10-28T13:59:10Z</time>
      </trkpt>
      <trkpt lat="45.08608" lon="1.24171">
        <ele>221.3</ele>
        <time>2023-10-28T13:59:11Z</time>
      </trkpt>
      <trkpt lat="45.08606" lon="1.24169">
        <ele>221.2</ele>
        <time>2023-10-28T13:59:12Z</time>
      </trkpt>
      <trkpt lat="45.08604" lon="1.24166">
        <ele>221.2</ele>
        <time>2023-10-28T13:59:13Z</time>
      </trkpt>
      <trkpt lat="45.08603" lon="1.24164">
        <ele>221.1</ele>
        <time>2023-10-28T13:59:14Z</time>
      </trkpt>
      <trkpt lat="45.08601" lon="1.24161">
        <ele>221.1</ele>
        <time>2023-10-28T13:59:15Z</time>
      </trkpt>
      <trkpt lat="45.086" lon="1.24158">
        <ele>221</ele>
        <time>2023-10-28T13:59:16Z</time>
      </trkpt>
      <trkpt lat="45.08598" lon="1.24156">
        <ele>221</ele>
        <time>2023-10-28T13:59:17Z</time>
      </trkpt>
      <trkpt lat="45.08596" lon="1.24153">
        <ele>220.9</ele>
        <time>2023-10-28T13:59:18Z</time>
      </trkpt>
      <trkpt lat="45.08595" lon="1.2415">
        <ele>220.9</ele>
        <time>2023-10-28T13:59:19Z</time>
      </trkpt>
      <trkpt lat="45.08593" lon="1.24148">
        <ele>220.8</ele>
        <time>2023-10-28T13:59:20Z</time>
      </trkpt>
      <trkpt lat="45.08592" lon="1.24145">
        <ele>220.8</ele>
        <time>2023-10-28T13:59:21Z</time>
      </trkpt>
      <trkpt lat="45.0859" lon="1.24143">
        <ele>220.7</ele>
        <time>2023-10-28T13:59:22Z</time>
      </trkpt>
      <trkpt lat="45.08589" lon="1.24141">
        <ele>220.7</ele>
        <time>2023-10-28T13:59:23Z</time>
      </trkpt>
      <trkpt lat="45.08587" lon="1.24138">
        <ele>220.6</ele>
        <time>2023-10-28T13:59:24Z</time>
      </trkpt>
      <trkpt lat="45.08586" lon="1.24136">
        <ele>220.6</ele>
        <time>2023-10-28T13:59:25Z</time>
      </trkpt>
      <trkpt lat="45.08584" lon="1.24134">
        <ele>220.5</ele>
        <time>2023-10-28T13:59:26Z</time>
      </trkpt>
      <trkpt lat="45.08582" lon="1.24131">
        <ele>220.5</ele>
        <time>2023-10-28T13:59:27Z</time>
      </trkpt>
      <trkpt lat="45.08581" lon="1.24129">
        <ele>220.4</ele>
        <time>2023-10-28T13:59:28Z</time>
      </trkpt>
      <trkpt lat="45.08579" lon="1.24127">
        <ele>220.4</ele>
        <time>2023-10-28T13:59:29Z</time>
      </trkpt>
      <trkpt lat="45.08577" lon="1.24124">
        <ele>220.3</ele>
        <time>2023-10-28T13:59:30Z</time>
      </trkpt>
      <trkpt lat="45.08575" lon="1.24122">
        <ele>220.3</ele>
        <time>2023-10-28T13:59:31Z</time>
      </trkpt>
      <trkpt lat="45.08574" lon="1.24119">
        <ele>220.2</ele>
        <time>2023-10-28T13:59:32Z</time>
      </trkpt>
      <trkpt lat="45.08572" lon="1.24117">
        <ele>220.2</ele>
        <time>2023-10-28T13:59:33Z</time>
      </trkpt>
      <trkpt lat="45.0857" lon="1.24114">
        <ele>220.1</ele>
        <time>2023-10-28T13:59:34Z</time>
      </trkpt>
      <trkpt lat="45.08568" lon="1.24112">
        <ele>220</ele>
        <time>2023-10-28T13:59:35Z</time>
      </trkpt>
      <trkpt lat="45.08566" lon="1.2411">
        <ele>220</ele>
        <time>2023-10-28T13:59:36Z</time>
      </trkpt>
      <trkpt lat="45.08565" lon="1.24108">
        <ele>219.9</ele>
        <time>2023-10-28T13:59:37Z</time>
      </trkpt>
      <trkpt lat="45.08563" lon="1.24105">
        <ele>219.9</ele>
        <time>2023-10-28T13:59:38Z</time>
      </trkpt>
      <trkpt lat="45.08561" lon="1.24103">
        <ele>219.8</ele>
        <time>2023-10-28T13:59:39Z</time>
      </trkpt>
      <trkpt lat="45.08559" lon="1.24102">
        <ele>219.8</ele>
        <time>2023-10-28T13:59:40Z</time>
      </trkpt>
      <trkpt lat="45.08556" lon="1.241">
        <ele>219.7</ele>
        <time>2023-10-28T13:59:41Z</time>
      </trkpt>
      <trkpt lat="45.08555" lon="1.24098">
        <ele>219.7</ele>
        <time>2023-10-28T13:59:42Z</time>
      </trkpt>
      <trkpt lat="45.08553" lon="1.24095">
        <ele>219.7</ele>
        <time>2023-10-28T13:59:43Z</time>
      </trkpt>
      <trkpt lat="45.0855" lon="1.24093">
        <ele>219.7</ele>
        <time>2023-10-28T13:59:44Z</time>
      </trkpt>
      <trkpt lat="45.08548" lon="1.24091">
        <ele>219.6</ele>
        <time>2023-10-28T13:59:45Z</time>
      </trkpt>
      <trkpt lat="45.08546" lon="1.24089">
        <ele>219.6</ele>
        <time>2023-10-28T13:59:46Z</time>
      </trkpt>
      <trkpt lat="45.08545" lon="1.24086">
        <ele>219.6</ele>
        <time>2023-10-28T13:59:47Z</time>
      </trkpt>
      <trkpt lat="45.08543" lon="1.24084">
        <ele>219.6</ele>
        <time>2023-10-28T13:59:48Z</time>
      </trkpt>
      <trkpt lat="45.08542" lon="1.24082">
        <ele>219.6</ele>
        <time>2023-10-28T13:59:49Z</time>
      </trkpt>
      <trkpt lat="45.08541" lon="1.2408">
        <ele>219.6</ele>
        <time>2023-10-28T13:59:50Z</time>
      </trkpt>
      <trkpt lat="45.0854" lon="1.24078">
        <ele>219.6</ele>
        <time>2023-10-28T13:59:51Z</time>
      </trkpt>
      <trkpt lat="45.0854" lon="1.24076">
        <ele>219.6</ele>
        <time>2023-10-28T13:59:52Z</time>
      </trkpt>
      <trkpt lat="45.0854" lon="1.24075">
        <ele>219.6</ele>
        <time>2023-10-28T13:59:53Z</time>
      </trkpt>
      <trkpt lat="45.0854" lon="1.24075">
        <ele>219.6</ele>
        <time>2023-10-28T13:59:54Z</time>
      </trkpt>
      <trkpt lat="45.0854" lon="1.24075">
        <ele>219.6</ele>
        <time>2023-10-28T13:59:55Z</time>
      </trkpt>
      <trkpt lat="45.0854" lon="1.24075">
        <ele>219.6</ele>
        <time>2023-10-28T13:59:56Z</time>
      </trkpt>
      <trkpt lat="45.0854" lon="1.24075">
        <ele>219.6</ele>
        <time>2023-10-28T13:59:57Z</time>
      </trkpt>
      <trkpt lat="45.0854" lon="1.24075">
        <ele>219.6</ele>
        <time>2023-10-28T13:59:58Z</time>
      </trkpt>
      <trkpt lat="45.0854" lon="1.24075">
        <ele>219.6</ele>
        <time>2023-10-28T13:59:59Z</time>
      </trkpt>
      <trkpt lat="45.0854" lon="1.24075">
        <ele>219.6</ele>
        <time>2023-10-28T14:00:00Z</time>
      </trkpt>
      <trkpt lat="45.0854" lon="1.24075">
        <ele>219.6</ele>
        <time>2023-10-28T14:00:01Z</time>
      </trkpt>
      <trkpt lat="45.0854" lon="1.24075">
        <ele>219.6</ele>
        <time>2023-10-28T14:00:02Z</time>
      </trkpt>
      <trkpt lat="45.0854" lon="1.24075">
        <ele>219.6</ele>
        <time>2023-10-28T14:00:03Z</time>
      </trkpt>
      <trkpt lat="45.0854" lon="1.24075">
        <ele>219.6</ele>
        <time>2023-10-28T14:00:04Z</time>
      </trkpt>
      <trkpt lat="45.0854" lon="1.24075">
        <ele>219.6</ele>
        <time>2023-10-28T14:00:05Z</time>
      </trkpt>
      <trkpt lat="45.0854" lon="1.24075">
        <ele>219.6</ele>
        <time>2023-10-28T14:00:06Z</time>
      </trkpt>
      <trkpt lat="45.0854" lon="1.24075">
        <ele>219.6</ele>
        <time>2023-10-28T14:00:07Z</time>
      </trkpt>
      <trkpt lat="45.0854" lon="1.24075">
        <ele>219.6</ele>
        <time>2023-10-28T14:00:08Z</time>
      </trkpt>
      <trkpt lat="45.0854" lon="1.24075">
        <ele>219.6</ele>
        <time>2023-10-28T14:00:09Z</time>
      </trkpt>
      <trkpt lat="45.0854" lon="1.24075">
        <ele>219.6</ele>
        <time>2023-10-28T14:00:10Z</time>
      </trkpt>
      <trkpt lat="45.0854" lon="1.24075">
        <ele>219.6</ele>
        <time>2023-10-28T14:00:11Z</time>
      </trkpt>
      <trkpt lat="45.0854" lon="1.24075">
        <ele>219.6</ele>
        <time>2023-10-28T14:00:12Z</time>
      </trkpt>
      <trkpt lat="45.0854" lon="1.24075">
        <ele>219.6</ele>
        <time>2023-10-28T14:00:13Z</time>
      </trkpt>
      <trkpt lat="45.08541" lon="1.24074">
        <ele>219.6</ele>
        <time>2023-10-28T14:00:14Z</time>
      </trkpt>
      <trkpt lat="45.08541" lon="1.24075">
        <ele>219.5</ele>
        <time>2023-10-28T14:00:15Z</time>
      </trkpt>
      <trkpt lat="45.08542" lon="1.24075">
        <ele>219.5</ele>
        <time>2023-10-28T14:00:16Z</time>
      </trkpt>
      <trkpt lat="45.08542" lon="1.24076">
        <ele>219.5</ele>
        <time>2023-10-28T14:00:17Z</time>
      </trkpt>
      <trkpt lat="45.08542" lon="1.24077">
        <ele>219.5</ele>
        <time>2023-10-28T14:00:18Z</time>
      </trkpt>
      <trkpt lat="45.08543" lon="1.24079">
        <ele>219.5</ele>
        <time>2023-10-28T14:00:19Z</time>
      </trkpt>
      <trkpt lat="45.08544" lon="1.24081">
        <ele>219.5</ele>
        <time>2023-10-28T14:00:20Z</time>
      </trkpt>
      <trkpt lat="45.08545" lon="1.24083">
        <ele>219.5</ele>
        <time>2023-10-28T14:00:21Z</time>
      </trkpt>
      <trkpt lat="45.08546" lon="1.24085">
        <ele>219.5</ele>
        <time>2023-10-28T14:00:22Z</time>
      </trkpt>
      <trkpt lat="45.08548" lon="1.24087">
        <ele>219.6</ele>
        <time>2023-10-28T14:00:23Z</time>
      </trkpt>
      <trkpt lat="45.0855" lon="1.2409">
        <ele>219.6</ele>
        <time>2023-10-28T14:00:24Z</time>
      </trkpt>
      <trkpt lat="45.08551" lon="1.24092">
        <ele>219.6</ele>
        <time>2023-10-28T14:00:25Z</time>
      </trkpt>
      <trkpt lat="45.08553" lon="1.24094">
        <ele>219.6</ele>
        <time>2023-10-28T14:00:26Z</time>
      </trkpt>
      <trkpt lat="45.08555" lon="1.24096">
        <ele>219.7</ele>
        <time>2023-10-28T14:00:27Z</time>
      </trkpt>
      <trkpt lat="45.08557" lon="1.24098">
        <ele>219.7</ele>
        <time>2023-10-28T14:00:28Z</time>
      </trkpt>
      <trkpt lat="45.08558" lon="1.241">
        <ele>219.7</ele>
        <time>2023-10-28T14:00:29Z</time>
      </trkpt>
      <trkpt lat="45.0856" lon="1.24102">
        <ele>219.8</ele>
        <time>2023-10-28T14:00:30Z</time>
      </trkpt>
      <trkpt lat="45.08561" lon="1.24104">
        <ele>219.8</ele>
        <time>2023-10-28T14:00:31Z</time>
      </trkpt>
      <trkpt lat="45.08563" lon="1.24105">
        <ele>219.9</ele>
        <time>2023-10-28T14:00:32Z</time>
      </trkpt>
      <trkpt lat="45.08564" lon="1.24107">
        <ele>219.9</ele>
        <time>2023-10-28T14:00:33Z</time>
      </trkpt>
      <trkpt lat="45.08566" lon="1.24109">
        <ele>220</ele>
        <time>2023-10-28T14:00:34Z</time>
      </trkpt>
      <trkpt lat="45.08568" lon="1.24111">
        <ele>220</ele>
        <time>2023-10-28T14:00:35Z</time>
      </trkpt>
      <trkpt lat="45.0857" lon="1.24113">
        <ele>220.1</ele>
        <time>2023-10-28T14:00:36Z</time>
      </trkpt>
      <trkpt lat="45.08571" lon="1.24115">
        <ele>220.1</ele>
        <time>2023-10-28T14:00:37Z</time>
      </trkpt>
      <trkpt lat="45.08573" lon="1.24117">
        <ele>220.2</ele>
        <time>2023-10-28T14:00:38Z</time>
      </trkpt>
      <trkpt lat="45.08575" lon="1.24119">
        <ele>220.2</ele>
        <time>2023-10-28T14:00:39Z</time>
      </trkpt>
      <trkpt lat="45.08577" lon="1.24121">
        <ele>220.3</ele>
        <time>2023-10-28T14:00:40Z</time>
      </trkpt>
      <trkpt lat="45.08578" lon="1.24123">
        <ele>220.3</ele>
        <time>2023-10-28T14:00:41Z</time>
      </trkpt>
      <trkpt lat="45.0858" lon="1.24125">
        <ele>220.4</ele>
        <time>2023-10-28T14:00:42Z</time>
      </trkpt>
      <trkpt lat="45.08582" lon="1.24127">
        <ele>220.4</ele>
        <time>2023-10-28T14:00:43Z</time>
      </trkpt>
      <trkpt lat="45.08583" lon="1.24129">
        <ele>220.5</ele>
        <time>2023-10-28T14:00:44Z</time>
      </trkpt>
      <trkpt lat="45.08584" lon="1.24131">
        <ele>220.5</ele>
        <time>2023-10-28T14:00:45Z</time>
      </trkpt>
      <trkpt lat="45.08586" lon="1.24133">
        <ele>220.5</ele>
        <time>2023-10-28T14:00:46Z</time>
      </trkpt>
      <trkpt lat="45.08587" lon="1.24135">
        <ele>220.6</ele>
        <time>2023-10-28T14:00:47Z</time>
      </trkpt>
      <trkpt lat="45.08588" lon="1.24138">
        <ele>220.6</ele>
        <time>2023-10-28T14:00:48Z</time>
      </trkpt>
      <trkpt lat="45.0859" lon="1.2414">
        <ele>220.7</ele>
        <time>2023-10-28T14:00:49Z</time>
      </trkpt>
      <trkpt lat="45.08591" lon="1.24142">
        <ele>220.7</ele>
        <time>2023-10-28T14:00:50Z</time>
      </trkpt>
      <trkpt lat="45.08592" lon="1.24145">
        <ele>220.8</ele>
        <time>2023-10-28T14:00:51Z</time>
      </trkpt>
      <trkpt lat="45.08593" lon="1.24147">
        <ele>220.8</ele>
        <time>2023-10-28T14:00:52Z</time>
      </trkpt>
      <trkpt lat="45.08595" lon="1.24149">
        <ele>220.9</ele>
        <time>2023-10-28T14:00:53Z</time>
      </trkpt>
      <trkpt lat="45.08596" lon="1.24152">
        <ele>220.9</ele>
        <time>2023-10-28T14:00:54Z</time>
      </trkpt>
      <trkpt lat="45.08598" lon="1.24155">
        <ele>221</ele>
        <time>2023-10-28T14:00:55Z</time>
      </trkpt>
      <trkpt lat="45.08599" lon="1.24157">
        <ele>221</ele>
        <time>2023-10-28T14:00:56Z</time>
      </trkpt>
      <trkpt lat="45.08601" lon="1.2416">
        <ele>221.1</ele>
        <time>2023-10-28T14:00:57Z</time>
      </trkpt>
      <trkpt lat="45.08603" lon="1.24163">
        <ele>221.1</ele>
        <time>2023-10-28T14:00:58Z</time>
      </trkpt>
      <trkpt lat="45.08605" lon="1.24166">
        <ele>221.2</ele>
        <time>2023-10-28T14:00:59Z</time>
      </trkpt>
      <trkpt lat="45.08607" lon="1.24169">
        <ele>221.2</ele>
        <time>2023-10-28T14:01:00Z</time>
      </trkpt>
      <trkpt lat="45.08609" lon="1.24172">
        <ele>221.3</ele>
        <time>2023-10-28T14:01:01Z</time>
      </trkpt>
      <trkpt lat="45.08611" lon="1.24174">
        <ele>221.3</ele>
        <time>2023-10-28T14:01:02Z</time>
      </trkpt>
      <trkpt lat="45.08613" lon="1.24177">
        <ele>221.4</ele>
        <time>2023-10-28T14:01:03Z</time>
      </trkpt>
      <trkpt lat="45.08615" lon="1.24179">
        <ele>221.4</ele>
        <time>2023-10-28T14:01:04Z</time>
      </trkpt>
      <trkpt lat="45.08617" lon="1.24182">
        <ele>221.4</ele>
        <time>2023-10-28T14:01:05Z</time>
      </trkpt>
      <trkpt lat="45.08619" lon="1.24184">
        <ele>221.5</ele>
        <time>2023-10-28T14:01:06Z</time>
      </trkpt>
      <trkpt lat="45.08621" lon="1.24186">
        <ele>221.5</ele>
        <time>2023-10-28T14:01:07Z</time>
      </trkpt>
      <trkpt lat="45.08623" lon="1.24188">
        <ele>221.5</ele>
        <time>2023-10-28T14:01:08Z</time>
      </trkpt>
      <trkpt lat="45.08625" lon="1.24189">
        <ele>221.5</ele>
        <time>2023-10-28T14:01:09Z</time>
      </trkpt>
      <trkpt lat="45.08626" lon="1.24191">
        <ele>221.6</ele>
        <time>2023-10-28T14:01:10Z</time>
      </trkpt>
      <trkpt lat="45.08628" lon="1.24193">
        <ele>221.6</ele>
        <time>2023-10-28T14:01:11Z</time>
      </trkpt>
      <trkpt lat="45.08629" lon="1.24194">
        <ele>221.6</ele>
        <time>2023-10-28T14:01:12Z</time>
      </trkpt>
      <trkpt lat="45.08631" lon="1.24196">
        <ele>221.6</ele>
        <time>2023-10-28T14:01:13Z</time>
      </trkpt>
      <trkpt lat="45.08632" lon="1.24198">
        <ele>221.6</ele>
        <time>2023-10-28T14:01:14Z</time>
      </trkpt>
      <trkpt lat="45.08634" lon="1.242">
        <ele>221.7</ele>
        <time>2023-10-28T14:01:15Z</time>
      </trkpt>
      <trkpt lat="45.08636" lon="1.24203">
        <ele>221.7</ele>
        <time>2023-10-28T14:01:16Z</time>
      </trkpt>
      <trkpt lat="45.08637" lon="1.24205">
        <ele>221.7</ele>
        <time>2023-10-28T14:01:17Z</time>
      </trkpt>
      <trkpt lat="45.08638" lon="1.24207">
        <ele>221.7</ele>
        <time>2023-10-28T14:01:18Z</time>
      </trkpt>
      <trkpt lat="45.0864" lon="1.2421">
        <ele>221.7</ele>
        <time>2023-10-28T14:01:19Z</time>
      </trkpt>
      <trkpt lat="45.08641" lon="1.24212">
        <ele>221.7</ele>
        <time>2023-10-28T14:01:20Z</time>
      </trkpt>
      <trkpt lat="45.08643" lon="1.24215">
        <ele>221.7</ele>
        <time>2023-10-28T14:01:21Z</time>
      </trkpt>
      <trkpt lat="45.08644" lon="1.24217">
        <ele>221.7</ele>
        <time>2023-10-28T14:01:22Z</time>
      </trkpt>
      <trkpt lat="45.08646" lon="1.2422">
        <ele>221.7</ele>
        <time>2023-10-28T14:01:23Z</time>
      </trkpt>
      <trkpt lat="45.08647" lon="1.24222">
        <ele>221.7</ele>
        <time>2023-10-28T14:01:24Z</time>
      </trkpt>
      <trkpt lat="45.08648" lon="1.24225">
        <ele>221.7</ele>
        <time>2023-10-28T14:01:25Z</time>
      </trkpt>
      <trkpt lat="45.0865" lon="1.24227">
        <ele>221.7</ele>
        <time>2023-10-28T14:01:26Z</time>
      </trkpt>
      <trkpt lat="45.08651" lon="1.2423">
        <ele>221.7</ele>
        <time>2023-10-28T14:01:27Z</time>
      </trkpt>
      <trkpt lat="45.08652" lon="1.24233">
        <ele>221.7</ele>
        <time>2023-10-28T14:01:28Z</time>
      </trkpt>
      <trkpt lat="45.08654" lon="1.24235">
        <ele>221.7</ele>
        <time>2023-10-28T14:01:29Z</time>
      </trkpt>
      <trkpt lat="45.08655" lon="1.24238">
        <ele>221.7</ele>
        <time>2023-10-28T14:01:30Z</time>
      </trkpt>
      <trkpt lat="45.08656" lon="1.2424">
        <ele>221.7</ele>
        <time>2023-10-28T14:01:31Z</time>
      </trkpt>
      <trkpt lat="45.08658" lon="1.24243">
        <ele>221.7</ele>
        <time>2023-10-28T14:01:32Z</time>
      </trkpt>
      <trkpt lat="45.08659" lon="1.24246">
        <ele>221.7</ele>
        <time>2023-10-28T14:01:33Z</time>
      </trkpt>
      <trkpt lat="45.08661" lon="1.24248">
        <ele>221.7</ele>
        <time>2023-10-28T14:01:34Z</time>
      </trkpt>
      <trkpt lat="45.08662" lon="1.24251">
        <ele>221.7</ele>
        <time>2023-10-28T14:01:35Z</time>
      </trkpt>
      <trkpt lat="45.08664" lon="1.24254">
        <ele>221.7</ele>
        <time>2023-10-28T14:01:36Z</time>
      </trkpt>
      <trkpt lat="45.08665" lon="1.24257">
        <ele>221.7</ele>
        <time>2023-10-28T14:01:37Z</time>
      </trkpt>
      <trkpt lat="45.08666" lon="1.2426">
        <ele>221.7</ele>
        <time>2023-10-28T14:01:38Z</time>
      </trkpt>
      <trkpt lat="45.08667" lon="1.24263">
        <ele>221.7</ele>
        <time>2023-10-28T14:01:39Z</time>
      </trkpt>
      <trkpt lat="45.08669" lon="1.24267">
        <ele>221.7</ele>
        <time>2023-10-28T14:01:40Z</time>
      </trkpt>
      <trkpt lat="45.0867" lon="1.24269">
        <ele>221.6</ele>
        <time>2023-10-28T14:01:41Z</time>
      </trkpt>
      <trkpt lat="45.08671" lon="1.24272">
        <ele>221.6</ele>
        <time>2023-10-28T14:01:42Z</time>
      </trkpt>
      <trkpt lat="45.08673" lon="1.24275">
        <ele>221.6</ele>
        <time>2023-10-28T14:01:43Z</time>
      </trkpt>
      <trkpt lat="45.08674" lon="1.24278">
        <ele>221.6</ele>
        <time>2023-10-28T14:01:44Z</time>
      </trkpt>
      <trkpt lat="45.08675" lon="1.2428">
        <ele>221.6</ele>
        <time>2023-10-28T14:01:45Z</time>
      </trkpt>
      <trkpt lat="45.08677" lon="1.24283">
        <ele>221.6</ele>
        <time>2023-10-28T14:01:46Z</time>
      </trkpt>
      <trkpt lat="45.08678" lon="1.24286">
        <ele>221.6</ele>
        <time>2023-10-28T14:01:47Z</time>
      </trkpt>
      <trkpt lat="45.08679" lon="1.24289">
        <ele>221.6</ele>
        <time>2023-10-28T14:01:48Z</time>
      </trkpt>
      <trkpt lat="45.0868" lon="1.24292">
        <ele>221.5</ele>
        <time>2023-10-28T14:01:49Z</time>
      </trkpt>
      <trkpt lat="45.08682" lon="1.24295">
        <ele>221.5</ele>
        <time>2023-10-28T14:01:50Z</time>
      </trkpt>
      <trkpt lat="45.08683" lon="1.24298">
        <ele>221.5</ele>
        <time>2023-10-28T14:01:51Z</time>
      </trkpt>
      <trkpt lat="45.08685" lon="1.24301">
        <ele>221.5</ele>
        <time>2023-10-28T14:01:52Z</time>
      </trkpt>
      <trkpt lat="45.08686" lon="1.24304">
        <ele>221.5</ele>
        <time>2023-10-28T14:01:53Z</time>
      </trkpt>
      <trkpt lat="45.08687" lon="1.24307">
        <ele>221.5</ele>
        <time>2023-10-28T14:01:54Z</time>
      </trkpt>
      <trkpt lat="45.08688" lon="1.2431">
        <ele>221.5</ele>
        <time>2023-10-28T14:01:55Z</time>
      </trkpt>
      <trkpt lat="45.0869" lon="1.24314">
        <ele>221.5</ele>
        <time>2023-10-28T14:01:56Z</time>
      </trkpt>
      <trkpt lat="45.08691" lon="1.24317">
        <ele>221.5</ele>
        <time>2023-10-28T14:01:57Z</time>
      </trkpt>
      <trkpt lat="45.08693" lon="1.2432">
        <ele>221.5</ele>
        <time>2023-10-28T14:01:58Z</time>
      </trkpt>
      <trkpt lat="45.08694" lon="1.24323">
        <ele>221.5</ele>
        <time>2023-10-28T14:01:59Z</time>
      </trkpt>
      <trkpt lat="45.08695" lon="1.24326">
        <ele>221.5</ele>
        <time>2023-10-28T14:02:00Z</time>
      </trkpt>
      <trkpt lat="45.08696" lon="1.24329">
        <ele>221.5</ele>
        <time>2023-10-28T14:02:01Z</time>
      </trkpt>
      <trkpt lat="45.08697" lon="1.24332">
        <ele>221.5</ele>
        <time>2023-10-28T14:02:02Z</time>
      </trkpt>
      <trkpt lat="45.08699" lon="1.24334">
        <ele>221.5</ele>
        <time>2023-10-28T14:02:03Z</time>
      </trkpt>
      <trkpt lat="45.087" lon="1.24337">
        <ele>221.5</ele>
        <time>2023-10-28T14:02:04Z</time>
      </trkpt>
      <trkpt lat="45.08702" lon="1.24339">
        <ele>221.5</ele>
        <time>2023-10-28T14:02:05Z</time>
      </trkpt>
      <trkpt lat="45.08703" lon="1.24342">
        <ele>221.6</ele>
        <time>2023-10-28T14:02:06Z</time>
      </trkpt>
      <trkpt lat="45.08705" lon="1.24344">
        <ele>221.6</ele>
        <time>2023-10-28T14:02:07Z</time>
      </trkpt>
      <trkpt lat="45.08707" lon="1.24347">
        <ele>221.6</ele>
        <time>2023-10-28T14:02:08Z</time>
      </trkpt>
      <trkpt lat="45.08709" lon="1.24349">
        <ele>221.6</ele>
        <time>2023-10-28T14:02:09Z</time>
      </trkpt>
      <trkpt lat="45.08711" lon="1.24351">
        <ele>221.6</ele>
        <time>2023-10-28T14:02:10Z</time>
      </trkpt>
      <trkpt lat="45.08714" lon="1.24352">
        <ele>221.7</ele>
        <time>2023-10-28T14:02:11Z</time>
      </trkpt>
      <trkpt lat="45.08715" lon="1.24354">
        <ele>221.7</ele>
        <time>2023-10-28T14:02:12Z</time>
      </trkpt>
      <trkpt lat="45.08718" lon="1.24356">
        <ele>221.7</ele>
        <time>2023-10-28T14:02:13Z</time>
      </trkpt>
      <trkpt lat="45.0872" lon="1.24358">
        <ele>221.7</ele>
        <time>2023-10-28T14:02:14Z</time>
      </trkpt>
      <trkpt lat="45.08722" lon="1.2436">
        <ele>221.8</ele>
        <time>2023-10-28T14:02:15Z</time>
      </trkpt>
      <trkpt lat="45.08723" lon="1.24361">
        <ele>221.8</ele>
        <time>2023-10-28T14:02:16Z</time>
      </trkpt>
      <trkpt lat="45.08725" lon="1.24363">
        <ele>221.8</ele>
        <time>2023-10-28T14:02:17Z</time>
      </trkpt>
      <trkpt lat="45.08727" lon="1.24365">
        <ele>221.8</ele>
        <time>2023-10-28T14:02:18Z</time>
      </trkpt>
      <trkpt lat="45.08728" lon="1.24367">
        <ele>221.8</ele>
        <time>2023-10-28T14:02:19Z</time>
      </trkpt>
      <trkpt lat="45.0873" lon="1.24369">
        <ele>221.8</ele>
        <time>2023-10-28T14:02:20Z</time>
      </trkpt>
      <trkpt lat="45.08732" lon="1.24371">
        <ele>221.8</ele>
        <time>2023-10-28T14:02:21Z</time>
      </trkpt>
      <trkpt lat="45.08734" lon="1.24373">
        <ele>221.8</ele>
        <time>2023-10-28T14:02:22Z</time>
      </trkpt>
      <trkpt lat="45.08736" lon="1.24376">
        <ele>221.8</ele>
        <time>2023-10-28T14:02:23Z</time>
      </trkpt>
      <trkpt lat="45.08738" lon="1.24378">
        <ele>221.9</ele>
        <time>2023-10-28T14:02:24Z</time>
      </trkpt>
      <trkpt lat="45.0874" lon="1.2438">
        <ele>221.9</ele>
        <time>2023-10-28T14:02:25Z</time>
      </trkpt>
      <trkpt lat="45.08741" lon="1.24382">
        <ele>221.9</ele>
        <time>2023-10-28T14:02:26Z</time>
      </trkpt>
      <trkpt lat="45.08744" lon="1.24384">
        <ele>221.9</ele>
        <time>2023-10-28T14:02:27Z</time>
      </trkpt>
      <trkpt lat="45.08746" lon="1.24386">
        <ele>221.9</ele>
        <time>2023-10-28T14:02:28Z</time>
      </trkpt>
      <trkpt lat="45.08748" lon="1.24388">
        <ele>221.9</ele>
        <time>2023-10-28T14:02:29Z</time>
      </trkpt>
      <trkpt lat="45.0875" lon="1.24391">
        <ele>221.9</ele>
        <time>2023-10-28T14:02:30Z</time>
      </trkpt>
      <trkpt lat="45.08752" lon="1.24393">
        <ele>221.9</ele>
        <time>2023-10-28T14:02:31Z</time>
      </trkpt>
      <trkpt lat="45.08754" lon="1.24395">
        <ele>221.9</ele>
        <time>2023-10-28T14:02:32Z</time>
      </trkpt>
      <trkpt lat="45.08756" lon="1.24398">
        <ele>221.9</ele>
        <time>2023-10-28T14:02:33Z</time>
      </trkpt>
      <trkpt lat="45.08758" lon="1.244">
        <ele>221.9</ele>
        <time>2023-10-28T14:02:34Z</time>
      </trkpt>
      <trkpt lat="45.0876" lon="1.24403">
        <ele>221.9</ele>
        <time>2023-10-28T14:02:35Z</time>
      </trkpt>
      <trkpt lat="45.08762" lon="1.24405">
        <ele>221.9</ele>
        <time>2023-10-28T14:02:36Z</time>
      </trkpt>
      <trkpt lat="45.08764" lon="1.24407">
        <ele>221.9</ele>
        <time>2023-10-28T14:02:37Z</time>
      </trkpt>
      <trkpt lat="45.08766" lon="1.24409">
        <ele>222</ele>
        <time>2023-10-28T14:02:38Z</time>
      </trkpt>
      <trkpt lat="45.08768" lon="1.24412">
        <ele>222</ele>
        <time>2023-10-28T14:02:39Z</time>
      </trkpt>
      <trkpt lat="45.0877" lon="1.24414">
        <ele>222</ele>
        <time>2023-10-28T14:02:40Z</time>
      </trkpt>
      <trkpt lat="45.08772" lon="1.24416">
        <ele>222</ele>
        <time>2023-10-28T14:02:41Z</time>
      </trkpt>
      <trkpt lat="45.08775" lon="1.24418">
        <ele>222.1</ele>
        <time>2023-10-28T14:02:42Z</time>
      </trkpt>
      <trkpt lat="45.08777" lon="1.2442">
        <ele>222.1</ele>
        <time>2023-10-28T14:02:43Z</time>
      </trkpt>
      <trkpt lat="45.08779" lon="1.24422">
        <ele>222.1</ele>
        <time>2023-10-28T14:02:44Z</time>
      </trkpt>
      <trkpt lat="45.08781" lon="1.24424">
        <ele>222.1</ele>
        <time>2023-10-28T14:02:45Z</time>
      </trkpt>
      <trkpt lat="45.08783" lon="1.24425">
        <ele>222.2</ele>
        <time>2023-10-28T14:02:46Z</time>
      </trkpt>
      <trkpt lat="45.08785" lon="1.24427">
        <ele>222.2</ele>
        <time>2023-10-28T14:02:47Z</time>
      </trkpt>
      <trkpt lat="45.08788" lon="1.24428">
        <ele>222.2</ele>
        <time>2023-10-28T14:02:48Z</time>
      </trkpt>
      <trkpt lat="45.08789" lon="1.24429">
        <ele>222.2</ele>
        <time>2023-10-28T14:02:49Z</time>
      </trkpt>
      <trkpt lat="45.08792" lon="1.24431">
        <ele>222.2</ele>
        <time>2023-10-28T14:02:50Z</time>
      </trkpt>
      <trkpt lat="45.08794" lon="1.24432">
        <ele>222.3</ele>
        <time>2023-10-28T14:02:51Z</time>
      </trkpt>
      <trkpt lat="45.08796" lon="1.24433">
        <ele>222.3</ele>
        <time>2023-10-28T14:02:52Z</time>
      </trkpt>
      <trkpt lat="45.08798" lon="1.24433">
        <ele>222.3</ele>
        <time>2023-10-28T14:02:53Z</time>
      </trkpt>
      <trkpt lat="45.088" lon="1.24434">
        <ele>222.3</ele>
        <time>2023-10-28T14:02:54Z</time>
      </trkpt>
      <trkpt lat="45.08802" lon="1.24435">
        <ele>222.3</ele>
        <time>2023-10-28T14:02:55Z</time>
      </trkpt>
      <trkpt lat="45.08805" lon="1.24436">
        <ele>222.3</ele>
        <time>2023-10-28T14:02:56Z</time>
      </trkpt>
      <trkpt lat="45.08807" lon="1.24437">
        <ele>222.3</ele>
        <time>2023-10-28T14:02:57Z</time>
      </trkpt>
      <trkpt lat="45.08809" lon="1.24438">
        <ele>222.4</ele>
        <time>2023-10-28T14:02:58Z</time>
      </trkpt>
      <trkpt lat="45.08812" lon="1.24439">
        <ele>222.4</ele>
        <time>2023-10-28T14:02:59Z</time>
      </trkpt>
      <trkpt lat="45.08814" lon="1.2444">
        <ele>222.4</ele>
        <time>2023-10-28T14:03:00Z</time>
      </trkpt>
      <trkpt lat="45.08817" lon="1.24441">
        <ele>222.4</ele>
        <time>2023-10-28T14:03:01Z</time>
      </trkpt>
      <trkpt lat="45.08819" lon="1.24442">
        <ele>222.4</ele>
        <time>2023-10-28T14:03:02Z</time>
      </trkpt>
      <trkpt lat="45.08821" lon="1.24442">
        <ele>222.4</ele>
        <time>2023-10-28T14:03:03Z</time>
      </trkpt>
      <trkpt lat="45.08823" lon="1.24443">
        <ele>222.4</ele>
        <time>2023-10-28T14:03:04Z</time>
      </trkpt>
      <trkpt lat="45.08825" lon="1.24444">
        <ele>222.4</ele>
        <time>2023-10-28T14:03:05Z</time>
      </trkpt>
      <trkpt lat="45.08828" lon="1.24444">
        <ele>222.5</ele>
        <time>2023-10-28T14:03:06Z</time>
      </trkpt>
      <trkpt lat="45.0883" lon="1.24445">
        <ele>222.5</ele>
        <time>2023-10-28T14:03:07Z</time>
      </trkpt>
      <trkpt lat="45.08832" lon="1.24445">
        <ele>222.5</ele>
        <time>2023-10-28T14:03:08Z</time>
      </trkpt>
      <trkpt lat="45.08835" lon="1.24446">
        <ele>222.5</ele>
        <time>2023-10-28T14:03:09Z</time>
      </trkpt>
      <trkpt lat="45.08836" lon="1.24447">
        <ele>222.5</ele>
        <time>2023-10-28T14:03:10Z</time>
      </trkpt>
      <trkpt lat="45.08839" lon="1.24447">
        <ele>222.5</ele>
        <time>2023-10-28T14:03:11Z</time>
      </trkpt>
      <trkpt lat="45.08841" lon="1.24447">
        <ele>222.5</ele>
        <time>2023-10-28T14:03:12Z</time>
      </trkpt>
      <trkpt lat="45.08843" lon="1.24448">
        <ele>222.6</ele>
        <time>2023-10-28T14:03:13Z</time>
      </trkpt>
      <trkpt lat="45.08845" lon="1.24448">
        <ele>222.6</ele>
        <time>2023-10-28T14:03:14Z</time>
      </trkpt>
      <trkpt lat="45.08847" lon="1.24449">
        <ele>222.6</ele>
        <time>2023-10-28T14:03:15Z</time>
      </trkpt>
      <trkpt lat="45.08849" lon="1.24449">
        <ele>222.6</ele>
        <time>2023-10-28T14:03:16Z</time>
      </trkpt>
      <trkpt lat="45.08852" lon="1.24449">
        <ele>222.6</ele>
        <time>2023-10-28T14:03:17Z</time>
      </trkpt>
      <trkpt lat="45.08854" lon="1.2445">
        <ele>222.7</ele>
        <time>2023-10-28T14:03:18Z</time>
      </trkpt>
      <trkpt lat="45.08856" lon="1.24451">
        <ele>222.7</ele>
        <time>2023-10-28T14:03:19Z</time>
      </trkpt>
      <trkpt lat="45.08858" lon="1.24451">
        <ele>222.7</ele>
        <time>2023-10-28T14:03:20Z</time>
      </trkpt>
      <trkpt lat="45.0886" lon="1.24452">
        <ele>222.7</ele>
        <time>2023-10-28T14:03:21Z</time>
      </trkpt>
      <trkpt lat="45.08862" lon="1.24453">
        <ele>222.8</ele>
        <time>2023-10-28T14:03:22Z</time>
      </trkpt>
      <trkpt lat="45.08864" lon="1.24455">
        <ele>222.8</ele>
        <time>2023-10-28T14:03:23Z</time>
      </trkpt>
      <trkpt lat="45.08866" lon="1.24456">
        <ele>222.8</ele>
        <time>2023-10-28T14:03:24Z</time>
      </trkpt>
      <trkpt lat="45.08868" lon="1.24457">
        <ele>222.9</ele>
        <time>2023-10-28T14:03:25Z</time>
      </trkpt>
      <trkpt lat="45.08871" lon="1.24459">
        <ele>222.9</ele>
        <time>2023-10-28T14:03:26Z</time>
      </trkpt>
      <trkpt lat="45.08873" lon="1.2446">
        <ele>223</ele>
        <time>2023-10-28T14:03:27Z</time>
      </trkpt>
      <trkpt lat="45.08875" lon="1.24461">
        <ele>223</ele>
        <time>2023-10-28T14:03:28Z</time>
      </trkpt>
      <trkpt lat="45.08877" lon="1.24462">
        <ele>223</ele>
        <time>2023-10-28T14:03:29Z</time>
      </trkpt>
      <trkpt lat="45.08879" lon="1.24463">
        <ele>223.1</ele>
        <time>2023-10-28T14:03:30Z</time>
      </trkpt>
      <trkpt lat="45.08881" lon="1.24464">
        <ele>223.1</ele>
        <time>2023-10-28T14:03:31Z</time>
      </trkpt>
      <trkpt lat="45.08883" lon="1.24465">
        <ele>223.1</ele>
        <time>2023-10-28T14:03:32Z</time>
      </trkpt>
      <trkpt lat="45.08886" lon="1.24466">
        <ele>223.2</ele>
        <time>2023-10-28T14:03:33Z</time>
      </trkpt>
      <trkpt lat="45.08888" lon="1.24467">
        <ele>223.2</ele>
        <time>2023-10-28T14:03:34Z</time>
      </trkpt>
      <trkpt lat="45.0889" lon="1.24468">
        <ele>223.2</ele>
        <time>2023-10-28T14:03:35Z</time>
      </trkpt>
      <trkpt lat="45.08892" lon="1.24468">
        <ele>223.2</ele>
        <time>2023-10-28T14:03:36Z</time>
      </trkpt>
      <trkpt lat="45.08894" lon="1.24469">
        <ele>223.3</ele>
        <time>2023-10-28T14:03:37Z</time>
      </trkpt>
      <trkpt lat="45.08897" lon="1.2447">
        <ele>223.3</ele>
        <time>2023-10-28T14:03:38Z</time>
      </trkpt>
      <trkpt lat="45.08899" lon="1.24471">
        <ele>223.3</ele>
        <time>2023-10-28T14:03:39Z</time>
      </trkpt>
      <trkpt lat="45.08902" lon="1.24471">
        <ele>223.3</ele>
        <time>2023-10-28T14:03:40Z</time>
      </trkpt>
      <trkpt lat="45.08904" lon="1.24472">
        <ele>223.4</ele>
        <time>2023-10-28T14:03:41Z</time>
      </trkpt>
      <trkpt lat="45.08906" lon="1.24473">
        <ele>223.4</ele>
        <time>2023-10-28T14:03:42Z</time>
      </trkpt>
      <trkpt lat="45.08909" lon="1.24474">
        <ele>223.4</ele>
        <time>2023-10-28T14:03:43Z</time>
      </trkpt>
      <trkpt lat="45.08911" lon="1.24475">
        <ele>223.4</ele>
        <time>2023-10-28T14:03:44Z</time>
      </trkpt>
      <trkpt lat="45.08913" lon="1.24476">
        <ele>223.4</ele>
        <time>2023-10-28T14:03:45Z</time>
      </trkpt>
      <trkpt lat="45.08915" lon="1.24478">
        <ele>223.5</ele>
        <time>2023-10-28T14:03:46Z</time>
      </trkpt>
      <trkpt lat="45.08917" lon="1.24479">
        <ele>223.5</ele>
        <time>2023-10-28T14:03:47Z</time>
      </trkpt>
      <trkpt lat="45.08919" lon="1.24481">
        <ele>223.5</ele>
        <time>2023-10-28T14:03:48Z</time>
      </trkpt>
      <trkpt lat="45.0892" lon="1.24482">
        <ele>223.5</ele>
        <time>2023-10-28T14:03:49Z</time>
      </trkpt>
      <trkpt lat="45.08922" lon="1.24483">
        <ele>223.6</ele>
        <time>2023-10-28T14:03:50Z</time>
      </trkpt>
      <trkpt lat="45.08924" lon="1.24485">
        <ele>223.6</ele>
        <time>2023-10-28T14:03:51Z</time>
      </trkpt>
      <trkpt lat="45.08925" lon="1.24486">
        <ele>223.6</ele>
        <time>2023-10-28T14:03:52Z</time>
      </trkpt>
      <trkpt lat="45.08927" lon="1.24488">
        <ele>223.6</ele>
        <time>2023-10-28T14:03:53Z</time>
      </trkpt>
      <trkpt lat="45.08929" lon="1.24489">
        <ele>223.6</ele>
        <time>2023-10-28T14:03:54Z</time>
      </trkpt>
      <trkpt lat="45.08931" lon="1.24491">
        <ele>223.7</ele>
        <time>2023-10-28T14:03:55Z</time>
      </trkpt>
      <trkpt lat="45.08933" lon="1.24492">
        <ele>223.7</ele>
        <time>2023-10-28T14:03:56Z</time>
      </trkpt>
      <trkpt lat="45.08935" lon="1.24494">
        <ele>223.7</ele>
        <time>2023-10-28T14:03:57Z</time>
      </trkpt>
      <trkpt lat="45.08937" lon="1.24495">
        <ele>223.7</ele>
        <time>2023-10-28T14:03:58Z</time>
      </trkpt>
      <trkpt lat="45.08939" lon="1.24496">
        <ele>223.8</ele>
        <time>2023-10-28T14:03:59Z</time>
      </trkpt>
      <trkpt lat="45.08941" lon="1.24498">
        <ele>223.8</ele>
        <time>2023-10-28T14:04:00Z</time>
      </trkpt>
      <trkpt lat="45.08944" lon="1.24499">
        <ele>223.8</ele>
        <time>2023-10-28T14:04:01Z</time>
      </trkpt>
      <trkpt lat="45.08946" lon="1.245">
        <ele>223.8</ele>
        <time>2023-10-28T14:04:02Z</time>
      </trkpt>
      <trkpt lat="45.08948" lon="1.24501">
        <ele>223.9</ele>
        <time>2023-10-28T14:04:03Z</time>
      </trkpt>
      <trkpt lat="45.0895" lon="1.24503">
        <ele>223.9</ele>
        <time>2023-10-28T14:04:04Z</time>
      </trkpt>
      <trkpt lat="45.08952" lon="1.24505">
        <ele>223.9</ele>
        <time>2023-10-28T14:04:05Z</time>
      </trkpt>
      <trkpt lat="45.08953" lon="1.24507">
        <ele>223.9</ele>
        <time>2023-10-28T14:04:06Z</time>
      </trkpt>
      <trkpt lat="45.08955" lon="1.24509">
        <ele>223.9</ele>
        <time>2023-10-28T14:04:07Z</time>
      </trkpt>
      <trkpt lat="45.08957" lon="1.24511">
        <ele>223.9</ele>
        <time>2023-10-28T14:04:08Z</time>
      </trkpt>
      <trkpt lat="45.08958" lon="1.24514">
        <ele>223.9</ele>
        <time>2023-10-28T14:04:09Z</time>
      </trkpt>
      <trkpt lat="45.0896" lon="1.24516">
        <ele>223.9</ele>
        <time>2023-10-28T14:04:10Z</time>
      </trkpt>
      <trkpt lat="45.08961" lon="1.24518">
        <ele>223.9</ele>
        <time>2023-10-28T14:04:11Z</time>
      </trkpt>
      <trkpt lat="45.08963" lon="1.24521">
        <ele>223.9</ele>
        <time>2023-10-28T14:04:12Z</time>
      </trkpt>
      <trkpt lat="45.08964" lon="1.24523">
        <ele>223.9</ele>
        <time>2023-10-28T14:04:13Z</time>
      </trkpt>
      <trkpt lat="45.08965" lon="1.24525">
        <ele>223.9</ele>
        <time>2023-10-28T14:04:14Z</time>
      </trkpt>
      <trkpt lat="45.08967" lon="1.24528">
        <ele>223.9</ele>
        <time>2023-10-28T14:04:15Z</time>
      </trkpt>
      <trkpt lat="45.08968" lon="1.2453">
        <ele>223.8</ele>
        <time>2023-10-28T14:04:16Z</time>
      </trkpt>
      <trkpt lat="45.08969" lon="1.24532">
        <ele>223.8</ele>
        <time>2023-10-28T14:04:17Z</time>
      </trkpt>
      <trkpt lat="45.0897" lon="1.24534">
        <ele>223.8</ele>
        <time>2023-10-28T14:04:18Z</time>
      </trkpt>
      <trkpt lat="45.08971" lon="1.24536">
        <ele>223.8</ele>
        <time>2023-10-28T14:04:19Z</time>
      </trkpt>
      <trkpt lat="45.08972" lon="1.24539">
        <ele>223.7</ele>
        <time>2023-10-28T14:04:20Z</time>
      </trkpt>
      <trkpt lat="45.08973" lon="1.24541">
        <ele>223.7</ele>
        <time>2023-10-28T14:04:21Z</time>
      </trkpt>
      <trkpt lat="45.08975" lon="1.24544">
        <ele>223.6</ele>
        <time>2023-10-28T14:04:22Z</time>
      </trkpt>
      <trkpt lat="45.08976" lon="1.24546">
        <ele>223.6</ele>
        <time>2023-10-28T14:04:23Z</time>
      </trkpt>
      <trkpt lat="45.08977" lon="1.24548">
        <ele>223.6</ele>
        <time>2023-10-28T14:04:24Z</time>
      </trkpt>
      <trkpt lat="45.08979" lon="1.24551">
        <ele>223.5</ele>
        <time>2023-10-28T14:04:25Z</time>
      </trkpt>
      <trkpt lat="45.0898" lon="1.24553">
        <ele>223.5</ele>
        <time>2023-10-28T14:04:26Z</time>
      </trkpt>
      <trkpt lat="45.08981" lon="1.24555">
        <ele>223.4</ele>
        <time>2023-10-28T14:04:27Z</time>
      </trkpt>
      <trkpt lat="45.08983" lon="1.24558">
        <ele>223.4</ele>
        <time>2023-10-28T14:04:28Z</time>
      </trkpt>
      <trkpt lat="45.08984" lon="1.2456">
        <ele>223.4</ele>
        <time>2023-10-28T14:04:29Z</time>
      </trkpt>
      <trkpt lat="45.08985" lon="1.24563">
        <ele>223.3</ele>
        <time>2023-10-28T14:04:30Z</time>
      </trkpt>
      <trkpt lat="45.08986" lon="1.24566">
        <ele>223.3</ele>
        <time>2023-10-28T14:04:31Z</time>
      </trkpt>
      <trkpt lat="45.08987" lon="1.24569">
        <ele>223.2</ele>
        <time>2023-10-28T14:04:32Z</time>
      </trkpt>
      <trkpt lat="45.08988" lon="1.24572">
        <ele>223.2</ele>
        <time>2023-10-28T14:04:33Z</time>
      </trkpt>
      <trkpt lat="45.08989" lon="1.24575">
        <ele>223.2</ele>
        <time>2023-10-28T14:04:34Z</time>
      </trkpt>
      <trkpt lat="45.0899" lon="1.24578">
        <ele>223.1</ele>
        <time>2023-10-28T14:04:35Z</time>
      </trkpt>
      <trkpt lat="45.08991" lon="1.24581">
        <ele>223.1</ele>
        <time>2023-10-28T14:04:36Z</time>
      </trkpt>
      <trkpt lat="45.08992" lon="1.24584">
        <ele>223.1</ele>
        <time>2023-10-28T14:04:37Z</time>
      </trkpt>
      <trkpt lat="45.08993" lon="1.24588">
        <ele>223.1</ele>
        <time>2023-10-28T14:04:38Z</time>
      </trkpt>
      <trkpt lat="45.08994" lon="1.24591">
        <ele>223</ele>
        <time>2023-10-28T14:04:39Z</time>
      </trkpt>
      <trkpt lat="45.08994" lon="1.24594">
        <ele>223</ele>
        <time>2023-10-28T14:04:40Z</time>
      </trkpt>
      <trkpt lat="45.08994" lon="1.24598">
        <ele>223</ele>
        <time>2023-10-28T14:04:41Z</time>
      </trkpt>
      <trkpt lat="45.08994" lon="1.24601">
        <ele>223</ele>
        <time>2023-10-28T14:04:42Z</time>
      </trkpt>
      <trkpt lat="45.08994" lon="1.24604">
        <ele>223</ele>
        <time>2023-10-28T14:04:43Z</time>
      </trkpt>
      <trkpt lat="45.08993" lon="1.24607">
        <ele>223</ele>
        <time>2023-10-28T14:04:44Z</time>
      </trkpt>
      <trkpt lat="45.08992" lon="1.2461">
        <ele>223</ele>
        <time>2023-10-28T14:04:45Z</time>
      </trkpt>
      <trkpt lat="45.08992" lon="1.24614">
        <ele>223</ele>
        <time>2023-10-28T14:04:46Z</time>
      </trkpt>
      <trkpt lat="45.08991" lon="1.24617">
        <ele>223.2</ele>
        <time>2023-10-28T14:04:47Z</time>
      </trkpt>
      <trkpt lat="45.0899" lon="1.24621">
        <ele>223.2</ele>
        <time>2023-10-28T14:04:48Z</time>
      </trkpt>
      <trkpt lat="45.08989" lon="1.24624">
        <ele>223.3</ele>
        <time>2023-10-28T14:04:49Z</time>
      </trkpt>
      <trkpt lat="45.08989" lon="1.24627">
        <ele>223.4</ele>
        <time>2023-10-28T14:04:50Z</time>
      </trkpt>
      <trkpt lat="45.08988" lon="1.24631">
        <ele>223.4</ele>
        <time>2023-10-28T14:04:51Z</time>
      </trkpt>
      <trkpt lat="45.08988" lon="1.24634">
        <ele>223.5</ele>
        <time>2023-10-28T14:04:52Z</time>
      </trkpt>
      <trkpt lat="45.08987" lon="1.24637">
        <ele>223.6</ele>
        <time>2023-10-28T14:04:53Z</time>
      </trkpt>
      <trkpt lat="45.08987" lon="1.24641">
        <ele>223.6</ele>
        <time>2023-10-28T14:04:54Z</time>
      </trkpt>
      <trkpt lat="45.08986" lon="1.24644">
        <ele>223.7</ele>
        <time>2023-10-28T14:04:55Z</time>
      </trkpt>
      <trkpt lat="45.08986" lon="1.24648">
        <ele>223.8</ele>
        <time>2023-10-28T14:04:56Z</time>
      </trkpt>
      <trkpt lat="45.08986" lon="1.24651">
        <ele>223.8</ele>
        <time>2023-10-28T14:04:57Z</time>
      </trkpt>
      <trkpt lat="45.08984" lon="1.24654">
        <ele>223.9</ele>
        <time>2023-10-28T14:04:58Z</time>
      </trkpt>
      <trkpt lat="45.08983" lon="1.24657">
        <ele>223.9</ele>
        <time>2023-10-28T14:04:59Z</time>
      </trkpt>
      <trkpt lat="45.08981" lon="1.2466">
        <ele>224</ele>
        <time>2023-10-28T14:05:00Z</time>
      </trkpt>
      <trkpt lat="45.0898" lon="1.24663">
        <ele>224</ele>
        <time>2023-10-28T14:05:01Z</time>
      </trkpt>
      <trkpt lat="45.08978" lon="1.24665">
        <ele>224.1</ele>
        <time>2023-10-28T14:05:02Z</time>
      </trkpt>
      <trkpt lat="45.08976" lon="1.24667">
        <ele>224.1</ele>
        <time>2023-10-28T14:05:03Z</time>
      </trkpt>
      <trkpt lat="45.08974" lon="1.24669">
        <ele>224.1</ele>
        <time>2023-10-28T14:05:04Z</time>
      </trkpt>
      <trkpt lat="45.08973" lon="1.24671">
        <ele>224.2</ele>
        <time>2023-10-28T14:05:05Z</time>
      </trkpt>
      <trkpt lat="45.08971" lon="1.24673">
        <ele>224.2</ele>
        <time>2023-10-28T14:05:06Z</time>
      </trkpt>
      <trkpt lat="45.0897" lon="1.24676">
        <ele>224.3</ele>
        <time>2023-10-28T14:05:07Z</time>
      </trkpt>
      <trkpt lat="45.08969" lon="1.24678">
        <ele>224.3</ele>
        <time>2023-10-28T14:05:08Z</time>
      </trkpt>
      <trkpt lat="45.08968" lon="1.24681">
        <ele>224.3</ele>
        <time>2023-10-28T14:05:09Z</time>
      </trkpt>
      <trkpt lat="45.08967" lon="1.24683">
        <ele>224.4</ele>
        <time>2023-10-28T14:05:10Z</time>
      </trkpt>
      <trkpt lat="45.08966" lon="1.24686">
        <ele>224.4</ele>
        <time>2023-10-28T14:05:11Z</time>
      </trkpt>
      <trkpt lat="45.08965" lon="1.24688">
        <ele>224.5</ele>
        <time>2023-10-28T14:05:12Z</time>
      </trkpt>
      <trkpt lat="45.08964" lon="1.24691">
        <ele>224.5</ele>
        <time>2023-10-28T14:05:13Z</time>
      </trkpt>
      <trkpt lat="45.08963" lon="1.24694">
        <ele>224.6</ele>
        <time>2023-10-28T14:05:14Z</time>
      </trkpt>
      <trkpt lat="45.08962" lon="1.24696">
        <ele>224.6</ele>
        <time>2023-10-28T14:05:15Z</time>
      </trkpt>
      <trkpt lat="45.08961" lon="1.24699">
        <ele>224.7</ele>
        <time>2023-10-28T14:05:16Z</time>
      </trkpt>
      <trkpt lat="45.0896" lon="1.24701">
        <ele>224.7</ele>
        <time>2023-10-28T14:05:17Z</time>
      </trkpt>
      <trkpt lat="45.08958" lon="1.24704">
        <ele>224.8</ele>
        <time>2023-10-28T14:05:18Z</time>
      </trkpt>
      <trkpt lat="45.08957" lon="1.24706">
        <ele>224.8</ele>
        <time>2023-10-28T14:05:19Z</time>
      </trkpt>
      <trkpt lat="45.08956" lon="1.24709">
        <ele>224.9</ele>
        <time>2023-10-28T14:05:20Z</time>
      </trkpt>
      <trkpt lat="45.08955" lon="1.24711">
        <ele>224.9</ele>
        <time>2023-10-28T14:05:21Z</time>
      </trkpt>
      <trkpt lat="45.08954" lon="1.24714">
        <ele>224.9</ele>
        <time>2023-10-28T14:05:22Z</time>
      </trkpt>
      <trkpt lat="45.08953" lon="1.24717">
        <ele>224.9</ele>
        <time>2023-10-28T14:05:23Z</time>
      </trkpt>
      <trkpt lat="45.08952" lon="1.24719">
        <ele>225</ele>
        <time>2023-10-28T14:05:24Z</time>
      </trkpt>
      <trkpt lat="45.0895" lon="1.24722">
        <ele>225</ele>
        <time>2023-10-28T14:05:25Z</time>
      </trkpt>
      <trkpt lat="45.08949" lon="1.24725">
        <ele>225</ele>
        <time>2023-10-28T14:05:26Z</time>
      </trkpt>
      <trkpt lat="45.08947" lon="1.24728">
        <ele>225</ele>
        <time>2023-10-28T14:05:27Z</time>
      </trkpt>
      <trkpt lat="45.08946" lon="1.24731">
        <ele>225</ele>
        <time>2023-10-28T14:05:28Z</time>
      </trkpt>
      <trkpt lat="45.08944" lon="1.24734">
        <ele>225</ele>
        <time>2023-10-28T14:05:29Z</time>
      </trkpt>
      <trkpt lat="45.08943" lon="1.24737">
        <ele>225</ele>
        <time>2023-10-28T14:05:30Z</time>
      </trkpt>
      <trkpt lat="45.08942" lon="1.2474">
        <ele>225</ele>
        <time>2023-10-28T14:05:31Z</time>
      </trkpt>
      <trkpt lat="45.08941" lon="1.24743">
        <ele>225</ele>
        <time>2023-10-28T14:05:32Z</time>
      </trkpt>
      <trkpt lat="45.08939" lon="1.24746">
        <ele>225</ele>
        <time>2023-10-28T14:05:33Z</time>
      </trkpt>
      <trkpt lat="45.08938" lon="1.24749">
        <ele>225</ele>
        <time>2023-10-28T14:05:34Z</time>
      </trkpt>
      <trkpt lat="45.08936" lon="1.24752">
        <ele>225</ele>
        <time>2023-10-28T14:05:35Z</time>
      </trkpt>
      <trkpt lat="45.08935" lon="1.24754">
        <ele>224.9</ele>
        <time>2023-10-28T14:05:36Z</time>
      </trkpt>
      <trkpt lat="45.08934" lon="1.24757">
        <ele>224.9</ele>
        <time>2023-10-28T14:05:37Z</time>
      </trkpt>
      <trkpt lat="45.08933" lon="1.2476">
        <ele>224.9</ele>
        <time>2023-10-28T14:05:38Z</time>
      </trkpt>
      <trkpt lat="45.08931" lon="1.24763">
        <ele>224.9</ele>
        <time>2023-10-28T14:05:39Z</time>
      </trkpt>
      <trkpt lat="45.0893" lon="1.24765">
        <ele>224.9</ele>
        <time>2023-10-28T14:05:40Z</time>
      </trkpt>
      <trkpt lat="45.08929" lon="1.24768">
        <ele>224.9</ele>
        <time>2023-10-28T14:05:41Z</time>
      </trkpt>
      <trkpt lat="45.08928" lon="1.2477">
        <ele>224.9</ele>
        <time>2023-10-28T14:05:42Z</time>
      </trkpt>
      <trkpt lat="45.08927" lon="1.24773">
        <ele>224.8</ele>
        <time>2023-10-28T14:05:43Z</time>
      </trkpt>
      <trkpt lat="45.08926" lon="1.24775">
        <ele>224.8</ele>
        <time>2023-10-28T14:05:44Z</time>
      </trkpt>
      <trkpt lat="45.08925" lon="1.24777">
        <ele>224.8</ele>
        <time>2023-10-28T14:05:45Z</time>
      </trkpt>
      <trkpt lat="45.08924" lon="1.2478">
        <ele>224.8</ele>
        <time>2023-10-28T14:05:46Z</time>
      </trkpt>
      <trkpt lat="45.08923" lon="1.24782">
        <ele>224.8</ele>
        <time>2023-10-28T14:05:47Z</time>
      </trkpt>
      <trkpt lat="45.08921" lon="1.24785">
        <ele>224.8</ele>
        <time>2023-10-28T14:05:48Z</time>
      </trkpt>
      <trkpt lat="45.0892" lon="1.24787">
        <ele>224.8</ele>
        <time>2023-10-28T14:05:49Z</time>
      </trkpt>
      <trkpt lat="45.08919" lon="1.24789">
        <ele>224.8</ele>
        <time>2023-10-28T14:05:50Z</time>
      </trkpt>
      <trkpt lat="45.08918" lon="1.24792">
        <ele>224.8</ele>
        <time>2023-10-28T14:05:51Z</time>
      </trkpt>
      <trkpt lat="45.08916" lon="1.24794">
        <ele>224.8</ele>
        <time>2023-10-28T14:05:52Z</time>
      </trkpt>
      <trkpt lat="45.08915" lon="1.24796">
        <ele>224.8</ele>
        <time>2023-10-28T14:05:53Z</time>
      </trkpt>
      <trkpt lat="45.08913" lon="1.24798">
        <ele>224.8</ele>
        <time>2023-10-28T14:05:54Z</time>
      </trkpt>
      <trkpt lat="45.08911" lon="1.248">
        <ele>224.7</ele>
        <time>2023-10-28T14:05:55Z</time>
      </trkpt>
      <trkpt lat="45.0891" lon="1.24802">
        <ele>224.7</ele>
        <time>2023-10-28T14:05:56Z</time>
      </trkpt>
      <trkpt lat="45.08908" lon="1.24804">
        <ele>224.7</ele>
        <time>2023-10-28T14:05:57Z</time>
      </trkpt>
      <trkpt lat="45.08907" lon="1.24806">
        <ele>224.7</ele>
        <time>2023-10-28T14:05:58Z</time>
      </trkpt>
      <trkpt lat="45.08905" lon="1.24808">
        <ele>224.7</ele>
        <time>2023-10-28T14:05:59Z</time>
      </trkpt>
      <trkpt lat="45.08904" lon="1.2481">
        <ele>224.7</ele>
        <time>2023-10-28T14:06:00Z</time>
      </trkpt>
      <trkpt lat="45.08903" lon="1.24812">
        <ele>224.7</ele>
        <time>2023-10-28T14:06:01Z</time>
      </trkpt>
      <trkpt lat="45.08901" lon="1.24815">
        <ele>224.7</ele>
        <time>2023-10-28T14:06:02Z</time>
      </trkpt>
      <trkpt lat="45.089" lon="1.24817">
        <ele>224.7</ele>
        <time>2023-10-28T14:06:03Z</time>
      </trkpt>
      <trkpt lat="45.08898" lon="1.2482">
        <ele>224.7</ele>
        <time>2023-10-28T14:06:04Z</time>
      </trkpt>
      <trkpt lat="45.08896" lon="1.24822">
        <ele>224.7</ele>
        <time>2023-10-28T14:06:05Z</time>
      </trkpt>
      <trkpt lat="45.08894" lon="1.24825">
        <ele>224.7</ele>
        <time>2023-10-28T14:06:06Z</time>
      </trkpt>
      <trkpt lat="45.08893" lon="1.24827">
        <ele>224.7</ele>
        <time>2023-10-28T14:06:07Z</time>
      </trkpt>
      <trkpt lat="45.08891" lon="1.2483">
        <ele>224.7</ele>
        <time>2023-10-28T14:06:08Z</time>
      </trkpt>
      <trkpt lat="45.08889" lon="1.24833">
        <ele>224.7</ele>
        <time>2023-10-28T14:06:09Z</time>
      </trkpt>
      <trkpt lat="45.08888" lon="1.24835">
        <ele>224.7</ele>
        <time>2023-10-28T14:06:10Z</time>
      </trkpt>
      <trkpt lat="45.08886" lon="1.24838">
        <ele>224.7</ele>
        <time>2023-10-28T14:06:11Z</time>
      </trkpt>
      <trkpt lat="45.08885" lon="1.24841">
        <ele>224.6</ele>
        <time>2023-10-28T14:06:12Z</time>
      </trkpt>
      <trkpt lat="45.08884" lon="1.24843">
        <ele>224.6</ele>
        <time>2023-10-28T14:06:13Z</time>
      </trkpt>
      <trkpt lat="45.08883" lon="1.24846">
        <ele>224.6</ele>
        <time>2023-10-28T14:06:14Z</time>
      </trkpt>
      <trkpt lat="45.08881" lon="1.24849">
        <ele>224.6</ele>
        <time>2023-10-28T14:06:15Z</time>
      </trkpt>
      <trkpt lat="45.0888" lon="1.24853">
        <ele>224.6</ele>
        <time>2023-10-28T14:06:16Z</time>
      </trkpt>
      <trkpt lat="45.08879" lon="1.24856">
        <ele>224.6</ele>
        <time>2023-10-28T14:06:17Z</time>
      </trkpt>
      <trkpt lat="45.08877" lon="1.24859">
        <ele>224.6</ele>
        <time>2023-10-28T14:06:18Z</time>
      </trkpt>
      <trkpt lat="45.08875" lon="1.24863">
        <ele>224.6</ele>
        <time>2023-10-28T14:06:19Z</time>
      </trkpt>
      <trkpt lat="45.08874" lon="1.24865">
        <ele>224.5</ele>
        <time>2023-10-28T14:06:20Z</time>
      </trkpt>
      <trkpt lat="45.08872" lon="1.24868">
        <ele>224.5</ele>
        <time>2023-10-28T14:06:21Z</time>
      </trkpt>
      <trkpt lat="45.0887" lon="1.24871">
        <ele>224.5</ele>
        <time>2023-10-28T14:06:22Z</time>
      </trkpt>
      <trkpt lat="45.08869" lon="1.24873">
        <ele>224.5</ele>
        <time>2023-10-28T14:06:23Z</time>
      </trkpt>
      <trkpt lat="45.08867" lon="1.24876">
        <ele>224.5</ele>
        <time>2023-10-28T14:06:24Z</time>
      </trkpt>
      <trkpt lat="45.08866" lon="1.24878">
        <ele>224.5</ele>
        <time>2023-10-28T14:06:25Z</time>
      </trkpt>
      <trkpt lat="45.08864" lon="1.24881">
        <ele>224.4</ele>
        <time>2023-10-28T14:06:26Z</time>
      </trkpt>
      <trkpt lat="45.08863" lon="1.24883">
        <ele>224.4</ele>
        <time>2023-10-28T14:06:27Z</time>
      </trkpt>
      <trkpt lat="45.08862" lon="1.24885">
        <ele>224.4</ele>
        <time>2023-10-28T14:06:28Z</time>
      </trkpt>
      <trkpt lat="45.0886" lon="1.24888">
        <ele>224.4</ele>
        <time>2023-10-28T14:06:29Z</time>
      </trkpt>
      <trkpt lat="45.08859" lon="1.2489">
        <ele>224.4</ele>
        <time>2023-10-28T14:06:30Z</time>
      </trkpt>
      <trkpt lat="45.08857" lon="1.24892">
        <ele>224.3</ele>
        <time>2023-10-28T14:06:31Z</time>
      </trkpt>
      <trkpt lat="45.08856" lon="1.24895">
        <ele>224.3</ele>
        <time>2023-10-28T14:06:32Z</time>
      </trkpt>
      <trkpt lat="45.08854" lon="1.24897">
        <ele>224.3</ele>
        <time>2023-10-28T14:06:33Z</time>
      </trkpt>
      <trkpt lat="45.08853" lon="1.249">
        <ele>224.2</ele>
        <time>2023-10-28T14:06:34Z</time>
      </trkpt>
      <trkpt lat="45.08852" lon="1.24902">
        <ele>224.2</ele>
        <time>2023-10-28T14:06:35Z</time>
      </trkpt>
      <trkpt lat="45.08851" lon="1.24905">
        <ele>224.1</ele>
        <time>2023-10-28T14:06:36Z</time>
      </trkpt>
      <trkpt lat="45.0885" lon="1.24908">
        <ele>224.1</ele>
        <time>2023-10-28T14:06:37Z</time>
      </trkpt>
      <trkpt lat="45.08849" lon="1.2491">
        <ele>224</ele>
        <time>2023-10-28T14:06:38Z</time>
      </trkpt>
      <trkpt lat="45.08847" lon="1.24913">
        <ele>224</ele>
        <time>2023-10-28T14:06:39Z</time>
      </trkpt>
      <trkpt lat="45.08846" lon="1.24916">
        <ele>223.9</ele>
        <time>2023-10-28T14:06:40Z</time>
      </trkpt>
      <trkpt lat="45.08844" lon="1.24919">
        <ele>223.8</ele>
        <time>2023-10-28T14:06:41Z</time>
      </trkpt>
      <trkpt lat="45.08843" lon="1.24921">
        <ele>223.7</ele>
        <time>2023-10-28T14:06:42Z</time>
      </trkpt>
      <trkpt lat="45.08842" lon="1.24924">
        <ele>223.7</ele>
        <time>2023-10-28T14:06:43Z</time>
      </trkpt>
      <trkpt lat="45.0884" lon="1.24926">
        <ele>223.6</ele>
        <time>2023-10-28T14:06:44Z</time>
      </trkpt>
      <trkpt lat="45.08839" lon="1.24929">
        <ele>223.5</ele>
        <time>2023-10-28T14:06:45Z</time>
      </trkpt>
      <trkpt lat="45.08838" lon="1.24931">
        <ele>223.4</ele>
        <time>2023-10-28T14:06:46Z</time>
      </trkpt>
      <trkpt lat="45.08836" lon="1.24934">
        <ele>223.3</ele>
        <time>2023-10-28T14:06:47Z</time>
      </trkpt>
      <trkpt lat="45.08835" lon="1.24936">
        <ele>223.2</ele>
        <time>2023-10-28T14:06:48Z</time>
      </trkpt>
      <trkpt lat="45.08833" lon="1.24938">
        <ele>223.1</ele>
        <time>2023-10-28T14:06:49Z</time>
      </trkpt>
      <trkpt lat="45.08831" lon="1.24941">
        <ele>223</ele>
        <time>2023-10-28T14:06:50Z</time>
      </trkpt>
      <trkpt lat="45.08829" lon="1.24943">
        <ele>222.9</ele>
        <time>2023-10-28T14:06:51Z</time>
      </trkpt>
      <trkpt lat="45.08828" lon="1.24946">
        <ele>222.8</ele>
        <time>2023-10-28T14:06:52Z</time>
      </trkpt>
      <trkpt lat="45.08826" lon="1.24949">
        <ele>222.6</ele>
        <time>2023-10-28T14:06:53Z</time>
      </trkpt>
      <trkpt lat="45.08825" lon="1.24951">
        <ele>222.5</ele>
        <time>2023-10-28T14:06:54Z</time>
      </trkpt>
      <trkpt lat="45.08823" lon="1.24954">
        <ele>222.4</ele>
        <time>2023-10-28T14:06:55Z</time>
      </trkpt>
      <trkpt lat="45.08822" lon="1.24957">
        <ele>222.3</ele>
        <time>2023-10-28T14:06:56Z</time>
      </trkpt>
      <trkpt lat="45.0882" lon="1.2496">
        <ele>222.2</ele>
        <time>2023-10-28T14:06:57Z</time>
      </trkpt>
      <trkpt lat="45.08818" lon="1.24962">
        <ele>222</ele>
        <time>2023-10-28T14:06:58Z</time>
      </trkpt>
      <trkpt lat="45.08817" lon="1.24965">
        <ele>221.9</ele>
        <time>2023-10-28T14:06:59Z</time>
      </trkpt>
      <trkpt lat="45.08816" lon="1.24968">
        <ele>221.8</ele>
        <time>2023-10-28T14:07:00Z</time>
      </trkpt>
      <trkpt lat="45.08814" lon="1.24971">
        <ele>221.7</ele>
        <time>2023-10-28T14:07:01Z</time>
      </trkpt>
      <trkpt lat="45.08813" lon="1.24974">
        <ele>221.5</ele>
        <time>2023-10-28T14:07:02Z</time>
      </trkpt>
      <trkpt lat="45.08811" lon="1.24977">
        <ele>221.4</ele>
        <time>2023-10-28T14:07:03Z</time>
      </trkpt>
      <trkpt lat="45.0881" lon="1.2498">
        <ele>221.3</ele>
        <time>2023-10-28T14:07:04Z</time>
      </trkpt>
      <trkpt lat="45.08808" lon="1.24982">
        <ele>221.2</ele>
        <time>2023-10-28T14:07:05Z</time>
      </trkpt>
      <trkpt lat="45.08807" lon="1.24985">
        <ele>221</ele>
        <time>2023-10-28T14:07:06Z</time>
      </trkpt>
      <trkpt lat="45.08805" lon="1.24988">
        <ele>220.9</ele>
        <time>2023-10-28T14:07:07Z</time>
      </trkpt>
      <trkpt lat="45.08804" lon="1.24991">
        <ele>220.8</ele>
        <time>2023-10-28T14:07:08Z</time>
      </trkpt>
      <trkpt lat="45.08802" lon="1.24994">
        <ele>220.7</ele>
        <time>2023-10-28T14:07:09Z</time>
      </trkpt>
      <trkpt lat="45.08801" lon="1.24997">
        <ele>220.5</ele>
        <time>2023-10-28T14:07:10Z</time>
      </trkpt>
      <trkpt lat="45.08799" lon="1.25">
        <ele>220.4</ele>
        <time>2023-10-28T14:07:11Z</time>
      </trkpt>
      <trkpt lat="45.08798" lon="1.25003">
        <ele>220.3</ele>
        <time>2023-10-28T14:07:12Z</time>
      </trkpt>
      <trkpt lat="45.08796" lon="1.25006">
        <ele>220.2</ele>
        <time>2023-10-28T14:07:13Z</time>
      </trkpt>
      <trkpt lat="45.08795" lon="1.25009">
        <ele>220.1</ele>
        <time>2023-10-28T14:07:14Z</time>
      </trkpt>
      <trkpt lat="45.08794" lon="1.25011">
        <ele>219.9</ele>
        <time>2023-10-28T14:07:15Z</time>
      </trkpt>
      <trkpt lat="45.08793" lon="1.25014">
        <ele>219.8</ele>
        <time>2023-10-28T14:07:16Z</time>
      </trkpt>
      <trkpt lat="45.08791" lon="1.25016">
        <ele>219.7</ele>
        <time>2023-10-28T14:07:17Z</time>
      </trkpt>
      <trkpt lat="45.0879" lon="1.25019">
        <ele>219.6</ele>
        <time>2023-10-28T14:07:18Z</time>
      </trkpt>
      <trkpt lat="45.08789" lon="1.25021">
        <ele>219.5</ele>
        <time>2023-10-28T14:07:19Z</time>
      </trkpt>
      <trkpt lat="45.08788" lon="1.25024">
        <ele>219.4</ele>
        <time>2023-10-28T14:07:20Z</time>
      </trkpt>
      <trkpt lat="45.08786" lon="1.25027">
        <ele>219.3</ele>
        <time>2023-10-28T14:07:21Z</time>
      </trkpt>
      <trkpt lat="45.08785" lon="1.25029">
        <ele>219.2</ele>
        <time>2023-10-28T14:07:22Z</time>
      </trkpt>
      <trkpt lat="45.08784" lon="1.25032">
        <ele>219</ele>
        <time>2023-10-28T14:07:23Z</time>
      </trkpt>
      <trkpt lat="45.08783" lon="1.25035">
        <ele>218.9</ele>
        <time>2023-10-28T14:07:24Z</time>
      </trkpt>
      <trkpt lat="45.08781" lon="1.25038">
        <ele>218.8</ele>
        <time>2023-10-28T14:07:25Z</time>
      </trkpt>
      <trkpt lat="45.0878" lon="1.2504">
        <ele>218.7</ele>
        <time>2023-10-28T14:07:26Z</time>
      </trkpt>
      <trkpt lat="45.08779" lon="1.25043">
        <ele>218.5</ele>
        <time>2023-10-28T14:07:27Z</time>
      </trkpt>
      <trkpt lat="45.08777" lon="1.25046">
        <ele>218.4</ele>
        <time>2023-10-28T14:07:28Z</time>
      </trkpt>
      <trkpt lat="45.08776" lon="1.25048">
        <ele>218.3</ele>
        <time>2023-10-28T14:07:29Z</time>
      </trkpt>
      <trkpt lat="45.08774" lon="1.25051">
        <ele>218.1</ele>
        <time>2023-10-28T14:07:30Z</time>
      </trkpt>
      <trkpt lat="45.08772" lon="1.25053">
        <ele>218</ele>
        <time>2023-10-28T14:07:31Z</time>
      </trkpt>
      <trkpt lat="45.08771" lon="1.25055">
        <ele>217.8</ele>
        <time>2023-10-28T14:07:32Z</time>
      </trkpt>
      <trkpt lat="45.08769" lon="1.25058">
        <ele>217.7</ele>
        <time>2023-10-28T14:07:33Z</time>
      </trkpt>
      <trkpt lat="45.08767" lon="1.2506">
        <ele>217.5</ele>
        <time>2023-10-28T14:07:34Z</time>
      </trkpt>
      <trkpt lat="45.08765" lon="1.25062">
        <ele>217.3</ele>
        <time>2023-10-28T14:07:35Z</time>
      </trkpt>
      <trkpt lat="45.08764" lon="1.25064">
        <ele>217.2</ele>
        <time>2023-10-28T14:07:36Z</time>
      </trkpt>
      <trkpt lat="45.08762" lon="1.25066">
        <ele>217</ele>
        <time>2023-10-28T14:07:37Z</time>
      </trkpt>
      <trkpt lat="45.0876" lon="1.25068">
        <ele>216.8</ele>
        <time>2023-10-28T14:07:38Z</time>
      </trkpt>
      <trkpt lat="45.08758" lon="1.25071">
        <ele>216.6</ele>
        <time>2023-10-28T14:07:39Z</time>
      </trkpt>
      <trkpt lat="45.08756" lon="1.25073">
        <ele>216.4</ele>
        <time>2023-10-28T14:07:40Z</time>
      </trkpt>
      <trkpt lat="45.08754" lon="1.25075">
        <ele>216.2</ele>
        <time>2023-10-28T14:07:41Z</time>
      </trkpt>
      <trkpt lat="45.08753" lon="1.25078">
        <ele>216</ele>
        <time>2023-10-28T14:07:42Z</time>
      </trkpt>
      <trkpt lat="45.08751" lon="1.25081">
        <ele>215.8</ele>
        <time>2023-10-28T14:07:43Z</time>
      </trkpt>
      <trkpt lat="45.0875" lon="1.25084">
        <ele>215.6</ele>
        <time>2023-10-28T14:07:44Z</time>
      </trkpt>
      <trkpt lat="45.08749" lon="1.25086">
        <ele>215.3</ele>
        <time>2023-10-28T14:07:45Z</time>
      </trkpt>
      <trkpt lat="45.08748" lon="1.25089">
        <ele>215.1</ele>
        <time>2023-10-28T14:07:46Z</time>
      </trkpt>
      <trkpt lat="45.08746" lon="1.25092">
        <ele>214.9</ele>
        <time>2023-10-28T14:07:47Z</time>
      </trkpt>
      <trkpt lat="45.08745" lon="1.25095">
        <ele>214.7</ele>
        <time>2023-10-28T14:07:48Z</time>
      </trkpt>
      <trkpt lat="45.08744" lon="1.25097">
        <ele>214.5</ele>
        <time>2023-10-28T14:07:49Z</time>
      </trkpt>
      <trkpt lat="45.08743" lon="1.251">
        <ele>214.3</ele>
        <time>2023-10-28T14:07:50Z</time>
      </trkpt>
      <trkpt lat="45.08742" lon="1.25103">
        <ele>214.1</ele>
        <time>2023-10-28T14:07:51Z</time>
      </trkpt>
      <trkpt lat="45.08741" lon="1.25106">
        <ele>213.8</ele>
        <time>2023-10-28T14:07:52Z</time>
      </trkpt>
      <trkpt lat="45.0874" lon="1.25109">
        <ele>213.6</ele>
        <time>2023-10-28T14:07:53Z</time>
      </trkpt>
      <trkpt lat="45.08738" lon="1.25112">
        <ele>213.4</ele>
        <time>2023-10-28T14:07:54Z</time>
      </trkpt>
      <trkpt lat="45.08737" lon="1.25115">
        <ele>213.2</ele>
        <time>2023-10-28T14:07:55Z</time>
      </trkpt>
      <trkpt lat="45.08735" lon="1.25117">
        <ele>213.1</ele>
        <time>2023-10-28T14:07:56Z</time>
      </trkpt>
      <trkpt lat="45.08734" lon="1.2512">
        <ele>212.9</ele>
        <time>2023-10-28T14:07:57Z</time>
      </trkpt>
      <trkpt lat="45.08732" lon="1.25123">
        <ele>212.7</ele>
        <time>2023-10-28T14:07:58Z</time>
      </trkpt>
      <trkpt lat="45.0873" lon="1.25125">
        <ele>212.4</ele>
        <time>2023-10-28T14:07:59Z</time>
      </trkpt>
      <trkpt lat="45.08729" lon="1.25128">
        <ele>212.2</ele>
        <time>2023-10-28T14:08:00Z</time>
      </trkpt>
      <trkpt lat="45.08727" lon="1.2513">
        <ele>212</ele>
        <time>2023-10-28T14:08:01Z</time>
      </trkpt>
      <trkpt lat="45.08725" lon="1.25133">
        <ele>211.8</ele>
        <time>2023-10-28T14:08:02Z</time>
      </trkpt>
      <trkpt lat="45.08723" lon="1.25136">
        <ele>211.5</ele>
        <time>2023-10-28T14:08:03Z</time>
      </trkpt>
      <trkpt lat="45.08722" lon="1.25139">
        <ele>211.3</ele>
        <time>2023-10-28T14:08:04Z</time>
      </trkpt>
      <trkpt lat="45.08721" lon="1.25142">
        <ele>211</ele>
        <time>2023-10-28T14:08:05Z</time>
      </trkpt>
      <trkpt lat="45.08719" lon="1.25145">
        <ele>210.8</ele>
        <time>2023-10-28T14:08:06Z</time>
      </trkpt>
      <trkpt lat="45.08718" lon="1.25148">
        <ele>210.6</ele>
        <time>2023-10-28T14:08:07Z</time>
      </trkpt>
      <trkpt lat="45.08717" lon="1.25152">
        <ele>210.3</ele>
        <time>2023-10-28T14:08:08Z</time>
      </trkpt>
      <trkpt lat="45.08716" lon="1.25155">
        <ele>210.1</ele>
        <time>2023-10-28T14:08:09Z</time>
      </trkpt>
      <trkpt lat="45.08715" lon="1.25158">
        <ele>209.8</ele>
        <time>2023-10-28T14:08:10Z</time>
      </trkpt>
      <trkpt lat="45.08714" lon="1.25161">
        <ele>209.6</ele>
        <time>2023-10-28T14:08:11Z</time>
      </trkpt>
      <trkpt lat="45.08712" lon="1.25164">
        <ele>209.4</ele>
        <time>2023-10-28T14:08:12Z</time>
      </trkpt>
      <trkpt lat="45.08711" lon="1.25166">
        <ele>209.1</ele>
        <time>2023-10-28T14:08:13Z</time>
      </trkpt>
      <trkpt lat="45.08709" lon="1.25169">
        <ele>208.9</ele>
        <time>2023-10-28T14:08:14Z</time>
      </trkpt>
      <trkpt lat="45.08708" lon="1.25172">
        <ele>208.7</ele>
        <time>2023-10-28T14:08:15Z</time>
      </trkpt>
      <trkpt lat="45.08707" lon="1.25175">
        <ele>208.4</ele>
        <time>2023-10-28T14:08:16Z</time>
      </trkpt>
      <trkpt lat="45.08706" lon="1.25177">
        <ele>208.2</ele>
        <time>2023-10-28T14:08:17Z</time>
      </trkpt>
      <trkpt lat="45.08704" lon="1.2518">
        <ele>207.9</ele>
        <time>2023-10-28T14:08:18Z</time>
      </trkpt>
      <trkpt lat="45.08703" lon="1.25183">
        <ele>207.7</ele>
        <time>2023-10-28T14:08:19Z</time>
      </trkpt>
      <trkpt lat="45.08701" lon="1.25186">
        <ele>207.4</ele>
        <time>2023-10-28T14:08:20Z</time>
      </trkpt>
      <trkpt lat="45.087" lon="1.25189">
        <ele>207.2</ele>
        <time>2023-10-28T14:08:21Z</time>
      </trkpt>
      <trkpt lat="45.08698" lon="1.25192">
        <ele>206.9</ele>
        <time>2023-10-28T14:08:22Z</time>
      </trkpt>
      <trkpt lat="45.08697" lon="1.25194">
        <ele>206.7</ele>
        <time>2023-10-28T14:08:23Z</time>
      </trkpt>
      <trkpt lat="45.08696" lon="1.25197">
        <ele>206.4</ele>
        <time>2023-10-28T14:08:24Z</time>
      </trkpt>
      <trkpt lat="45.08695" lon="1.25201">
        <ele>206.1</ele>
        <time>2023-10-28T14:08:25Z</time>
      </trkpt>
      <trkpt lat="45.08694" lon="1.25204">
        <ele>205.9</ele>
        <time>2023-10-28T14:08:26Z</time>
      </trkpt>
      <trkpt lat="45.08693" lon="1.25207">
        <ele>205.7</ele>
        <time>2023-10-28T14:08:27Z</time>
      </trkpt>
      <trkpt lat="45.08691" lon="1.2521">
        <ele>205.4</ele>
        <time>2023-10-28T14:08:28Z</time>
      </trkpt>
      <trkpt lat="45.0869" lon="1.25213">
        <ele>205.1</ele>
        <time>2023-10-28T14:08:29Z</time>
      </trkpt>
      <trkpt lat="45.08689" lon="1.25217">
        <ele>204.9</ele>
        <time>2023-10-28T14:08:30Z</time>
      </trkpt>
      <trkpt lat="45.08688" lon="1.2522">
        <ele>204.6</ele>
        <time>2023-10-28T14:08:31Z</time>
      </trkpt>
      <trkpt lat="45.08687" lon="1.25223">
        <ele>204.3</ele>
        <time>2023-10-28T14:08:32Z</time>
      </trkpt>
      <trkpt lat="45.08686" lon="1.25226">
        <ele>204.1</ele>
        <time>2023-10-28T14:08:33Z</time>
      </trkpt>
      <trkpt lat="45.08685" lon="1.25229">
        <ele>203.8</ele>
        <time>2023-10-28T14:08:34Z</time>
      </trkpt>
      <trkpt lat="45.08685" lon="1.25232">
        <ele>203.6</ele>
        <time>2023-10-28T14:08:35Z</time>
      </trkpt>
      <trkpt lat="45.08684" lon="1.25235">
        <ele>203.4</ele>
        <time>2023-10-28T14:08:36Z</time>
      </trkpt>
      <trkpt lat="45.08684" lon="1.25238">
        <ele>203.1</ele>
        <time>2023-10-28T14:08:37Z</time>
      </trkpt>
      <trkpt lat="45.08683" lon="1.25241">
        <ele>202.9</ele>
        <time>2023-10-28T14:08:38Z</time>
      </trkpt>
      <trkpt lat="45.08683" lon="1.25245">
        <ele>202.6</ele>
        <time>2023-10-28T14:08:39Z</time>
      </trkpt>
      <trkpt lat="45.08682" lon="1.25248">
        <ele>202.3</ele>
        <time>2023-10-28T14:08:40Z</time>
      </trkpt>
      <trkpt lat="45.08682" lon="1.25251">
        <ele>202.1</ele>
        <time>2023-10-28T14:08:41Z</time>
      </trkpt>
      <trkpt lat="45.08682" lon="1.25255">
        <ele>201.8</ele>
        <time>2023-10-28T14:08:42Z</time>
      </trkpt>
      <trkpt lat="45.08682" lon="1.25258">
        <ele>201.5</ele>
        <time>2023-10-28T14:08:43Z</time>
      </trkpt>
      <trkpt lat="45.08681" lon="1.25261">
        <ele>201.3</ele>
        <time>2023-10-28T14:08:44Z</time>
      </trkpt>
      <trkpt lat="45.0868" lon="1.25264">
        <ele>201</ele>
        <time>2023-10-28T14:08:45Z</time>
      </trkpt>
      <trkpt lat="45.0868" lon="1.25268">
        <ele>200.8</ele>
        <time>2023-10-28T14:08:46Z</time>
      </trkpt>
      <trkpt lat="45.08679" lon="1.25271">
        <ele>200.5</ele>
        <time>2023-10-28T14:08:47Z</time>
      </trkpt>
      <trkpt lat="45.08679" lon="1.25274">
        <ele>200.3</ele>
        <time>2023-10-28T14:08:48Z</time>
      </trkpt>
      <trkpt lat="45.08678" lon="1.25277">
        <ele>200.1</ele>
        <time>2023-10-28T14:08:49Z</time>
      </trkpt>
      <trkpt lat="45.08678" lon="1.2528">
        <ele>199.8</ele>
        <time>2023-10-28T14:08:50Z</time>
      </trkpt>
      <trkpt lat="45.08678" lon="1.25283">
        <ele>199.6</ele>
        <time>2023-10-28T14:08:51Z</time>
      </trkpt>
      <trkpt lat="45.08677" lon="1.25287">
        <ele>199.4</ele>
        <time>2023-10-28T14:08:52Z</time>
      </trkpt>
      <trkpt lat="45.08676" lon="1.2529">
        <ele>199.1</ele>
        <time>2023-10-28T14:08:53Z</time>
      </trkpt>
      <trkpt lat="45.08675" lon="1.25293">
        <ele>198.9</ele>
        <time>2023-10-28T14:08:54Z</time>
      </trkpt>
      <trkpt lat="45.08674" lon="1.25296">
        <ele>198.7</ele>
        <time>2023-10-28T14:08:55Z</time>
      </trkpt>
      <trkpt lat="45.08672" lon="1.25298">
        <ele>198.4</ele>
        <time>2023-10-28T14:08:56Z</time>
      </trkpt>
      <trkpt lat="45.0867" lon="1.25301">
        <ele>198.2</ele>
        <time>2023-10-28T14:08:57Z</time>
      </trkpt>
      <trkpt lat="45.08669" lon="1.25303">
        <ele>198</ele>
        <time>2023-10-28T14:08:58Z</time>
      </trkpt>
      <trkpt lat="45.08667" lon="1.25306">
        <ele>197.8</ele>
        <time>2023-10-28T14:08:59Z</time>
      </trkpt>
      <trkpt lat="45.08666" lon="1.25309">
        <ele>197.5</ele>
        <time>2023-10-28T14:09:00Z</time>
      </trkpt>
      <trkpt lat="45.08664" lon="1.25311">
        <ele>197.3</ele>
        <time>2023-10-28T14:09:01Z</time>
      </trkpt>
      <trkpt lat="45.08662" lon="1.25314">
        <ele>197.1</ele>
        <time>2023-10-28T14:09:02Z</time>
      </trkpt>
      <trkpt lat="45.08661" lon="1.25316">
        <ele>196.9</ele>
        <time>2023-10-28T14:09:03Z</time>
      </trkpt>
      <trkpt lat="45.0866" lon="1.25318">
        <ele>196.7</ele>
        <time>2023-10-28T14:09:04Z</time>
      </trkpt>
      <trkpt lat="45.08658" lon="1.25321">
        <ele>196.5</ele>
        <time>2023-10-28T14:09:05Z</time>
      </trkpt>
      <trkpt lat="45.08657" lon="1.25323">
        <ele>196.3</ele>
        <time>2023-10-28T14:09:06Z</time>
      </trkpt>
      <trkpt lat="45.08655" lon="1.25326">
        <ele>196.2</ele>
        <time>2023-10-28T14:09:07Z</time>
      </trkpt>
      <trkpt lat="45.08654" lon="1.25329">
        <ele>196</ele>
        <time>2023-10-28T14:09:08Z</time>
      </trkpt>
      <trkpt lat="45.08652" lon="1.25331">
        <ele>195.8</ele>
        <time>2023-10-28T14:09:09Z</time>
      </trkpt>
      <trkpt lat="45.08651" lon="1.25334">
        <ele>195.6</ele>
        <time>2023-10-28T14:09:10Z</time>
      </trkpt>
      <trkpt lat="45.08649" lon="1.25337">
        <ele>195.4</ele>
        <time>2023-10-28T14:09:11Z</time>
      </trkpt>
      <trkpt lat="45.08648" lon="1.2534">
        <ele>195.2</ele>
        <time>2023-10-28T14:09:12Z</time>
      </trkpt>
      <trkpt lat="45.08646" lon="1.25343">
        <ele>195</ele>
        <time>2023-10-28T14:09:13Z</time>
      </trkpt>
      <trkpt lat="45.08645" lon="1.25346">
        <ele>194.8</ele>
        <time>2023-10-28T14:09:14Z</time>
      </trkpt>
      <trkpt lat="45.08643" lon="1.25349">
        <ele>194.7</ele>
        <time>2023-10-28T14:09:15Z</time>
      </trkpt>
      <trkpt lat="45.08642" lon="1.25352">
        <ele>194.5</ele>
        <time>2023-10-28T14:09:16Z</time>
      </trkpt>
      <trkpt lat="45.08641" lon="1.25355">
        <ele>194.3</ele>
        <time>2023-10-28T14:09:17Z</time>
      </trkpt>
      <trkpt lat="45.0864" lon="1.25358">
        <ele>194.2</ele>
        <time>2023-10-28T14:09:18Z</time>
      </trkpt>
      <trkpt lat="45.08638" lon="1.25361">
        <ele>194</ele>
        <time>2023-10-28T14:09:19Z</time>
      </trkpt>
      <trkpt lat="45.08637" lon="1.25365">
        <ele>193.9</ele>
        <time>2023-10-28T14:09:20Z</time>
      </trkpt>
      <trkpt lat="45.08636" lon="1.25368">
        <ele>193.7</ele>
        <time>2023-10-28T14:09:21Z</time>
      </trkpt>
      <trkpt lat="45.08635" lon="1.25371">
        <ele>193.6</ele>
        <time>2023-10-28T14:09:22Z</time>
      </trkpt>
      <trkpt lat="45.08633" lon="1.25374">
        <ele>193.5</ele>
        <time>2023-10-28T14:09:23Z</time>
      </trkpt>
      <trkpt lat="45.08632" lon="1.25377">
        <ele>193.4</ele>
        <time>2023-10-28T14:09:24Z</time>
      </trkpt>
      <trkpt lat="45.08631" lon="1.2538">
        <ele>193.3</ele>
        <time>2023-10-28T14:09:25Z</time>
      </trkpt>
      <trkpt lat="45.0863" lon="1.25383">
        <ele>193.2</ele>
        <time>2023-10-28T14:09:26Z</time>
      </trkpt>
      <trkpt lat="45.08629" lon="1.25386">
        <ele>193</ele>
        <time>2023-10-28T14:09:27Z</time>
      </trkpt>
      <trkpt lat="45.08628" lon="1.25389">
        <ele>192.9</ele>
        <time>2023-10-28T14:09:28Z</time>
      </trkpt>
      <trkpt lat="45.08627" lon="1.25392">
        <ele>192.8</ele>
        <time>2023-10-28T14:09:29Z</time>
      </trkpt>
      <trkpt lat="45.08626" lon="1.25395">
        <ele>192.7</ele>
        <time>2023-10-28T14:09:30Z</time>
      </trkpt>
      <trkpt lat="45.08625" lon="1.25398">
        <ele>192.6</ele>
        <time>2023-10-28T14:09:31Z</time>
      </trkpt>
      <trkpt lat="45.08624" lon="1.25401">
        <ele>192.5</ele>
        <time>2023-10-28T14:09:32Z</time>
      </trkpt>
      <trkpt lat="45.08622" lon="1.25404">
        <ele>192.5</ele>
        <time>2023-10-28T14:09:33Z</time>
      </trkpt>
      <trkpt lat="45.08621" lon="1.25407">
        <ele>192.4</ele>
        <time>2023-10-28T14:09:34Z</time>
      </trkpt>
      <trkpt lat="45.0862" lon="1.2541">
        <ele>192.3</ele>
        <time>2023-10-28T14:09:35Z</time>
      </trkpt>
      <trkpt lat="45.08619" lon="1.25413">
        <ele>192.2</ele>
        <time>2023-10-28T14:09:36Z</time>
      </trkpt>
      <trkpt lat="45.08618" lon="1.25416">
        <ele>192.2</ele>
        <time>2023-10-28T14:09:37Z</time>
      </trkpt>
      <trkpt lat="45.08617" lon="1.25419">
        <ele>192.1</ele>
        <time>2023-10-28T14:09:38Z</time>
      </trkpt>
      <trkpt lat="45.08616" lon="1.25422">
        <ele>192</ele>
        <time>2023-10-28T14:09:39Z</time>
      </trkpt>
      <trkpt lat="45.08615" lon="1.25426">
        <ele>191.9</ele>
        <time>2023-10-28T14:09:40Z</time>
      </trkpt>
      <trkpt lat="45.08614" lon="1.25429">
        <ele>191.9</ele>
        <time>2023-10-28T14:09:41Z</time>
      </trkpt>
      <trkpt lat="45.08613" lon="1.25432">
        <ele>191.8</ele>
        <time>2023-10-28T14:09:42Z</time>
      </trkpt>
      <trkpt lat="45.08612" lon="1.25435">
        <ele>191.7</ele>
        <time>2023-10-28T14:09:43Z</time>
      </trkpt>
      <trkpt lat="45.08612" lon="1.25438">
        <ele>191.7</ele>
        <time>2023-10-28T14:09:44Z</time>
      </trkpt>
      <trkpt lat="45.08611" lon="1.25441">
        <ele>191.6</ele>
        <time>2023-10-28T14:09:45Z</time>
      </trkpt>
      <trkpt lat="45.0861" lon="1.25445">
        <ele>191.5</ele>
        <time>2023-10-28T14:09:46Z</time>
      </trkpt>
      <trkpt lat="45.08609" lon="1.25448">
        <ele>191.5</ele>
        <time>2023-10-28T14:09:47Z</time>
      </trkpt>
      <trkpt lat="45.08609" lon="1.25451">
        <ele>191.4</ele>
        <time>2023-10-28T14:09:48Z</time>
      </trkpt>
      <trkpt lat="45.08608" lon="1.25455">
        <ele>191.3</ele>
        <time>2023-10-28T14:09:49Z</time>
      </trkpt>
      <trkpt lat="45.08607" lon="1.25458">
        <ele>191.3</ele>
        <time>2023-10-28T14:09:50Z</time>
      </trkpt>
      <trkpt lat="45.08606" lon="1.25461">
        <ele>191.2</ele>
        <time>2023-10-28T14:09:51Z</time>
      </trkpt>
      <trkpt lat="45.08605" lon="1.25465">
        <ele>191.1</ele>
        <time>2023-10-28T14:09:52Z</time>
      </trkpt>
      <trkpt lat="45.08604" lon="1.25468">
        <ele>191.1</ele>
        <time>2023-10-28T14:09:53Z</time>
      </trkpt>
      <trkpt lat="45.08603" lon="1.25472">
        <ele>191</ele>
        <time>2023-10-28T14:09:54Z</time>
      </trkpt>
      <trkpt lat="45.08602" lon="1.25475">
        <ele>190.9</ele>
        <time>2023-10-28T14:09:55Z</time>
      </trkpt>
      <trkpt lat="45.08601" lon="1.25478">
        <ele>190.9</ele>
        <time>2023-10-28T14:09:56Z</time>
      </trkpt>
      <trkpt lat="45.086" lon="1.25481">
        <ele>190.8</ele>
        <time>2023-10-28T14:09:57Z</time>
      </trkpt>
      <trkpt lat="45.08598" lon="1.25484">
        <ele>190.8</ele>
        <time>2023-10-28T14:09:58Z</time>
      </trkpt>
      <trkpt lat="45.08598" lon="1.25487">
        <ele>190.7</ele>
        <time>2023-10-28T14:09:59Z</time>
      </trkpt>
      <trkpt lat="45.08596" lon="1.2549">
        <ele>190.7</ele>
        <time>2023-10-28T14:10:00Z</time>
      </trkpt>
      <trkpt lat="45.08595" lon="1.25493">
        <ele>190.6</ele>
        <time>2023-10-28T14:10:01Z</time>
      </trkpt>
      <trkpt lat="45.08594" lon="1.25496">
        <ele>190.6</ele>
        <time>2023-10-28T14:10:02Z</time>
      </trkpt>
      <trkpt lat="45.08593" lon="1.25499">
        <ele>190.5</ele>
        <time>2023-10-28T14:10:03Z</time>
      </trkpt>
      <trkpt lat="45.08592" lon="1.25502">
        <ele>190.5</ele>
        <time>2023-10-28T14:10:04Z</time>
      </trkpt>
      <trkpt lat="45.08591" lon="1.25505">
        <ele>190.4</ele>
        <time>2023-10-28T14:10:05Z</time>
      </trkpt>
      <trkpt lat="45.0859" lon="1.25508">
        <ele>190.4</ele>
        <time>2023-10-28T14:10:06Z</time>
      </trkpt>
      <trkpt lat="45.08589" lon="1.25511">
        <ele>190.3</ele>
        <time>2023-10-28T14:10:07Z</time>
      </trkpt>
      <trkpt lat="45.08588" lon="1.25514">
        <ele>190.3</ele>
        <time>2023-10-28T14:10:08Z</time>
      </trkpt>
      <trkpt lat="45.08587" lon="1.25517">
        <ele>190.2</ele>
        <time>2023-10-28T14:10:09Z</time>
      </trkpt>
      <trkpt lat="45.08585" lon="1.2552">
        <ele>190.2</ele>
        <time>2023-10-28T14:10:10Z</time>
      </trkpt>
      <trkpt lat="45.08584" lon="1.25522">
        <ele>190.1</ele>
        <time>2023-10-28T14:10:11Z</time>
      </trkpt>
      <trkpt lat="45.08583" lon="1.25525">
        <ele>190</ele>
        <time>2023-10-28T14:10:12Z</time>
      </trkpt>
      <trkpt lat="45.08582" lon="1.25528">
        <ele>190</ele>
        <time>2023-10-28T14:10:13Z</time>
      </trkpt>
      <trkpt lat="45.0858" lon="1.25531">
        <ele>189.9</ele>
        <time>2023-10-28T14:10:14Z</time>
      </trkpt>
      <trkpt lat="45.08579" lon="1.25534">
        <ele>189.9</ele>
        <time>2023-10-28T14:10:15Z</time>
      </trkpt>
      <trkpt lat="45.08578" lon="1.25537">
        <ele>189.8</ele>
        <time>2023-10-28T14:10:16Z</time>
      </trkpt>
      <trkpt lat="45.08577" lon="1.2554">
        <ele>189.7</ele>
        <time>2023-10-28T14:10:17Z</time>
      </trkpt>
      <trkpt lat="45.08575" lon="1.25543">
        <ele>189.6</ele>
        <time>2023-10-28T14:10:18Z</time>
      </trkpt>
      <trkpt lat="45.08574" lon="1.25546">
        <ele>189.5</ele>
        <time>2023-10-28T14:10:19Z</time>
      </trkpt>
      <trkpt lat="45.08573" lon="1.25549">
        <ele>189.4</ele>
        <time>2023-10-28T14:10:20Z</time>
      </trkpt>
      <trkpt lat="45.08572" lon="1.25552">
        <ele>189.3</ele>
        <time>2023-10-28T14:10:21Z</time>
      </trkpt>
      <trkpt lat="45.08571" lon="1.25555">
        <ele>189.2</ele>
        <time>2023-10-28T14:10:22Z</time>
      </trkpt>
      <trkpt lat="45.0857" lon="1.25559">
        <ele>189.1</ele>
        <time>2023-10-28T14:10:23Z</time>
      </trkpt>
      <trkpt lat="45.08569" lon="1.25562">
        <ele>188.9</ele>
        <time>2023-10-28T14:10:24Z</time>
      </trkpt>
      <trkpt lat="45.08568" lon="1.25565">
        <ele>188.8</ele>
        <time>2023-10-28T14:10:25Z</time>
      </trkpt>
      <trkpt lat="45.08567" lon="1.25568">
        <ele>188.7</ele>
        <time>2023-10-28T14:10:26Z</time>
      </trkpt>
      <trkpt lat="45.08566" lon="1.25571">
        <ele>188.6</ele>
        <time>2023-10-28T14:10:27Z</time>
      </trkpt>
      <trkpt lat="45.08565" lon="1.25574">
        <ele>188.5</ele>
        <time>2023-10-28T14:10:28Z</time>
      </trkpt>
      <trkpt lat="45.08564" lon="1.25577">
        <ele>188.4</ele>
        <time>2023-10-28T14:10:29Z</time>
      </trkpt>
      <trkpt lat="45.08563" lon="1.2558">
        <ele>188.2</ele>
        <time>2023-10-28T14:10:30Z</time>
      </trkpt>
      <trkpt lat="45.08563" lon="1.25583">
        <ele>188.1</ele>
        <time>2023-10-28T14:10:31Z</time>
      </trkpt>
      <trkpt lat="45.08561" lon="1.25586">
        <ele>188</ele>
        <time>2023-10-28T14:10:32Z</time>
      </trkpt>
      <trkpt lat="45.08561" lon="1.2559">
        <ele>187.9</ele>
        <time>2023-10-28T14:10:33Z</time>
      </trkpt>
      <trkpt lat="45.0856" lon="1.25593">
        <ele>187.9</ele>
        <time>2023-10-28T14:10:34Z</time>
      </trkpt>
      <trkpt lat="45.08559" lon="1.25596">
        <ele>187.8</ele>
        <time>2023-10-28T14:10:35Z</time>
      </trkpt>
      <trkpt lat="45.08558" lon="1.25599">
        <ele>187.7</ele>
        <time>2023-10-28T14:10:36Z</time>
      </trkpt>
      <trkpt lat="45.08558" lon="1.25603">
        <ele>187.6</ele>
        <time>2023-10-28T14:10:37Z</time>
      </trkpt>
      <trkpt lat="45.08557" lon="1.25606">
        <ele>187.5</ele>
        <time>2023-10-28T14:10:38Z</time>
      </trkpt>
      <trkpt lat="45.08556" lon="1.25609">
        <ele>187.4</ele>
        <time>2023-10-28T14:10:39Z</time>
      </trkpt>
      <trkpt lat="45.08555" lon="1.25612">
        <ele>187.3</ele>
        <time>2023-10-28T14:10:40Z</time>
      </trkpt>
      <trkpt lat="45.08554" lon="1.25615">
        <ele>187.2</ele>
        <time>2023-10-28T14:10:41Z</time>
      </trkpt>
      <trkpt lat="45.08553" lon="1.25619">
        <ele>187.1</ele>
        <time>2023-10-28T14:10:42Z</time>
      </trkpt>
      <trkpt lat="45.08552" lon="1.25622">
        <ele>187.1</ele>
        <time>2023-10-28T14:10:43Z</time>
      </trkpt>
      <trkpt lat="45.08551" lon="1.25625">
        <ele>187</ele>
        <time>2023-10-28T14:10:44Z</time>
      </trkpt>
      <trkpt lat="45.0855" lon="1.25628">
        <ele>186.9</ele>
        <time>2023-10-28T14:10:45Z</time>
      </trkpt>
      <trkpt lat="45.08549" lon="1.25631">
        <ele>186.8</ele>
        <time>2023-10-28T14:10:46Z</time>
      </trkpt>
      <trkpt lat="45.08548" lon="1.25635">
        <ele>186.8</ele>
        <time>2023-10-28T14:10:47Z</time>
      </trkpt>
      <trkpt lat="45.08547" lon="1.25638">
        <ele>186.7</ele>
        <time>2023-10-28T14:10:48Z</time>
      </trkpt>
      <trkpt lat="45.08546" lon="1.25641">
        <ele>186.6</ele>
        <time>2023-10-28T14:10:49Z</time>
      </trkpt>
      <trkpt lat="45.08545" lon="1.25644">
        <ele>186.6</ele>
        <time>2023-10-28T14:10:50Z</time>
      </trkpt>
      <trkpt lat="45.08544" lon="1.25647">
        <ele>186.5</ele>
        <time>2023-10-28T14:10:51Z</time>
      </trkpt>
      <trkpt lat="45.08543" lon="1.2565">
        <ele>186.4</ele>
        <time>2023-10-28T14:10:52Z</time>
      </trkpt>
      <trkpt lat="45.08542" lon="1.25653">
        <ele>186.3</ele>
        <time>2023-10-28T14:10:53Z</time>
      </trkpt>
      <trkpt lat="45.0854" lon="1.25656">
        <ele>186.2</ele>
        <time>2023-10-28T14:10:54Z</time>
      </trkpt>
      <trkpt lat="45.08538" lon="1.25659">
        <ele>186.2</ele>
        <time>2023-10-28T14:10:55Z</time>
      </trkpt>
      <trkpt lat="45.08537" lon="1.25662">
        <ele>186.1</ele>
        <time>2023-10-28T14:10:56Z</time>
      </trkpt>
      <trkpt lat="45.08535" lon="1.25665">
        <ele>186</ele>
        <time>2023-10-28T14:10:57Z</time>
      </trkpt>
      <trkpt lat="45.08534" lon="1.25668">
        <ele>186</ele>
        <time>2023-10-28T14:10:58Z</time>
      </trkpt>
      <trkpt lat="45.08533" lon="1.25671">
        <ele>185.9</ele>
        <time>2023-10-28T14:10:59Z</time>
      </trkpt>
      <trkpt lat="45.08532" lon="1.25674">
        <ele>185.8</ele>
        <time>2023-10-28T14:11:00Z</time>
      </trkpt>
      <trkpt lat="45.0853" lon="1.25677">
        <ele>185.7</ele>
        <time>2023-10-28T14:11:01Z</time>
      </trkpt>
      <trkpt lat="45.08529" lon="1.2568">
        <ele>185.7</ele>
        <time>2023-10-28T14:11:02Z</time>
      </trkpt>
      <trkpt lat="45.08527" lon="1.25683">
        <ele>185.6</ele>
        <time>2023-10-28T14:11:03Z</time>
      </trkpt>
      <trkpt lat="45.08526" lon="1.25685">
        <ele>185.6</ele>
        <time>2023-10-28T14:11:04Z</time>
      </trkpt>
      <trkpt lat="45.08525" lon="1.25688">
        <ele>185.5</ele>
        <time>2023-10-28T14:11:05Z</time>
      </trkpt>
      <trkpt lat="45.08524" lon="1.25691">
        <ele>185.5</ele>
        <time>2023-10-28T14:11:06Z</time>
      </trkpt>
      <trkpt lat="45.08522" lon="1.25693">
        <ele>185.4</ele>
        <time>2023-10-28T14:11:07Z</time>
      </trkpt>
      <trkpt lat="45.08521" lon="1.25696">
        <ele>185.4</ele>
        <time>2023-10-28T14:11:08Z</time>
      </trkpt>
      <trkpt lat="45.08519" lon="1.25699">
        <ele>185.3</ele>
        <time>2023-10-28T14:11:09Z</time>
      </trkpt>
      <trkpt lat="45.08518" lon="1.25702">
        <ele>185.3</ele>
        <time>2023-10-28T14:11:10Z</time>
      </trkpt>
      <trkpt lat="45.08516" lon="1.25704">
        <ele>185.2</ele>
        <time>2023-10-28T14:11:11Z</time>
      </trkpt>
      <trkpt lat="45.08515" lon="1.25707">
        <ele>185.2</ele>
        <time>2023-10-28T14:11:12Z</time>
      </trkpt>
      <trkpt lat="45.08513" lon="1.2571">
        <ele>185.1</ele>
        <time>2023-10-28T14:11:13Z</time>
      </trkpt>
      <trkpt lat="45.08511" lon="1.25712">
        <ele>185.1</ele>
        <time>2023-10-28T14:11:14Z</time>
      </trkpt>
      <trkpt lat="45.0851" lon="1.25715">
        <ele>185</ele>
        <time>2023-10-28T14:11:15Z</time>
      </trkpt>
      <trkpt lat="45.08508" lon="1.25717">
        <ele>185</ele>
        <time>2023-10-28T14:11:16Z</time>
      </trkpt>
      <trkpt lat="45.08506" lon="1.2572">
        <ele>184.9</ele>
        <time>2023-10-28T14:11:17Z</time>
      </trkpt>
      <trkpt lat="45.08505" lon="1.25722">
        <ele>184.9</ele>
        <time>2023-10-28T14:11:18Z</time>
      </trkpt>
      <trkpt lat="45.08503" lon="1.25724">
        <ele>184.8</ele>
        <time>2023-10-28T14:11:19Z</time>
      </trkpt>
      <trkpt lat="45.08501" lon="1.25727">
        <ele>184.7</ele>
        <time>2023-10-28T14:11:20Z</time>
      </trkpt>
      <trkpt lat="45.085" lon="1.25729">
        <ele>184.7</ele>
        <time>2023-10-28T14:11:21Z</time>
      </trkpt>
      <trkpt lat="45.08498" lon="1.25732">
        <ele>184.6</ele>
        <time>2023-10-28T14:11:22Z</time>
      </trkpt>
      <trkpt lat="45.08497" lon="1.25734">
        <ele>184.6</ele>
        <time>2023-10-28T14:11:23Z</time>
      </trkpt>
      <trkpt lat="45.08496" lon="1.25737">
        <ele>184.5</ele>
        <time>2023-10-28T14:11:24Z</time>
      </trkpt>
      <trkpt lat="45.08495" lon="1.2574">
        <ele>184.4</ele>
        <time>2023-10-28T14:11:25Z</time>
      </trkpt>
      <trkpt lat="45.08494" lon="1.25743">
        <ele>184.4</ele>
        <time>2023-10-28T14:11:26Z</time>
      </trkpt>
      <trkpt lat="45.08493" lon="1.25747">
        <ele>184.3</ele>
        <time>2023-10-28T14:11:27Z</time>
      </trkpt>
      <trkpt lat="45.08493" lon="1.2575">
        <ele>184.2</ele>
        <time>2023-10-28T14:11:28Z</time>
      </trkpt>
      <trkpt lat="45.08493" lon="1.25754">
        <ele>184.1</ele>
        <time>2023-10-28T14:11:29Z</time>
      </trkpt>
      <trkpt lat="45.08493" lon="1.25757">
        <ele>184</ele>
        <time>2023-10-28T14:11:30Z</time>
      </trkpt>
      <trkpt lat="45.08493" lon="1.25761">
        <ele>183.9</ele>
        <time>2023-10-28T14:11:31Z</time>
      </trkpt>
      <trkpt lat="45.08493" lon="1.25764">
        <ele>183.9</ele>
        <time>2023-10-28T14:11:32Z</time>
      </trkpt>
      <trkpt lat="45.08493" lon="1.25768">
        <ele>183.8</ele>
        <time>2023-10-28T14:11:33Z</time>
      </trkpt>
      <trkpt lat="45.08493" lon="1.25771">
        <ele>183.7</ele>
        <time>2023-10-28T14:11:34Z</time>
      </trkpt>
      <trkpt lat="45.08493" lon="1.25775">
        <ele>183.6</ele>
        <time>2023-10-28T14:11:35Z</time>
      </trkpt>
      <trkpt lat="45.08493" lon="1.25778">
        <ele>183.5</ele>
        <time>2023-10-28T14:11:36Z</time>
      </trkpt>
      <trkpt lat="45.08493" lon="1.25781">
        <ele>183.4</ele>
        <time>2023-10-28T14:11:37Z</time>
      </trkpt>
      <trkpt lat="45.08493" lon="1.25784">
        <ele>183.3</ele>
        <time>2023-10-28T14:11:38Z</time>
      </trkpt>
      <trkpt lat="45.08493" lon="1.25788">
        <ele>183.3</ele>
        <time>2023-10-28T14:11:39Z</time>
      </trkpt>
      <trkpt lat="45.08493" lon="1.25791">
        <ele>183.2</ele>
        <time>2023-10-28T14:11:40Z</time>
      </trkpt>
      <trkpt lat="45.08494" lon="1.25794">
        <ele>183.1</ele>
        <time>2023-10-28T14:11:41Z</time>
      </trkpt>
      <trkpt lat="45.08494" lon="1.25797">
        <ele>183</ele>
        <time>2023-10-28T14:11:42Z</time>
      </trkpt>
      <trkpt lat="45.08495" lon="1.258">
        <ele>182.9</ele>
        <time>2023-10-28T14:11:43Z</time>
      </trkpt>
      <trkpt lat="45.08495" lon="1.25803">
        <ele>182.8</ele>
        <time>2023-10-28T14:11:44Z</time>
      </trkpt>
      <trkpt lat="45.08496" lon="1.25807">
        <ele>182.7</ele>
        <time>2023-10-28T14:11:45Z</time>
      </trkpt>
      <trkpt lat="45.08496" lon="1.2581">
        <ele>182.7</ele>
        <time>2023-10-28T14:11:46Z</time>
      </trkpt>
      <trkpt lat="45.08497" lon="1.25813">
        <ele>182.6</ele>
        <time>2023-10-28T14:11:47Z</time>
      </trkpt>
      <trkpt lat="45.08497" lon="1.25817">
        <ele>182.5</ele>
        <time>2023-10-28T14:11:48Z</time>
      </trkpt>
      <trkpt lat="45.08497" lon="1.2582">
        <ele>182.4</ele>
        <time>2023-10-28T14:11:49Z</time>
      </trkpt>
      <trkpt lat="45.08497" lon="1.25823">
        <ele>182.3</ele>
        <time>2023-10-28T14:11:50Z</time>
      </trkpt>
      <trkpt lat="45.08497" lon="1.25827">
        <ele>182.2</ele>
        <time>2023-10-28T14:11:51Z</time>
      </trkpt>
      <trkpt lat="45.08497" lon="1.2583">
        <ele>182.1</ele>
        <time>2023-10-28T14:11:52Z</time>
      </trkpt>
      <trkpt lat="45.08497" lon="1.25833">
        <ele>182.1</ele>
        <time>2023-10-28T14:11:53Z</time>
      </trkpt>
      <trkpt lat="45.08497" lon="1.25837">
        <ele>182</ele>
        <time>2023-10-28T14:11:54Z</time>
      </trkpt>
      <trkpt lat="45.08497" lon="1.2584">
        <ele>181.9</ele>
        <time>2023-10-28T14:11:55Z</time>
      </trkpt>
      <trkpt lat="45.08496" lon="1.25843">
        <ele>181.8</ele>
        <time>2023-10-28T14:11:56Z</time>
      </trkpt>
      <trkpt lat="45.08495" lon="1.25847">
        <ele>181.7</ele>
        <time>2023-10-28T14:11:57Z</time>
      </trkpt>
      <trkpt lat="45.08495" lon="1.2585">
        <ele>181.6</ele>
        <time>2023-10-28T14:11:58Z</time>
      </trkpt>
      <trkpt lat="45.08494" lon="1.25854">
        <ele>181.5</ele>
        <time>2023-10-28T14:11:59Z</time>
      </trkpt>
      <trkpt lat="45.08493" lon="1.25857">
        <ele>181.4</ele>
        <time>2023-10-28T14:12:00Z</time>
      </trkpt>
      <trkpt lat="45.08493" lon="1.25861">
        <ele>181.3</ele>
        <time>2023-10-28T14:12:01Z</time>
      </trkpt>
      <trkpt lat="45.08493" lon="1.25864">
        <ele>181.2</ele>
        <time>2023-10-28T14:12:02Z</time>
      </trkpt>
      <trkpt lat="45.08493" lon="1.25868">
        <ele>181.1</ele>
        <time>2023-10-28T14:12:03Z</time>
      </trkpt>
      <trkpt lat="45.08493" lon="1.25871">
        <ele>181</ele>
        <time>2023-10-28T14:12:04Z</time>
      </trkpt>
      <trkpt lat="45.08493" lon="1.25875">
        <ele>180.9</ele>
        <time>2023-10-28T14:12:05Z</time>
      </trkpt>
      <trkpt lat="45.08493" lon="1.25878">
        <ele>180.8</ele>
        <time>2023-10-28T14:12:06Z</time>
      </trkpt>
      <trkpt lat="45.08494" lon="1.25882">
        <ele>180.6</ele>
        <time>2023-10-28T14:12:07Z</time>
      </trkpt>
      <trkpt lat="45.08494" lon="1.25885">
        <ele>180.5</ele>
        <time>2023-10-28T14:12:08Z</time>
      </trkpt>
      <trkpt lat="45.08495" lon="1.25889">
        <ele>180.4</ele>
        <time>2023-10-28T14:12:09Z</time>
      </trkpt>
      <trkpt lat="45.08495" lon="1.25892">
        <ele>180.3</ele>
        <time>2023-10-28T14:12:10Z</time>
      </trkpt>
      <trkpt lat="45.08496" lon="1.25895">
        <ele>180.1</ele>
        <time>2023-10-28T14:12:11Z</time>
      </trkpt>
      <trkpt lat="45.08497" lon="1.25898">
        <ele>180</ele>
        <time>2023-10-28T14:12:12Z</time>
      </trkpt>
      <trkpt lat="45.08498" lon="1.25901">
        <ele>179.9</ele>
        <time>2023-10-28T14:12:13Z</time>
      </trkpt>
      <trkpt lat="45.08499" lon="1.25904">
        <ele>179.7</ele>
        <time>2023-10-28T14:12:14Z</time>
      </trkpt>
      <trkpt lat="45.08501" lon="1.25907">
        <ele>179.6</ele>
        <time>2023-10-28T14:12:15Z</time>
      </trkpt>
      <trkpt lat="45.08503" lon="1.2591">
        <ele>179.4</ele>
        <time>2023-10-28T14:12:16Z</time>
      </trkpt>
      <trkpt lat="45.08504" lon="1.25913">
        <ele>179.2</ele>
        <time>2023-10-28T14:12:17Z</time>
      </trkpt>
      <trkpt lat="45.08506" lon="1.25915">
        <ele>179.1</ele>
        <time>2023-10-28T14:12:18Z</time>
      </trkpt>
      <trkpt lat="45.08507" lon="1.25918">
        <ele>178.9</ele>
        <time>2023-10-28T14:12:19Z</time>
      </trkpt>
      <trkpt lat="45.08509" lon="1.25921">
        <ele>178.7</ele>
        <time>2023-10-28T14:12:20Z</time>
      </trkpt>
      <trkpt lat="45.0851" lon="1.25924">
        <ele>178.5</ele>
        <time>2023-10-28T14:12:21Z</time>
      </trkpt>
      <trkpt lat="45.08512" lon="1.25927">
        <ele>178.3</ele>
        <time>2023-10-28T14:12:22Z</time>
      </trkpt>
      <trkpt lat="45.08513" lon="1.2593">
        <ele>178.1</ele>
        <time>2023-10-28T14:12:23Z</time>
      </trkpt>
      <trkpt lat="45.08514" lon="1.25933">
        <ele>177.9</ele>
        <time>2023-10-28T14:12:24Z</time>
      </trkpt>
      <trkpt lat="45.08515" lon="1.25936">
        <ele>177.7</ele>
        <time>2023-10-28T14:12:25Z</time>
      </trkpt>
      <trkpt lat="45.08516" lon="1.25939">
        <ele>177.5</ele>
        <time>2023-10-28T14:12:26Z</time>
      </trkpt>
      <trkpt lat="45.08516" lon="1.25942">
        <ele>177.3</ele>
        <time>2023-10-28T14:12:27Z</time>
      </trkpt>
      <trkpt lat="45.08517" lon="1.25945">
        <ele>177.1</ele>
        <time>2023-10-28T14:12:28Z</time>
      </trkpt>
      <trkpt lat="45.08517" lon="1.25948">
        <ele>176.9</ele>
        <time>2023-10-28T14:12:29Z</time>
      </trkpt>
      <trkpt lat="45.08518" lon="1.25951">
        <ele>176.7</ele>
        <time>2023-10-28T14:12:30Z</time>
      </trkpt>
      <trkpt lat="45.08518" lon="1.25954">
        <ele>176.5</ele>
        <time>2023-10-28T14:12:31Z</time>
      </trkpt>
      <trkpt lat="45.08518" lon="1.25957">
        <ele>176.3</ele>
        <time>2023-10-28T14:12:32Z</time>
      </trkpt>
      <trkpt lat="45.08519" lon="1.2596">
        <ele>176.1</ele>
        <time>2023-10-28T14:12:33Z</time>
      </trkpt>
      <trkpt lat="45.08519" lon="1.25963">
        <ele>175.9</ele>
        <time>2023-10-28T14:12:34Z</time>
      </trkpt>
      <trkpt lat="45.08519" lon="1.25966">
        <ele>175.7</ele>
        <time>2023-10-28T14:12:35Z</time>
      </trkpt>
      <trkpt lat="45.08519" lon="1.25969">
        <ele>175.5</ele>
        <time>2023-10-28T14:12:36Z</time>
      </trkpt>
      <trkpt lat="45.0852" lon="1.25972">
        <ele>175.3</ele>
        <time>2023-10-28T14:12:37Z</time>
      </trkpt>
      <trkpt lat="45.0852" lon="1.25975">
        <ele>175.1</ele>
        <time>2023-10-28T14:12:38Z</time>
      </trkpt>
      <trkpt lat="45.0852" lon="1.25978">
        <ele>175</ele>
        <time>2023-10-28T14:12:39Z</time>
      </trkpt>
      <trkpt lat="45.0852" lon="1.25981">
        <ele>174.8</ele>
        <time>2023-10-28T14:12:40Z</time>
      </trkpt>
      <trkpt lat="45.08521" lon="1.25985">
        <ele>174.6</ele>
        <time>2023-10-28T14:12:41Z</time>
      </trkpt>
      <trkpt lat="45.08521" lon="1.25988">
        <ele>174.4</ele>
        <time>2023-10-28T14:12:42Z</time>
      </trkpt>
      <trkpt lat="45.08521" lon="1.25991">
        <ele>174.3</ele>
        <time>2023-10-28T14:12:43Z</time>
      </trkpt>
      <trkpt lat="45.08522" lon="1.25995">
        <ele>174.1</ele>
        <time>2023-10-28T14:12:44Z</time>
      </trkpt>
      <trkpt lat="45.08522" lon="1.25998">
        <ele>174</ele>
        <time>2023-10-28T14:12:45Z</time>
      </trkpt>
      <trkpt lat="45.08523" lon="1.26002">
        <ele>173.9</ele>
        <time>2023-10-28T14:12:46Z</time>
      </trkpt>
      <trkpt lat="45.08523" lon="1.26004">
        <ele>173.8</ele>
        <time>2023-10-28T14:12:47Z</time>
      </trkpt>
      <trkpt lat="45.08524" lon="1.26006">
        <ele>173.7</ele>
        <time>2023-10-28T14:12:48Z</time>
      </trkpt>
      <trkpt lat="45.08524" lon="1.26007">
        <ele>173.7</ele>
        <time>2023-10-28T14:12:49Z</time>
      </trkpt>
      <trkpt lat="45.08524" lon="1.26007">
        <ele>173.7</ele>
        <time>2023-10-28T14:12:50Z</time>
      </trkpt>
      <trkpt lat="45.08524" lon="1.26007">
        <ele>173.7</ele>
        <time>2023-10-28T14:12:51Z</time>
      </trkpt>
      <trkpt lat="45.08525" lon="1.26008">
        <ele>173.7</ele>
        <time>2023-10-28T14:12:52Z</time>
      </trkpt>
      <trkpt lat="45.08526" lon="1.26009">
        <ele>173.6</ele>
        <time>2023-10-28T14:12:53Z</time>
      </trkpt>
      <trkpt lat="45.08526" lon="1.26009">
        <ele>173.6</ele>
        <time>2023-10-28T14:12:54Z</time>
      </trkpt>
      <trkpt lat="45.08526" lon="1.2601">
        <ele>173.6</ele>
        <time>2023-10-28T14:12:55Z</time>
      </trkpt>
      <trkpt lat="45.08526" lon="1.26011">
        <ele>173.6</ele>
        <time>2023-10-28T14:12:56Z</time>
      </trkpt>
      <trkpt lat="45.08526" lon="1.26012">
        <ele>173.6</ele>
        <time>2023-10-28T14:12:57Z</time>
      </trkpt>
      <trkpt lat="45.08526" lon="1.26013">
        <ele>173.5</ele>
        <time>2023-10-28T14:12:58Z</time>
      </trkpt>
      <trkpt lat="45.08526" lon="1.26014">
        <ele>173.5</ele>
        <time>2023-10-28T14:12:59Z</time>
      </trkpt>
      <trkpt lat="45.08527" lon="1.26015">
        <ele>173.5</ele>
        <time>2023-10-28T14:13:00Z</time>
      </trkpt>
      <trkpt lat="45.08527" lon="1.26016">
        <ele>173.5</ele>
        <time>2023-10-28T14:13:01Z</time>
      </trkpt>
      <trkpt lat="45.08527" lon="1.26018">
        <ele>173.4</ele>
        <time>2023-10-28T14:13:02Z</time>
      </trkpt>
      <trkpt lat="45.08527" lon="1.2602">
        <ele>173.4</ele>
        <time>2023-10-28T14:13:03Z</time>
      </trkpt>
      <trkpt lat="45.08527" lon="1.26022">
        <ele>173.4</ele>
        <time>2023-10-28T14:13:04Z</time>
      </trkpt>
      <trkpt lat="45.08527" lon="1.26025">
        <ele>173.3</ele>
        <time>2023-10-28T14:13:05Z</time>
      </trkpt>
      <trkpt lat="45.08527" lon="1.26027">
        <ele>173.3</ele>
        <time>2023-10-28T14:13:06Z</time>
      </trkpt>
      <trkpt lat="45.08527" lon="1.26031">
        <ele>173.3</ele>
        <time>2023-10-28T14:13:07Z</time>
      </trkpt>
      <trkpt lat="45.08527" lon="1.26034">
        <ele>173.2</ele>
        <time>2023-10-28T14:13:08Z</time>
      </trkpt>
      <trkpt lat="45.08526" lon="1.26038">
        <ele>173.2</ele>
        <time>2023-10-28T14:13:09Z</time>
      </trkpt>
      <trkpt lat="45.08526" lon="1.26041">
        <ele>173.2</ele>
        <time>2023-10-28T14:13:10Z</time>
      </trkpt>
      <trkpt lat="45.08526" lon="1.26045">
        <ele>173.2</ele>
        <time>2023-10-28T14:13:11Z</time>
      </trkpt>
      <trkpt lat="45.08526" lon="1.26049">
        <ele>173.2</ele>
        <time>2023-10-28T14:13:12Z</time>
      </trkpt>
      <trkpt lat="45.08526" lon="1.26052">
        <ele>173.2</ele>
        <time>2023-10-28T14:13:13Z</time>
      </trkpt>
      <trkpt lat="45.08527" lon="1.26056">
        <ele>173.2</ele>
        <time>2023-10-28T14:13:14Z</time>
      </trkpt>
      <trkpt lat="45.08526" lon="1.26059">
        <ele>173.2</ele>
        <time>2023-10-28T14:13:15Z</time>
      </trkpt>
      <trkpt lat="45.08526" lon="1.26063">
        <ele>173.2</ele>
        <time>2023-10-28T14:13:16Z</time>
      </trkpt>
      <trkpt lat="45.08526" lon="1.26066">
        <ele>173.3</ele>
        <time>2023-10-28T14:13:17Z</time>
      </trkpt>
      <trkpt lat="45.08525" lon="1.26069">
        <ele>173.3</ele>
        <time>2023-10-28T14:13:18Z</time>
      </trkpt>
      <trkpt lat="45.08524" lon="1.26072">
        <ele>173.4</ele>
        <time>2023-10-28T14:13:19Z</time>
      </trkpt>
      <trkpt lat="45.08523" lon="1.26076">
        <ele>173.5</ele>
        <time>2023-10-28T14:13:20Z</time>
      </trkpt>
      <trkpt lat="45.08522" lon="1.26079">
        <ele>173.6</ele>
        <time>2023-10-28T14:13:21Z</time>
      </trkpt>
      <trkpt lat="45.08522" lon="1.26082">
        <ele>173.6</ele>
        <time>2023-10-28T14:13:22Z</time>
      </trkpt>
      <trkpt lat="45.08521" lon="1.26085">
        <ele>173.7</ele>
        <time>2023-10-28T14:13:23Z</time>
      </trkpt>
      <trkpt lat="45.0852" lon="1.26088">
        <ele>173.8</ele>
        <time>2023-10-28T14:13:24Z</time>
      </trkpt>
      <trkpt lat="45.08519" lon="1.26092">
        <ele>173.9</ele>
        <time>2023-10-28T14:13:25Z</time>
      </trkpt>
      <trkpt lat="45.08519" lon="1.26095">
        <ele>174</ele>
        <time>2023-10-28T14:13:26Z</time>
      </trkpt>
      <trkpt lat="45.08518" lon="1.26099">
        <ele>174.1</ele>
        <time>2023-10-28T14:13:27Z</time>
      </trkpt>
      <trkpt lat="45.08518" lon="1.26102">
        <ele>174.2</ele>
        <time>2023-10-28T14:13:28Z</time>
      </trkpt>
      <trkpt lat="45.08517" lon="1.26105">
        <ele>174.3</ele>
        <time>2023-10-28T14:13:29Z</time>
      </trkpt>
      <trkpt lat="45.08517" lon="1.26108">
        <ele>174.4</ele>
        <time>2023-10-28T14:13:30Z</time>
      </trkpt>
      <trkpt lat="45.08516" lon="1.26111">
        <ele>174.5</ele>
        <time>2023-10-28T14:13:31Z</time>
      </trkpt>
      <trkpt lat="45.08516" lon="1.26115">
        <ele>174.6</ele>
        <time>2023-10-28T14:13:32Z</time>
      </trkpt>
      <trkpt lat="45.08516" lon="1.26118">
        <ele>174.6</ele>
        <time>2023-10-28T14:13:33Z</time>
      </trkpt>
      <trkpt lat="45.08516" lon="1.26121">
        <ele>174.7</ele>
        <time>2023-10-28T14:13:34Z</time>
      </trkpt>
      <trkpt lat="45.08516" lon="1.26123">
        <ele>174.8</ele>
        <time>2023-10-28T14:13:35Z</time>
      </trkpt>
      <trkpt lat="45.08515" lon="1.26126">
        <ele>174.9</ele>
        <time>2023-10-28T14:13:36Z</time>
      </trkpt>
      <trkpt lat="45.08515" lon="1.26129">
        <ele>174.9</ele>
        <time>2023-10-28T14:13:37Z</time>
      </trkpt>
      <trkpt lat="45.08515" lon="1.26132">
        <ele>175</ele>
        <time>2023-10-28T14:13:38Z</time>
      </trkpt>
      <trkpt lat="45.08515" lon="1.26135">
        <ele>175.1</ele>
        <time>2023-10-28T14:13:39Z</time>
      </trkpt>
      <trkpt lat="45.08515" lon="1.26138">
        <ele>175.1</ele>
        <time>2023-10-28T14:13:40Z</time>
      </trkpt>
      <trkpt lat="45.08515" lon="1.26141">
        <ele>175.2</ele>
        <time>2023-10-28T14:13:41Z</time>
      </trkpt>
      <trkpt lat="45.08515" lon="1.26144">
        <ele>175.3</ele>
        <time>2023-10-28T14:13:42Z</time>
      </trkpt>
      <trkpt lat="45.08514" lon="1.26147">
        <ele>175.4</ele>
        <time>2023-10-28T14:13:43Z</time>
      </trkpt>
      <trkpt lat="45.08514" lon="1.2615">
        <ele>175.4</ele>
        <time>2023-10-28T14:13:44Z</time>
      </trkpt>
      <trkpt lat="45.08514" lon="1.26154">
        <ele>175.5</ele>
        <time>2023-10-28T14:13:45Z</time>
      </trkpt>
      <trkpt lat="45.08515" lon="1.26157">
        <ele>175.6</ele>
        <time>2023-10-28T14:13:46Z</time>
      </trkpt>
      <trkpt lat="45.08515" lon="1.2616">
        <ele>175.6</ele>
        <time>2023-10-28T14:13:47Z</time>
      </trkpt>
      <trkpt lat="45.08515" lon="1.26163">
        <ele>175.7</ele>
        <time>2023-10-28T14:13:48Z</time>
      </trkpt>
      <trkpt lat="45.08516" lon="1.26167">
        <ele>175.8</ele>
        <time>2023-10-28T14:13:49Z</time>
      </trkpt>
      <trkpt lat="45.08516" lon="1.2617">
        <ele>175.8</ele>
        <time>2023-10-28T14:13:50Z</time>
      </trkpt>
      <trkpt lat="45.08516" lon="1.26173">
        <ele>175.9</ele>
        <time>2023-10-28T14:13:51Z</time>
      </trkpt>
      <trkpt lat="45.08517" lon="1.26177">
        <ele>175.9</ele>
        <time>2023-10-28T14:13:52Z</time>
      </trkpt>
      <trkpt lat="45.08517" lon="1.2618">
        <ele>176</ele>
        <time>2023-10-28T14:13:53Z</time>
      </trkpt>
      <trkpt lat="45.08518" lon="1.26183">
        <ele>176</ele>
        <time>2023-10-28T14:13:54Z</time>
      </trkpt>
      <trkpt lat="45.08518" lon="1.26187">
        <ele>176.1</ele>
        <time>2023-10-28T14:13:55Z</time>
      </trkpt>
      <trkpt lat="45.08519" lon="1.2619">
        <ele>176.1</ele>
        <time>2023-10-28T14:13:56Z</time>
      </trkpt>
      <trkpt lat="45.08519" lon="1.26194">
        <ele>176.1</ele>
        <time>2023-10-28T14:13:57Z</time>
      </trkpt>
      <trkpt lat="45.0852" lon="1.26197">
        <ele>176.1</ele>
        <time>2023-10-28T14:13:58Z</time>
      </trkpt>
      <trkpt lat="45.0852" lon="1.26201">
        <ele>176.1</ele>
        <time>2023-10-28T14:13:59Z</time>
      </trkpt>
      <trkpt lat="45.08521" lon="1.26204">
        <ele>176</ele>
        <time>2023-10-28T14:14:00Z</time>
      </trkpt>
      <trkpt lat="45.08521" lon="1.26208">
        <ele>176</ele>
        <time>2023-10-28T14:14:01Z</time>
      </trkpt>
      <trkpt lat="45.08521" lon="1.26211">
        <ele>176</ele>
        <time>2023-10-28T14:14:02Z</time>
      </trkpt>
      <trkpt lat="45.08522" lon="1.26215">
        <ele>175.9</ele>
        <time>2023-10-28T14:14:03Z</time>
      </trkpt>
      <trkpt lat="45.08522" lon="1.26219">
        <ele>175.8</ele>
        <time>2023-10-28T14:14:04Z</time>
      </trkpt>
      <trkpt lat="45.08523" lon="1.26222">
        <ele>175.7</ele>
        <time>2023-10-28T14:14:05Z</time>
      </trkpt>
      <trkpt lat="45.08523" lon="1.26225">
        <ele>175.6</ele>
        <time>2023-10-28T14:14:06Z</time>
      </trkpt>
      <trkpt lat="45.08524" lon="1.26229">
        <ele>175.6</ele>
        <time>2023-10-28T14:14:07Z</time>
      </trkpt>
      <trkpt lat="45.08524" lon="1.26233">
        <ele>175.5</ele>
        <time>2023-10-28T14:14:08Z</time>
      </trkpt>
      <trkpt lat="45.08524" lon="1.26236">
        <ele>175.4</ele>
        <time>2023-10-28T14:14:09Z</time>
      </trkpt>
      <trkpt lat="45.08524" lon="1.2624">
        <ele>175.2</ele>
        <time>2023-10-28T14:14:10Z</time>
      </trkpt>
      <trkpt lat="45.08525" lon="1.26243">
        <ele>175.1</ele>
        <time>2023-10-28T14:14:11Z</time>
      </trkpt>
      <trkpt lat="45.08525" lon="1.26247">
        <ele>175</ele>
        <time>2023-10-28T14:14:12Z</time>
      </trkpt>
      <trkpt lat="45.08525" lon="1.26251">
        <ele>174.8</ele>
        <time>2023-10-28T14:14:13Z</time>
      </trkpt>
      <trkpt lat="45.08525" lon="1.26254">
        <ele>174.7</ele>
        <time>2023-10-28T14:14:14Z</time>
      </trkpt>
      <trkpt lat="45.08525" lon="1.26258">
        <ele>174.5</ele>
        <time>2023-10-28T14:14:15Z</time>
      </trkpt>
      <trkpt lat="45.08526" lon="1.26261">
        <ele>174.3</ele>
        <time>2023-10-28T14:14:16Z</time>
      </trkpt>
      <trkpt lat="45.08526" lon="1.26265">
        <ele>174.2</ele>
        <time>2023-10-28T14:14:17Z</time>
      </trkpt>
      <trkpt lat="45.08526" lon="1.26268">
        <ele>174</ele>
        <time>2023-10-28T14:14:18Z</time>
      </trkpt>
      <trkpt lat="45.08526" lon="1.26272">
        <ele>173.8</ele>
        <time>2023-10-28T14:14:19Z</time>
      </trkpt>
      <trkpt lat="45.08526" lon="1.26275">
        <ele>173.6</ele>
        <time>2023-10-28T14:14:20Z</time>
      </trkpt>
      <trkpt lat="45.08526" lon="1.26279">
        <ele>173.4</ele>
        <time>2023-10-28T14:14:21Z</time>
      </trkpt>
      <trkpt lat="45.08527" lon="1.26283">
        <ele>173.1</ele>
        <time>2023-10-28T14:14:22Z</time>
      </trkpt>
      <trkpt lat="45.08527" lon="1.26286">
        <ele>172.9</ele>
        <time>2023-10-28T14:14:23Z</time>
      </trkpt>
      <trkpt lat="45.08527" lon="1.2629">
        <ele>172.7</ele>
        <time>2023-10-28T14:14:24Z</time>
      </trkpt>
      <trkpt lat="45.08528" lon="1.26293">
        <ele>172.5</ele>
        <time>2023-10-28T14:14:25Z</time>
      </trkpt>
      <trkpt lat="45.08528" lon="1.26296">
        <ele>172.2</ele>
        <time>2023-10-28T14:14:26Z</time>
      </trkpt>
      <trkpt lat="45.08528" lon="1.263">
        <ele>172</ele>
        <time>2023-10-28T14:14:27Z</time>
      </trkpt>
      <trkpt lat="45.08529" lon="1.26303">
        <ele>171.7</ele>
        <time>2023-10-28T14:14:28Z</time>
      </trkpt>
      <trkpt lat="45.08529" lon="1.26306">
        <ele>171.4</ele>
        <time>2023-10-28T14:14:29Z</time>
      </trkpt>
      <trkpt lat="45.08529" lon="1.26309">
        <ele>171.2</ele>
        <time>2023-10-28T14:14:30Z</time>
      </trkpt>
      <trkpt lat="45.0853" lon="1.26313">
        <ele>170.9</ele>
        <time>2023-10-28T14:14:31Z</time>
      </trkpt>
      <trkpt lat="45.0853" lon="1.26316">
        <ele>170.6</ele>
        <time>2023-10-28T14:14:32Z</time>
      </trkpt>
      <trkpt lat="45.0853" lon="1.26319">
        <ele>170.3</ele>
        <time>2023-10-28T14:14:33Z</time>
      </trkpt>
      <trkpt lat="45.08531" lon="1.26323">
        <ele>170</ele>
        <time>2023-10-28T14:14:34Z</time>
      </trkpt>
      <trkpt lat="45.08532" lon="1.26326">
        <ele>169.7</ele>
        <time>2023-10-28T14:14:35Z</time>
      </trkpt>
      <trkpt lat="45.08532" lon="1.2633">
        <ele>169.4</ele>
        <time>2023-10-28T14:14:36Z</time>
      </trkpt>
      <trkpt lat="45.08532" lon="1.26333">
        <ele>169.1</ele>
        <time>2023-10-28T14:14:37Z</time>
      </trkpt>
      <trkpt lat="45.08533" lon="1.26336">
        <ele>168.8</ele>
        <time>2023-10-28T14:14:38Z</time>
      </trkpt>
      <trkpt lat="45.08534" lon="1.26339">
        <ele>168.4</ele>
        <time>2023-10-28T14:14:39Z</time>
      </trkpt>
      <trkpt lat="45.08534" lon="1.26342">
        <ele>168.1</ele>
        <time>2023-10-28T14:14:40Z</time>
      </trkpt>
      <trkpt lat="45.08535" lon="1.26345">
        <ele>167.8</ele>
        <time>2023-10-28T14:14:41Z</time>
      </trkpt>
      <trkpt lat="45.08535" lon="1.26348">
        <ele>167.5</ele>
        <time>2023-10-28T14:14:42Z</time>
      </trkpt>
      <trkpt lat="45.08536" lon="1.26351">
        <ele>167.2</ele>
        <time>2023-10-28T14:14:43Z</time>
      </trkpt>
      <trkpt lat="45.08536" lon="1.26354">
        <ele>166.9</ele>
        <time>2023-10-28T14:14:44Z</time>
      </trkpt>
      <trkpt lat="45.08537" lon="1.26357">
        <ele>166.6</ele>
        <time>2023-10-28T14:14:45Z</time>
      </trkpt>
      <trkpt lat="45.08538" lon="1.2636">
        <ele>166.3</ele>
        <time>2023-10-28T14:14:46Z</time>
      </trkpt>
      <trkpt lat="45.08538" lon="1.26364">
        <ele>165.9</ele>
        <time>2023-10-28T14:14:47Z</time>
      </trkpt>
      <trkpt lat="45.08539" lon="1.26367">
        <ele>165.6</ele>
        <time>2023-10-28T14:14:48Z</time>
      </trkpt>
      <trkpt lat="45.0854" lon="1.26371">
        <ele>165.3</ele>
        <time>2023-10-28T14:14:49Z</time>
      </trkpt>
      <trkpt lat="45.0854" lon="1.26374">
        <ele>165</ele>
        <time>2023-10-28T14:14:50Z</time>
      </trkpt>
      <trkpt lat="45.0854" lon="1.26378">
        <ele>164.7</ele>
        <time>2023-10-28T14:14:51Z</time>
      </trkpt>
      <trkpt lat="45.08541" lon="1.26381">
        <ele>164.4</ele>
        <time>2023-10-28T14:14:52Z</time>
      </trkpt>
      <trkpt lat="45.08542" lon="1.26384">
        <ele>164.1</ele>
        <time>2023-10-28T14:14:53Z</time>
      </trkpt>
      <trkpt lat="45.08542" lon="1.26388">
        <ele>163.8</ele>
        <time>2023-10-28T14:14:54Z</time>
      </trkpt>
      <trkpt lat="45.08543" lon="1.26391">
        <ele>163.5</ele>
        <time>2023-10-28T14:14:55Z</time>
      </trkpt>
      <trkpt lat="45.08545" lon="1.26394">
        <ele>163.2</ele>
        <time>2023-10-28T14:14:56Z</time>
      </trkpt>
      <trkpt lat="45.08546" lon="1.26397">
        <ele>162.9</ele>
        <time>2023-10-28T14:14:57Z</time>
      </trkpt>
      <trkpt lat="45.08546" lon="1.26401">
        <ele>162.7</ele>
        <time>2023-10-28T14:14:58Z</time>
      </trkpt>
      <trkpt lat="45.08547" lon="1.26404">
        <ele>162.5</ele>
        <time>2023-10-28T14:14:59Z</time>
      </trkpt>
      <trkpt lat="45.08548" lon="1.26407">
        <ele>162.3</ele>
        <time>2023-10-28T14:15:00Z</time>
      </trkpt>
      <trkpt lat="45.0855" lon="1.26411">
        <ele>162.1</ele>
        <time>2023-10-28T14:15:01Z</time>
      </trkpt>
      <trkpt lat="45.0855" lon="1.26414">
        <ele>161.9</ele>
        <time>2023-10-28T14:15:02Z</time>
      </trkpt>
      <trkpt lat="45.08552" lon="1.26418">
        <ele>161.6</ele>
        <time>2023-10-28T14:15:03Z</time>
      </trkpt>
      <trkpt lat="45.08553" lon="1.26421">
        <ele>161.4</ele>
        <time>2023-10-28T14:15:04Z</time>
      </trkpt>
      <trkpt lat="45.08555" lon="1.26425">
        <ele>161.2</ele>
        <time>2023-10-28T14:15:05Z</time>
      </trkpt>
      <trkpt lat="45.08556" lon="1.26428">
        <ele>161.1</ele>
        <time>2023-10-28T14:15:06Z</time>
      </trkpt>
      <trkpt lat="45.08557" lon="1.26431">
        <ele>160.9</ele>
        <time>2023-10-28T14:15:07Z</time>
      </trkpt>
      <trkpt lat="45.08558" lon="1.26434">
        <ele>160.7</ele>
        <time>2023-10-28T14:15:08Z</time>
      </trkpt>
      <trkpt lat="45.08559" lon="1.26436">
        <ele>160.6</ele>
        <time>2023-10-28T14:15:09Z</time>
      </trkpt>
      <trkpt lat="45.08561" lon="1.26439">
        <ele>160.4</ele>
        <time>2023-10-28T14:15:10Z</time>
      </trkpt>
      <trkpt lat="45.08562" lon="1.26442">
        <ele>160.2</ele>
        <time>2023-10-28T14:15:11Z</time>
      </trkpt>
      <trkpt lat="45.08563" lon="1.26445">
        <ele>160.1</ele>
        <time>2023-10-28T14:15:12Z</time>
      </trkpt>
      <trkpt lat="45.08564" lon="1.26447">
        <ele>159.9</ele>
        <time>2023-10-28T14:15:13Z</time>
      </trkpt>
      <trkpt lat="45.08566" lon="1.26449">
        <ele>159.7</ele>
        <time>2023-10-28T14:15:14Z</time>
      </trkpt>
      <trkpt lat="45.08567" lon="1.2645">
        <ele>159.5</ele>
        <time>2023-10-28T14:15:15Z</time>
      </trkpt>
      <trkpt lat="45.08569" lon="1.26452">
        <ele>159.3</ele>
        <time>2023-10-28T14:15:16Z</time>
      </trkpt>
      <trkpt lat="45.08571" lon="1.26453">
        <ele>159</ele>
        <time>2023-10-28T14:15:17Z</time>
      </trkpt>
      <trkpt lat="45.08573" lon="1.26453">
        <ele>158.8</ele>
        <time>2023-10-28T14:15:18Z</time>
      </trkpt>
      <trkpt lat="45.08575" lon="1.26454">
        <ele>158.5</ele>
        <time>2023-10-28T14:15:19Z</time>
      </trkpt>
      <trkpt lat="45.08578" lon="1.26455">
        <ele>158.3</ele>
        <time>2023-10-28T14:15:20Z</time>
      </trkpt>
      <trkpt lat="45.0858" lon="1.26456">
        <ele>158</ele>
        <time>2023-10-28T14:15:21Z</time>
      </trkpt>
      <trkpt lat="45.08582" lon="1.26457">
        <ele>157.6</ele>
        <time>2023-10-28T14:15:22Z</time>
      </trkpt>
      <trkpt lat="45.08585" lon="1.26458">
        <ele>157.3</ele>
        <time>2023-10-28T14:15:23Z</time>
      </trkpt>
      <trkpt lat="45.08587" lon="1.26459">
        <ele>156.9</ele>
        <time>2023-10-28T14:15:24Z</time>
      </trkpt>
      <trkpt lat="45.08589" lon="1.2646">
        <ele>156.6</ele>
        <time>2023-10-28T14:15:25Z</time>
      </trkpt>
      <trkpt lat="45.08592" lon="1.26462">
        <ele>156.2</ele>
        <time>2023-10-28T14:15:26Z</time>
      </trkpt>
      <trkpt lat="45.08593" lon="1.26464">
        <ele>155.9</ele>
        <time>2023-10-28T14:15:27Z</time>
      </trkpt>
      <trkpt lat="45.08596" lon="1.26466">
        <ele>155.5</ele>
        <time>2023-10-28T14:15:28Z</time>
      </trkpt>
      <trkpt lat="45.08598" lon="1.26468">
        <ele>155.1</ele>
        <time>2023-10-28T14:15:29Z</time>
      </trkpt>
      <trkpt lat="45.086" lon="1.2647">
        <ele>154.7</ele>
        <time>2023-10-28T14:15:30Z</time>
      </trkpt>
      <trkpt lat="45.08601" lon="1.26473">
        <ele>154.4</ele>
        <time>2023-10-28T14:15:31Z</time>
      </trkpt>
      <trkpt lat="45.08603" lon="1.26475">
        <ele>154</ele>
        <time>2023-10-28T14:15:32Z</time>
      </trkpt>
      <trkpt lat="45.08604" lon="1.26477">
        <ele>153.7</ele>
        <time>2023-10-28T14:15:33Z</time>
      </trkpt>
      <trkpt lat="45.08606" lon="1.2648">
        <ele>153.3</ele>
        <time>2023-10-28T14:15:34Z</time>
      </trkpt>
      <trkpt lat="45.08607" lon="1.26482">
        <ele>153</ele>
        <time>2023-10-28T14:15:35Z</time>
      </trkpt>
      <trkpt lat="45.08608" lon="1.26484">
        <ele>152.7</ele>
        <time>2023-10-28T14:15:36Z</time>
      </trkpt>
      <trkpt lat="45.0861" lon="1.26486">
        <ele>152.4</ele>
        <time>2023-10-28T14:15:37Z</time>
      </trkpt>
      <trkpt lat="45.08611" lon="1.26488">
        <ele>152.1</ele>
        <time>2023-10-28T14:15:38Z</time>
      </trkpt>
      <trkpt lat="45.08613" lon="1.2649">
        <ele>151.8</ele>
        <time>2023-10-28T14:15:39Z</time>
      </trkpt>
      <trkpt lat="45.08614" lon="1.26492">
        <ele>151.4</ele>
        <time>2023-10-28T14:15:40Z</time>
      </trkpt>
      <trkpt lat="45.08616" lon="1.26495">
        <ele>151.1</ele>
        <time>2023-10-28T14:15:41Z</time>
      </trkpt>
      <trkpt lat="45.08617" lon="1.26497">
        <ele>150.8</ele>
        <time>2023-10-28T14:15:42Z</time>
      </trkpt>
      <trkpt lat="45.08619" lon="1.26499">
        <ele>150.5</ele>
        <time>2023-10-28T14:15:43Z</time>
      </trkpt>
      <trkpt lat="45.08621" lon="1.26502">
        <ele>150.2</ele>
        <time>2023-10-28T14:15:44Z</time>
      </trkpt>
      <trkpt lat="45.08622" lon="1.26505">
        <ele>149.8</ele>
        <time>2023-10-28T14:15:45Z</time>
      </trkpt>
      <trkpt lat="45.08623" lon="1.26507">
        <ele>149.5</ele>
        <time>2023-10-28T14:15:46Z</time>
      </trkpt>
      <trkpt lat="45.08624" lon="1.2651">
        <ele>149.2</ele>
        <time>2023-10-28T14:15:47Z</time>
      </trkpt>
      <trkpt lat="45.08625" lon="1.26513">
        <ele>148.9</ele>
        <time>2023-10-28T14:15:48Z</time>
      </trkpt>
      <trkpt lat="45.08627" lon="1.26516">
        <ele>148.6</ele>
        <time>2023-10-28T14:15:49Z</time>
      </trkpt>
      <trkpt lat="45.08628" lon="1.26519">
        <ele>148.3</ele>
        <time>2023-10-28T14:15:50Z</time>
      </trkpt>
      <trkpt lat="45.08629" lon="1.26521">
        <ele>148</ele>
        <time>2023-10-28T14:15:51Z</time>
      </trkpt>
      <trkpt lat="45.0863" lon="1.26524">
        <ele>147.7</ele>
        <time>2023-10-28T14:15:52Z</time>
      </trkpt>
      <trkpt lat="45.08631" lon="1.26527">
        <ele>147.4</ele>
        <time>2023-10-28T14:15:53Z</time>
      </trkpt>
      <trkpt lat="45.08633" lon="1.2653">
        <ele>147.1</ele>
        <time>2023-10-28T14:15:54Z</time>
      </trkpt>
      <trkpt lat="45.08634" lon="1.26533">
        <ele>146.8</ele>
        <time>2023-10-28T14:15:55Z</time>
      </trkpt>
      <trkpt lat="45.08635" lon="1.26535">
        <ele>146.6</ele>
        <time>2023-10-28T14:15:56Z</time>
      </trkpt>
      <trkpt lat="45.08636" lon="1.26538">
        <ele>146.3</ele>
        <time>2023-10-28T14:15:57Z</time>
      </trkpt>
      <trkpt lat="45.08637" lon="1.26542">
        <ele>146</ele>
        <time>2023-10-28T14:15:58Z</time>
      </trkpt>
      <trkpt lat="45.08638" lon="1.26545">
        <ele>145.7</ele>
        <time>2023-10-28T14:15:59Z</time>
      </trkpt>
      <trkpt lat="45.08639" lon="1.26548">
        <ele>145.5</ele>
        <time>2023-10-28T14:16:00Z</time>
      </trkpt>
      <trkpt lat="45.0864" lon="1.26551">
        <ele>145.2</ele>
        <time>2023-10-28T14:16:01Z</time>
      </trkpt>
      <trkpt lat="45.08641" lon="1.26554">
        <ele>144.9</ele>
        <time>2023-10-28T14:16:02Z</time>
      </trkpt>
      <trkpt lat="45.08641" lon="1.26558">
        <ele>144.7</ele>
        <time>2023-10-28T14:16:03Z</time>
      </trkpt>
      <trkpt lat="45.08642" lon="1.26561">
        <ele>144.4</ele>
        <time>2023-10-28T14:16:04Z</time>
      </trkpt>
      <trkpt lat="45.08643" lon="1.26564">
        <ele>144.1</ele>
        <time>2023-10-28T14:16:05Z</time>
      </trkpt>
      <trkpt lat="45.08643" lon="1.26567">
        <ele>143.8</ele>
        <time>2023-10-28T14:16:06Z</time>
      </trkpt>
      <trkpt lat="45.08644" lon="1.26571">
        <ele>143.6</ele>
        <time>2023-10-28T14:16:07Z</time>
      </trkpt>
      <trkpt lat="45.08645" lon="1.26574">
        <ele>143.3</ele>
        <time>2023-10-28T14:16:08Z</time>
      </trkpt>
      <trkpt lat="45.08645" lon="1.26577">
        <ele>143</ele>
        <time>2023-10-28T14:16:09Z</time>
      </trkpt>
      <trkpt lat="45.08646" lon="1.26581">
        <ele>142.7</ele>
        <time>2023-10-28T14:16:10Z</time>
      </trkpt>
      <trkpt lat="45.08647" lon="1.26584">
        <ele>142.4</ele>
        <time>2023-10-28T14:16:11Z</time>
      </trkpt>
      <trkpt lat="45.08648" lon="1.26587">
        <ele>142.1</ele>
        <time>2023-10-28T14:16:12Z</time>
      </trkpt>
      <trkpt lat="45.08649" lon="1.26591">
        <ele>141.9</ele>
        <time>2023-10-28T14:16:13Z</time>
      </trkpt>
      <trkpt lat="45.08649" lon="1.26594">
        <ele>141.6</ele>
        <time>2023-10-28T14:16:14Z</time>
      </trkpt>
      <trkpt lat="45.0865" lon="1.26597">
        <ele>141.3</ele>
        <time>2023-10-28T14:16:15Z</time>
      </trkpt>
      <trkpt lat="45.08651" lon="1.266">
        <ele>141.1</ele>
        <time>2023-10-28T14:16:16Z</time>
      </trkpt>
      <trkpt lat="45.08651" lon="1.26603">
        <ele>140.8</ele>
        <time>2023-10-28T14:16:17Z</time>
      </trkpt>
      <trkpt lat="45.08652" lon="1.26606">
        <ele>140.5</ele>
        <time>2023-10-28T14:16:18Z</time>
      </trkpt>
      <trkpt lat="45.08653" lon="1.26609">
        <ele>140.2</ele>
        <time>2023-10-28T14:16:19Z</time>
      </trkpt>
      <trkpt lat="45.08653" lon="1.26612">
        <ele>139.9</ele>
        <time>2023-10-28T14:16:20Z</time>
      </trkpt>
      <trkpt lat="45.08653" lon="1.26615">
        <ele>139.6</ele>
        <time>2023-10-28T14:16:21Z</time>
      </trkpt>
      <trkpt lat="45.08653" lon="1.26618">
        <ele>139.3</ele>
        <time>2023-10-28T14:16:22Z</time>
      </trkpt>
      <trkpt lat="45.08653" lon="1.26621">
        <ele>139</ele>
        <time>2023-10-28T14:16:23Z</time>
      </trkpt>
      <trkpt lat="45.08652" lon="1.26625">
        <ele>138.6</ele>
        <time>2023-10-28T14:16:24Z</time>
      </trkpt>
      <trkpt lat="45.08652" lon="1.26628">
        <ele>138.3</ele>
        <time>2023-10-28T14:16:25Z</time>
      </trkpt>
      <trkpt lat="45.08652" lon="1.26631">
        <ele>138</ele>
        <time>2023-10-28T14:16:26Z</time>
      </trkpt>
      <trkpt lat="45.08652" lon="1.26634">
        <ele>137.6</ele>
        <time>2023-10-28T14:16:27Z</time>
      </trkpt>
      <trkpt lat="45.08652" lon="1.26637">
        <ele>137.3</ele>
        <time>2023-10-28T14:16:28Z</time>
      </trkpt>
      <trkpt lat="45.08652" lon="1.26641">
        <ele>137</ele>
        <time>2023-10-28T14:16:29Z</time>
      </trkpt>
      <trkpt lat="45.08652" lon="1.26644">
        <ele>136.7</ele>
        <time>2023-10-28T14:16:30Z</time>
      </trkpt>
      <trkpt lat="45.08652" lon="1.26648">
        <ele>136.3</ele>
        <time>2023-10-28T14:16:31Z</time>
      </trkpt>
      <trkpt lat="45.08651" lon="1.26651">
        <ele>136</ele>
        <time>2023-10-28T14:16:32Z</time>
      </trkpt>
      <trkpt lat="45.08651" lon="1.26654">
        <ele>135.7</ele>
        <time>2023-10-28T14:16:33Z</time>
      </trkpt>
      <trkpt lat="45.08651" lon="1.26657">
        <ele>135.4</ele>
        <time>2023-10-28T14:16:34Z</time>
      </trkpt>
      <trkpt lat="45.0865" lon="1.2666">
        <ele>135.1</ele>
        <time>2023-10-28T14:16:35Z</time>
      </trkpt>
      <trkpt lat="45.0865" lon="1.26664">
        <ele>134.7</ele>
        <time>2023-10-28T14:16:36Z</time>
      </trkpt>
      <trkpt lat="45.0865" lon="1.26667">
        <ele>134.4</ele>
        <time>2023-10-28T14:16:37Z</time>
      </trkpt>
      <trkpt lat="45.08649" lon="1.2667">
        <ele>134.1</ele>
        <time>2023-10-28T14:16:38Z</time>
      </trkpt>
      <trkpt lat="45.08649" lon="1.26674">
        <ele>133.8</ele>
        <time>2023-10-28T14:16:39Z</time>
      </trkpt>
      <trkpt lat="45.08649" lon="1.26677">
        <ele>133.4</ele>
        <time>2023-10-28T14:16:40Z</time>
      </trkpt>
      <trkpt lat="45.08648" lon="1.2668">
        <ele>133.1</ele>
        <time>2023-10-28T14:16:41Z</time>
      </trkpt>
      <trkpt lat="45.08647" lon="1.26683">
        <ele>132.8</ele>
        <time>2023-10-28T14:16:42Z</time>
      </trkpt>
      <trkpt lat="45.08646" lon="1.26686">
        <ele>132.5</ele>
        <time>2023-10-28T14:16:43Z</time>
      </trkpt>
      <trkpt lat="45.08645" lon="1.26689">
        <ele>132.2</ele>
        <time>2023-10-28T14:16:44Z</time>
      </trkpt>
      <trkpt lat="45.08644" lon="1.26692">
        <ele>131.9</ele>
        <time>2023-10-28T14:16:45Z</time>
      </trkpt>
      <trkpt lat="45.08643" lon="1.26695">
        <ele>131.6</ele>
        <time>2023-10-28T14:16:46Z</time>
      </trkpt>
      <trkpt lat="45.08642" lon="1.26698">
        <ele>131.3</ele>
        <time>2023-10-28T14:16:47Z</time>
      </trkpt>
      <trkpt lat="45.08641" lon="1.26701">
        <ele>131</ele>
        <time>2023-10-28T14:16:48Z</time>
      </trkpt>
      <trkpt lat="45.0864" lon="1.26704">
        <ele>130.7</ele>
        <time>2023-10-28T14:16:49Z</time>
      </trkpt>
      <trkpt lat="45.08639" lon="1.26707">
        <ele>130.4</ele>
        <time>2023-10-28T14:16:50Z</time>
      </trkpt>
      <trkpt lat="45.08638" lon="1.26709">
        <ele>130.1</ele>
        <time>2023-10-28T14:16:51Z</time>
      </trkpt>
      <trkpt lat="45.08637" lon="1.26712">
        <ele>130</ele>
        <time>2023-10-28T14:16:52Z</time>
      </trkpt>
      <trkpt lat="45.08635" lon="1.26714">
        <ele>129.8</ele>
        <time>2023-10-28T14:16:53Z</time>
      </trkpt>
      <trkpt lat="45.08633" lon="1.26716">
        <ele>129.6</ele>
        <time>2023-10-28T14:16:54Z</time>
      </trkpt>
      <trkpt lat="45.08632" lon="1.26717">
        <ele>129.6</ele>
        <time>2023-10-28T14:16:55Z</time>
      </trkpt>
      <trkpt lat="45.0863" lon="1.26718">
        <ele>129.5</ele>
        <time>2023-10-28T14:16:56Z</time>
      </trkpt>
      <trkpt lat="45.08629" lon="1.26719">
        <ele>129.4</ele>
        <time>2023-10-28T14:16:57Z</time>
      </trkpt>
      <trkpt lat="45.08629" lon="1.26719">
        <ele>129.4</ele>
        <time>2023-10-28T14:16:58Z</time>
      </trkpt>
      <trkpt lat="45.08628" lon="1.2672">
        <ele>129.3</ele>
        <time>2023-10-28T14:16:59Z</time>
      </trkpt>
      <trkpt lat="45.08627" lon="1.2672">
        <ele>129.3</ele>
        <time>2023-10-28T14:17:00Z</time>
      </trkpt>
      <trkpt lat="45.08627" lon="1.2672">
        <ele>129.2</ele>
        <time>2023-10-28T14:17:01Z</time>
      </trkpt>
      <trkpt lat="45.08626" lon="1.26721">
        <ele>129.2</ele>
        <time>2023-10-28T14:17:02Z</time>
      </trkpt>
      <trkpt lat="45.08625" lon="1.26722">
        <ele>129.1</ele>
        <time>2023-10-28T14:17:03Z</time>
      </trkpt>
      <trkpt lat="45.08624" lon="1.26723">
        <ele>129.1</ele>
        <time>2023-10-28T14:17:04Z</time>
      </trkpt>
      <trkpt lat="45.08622" lon="1.26725">
        <ele>129</ele>
        <time>2023-10-28T14:17:05Z</time>
      </trkpt>
      <trkpt lat="45.08621" lon="1.26727">
        <ele>128.9</ele>
        <time>2023-10-28T14:17:06Z</time>
      </trkpt>
      <trkpt lat="45.08619" lon="1.26729">
        <ele>128.8</ele>
        <time>2023-10-28T14:17:07Z</time>
      </trkpt>
      <trkpt lat="45.08617" lon="1.26731">
        <ele>128.7</ele>
        <time>2023-10-28T14:17:08Z</time>
      </trkpt>
      <trkpt lat="45.08614" lon="1.26733">
        <ele>128.6</ele>
        <time>2023-10-28T14:17:09Z</time>
      </trkpt>
      <trkpt lat="45.08612" lon="1.26735">
        <ele>128.5</ele>
        <time>2023-10-28T14:17:10Z</time>
      </trkpt>
      <trkpt lat="45.08611" lon="1.26738">
        <ele>128.3</ele>
        <time>2023-10-28T14:17:11Z</time>
      </trkpt>
      <trkpt lat="45.08608" lon="1.2674">
        <ele>128.2</ele>
        <time>2023-10-28T14:17:12Z</time>
      </trkpt>
      <trkpt lat="45.08606" lon="1.26742">
        <ele>128</ele>
        <time>2023-10-28T14:17:13Z</time>
      </trkpt>
      <trkpt lat="45.08605" lon="1.26744">
        <ele>127.9</ele>
        <time>2023-10-28T14:17:14Z</time>
      </trkpt>
      <trkpt lat="45.08603" lon="1.26747">
        <ele>127.7</ele>
        <time>2023-10-28T14:17:15Z</time>
      </trkpt>
      <trkpt lat="45.08601" lon="1.26749">
        <ele>127.5</ele>
        <time>2023-10-28T14:17:16Z</time>
      </trkpt>
      <trkpt lat="45.086" lon="1.26752">
        <ele>127.3</ele>
        <time>2023-10-28T14:17:17Z</time>
      </trkpt>
      <trkpt lat="45.08599" lon="1.26755">
        <ele>127</ele>
        <time>2023-10-28T14:17:18Z</time>
      </trkpt>
      <trkpt lat="45.08598" lon="1.26758">
        <ele>126.8</ele>
        <time>2023-10-28T14:17:19Z</time>
      </trkpt>
      <trkpt lat="45.08598" lon="1.26761">
        <ele>126.5</ele>
        <time>2023-10-28T14:17:20Z</time>
      </trkpt>
      <trkpt lat="45.08597" lon="1.26764">
        <ele>126.2</ele>
        <time>2023-10-28T14:17:21Z</time>
      </trkpt>
      <trkpt lat="45.08596" lon="1.26767">
        <ele>125.8</ele>
        <time>2023-10-28T14:17:22Z</time>
      </trkpt>
      <trkpt lat="45.08596" lon="1.26771">
        <ele>125.4</ele>
        <time>2023-10-28T14:17:23Z</time>
      </trkpt>
      <trkpt lat="45.08595" lon="1.26773">
        <ele>125.1</ele>
        <time>2023-10-28T14:17:24Z</time>
      </trkpt>
      <trkpt lat="45.08595" lon="1.26776">
        <ele>124.7</ele>
        <time>2023-10-28T14:17:25Z</time>
      </trkpt>
      <trkpt lat="45.08594" lon="1.26779">
        <ele>124.3</ele>
        <time>2023-10-28T14:17:26Z</time>
      </trkpt>
      <trkpt lat="45.08593" lon="1.26781">
        <ele>124</ele>
        <time>2023-10-28T14:17:27Z</time>
      </trkpt>
      <trkpt lat="45.08593" lon="1.26784">
        <ele>122.5</ele>
        <time>2023-10-28T14:17:28Z</time>
      </trkpt>
      <trkpt lat="45.08593" lon="1.26786">
        <ele>122.1</ele>
        <time>2023-10-28T14:17:29Z</time>
      </trkpt>
      <trkpt lat="45.08593" lon="1.26789">
        <ele>121.8</ele>
        <time>2023-10-28T14:17:30Z</time>
      </trkpt>
      <trkpt lat="45.08594" lon="1.26791">
        <ele>121.4</ele>
        <time>2023-10-28T14:17:31Z</time>
      </trkpt>
      <trkpt lat="45.08595" lon="1.26793">
        <ele>121.1</ele>
        <time>2023-10-28T14:17:32Z</time>
      </trkpt>
      <trkpt lat="45.08596" lon="1.26795">
        <ele>120.7</ele>
        <time>2023-10-28T14:17:33Z</time>
      </trkpt>
      <trkpt lat="45.08596" lon="1.26797">
        <ele>119.7</ele>
        <time>2023-10-28T14:17:34Z</time>
      </trkpt>
      <trkpt lat="45.08597" lon="1.268">
        <ele>119.5</ele>
        <time>2023-10-28T14:17:35Z</time>
      </trkpt>
      <trkpt lat="45.08597" lon="1.26802">
        <ele>119.3</ele>
        <time>2023-10-28T14:17:36Z</time>
      </trkpt>
      <trkpt lat="45.08596" lon="1.26804">
        <ele>119</ele>
        <time>2023-10-28T14:17:37Z</time>
      </trkpt>
      <trkpt lat="45.08595" lon="1.26806">
        <ele>118.8</ele>
        <time>2023-10-28T14:17:38Z</time>
      </trkpt>
      <trkpt lat="45.08594" lon="1.26808">
        <ele>118.6</ele>
        <time>2023-10-28T14:17:39Z</time>
      </trkpt>
      <trkpt lat="45.08592" lon="1.2681">
        <ele>118.3</ele>
        <time>2023-10-28T14:17:40Z</time>
      </trkpt>
      <trkpt lat="45.0859" lon="1.26811">
        <ele>118.1</ele>
        <time>2023-10-28T14:17:41Z</time>
      </trkpt>
      <trkpt lat="45.08588" lon="1.26813">
        <ele>117.8</ele>
        <time>2023-10-28T14:17:42Z</time>
      </trkpt>
      <trkpt lat="45.08586" lon="1.26814">
        <ele>117.5</ele>
        <time>2023-10-28T14:17:43Z</time>
      </trkpt>
      <trkpt lat="45.08584" lon="1.26815">
        <ele>117.3</ele>
        <time>2023-10-28T14:17:44Z</time>
      </trkpt>
      <trkpt lat="45.08582" lon="1.26816">
        <ele>117.1</ele>
        <time>2023-10-28T14:17:45Z</time>
      </trkpt>
      <trkpt lat="45.08581" lon="1.26817">
        <ele>116.9</ele>
        <time>2023-10-28T14:17:46Z</time>
      </trkpt>
      <trkpt lat="45.0858" lon="1.26819">
        <ele>115.6</ele>
        <time>2023-10-28T14:17:47Z</time>
      </trkpt>
      <trkpt lat="45.0858" lon="1.26821">
        <ele>115.5</ele>
        <time>2023-10-28T14:17:48Z</time>
      </trkpt>
      <trkpt lat="45.0858" lon="1.26823">
        <ele>115.5</ele>
        <time>2023-10-28T14:17:49Z</time>
      </trkpt>
      <trkpt lat="45.08582" lon="1.26825">
        <ele>115.4</ele>
        <time>2023-10-28T14:17:50Z</time>
      </trkpt>
      <trkpt lat="45.08583" lon="1.26826">
        <ele>115.3</ele>
        <time>2023-10-28T14:17:51Z</time>
      </trkpt>
      <trkpt lat="45.08585" lon="1.26828">
        <ele>115.2</ele>
        <time>2023-10-28T14:17:52Z</time>
      </trkpt>
      <trkpt lat="45.08587" lon="1.2683">
        <ele>115.1</ele>
        <time>2023-10-28T14:17:53Z</time>
      </trkpt>
      <trkpt lat="45.08589" lon="1.26831">
        <ele>115</ele>
        <time>2023-10-28T14:17:54Z</time>
      </trkpt>
      <trkpt lat="45.08591" lon="1.26833">
        <ele>114.9</ele>
        <time>2023-10-28T14:17:55Z</time>
      </trkpt>
      <trkpt lat="45.08593" lon="1.26834">
        <ele>114.8</ele>
        <time>2023-10-28T14:17:56Z</time>
      </trkpt>
      <trkpt lat="45.08595" lon="1.26835">
        <ele>114.8</ele>
        <time>2023-10-28T14:17:57Z</time>
      </trkpt>
      <trkpt lat="45.08597" lon="1.26836">
        <ele>114.8</ele>
        <time>2023-10-28T14:17:58Z</time>
      </trkpt>
      <trkpt lat="45.08598" lon="1.26837">
        <ele>114.8</ele>
        <time>2023-10-28T14:17:59Z</time>
      </trkpt>
      <trkpt lat="45.086" lon="1.26839">
        <ele>114.8</ele>
        <time>2023-10-28T14:18:00Z</time>
      </trkpt>
      <trkpt lat="45.08602" lon="1.2684">
        <ele>114.7</ele>
        <time>2023-10-28T14:18:01Z</time>
      </trkpt>
      <trkpt lat="45.08604" lon="1.26842">
        <ele>114.7</ele>
        <time>2023-10-28T14:18:02Z</time>
      </trkpt>
      <trkpt lat="45.08605" lon="1.26843">
        <ele>114.6</ele>
        <time>2023-10-28T14:18:03Z</time>
      </trkpt>
      <trkpt lat="45.08607" lon="1.26845">
        <ele>114.6</ele>
        <time>2023-10-28T14:18:04Z</time>
      </trkpt>
      <trkpt lat="45.08609" lon="1.26847">
        <ele>114.5</ele>
        <time>2023-10-28T14:18:05Z</time>
      </trkpt>
      <trkpt lat="45.08611" lon="1.26849">
        <ele>114.5</ele>
        <time>2023-10-28T14:18:06Z</time>
      </trkpt>
      <trkpt lat="45.08613" lon="1.26851">
        <ele>114.5</ele>
        <time>2023-10-28T14:18:07Z</time>
      </trkpt>
      <trkpt lat="45.08615" lon="1.26852">
        <ele>114.4</ele>
        <time>2023-10-28T14:18:08Z</time>
      </trkpt>
      <trkpt lat="45.08617" lon="1.26854">
        <ele>114.4</ele>
        <time>2023-10-28T14:18:09Z</time>
      </trkpt>
      <trkpt lat="45.08619" lon="1.26855">
        <ele>114.4</ele>
        <time>2023-10-28T14:18:10Z</time>
      </trkpt>
      <trkpt lat="45.08622" lon="1.26857">
        <ele>114.3</ele>
        <time>2023-10-28T14:18:11Z</time>
      </trkpt>
      <trkpt lat="45.08624" lon="1.26858">
        <ele>114.3</ele>
        <time>2023-10-28T14:18:12Z</time>
      </trkpt>
      <trkpt lat="45.08626" lon="1.2686">
        <ele>114.3</ele>
        <time>2023-10-28T14:18:13Z</time>
      </trkpt>
      <trkpt lat="45.08628" lon="1.26861">
        <ele>114.3</ele>
        <time>2023-10-28T14:18:14Z</time>
      </trkpt>
      <trkpt lat="45.0863" lon="1.26862">
        <ele>114.3</ele>
        <time>2023-10-28T14:18:15Z</time>
      </trkpt>
      <trkpt lat="45.08632" lon="1.26864">
        <ele>114.2</ele>
        <time>2023-10-28T14:18:16Z</time>
      </trkpt>
      <trkpt lat="45.08635" lon="1.26865">
        <ele>114.2</ele>
        <time>2023-10-28T14:18:17Z</time>
      </trkpt>
      <trkpt lat="45.08637" lon="1.26867">
        <ele>114.2</ele>
        <time>2023-10-28T14:18:18Z</time>
      </trkpt>
      <trkpt lat="45.08639" lon="1.26868">
        <ele>114.2</ele>
        <time>2023-10-28T14:18:19Z</time>
      </trkpt>
      <trkpt lat="45.08641" lon="1.26869">
        <ele>114.2</ele>
        <time>2023-10-28T14:18:20Z</time>
      </trkpt>
      <trkpt lat="45.08643" lon="1.26871">
        <ele>114.2</ele>
        <time>2023-10-28T14:18:21Z</time>
      </trkpt>
      <trkpt lat="45.08645" lon="1.26872">
        <ele>114.2</ele>
        <time>2023-10-28T14:18:22Z</time>
      </trkpt>
      <trkpt lat="45.08647" lon="1.26874">
        <ele>114.2</ele>
        <time>2023-10-28T14:18:23Z</time>
      </trkpt>
      <trkpt lat="45.08649" lon="1.26875">
        <ele>114.1</ele>
        <time>2023-10-28T14:18:24Z</time>
      </trkpt>
      <trkpt lat="45.08651" lon="1.26876">
        <ele>114.1</ele>
        <time>2023-10-28T14:18:25Z</time>
      </trkpt>
      <trkpt lat="45.08652" lon="1.26877">
        <ele>114.1</ele>
        <time>2023-10-28T14:18:26Z</time>
      </trkpt>
      <trkpt lat="45.08654" lon="1.26878">
        <ele>114.1</ele>
        <time>2023-10-28T14:18:27Z</time>
      </trkpt>
      <trkpt lat="45.08656" lon="1.2688">
        <ele>114.1</ele>
        <time>2023-10-28T14:18:28Z</time>
      </trkpt>
      <trkpt lat="45.08658" lon="1.26881">
        <ele>114.1</ele>
        <time>2023-10-28T14:18:29Z</time>
      </trkpt>
      <trkpt lat="45.0866" lon="1.26882">
        <ele>114.1</ele>
        <time>2023-10-28T14:18:30Z</time>
      </trkpt>
      <trkpt lat="45.08662" lon="1.26884">
        <ele>114.1</ele>
        <time>2023-10-28T14:18:31Z</time>
      </trkpt>
      <trkpt lat="45.08664" lon="1.26885">
        <ele>114</ele>
        <time>2023-10-28T14:18:32Z</time>
      </trkpt>
      <trkpt lat="45.08667" lon="1.26887">
        <ele>114</ele>
        <time>2023-10-28T14:18:33Z</time>
      </trkpt>
      <trkpt lat="45.08669" lon="1.26888">
        <ele>114</ele>
        <time>2023-10-28T14:18:34Z</time>
      </trkpt>
      <trkpt lat="45.08671" lon="1.26889">
        <ele>114</ele>
        <time>2023-10-28T14:18:35Z</time>
      </trkpt>
      <trkpt lat="45.08673" lon="1.26891">
        <ele>114</ele>
        <time>2023-10-28T14:18:36Z</time>
      </trkpt>
      <trkpt lat="45.08675" lon="1.26892">
        <ele>114</ele>
        <time>2023-10-28T14:18:37Z</time>
      </trkpt>
      <trkpt lat="45.08678" lon="1.26894">
        <ele>114</ele>
        <time>2023-10-28T14:18:38Z</time>
      </trkpt>
      <trkpt lat="45.0868" lon="1.26895">
        <ele>114</ele>
        <time>2023-10-28T14:18:39Z</time>
      </trkpt>
      <trkpt lat="45.08682" lon="1.26897">
        <ele>114</ele>
        <time>2023-10-28T14:18:40Z</time>
      </trkpt>
      <trkpt lat="45.08684" lon="1.26898">
        <ele>114</ele>
        <time>2023-10-28T14:18:41Z</time>
      </trkpt>
      <trkpt lat="45.08687" lon="1.269">
        <ele>114</ele>
        <time>2023-10-28T14:18:42Z</time>
      </trkpt>
      <trkpt lat="45.08688" lon="1.26901">
        <ele>114</ele>
        <time>2023-10-28T14:18:43Z</time>
      </trkpt>
      <trkpt lat="45.08691" lon="1.26903">
        <ele>114</ele>
        <time>2023-10-28T14:18:44Z</time>
      </trkpt>
      <trkpt lat="45.08693" lon="1.26904">
        <ele>114</ele>
        <time>2023-10-28T14:18:45Z</time>
      </trkpt>
      <trkpt lat="45.08695" lon="1.26905">
        <ele>114</ele>
        <time>2023-10-28T14:18:46Z</time>
      </trkpt>
      <trkpt lat="45.08697" lon="1.26907">
        <ele>114</ele>
        <time>2023-10-28T14:18:47Z</time>
      </trkpt>
      <trkpt lat="45.08699" lon="1.26908">
        <ele>114</ele>
        <time>2023-10-28T14:18:48Z</time>
      </trkpt>
      <trkpt lat="45.08702" lon="1.2691">
        <ele>114</ele>
        <time>2023-10-28T14:18:49Z</time>
      </trkpt>
      <trkpt lat="45.08704" lon="1.26911">
        <ele>114.1</ele>
        <time>2023-10-28T14:18:50Z</time>
      </trkpt>
      <trkpt lat="45.08706" lon="1.26912">
        <ele>114.1</ele>
        <time>2023-10-28T14:18:51Z</time>
      </trkpt>
      <trkpt lat="45.08708" lon="1.26914">
        <ele>114.1</ele>
        <time>2023-10-28T14:18:52Z</time>
      </trkpt>
      <trkpt lat="45.0871" lon="1.26915">
        <ele>114.1</ele>
        <time>2023-10-28T14:18:53Z</time>
      </trkpt>
      <trkpt lat="45.08712" lon="1.26917">
        <ele>114.1</ele>
        <time>2023-10-28T14:18:54Z</time>
      </trkpt>
      <trkpt lat="45.08714" lon="1.26919">
        <ele>114.1</ele>
        <time>2023-10-28T14:18:55Z</time>
      </trkpt>
      <trkpt lat="45.08717" lon="1.26921">
        <ele>114.1</ele>
        <time>2023-10-28T14:18:56Z</time>
      </trkpt>
      <trkpt lat="45.08719" lon="1.26923">
        <ele>114.1</ele>
        <time>2023-10-28T14:18:57Z</time>
      </trkpt>
      <trkpt lat="45.0872" lon="1.26925">
        <ele>114.1</ele>
        <time>2023-10-28T14:18:58Z</time>
      </trkpt>
      <trkpt lat="45.08722" lon="1.26927">
        <ele>114.1</ele>
        <time>2023-10-28T14:18:59Z</time>
      </trkpt>
      <trkpt lat="45.08724" lon="1.26929">
        <ele>114.1</ele>
        <time>2023-10-28T14:19:00Z</time>
      </trkpt>
      <trkpt lat="45.08725" lon="1.2693">
        <ele>114.1</ele>
        <time>2023-10-28T14:19:01Z</time>
      </trkpt>
      <trkpt lat="45.08727" lon="1.26932">
        <ele>114.1</ele>
        <time>2023-10-28T14:19:02Z</time>
      </trkpt>
      <trkpt lat="45.08728" lon="1.26933">
        <ele>114.1</ele>
        <time>2023-10-28T14:19:03Z</time>
      </trkpt>
      <trkpt lat="45.08729" lon="1.26935">
        <ele>114.1</ele>
        <time>2023-10-28T14:19:04Z</time>
      </trkpt>
      <trkpt lat="45.0873" lon="1.26936">
        <ele>114.1</ele>
        <time>2023-10-28T14:19:05Z</time>
      </trkpt>
      <trkpt lat="45.08732" lon="1.26938">
        <ele>114.1</ele>
        <time>2023-10-28T14:19:06Z</time>
      </trkpt>
      <trkpt lat="45.08733" lon="1.2694">
        <ele>114.1</ele>
        <time>2023-10-28T14:19:07Z</time>
      </trkpt>
      <trkpt lat="45.08734" lon="1.26942">
        <ele>114</ele>
        <time>2023-10-28T14:19:08Z</time>
      </trkpt>
      <trkpt lat="45.08736" lon="1.26945">
        <ele>114</ele>
        <time>2023-10-28T14:19:09Z</time>
      </trkpt>
      <trkpt lat="45.08738" lon="1.26947">
        <ele>114</ele>
        <time>2023-10-28T14:19:10Z</time>
      </trkpt>
      <trkpt lat="45.08739" lon="1.2695">
        <ele>114</ele>
        <time>2023-10-28T14:19:11Z</time>
      </trkpt>
      <trkpt lat="45.08741" lon="1.26953">
        <ele>114</ele>
        <time>2023-10-28T14:19:12Z</time>
      </trkpt>
      <trkpt lat="45.08742" lon="1.26955">
        <ele>114</ele>
        <time>2023-10-28T14:19:13Z</time>
      </trkpt>
      <trkpt lat="45.08744" lon="1.26958">
        <ele>113.9</ele>
        <time>2023-10-28T14:19:14Z</time>
      </trkpt>
      <trkpt lat="45.08745" lon="1.26961">
        <ele>113.9</ele>
        <time>2023-10-28T14:19:15Z</time>
      </trkpt>
      <trkpt lat="45.08747" lon="1.26963">
        <ele>113.9</ele>
        <time>2023-10-28T14:19:16Z</time>
      </trkpt>
      <trkpt lat="45.08749" lon="1.26966">
        <ele>113.9</ele>
        <time>2023-10-28T14:19:17Z</time>
      </trkpt>
      <trkpt lat="45.0875" lon="1.26969">
        <ele>113.9</ele>
        <time>2023-10-28T14:19:18Z</time>
      </trkpt>
      <trkpt lat="45.08752" lon="1.26971">
        <ele>113.8</ele>
        <time>2023-10-28T14:19:19Z</time>
      </trkpt>
      <trkpt lat="45.08754" lon="1.26974">
        <ele>113.8</ele>
        <time>2023-10-28T14:19:20Z</time>
      </trkpt>
      <trkpt lat="45.08755" lon="1.26976">
        <ele>113.8</ele>
        <time>2023-10-28T14:19:21Z</time>
      </trkpt>
      <trkpt lat="45.08757" lon="1.26979">
        <ele>113.8</ele>
        <time>2023-10-28T14:19:22Z</time>
      </trkpt>
      <trkpt lat="45.08759" lon="1.26981">
        <ele>113.8</ele>
        <time>2023-10-28T14:19:23Z</time>
      </trkpt>
      <trkpt lat="45.0876" lon="1.26984">
        <ele>113.8</ele>
        <time>2023-10-28T14:19:24Z</time>
      </trkpt>
      <trkpt lat="45.08762" lon="1.26986">
        <ele>113.7</ele>
        <time>2023-10-28T14:19:25Z</time>
      </trkpt>
      <trkpt lat="45.08764" lon="1.26989">
        <ele>113.7</ele>
        <time>2023-10-28T14:19:26Z</time>
      </trkpt>
      <trkpt lat="45.08765" lon="1.26991">
        <ele>113.7</ele>
        <time>2023-10-28T14:19:27Z</time>
      </trkpt>
      <trkpt lat="45.08767" lon="1.26994">
        <ele>113.7</ele>
        <time>2023-10-28T14:19:28Z</time>
      </trkpt>
      <trkpt lat="45.08769" lon="1.26996">
        <ele>113.7</ele>
        <time>2023-10-28T14:19:29Z</time>
      </trkpt>
      <trkpt lat="45.08771" lon="1.26999">
        <ele>113.7</ele>
        <time>2023-10-28T14:19:30Z</time>
      </trkpt>
      <trkpt lat="45.08773" lon="1.27002">
        <ele>113.7</ele>
        <time>2023-10-28T14:19:31Z</time>
      </trkpt>
      <trkpt lat="45.08774" lon="1.27005">
        <ele>113.7</ele>
        <time>2023-10-28T14:19:32Z</time>
      </trkpt>
      <trkpt lat="45.08776" lon="1.27007">
        <ele>113.6</ele>
        <time>2023-10-28T14:19:33Z</time>
      </trkpt>
      <trkpt lat="45.08778" lon="1.2701">
        <ele>113.6</ele>
        <time>2023-10-28T14:19:34Z</time>
      </trkpt>
      <trkpt lat="45.08779" lon="1.27013">
        <ele>113.6</ele>
        <time>2023-10-28T14:19:35Z</time>
      </trkpt>
      <trkpt lat="45.08781" lon="1.27015">
        <ele>113.6</ele>
        <time>2023-10-28T14:19:36Z</time>
      </trkpt>
      <trkpt lat="45.08783" lon="1.27018">
        <ele>113.6</ele>
        <time>2023-10-28T14:19:37Z</time>
      </trkpt>
      <trkpt lat="45.08784" lon="1.27021">
        <ele>113.6</ele>
        <time>2023-10-28T14:19:38Z</time>
      </trkpt>
      <trkpt lat="45.08786" lon="1.27023">
        <ele>113.6</ele>
        <time>2023-10-28T14:19:39Z</time>
      </trkpt>
      <trkpt lat="45.08788" lon="1.27026">
        <ele>113.6</ele>
        <time>2023-10-28T14:19:40Z</time>
      </trkpt>
      <trkpt lat="45.08789" lon="1.27029">
        <ele>113.6</ele>
        <time>2023-10-28T14:19:41Z</time>
      </trkpt>
      <trkpt lat="45.08791" lon="1.27031">
        <ele>113.6</ele>
        <time>2023-10-28T14:19:42Z</time>
      </trkpt>
      <trkpt lat="45.08792" lon="1.27034">
        <ele>113.6</ele>
        <time>2023-10-28T14:19:43Z</time>
      </trkpt>
      <trkpt lat="45.08794" lon="1.27037">
        <ele>113.6</ele>
        <time>2023-10-28T14:19:44Z</time>
      </trkpt>
      <trkpt lat="45.08796" lon="1.27039">
        <ele>113.6</ele>
        <time>2023-10-28T14:19:45Z</time>
      </trkpt>
      <trkpt lat="45.08797" lon="1.27042">
        <ele>113.6</ele>
        <time>2023-10-28T14:19:46Z</time>
      </trkpt>
      <trkpt lat="45.08799" lon="1.27044">
        <ele>113.7</ele>
        <time>2023-10-28T14:19:47Z</time>
      </trkpt>
      <trkpt lat="45.088" lon="1.27047">
        <ele>113.7</ele>
        <time>2023-10-28T14:19:48Z</time>
      </trkpt>
      <trkpt lat="45.08802" lon="1.27049">
        <ele>113.7</ele>
        <time>2023-10-28T14:19:49Z</time>
      </trkpt>
      <trkpt lat="45.08804" lon="1.27052">
        <ele>113.7</ele>
        <time>2023-10-28T14:19:50Z</time>
      </trkpt>
      <trkpt lat="45.08806" lon="1.27054">
        <ele>113.7</ele>
        <time>2023-10-28T14:19:51Z</time>
      </trkpt>
      <trkpt lat="45.08807" lon="1.27057">
        <ele>113.8</ele>
        <time>2023-10-28T14:19:52Z</time>
      </trkpt>
      <trkpt lat="45.08809" lon="1.27059">
        <ele>113.8</ele>
        <time>2023-10-28T14:19:53Z</time>
      </trkpt>
      <trkpt lat="45.0881" lon="1.27061">
        <ele>113.8</ele>
        <time>2023-10-28T14:19:54Z</time>
      </trkpt>
      <trkpt lat="45.08812" lon="1.27064">
        <ele>113.7</ele>
        <time>2023-10-28T14:19:55Z</time>
      </trkpt>
      <trkpt lat="45.08814" lon="1.27066">
        <ele>113.7</ele>
        <time>2023-10-28T14:19:56Z</time>
      </trkpt>
      <trkpt lat="45.08815" lon="1.27068">
        <ele>113.7</ele>
        <time>2023-10-28T14:19:57Z</time>
      </trkpt>
      <trkpt lat="45.08817" lon="1.2707">
        <ele>113.7</ele>
        <time>2023-10-28T14:19:58Z</time>
      </trkpt>
      <trkpt lat="45.08819" lon="1.27071">
        <ele>113.7</ele>
        <time>2023-10-28T14:19:59Z</time>
      </trkpt>
      <trkpt lat="45.08821" lon="1.27072">
        <ele>113.7</ele>
        <time>2023-10-28T14:20:00Z</time>
      </trkpt>
      <trkpt lat="45.08823" lon="1.27073">
        <ele>113.7</ele>
        <time>2023-10-28T14:20:01Z</time>
      </trkpt>
      <trkpt lat="45.08825" lon="1.27073">
        <ele>113.8</ele>
        <time>2023-10-28T14:20:02Z</time>
      </trkpt>
      <trkpt lat="45.08826" lon="1.27073">
        <ele>113.9</ele>
        <time>2023-10-28T14:20:03Z</time>
      </trkpt>
      <trkpt lat="45.08828" lon="1.27072">
        <ele>114</ele>
        <time>2023-10-28T14:20:04Z</time>
      </trkpt>
      <trkpt lat="45.0883" lon="1.27071">
        <ele>114.1</ele>
        <time>2023-10-28T14:20:05Z</time>
      </trkpt>
      <trkpt lat="45.08831" lon="1.27071">
        <ele>114.1</ele>
        <time>2023-10-28T14:20:06Z</time>
      </trkpt>
      <trkpt lat="45.08832" lon="1.2707">
        <ele>114.2</ele>
        <time>2023-10-28T14:20:07Z</time>
      </trkpt>
      <trkpt lat="45.08832" lon="1.2707">
        <ele>114.2</ele>
        <time>2023-10-28T14:20:08Z</time>
      </trkpt>
      <trkpt lat="45.08832" lon="1.2707">
        <ele>114.2</ele>
        <time>2023-10-28T14:20:09Z</time>
      </trkpt>
      <trkpt lat="45.08832" lon="1.2707">
        <ele>114.2</ele>
        <time>2023-10-28T14:20:10Z</time>
      </trkpt>
      <trkpt lat="45.08832" lon="1.2707">
        <ele>114.2</ele>
        <time>2023-10-28T14:20:11Z</time>
      </trkpt>
      <trkpt lat="45.08832" lon="1.2707">
        <ele>114.2</ele>
        <time>2023-10-28T14:20:12Z</time>
      </trkpt>
      <trkpt lat="45.08832" lon="1.2707">
        <ele>114.2</ele>
        <time>2023-10-28T14:20:13Z</time>
      </trkpt>
      <trkpt lat="45.08832" lon="1.2707">
        <ele>114.2</ele>
        <time>2023-10-28T14:20:14Z</time>
      </trkpt>
      <trkpt lat="45.08832" lon="1.27071">
        <ele>114.2</ele>
        <time>2023-10-28T14:20:15Z</time>
      </trkpt>
      <trkpt lat="45.08832" lon="1.27072">
        <ele>114.3</ele>
        <time>2023-10-28T14:20:16Z</time>
      </trkpt>
      <trkpt lat="45.08832" lon="1.27073">
        <ele>114.3</ele>
        <time>2023-10-28T14:20:17Z</time>
      </trkpt>
      <trkpt lat="45.08831" lon="1.27074">
        <ele>114.4</ele>
        <time>2023-10-28T14:20:18Z</time>
      </trkpt>
      <trkpt lat="45.08832" lon="1.27076">
        <ele>114.4</ele>
        <time>2023-10-28T14:20:19Z</time>
      </trkpt>
      <trkpt lat="45.08832" lon="1.27077">
        <ele>114.4</ele>
        <time>2023-10-28T14:20:20Z</time>
      </trkpt>
      <trkpt lat="45.08833" lon="1.27078">
        <ele>114.5</ele>
        <time>2023-10-28T14:20:21Z</time>
      </trkpt>
      <trkpt lat="45.08833" lon="1.27078">
        <ele>114.5</ele>
        <time>2023-10-28T14:20:22Z</time>
      </trkpt>
      <trkpt lat="45.08834" lon="1.27079">
        <ele>114.6</ele>
        <time>2023-10-28T14:20:23Z</time>
      </trkpt>
      <trkpt lat="45.08835" lon="1.2708">
        <ele>114.7</ele>
        <time>2023-10-28T14:20:24Z</time>
      </trkpt>
      <trkpt lat="45.08837" lon="1.2708">
        <ele>114.7</ele>
        <time>2023-10-28T14:20:25Z</time>
      </trkpt>
      <trkpt lat="45.08838" lon="1.27081">
        <ele>114.8</ele>
        <time>2023-10-28T14:20:26Z</time>
      </trkpt>
      <trkpt lat="45.0884" lon="1.27081">
        <ele>115</ele>
        <time>2023-10-28T14:20:27Z</time>
      </trkpt>
      <trkpt lat="45.08842" lon="1.27081">
        <ele>115.1</ele>
        <time>2023-10-28T14:20:28Z</time>
      </trkpt>
      <trkpt lat="45.08844" lon="1.27082">
        <ele>115.2</ele>
        <time>2023-10-28T14:20:29Z</time>
      </trkpt>
      <trkpt lat="45.08846" lon="1.27082">
        <ele>115.4</ele>
        <time>2023-10-28T14:20:30Z</time>
      </trkpt>
      <trkpt lat="45.08849" lon="1.27083">
        <ele>115.6</ele>
        <time>2023-10-28T14:20:31Z</time>
      </trkpt>
      <trkpt lat="45.08851" lon="1.27083">
        <ele>115.8</ele>
        <time>2023-10-28T14:20:32Z</time>
      </trkpt>
      <trkpt lat="45.08853" lon="1.27084">
        <ele>116</ele>
        <time>2023-10-28T14:20:33Z</time>
      </trkpt>
      <trkpt lat="45.08855" lon="1.27084">
        <ele>116.2</ele>
        <time>2023-10-28T14:20:34Z</time>
      </trkpt>
      <trkpt lat="45.08857" lon="1.27085">
        <ele>116.4</ele>
        <time>2023-10-28T14:20:35Z</time>
      </trkpt>
      <trkpt lat="45.0886" lon="1.27085">
        <ele>116.6</ele>
        <time>2023-10-28T14:20:36Z</time>
      </trkpt>
      <trkpt lat="45.08862" lon="1.27086">
        <ele>116.8</ele>
        <time>2023-10-28T14:20:37Z</time>
      </trkpt>
      <trkpt lat="45.08864" lon="1.27086">
        <ele>117</ele>
        <time>2023-10-28T14:20:38Z</time>
      </trkpt>
      <trkpt lat="45.08866" lon="1.27087">
        <ele>117.2</ele>
        <time>2023-10-28T14:20:39Z</time>
      </trkpt>
      <trkpt lat="45.08868" lon="1.27087">
        <ele>117.4</ele>
        <time>2023-10-28T14:20:40Z</time>
      </trkpt>
      <trkpt lat="45.0887" lon="1.27088">
        <ele>117.7</ele>
        <time>2023-10-28T14:20:41Z</time>
      </trkpt>
      <trkpt lat="45.08872" lon="1.27088">
        <ele>117.9</ele>
        <time>2023-10-28T14:20:42Z</time>
      </trkpt>
      <trkpt lat="45.08875" lon="1.27089">
        <ele>118.2</ele>
        <time>2023-10-28T14:20:43Z</time>
      </trkpt>
      <trkpt lat="45.08876" lon="1.27089">
        <ele>118.4</ele>
        <time>2023-10-28T14:20:44Z</time>
      </trkpt>
      <trkpt lat="45.08879" lon="1.2709">
        <ele>118.6</ele>
        <time>2023-10-28T14:20:45Z</time>
      </trkpt>
      <trkpt lat="45.08881" lon="1.27091">
        <ele>118.9</ele>
        <time>2023-10-28T14:20:46Z</time>
      </trkpt>
      <trkpt lat="45.08883" lon="1.27091">
        <ele>119.1</ele>
        <time>2023-10-28T14:20:47Z</time>
      </trkpt>
      <trkpt lat="45.08884" lon="1.27092">
        <ele>119.3</ele>
        <time>2023-10-28T14:20:48Z</time>
      </trkpt>
      <trkpt lat="45.08886" lon="1.27093">
        <ele>119.6</ele>
        <time>2023-10-28T14:20:49Z</time>
      </trkpt>
      <trkpt lat="45.08889" lon="1.27093">
        <ele>119.9</ele>
        <time>2023-10-28T14:20:50Z</time>
      </trkpt>
      <trkpt lat="45.0889" lon="1.27094">
        <ele>120.1</ele>
        <time>2023-10-28T14:20:51Z</time>
      </trkpt>
      <trkpt lat="45.08892" lon="1.27094">
        <ele>120.3</ele>
        <time>2023-10-28T14:20:52Z</time>
      </trkpt>
      <trkpt lat="45.08894" lon="1.27095">
        <ele>120.6</ele>
        <time>2023-10-28T14:20:53Z</time>
      </trkpt>
      <trkpt lat="45.08896" lon="1.27095">
        <ele>120.9</ele>
        <time>2023-10-28T14:20:54Z</time>
      </trkpt>
      <trkpt lat="45.08898" lon="1.27096">
        <ele>121.2</ele>
        <time>2023-10-28T14:20:55Z</time>
      </trkpt>
      <trkpt lat="45.089" lon="1.27096">
        <ele>121.4</ele>
        <time>2023-10-28T14:20:56Z</time>
      </trkpt>
      <trkpt lat="45.08902" lon="1.27097">
        <ele>121.7</ele>
        <time>2023-10-28T14:20:57Z</time>
      </trkpt>
      <trkpt lat="45.08904" lon="1.27097">
        <ele>122</ele>
        <time>2023-10-28T14:20:58Z</time>
      </trkpt>
      <trkpt lat="45.08906" lon="1.27098">
        <ele>122.3</ele>
        <time>2023-10-28T14:20:59Z</time>
      </trkpt>
      <trkpt lat="45.08908" lon="1.27098">
        <ele>122.5</ele>
        <time>2023-10-28T14:21:00Z</time>
      </trkpt>
      <trkpt lat="45.0891" lon="1.27099">
        <ele>122.8</ele>
        <time>2023-10-28T14:21:01Z</time>
      </trkpt>
      <trkpt lat="45.08912" lon="1.27099">
        <ele>123.1</ele>
        <time>2023-10-28T14:21:02Z</time>
      </trkpt>
      <trkpt lat="45.08914" lon="1.271">
        <ele>123.4</ele>
        <time>2023-10-28T14:21:03Z</time>
      </trkpt>
      <trkpt lat="45.08916" lon="1.27101">
        <ele>123.7</ele>
        <time>2023-10-28T14:21:04Z</time>
      </trkpt>
      <trkpt lat="45.08918" lon="1.27101">
        <ele>124</ele>
        <time>2023-10-28T14:21:05Z</time>
      </trkpt>
      <trkpt lat="45.0892" lon="1.27102">
        <ele>124.3</ele>
        <time>2023-10-28T14:21:06Z</time>
      </trkpt>
      <trkpt lat="45.08921" lon="1.27102">
        <ele>124.6</ele>
        <time>2023-10-28T14:21:07Z</time>
      </trkpt>
      <trkpt lat="45.08923" lon="1.27103">
        <ele>124.9</ele>
        <time>2023-10-28T14:21:08Z</time>
      </trkpt>
      <trkpt lat="45.08925" lon="1.27103">
        <ele>125.1</ele>
        <time>2023-10-28T14:21:09Z</time>
      </trkpt>
      <trkpt lat="45.08927" lon="1.27103">
        <ele>125.4</ele>
        <time>2023-10-28T14:21:10Z</time>
      </trkpt>
      <trkpt lat="45.08928" lon="1.27104">
        <ele>125.6</ele>
        <time>2023-10-28T14:21:11Z</time>
      </trkpt>
      <trkpt lat="45.08929" lon="1.27104">
        <ele>125.8</ele>
        <time>2023-10-28T14:21:12Z</time>
      </trkpt>
      <trkpt lat="45.08931" lon="1.27105">
        <ele>126</ele>
        <time>2023-10-28T14:21:13Z</time>
      </trkpt>
      <trkpt lat="45.08932" lon="1.27105">
        <ele>126.2</ele>
        <time>2023-10-28T14:21:14Z</time>
      </trkpt>
      <trkpt lat="45.08933" lon="1.27106">
        <ele>126.5</ele>
        <time>2023-10-28T14:21:15Z</time>
      </trkpt>
      <trkpt lat="45.08934" lon="1.27106">
        <ele>126.6</ele>
        <time>2023-10-28T14:21:16Z</time>
      </trkpt>
      <trkpt lat="45.08936" lon="1.27107">
        <ele>126.8</ele>
        <time>2023-10-28T14:21:17Z</time>
      </trkpt>
      <trkpt lat="45.08937" lon="1.27108">
        <ele>127</ele>
        <time>2023-10-28T14:21:18Z</time>
      </trkpt>
      <trkpt lat="45.08938" lon="1.27109">
        <ele>127.3</ele>
        <time>2023-10-28T14:21:19Z</time>
      </trkpt>
      <trkpt lat="45.08939" lon="1.2711">
        <ele>127.5</ele>
        <time>2023-10-28T14:21:20Z</time>
      </trkpt>
      <trkpt lat="45.08941" lon="1.27111">
        <ele>127.8</ele>
        <time>2023-10-28T14:21:21Z</time>
      </trkpt>
      <trkpt lat="45.08942" lon="1.27113">
        <ele>128</ele>
        <time>2023-10-28T14:21:22Z</time>
      </trkpt>
      <trkpt lat="45.08943" lon="1.27114">
        <ele>128.3</ele>
        <time>2023-10-28T14:21:23Z</time>
      </trkpt>
      <trkpt lat="45.08945" lon="1.27115">
        <ele>128.6</ele>
        <time>2023-10-28T14:21:24Z</time>
      </trkpt>
      <trkpt lat="45.08946" lon="1.27117">
        <ele>128.9</ele>
        <time>2023-10-28T14:21:25Z</time>
      </trkpt>
      <trkpt lat="45.08947" lon="1.27119">
        <ele>129.2</ele>
        <time>2023-10-28T14:21:26Z</time>
      </trkpt>
      <trkpt lat="45.08949" lon="1.2712">
        <ele>129.5</ele>
        <time>2023-10-28T14:21:27Z</time>
      </trkpt>
      <trkpt lat="45.0895" lon="1.27122">
        <ele>129.8</ele>
        <time>2023-10-28T14:21:28Z</time>
      </trkpt>
      <trkpt lat="45.08951" lon="1.27124">
        <ele>130.1</ele>
        <time>2023-10-28T14:21:29Z</time>
      </trkpt>
      <trkpt lat="45.08952" lon="1.27126">
        <ele>130.3</ele>
        <time>2023-10-28T14:21:30Z</time>
      </trkpt>
      <trkpt lat="45.08953" lon="1.27127">
        <ele>130.6</ele>
        <time>2023-10-28T14:21:31Z</time>
      </trkpt>
      <trkpt lat="45.08954" lon="1.27129">
        <ele>130.8</ele>
        <time>2023-10-28T14:21:32Z</time>
      </trkpt>
      <trkpt lat="45.08955" lon="1.2713">
        <ele>131</ele>
        <time>2023-10-28T14:21:33Z</time>
      </trkpt>
      <trkpt lat="45.08955" lon="1.27132">
        <ele>131.2</ele>
        <time>2023-10-28T14:21:34Z</time>
      </trkpt>
      <trkpt lat="45.08957" lon="1.27133">
        <ele>131.4</ele>
        <time>2023-10-28T14:21:35Z</time>
      </trkpt>
      <trkpt lat="45.08957" lon="1.27135">
        <ele>131.7</ele>
        <time>2023-10-28T14:21:36Z</time>
      </trkpt>
      <trkpt lat="45.08958" lon="1.27137">
        <ele>131.9</ele>
        <time>2023-10-28T14:21:37Z</time>
      </trkpt>
      <trkpt lat="45.0896" lon="1.27138">
        <ele>132.2</ele>
        <time>2023-10-28T14:21:38Z</time>
      </trkpt>
      <trkpt lat="45.0896" lon="1.2714">
        <ele>132.4</ele>
        <time>2023-10-28T14:21:39Z</time>
      </trkpt>
      <trkpt lat="45.08961" lon="1.27142">
        <ele>132.7</ele>
        <time>2023-10-28T14:21:40Z</time>
      </trkpt>
      <trkpt lat="45.08962" lon="1.27144">
        <ele>132.9</ele>
        <time>2023-10-28T14:21:41Z</time>
      </trkpt>
      <trkpt lat="45.08962" lon="1.27145">
        <ele>133.1</ele>
        <time>2023-10-28T14:21:42Z</time>
      </trkpt>
      <trkpt lat="45.08963" lon="1.27147">
        <ele>133.3</ele>
        <time>2023-10-28T14:21:43Z</time>
      </trkpt>
      <trkpt lat="45.08963" lon="1.27149">
        <ele>133.5</ele>
        <time>2023-10-28T14:21:44Z</time>
      </trkpt>
      <trkpt lat="45.08964" lon="1.2715">
        <ele>133.7</ele>
        <time>2023-10-28T14:21:45Z</time>
      </trkpt>
      <trkpt lat="45.08964" lon="1.27152">
        <ele>133.9</ele>
        <time>2023-10-28T14:21:46Z</time>
      </trkpt>
      <trkpt lat="45.08965" lon="1.27153">
        <ele>134</ele>
        <time>2023-10-28T14:21:47Z</time>
      </trkpt>
      <trkpt lat="45.08965" lon="1.27155">
        <ele>134.2</ele>
        <time>2023-10-28T14:21:48Z</time>
      </trkpt>
      <trkpt lat="45.08966" lon="1.27157">
        <ele>134.4</ele>
        <time>2023-10-28T14:21:49Z</time>
      </trkpt>
      <trkpt lat="45.08966" lon="1.27158">
        <ele>134.6</ele>
        <time>2023-10-28T14:21:50Z</time>
      </trkpt>
      <trkpt lat="45.08967" lon="1.2716">
        <ele>134.9</ele>
        <time>2023-10-28T14:21:51Z</time>
      </trkpt>
      <trkpt lat="45.08968" lon="1.27162">
        <ele>135.1</ele>
        <time>2023-10-28T14:21:52Z</time>
      </trkpt>
      <trkpt lat="45.08968" lon="1.27164">
        <ele>135.3</ele>
        <time>2023-10-28T14:21:53Z</time>
      </trkpt>
      <trkpt lat="45.08969" lon="1.27166">
        <ele>135.6</ele>
        <time>2023-10-28T14:21:54Z</time>
      </trkpt>
      <trkpt lat="45.08969" lon="1.27168">
        <ele>135.8</ele>
        <time>2023-10-28T14:21:55Z</time>
      </trkpt>
      <trkpt lat="45.0897" lon="1.2717">
        <ele>136.1</ele>
        <time>2023-10-28T14:21:56Z</time>
      </trkpt>
      <trkpt lat="45.0897" lon="1.27172">
        <ele>136.3</ele>
        <time>2023-10-28T14:21:57Z</time>
      </trkpt>
      <trkpt lat="45.08971" lon="1.27174">
        <ele>136.6</ele>
        <time>2023-10-28T14:21:58Z</time>
      </trkpt>
      <trkpt lat="45.08971" lon="1.27176">
        <ele>136.8</ele>
        <time>2023-10-28T14:21:59Z</time>
      </trkpt>
      <trkpt lat="45.08972" lon="1.27177">
        <ele>137</ele>
        <time>2023-10-28T14:22:00Z</time>
      </trkpt>
      <trkpt lat="45.08973" lon="1.27179">
        <ele>137.3</ele>
        <time>2023-10-28T14:22:01Z</time>
      </trkpt>
      <trkpt lat="45.08973" lon="1.2718">
        <ele>137.4</ele>
        <time>2023-10-28T14:22:02Z</time>
      </trkpt>
      <trkpt lat="45.08974" lon="1.27181">
        <ele>137.7</ele>
        <time>2023-10-28T14:22:03Z</time>
      </trkpt>
      <trkpt lat="45.08975" lon="1.27183">
        <ele>137.9</ele>
        <time>2023-10-28T14:22:04Z</time>
      </trkpt>
      <trkpt lat="45.08975" lon="1.27184">
        <ele>138.1</ele>
        <time>2023-10-28T14:22:05Z</time>
      </trkpt>
      <trkpt lat="45.08976" lon="1.27186">
        <ele>138.3</ele>
        <time>2023-10-28T14:22:06Z</time>
      </trkpt>
      <trkpt lat="45.08977" lon="1.27187">
        <ele>138.5</ele>
        <time>2023-10-28T14:22:07Z</time>
      </trkpt>
      <trkpt lat="45.08978" lon="1.27189">
        <ele>138.8</ele>
        <time>2023-10-28T14:22:08Z</time>
      </trkpt>
      <trkpt lat="45.08979" lon="1.2719">
        <ele>139</ele>
        <time>2023-10-28T14:22:09Z</time>
      </trkpt>
      <trkpt lat="45.0898" lon="1.27192">
        <ele>139.3</ele>
        <time>2023-10-28T14:22:10Z</time>
      </trkpt>
      <trkpt lat="45.08981" lon="1.27193">
        <ele>139.5</ele>
        <time>2023-10-28T14:22:11Z</time>
      </trkpt>
      <trkpt lat="45.08982" lon="1.27194">
        <ele>139.7</ele>
        <time>2023-10-28T14:22:12Z</time>
      </trkpt>
      <trkpt lat="45.08983" lon="1.27195">
        <ele>140</ele>
        <time>2023-10-28T14:22:13Z</time>
      </trkpt>
      <trkpt lat="45.08984" lon="1.27197">
        <ele>140.1</ele>
        <time>2023-10-28T14:22:14Z</time>
      </trkpt>
      <trkpt lat="45.08985" lon="1.27198">
        <ele>140.3</ele>
        <time>2023-10-28T14:22:15Z</time>
      </trkpt>
      <trkpt lat="45.08986" lon="1.27199">
        <ele>140.5</ele>
        <time>2023-10-28T14:22:16Z</time>
      </trkpt>
      <trkpt lat="45.08987" lon="1.272">
        <ele>140.7</ele>
        <time>2023-10-28T14:22:17Z</time>
      </trkpt>
      <trkpt lat="45.08987" lon="1.27201">
        <ele>140.9</ele>
        <time>2023-10-28T14:22:18Z</time>
      </trkpt>
      <trkpt lat="45.08988" lon="1.27202">
        <ele>141.1</ele>
        <time>2023-10-28T14:22:19Z</time>
      </trkpt>
      <trkpt lat="45.08989" lon="1.27203">
        <ele>141.3</ele>
        <time>2023-10-28T14:22:20Z</time>
      </trkpt>
      <trkpt lat="45.0899" lon="1.27204">
        <ele>141.5</ele>
        <time>2023-10-28T14:22:21Z</time>
      </trkpt>
      <trkpt lat="45.08991" lon="1.27205">
        <ele>141.8</ele>
        <time>2023-10-28T14:22:22Z</time>
      </trkpt>
      <trkpt lat="45.08992" lon="1.27206">
        <ele>142</ele>
        <time>2023-10-28T14:22:23Z</time>
      </trkpt>
      <trkpt lat="45.08993" lon="1.27207">
        <ele>142.3</ele>
        <time>2023-10-28T14:22:24Z</time>
      </trkpt>
      <trkpt lat="45.08994" lon="1.27208">
        <ele>142.4</ele>
        <time>2023-10-28T14:22:25Z</time>
      </trkpt>
      <trkpt lat="45.08995" lon="1.27209">
        <ele>142.6</ele>
        <time>2023-10-28T14:22:26Z</time>
      </trkpt>
      <trkpt lat="45.08996" lon="1.2721">
        <ele>142.9</ele>
        <time>2023-10-28T14:22:27Z</time>
      </trkpt>
      <trkpt lat="45.08997" lon="1.27211">
        <ele>143.1</ele>
        <time>2023-10-28T14:22:28Z</time>
      </trkpt>
      <trkpt lat="45.08998" lon="1.27213">
        <ele>143.3</ele>
        <time>2023-10-28T14:22:29Z</time>
      </trkpt>
      <trkpt lat="45.08999" lon="1.27214">
        <ele>143.6</ele>
        <time>2023-10-28T14:22:30Z</time>
      </trkpt>
      <trkpt lat="45.09" lon="1.27215">
        <ele>143.9</ele>
        <time>2023-10-28T14:22:31Z</time>
      </trkpt>
      <trkpt lat="45.09001" lon="1.27216">
        <ele>144.2</ele>
        <time>2023-10-28T14:22:32Z</time>
      </trkpt>
      <trkpt lat="45.09002" lon="1.27218">
        <ele>144.5</ele>
        <time>2023-10-28T14:22:33Z</time>
      </trkpt>
      <trkpt lat="45.09003" lon="1.2722">
        <ele>144.7</ele>
        <time>2023-10-28T14:22:34Z</time>
      </trkpt>
      <trkpt lat="45.09004" lon="1.27221">
        <ele>145</ele>
        <time>2023-10-28T14:22:35Z</time>
      </trkpt>
      <trkpt lat="45.09005" lon="1.27223">
        <ele>145.2</ele>
        <time>2023-10-28T14:22:36Z</time>
      </trkpt>
      <trkpt lat="45.09006" lon="1.27224">
        <ele>145.4</ele>
        <time>2023-10-28T14:22:37Z</time>
      </trkpt>
      <trkpt lat="45.09007" lon="1.27226">
        <ele>145.7</ele>
        <time>2023-10-28T14:22:38Z</time>
      </trkpt>
      <trkpt lat="45.09008" lon="1.27227">
        <ele>145.9</ele>
        <time>2023-10-28T14:22:39Z</time>
      </trkpt>
      <trkpt lat="45.09009" lon="1.27229">
        <ele>146.2</ele>
        <time>2023-10-28T14:22:40Z</time>
      </trkpt>
      <trkpt lat="45.0901" lon="1.2723">
        <ele>146.5</ele>
        <time>2023-10-28T14:22:41Z</time>
      </trkpt>
      <trkpt lat="45.0901" lon="1.27232">
        <ele>146.7</ele>
        <time>2023-10-28T14:22:42Z</time>
      </trkpt>
      <trkpt lat="45.09011" lon="1.27234">
        <ele>147</ele>
        <time>2023-10-28T14:22:43Z</time>
      </trkpt>
      <trkpt lat="45.09012" lon="1.27236">
        <ele>147.2</ele>
        <time>2023-10-28T14:22:44Z</time>
      </trkpt>
      <trkpt lat="45.09012" lon="1.27238">
        <ele>147.5</ele>
        <time>2023-10-28T14:22:45Z</time>
      </trkpt>
      <trkpt lat="45.09012" lon="1.2724">
        <ele>147.7</ele>
        <time>2023-10-28T14:22:46Z</time>
      </trkpt>
      <trkpt lat="45.09013" lon="1.27242">
        <ele>148</ele>
        <time>2023-10-28T14:22:47Z</time>
      </trkpt>
      <trkpt lat="45.09013" lon="1.27244">
        <ele>148.2</ele>
        <time>2023-10-28T14:22:48Z</time>
      </trkpt>
      <trkpt lat="45.09014" lon="1.27246">
        <ele>148.5</ele>
        <time>2023-10-28T14:22:49Z</time>
      </trkpt>
      <trkpt lat="45.09015" lon="1.27248">
        <ele>148.7</ele>
        <time>2023-10-28T14:22:50Z</time>
      </trkpt>
      <trkpt lat="45.09015" lon="1.27249">
        <ele>149</ele>
        <time>2023-10-28T14:22:51Z</time>
      </trkpt>
      <trkpt lat="45.09015" lon="1.27251">
        <ele>149.2</ele>
        <time>2023-10-28T14:22:52Z</time>
      </trkpt>
      <trkpt lat="45.09015" lon="1.27253">
        <ele>149.4</ele>
        <time>2023-10-28T14:22:53Z</time>
      </trkpt>
      <trkpt lat="45.09015" lon="1.27255">
        <ele>149.6</ele>
        <time>2023-10-28T14:22:54Z</time>
      </trkpt>
      <trkpt lat="45.09015" lon="1.27256">
        <ele>149.8</ele>
        <time>2023-10-28T14:22:55Z</time>
      </trkpt>
      <trkpt lat="45.09015" lon="1.27258">
        <ele>150.1</ele>
        <time>2023-10-28T14:22:56Z</time>
      </trkpt>
      <trkpt lat="45.09014" lon="1.2726">
        <ele>150.3</ele>
        <time>2023-10-28T14:22:57Z</time>
      </trkpt>
      <trkpt lat="45.09013" lon="1.27262">
        <ele>150.6</ele>
        <time>2023-10-28T14:22:58Z</time>
      </trkpt>
      <trkpt lat="45.09012" lon="1.27264">
        <ele>150.9</ele>
        <time>2023-10-28T14:22:59Z</time>
      </trkpt>
      <trkpt lat="45.09012" lon="1.27266">
        <ele>151.2</ele>
        <time>2023-10-28T14:23:00Z</time>
      </trkpt>
      <trkpt lat="45.09011" lon="1.27268">
        <ele>151.4</ele>
        <time>2023-10-28T14:23:01Z</time>
      </trkpt>
      <trkpt lat="45.0901" lon="1.2727">
        <ele>151.7</ele>
        <time>2023-10-28T14:23:02Z</time>
      </trkpt>
      <trkpt lat="45.09009" lon="1.27271">
        <ele>151.9</ele>
        <time>2023-10-28T14:23:03Z</time>
      </trkpt>
      <trkpt lat="45.09009" lon="1.27273">
        <ele>152.2</ele>
        <time>2023-10-28T14:23:04Z</time>
      </trkpt>
      <trkpt lat="45.09008" lon="1.27275">
        <ele>152.4</ele>
        <time>2023-10-28T14:23:05Z</time>
      </trkpt>
      <trkpt lat="45.09008" lon="1.27276">
        <ele>152.6</ele>
        <time>2023-10-28T14:23:06Z</time>
      </trkpt>
      <trkpt lat="45.09008" lon="1.27278">
        <ele>152.8</ele>
        <time>2023-10-28T14:23:07Z</time>
      </trkpt>
      <trkpt lat="45.09008" lon="1.2728">
        <ele>153</ele>
        <time>2023-10-28T14:23:08Z</time>
      </trkpt>
      <trkpt lat="45.09008" lon="1.27281">
        <ele>153.2</ele>
        <time>2023-10-28T14:23:09Z</time>
      </trkpt>
      <trkpt lat="45.09008" lon="1.27283">
        <ele>153.4</ele>
        <time>2023-10-28T14:23:10Z</time>
      </trkpt>
      <trkpt lat="45.09008" lon="1.27284">
        <ele>153.6</ele>
        <time>2023-10-28T14:23:11Z</time>
      </trkpt>
      <trkpt lat="45.09009" lon="1.27286">
        <ele>153.8</ele>
        <time>2023-10-28T14:23:12Z</time>
      </trkpt>
      <trkpt lat="45.09009" lon="1.27288">
        <ele>154.1</ele>
        <time>2023-10-28T14:23:13Z</time>
      </trkpt>
      <trkpt lat="45.0901" lon="1.27289">
        <ele>154.3</ele>
        <time>2023-10-28T14:23:14Z</time>
      </trkpt>
      <trkpt lat="45.0901" lon="1.27291">
        <ele>154.5</ele>
        <time>2023-10-28T14:23:15Z</time>
      </trkpt>
      <trkpt lat="45.0901" lon="1.27292">
        <ele>154.7</ele>
        <time>2023-10-28T14:23:16Z</time>
      </trkpt>
      <trkpt lat="45.09011" lon="1.27294">
        <ele>154.9</ele>
        <time>2023-10-28T14:23:17Z</time>
      </trkpt>
      <trkpt lat="45.09012" lon="1.27296">
        <ele>155.1</ele>
        <time>2023-10-28T14:23:18Z</time>
      </trkpt>
      <trkpt lat="45.09013" lon="1.27297">
        <ele>155.3</ele>
        <time>2023-10-28T14:23:19Z</time>
      </trkpt>
      <trkpt lat="45.09013" lon="1.27299">
        <ele>155.6</ele>
        <time>2023-10-28T14:23:20Z</time>
      </trkpt>
      <trkpt lat="45.09014" lon="1.273">
        <ele>155.8</ele>
        <time>2023-10-28T14:23:21Z</time>
      </trkpt>
      <trkpt lat="45.09015" lon="1.27302">
        <ele>156</ele>
        <time>2023-10-28T14:23:22Z</time>
      </trkpt>
      <trkpt lat="45.09016" lon="1.27303">
        <ele>156.2</ele>
        <time>2023-10-28T14:23:23Z</time>
      </trkpt>
      <trkpt lat="45.09016" lon="1.27304">
        <ele>156.3</ele>
        <time>2023-10-28T14:23:24Z</time>
      </trkpt>
      <trkpt lat="45.09017" lon="1.27306">
        <ele>156.5</ele>
        <time>2023-10-28T14:23:25Z</time>
      </trkpt>
      <trkpt lat="45.09018" lon="1.27307">
        <ele>156.7</ele>
        <time>2023-10-28T14:23:26Z</time>
      </trkpt>
      <trkpt lat="45.0902" lon="1.27308">
        <ele>157</ele>
        <time>2023-10-28T14:23:27Z</time>
      </trkpt>
      <trkpt lat="45.0902" lon="1.27309">
        <ele>157.1</ele>
        <time>2023-10-28T14:23:28Z</time>
      </trkpt>
      <trkpt lat="45.09022" lon="1.2731">
        <ele>157.4</ele>
        <time>2023-10-28T14:23:29Z</time>
      </trkpt>
      <trkpt lat="45.09023" lon="1.27311">
        <ele>157.6</ele>
        <time>2023-10-28T14:23:30Z</time>
      </trkpt>
      <trkpt lat="45.09024" lon="1.27312">
        <ele>157.8</ele>
        <time>2023-10-28T14:23:31Z</time>
      </trkpt>
      <trkpt lat="45.09026" lon="1.27313">
        <ele>158</ele>
        <time>2023-10-28T14:23:32Z</time>
      </trkpt>
      <trkpt lat="45.09027" lon="1.27314">
        <ele>158.2</ele>
        <time>2023-10-28T14:23:33Z</time>
      </trkpt>
      <trkpt lat="45.09028" lon="1.27314">
        <ele>158.4</ele>
        <time>2023-10-28T14:23:34Z</time>
      </trkpt>
      <trkpt lat="45.09029" lon="1.27315">
        <ele>158.6</ele>
        <time>2023-10-28T14:23:35Z</time>
      </trkpt>
      <trkpt lat="45.0903" lon="1.27316">
        <ele>158.8</ele>
        <time>2023-10-28T14:23:36Z</time>
      </trkpt>
      <trkpt lat="45.09031" lon="1.27317">
        <ele>159</ele>
        <time>2023-10-28T14:23:37Z</time>
      </trkpt>
      <trkpt lat="45.09032" lon="1.27317">
        <ele>159.2</ele>
        <time>2023-10-28T14:23:38Z</time>
      </trkpt>
      <trkpt lat="45.09034" lon="1.27318">
        <ele>159.3</ele>
        <time>2023-10-28T14:23:39Z</time>
      </trkpt>
      <trkpt lat="45.09035" lon="1.27319">
        <ele>159.5</ele>
        <time>2023-10-28T14:23:40Z</time>
      </trkpt>
      <trkpt lat="45.09036" lon="1.27319">
        <ele>159.7</ele>
        <time>2023-10-28T14:23:41Z</time>
      </trkpt>
      <trkpt lat="45.09037" lon="1.2732">
        <ele>159.9</ele>
        <time>2023-10-28T14:23:42Z</time>
      </trkpt>
      <trkpt lat="45.09039" lon="1.2732">
        <ele>160.1</ele>
        <time>2023-10-28T14:23:43Z</time>
      </trkpt>
      <trkpt lat="45.0904" lon="1.2732">
        <ele>160.3</ele>
        <time>2023-10-28T14:23:44Z</time>
      </trkpt>
      <trkpt lat="45.09042" lon="1.27321">
        <ele>160.5</ele>
        <time>2023-10-28T14:23:45Z</time>
      </trkpt>
      <trkpt lat="45.09043" lon="1.27321">
        <ele>160.7</ele>
        <time>2023-10-28T14:23:46Z</time>
      </trkpt>
      <trkpt lat="45.09045" lon="1.27322">
        <ele>160.9</ele>
        <time>2023-10-28T14:23:47Z</time>
      </trkpt>
      <trkpt lat="45.09046" lon="1.27322">
        <ele>161.2</ele>
        <time>2023-10-28T14:23:48Z</time>
      </trkpt>
      <trkpt lat="45.09048" lon="1.27323">
        <ele>161.4</ele>
        <time>2023-10-28T14:23:49Z</time>
      </trkpt>
      <trkpt lat="45.0905" lon="1.27323">
        <ele>161.6</ele>
        <time>2023-10-28T14:23:50Z</time>
      </trkpt>
      <trkpt lat="45.09051" lon="1.27323">
        <ele>161.9</ele>
        <time>2023-10-28T14:23:51Z</time>
      </trkpt>
      <trkpt lat="45.09052" lon="1.27324">
        <ele>162</ele>
        <time>2023-10-28T14:23:52Z</time>
      </trkpt>
      <trkpt lat="45.09054" lon="1.27324">
        <ele>162.2</ele>
        <time>2023-10-28T14:23:53Z</time>
      </trkpt>
      <trkpt lat="45.09055" lon="1.27325">
        <ele>162.4</ele>
        <time>2023-10-28T14:23:54Z</time>
      </trkpt>
      <trkpt lat="45.09056" lon="1.27325">
        <ele>162.5</ele>
        <time>2023-10-28T14:23:55Z</time>
      </trkpt>
      <trkpt lat="45.09057" lon="1.27325">
        <ele>162.7</ele>
        <time>2023-10-28T14:23:56Z</time>
      </trkpt>
      <trkpt lat="45.09058" lon="1.27326">
        <ele>162.8</ele>
        <time>2023-10-28T14:23:57Z</time>
      </trkpt>
      <trkpt lat="45.0906" lon="1.27326">
        <ele>163</ele>
        <time>2023-10-28T14:23:58Z</time>
      </trkpt>
      <trkpt lat="45.09061" lon="1.27327">
        <ele>163.1</ele>
        <time>2023-10-28T14:23:59Z</time>
      </trkpt>
      <trkpt lat="45.09062" lon="1.27327">
        <ele>163.3</ele>
        <time>2023-10-28T14:24:00Z</time>
      </trkpt>
      <trkpt lat="45.09063" lon="1.27328">
        <ele>163.4</ele>
        <time>2023-10-28T14:24:01Z</time>
      </trkpt>
      <trkpt lat="45.09065" lon="1.27329">
        <ele>163.6</ele>
        <time>2023-10-28T14:24:02Z</time>
      </trkpt>
      <trkpt lat="45.09066" lon="1.27329">
        <ele>163.8</ele>
        <time>2023-10-28T14:24:03Z</time>
      </trkpt>
      <trkpt lat="45.09067" lon="1.2733">
        <ele>164</ele>
        <time>2023-10-28T14:24:04Z</time>
      </trkpt>
      <trkpt lat="45.09069" lon="1.2733">
        <ele>164.1</ele>
        <time>2023-10-28T14:24:05Z</time>
      </trkpt>
      <trkpt lat="45.0907" lon="1.27331">
        <ele>164.3</ele>
        <time>2023-10-28T14:24:06Z</time>
      </trkpt>
      <trkpt lat="45.09072" lon="1.27331">
        <ele>164.5</ele>
        <time>2023-10-28T14:24:07Z</time>
      </trkpt>
      <trkpt lat="45.09074" lon="1.27332">
        <ele>164.7</ele>
        <time>2023-10-28T14:24:08Z</time>
      </trkpt>
      <trkpt lat="45.09075" lon="1.27332">
        <ele>164.9</ele>
        <time>2023-10-28T14:24:09Z</time>
      </trkpt>
      <trkpt lat="45.09077" lon="1.27333">
        <ele>165.2</ele>
        <time>2023-10-28T14:24:10Z</time>
      </trkpt>
      <trkpt lat="45.09079" lon="1.27334">
        <ele>165.4</ele>
        <time>2023-10-28T14:24:11Z</time>
      </trkpt>
      <trkpt lat="45.0908" lon="1.27334">
        <ele>165.6</ele>
        <time>2023-10-28T14:24:12Z</time>
      </trkpt>
      <trkpt lat="45.09082" lon="1.27335">
        <ele>165.8</ele>
        <time>2023-10-28T14:24:13Z</time>
      </trkpt>
      <trkpt lat="45.09083" lon="1.27336">
        <ele>166</ele>
        <time>2023-10-28T14:24:14Z</time>
      </trkpt>
      <trkpt lat="45.09085" lon="1.27337">
        <ele>166.2</ele>
        <time>2023-10-28T14:24:15Z</time>
      </trkpt>
      <trkpt lat="45.09086" lon="1.27337">
        <ele>166.3</ele>
        <time>2023-10-28T14:24:16Z</time>
      </trkpt>
      <trkpt lat="45.09088" lon="1.27338">
        <ele>166.5</ele>
        <time>2023-10-28T14:24:17Z</time>
      </trkpt>
      <trkpt lat="45.09089" lon="1.27338">
        <ele>166.7</ele>
        <time>2023-10-28T14:24:18Z</time>
      </trkpt>
      <trkpt lat="45.0909" lon="1.27339">
        <ele>166.9</ele>
        <time>2023-10-28T14:24:19Z</time>
      </trkpt>
      <trkpt lat="45.09092" lon="1.27339">
        <ele>167.1</ele>
        <time>2023-10-28T14:24:20Z</time>
      </trkpt>
      <trkpt lat="45.09094" lon="1.2734">
        <ele>167.3</ele>
        <time>2023-10-28T14:24:21Z</time>
      </trkpt>
      <trkpt lat="45.09095" lon="1.27341">
        <ele>167.5</ele>
        <time>2023-10-28T14:24:22Z</time>
      </trkpt>
      <trkpt lat="45.09097" lon="1.27341">
        <ele>167.6</ele>
        <time>2023-10-28T14:24:23Z</time>
      </trkpt>
      <trkpt lat="45.09098" lon="1.27342">
        <ele>167.9</ele>
        <time>2023-10-28T14:24:24Z</time>
      </trkpt>
      <trkpt lat="45.091" lon="1.27342">
        <ele>168</ele>
        <time>2023-10-28T14:24:25Z</time>
      </trkpt>
      <trkpt lat="45.09101" lon="1.27343">
        <ele>168.2</ele>
        <time>2023-10-28T14:24:26Z</time>
      </trkpt>
      <trkpt lat="45.09102" lon="1.27343">
        <ele>168.4</ele>
        <time>2023-10-28T14:24:27Z</time>
      </trkpt>
      <trkpt lat="45.09104" lon="1.27344">
        <ele>168.6</ele>
        <time>2023-10-28T14:24:28Z</time>
      </trkpt>
      <trkpt lat="45.09105" lon="1.27344">
        <ele>168.7</ele>
        <time>2023-10-28T14:24:29Z</time>
      </trkpt>
      <trkpt lat="45.09107" lon="1.27344">
        <ele>168.9</ele>
        <time>2023-10-28T14:24:30Z</time>
      </trkpt>
      <trkpt lat="45.09108" lon="1.27345">
        <ele>169.1</ele>
        <time>2023-10-28T14:24:31Z</time>
      </trkpt>
      <trkpt lat="45.0911" lon="1.27345">
        <ele>169.3</ele>
        <time>2023-10-28T14:24:32Z</time>
      </trkpt>
      <trkpt lat="45.09111" lon="1.27346">
        <ele>169.4</ele>
        <time>2023-10-28T14:24:33Z</time>
      </trkpt>
      <trkpt lat="45.09113" lon="1.27346">
        <ele>169.6</ele>
        <time>2023-10-28T14:24:34Z</time>
      </trkpt>
      <trkpt lat="45.09115" lon="1.27347">
        <ele>169.8</ele>
        <time>2023-10-28T14:24:35Z</time>
      </trkpt>
      <trkpt lat="45.09116" lon="1.27348">
        <ele>170</ele>
        <time>2023-10-28T14:24:36Z</time>
      </trkpt>
      <trkpt lat="45.09118" lon="1.27349">
        <ele>170.2</ele>
        <time>2023-10-28T14:24:37Z</time>
      </trkpt>
      <trkpt lat="45.09119" lon="1.27349">
        <ele>170.4</ele>
        <time>2023-10-28T14:24:38Z</time>
      </trkpt>
      <trkpt lat="45.09121" lon="1.2735">
        <ele>170.6</ele>
        <time>2023-10-28T14:24:39Z</time>
      </trkpt>
      <trkpt lat="45.09123" lon="1.27351">
        <ele>170.8</ele>
        <time>2023-10-28T14:24:40Z</time>
      </trkpt>
      <trkpt lat="45.09124" lon="1.27351">
        <ele>171</ele>
        <time>2023-10-28T14:24:41Z</time>
      </trkpt>
      <trkpt lat="45.09126" lon="1.27352">
        <ele>171.1</ele>
        <time>2023-10-28T14:24:42Z</time>
      </trkpt>
      <trkpt lat="45.09127" lon="1.27352">
        <ele>171.3</ele>
        <time>2023-10-28T14:24:43Z</time>
      </trkpt>
      <trkpt lat="45.09129" lon="1.27353">
        <ele>171.5</ele>
        <time>2023-10-28T14:24:44Z</time>
      </trkpt>
      <trkpt lat="45.0913" lon="1.27353">
        <ele>171.6</ele>
        <time>2023-10-28T14:24:45Z</time>
      </trkpt>
      <trkpt lat="45.09131" lon="1.27354">
        <ele>171.8</ele>
        <time>2023-10-28T14:24:46Z</time>
      </trkpt>
      <trkpt lat="45.09133" lon="1.27354">
        <ele>172</ele>
        <time>2023-10-28T14:24:47Z</time>
      </trkpt>
      <trkpt lat="45.09134" lon="1.27355">
        <ele>172.2</ele>
        <time>2023-10-28T14:24:48Z</time>
      </trkpt>
      <trkpt lat="45.09135" lon="1.27355">
        <ele>172.3</ele>
        <time>2023-10-28T14:24:49Z</time>
      </trkpt>
      <trkpt lat="45.09137" lon="1.27355">
        <ele>172.5</ele>
        <time>2023-10-28T14:24:50Z</time>
      </trkpt>
      <trkpt lat="45.09138" lon="1.27356">
        <ele>172.7</ele>
        <time>2023-10-28T14:24:51Z</time>
      </trkpt>
      <trkpt lat="45.09139" lon="1.27356">
        <ele>172.9</ele>
        <time>2023-10-28T14:24:52Z</time>
      </trkpt>
      <trkpt lat="45.09141" lon="1.27357">
        <ele>173.1</ele>
        <time>2023-10-28T14:24:53Z</time>
      </trkpt>
      <trkpt lat="45.09142" lon="1.27357">
        <ele>173.2</ele>
        <time>2023-10-28T14:24:54Z</time>
      </trkpt>
      <trkpt lat="45.09143" lon="1.27357">
        <ele>173.4</ele>
        <time>2023-10-28T14:24:55Z</time>
      </trkpt>
      <trkpt lat="45.09145" lon="1.27358">
        <ele>173.6</ele>
        <time>2023-10-28T14:24:56Z</time>
      </trkpt>
      <trkpt lat="45.09147" lon="1.27358">
        <ele>173.8</ele>
        <time>2023-10-28T14:24:57Z</time>
      </trkpt>
      <trkpt lat="45.09148" lon="1.27359">
        <ele>174</ele>
        <time>2023-10-28T14:24:58Z</time>
      </trkpt>
      <trkpt lat="45.09149" lon="1.27359">
        <ele>174.2</ele>
        <time>2023-10-28T14:24:59Z</time>
      </trkpt>
      <trkpt lat="45.09151" lon="1.27359">
        <ele>174.4</ele>
        <time>2023-10-28T14:25:00Z</time>
      </trkpt>
      <trkpt lat="45.09152" lon="1.2736">
        <ele>174.6</ele>
        <time>2023-10-28T14:25:01Z</time>
      </trkpt>
      <trkpt lat="45.09153" lon="1.2736">
        <ele>174.7</ele>
        <time>2023-10-28T14:25:02Z</time>
      </trkpt>
      <trkpt lat="45.09155" lon="1.2736">
        <ele>174.9</ele>
        <time>2023-10-28T14:25:03Z</time>
      </trkpt>
      <trkpt lat="45.09156" lon="1.27361">
        <ele>175.2</ele>
        <time>2023-10-28T14:25:04Z</time>
      </trkpt>
      <trkpt lat="45.09158" lon="1.27361">
        <ele>175.4</ele>
        <time>2023-10-28T14:25:05Z</time>
      </trkpt>
      <trkpt lat="45.0916" lon="1.27361">
        <ele>175.6</ele>
        <time>2023-10-28T14:25:06Z</time>
      </trkpt>
      <trkpt lat="45.09161" lon="1.27362">
        <ele>175.9</ele>
        <time>2023-10-28T14:25:07Z</time>
      </trkpt>
      <trkpt lat="45.09163" lon="1.27362">
        <ele>176.1</ele>
        <time>2023-10-28T14:25:08Z</time>
      </trkpt>
      <trkpt lat="45.09164" lon="1.27362">
        <ele>176.4</ele>
        <time>2023-10-28T14:25:09Z</time>
      </trkpt>
      <trkpt lat="45.09166" lon="1.27362">
        <ele>176.7</ele>
        <time>2023-10-28T14:25:10Z</time>
      </trkpt>
      <trkpt lat="45.09168" lon="1.27363">
        <ele>177</ele>
        <time>2023-10-28T14:25:11Z</time>
      </trkpt>
      <trkpt lat="45.09169" lon="1.27363">
        <ele>177.2</ele>
        <time>2023-10-28T14:25:12Z</time>
      </trkpt>
      <trkpt lat="45.09171" lon="1.27363">
        <ele>177.5</ele>
        <time>2023-10-28T14:25:13Z</time>
      </trkpt>
      <trkpt lat="45.09173" lon="1.27364">
        <ele>177.8</ele>
        <time>2023-10-28T14:25:14Z</time>
      </trkpt>
      <trkpt lat="45.09175" lon="1.27364">
        <ele>177.9</ele>
        <time>2023-10-28T14:25:15Z</time>
      </trkpt>
      <trkpt lat="45.09176" lon="1.27364">
        <ele>178</ele>
        <time>2023-10-28T14:25:16Z</time>
      </trkpt>
      <trkpt lat="45.09178" lon="1.27364">
        <ele>178.1</ele>
        <time>2023-10-28T14:25:17Z</time>
      </trkpt>
      <trkpt lat="45.0918" lon="1.27365">
        <ele>178.2</ele>
        <time>2023-10-28T14:25:18Z</time>
      </trkpt>
      <trkpt lat="45.09182" lon="1.27365">
        <ele>178.3</ele>
        <time>2023-10-28T14:25:19Z</time>
      </trkpt>
      <trkpt lat="45.09183" lon="1.27365">
        <ele>178.4</ele>
        <time>2023-10-28T14:25:20Z</time>
      </trkpt>
      <trkpt lat="45.09185" lon="1.27365">
        <ele>178.5</ele>
        <time>2023-10-28T14:25:21Z</time>
      </trkpt>
      <trkpt lat="45.09187" lon="1.27365">
        <ele>178.5</ele>
        <time>2023-10-28T14:25:22Z</time>
      </trkpt>
      <trkpt lat="45.09188" lon="1.27366">
        <ele>178.6</ele>
        <time>2023-10-28T14:25:23Z</time>
      </trkpt>
      <trkpt lat="45.0919" lon="1.27366">
        <ele>178.7</ele>
        <time>2023-10-28T14:25:24Z</time>
      </trkpt>
      <trkpt lat="45.09192" lon="1.27366">
        <ele>178.8</ele>
        <time>2023-10-28T14:25:25Z</time>
      </trkpt>
      <trkpt lat="45.09193" lon="1.27367">
        <ele>178.8</ele>
        <time>2023-10-28T14:25:26Z</time>
      </trkpt>
      <trkpt lat="45.09195" lon="1.27367">
        <ele>178.9</ele>
        <time>2023-10-28T14:25:27Z</time>
      </trkpt>
      <trkpt lat="45.09196" lon="1.27368">
        <ele>179</ele>
        <time>2023-10-28T14:25:28Z</time>
      </trkpt>
      <trkpt lat="45.09198" lon="1.27368">
        <ele>179</ele>
        <time>2023-10-28T14:25:29Z</time>
      </trkpt>
      <trkpt lat="45.09199" lon="1.27368">
        <ele>179.1</ele>
        <time>2023-10-28T14:25:30Z</time>
      </trkpt>
      <trkpt lat="45.09201" lon="1.27368">
        <ele>179.2</ele>
        <time>2023-10-28T14:25:31Z</time>
      </trkpt>
      <trkpt lat="45.09202" lon="1.27369">
        <ele>179.2</ele>
        <time>2023-10-28T14:25:32Z</time>
      </trkpt>
      <trkpt lat="45.09204" lon="1.27368">
        <ele>179.3</ele>
        <time>2023-10-28T14:25:33Z</time>
      </trkpt>
      <trkpt lat="45.09205" lon="1.27368">
        <ele>179.3</ele>
        <time>2023-10-28T14:25:34Z</time>
      </trkpt>
      <trkpt lat="45.09207" lon="1.27368">
        <ele>179.4</ele>
        <time>2023-10-28T14:25:35Z</time>
      </trkpt>
      <trkpt lat="45.09208" lon="1.27367">
        <ele>179.4</ele>
        <time>2023-10-28T14:25:36Z</time>
      </trkpt>
      <trkpt lat="45.0921" lon="1.27366">
        <ele>179.5</ele>
        <time>2023-10-28T14:25:37Z</time>
      </trkpt>
      <trkpt lat="45.09211" lon="1.27365">
        <ele>179.5</ele>
        <time>2023-10-28T14:25:38Z</time>
      </trkpt>
      <trkpt lat="45.09213" lon="1.27365">
        <ele>179.6</ele>
        <time>2023-10-28T14:25:39Z</time>
      </trkpt>
      <trkpt lat="45.09214" lon="1.27364">
        <ele>179.6</ele>
        <time>2023-10-28T14:25:40Z</time>
      </trkpt>
      <trkpt lat="45.09216" lon="1.27363">
        <ele>179.7</ele>
        <time>2023-10-28T14:25:41Z</time>
      </trkpt>
      <trkpt lat="45.09217" lon="1.27361">
        <ele>179.8</ele>
        <time>2023-10-28T14:25:42Z</time>
      </trkpt>
      <trkpt lat="45.09218" lon="1.2736">
        <ele>179.8</ele>
        <time>2023-10-28T14:25:43Z</time>
      </trkpt>
      <trkpt lat="45.09219" lon="1.27359">
        <ele>179.8</ele>
        <time>2023-10-28T14:25:44Z</time>
      </trkpt>
      <trkpt lat="45.09221" lon="1.27357">
        <ele>179.9</ele>
        <time>2023-10-28T14:25:45Z</time>
      </trkpt>
      <trkpt lat="45.09222" lon="1.27356">
        <ele>179.9</ele>
        <time>2023-10-28T14:25:46Z</time>
      </trkpt>
      <trkpt lat="45.09223" lon="1.27355">
        <ele>180</ele>
        <time>2023-10-28T14:25:47Z</time>
      </trkpt>
      <trkpt lat="45.09224" lon="1.27354">
        <ele>180</ele>
        <time>2023-10-28T14:25:48Z</time>
      </trkpt>
      <trkpt lat="45.09225" lon="1.27352">
        <ele>180.1</ele>
        <time>2023-10-28T14:25:49Z</time>
      </trkpt>
      <trkpt lat="45.09226" lon="1.27351">
        <ele>180.1</ele>
        <time>2023-10-28T14:25:50Z</time>
      </trkpt>
      <trkpt lat="45.09227" lon="1.2735">
        <ele>180.2</ele>
        <time>2023-10-28T14:25:51Z</time>
      </trkpt>
      <trkpt lat="45.09228" lon="1.27348">
        <ele>180.2</ele>
        <time>2023-10-28T14:25:52Z</time>
      </trkpt>
      <trkpt lat="45.09229" lon="1.27347">
        <ele>180.3</ele>
        <time>2023-10-28T14:25:53Z</time>
      </trkpt>
      <trkpt lat="45.0923" lon="1.27345">
        <ele>180.4</ele>
        <time>2023-10-28T14:25:54Z</time>
      </trkpt>
      <trkpt lat="45.09232" lon="1.27344">
        <ele>180.5</ele>
        <time>2023-10-28T14:25:55Z</time>
      </trkpt>
      <trkpt lat="45.09232" lon="1.27342">
        <ele>180.6</ele>
        <time>2023-10-28T14:25:56Z</time>
      </trkpt>
      <trkpt lat="45.09234" lon="1.2734">
        <ele>180.7</ele>
        <time>2023-10-28T14:25:57Z</time>
      </trkpt>
      <trkpt lat="45.09235" lon="1.27339">
        <ele>180.8</ele>
        <time>2023-10-28T14:25:58Z</time>
      </trkpt>
      <trkpt lat="45.09235" lon="1.27337">
        <ele>180.8</ele>
        <time>2023-10-28T14:25:59Z</time>
      </trkpt>
      <trkpt lat="45.09236" lon="1.27336">
        <ele>180.9</ele>
        <time>2023-10-28T14:26:00Z</time>
      </trkpt>
      <trkpt lat="45.09237" lon="1.27335">
        <ele>181</ele>
        <time>2023-10-28T14:26:01Z</time>
      </trkpt>
      <trkpt lat="45.09238" lon="1.27333">
        <ele>181.1</ele>
        <time>2023-10-28T14:26:02Z</time>
      </trkpt>
      <trkpt lat="45.09239" lon="1.27332">
        <ele>181.1</ele>
        <time>2023-10-28T14:26:03Z</time>
      </trkpt>
      <trkpt lat="45.0924" lon="1.27331">
        <ele>181.2</ele>
        <time>2023-10-28T14:26:04Z</time>
      </trkpt>
      <trkpt lat="45.09241" lon="1.2733">
        <ele>181.3</ele>
        <time>2023-10-28T14:26:05Z</time>
      </trkpt>
      <trkpt lat="45.09242" lon="1.27329">
        <ele>181.3</ele>
        <time>2023-10-28T14:26:06Z</time>
      </trkpt>
      <trkpt lat="45.09243" lon="1.27327">
        <ele>181.4</ele>
        <time>2023-10-28T14:26:07Z</time>
      </trkpt>
      <trkpt lat="45.09244" lon="1.27326">
        <ele>181.5</ele>
        <time>2023-10-28T14:26:08Z</time>
      </trkpt>
      <trkpt lat="45.09245" lon="1.27324">
        <ele>181.6</ele>
        <time>2023-10-28T14:26:09Z</time>
      </trkpt>
      <trkpt lat="45.09246" lon="1.27323">
        <ele>181.6</ele>
        <time>2023-10-28T14:26:10Z</time>
      </trkpt>
      <trkpt lat="45.09247" lon="1.27322">
        <ele>181.7</ele>
        <time>2023-10-28T14:26:11Z</time>
      </trkpt>
      <trkpt lat="45.09248" lon="1.2732">
        <ele>181.8</ele>
        <time>2023-10-28T14:26:12Z</time>
      </trkpt>
      <trkpt lat="45.0925" lon="1.27319">
        <ele>181.9</ele>
        <time>2023-10-28T14:26:13Z</time>
      </trkpt>
      <trkpt lat="45.09251" lon="1.27317">
        <ele>181.9</ele>
        <time>2023-10-28T14:26:14Z</time>
      </trkpt>
      <trkpt lat="45.09253" lon="1.27316">
        <ele>182</ele>
        <time>2023-10-28T14:26:15Z</time>
      </trkpt>
      <trkpt lat="45.09255" lon="1.27315">
        <ele>182.1</ele>
        <time>2023-10-28T14:26:16Z</time>
      </trkpt>
      <trkpt lat="45.09256" lon="1.27313">
        <ele>182.2</ele>
        <time>2023-10-28T14:26:17Z</time>
      </trkpt>
      <trkpt lat="45.09258" lon="1.27312">
        <ele>182.3</ele>
        <time>2023-10-28T14:26:18Z</time>
      </trkpt>
      <trkpt lat="45.09259" lon="1.27311">
        <ele>182.4</ele>
        <time>2023-10-28T14:26:19Z</time>
      </trkpt>
      <trkpt lat="45.09261" lon="1.2731">
        <ele>182.5</ele>
        <time>2023-10-28T14:26:20Z</time>
      </trkpt>
      <trkpt lat="45.09263" lon="1.27309">
        <ele>182.6</ele>
        <time>2023-10-28T14:26:21Z</time>
      </trkpt>
      <trkpt lat="45.09264" lon="1.27308">
        <ele>182.6</ele>
        <time>2023-10-28T14:26:22Z</time>
      </trkpt>
      <trkpt lat="45.09266" lon="1.27307">
        <ele>182.7</ele>
        <time>2023-10-28T14:26:23Z</time>
      </trkpt>
      <trkpt lat="45.09267" lon="1.27306">
        <ele>182.8</ele>
        <time>2023-10-28T14:26:24Z</time>
      </trkpt>
      <trkpt lat="45.09269" lon="1.27305">
        <ele>182.9</ele>
        <time>2023-10-28T14:26:25Z</time>
      </trkpt>
      <trkpt lat="45.09271" lon="1.27305">
        <ele>182.9</ele>
        <time>2023-10-28T14:26:26Z</time>
      </trkpt>
      <trkpt lat="45.09272" lon="1.27304">
        <ele>183</ele>
        <time>2023-10-28T14:26:27Z</time>
      </trkpt>
      <trkpt lat="45.09273" lon="1.27303">
        <ele>183</ele>
        <time>2023-10-28T14:26:28Z</time>
      </trkpt>
      <trkpt lat="45.09274" lon="1.27302">
        <ele>183.1</ele>
        <time>2023-10-28T14:26:29Z</time>
      </trkpt>
      <trkpt lat="45.09275" lon="1.27302">
        <ele>183.1</ele>
        <time>2023-10-28T14:26:30Z</time>
      </trkpt>
      <trkpt lat="45.09277" lon="1.27301">
        <ele>183.2</ele>
        <time>2023-10-28T14:26:31Z</time>
      </trkpt>
      <trkpt lat="45.09278" lon="1.27301">
        <ele>183.2</ele>
        <time>2023-10-28T14:26:32Z</time>
      </trkpt>
      <trkpt lat="45.09279" lon="1.273">
        <ele>183.3</ele>
        <time>2023-10-28T14:26:33Z</time>
      </trkpt>
      <trkpt lat="45.0928" lon="1.273">
        <ele>183.3</ele>
        <time>2023-10-28T14:26:34Z</time>
      </trkpt>
      <trkpt lat="45.09282" lon="1.273">
        <ele>183.4</ele>
        <time>2023-10-28T14:26:35Z</time>
      </trkpt>
      <trkpt lat="45.09283" lon="1.273">
        <ele>183.4</ele>
        <time>2023-10-28T14:26:36Z</time>
      </trkpt>
      <trkpt lat="45.09284" lon="1.273">
        <ele>183.5</ele>
        <time>2023-10-28T14:26:37Z</time>
      </trkpt>
      <trkpt lat="45.09285" lon="1.273">
        <ele>183.5</ele>
        <time>2023-10-28T14:26:38Z</time>
      </trkpt>
      <trkpt lat="45.09287" lon="1.273">
        <ele>183.6</ele>
        <time>2023-10-28T14:26:39Z</time>
      </trkpt>
      <trkpt lat="45.09288" lon="1.273">
        <ele>183.6</ele>
        <time>2023-10-28T14:26:40Z</time>
      </trkpt>
      <trkpt lat="45.0929" lon="1.273">
        <ele>183.6</ele>
        <time>2023-10-28T14:26:41Z</time>
      </trkpt>
      <trkpt lat="45.09292" lon="1.273">
        <ele>183.7</ele>
        <time>2023-10-28T14:26:42Z</time>
      </trkpt>
      <trkpt lat="45.09293" lon="1.273">
        <ele>183.7</ele>
        <time>2023-10-28T14:26:43Z</time>
      </trkpt>
      <trkpt lat="45.09295" lon="1.273">
        <ele>183.7</ele>
        <time>2023-10-28T14:26:44Z</time>
      </trkpt>
      <trkpt lat="45.09296" lon="1.273">
        <ele>183.8</ele>
        <time>2023-10-28T14:26:45Z</time>
      </trkpt>
      <trkpt lat="45.09298" lon="1.273">
        <ele>183.8</ele>
        <time>2023-10-28T14:26:46Z</time>
      </trkpt>
      <trkpt lat="45.09299" lon="1.27301">
        <ele>183.8</ele>
        <time>2023-10-28T14:26:47Z</time>
      </trkpt>
      <trkpt lat="45.09301" lon="1.27301">
        <ele>183.8</ele>
        <time>2023-10-28T14:26:48Z</time>
      </trkpt>
      <trkpt lat="45.09302" lon="1.27301">
        <ele>183.9</ele>
        <time>2023-10-28T14:26:49Z</time>
      </trkpt>
      <trkpt lat="45.09304" lon="1.27301">
        <ele>183.9</ele>
        <time>2023-10-28T14:26:50Z</time>
      </trkpt>
      <trkpt lat="45.09305" lon="1.27301">
        <ele>183.9</ele>
        <time>2023-10-28T14:26:51Z</time>
      </trkpt>
      <trkpt lat="45.09307" lon="1.27302">
        <ele>183.9</ele>
        <time>2023-10-28T14:26:52Z</time>
      </trkpt>
      <trkpt lat="45.09308" lon="1.27302">
        <ele>183.9</ele>
        <time>2023-10-28T14:26:53Z</time>
      </trkpt>
      <trkpt lat="45.09309" lon="1.27302">
        <ele>183.9</ele>
        <time>2023-10-28T14:26:54Z</time>
      </trkpt>
      <trkpt lat="45.09311" lon="1.27303">
        <ele>184</ele>
        <time>2023-10-28T14:26:55Z</time>
      </trkpt>
      <trkpt lat="45.09312" lon="1.27303">
        <ele>184</ele>
        <time>2023-10-28T14:26:56Z</time>
      </trkpt>
      <trkpt lat="45.09314" lon="1.27303">
        <ele>184.1</ele>
        <time>2023-10-28T14:26:57Z</time>
      </trkpt>
      <trkpt lat="45.09315" lon="1.27304">
        <ele>184.1</ele>
        <time>2023-10-28T14:26:58Z</time>
      </trkpt>
      <trkpt lat="45.09316" lon="1.27304">
        <ele>184.2</ele>
        <time>2023-10-28T14:26:59Z</time>
      </trkpt>
      <trkpt lat="45.09318" lon="1.27305">
        <ele>184.3</ele>
        <time>2023-10-28T14:27:00Z</time>
      </trkpt>
      <trkpt lat="45.09319" lon="1.27306">
        <ele>184.3</ele>
        <time>2023-10-28T14:27:01Z</time>
      </trkpt>
      <trkpt lat="45.09321" lon="1.27307">
        <ele>184.5</ele>
        <time>2023-10-28T14:27:02Z</time>
      </trkpt>
      <trkpt lat="45.09323" lon="1.27308">
        <ele>184.5</ele>
        <time>2023-10-28T14:27:03Z</time>
      </trkpt>
      <trkpt lat="45.09325" lon="1.27309">
        <ele>184.7</ele>
        <time>2023-10-28T14:27:04Z</time>
      </trkpt>
      <trkpt lat="45.09327" lon="1.27311">
        <ele>184.8</ele>
        <time>2023-10-28T14:27:05Z</time>
      </trkpt>
      <trkpt lat="45.09329" lon="1.27312">
        <ele>185</ele>
        <time>2023-10-28T14:27:06Z</time>
      </trkpt>
      <trkpt lat="45.09331" lon="1.27313">
        <ele>185.1</ele>
        <time>2023-10-28T14:27:07Z</time>
      </trkpt>
      <trkpt lat="45.09333" lon="1.27315">
        <ele>185.3</ele>
        <time>2023-10-28T14:27:08Z</time>
      </trkpt>
      <trkpt lat="45.09335" lon="1.27317">
        <ele>185.5</ele>
        <time>2023-10-28T14:27:09Z</time>
      </trkpt>
      <trkpt lat="45.09337" lon="1.27319">
        <ele>185.6</ele>
        <time>2023-10-28T14:27:10Z</time>
      </trkpt>
      <trkpt lat="45.09339" lon="1.2732">
        <ele>185.8</ele>
        <time>2023-10-28T14:27:11Z</time>
      </trkpt>
      <trkpt lat="45.09341" lon="1.27322">
        <ele>185.9</ele>
        <time>2023-10-28T14:27:12Z</time>
      </trkpt>
      <trkpt lat="45.09343" lon="1.27324">
        <ele>186.1</ele>
        <time>2023-10-28T14:27:13Z</time>
      </trkpt>
      <trkpt lat="45.09344" lon="1.27326">
        <ele>186.2</ele>
        <time>2023-10-28T14:27:14Z</time>
      </trkpt>
      <trkpt lat="45.09346" lon="1.27328">
        <ele>186.3</ele>
        <time>2023-10-28T14:27:15Z</time>
      </trkpt>
      <trkpt lat="45.09347" lon="1.2733">
        <ele>186.4</ele>
        <time>2023-10-28T14:27:16Z</time>
      </trkpt>
      <trkpt lat="45.09348" lon="1.27332">
        <ele>186.5</ele>
        <time>2023-10-28T14:27:17Z</time>
      </trkpt>
      <trkpt lat="45.09349" lon="1.27334">
        <ele>186.6</ele>
        <time>2023-10-28T14:27:18Z</time>
      </trkpt>
      <trkpt lat="45.0935" lon="1.27336">
        <ele>186.7</ele>
        <time>2023-10-28T14:27:19Z</time>
      </trkpt>
      <trkpt lat="45.09351" lon="1.27338">
        <ele>186.8</ele>
        <time>2023-10-28T14:27:20Z</time>
      </trkpt>
      <trkpt lat="45.09352" lon="1.2734">
        <ele>186.9</ele>
        <time>2023-10-28T14:27:21Z</time>
      </trkpt>
      <trkpt lat="45.09353" lon="1.27342">
        <ele>187</ele>
        <time>2023-10-28T14:27:22Z</time>
      </trkpt>
      <trkpt lat="45.09354" lon="1.27344">
        <ele>187.1</ele>
        <time>2023-10-28T14:27:23Z</time>
      </trkpt>
      <trkpt lat="45.09355" lon="1.27346">
        <ele>187.2</ele>
        <time>2023-10-28T14:27:24Z</time>
      </trkpt>
      <trkpt lat="45.09356" lon="1.27348">
        <ele>187.3</ele>
        <time>2023-10-28T14:27:25Z</time>
      </trkpt>
      <trkpt lat="45.09358" lon="1.2735">
        <ele>187.4</ele>
        <time>2023-10-28T14:27:26Z</time>
      </trkpt>
      <trkpt lat="45.09359" lon="1.27352">
        <ele>187.5</ele>
        <time>2023-10-28T14:27:27Z</time>
      </trkpt>
      <trkpt lat="45.09361" lon="1.27354">
        <ele>187.6</ele>
        <time>2023-10-28T14:27:28Z</time>
      </trkpt>
      <trkpt lat="45.09362" lon="1.27357">
        <ele>187.7</ele>
        <time>2023-10-28T14:27:29Z</time>
      </trkpt>
      <trkpt lat="45.09364" lon="1.27359">
        <ele>187.8</ele>
        <time>2023-10-28T14:27:30Z</time>
      </trkpt>
      <trkpt lat="45.09366" lon="1.27361">
        <ele>187.9</ele>
        <time>2023-10-28T14:27:31Z</time>
      </trkpt>
      <trkpt lat="45.09367" lon="1.27364">
        <ele>187.9</ele>
        <time>2023-10-28T14:27:32Z</time>
      </trkpt>
      <trkpt lat="45.09369" lon="1.27366">
        <ele>188</ele>
        <time>2023-10-28T14:27:33Z</time>
      </trkpt>
      <trkpt lat="45.0937" lon="1.27369">
        <ele>188.1</ele>
        <time>2023-10-28T14:27:34Z</time>
      </trkpt>
      <trkpt lat="45.09371" lon="1.27371">
        <ele>188.2</ele>
        <time>2023-10-28T14:27:35Z</time>
      </trkpt>
      <trkpt lat="45.09372" lon="1.27374">
        <ele>188.3</ele>
        <time>2023-10-28T14:27:36Z</time>
      </trkpt>
      <trkpt lat="45.09374" lon="1.27376">
        <ele>188.4</ele>
        <time>2023-10-28T14:27:37Z</time>
      </trkpt>
      <trkpt lat="45.09375" lon="1.27378">
        <ele>188.5</ele>
        <time>2023-10-28T14:27:38Z</time>
      </trkpt>
      <trkpt lat="45.09377" lon="1.27381">
        <ele>188.6</ele>
        <time>2023-10-28T14:27:39Z</time>
      </trkpt>
      <trkpt lat="45.09379" lon="1.27383">
        <ele>188.7</ele>
        <time>2023-10-28T14:27:40Z</time>
      </trkpt>
      <trkpt lat="45.09381" lon="1.27385">
        <ele>188.8</ele>
        <time>2023-10-28T14:27:41Z</time>
      </trkpt>
      <trkpt lat="45.09383" lon="1.27387">
        <ele>188.9</ele>
        <time>2023-10-28T14:27:42Z</time>
      </trkpt>
      <trkpt lat="45.09385" lon="1.2739">
        <ele>189.1</ele>
        <time>2023-10-28T14:27:43Z</time>
      </trkpt>
      <trkpt lat="45.09386" lon="1.27392">
        <ele>189.2</ele>
        <time>2023-10-28T14:27:44Z</time>
      </trkpt>
      <trkpt lat="45.09388" lon="1.27394">
        <ele>189.4</ele>
        <time>2023-10-28T14:27:45Z</time>
      </trkpt>
      <trkpt lat="45.0939" lon="1.27396">
        <ele>189.5</ele>
        <time>2023-10-28T14:27:46Z</time>
      </trkpt>
      <trkpt lat="45.09392" lon="1.27398">
        <ele>189.6</ele>
        <time>2023-10-28T14:27:47Z</time>
      </trkpt>
      <trkpt lat="45.09393" lon="1.27401">
        <ele>189.7</ele>
        <time>2023-10-28T14:27:48Z</time>
      </trkpt>
      <trkpt lat="45.09395" lon="1.27403">
        <ele>189.8</ele>
        <time>2023-10-28T14:27:49Z</time>
      </trkpt>
      <trkpt lat="45.09396" lon="1.27405">
        <ele>190</ele>
        <time>2023-10-28T14:27:50Z</time>
      </trkpt>
      <trkpt lat="45.09398" lon="1.27407">
        <ele>190.1</ele>
        <time>2023-10-28T14:27:51Z</time>
      </trkpt>
      <trkpt lat="45.09399" lon="1.2741">
        <ele>190.2</ele>
        <time>2023-10-28T14:27:52Z</time>
      </trkpt>
      <trkpt lat="45.094" lon="1.27412">
        <ele>190.3</ele>
        <time>2023-10-28T14:27:53Z</time>
      </trkpt>
      <trkpt lat="45.09401" lon="1.27414">
        <ele>190.4</ele>
        <time>2023-10-28T14:27:54Z</time>
      </trkpt>
      <trkpt lat="45.09403" lon="1.27416">
        <ele>190.5</ele>
        <time>2023-10-28T14:27:55Z</time>
      </trkpt>
      <trkpt lat="45.09404" lon="1.27418">
        <ele>190.6</ele>
        <time>2023-10-28T14:27:56Z</time>
      </trkpt>
      <trkpt lat="45.09405" lon="1.27421">
        <ele>190.7</ele>
        <time>2023-10-28T14:27:57Z</time>
      </trkpt>
      <trkpt lat="45.09406" lon="1.27423">
        <ele>190.8</ele>
        <time>2023-10-28T14:27:58Z</time>
      </trkpt>
      <trkpt lat="45.09407" lon="1.27426">
        <ele>190.9</ele>
        <time>2023-10-28T14:27:59Z</time>
      </trkpt>
      <trkpt lat="45.09408" lon="1.27428">
        <ele>191</ele>
        <time>2023-10-28T14:28:00Z</time>
      </trkpt>
      <trkpt lat="45.09409" lon="1.27431">
        <ele>191.1</ele>
        <time>2023-10-28T14:28:01Z</time>
      </trkpt>
      <trkpt lat="45.09411" lon="1.27433">
        <ele>191.1</ele>
        <time>2023-10-28T14:28:02Z</time>
      </trkpt>
      <trkpt lat="45.09412" lon="1.27435">
        <ele>191.2</ele>
        <time>2023-10-28T14:28:03Z</time>
      </trkpt>
      <trkpt lat="45.09413" lon="1.27438">
        <ele>191.3</ele>
        <time>2023-10-28T14:28:04Z</time>
      </trkpt>
      <trkpt lat="45.09414" lon="1.2744">
        <ele>191.3</ele>
        <time>2023-10-28T14:28:05Z</time>
      </trkpt>
      <trkpt lat="45.09416" lon="1.27442">
        <ele>191.4</ele>
        <time>2023-10-28T14:28:06Z</time>
      </trkpt>
      <trkpt lat="45.09417" lon="1.27445">
        <ele>191.5</ele>
        <time>2023-10-28T14:28:07Z</time>
      </trkpt>
      <trkpt lat="45.09419" lon="1.27447">
        <ele>191.5</ele>
        <time>2023-10-28T14:28:08Z</time>
      </trkpt>
      <trkpt lat="45.0942" lon="1.2745">
        <ele>191.6</ele>
        <time>2023-10-28T14:28:09Z</time>
      </trkpt>
      <trkpt lat="45.09422" lon="1.27452">
        <ele>191.7</ele>
        <time>2023-10-28T14:28:10Z</time>
      </trkpt>
      <trkpt lat="45.09423" lon="1.27454">
        <ele>191.7</ele>
        <time>2023-10-28T14:28:11Z</time>
      </trkpt>
      <trkpt lat="45.09425" lon="1.27456">
        <ele>191.8</ele>
        <time>2023-10-28T14:28:12Z</time>
      </trkpt>
      <trkpt lat="45.09426" lon="1.27458">
        <ele>191.9</ele>
        <time>2023-10-28T14:28:13Z</time>
      </trkpt>
      <trkpt lat="45.09428" lon="1.2746">
        <ele>191.9</ele>
        <time>2023-10-28T14:28:14Z</time>
      </trkpt>
      <trkpt lat="45.09429" lon="1.27462">
        <ele>192</ele>
        <time>2023-10-28T14:28:15Z</time>
      </trkpt>
      <trkpt lat="45.09431" lon="1.27463">
        <ele>192</ele>
        <time>2023-10-28T14:28:16Z</time>
      </trkpt>
      <trkpt lat="45.09432" lon="1.27465">
        <ele>192</ele>
        <time>2023-10-28T14:28:17Z</time>
      </trkpt>
      <trkpt lat="45.09434" lon="1.27466">
        <ele>192.1</ele>
        <time>2023-10-28T14:28:18Z</time>
      </trkpt>
      <trkpt lat="45.09436" lon="1.27468">
        <ele>192.1</ele>
        <time>2023-10-28T14:28:19Z</time>
      </trkpt>
      <trkpt lat="45.09437" lon="1.27469">
        <ele>192.2</ele>
        <time>2023-10-28T14:28:20Z</time>
      </trkpt>
      <trkpt lat="45.09439" lon="1.2747">
        <ele>192.2</ele>
        <time>2023-10-28T14:28:21Z</time>
      </trkpt>
      <trkpt lat="45.09441" lon="1.27471">
        <ele>192.3</ele>
        <time>2023-10-28T14:28:22Z</time>
      </trkpt>
      <trkpt lat="45.09443" lon="1.27472">
        <ele>192.3</ele>
        <time>2023-10-28T14:28:23Z</time>
      </trkpt>
      <trkpt lat="45.09444" lon="1.27473">
        <ele>192.4</ele>
        <time>2023-10-28T14:28:24Z</time>
      </trkpt>
      <trkpt lat="45.09446" lon="1.27475">
        <ele>192.4</ele>
        <time>2023-10-28T14:28:25Z</time>
      </trkpt>
      <trkpt lat="45.09448" lon="1.27476">
        <ele>192.5</ele>
        <time>2023-10-28T14:28:26Z</time>
      </trkpt>
      <trkpt lat="45.0945" lon="1.27477">
        <ele>192.5</ele>
        <time>2023-10-28T14:28:27Z</time>
      </trkpt>
      <trkpt lat="45.09452" lon="1.27479">
        <ele>192.6</ele>
        <time>2023-10-28T14:28:28Z</time>
      </trkpt>
      <trkpt lat="45.09454" lon="1.2748">
        <ele>192.6</ele>
        <time>2023-10-28T14:28:29Z</time>
      </trkpt>
      <trkpt lat="45.09456" lon="1.27482">
        <ele>192.7</ele>
        <time>2023-10-28T14:28:30Z</time>
      </trkpt>
      <trkpt lat="45.09458" lon="1.27483">
        <ele>192.7</ele>
        <time>2023-10-28T14:28:31Z</time>
      </trkpt>
      <trkpt lat="45.0946" lon="1.27485">
        <ele>192.8</ele>
        <time>2023-10-28T14:28:32Z</time>
      </trkpt>
      <trkpt lat="45.09461" lon="1.27487">
        <ele>192.9</ele>
        <time>2023-10-28T14:28:33Z</time>
      </trkpt>
      <trkpt lat="45.09463" lon="1.27489">
        <ele>192.9</ele>
        <time>2023-10-28T14:28:34Z</time>
      </trkpt>
      <trkpt lat="45.09465" lon="1.27491">
        <ele>193</ele>
        <time>2023-10-28T14:28:35Z</time>
      </trkpt>
      <trkpt lat="45.09466" lon="1.27493">
        <ele>193</ele>
        <time>2023-10-28T14:28:36Z</time>
      </trkpt>
      <trkpt lat="45.09467" lon="1.27495">
        <ele>193.1</ele>
        <time>2023-10-28T14:28:37Z</time>
      </trkpt>
      <trkpt lat="45.09469" lon="1.27497">
        <ele>193.1</ele>
        <time>2023-10-28T14:28:38Z</time>
      </trkpt>
      <trkpt lat="45.0947" lon="1.27499">
        <ele>193.2</ele>
        <time>2023-10-28T14:28:39Z</time>
      </trkpt>
      <trkpt lat="45.09472" lon="1.27501">
        <ele>193.2</ele>
        <time>2023-10-28T14:28:40Z</time>
      </trkpt>
      <trkpt lat="45.09473" lon="1.27503">
        <ele>193.3</ele>
        <time>2023-10-28T14:28:41Z</time>
      </trkpt>
      <trkpt lat="45.09475" lon="1.27506">
        <ele>193.3</ele>
        <time>2023-10-28T14:28:42Z</time>
      </trkpt>
      <trkpt lat="45.09476" lon="1.27508">
        <ele>193.3</ele>
        <time>2023-10-28T14:28:43Z</time>
      </trkpt>
      <trkpt lat="45.09477" lon="1.2751">
        <ele>193.4</ele>
        <time>2023-10-28T14:28:44Z</time>
      </trkpt>
      <trkpt lat="45.09479" lon="1.27512">
        <ele>193.4</ele>
        <time>2023-10-28T14:28:45Z</time>
      </trkpt>
      <trkpt lat="45.0948" lon="1.27513">
        <ele>193.4</ele>
        <time>2023-10-28T14:28:46Z</time>
      </trkpt>
      <trkpt lat="45.09482" lon="1.27515">
        <ele>193.4</ele>
        <time>2023-10-28T14:28:47Z</time>
      </trkpt>
      <trkpt lat="45.09484" lon="1.27516">
        <ele>193.4</ele>
        <time>2023-10-28T14:28:48Z</time>
      </trkpt>
      <trkpt lat="45.09486" lon="1.27518">
        <ele>193.3</ele>
        <time>2023-10-28T14:28:49Z</time>
      </trkpt>
      <trkpt lat="45.09488" lon="1.27519">
        <ele>193.3</ele>
        <time>2023-10-28T14:28:50Z</time>
      </trkpt>
      <trkpt lat="45.09489" lon="1.27521">
        <ele>193.3</ele>
        <time>2023-10-28T14:28:51Z</time>
      </trkpt>
      <trkpt lat="45.09491" lon="1.27522">
        <ele>193.3</ele>
        <time>2023-10-28T14:28:52Z</time>
      </trkpt>
      <trkpt lat="45.09494" lon="1.27523">
        <ele>193.3</ele>
        <time>2023-10-28T14:28:53Z</time>
      </trkpt>
      <trkpt lat="45.09496" lon="1.27524">
        <ele>193.3</ele>
        <time>2023-10-28T14:28:54Z</time>
      </trkpt>
      <trkpt lat="45.09498" lon="1.27525">
        <ele>193.3</ele>
        <time>2023-10-28T14:28:55Z</time>
      </trkpt>
      <trkpt lat="45.095" lon="1.27526">
        <ele>193.2</ele>
        <time>2023-10-28T14:28:56Z</time>
      </trkpt>
      <trkpt lat="45.09502" lon="1.27527">
        <ele>193.2</ele>
        <time>2023-10-28T14:28:57Z</time>
      </trkpt>
      <trkpt lat="45.09504" lon="1.27527">
        <ele>193.2</ele>
        <time>2023-10-28T14:28:58Z</time>
      </trkpt>
      <trkpt lat="45.09507" lon="1.27528">
        <ele>193.2</ele>
        <time>2023-10-28T14:28:59Z</time>
      </trkpt>
      <trkpt lat="45.09509" lon="1.27529">
        <ele>193.1</ele>
        <time>2023-10-28T14:29:00Z</time>
      </trkpt>
      <trkpt lat="45.09511" lon="1.27529">
        <ele>193.1</ele>
        <time>2023-10-28T14:29:01Z</time>
      </trkpt>
      <trkpt lat="45.09513" lon="1.2753">
        <ele>193.1</ele>
        <time>2023-10-28T14:29:02Z</time>
      </trkpt>
      <trkpt lat="45.09515" lon="1.2753">
        <ele>193</ele>
        <time>2023-10-28T14:29:03Z</time>
      </trkpt>
      <trkpt lat="45.09518" lon="1.27531">
        <ele>193</ele>
        <time>2023-10-28T14:29:04Z</time>
      </trkpt>
      <trkpt lat="45.0952" lon="1.27531">
        <ele>193</ele>
        <time>2023-10-28T14:29:05Z</time>
      </trkpt>
      <trkpt lat="45.09522" lon="1.27531">
        <ele>193</ele>
        <time>2023-10-28T14:29:06Z</time>
      </trkpt>
      <trkpt lat="45.09524" lon="1.27532">
        <ele>192.9</ele>
        <time>2023-10-28T14:29:07Z</time>
      </trkpt>
      <trkpt lat="45.09526" lon="1.27532">
        <ele>192.9</ele>
        <time>2023-10-28T14:29:08Z</time>
      </trkpt>
      <trkpt lat="45.09528" lon="1.27532">
        <ele>192.8</ele>
        <time>2023-10-28T14:29:09Z</time>
      </trkpt>
      <trkpt lat="45.09531" lon="1.27532">
        <ele>192.8</ele>
        <time>2023-10-28T14:29:10Z</time>
      </trkpt>
      <trkpt lat="45.09533" lon="1.27532">
        <ele>192.8</ele>
        <time>2023-10-28T14:29:11Z</time>
      </trkpt>
      <trkpt lat="45.09535" lon="1.27532">
        <ele>192.7</ele>
        <time>2023-10-28T14:29:12Z</time>
      </trkpt>
      <trkpt lat="45.09538" lon="1.27532">
        <ele>192.7</ele>
        <time>2023-10-28T14:29:13Z</time>
      </trkpt>
      <trkpt lat="45.09539" lon="1.27532">
        <ele>192.6</ele>
        <time>2023-10-28T14:29:14Z</time>
      </trkpt>
      <trkpt lat="45.09542" lon="1.27532">
        <ele>192.5</ele>
        <time>2023-10-28T14:29:15Z</time>
      </trkpt>
      <trkpt lat="45.09544" lon="1.27532">
        <ele>192.5</ele>
        <time>2023-10-28T14:29:16Z</time>
      </trkpt>
      <trkpt lat="45.09546" lon="1.27532">
        <ele>192.4</ele>
        <time>2023-10-28T14:29:17Z</time>
      </trkpt>
      <trkpt lat="45.09549" lon="1.27531">
        <ele>192.3</ele>
        <time>2023-10-28T14:29:18Z</time>
      </trkpt>
      <trkpt lat="45.09551" lon="1.27531">
        <ele>192.3</ele>
        <time>2023-10-28T14:29:19Z</time>
      </trkpt>
      <trkpt lat="45.09553" lon="1.27531">
        <ele>192.2</ele>
        <time>2023-10-28T14:29:20Z</time>
      </trkpt>
      <trkpt lat="45.09555" lon="1.27531">
        <ele>192.1</ele>
        <time>2023-10-28T14:29:21Z</time>
      </trkpt>
      <trkpt lat="45.09558" lon="1.27531">
        <ele>192</ele>
        <time>2023-10-28T14:29:22Z</time>
      </trkpt>
      <trkpt lat="45.0956" lon="1.27531">
        <ele>191.9</ele>
        <time>2023-10-28T14:29:23Z</time>
      </trkpt>
      <trkpt lat="45.09562" lon="1.27532">
        <ele>191.9</ele>
        <time>2023-10-28T14:29:24Z</time>
      </trkpt>
      <trkpt lat="45.09565" lon="1.27532">
        <ele>191.8</ele>
        <time>2023-10-28T14:29:25Z</time>
      </trkpt>
      <trkpt lat="45.09567" lon="1.27532">
        <ele>191.7</ele>
        <time>2023-10-28T14:29:26Z</time>
      </trkpt>
      <trkpt lat="45.09569" lon="1.27532">
        <ele>191.6</ele>
        <time>2023-10-28T14:29:27Z</time>
      </trkpt>
      <trkpt lat="45.09572" lon="1.27533">
        <ele>191.5</ele>
        <time>2023-10-28T14:29:28Z</time>
      </trkpt>
      <trkpt lat="45.09573" lon="1.27533">
        <ele>191.4</ele>
        <time>2023-10-28T14:29:29Z</time>
      </trkpt>
      <trkpt lat="45.09576" lon="1.27534">
        <ele>191.3</ele>
        <time>2023-10-28T14:29:30Z</time>
      </trkpt>
      <trkpt lat="45.09578" lon="1.27534">
        <ele>191.2</ele>
        <time>2023-10-28T14:29:31Z</time>
      </trkpt>
      <trkpt lat="45.0958" lon="1.27535">
        <ele>191.1</ele>
        <time>2023-10-28T14:29:32Z</time>
      </trkpt>
      <trkpt lat="45.09583" lon="1.27535">
        <ele>190.9</ele>
        <time>2023-10-28T14:29:33Z</time>
      </trkpt>
      <trkpt lat="45.09585" lon="1.27536">
        <ele>190.8</ele>
        <time>2023-10-28T14:29:34Z</time>
      </trkpt>
      <trkpt lat="45.09587" lon="1.27537">
        <ele>190.7</ele>
        <time>2023-10-28T14:29:35Z</time>
      </trkpt>
      <trkpt lat="45.09589" lon="1.27538">
        <ele>190.6</ele>
        <time>2023-10-28T14:29:36Z</time>
      </trkpt>
      <trkpt lat="45.09592" lon="1.27539">
        <ele>190.5</ele>
        <time>2023-10-28T14:29:37Z</time>
      </trkpt>
      <trkpt lat="45.09594" lon="1.2754">
        <ele>190.4</ele>
        <time>2023-10-28T14:29:38Z</time>
      </trkpt>
      <trkpt lat="45.09596" lon="1.27541">
        <ele>190.2</ele>
        <time>2023-10-28T14:29:39Z</time>
      </trkpt>
      <trkpt lat="45.09598" lon="1.27542">
        <ele>190.1</ele>
        <time>2023-10-28T14:29:40Z</time>
      </trkpt>
      <trkpt lat="45.096" lon="1.27543">
        <ele>190</ele>
        <time>2023-10-28T14:29:41Z</time>
      </trkpt>
      <trkpt lat="45.09602" lon="1.27545">
        <ele>189.9</ele>
        <time>2023-10-28T14:29:42Z</time>
      </trkpt>
      <trkpt lat="45.09604" lon="1.27546">
        <ele>189.8</ele>
        <time>2023-10-28T14:29:43Z</time>
      </trkpt>
      <trkpt lat="45.09606" lon="1.27547">
        <ele>189.6</ele>
        <time>2023-10-28T14:29:44Z</time>
      </trkpt>
      <trkpt lat="45.09608" lon="1.27549">
        <ele>189.5</ele>
        <time>2023-10-28T14:29:45Z</time>
      </trkpt>
      <trkpt lat="45.0961" lon="1.2755">
        <ele>189.4</ele>
        <time>2023-10-28T14:29:46Z</time>
      </trkpt>
      <trkpt lat="45.09612" lon="1.27552">
        <ele>189.2</ele>
        <time>2023-10-28T14:29:47Z</time>
      </trkpt>
      <trkpt lat="45.09613" lon="1.27553">
        <ele>189</ele>
        <time>2023-10-28T14:29:48Z</time>
      </trkpt>
      <trkpt lat="45.09615" lon="1.27555">
        <ele>188.9</ele>
        <time>2023-10-28T14:29:49Z</time>
      </trkpt>
      <trkpt lat="45.09617" lon="1.27557">
        <ele>188.7</ele>
        <time>2023-10-28T14:29:50Z</time>
      </trkpt>
      <trkpt lat="45.09619" lon="1.27559">
        <ele>188.6</ele>
        <time>2023-10-28T14:29:51Z</time>
      </trkpt>
      <trkpt lat="45.0962" lon="1.27561">
        <ele>188.4</ele>
        <time>2023-10-28T14:29:52Z</time>
      </trkpt>
      <trkpt lat="45.09622" lon="1.27563">
        <ele>188.2</ele>
        <time>2023-10-28T14:29:53Z</time>
      </trkpt>
      <trkpt lat="45.09624" lon="1.27565">
        <ele>188.1</ele>
        <time>2023-10-28T14:29:54Z</time>
      </trkpt>
      <trkpt lat="45.09625" lon="1.27567">
        <ele>187.9</ele>
        <time>2023-10-28T14:29:55Z</time>
      </trkpt>
      <trkpt lat="45.09627" lon="1.27569">
        <ele>187.7</ele>
        <time>2023-10-28T14:29:56Z</time>
      </trkpt>
      <trkpt lat="45.09629" lon="1.27572">
        <ele>187.5</ele>
        <time>2023-10-28T14:29:57Z</time>
      </trkpt>
      <trkpt lat="45.0963" lon="1.27574">
        <ele>187.3</ele>
        <time>2023-10-28T14:29:58Z</time>
      </trkpt>
      <trkpt lat="45.09632" lon="1.27576">
        <ele>187.1</ele>
        <time>2023-10-28T14:29:59Z</time>
      </trkpt>
      <trkpt lat="45.09633" lon="1.27579">
        <ele>187</ele>
        <time>2023-10-28T14:30:00Z</time>
      </trkpt>
      <trkpt lat="45.09634" lon="1.27581">
        <ele>186.8</ele>
        <time>2023-10-28T14:30:01Z</time>
      </trkpt>
      <trkpt lat="45.09636" lon="1.27583">
        <ele>186.6</ele>
        <time>2023-10-28T14:30:02Z</time>
      </trkpt>
      <trkpt lat="45.09637" lon="1.27586">
        <ele>186.4</ele>
        <time>2023-10-28T14:30:03Z</time>
      </trkpt>
      <trkpt lat="45.09638" lon="1.27588">
        <ele>186.2</ele>
        <time>2023-10-28T14:30:04Z</time>
      </trkpt>
      <trkpt lat="45.09639" lon="1.27591">
        <ele>186</ele>
        <time>2023-10-28T14:30:05Z</time>
      </trkpt>
      <trkpt lat="45.0964" lon="1.27593">
        <ele>185.8</ele>
        <time>2023-10-28T14:30:06Z</time>
      </trkpt>
      <trkpt lat="45.09641" lon="1.27596">
        <ele>185.7</ele>
        <time>2023-10-28T14:30:07Z</time>
      </trkpt>
      <trkpt lat="45.09642" lon="1.27598">
        <ele>185.5</ele>
        <time>2023-10-28T14:30:08Z</time>
      </trkpt>
      <trkpt lat="45.09644" lon="1.276">
        <ele>185.3</ele>
        <time>2023-10-28T14:30:09Z</time>
      </trkpt>
      <trkpt lat="45.09645" lon="1.27603">
        <ele>185.1</ele>
        <time>2023-10-28T14:30:10Z</time>
      </trkpt>
      <trkpt lat="45.09646" lon="1.27605">
        <ele>184.9</ele>
        <time>2023-10-28T14:30:11Z</time>
      </trkpt>
      <trkpt lat="45.09647" lon="1.27607">
        <ele>184.8</ele>
        <time>2023-10-28T14:30:12Z</time>
      </trkpt>
      <trkpt lat="45.09648" lon="1.2761">
        <ele>184.6</ele>
        <time>2023-10-28T14:30:13Z</time>
      </trkpt>
      <trkpt lat="45.0965" lon="1.27612">
        <ele>184.4</ele>
        <time>2023-10-28T14:30:14Z</time>
      </trkpt>
      <trkpt lat="45.09651" lon="1.27615">
        <ele>184.2</ele>
        <time>2023-10-28T14:30:15Z</time>
      </trkpt>
      <trkpt lat="45.09652" lon="1.27618">
        <ele>184</ele>
        <time>2023-10-28T14:30:16Z</time>
      </trkpt>
      <trkpt lat="45.09653" lon="1.2762">
        <ele>183.8</ele>
        <time>2023-10-28T14:30:17Z</time>
      </trkpt>
      <trkpt lat="45.09654" lon="1.27623">
        <ele>183.6</ele>
        <time>2023-10-28T14:30:18Z</time>
      </trkpt>
      <trkpt lat="45.09655" lon="1.27625">
        <ele>183.5</ele>
        <time>2023-10-28T14:30:19Z</time>
      </trkpt>
      <trkpt lat="45.09657" lon="1.27628">
        <ele>183.3</ele>
        <time>2023-10-28T14:30:20Z</time>
      </trkpt>
      <trkpt lat="45.09658" lon="1.27631">
        <ele>183.1</ele>
        <time>2023-10-28T14:30:21Z</time>
      </trkpt>
      <trkpt lat="45.09659" lon="1.27633">
        <ele>183</ele>
        <time>2023-10-28T14:30:22Z</time>
      </trkpt>
      <trkpt lat="45.0966" lon="1.27636">
        <ele>182.8</ele>
        <time>2023-10-28T14:30:23Z</time>
      </trkpt>
      <trkpt lat="45.09662" lon="1.27639">
        <ele>182.7</ele>
        <time>2023-10-28T14:30:24Z</time>
      </trkpt>
      <trkpt lat="45.09663" lon="1.27641">
        <ele>182.5</ele>
        <time>2023-10-28T14:30:25Z</time>
      </trkpt>
      <trkpt lat="45.09664" lon="1.27644">
        <ele>182.4</ele>
        <time>2023-10-28T14:30:26Z</time>
      </trkpt>
      <trkpt lat="45.09665" lon="1.27647">
        <ele>182.3</ele>
        <time>2023-10-28T14:30:27Z</time>
      </trkpt>
      <trkpt lat="45.09666" lon="1.27649">
        <ele>182.1</ele>
        <time>2023-10-28T14:30:28Z</time>
      </trkpt>
      <trkpt lat="45.09668" lon="1.27651">
        <ele>182</ele>
        <time>2023-10-28T14:30:29Z</time>
      </trkpt>
      <trkpt lat="45.09669" lon="1.27654">
        <ele>181.9</ele>
        <time>2023-10-28T14:30:30Z</time>
      </trkpt>
      <trkpt lat="45.09671" lon="1.27656">
        <ele>181.8</ele>
        <time>2023-10-28T14:30:31Z</time>
      </trkpt>
      <trkpt lat="45.09673" lon="1.27657">
        <ele>181.7</ele>
        <time>2023-10-28T14:30:32Z</time>
      </trkpt>
      <trkpt lat="45.09675" lon="1.27659">
        <ele>181.6</ele>
        <time>2023-10-28T14:30:33Z</time>
      </trkpt>
      <trkpt lat="45.09676" lon="1.2766">
        <ele>181.5</ele>
        <time>2023-10-28T14:30:34Z</time>
      </trkpt>
      <trkpt lat="45.09678" lon="1.27661">
        <ele>181.4</ele>
        <time>2023-10-28T14:30:35Z</time>
      </trkpt>
      <trkpt lat="45.09681" lon="1.27661">
        <ele>181.3</ele>
        <time>2023-10-28T14:30:36Z</time>
      </trkpt>
      <trkpt lat="45.09683" lon="1.27661">
        <ele>181.2</ele>
        <time>2023-10-28T14:30:37Z</time>
      </trkpt>
      <trkpt lat="45.09686" lon="1.27661">
        <ele>181.1</ele>
        <time>2023-10-28T14:30:38Z</time>
      </trkpt>
      <trkpt lat="45.09688" lon="1.2766">
        <ele>181</ele>
        <time>2023-10-28T14:30:39Z</time>
      </trkpt>
      <trkpt lat="45.09691" lon="1.2766">
        <ele>180.9</ele>
        <time>2023-10-28T14:30:40Z</time>
      </trkpt>
      <trkpt lat="45.09693" lon="1.2766">
        <ele>180.8</ele>
        <time>2023-10-28T14:30:41Z</time>
      </trkpt>
      <trkpt lat="45.09695" lon="1.27659">
        <ele>180.7</ele>
        <time>2023-10-28T14:30:42Z</time>
      </trkpt>
      <trkpt lat="45.09698" lon="1.27659">
        <ele>180.6</ele>
        <time>2023-10-28T14:30:43Z</time>
      </trkpt>
      <trkpt lat="45.097" lon="1.27659">
        <ele>180.5</ele>
        <time>2023-10-28T14:30:44Z</time>
      </trkpt>
      <trkpt lat="45.09703" lon="1.27659">
        <ele>180.4</ele>
        <time>2023-10-28T14:30:45Z</time>
      </trkpt>
      <trkpt lat="45.09705" lon="1.27659">
        <ele>180.4</ele>
        <time>2023-10-28T14:30:46Z</time>
      </trkpt>
      <trkpt lat="45.09707" lon="1.27659">
        <ele>180.3</ele>
        <time>2023-10-28T14:30:47Z</time>
      </trkpt>
      <trkpt lat="45.0971" lon="1.27659">
        <ele>180.2</ele>
        <time>2023-10-28T14:30:48Z</time>
      </trkpt>
      <trkpt lat="45.09712" lon="1.2766">
        <ele>180.1</ele>
        <time>2023-10-28T14:30:49Z</time>
      </trkpt>
      <trkpt lat="45.09714" lon="1.2766">
        <ele>180</ele>
        <time>2023-10-28T14:30:50Z</time>
      </trkpt>
      <trkpt lat="45.09716" lon="1.27661">
        <ele>180</ele>
        <time>2023-10-28T14:30:51Z</time>
      </trkpt>
      <trkpt lat="45.09718" lon="1.27662">
        <ele>179.9</ele>
        <time>2023-10-28T14:30:52Z</time>
      </trkpt>
      <trkpt lat="45.09721" lon="1.27662">
        <ele>179.8</ele>
        <time>2023-10-28T14:30:53Z</time>
      </trkpt>
      <trkpt lat="45.09723" lon="1.27663">
        <ele>179.7</ele>
        <time>2023-10-28T14:30:54Z</time>
      </trkpt>
      <trkpt lat="45.09725" lon="1.27664">
        <ele>179.6</ele>
        <time>2023-10-28T14:30:55Z</time>
      </trkpt>
      <trkpt lat="45.09727" lon="1.27664">
        <ele>179.5</ele>
        <time>2023-10-28T14:30:56Z</time>
      </trkpt>
      <trkpt lat="45.09729" lon="1.27665">
        <ele>179.5</ele>
        <time>2023-10-28T14:30:57Z</time>
      </trkpt>
      <trkpt lat="45.09731" lon="1.27666">
        <ele>179.4</ele>
        <time>2023-10-28T14:30:58Z</time>
      </trkpt>
      <trkpt lat="45.09733" lon="1.27667">
        <ele>179.3</ele>
        <time>2023-10-28T14:30:59Z</time>
      </trkpt>
      <trkpt lat="45.09736" lon="1.27669">
        <ele>179.2</ele>
        <time>2023-10-28T14:31:00Z</time>
      </trkpt>
      <trkpt lat="45.09737" lon="1.2767">
        <ele>179</ele>
        <time>2023-10-28T14:31:01Z</time>
      </trkpt>
      <trkpt lat="45.09739" lon="1.27672">
        <ele>178.7</ele>
        <time>2023-10-28T14:31:02Z</time>
      </trkpt>
      <trkpt lat="45.09741" lon="1.27673">
        <ele>178.5</ele>
        <time>2023-10-28T14:31:03Z</time>
      </trkpt>
      <trkpt lat="45.09743" lon="1.27675">
        <ele>178.2</ele>
        <time>2023-10-28T14:31:04Z</time>
      </trkpt>
      <trkpt lat="45.09745" lon="1.27677">
        <ele>178</ele>
        <time>2023-10-28T14:31:05Z</time>
      </trkpt>
      <trkpt lat="45.09747" lon="1.27679">
        <ele>177.7</ele>
        <time>2023-10-28T14:31:06Z</time>
      </trkpt>
      <trkpt lat="45.09748" lon="1.27681">
        <ele>177.4</ele>
        <time>2023-10-28T14:31:07Z</time>
      </trkpt>
      <trkpt lat="45.0975" lon="1.27683">
        <ele>177.2</ele>
        <time>2023-10-28T14:31:08Z</time>
      </trkpt>
      <trkpt lat="45.09751" lon="1.27686">
        <ele>176.9</ele>
        <time>2023-10-28T14:31:09Z</time>
      </trkpt>
      <trkpt lat="45.09753" lon="1.27688">
        <ele>176.7</ele>
        <time>2023-10-28T14:31:10Z</time>
      </trkpt>
      <trkpt lat="45.09754" lon="1.2769">
        <ele>176.4</ele>
        <time>2023-10-28T14:31:11Z</time>
      </trkpt>
      <trkpt lat="45.09756" lon="1.27692">
        <ele>176.2</ele>
        <time>2023-10-28T14:31:12Z</time>
      </trkpt>
      <trkpt lat="45.09758" lon="1.27694">
        <ele>175.9</ele>
        <time>2023-10-28T14:31:13Z</time>
      </trkpt>
      <trkpt lat="45.09759" lon="1.27697">
        <ele>175.6</ele>
        <time>2023-10-28T14:31:14Z</time>
      </trkpt>
      <trkpt lat="45.09761" lon="1.27699">
        <ele>175.4</ele>
        <time>2023-10-28T14:31:15Z</time>
      </trkpt>
      <trkpt lat="45.09763" lon="1.27701">
        <ele>175.1</ele>
        <time>2023-10-28T14:31:16Z</time>
      </trkpt>
      <trkpt lat="45.09765" lon="1.27702">
        <ele>174.8</ele>
        <time>2023-10-28T14:31:17Z</time>
      </trkpt>
      <trkpt lat="45.09767" lon="1.27704">
        <ele>174.6</ele>
        <time>2023-10-28T14:31:18Z</time>
      </trkpt>
      <trkpt lat="45.09769" lon="1.27705">
        <ele>174.4</ele>
        <time>2023-10-28T14:31:19Z</time>
      </trkpt>
      <trkpt lat="45.09771" lon="1.27705">
        <ele>174.1</ele>
        <time>2023-10-28T14:31:20Z</time>
      </trkpt>
      <trkpt lat="45.09773" lon="1.27706">
        <ele>173.9</ele>
        <time>2023-10-28T14:31:21Z</time>
      </trkpt>
      <trkpt lat="45.09776" lon="1.27706">
        <ele>173.7</ele>
        <time>2023-10-28T14:31:22Z</time>
      </trkpt>
      <trkpt lat="45.09778" lon="1.27707">
        <ele>173.5</ele>
        <time>2023-10-28T14:31:23Z</time>
      </trkpt>
      <trkpt lat="45.0978" lon="1.27706">
        <ele>173.2</ele>
        <time>2023-10-28T14:31:24Z</time>
      </trkpt>
      <trkpt lat="45.09782" lon="1.27706">
        <ele>173</ele>
        <time>2023-10-28T14:31:25Z</time>
      </trkpt>
      <trkpt lat="45.09785" lon="1.27706">
        <ele>172.7</ele>
        <time>2023-10-28T14:31:26Z</time>
      </trkpt>
      <trkpt lat="45.09787" lon="1.27705">
        <ele>172.4</ele>
        <time>2023-10-28T14:31:27Z</time>
      </trkpt>
      <trkpt lat="45.09789" lon="1.27705">
        <ele>172.2</ele>
        <time>2023-10-28T14:31:28Z</time>
      </trkpt>
      <trkpt lat="45.09791" lon="1.27705">
        <ele>171.9</ele>
        <time>2023-10-28T14:31:29Z</time>
      </trkpt>
      <trkpt lat="45.09793" lon="1.27704">
        <ele>171.7</ele>
        <time>2023-10-28T14:31:30Z</time>
      </trkpt>
      <trkpt lat="45.09795" lon="1.27704">
        <ele>171.3</ele>
        <time>2023-10-28T14:31:31Z</time>
      </trkpt>
      <trkpt lat="45.09797" lon="1.27703">
        <ele>171.1</ele>
        <time>2023-10-28T14:31:32Z</time>
      </trkpt>
      <trkpt lat="45.098" lon="1.27702">
        <ele>170.8</ele>
        <time>2023-10-28T14:31:33Z</time>
      </trkpt>
      <trkpt lat="45.09802" lon="1.27701">
        <ele>170.5</ele>
        <time>2023-10-28T14:31:34Z</time>
      </trkpt>
      <trkpt lat="45.09803" lon="1.27701">
        <ele>170.2</ele>
        <time>2023-10-28T14:31:35Z</time>
      </trkpt>
      <trkpt lat="45.09805" lon="1.277">
        <ele>169.9</ele>
        <time>2023-10-28T14:31:36Z</time>
      </trkpt>
      <trkpt lat="45.09808" lon="1.27699">
        <ele>169.6</ele>
        <time>2023-10-28T14:31:37Z</time>
      </trkpt>
      <trkpt lat="45.0981" lon="1.27699">
        <ele>169.3</ele>
        <time>2023-10-28T14:31:38Z</time>
      </trkpt>
      <trkpt lat="45.09811" lon="1.27698">
        <ele>169.1</ele>
        <time>2023-10-28T14:31:39Z</time>
      </trkpt>
      <trkpt lat="45.09813" lon="1.27697">
        <ele>168.8</ele>
        <time>2023-10-28T14:31:40Z</time>
      </trkpt>
      <trkpt lat="45.09815" lon="1.27695">
        <ele>168.5</ele>
        <time>2023-10-28T14:31:41Z</time>
      </trkpt>
      <trkpt lat="45.09816" lon="1.27694">
        <ele>168.3</ele>
        <time>2023-10-28T14:31:42Z</time>
      </trkpt>
      <trkpt lat="45.09818" lon="1.27692">
        <ele>167.4</ele>
        <time>2023-10-28T14:31:43Z</time>
      </trkpt>
      <trkpt lat="45.0982" lon="1.2769">
        <ele>166.8</ele>
        <time>2023-10-28T14:31:44Z</time>
      </trkpt>
      <trkpt lat="45.09821" lon="1.27688">
        <ele>166.2</ele>
        <time>2023-10-28T14:31:45Z</time>
      </trkpt>
      <trkpt lat="45.09823" lon="1.27686">
        <ele>165.6</ele>
        <time>2023-10-28T14:31:46Z</time>
      </trkpt>
      <trkpt lat="45.09824" lon="1.27685">
        <ele>165</ele>
        <time>2023-10-28T14:31:47Z</time>
      </trkpt>
      <trkpt lat="45.09826" lon="1.27684">
        <ele>164.6</ele>
        <time>2023-10-28T14:31:48Z</time>
      </trkpt>
      <trkpt lat="45.09827" lon="1.27684">
        <ele>164.2</ele>
        <time>2023-10-28T14:31:49Z</time>
      </trkpt>
      <trkpt lat="45.09827" lon="1.27684">
        <ele>164.1</ele>
        <time>2023-10-28T14:31:50Z</time>
      </trkpt>
      <trkpt lat="45.09828" lon="1.27684">
        <ele>163.9</ele>
        <time>2023-10-28T14:31:51Z</time>
      </trkpt>
      <trkpt lat="45.09828" lon="1.27684">
        <ele>163.9</ele>
        <time>2023-10-28T14:31:52Z</time>
      </trkpt>
      <trkpt lat="45.09828" lon="1.27684">
        <ele>163.7</ele>
        <time>2023-10-28T14:31:53Z</time>
      </trkpt>
      <trkpt lat="45.09828" lon="1.27684">
        <ele>163.7</ele>
        <time>2023-10-28T14:31:54Z</time>
      </trkpt>
      <trkpt lat="45.09829" lon="1.27684">
        <ele>163.6</ele>
        <time>2023-10-28T14:31:55Z</time>
      </trkpt>
      <trkpt lat="45.09829" lon="1.27683">
        <ele>163.5</ele>
        <time>2023-10-28T14:31:56Z</time>
      </trkpt>
      <trkpt lat="45.0983" lon="1.27683">
        <ele>163.4</ele>
        <time>2023-10-28T14:31:57Z</time>
      </trkpt>
      <trkpt lat="45.09831" lon="1.27682">
        <ele>164.4</ele>
        <time>2023-10-28T14:31:58Z</time>
      </trkpt>
      <trkpt lat="45.09831" lon="1.27681">
        <ele>165.4</ele>
        <time>2023-10-28T14:31:59Z</time>
      </trkpt>
      <trkpt lat="45.09833" lon="1.27679">
        <ele>171.2</ele>
        <time>2023-10-28T14:32:00Z</time>
      </trkpt>
      <trkpt lat="45.09834" lon="1.27677">
        <ele>171</ele>
        <time>2023-10-28T14:32:01Z</time>
      </trkpt>
      <trkpt lat="45.09836" lon="1.27676">
        <ele>170.9</ele>
        <time>2023-10-28T14:32:02Z</time>
      </trkpt>
      <trkpt lat="45.09838" lon="1.27674">
        <ele>170.6</ele>
        <time>2023-10-28T14:32:03Z</time>
      </trkpt>
      <trkpt lat="45.0984" lon="1.27673">
        <ele>170.4</ele>
        <time>2023-10-28T14:32:04Z</time>
      </trkpt>
      <trkpt lat="45.09842" lon="1.27672">
        <ele>170.2</ele>
        <time>2023-10-28T14:32:05Z</time>
      </trkpt>
      <trkpt lat="45.09844" lon="1.27671">
        <ele>169.9</ele>
        <time>2023-10-28T14:32:06Z</time>
      </trkpt>
      <trkpt lat="45.09846" lon="1.27671">
        <ele>169.7</ele>
        <time>2023-10-28T14:32:07Z</time>
      </trkpt>
      <trkpt lat="45.09848" lon="1.2767">
        <ele>169.4</ele>
        <time>2023-10-28T14:32:08Z</time>
      </trkpt>
      <trkpt lat="45.0985" lon="1.27669">
        <ele>169.2</ele>
        <time>2023-10-28T14:32:09Z</time>
      </trkpt>
      <trkpt lat="45.09852" lon="1.27667">
        <ele>168.9</ele>
        <time>2023-10-28T14:32:10Z</time>
      </trkpt>
      <trkpt lat="45.09853" lon="1.27666">
        <ele>168.6</ele>
        <time>2023-10-28T14:32:11Z</time>
      </trkpt>
      <trkpt lat="45.09855" lon="1.27665">
        <ele>168.4</ele>
        <time>2023-10-28T14:32:12Z</time>
      </trkpt>
      <trkpt lat="45.09856" lon="1.27663">
        <ele>168.2</ele>
        <time>2023-10-28T14:32:13Z</time>
      </trkpt>
      <trkpt lat="45.09858" lon="1.27662">
        <ele>167.9</ele>
        <time>2023-10-28T14:32:14Z</time>
      </trkpt>
      <trkpt lat="45.0986" lon="1.27661">
        <ele>167.6</ele>
        <time>2023-10-28T14:32:15Z</time>
      </trkpt>
      <trkpt lat="45.09862" lon="1.27661">
        <ele>167.3</ele>
        <time>2023-10-28T14:32:16Z</time>
      </trkpt>
      <trkpt lat="45.09864" lon="1.2766">
        <ele>167</ele>
        <time>2023-10-28T14:32:17Z</time>
      </trkpt>
      <trkpt lat="45.09866" lon="1.27659">
        <ele>166.7</ele>
        <time>2023-10-28T14:32:18Z</time>
      </trkpt>
      <trkpt lat="45.09868" lon="1.27659">
        <ele>166.5</ele>
        <time>2023-10-28T14:32:19Z</time>
      </trkpt>
      <trkpt lat="45.09869" lon="1.27657">
        <ele>166.1</ele>
        <time>2023-10-28T14:32:20Z</time>
      </trkpt>
      <trkpt lat="45.09871" lon="1.27656">
        <ele>165.8</ele>
        <time>2023-10-28T14:32:21Z</time>
      </trkpt>
      <trkpt lat="45.09873" lon="1.27654">
        <ele>165.4</ele>
        <time>2023-10-28T14:32:22Z</time>
      </trkpt>
      <trkpt lat="45.09874" lon="1.27652">
        <ele>165.1</ele>
        <time>2023-10-28T14:32:23Z</time>
      </trkpt>
      <trkpt lat="45.09876" lon="1.27651">
        <ele>164.7</ele>
        <time>2023-10-28T14:32:24Z</time>
      </trkpt>
      <trkpt lat="45.09877" lon="1.27649">
        <ele>164.3</ele>
        <time>2023-10-28T14:32:25Z</time>
      </trkpt>
      <trkpt lat="45.09879" lon="1.27648">
        <ele>163.9</ele>
        <time>2023-10-28T14:32:26Z</time>
      </trkpt>
      <trkpt lat="45.0988" lon="1.27647">
        <ele>163.6</ele>
        <time>2023-10-28T14:32:27Z</time>
      </trkpt>
      <trkpt lat="45.09881" lon="1.27647">
        <ele>163.4</ele>
        <time>2023-10-28T14:32:28Z</time>
      </trkpt>
      <trkpt lat="45.09882" lon="1.27647">
        <ele>163.2</ele>
        <time>2023-10-28T14:32:29Z</time>
      </trkpt>
      <trkpt lat="45.09882" lon="1.27648">
        <ele>163</ele>
        <time>2023-10-28T14:32:30Z</time>
      </trkpt>
      <trkpt lat="45.09883" lon="1.2765">
        <ele>162.8</ele>
        <time>2023-10-28T14:32:31Z</time>
      </trkpt>
      <trkpt lat="45.09883" lon="1.27652">
        <ele>162.5</ele>
        <time>2023-10-28T14:32:32Z</time>
      </trkpt>
      <trkpt lat="45.09883" lon="1.27654">
        <ele>162.1</ele>
        <time>2023-10-28T14:32:33Z</time>
      </trkpt>
      <trkpt lat="45.09883" lon="1.27657">
        <ele>161.7</ele>
        <time>2023-10-28T14:32:34Z</time>
      </trkpt>
      <trkpt lat="45.09884" lon="1.2766">
        <ele>161.3</ele>
        <time>2023-10-28T14:32:35Z</time>
      </trkpt>
      <trkpt lat="45.09884" lon="1.27663">
        <ele>160.9</ele>
        <time>2023-10-28T14:32:36Z</time>
      </trkpt>
      <trkpt lat="45.09884" lon="1.27666">
        <ele>160.4</ele>
        <time>2023-10-28T14:32:37Z</time>
      </trkpt>
      <trkpt lat="45.09884" lon="1.27669">
        <ele>160.1</ele>
        <time>2023-10-28T14:32:38Z</time>
      </trkpt>
      <trkpt lat="45.09884" lon="1.27671">
        <ele>159.7</ele>
        <time>2023-10-28T14:32:39Z</time>
      </trkpt>
      <trkpt lat="45.09884" lon="1.27674">
        <ele>159.3</ele>
        <time>2023-10-28T14:32:40Z</time>
      </trkpt>
      <trkpt lat="45.09884" lon="1.27676">
        <ele>159</ele>
        <time>2023-10-28T14:32:41Z</time>
      </trkpt>
      <trkpt lat="45.09884" lon="1.27679">
        <ele>158.6</ele>
        <time>2023-10-28T14:32:42Z</time>
      </trkpt>
      <trkpt lat="45.09884" lon="1.27682">
        <ele>158.2</ele>
        <time>2023-10-28T14:32:43Z</time>
      </trkpt>
      <trkpt lat="45.09884" lon="1.27685">
        <ele>157.8</ele>
        <time>2023-10-28T14:32:44Z</time>
      </trkpt>
      <trkpt lat="45.09884" lon="1.27688">
        <ele>157.4</ele>
        <time>2023-10-28T14:32:45Z</time>
      </trkpt>
      <trkpt lat="45.09885" lon="1.27691">
        <ele>156.9</ele>
        <time>2023-10-28T14:32:46Z</time>
      </trkpt>
      <trkpt lat="45.09885" lon="1.27694">
        <ele>156.5</ele>
        <time>2023-10-28T14:32:47Z</time>
      </trkpt>
      <trkpt lat="45.09886" lon="1.27697">
        <ele>156</ele>
        <time>2023-10-28T14:32:48Z</time>
      </trkpt>
      <trkpt lat="45.09887" lon="1.277">
        <ele>155.6</ele>
        <time>2023-10-28T14:32:49Z</time>
      </trkpt>
      <trkpt lat="45.09887" lon="1.27703">
        <ele>155.2</ele>
        <time>2023-10-28T14:32:50Z</time>
      </trkpt>
      <trkpt lat="45.09888" lon="1.27706">
        <ele>154.8</ele>
        <time>2023-10-28T14:32:51Z</time>
      </trkpt>
      <trkpt lat="45.09888" lon="1.27709">
        <ele>154.4</ele>
        <time>2023-10-28T14:32:52Z</time>
      </trkpt>
      <trkpt lat="45.09889" lon="1.27712">
        <ele>153.9</ele>
        <time>2023-10-28T14:32:53Z</time>
      </trkpt>
      <trkpt lat="45.09889" lon="1.27714">
        <ele>153.6</ele>
        <time>2023-10-28T14:32:54Z</time>
      </trkpt>
      <trkpt lat="45.09889" lon="1.27717">
        <ele>153.3</ele>
        <time>2023-10-28T14:32:55Z</time>
      </trkpt>
      <trkpt lat="45.09889" lon="1.2772">
        <ele>152.9</ele>
        <time>2023-10-28T14:32:56Z</time>
      </trkpt>
      <trkpt lat="45.09889" lon="1.27722">
        <ele>152.6</ele>
        <time>2023-10-28T14:32:57Z</time>
      </trkpt>
      <trkpt lat="45.09889" lon="1.27725">
        <ele>152.3</ele>
        <time>2023-10-28T14:32:58Z</time>
      </trkpt>
      <trkpt lat="45.09889" lon="1.27727">
        <ele>152</ele>
        <time>2023-10-28T14:32:59Z</time>
      </trkpt>
      <trkpt lat="45.0989" lon="1.2773">
        <ele>151.6</ele>
        <time>2023-10-28T14:33:00Z</time>
      </trkpt>
      <trkpt lat="45.0989" lon="1.27733">
        <ele>151.2</ele>
        <time>2023-10-28T14:33:01Z</time>
      </trkpt>
      <trkpt lat="45.0989" lon="1.27736">
        <ele>150.8</ele>
        <time>2023-10-28T14:33:02Z</time>
      </trkpt>
      <trkpt lat="45.09891" lon="1.27739">
        <ele>150.5</ele>
        <time>2023-10-28T14:33:03Z</time>
      </trkpt>
      <trkpt lat="45.09892" lon="1.27742">
        <ele>150.1</ele>
        <time>2023-10-28T14:33:04Z</time>
      </trkpt>
      <trkpt lat="45.09893" lon="1.27745">
        <ele>149.7</ele>
        <time>2023-10-28T14:33:05Z</time>
      </trkpt>
      <trkpt lat="45.09894" lon="1.27748">
        <ele>149.3</ele>
        <time>2023-10-28T14:33:06Z</time>
      </trkpt>
      <trkpt lat="45.09895" lon="1.27751">
        <ele>148.9</ele>
        <time>2023-10-28T14:33:07Z</time>
      </trkpt>
      <trkpt lat="45.09895" lon="1.27753">
        <ele>148.6</ele>
        <time>2023-10-28T14:33:08Z</time>
      </trkpt>
      <trkpt lat="45.09896" lon="1.27756">
        <ele>148.2</ele>
        <time>2023-10-28T14:33:09Z</time>
      </trkpt>
      <trkpt lat="45.09896" lon="1.27759">
        <ele>147.9</ele>
        <time>2023-10-28T14:33:10Z</time>
      </trkpt>
      <trkpt lat="45.09896" lon="1.27762">
        <ele>147.6</ele>
        <time>2023-10-28T14:33:11Z</time>
      </trkpt>
      <trkpt lat="45.09897" lon="1.27764">
        <ele>147.2</ele>
        <time>2023-10-28T14:33:12Z</time>
      </trkpt>
      <trkpt lat="45.09898" lon="1.27767">
        <ele>146.9</ele>
        <time>2023-10-28T14:33:13Z</time>
      </trkpt>
      <trkpt lat="45.09898" lon="1.27769">
        <ele>146.6</ele>
        <time>2023-10-28T14:33:14Z</time>
      </trkpt>
      <trkpt lat="45.09898" lon="1.27772">
        <ele>146.3</ele>
        <time>2023-10-28T14:33:15Z</time>
      </trkpt>
      <trkpt lat="45.09899" lon="1.27774">
        <ele>145.9</ele>
        <time>2023-10-28T14:33:16Z</time>
      </trkpt>
      <trkpt lat="45.099" lon="1.27777">
        <ele>145.6</ele>
        <time>2023-10-28T14:33:17Z</time>
      </trkpt>
      <trkpt lat="45.09901" lon="1.27779">
        <ele>145.3</ele>
        <time>2023-10-28T14:33:18Z</time>
      </trkpt>
      <trkpt lat="45.09901" lon="1.27782">
        <ele>144.9</ele>
        <time>2023-10-28T14:33:19Z</time>
      </trkpt>
      <trkpt lat="45.09902" lon="1.27784">
        <ele>144.6</ele>
        <time>2023-10-28T14:33:20Z</time>
      </trkpt>
      <trkpt lat="45.09903" lon="1.27787">
        <ele>144.3</ele>
        <time>2023-10-28T14:33:21Z</time>
      </trkpt>
      <trkpt lat="45.09903" lon="1.27789">
        <ele>144</ele>
        <time>2023-10-28T14:33:22Z</time>
      </trkpt>
      <trkpt lat="45.09903" lon="1.27792">
        <ele>143.7</ele>
        <time>2023-10-28T14:33:23Z</time>
      </trkpt>
      <trkpt lat="45.09904" lon="1.27794">
        <ele>143.3</ele>
        <time>2023-10-28T14:33:24Z</time>
      </trkpt>
      <trkpt lat="45.09904" lon="1.27797">
        <ele>143</ele>
        <time>2023-10-28T14:33:25Z</time>
      </trkpt>
      <trkpt lat="45.09905" lon="1.27799">
        <ele>142.7</ele>
        <time>2023-10-28T14:33:26Z</time>
      </trkpt>
      <trkpt lat="45.09905" lon="1.27802">
        <ele>142.3</ele>
        <time>2023-10-28T14:33:27Z</time>
      </trkpt>
      <trkpt lat="45.09905" lon="1.27804">
        <ele>142</ele>
        <time>2023-10-28T14:33:28Z</time>
      </trkpt>
      <trkpt lat="45.09906" lon="1.27806">
        <ele>141.7</ele>
        <time>2023-10-28T14:33:29Z</time>
      </trkpt>
      <trkpt lat="45.09906" lon="1.27808">
        <ele>141.4</ele>
        <time>2023-10-28T14:33:30Z</time>
      </trkpt>
      <trkpt lat="45.09907" lon="1.2781">
        <ele>141.1</ele>
        <time>2023-10-28T14:33:31Z</time>
      </trkpt>
      <trkpt lat="45.09908" lon="1.27813">
        <ele>140.7</ele>
        <time>2023-10-28T14:33:32Z</time>
      </trkpt>
      <trkpt lat="45.09909" lon="1.27815">
        <ele>140.3</ele>
        <time>2023-10-28T14:33:33Z</time>
      </trkpt>
      <trkpt lat="45.09911" lon="1.27817">
        <ele>139.9</ele>
        <time>2023-10-28T14:33:34Z</time>
      </trkpt>
      <trkpt lat="45.09912" lon="1.2782">
        <ele>139.5</ele>
        <time>2023-10-28T14:33:35Z</time>
      </trkpt>
      <trkpt lat="45.09913" lon="1.27822">
        <ele>139.1</ele>
        <time>2023-10-28T14:33:36Z</time>
      </trkpt>
      <trkpt lat="45.09914" lon="1.27825">
        <ele>138.7</ele>
        <time>2023-10-28T14:33:37Z</time>
      </trkpt>
      <trkpt lat="45.09915" lon="1.27827">
        <ele>138.3</ele>
        <time>2023-10-28T14:33:38Z</time>
      </trkpt>
      <trkpt lat="45.09916" lon="1.2783">
        <ele>137.9</ele>
        <time>2023-10-28T14:33:39Z</time>
      </trkpt>
      <trkpt lat="45.09917" lon="1.27832">
        <ele>137.6</ele>
        <time>2023-10-28T14:33:40Z</time>
      </trkpt>
      <trkpt lat="45.09918" lon="1.27834">
        <ele>137.2</ele>
        <time>2023-10-28T14:33:41Z</time>
      </trkpt>
      <trkpt lat="45.09919" lon="1.27836">
        <ele>136.9</ele>
        <time>2023-10-28T14:33:42Z</time>
      </trkpt>
      <trkpt lat="45.0992" lon="1.27837">
        <ele>136.6</ele>
        <time>2023-10-28T14:33:43Z</time>
      </trkpt>
      <trkpt lat="45.09921" lon="1.27839">
        <ele>136.3</ele>
        <time>2023-10-28T14:33:44Z</time>
      </trkpt>
      <trkpt lat="45.09921" lon="1.27841">
        <ele>136</ele>
        <time>2023-10-28T14:33:45Z</time>
      </trkpt>
      <trkpt lat="45.09922" lon="1.27843">
        <ele>135.6</ele>
        <time>2023-10-28T14:33:46Z</time>
      </trkpt>
      <trkpt lat="45.09923" lon="1.27845">
        <ele>135.3</ele>
        <time>2023-10-28T14:33:47Z</time>
      </trkpt>
      <trkpt lat="45.09924" lon="1.27848">
        <ele>135</ele>
        <time>2023-10-28T14:33:48Z</time>
      </trkpt>
      <trkpt lat="45.09924" lon="1.2785">
        <ele>134.7</ele>
        <time>2023-10-28T14:33:49Z</time>
      </trkpt>
      <trkpt lat="45.09925" lon="1.27852">
        <ele>134.4</ele>
        <time>2023-10-28T14:33:50Z</time>
      </trkpt>
      <trkpt lat="45.09926" lon="1.27854">
        <ele>134.1</ele>
        <time>2023-10-28T14:33:51Z</time>
      </trkpt>
      <trkpt lat="45.09927" lon="1.27856">
        <ele>133.7</ele>
        <time>2023-10-28T14:33:52Z</time>
      </trkpt>
      <trkpt lat="45.09928" lon="1.27858">
        <ele>133.4</ele>
        <time>2023-10-28T14:33:53Z</time>
      </trkpt>
      <trkpt lat="45.09929" lon="1.2786">
        <ele>133</ele>
        <time>2023-10-28T14:33:54Z</time>
      </trkpt>
      <trkpt lat="45.0993" lon="1.27862">
        <ele>132.7</ele>
        <time>2023-10-28T14:33:55Z</time>
      </trkpt>
      <trkpt lat="45.09931" lon="1.27864">
        <ele>132.3</ele>
        <time>2023-10-28T14:33:56Z</time>
      </trkpt>
      <trkpt lat="45.09932" lon="1.27866">
        <ele>132</ele>
        <time>2023-10-28T14:33:57Z</time>
      </trkpt>
      <trkpt lat="45.09932" lon="1.27869">
        <ele>131.6</ele>
        <time>2023-10-28T14:33:58Z</time>
      </trkpt>
      <trkpt lat="45.09933" lon="1.27871">
        <ele>131.2</ele>
        <time>2023-10-28T14:33:59Z</time>
      </trkpt>
      <trkpt lat="45.09934" lon="1.27874">
        <ele>130.9</ele>
        <time>2023-10-28T14:34:00Z</time>
      </trkpt>
      <trkpt lat="45.09935" lon="1.27876">
        <ele>130.5</ele>
        <time>2023-10-28T14:34:01Z</time>
      </trkpt>
      <trkpt lat="45.09936" lon="1.27878">
        <ele>130.1</ele>
        <time>2023-10-28T14:34:02Z</time>
      </trkpt>
      <trkpt lat="45.09937" lon="1.27881">
        <ele>129.8</ele>
        <time>2023-10-28T14:34:03Z</time>
      </trkpt>
      <trkpt lat="45.09938" lon="1.27883">
        <ele>129.4</ele>
        <time>2023-10-28T14:34:04Z</time>
      </trkpt>
      <trkpt lat="45.09938" lon="1.27885">
        <ele>129.1</ele>
        <time>2023-10-28T14:34:05Z</time>
      </trkpt>
      <trkpt lat="45.0994" lon="1.27887">
        <ele>128.7</ele>
        <time>2023-10-28T14:34:06Z</time>
      </trkpt>
      <trkpt lat="45.0994" lon="1.2789">
        <ele>128.3</ele>
        <time>2023-10-28T14:34:07Z</time>
      </trkpt>
      <trkpt lat="45.09941" lon="1.27892">
        <ele>127.9</ele>
        <time>2023-10-28T14:34:08Z</time>
      </trkpt>
      <trkpt lat="45.09942" lon="1.27895">
        <ele>127.5</ele>
        <time>2023-10-28T14:34:09Z</time>
      </trkpt>
      <trkpt lat="45.09943" lon="1.27897">
        <ele>127.2</ele>
        <time>2023-10-28T14:34:10Z</time>
      </trkpt>
      <trkpt lat="45.09943" lon="1.279">
        <ele>126.8</ele>
        <time>2023-10-28T14:34:11Z</time>
      </trkpt>
      <trkpt lat="45.09945" lon="1.27902">
        <ele>126.4</ele>
        <time>2023-10-28T14:34:12Z</time>
      </trkpt>
      <trkpt lat="45.09945" lon="1.27905">
        <ele>126</ele>
        <time>2023-10-28T14:34:13Z</time>
      </trkpt>
      <trkpt lat="45.09946" lon="1.27907">
        <ele>125.6</ele>
        <time>2023-10-28T14:34:14Z</time>
      </trkpt>
      <trkpt lat="45.09947" lon="1.2791">
        <ele>125.2</ele>
        <time>2023-10-28T14:34:15Z</time>
      </trkpt>
      <trkpt lat="45.09948" lon="1.27913">
        <ele>124.8</ele>
        <time>2023-10-28T14:34:16Z</time>
      </trkpt>
      <trkpt lat="45.09948" lon="1.27915">
        <ele>124.5</ele>
        <time>2023-10-28T14:34:17Z</time>
      </trkpt>
      <trkpt lat="45.09949" lon="1.27918">
        <ele>124.1</ele>
        <time>2023-10-28T14:34:18Z</time>
      </trkpt>
      <trkpt lat="45.0995" lon="1.27921">
        <ele>123.7</ele>
        <time>2023-10-28T14:34:19Z</time>
      </trkpt>
      <trkpt lat="45.09951" lon="1.27923">
        <ele>123.3</ele>
        <time>2023-10-28T14:34:20Z</time>
      </trkpt>
      <trkpt lat="45.09952" lon="1.27925">
        <ele>122.9</ele>
        <time>2023-10-28T14:34:21Z</time>
      </trkpt>
      <trkpt lat="45.09953" lon="1.27927">
        <ele>122.6</ele>
        <time>2023-10-28T14:34:22Z</time>
      </trkpt>
      <trkpt lat="45.09954" lon="1.27929">
        <ele>122.2</ele>
        <time>2023-10-28T14:34:23Z</time>
      </trkpt>
      <trkpt lat="45.09956" lon="1.2793">
        <ele>121.8</ele>
        <time>2023-10-28T14:34:24Z</time>
      </trkpt>
      <trkpt lat="45.09958" lon="1.27932">
        <ele>121.5</ele>
        <time>2023-10-28T14:34:25Z</time>
      </trkpt>
      <trkpt lat="45.09959" lon="1.27933">
        <ele>121.1</ele>
        <time>2023-10-28T14:34:26Z</time>
      </trkpt>
      <trkpt lat="45.09961" lon="1.27933">
        <ele>120.8</ele>
        <time>2023-10-28T14:34:27Z</time>
      </trkpt>
      <trkpt lat="45.09962" lon="1.27933">
        <ele>120.6</ele>
        <time>2023-10-28T14:34:28Z</time>
      </trkpt>
      <trkpt lat="45.09963" lon="1.27933">
        <ele>120.4</ele>
        <time>2023-10-28T14:34:29Z</time>
      </trkpt>
      <trkpt lat="45.09964" lon="1.27933">
        <ele>120.2</ele>
        <time>2023-10-28T14:34:30Z</time>
      </trkpt>
      <trkpt lat="45.09965" lon="1.27932">
        <ele>120.2</ele>
        <time>2023-10-28T14:34:31Z</time>
      </trkpt>
      <trkpt lat="45.09966" lon="1.27931">
        <ele>120.1</ele>
        <time>2023-10-28T14:34:32Z</time>
      </trkpt>
      <trkpt lat="45.09966" lon="1.27931">
        <ele>120.1</ele>
        <time>2023-10-28T14:34:33Z</time>
      </trkpt>
      <trkpt lat="45.09966" lon="1.2793">
        <ele>120.1</ele>
        <time>2023-10-28T14:34:34Z</time>
      </trkpt>
      <trkpt lat="45.09966" lon="1.2793">
        <ele>120.1</ele>
        <time>2023-10-28T14:34:35Z</time>
      </trkpt>
      <trkpt lat="45.09967" lon="1.2793">
        <ele>120</ele>
        <time>2023-10-28T14:34:36Z</time>
      </trkpt>
      <trkpt lat="45.09967" lon="1.2793">
        <ele>120</ele>
        <time>2023-10-28T14:34:37Z</time>
      </trkpt>
      <trkpt lat="45.09967" lon="1.2793">
        <ele>120</ele>
        <time>2023-10-28T14:34:38Z</time>
      </trkpt>
      <trkpt lat="45.09967" lon="1.2793">
        <ele>120</ele>
        <time>2023-10-28T14:34:39Z</time>
      </trkpt>
      <trkpt lat="45.09968" lon="1.27929">
        <ele>119.9</ele>
        <time>2023-10-28T14:34:40Z</time>
      </trkpt>
      <trkpt lat="45.09968" lon="1.27929">
        <ele>119.9</ele>
        <time>2023-10-28T14:34:41Z</time>
      </trkpt>
      <trkpt lat="45.09969" lon="1.27929">
        <ele>119.9</ele>
        <time>2023-10-28T14:34:42Z</time>
      </trkpt>
      <trkpt lat="45.09969" lon="1.27929">
        <ele>119.9</ele>
        <time>2023-10-28T14:34:43Z</time>
      </trkpt>
      <trkpt lat="45.0997" lon="1.2793">
        <ele>119.8</ele>
        <time>2023-10-28T14:34:44Z</time>
      </trkpt>
      <trkpt lat="45.09971" lon="1.2793">
        <ele>119.8</ele>
        <time>2023-10-28T14:34:45Z</time>
      </trkpt>
      <trkpt lat="45.09971" lon="1.27931">
        <ele>119.8</ele>
        <time>2023-10-28T14:34:46Z</time>
      </trkpt>
      <trkpt lat="45.09972" lon="1.27932">
        <ele>119.7</ele>
        <time>2023-10-28T14:34:47Z</time>
      </trkpt>
      <trkpt lat="45.09974" lon="1.27933">
        <ele>119.6</ele>
        <time>2023-10-28T14:34:48Z</time>
      </trkpt>
      <trkpt lat="45.09975" lon="1.27934">
        <ele>119.6</ele>
        <time>2023-10-28T14:34:49Z</time>
      </trkpt>
      <trkpt lat="45.09977" lon="1.27935">
        <ele>119.5</ele>
        <time>2023-10-28T14:34:50Z</time>
      </trkpt>
      <trkpt lat="45.09978" lon="1.27936">
        <ele>119.5</ele>
        <time>2023-10-28T14:34:51Z</time>
      </trkpt>
      <trkpt lat="45.0998" lon="1.27937">
        <ele>119.5</ele>
        <time>2023-10-28T14:34:52Z</time>
      </trkpt>
      <trkpt lat="45.09982" lon="1.27938">
        <ele>119.5</ele>
        <time>2023-10-28T14:34:53Z</time>
      </trkpt>
      <trkpt lat="45.09983" lon="1.27939">
        <ele>119.5</ele>
        <time>2023-10-28T14:34:54Z</time>
      </trkpt>
      <trkpt lat="45.09986" lon="1.27941">
        <ele>119.5</ele>
        <time>2023-10-28T14:34:55Z</time>
      </trkpt>
      <trkpt lat="45.09986" lon="1.27942">
        <ele>119.5</ele>
        <time>2023-10-28T14:34:56Z</time>
      </trkpt>
      <trkpt lat="45.09987" lon="1.27943">
        <ele>119.5</ele>
        <time>2023-10-28T14:34:57Z</time>
      </trkpt>
      <trkpt lat="45.09987" lon="1.27943">
        <ele>119.5</ele>
        <time>2023-10-28T14:34:58Z</time>
      </trkpt>
      <trkpt lat="45.09988" lon="1.27944">
        <ele>119.5</ele>
        <time>2023-10-28T14:34:59Z</time>
      </trkpt>
      <trkpt lat="45.09988" lon="1.27945">
        <ele>119.5</ele>
        <time>2023-10-28T14:35:00Z</time>
      </trkpt>
      <trkpt lat="45.09989" lon="1.27945">
        <ele>119.6</ele>
        <time>2023-10-28T14:35:01Z</time>
      </trkpt>
      <trkpt lat="45.09989" lon="1.27946">
        <ele>119.6</ele>
        <time>2023-10-28T14:35:02Z</time>
      </trkpt>
      <trkpt lat="45.0999" lon="1.27947">
        <ele>119.6</ele>
        <time>2023-10-28T14:35:03Z</time>
      </trkpt>
      <trkpt lat="45.0999" lon="1.27947">
        <ele>119.6</ele>
        <time>2023-10-28T14:35:04Z</time>
      </trkpt>
      <trkpt lat="45.09991" lon="1.27948">
        <ele>119.6</ele>
        <time>2023-10-28T14:35:05Z</time>
      </trkpt>
      <trkpt lat="45.09991" lon="1.27949">
        <ele>119.6</ele>
        <time>2023-10-28T14:35:06Z</time>
      </trkpt>
      <trkpt lat="45.09992" lon="1.27949">
        <ele>119.7</ele>
        <time>2023-10-28T14:35:07Z</time>
      </trkpt>
      <trkpt lat="45.09992" lon="1.27951">
        <ele>119.8</ele>
        <time>2023-10-28T14:35:08Z</time>
      </trkpt>
      <trkpt lat="45.09992" lon="1.27953">
        <ele>120.1</ele>
        <time>2023-10-28T14:35:09Z</time>
      </trkpt>
      <trkpt lat="45.09992" lon="1.27956">
        <ele>120.3</ele>
        <time>2023-10-28T14:35:10Z</time>
      </trkpt>
      <trkpt lat="45.09992" lon="1.27958">
        <ele>120.5</ele>
        <time>2023-10-28T14:35:11Z</time>
      </trkpt>
      <trkpt lat="45.09992" lon="1.2796">
        <ele>120.7</ele>
        <time>2023-10-28T14:35:12Z</time>
      </trkpt>
      <trkpt lat="45.09992" lon="1.27962">
        <ele>120.9</ele>
        <time>2023-10-28T14:35:13Z</time>
      </trkpt>
      <trkpt lat="45.09992" lon="1.27964">
        <ele>121.1</ele>
        <time>2023-10-28T14:35:14Z</time>
      </trkpt>
      <trkpt lat="45.09991" lon="1.27966">
        <ele>121.4</ele>
        <time>2023-10-28T14:35:15Z</time>
      </trkpt>
      <trkpt lat="45.09991" lon="1.27968">
        <ele>121.6</ele>
        <time>2023-10-28T14:35:16Z</time>
      </trkpt>
      <trkpt lat="45.09991" lon="1.2797">
        <ele>121.8</ele>
        <time>2023-10-28T14:35:17Z</time>
      </trkpt>
      <trkpt lat="45.09991" lon="1.27972">
        <ele>122.1</ele>
        <time>2023-10-28T14:35:18Z</time>
      </trkpt>
      <trkpt lat="45.09991" lon="1.27974">
        <ele>122.3</ele>
        <time>2023-10-28T14:35:19Z</time>
      </trkpt>
      <trkpt lat="45.09991" lon="1.27976">
        <ele>122.6</ele>
        <time>2023-10-28T14:35:20Z</time>
      </trkpt>
      <trkpt lat="45.09991" lon="1.27978">
        <ele>122.8</ele>
        <time>2023-10-28T14:35:21Z</time>
      </trkpt>
      <trkpt lat="45.0999" lon="1.2798">
        <ele>123</ele>
        <time>2023-10-28T14:35:22Z</time>
      </trkpt>
      <trkpt lat="45.0999" lon="1.27982">
        <ele>123.2</ele>
        <time>2023-10-28T14:35:23Z</time>
      </trkpt>
      <trkpt lat="45.0999" lon="1.27984">
        <ele>123.5</ele>
        <time>2023-10-28T14:35:24Z</time>
      </trkpt>
      <trkpt lat="45.0999" lon="1.27986">
        <ele>123.7</ele>
        <time>2023-10-28T14:35:25Z</time>
      </trkpt>
      <trkpt lat="45.0999" lon="1.27988">
        <ele>123.9</ele>
        <time>2023-10-28T14:35:26Z</time>
      </trkpt>
      <trkpt lat="45.0999" lon="1.27989">
        <ele>124</ele>
        <time>2023-10-28T14:35:27Z</time>
      </trkpt>
      <trkpt lat="45.09989" lon="1.27989">
        <ele>124.1</ele>
        <time>2023-10-28T14:35:28Z</time>
      </trkpt>
      <trkpt lat="45.09989" lon="1.2799">
        <ele>124.2</ele>
        <time>2023-10-28T14:35:29Z</time>
      </trkpt>
      <trkpt lat="45.09988" lon="1.27992">
        <ele>124.4</ele>
        <time>2023-10-28T14:35:30Z</time>
      </trkpt>
      <trkpt lat="45.09988" lon="1.27993">
        <ele>124.6</ele>
        <time>2023-10-28T14:35:31Z</time>
      </trkpt>
      <trkpt lat="45.09988" lon="1.27994">
        <ele>124.7</ele>
        <time>2023-10-28T14:35:32Z</time>
      </trkpt>
      <trkpt lat="45.09988" lon="1.27996">
        <ele>124.9</ele>
        <time>2023-10-28T14:35:33Z</time>
      </trkpt>
      <trkpt lat="45.09988" lon="1.27998">
        <ele>125.1</ele>
        <time>2023-10-28T14:35:34Z</time>
      </trkpt>
      <trkpt lat="45.09989" lon="1.28">
        <ele>125.3</ele>
        <time>2023-10-28T14:35:35Z</time>
      </trkpt>
      <trkpt lat="45.0999" lon="1.28002">
        <ele>125.6</ele>
        <time>2023-10-28T14:35:36Z</time>
      </trkpt>
      <trkpt lat="45.0999" lon="1.28004">
        <ele>125.8</ele>
        <time>2023-10-28T14:35:37Z</time>
      </trkpt>
      <trkpt lat="45.0999" lon="1.28006">
        <ele>126</ele>
        <time>2023-10-28T14:35:38Z</time>
      </trkpt>
      <trkpt lat="45.09991" lon="1.28008">
        <ele>126.3</ele>
        <time>2023-10-28T14:35:39Z</time>
      </trkpt>
      <trkpt lat="45.09991" lon="1.2801">
        <ele>126.5</ele>
        <time>2023-10-28T14:35:40Z</time>
      </trkpt>
      <trkpt lat="45.09992" lon="1.28012">
        <ele>126.7</ele>
        <time>2023-10-28T14:35:41Z</time>
      </trkpt>
      <trkpt lat="45.09992" lon="1.28014">
        <ele>126.9</ele>
        <time>2023-10-28T14:35:42Z</time>
      </trkpt>
      <trkpt lat="45.09992" lon="1.28016">
        <ele>127.1</ele>
        <time>2023-10-28T14:35:43Z</time>
      </trkpt>
      <trkpt lat="45.09992" lon="1.28018">
        <ele>127.4</ele>
        <time>2023-10-28T14:35:44Z</time>
      </trkpt>
      <trkpt lat="45.09993" lon="1.2802">
        <ele>127.6</ele>
        <time>2023-10-28T14:35:45Z</time>
      </trkpt>
      <trkpt lat="45.09994" lon="1.28022">
        <ele>127.9</ele>
        <time>2023-10-28T14:35:46Z</time>
      </trkpt>
      <trkpt lat="45.09994" lon="1.28024">
        <ele>128.1</ele>
        <time>2023-10-28T14:35:47Z</time>
      </trkpt>
      <trkpt lat="45.09995" lon="1.28026">
        <ele>128.4</ele>
        <time>2023-10-28T14:35:48Z</time>
      </trkpt>
      <trkpt lat="45.09995" lon="1.28028">
        <ele>128.6</ele>
        <time>2023-10-28T14:35:49Z</time>
      </trkpt>
      <trkpt lat="45.09995" lon="1.2803">
        <ele>128.8</ele>
        <time>2023-10-28T14:35:50Z</time>
      </trkpt>
      <trkpt lat="45.09995" lon="1.28032">
        <ele>129</ele>
        <time>2023-10-28T14:35:51Z</time>
      </trkpt>
      <trkpt lat="45.09996" lon="1.28034">
        <ele>129.2</ele>
        <time>2023-10-28T14:35:52Z</time>
      </trkpt>
      <trkpt lat="45.09996" lon="1.28035">
        <ele>129.4</ele>
        <time>2023-10-28T14:35:53Z</time>
      </trkpt>
      <trkpt lat="45.09996" lon="1.28037">
        <ele>129.6</ele>
        <time>2023-10-28T14:35:54Z</time>
      </trkpt>
      <trkpt lat="45.09996" lon="1.28038">
        <ele>129.8</ele>
        <time>2023-10-28T14:35:55Z</time>
      </trkpt>
      <trkpt lat="45.09996" lon="1.2804">
        <ele>130</ele>
        <time>2023-10-28T14:35:56Z</time>
      </trkpt>
      <trkpt lat="45.09996" lon="1.28042">
        <ele>130.2</ele>
        <time>2023-10-28T14:35:57Z</time>
      </trkpt>
      <trkpt lat="45.09996" lon="1.28044">
        <ele>130.4</ele>
        <time>2023-10-28T14:35:58Z</time>
      </trkpt>
      <trkpt lat="45.09996" lon="1.28046">
        <ele>130.6</ele>
        <time>2023-10-28T14:35:59Z</time>
      </trkpt>
      <trkpt lat="45.09997" lon="1.28047">
        <ele>130.8</ele>
        <time>2023-10-28T14:36:00Z</time>
      </trkpt>
      <trkpt lat="45.09997" lon="1.28049">
        <ele>131</ele>
        <time>2023-10-28T14:36:01Z</time>
      </trkpt>
      <trkpt lat="45.09997" lon="1.28051">
        <ele>131.3</ele>
        <time>2023-10-28T14:36:02Z</time>
      </trkpt>
      <trkpt lat="45.09998" lon="1.28053">
        <ele>131.5</ele>
        <time>2023-10-28T14:36:03Z</time>
      </trkpt>
      <trkpt lat="45.09998" lon="1.28054">
        <ele>131.6</ele>
        <time>2023-10-28T14:36:04Z</time>
      </trkpt>
      <trkpt lat="45.09998" lon="1.28056">
        <ele>131.8</ele>
        <time>2023-10-28T14:36:05Z</time>
      </trkpt>
      <trkpt lat="45.09999" lon="1.28058">
        <ele>132.1</ele>
        <time>2023-10-28T14:36:06Z</time>
      </trkpt>
      <trkpt lat="45.1" lon="1.28059">
        <ele>132.3</ele>
        <time>2023-10-28T14:36:07Z</time>
      </trkpt>
      <trkpt lat="45.1" lon="1.28061">
        <ele>132.5</ele>
        <time>2023-10-28T14:36:08Z</time>
      </trkpt>
      <trkpt lat="45.1" lon="1.28063">
        <ele>132.6</ele>
        <time>2023-10-28T14:36:09Z</time>
      </trkpt>
      <trkpt lat="45.10001" lon="1.28064">
        <ele>132.9</ele>
        <time>2023-10-28T14:36:10Z</time>
      </trkpt>
      <trkpt lat="45.10001" lon="1.28066">
        <ele>133</ele>
        <time>2023-10-28T14:36:11Z</time>
      </trkpt>
      <trkpt lat="45.10002" lon="1.28067">
        <ele>133.2</ele>
        <time>2023-10-28T14:36:12Z</time>
      </trkpt>
      <trkpt lat="45.10003" lon="1.28068">
        <ele>133.4</ele>
        <time>2023-10-28T14:36:13Z</time>
      </trkpt>
      <trkpt lat="45.10004" lon="1.2807">
        <ele>133.6</ele>
        <time>2023-10-28T14:36:14Z</time>
      </trkpt>
      <trkpt lat="45.10004" lon="1.28071">
        <ele>133.8</ele>
        <time>2023-10-28T14:36:15Z</time>
      </trkpt>
      <trkpt lat="45.10005" lon="1.28073">
        <ele>134</ele>
        <time>2023-10-28T14:36:16Z</time>
      </trkpt>
      <trkpt lat="45.10006" lon="1.28075">
        <ele>134.3</ele>
        <time>2023-10-28T14:36:17Z</time>
      </trkpt>
      <trkpt lat="45.10006" lon="1.28076">
        <ele>134.5</ele>
        <time>2023-10-28T14:36:18Z</time>
      </trkpt>
      <trkpt lat="45.10007" lon="1.28078">
        <ele>134.7</ele>
        <time>2023-10-28T14:36:19Z</time>
      </trkpt>
      <trkpt lat="45.10007" lon="1.2808">
        <ele>134.9</ele>
        <time>2023-10-28T14:36:20Z</time>
      </trkpt>
      <trkpt lat="45.10008" lon="1.28082">
        <ele>135.2</ele>
        <time>2023-10-28T14:36:21Z</time>
      </trkpt>
      <trkpt lat="45.10008" lon="1.28083">
        <ele>135.4</ele>
        <time>2023-10-28T14:36:22Z</time>
      </trkpt>
      <trkpt lat="45.10008" lon="1.28085">
        <ele>135.6</ele>
        <time>2023-10-28T14:36:23Z</time>
      </trkpt>
      <trkpt lat="45.10009" lon="1.28087">
        <ele>135.8</ele>
        <time>2023-10-28T14:36:24Z</time>
      </trkpt>
      <trkpt lat="45.10009" lon="1.28089">
        <ele>136</ele>
        <time>2023-10-28T14:36:25Z</time>
      </trkpt>
      <trkpt lat="45.1001" lon="1.28091">
        <ele>136.2</ele>
        <time>2023-10-28T14:36:26Z</time>
      </trkpt>
      <trkpt lat="45.1001" lon="1.28092">
        <ele>136.4</ele>
        <time>2023-10-28T14:36:27Z</time>
      </trkpt>
      <trkpt lat="45.10011" lon="1.28094">
        <ele>136.7</ele>
        <time>2023-10-28T14:36:28Z</time>
      </trkpt>
      <trkpt lat="45.10011" lon="1.28096">
        <ele>136.9</ele>
        <time>2023-10-28T14:36:29Z</time>
      </trkpt>
      <trkpt lat="45.10012" lon="1.28097">
        <ele>137.1</ele>
        <time>2023-10-28T14:36:30Z</time>
      </trkpt>
      <trkpt lat="45.10012" lon="1.28099">
        <ele>137.3</ele>
        <time>2023-10-28T14:36:31Z</time>
      </trkpt>
      <trkpt lat="45.10012" lon="1.28101">
        <ele>137.5</ele>
        <time>2023-10-28T14:36:32Z</time>
      </trkpt>
      <trkpt lat="45.10013" lon="1.28103">
        <ele>137.7</ele>
        <time>2023-10-28T14:36:33Z</time>
      </trkpt>
      <trkpt lat="45.10013" lon="1.28104">
        <ele>137.9</ele>
        <time>2023-10-28T14:36:34Z</time>
      </trkpt>
      <trkpt lat="45.10014" lon="1.28106">
        <ele>138</ele>
        <time>2023-10-28T14:36:35Z</time>
      </trkpt>
      <trkpt lat="45.10014" lon="1.28107">
        <ele>138.2</ele>
        <time>2023-10-28T14:36:36Z</time>
      </trkpt>
      <trkpt lat="45.10015" lon="1.28109">
        <ele>138.4</ele>
        <time>2023-10-28T14:36:37Z</time>
      </trkpt>
      <trkpt lat="45.10016" lon="1.28111">
        <ele>138.6</ele>
        <time>2023-10-28T14:36:38Z</time>
      </trkpt>
      <trkpt lat="45.10016" lon="1.28112">
        <ele>138.8</ele>
        <time>2023-10-28T14:36:39Z</time>
      </trkpt>
      <trkpt lat="45.10016" lon="1.28114">
        <ele>139</ele>
        <time>2023-10-28T14:36:40Z</time>
      </trkpt>
      <trkpt lat="45.10016" lon="1.28115">
        <ele>139.1</ele>
        <time>2023-10-28T14:36:41Z</time>
      </trkpt>
      <trkpt lat="45.10017" lon="1.28117">
        <ele>139.3</ele>
        <time>2023-10-28T14:36:42Z</time>
      </trkpt>
      <trkpt lat="45.10017" lon="1.28118">
        <ele>139.5</ele>
        <time>2023-10-28T14:36:43Z</time>
      </trkpt>
      <trkpt lat="45.10017" lon="1.2812">
        <ele>139.7</ele>
        <time>2023-10-28T14:36:44Z</time>
      </trkpt>
      <trkpt lat="45.10018" lon="1.28121">
        <ele>139.8</ele>
        <time>2023-10-28T14:36:45Z</time>
      </trkpt>
      <trkpt lat="45.10019" lon="1.28123">
        <ele>140</ele>
        <time>2023-10-28T14:36:46Z</time>
      </trkpt>
      <trkpt lat="45.10019" lon="1.28125">
        <ele>140.2</ele>
        <time>2023-10-28T14:36:47Z</time>
      </trkpt>
      <trkpt lat="45.1002" lon="1.28126">
        <ele>140.4</ele>
        <time>2023-10-28T14:36:48Z</time>
      </trkpt>
      <trkpt lat="45.1002" lon="1.28128">
        <ele>140.7</ele>
        <time>2023-10-28T14:36:49Z</time>
      </trkpt>
      <trkpt lat="45.10021" lon="1.2813">
        <ele>140.8</ele>
        <time>2023-10-28T14:36:50Z</time>
      </trkpt>
      <trkpt lat="45.10022" lon="1.28131">
        <ele>141</ele>
        <time>2023-10-28T14:36:51Z</time>
      </trkpt>
      <trkpt lat="45.10022" lon="1.28133">
        <ele>141.2</ele>
        <time>2023-10-28T14:36:52Z</time>
      </trkpt>
      <trkpt lat="45.10023" lon="1.28134">
        <ele>141.4</ele>
        <time>2023-10-28T14:36:53Z</time>
      </trkpt>
      <trkpt lat="45.10023" lon="1.28136">
        <ele>141.6</ele>
        <time>2023-10-28T14:36:54Z</time>
      </trkpt>
      <trkpt lat="45.10024" lon="1.28138">
        <ele>141.8</ele>
        <time>2023-10-28T14:36:55Z</time>
      </trkpt>
      <trkpt lat="45.10024" lon="1.28139">
        <ele>142</ele>
        <time>2023-10-28T14:36:56Z</time>
      </trkpt>
      <trkpt lat="45.10025" lon="1.28141">
        <ele>142.1</ele>
        <time>2023-10-28T14:36:57Z</time>
      </trkpt>
      <trkpt lat="45.10025" lon="1.28142">
        <ele>142.3</ele>
        <time>2023-10-28T14:36:58Z</time>
      </trkpt>
      <trkpt lat="45.10026" lon="1.28144">
        <ele>142.5</ele>
        <time>2023-10-28T14:36:59Z</time>
      </trkpt>
      <trkpt lat="45.10027" lon="1.28145">
        <ele>142.7</ele>
        <time>2023-10-28T14:37:00Z</time>
      </trkpt>
      <trkpt lat="45.10027" lon="1.28147">
        <ele>142.8</ele>
        <time>2023-10-28T14:37:01Z</time>
      </trkpt>
      <trkpt lat="45.10028" lon="1.28148">
        <ele>143</ele>
        <time>2023-10-28T14:37:02Z</time>
      </trkpt>
      <trkpt lat="45.10028" lon="1.2815">
        <ele>143.2</ele>
        <time>2023-10-28T14:37:03Z</time>
      </trkpt>
      <trkpt lat="45.10029" lon="1.28151">
        <ele>143.4</ele>
        <time>2023-10-28T14:37:04Z</time>
      </trkpt>
      <trkpt lat="45.10029" lon="1.28153">
        <ele>143.6</ele>
        <time>2023-10-28T14:37:05Z</time>
      </trkpt>
      <trkpt lat="45.1003" lon="1.28154">
        <ele>143.7</ele>
        <time>2023-10-28T14:37:06Z</time>
      </trkpt>
      <trkpt lat="45.1003" lon="1.28156">
        <ele>143.9</ele>
        <time>2023-10-28T14:37:07Z</time>
      </trkpt>
      <trkpt lat="45.10031" lon="1.28158">
        <ele>144.1</ele>
        <time>2023-10-28T14:37:08Z</time>
      </trkpt>
      <trkpt lat="45.10031" lon="1.28159">
        <ele>144.3</ele>
        <time>2023-10-28T14:37:09Z</time>
      </trkpt>
      <trkpt lat="45.10032" lon="1.2816">
        <ele>144.4</ele>
        <time>2023-10-28T14:37:10Z</time>
      </trkpt>
      <trkpt lat="45.10032" lon="1.28162">
        <ele>144.6</ele>
        <time>2023-10-28T14:37:11Z</time>
      </trkpt>
      <trkpt lat="45.10032" lon="1.28163">
        <ele>144.7</ele>
        <time>2023-10-28T14:37:12Z</time>
      </trkpt>
      <trkpt lat="45.10033" lon="1.28164">
        <ele>144.9</ele>
        <time>2023-10-28T14:37:13Z</time>
      </trkpt>
      <trkpt lat="45.10033" lon="1.28166">
        <ele>145.1</ele>
        <time>2023-10-28T14:37:14Z</time>
      </trkpt>
      <trkpt lat="45.10034" lon="1.28167">
        <ele>145.2</ele>
        <time>2023-10-28T14:37:15Z</time>
      </trkpt>
      <trkpt lat="45.10035" lon="1.28169">
        <ele>145.4</ele>
        <time>2023-10-28T14:37:16Z</time>
      </trkpt>
      <trkpt lat="45.10035" lon="1.2817">
        <ele>145.6</ele>
        <time>2023-10-28T14:37:17Z</time>
      </trkpt>
      <trkpt lat="45.10035" lon="1.28172">
        <ele>145.7</ele>
        <time>2023-10-28T14:37:18Z</time>
      </trkpt>
      <trkpt lat="45.10036" lon="1.28173">
        <ele>145.9</ele>
        <time>2023-10-28T14:37:19Z</time>
      </trkpt>
      <trkpt lat="45.10037" lon="1.28175">
        <ele>146.1</ele>
        <time>2023-10-28T14:37:20Z</time>
      </trkpt>
      <trkpt lat="45.10037" lon="1.28176">
        <ele>146.3</ele>
        <time>2023-10-28T14:37:21Z</time>
      </trkpt>
      <trkpt lat="45.10038" lon="1.28178">
        <ele>146.5</ele>
        <time>2023-10-28T14:37:22Z</time>
      </trkpt>
      <trkpt lat="45.10038" lon="1.28179">
        <ele>146.7</ele>
        <time>2023-10-28T14:37:23Z</time>
      </trkpt>
      <trkpt lat="45.10039" lon="1.28181">
        <ele>146.8</ele>
        <time>2023-10-28T14:37:24Z</time>
      </trkpt>
      <trkpt lat="45.10039" lon="1.28182">
        <ele>147</ele>
        <time>2023-10-28T14:37:25Z</time>
      </trkpt>
      <trkpt lat="45.1004" lon="1.28184">
        <ele>147.2</ele>
        <time>2023-10-28T14:37:26Z</time>
      </trkpt>
      <trkpt lat="45.1004" lon="1.28186">
        <ele>147.4</ele>
        <time>2023-10-28T14:37:27Z</time>
      </trkpt>
      <trkpt lat="45.10041" lon="1.28188">
        <ele>147.6</ele>
        <time>2023-10-28T14:37:28Z</time>
      </trkpt>
      <trkpt lat="45.10041" lon="1.28189">
        <ele>147.8</ele>
        <time>2023-10-28T14:37:29Z</time>
      </trkpt>
      <trkpt lat="45.10042" lon="1.2819">
        <ele>147.9</ele>
        <time>2023-10-28T14:37:30Z</time>
      </trkpt>
      <trkpt lat="45.10043" lon="1.28192">
        <ele>148.1</ele>
        <time>2023-10-28T14:37:31Z</time>
      </trkpt>
      <trkpt lat="45.10043" lon="1.28193">
        <ele>148.3</ele>
        <time>2023-10-28T14:37:32Z</time>
      </trkpt>
      <trkpt lat="45.10044" lon="1.28194">
        <ele>148.5</ele>
        <time>2023-10-28T14:37:33Z</time>
      </trkpt>
      <trkpt lat="45.10045" lon="1.28196">
        <ele>148.6</ele>
        <time>2023-10-28T14:37:34Z</time>
      </trkpt>
      <trkpt lat="45.10046" lon="1.28197">
        <ele>148.9</ele>
        <time>2023-10-28T14:37:35Z</time>
      </trkpt>
      <trkpt lat="45.10047" lon="1.28199">
        <ele>149.1</ele>
        <time>2023-10-28T14:37:36Z</time>
      </trkpt>
      <trkpt lat="45.10047" lon="1.28201">
        <ele>149.3</ele>
        <time>2023-10-28T14:37:37Z</time>
      </trkpt>
      <trkpt lat="45.10048" lon="1.28202">
        <ele>149.5</ele>
        <time>2023-10-28T14:37:38Z</time>
      </trkpt>
      <trkpt lat="45.10048" lon="1.28204">
        <ele>149.7</ele>
        <time>2023-10-28T14:37:39Z</time>
      </trkpt>
      <trkpt lat="45.10049" lon="1.28206">
        <ele>149.9</ele>
        <time>2023-10-28T14:37:40Z</time>
      </trkpt>
      <trkpt lat="45.10049" lon="1.28208">
        <ele>150.1</ele>
        <time>2023-10-28T14:37:41Z</time>
      </trkpt>
      <trkpt lat="45.10049" lon="1.28209">
        <ele>150.3</ele>
        <time>2023-10-28T14:37:42Z</time>
      </trkpt>
      <trkpt lat="45.1005" lon="1.28211">
        <ele>150.4</ele>
        <time>2023-10-28T14:37:43Z</time>
      </trkpt>
      <trkpt lat="45.10051" lon="1.28212">
        <ele>150.6</ele>
        <time>2023-10-28T14:37:44Z</time>
      </trkpt>
      <trkpt lat="45.10051" lon="1.28214">
        <ele>150.8</ele>
        <time>2023-10-28T14:37:45Z</time>
      </trkpt>
      <trkpt lat="45.10051" lon="1.28215">
        <ele>151</ele>
        <time>2023-10-28T14:37:46Z</time>
      </trkpt>
      <trkpt lat="45.10052" lon="1.28216">
        <ele>151.2</ele>
        <time>2023-10-28T14:37:47Z</time>
      </trkpt>
      <trkpt lat="45.10053" lon="1.28218">
        <ele>151.3</ele>
        <time>2023-10-28T14:37:48Z</time>
      </trkpt>
      <trkpt lat="45.10053" lon="1.28219">
        <ele>151.5</ele>
        <time>2023-10-28T14:37:49Z</time>
      </trkpt>
      <trkpt lat="45.10054" lon="1.2822">
        <ele>151.7</ele>
        <time>2023-10-28T14:37:50Z</time>
      </trkpt>
      <trkpt lat="45.10054" lon="1.28222">
        <ele>151.9</ele>
        <time>2023-10-28T14:37:51Z</time>
      </trkpt>
      <trkpt lat="45.10055" lon="1.28223">
        <ele>152.1</ele>
        <time>2023-10-28T14:37:52Z</time>
      </trkpt>
      <trkpt lat="45.10056" lon="1.28224">
        <ele>152.3</ele>
        <time>2023-10-28T14:37:53Z</time>
      </trkpt>
      <trkpt lat="45.10057" lon="1.28226">
        <ele>152.5</ele>
        <time>2023-10-28T14:37:54Z</time>
      </trkpt>
      <trkpt lat="45.10057" lon="1.28227">
        <ele>152.7</ele>
        <time>2023-10-28T14:37:55Z</time>
      </trkpt>
      <trkpt lat="45.10058" lon="1.28229">
        <ele>152.9</ele>
        <time>2023-10-28T14:37:56Z</time>
      </trkpt>
      <trkpt lat="45.10059" lon="1.2823">
        <ele>153.1</ele>
        <time>2023-10-28T14:37:57Z</time>
      </trkpt>
      <trkpt lat="45.10059" lon="1.28231">
        <ele>153.3</ele>
        <time>2023-10-28T14:37:58Z</time>
      </trkpt>
      <trkpt lat="45.1006" lon="1.28233">
        <ele>153.5</ele>
        <time>2023-10-28T14:37:59Z</time>
      </trkpt>
      <trkpt lat="45.10061" lon="1.28234">
        <ele>153.7</ele>
        <time>2023-10-28T14:38:00Z</time>
      </trkpt>
      <trkpt lat="45.10062" lon="1.28236">
        <ele>153.9</ele>
        <time>2023-10-28T14:38:01Z</time>
      </trkpt>
      <trkpt lat="45.10062" lon="1.28237">
        <ele>154.1</ele>
        <time>2023-10-28T14:38:02Z</time>
      </trkpt>
      <trkpt lat="45.10063" lon="1.28239">
        <ele>154.3</ele>
        <time>2023-10-28T14:38:03Z</time>
      </trkpt>
      <trkpt lat="45.10064" lon="1.2824">
        <ele>154.5</ele>
        <time>2023-10-28T14:38:04Z</time>
      </trkpt>
      <trkpt lat="45.10065" lon="1.28242">
        <ele>154.7</ele>
        <time>2023-10-28T14:38:05Z</time>
      </trkpt>
      <trkpt lat="45.10066" lon="1.28243">
        <ele>154.9</ele>
        <time>2023-10-28T14:38:06Z</time>
      </trkpt>
      <trkpt lat="45.10066" lon="1.28245">
        <ele>155.1</ele>
        <time>2023-10-28T14:38:07Z</time>
      </trkpt>
      <trkpt lat="45.10067" lon="1.28247">
        <ele>155.3</ele>
        <time>2023-10-28T14:38:08Z</time>
      </trkpt>
      <trkpt lat="45.10067" lon="1.28249">
        <ele>155.5</ele>
        <time>2023-10-28T14:38:09Z</time>
      </trkpt>
      <trkpt lat="45.10068" lon="1.2825">
        <ele>155.7</ele>
        <time>2023-10-28T14:38:10Z</time>
      </trkpt>
      <trkpt lat="45.10068" lon="1.28252">
        <ele>155.9</ele>
        <time>2023-10-28T14:38:11Z</time>
      </trkpt>
      <trkpt lat="45.10069" lon="1.28254">
        <ele>156.1</ele>
        <time>2023-10-28T14:38:12Z</time>
      </trkpt>
      <trkpt lat="45.10069" lon="1.28255">
        <ele>156.3</ele>
        <time>2023-10-28T14:38:13Z</time>
      </trkpt>
      <trkpt lat="45.1007" lon="1.28257">
        <ele>156.4</ele>
        <time>2023-10-28T14:38:14Z</time>
      </trkpt>
      <trkpt lat="45.1007" lon="1.28258">
        <ele>156.6</ele>
        <time>2023-10-28T14:38:15Z</time>
      </trkpt>
      <trkpt lat="45.10071" lon="1.28259">
        <ele>156.7</ele>
        <time>2023-10-28T14:38:16Z</time>
      </trkpt>
      <trkpt lat="45.10071" lon="1.2826">
        <ele>156.8</ele>
        <time>2023-10-28T14:38:17Z</time>
      </trkpt>
      <trkpt lat="45.10072" lon="1.28261">
        <ele>157</ele>
        <time>2023-10-28T14:38:18Z</time>
      </trkpt>
      <trkpt lat="45.10072" lon="1.28263">
        <ele>157.2</ele>
        <time>2023-10-28T14:38:19Z</time>
      </trkpt>
      <trkpt lat="45.10072" lon="1.28265">
        <ele>157.3</ele>
        <time>2023-10-28T14:38:20Z</time>
      </trkpt>
      <trkpt lat="45.10073" lon="1.28266">
        <ele>157.5</ele>
        <time>2023-10-28T14:38:21Z</time>
      </trkpt>
      <trkpt lat="45.10074" lon="1.28268">
        <ele>157.7</ele>
        <time>2023-10-28T14:38:22Z</time>
      </trkpt>
      <trkpt lat="45.10074" lon="1.28269">
        <ele>157.9</ele>
        <time>2023-10-28T14:38:23Z</time>
      </trkpt>
      <trkpt lat="45.10075" lon="1.28271">
        <ele>158.1</ele>
        <time>2023-10-28T14:38:24Z</time>
      </trkpt>
      <trkpt lat="45.10075" lon="1.28273">
        <ele>158.3</ele>
        <time>2023-10-28T14:38:25Z</time>
      </trkpt>
      <trkpt lat="45.10076" lon="1.28274">
        <ele>158.5</ele>
        <time>2023-10-28T14:38:26Z</time>
      </trkpt>
      <trkpt lat="45.10076" lon="1.28276">
        <ele>158.7</ele>
        <time>2023-10-28T14:38:27Z</time>
      </trkpt>
      <trkpt lat="45.10077" lon="1.28278">
        <ele>158.9</ele>
        <time>2023-10-28T14:38:28Z</time>
      </trkpt>
      <trkpt lat="45.10077" lon="1.28279">
        <ele>159</ele>
        <time>2023-10-28T14:38:29Z</time>
      </trkpt>
      <trkpt lat="45.10078" lon="1.28281">
        <ele>159.3</ele>
        <time>2023-10-28T14:38:30Z</time>
      </trkpt>
      <trkpt lat="45.10078" lon="1.28283">
        <ele>159.5</ele>
        <time>2023-10-28T14:38:31Z</time>
      </trkpt>
      <trkpt lat="45.10078" lon="1.28284">
        <ele>159.7</ele>
        <time>2023-10-28T14:38:32Z</time>
      </trkpt>
      <trkpt lat="45.10078" lon="1.28286">
        <ele>159.9</ele>
        <time>2023-10-28T14:38:33Z</time>
      </trkpt>
      <trkpt lat="45.10079" lon="1.28288">
        <ele>160.1</ele>
        <time>2023-10-28T14:38:34Z</time>
      </trkpt>
      <trkpt lat="45.10079" lon="1.2829">
        <ele>160.3</ele>
        <time>2023-10-28T14:38:35Z</time>
      </trkpt>
      <trkpt lat="45.1008" lon="1.28291">
        <ele>160.5</ele>
        <time>2023-10-28T14:38:36Z</time>
      </trkpt>
      <trkpt lat="45.1008" lon="1.28292">
        <ele>160.7</ele>
        <time>2023-10-28T14:38:37Z</time>
      </trkpt>
      <trkpt lat="45.10081" lon="1.28294">
        <ele>160.9</ele>
        <time>2023-10-28T14:38:38Z</time>
      </trkpt>
      <trkpt lat="45.10081" lon="1.28295">
        <ele>161.1</ele>
        <time>2023-10-28T14:38:39Z</time>
      </trkpt>
      <trkpt lat="45.10082" lon="1.28296">
        <ele>161.3</ele>
        <time>2023-10-28T14:38:40Z</time>
      </trkpt>
      <trkpt lat="45.10082" lon="1.28297">
        <ele>161.5</ele>
        <time>2023-10-28T14:38:41Z</time>
      </trkpt>
      <trkpt lat="45.10083" lon="1.28299">
        <ele>161.6</ele>
        <time>2023-10-28T14:38:42Z</time>
      </trkpt>
      <trkpt lat="45.10083" lon="1.283">
        <ele>161.9</ele>
        <time>2023-10-28T14:38:43Z</time>
      </trkpt>
      <trkpt lat="45.10084" lon="1.28301">
        <ele>162</ele>
        <time>2023-10-28T14:38:44Z</time>
      </trkpt>
      <trkpt lat="45.10084" lon="1.28303">
        <ele>162.3</ele>
        <time>2023-10-28T14:38:45Z</time>
      </trkpt>
      <trkpt lat="45.10085" lon="1.28304">
        <ele>162.5</ele>
        <time>2023-10-28T14:38:46Z</time>
      </trkpt>
      <trkpt lat="45.10085" lon="1.28306">
        <ele>162.7</ele>
        <time>2023-10-28T14:38:47Z</time>
      </trkpt>
      <trkpt lat="45.10086" lon="1.28308">
        <ele>163</ele>
        <time>2023-10-28T14:38:48Z</time>
      </trkpt>
      <trkpt lat="45.10086" lon="1.28309">
        <ele>163.2</ele>
        <time>2023-10-28T14:38:49Z</time>
      </trkpt>
      <trkpt lat="45.10087" lon="1.28311">
        <ele>163.5</ele>
        <time>2023-10-28T14:38:50Z</time>
      </trkpt>
      <trkpt lat="45.10088" lon="1.28313">
        <ele>163.7</ele>
        <time>2023-10-28T14:38:51Z</time>
      </trkpt>
      <trkpt lat="45.10088" lon="1.28315">
        <ele>164</ele>
        <time>2023-10-28T14:38:52Z</time>
      </trkpt>
      <trkpt lat="45.10089" lon="1.28316">
        <ele>164.2</ele>
        <time>2023-10-28T14:38:53Z</time>
      </trkpt>
      <trkpt lat="45.10089" lon="1.28318">
        <ele>164.5</ele>
        <time>2023-10-28T14:38:54Z</time>
      </trkpt>
      <trkpt lat="45.10089" lon="1.2832">
        <ele>164.7</ele>
        <time>2023-10-28T14:38:55Z</time>
      </trkpt>
      <trkpt lat="45.10089" lon="1.28322">
        <ele>164.9</ele>
        <time>2023-10-28T14:38:56Z</time>
      </trkpt>
      <trkpt lat="45.1009" lon="1.28323">
        <ele>165.1</ele>
        <time>2023-10-28T14:38:57Z</time>
      </trkpt>
      <trkpt lat="45.1009" lon="1.28325">
        <ele>165.3</ele>
        <time>2023-10-28T14:38:58Z</time>
      </trkpt>
      <trkpt lat="45.1009" lon="1.28326">
        <ele>165.6</ele>
        <time>2023-10-28T14:38:59Z</time>
      </trkpt>
      <trkpt lat="45.1009" lon="1.28328">
        <ele>165.8</ele>
        <time>2023-10-28T14:39:00Z</time>
      </trkpt>
      <trkpt lat="45.10091" lon="1.28329">
        <ele>166</ele>
        <time>2023-10-28T14:39:01Z</time>
      </trkpt>
      <trkpt lat="45.10091" lon="1.2833">
        <ele>166.2</ele>
        <time>2023-10-28T14:39:02Z</time>
      </trkpt>
      <trkpt lat="45.10092" lon="1.28332">
        <ele>166.4</ele>
        <time>2023-10-28T14:39:03Z</time>
      </trkpt>
      <trkpt lat="45.10092" lon="1.28333">
        <ele>166.6</ele>
        <time>2023-10-28T14:39:04Z</time>
      </trkpt>
      <trkpt lat="45.10093" lon="1.28334">
        <ele>166.8</ele>
        <time>2023-10-28T14:39:05Z</time>
      </trkpt>
      <trkpt lat="45.10094" lon="1.28336">
        <ele>167.1</ele>
        <time>2023-10-28T14:39:06Z</time>
      </trkpt>
      <trkpt lat="45.10094" lon="1.28337">
        <ele>167.3</ele>
        <time>2023-10-28T14:39:07Z</time>
      </trkpt>
      <trkpt lat="45.10095" lon="1.28338">
        <ele>167.5</ele>
        <time>2023-10-28T14:39:08Z</time>
      </trkpt>
      <trkpt lat="45.10095" lon="1.2834">
        <ele>167.7</ele>
        <time>2023-10-28T14:39:09Z</time>
      </trkpt>
      <trkpt lat="45.10096" lon="1.28341">
        <ele>168</ele>
        <time>2023-10-28T14:39:10Z</time>
      </trkpt>
      <trkpt lat="45.10097" lon="1.28343">
        <ele>168.2</ele>
        <time>2023-10-28T14:39:11Z</time>
      </trkpt>
      <trkpt lat="45.10098" lon="1.28344">
        <ele>168.5</ele>
        <time>2023-10-28T14:39:12Z</time>
      </trkpt>
      <trkpt lat="45.10098" lon="1.28346">
        <ele>168.7</ele>
        <time>2023-10-28T14:39:13Z</time>
      </trkpt>
      <trkpt lat="45.10098" lon="1.28348">
        <ele>168.9</ele>
        <time>2023-10-28T14:39:14Z</time>
      </trkpt>
      <trkpt lat="45.10099" lon="1.28349">
        <ele>169.2</ele>
        <time>2023-10-28T14:39:15Z</time>
      </trkpt>
      <trkpt lat="45.10099" lon="1.28351">
        <ele>169.4</ele>
        <time>2023-10-28T14:39:16Z</time>
      </trkpt>
      <trkpt lat="45.10099" lon="1.28352">
        <ele>169.6</ele>
        <time>2023-10-28T14:39:17Z</time>
      </trkpt>
      <trkpt lat="45.101" lon="1.28354">
        <ele>169.8</ele>
        <time>2023-10-28T14:39:18Z</time>
      </trkpt>
      <trkpt lat="45.101" lon="1.28355">
        <ele>170</ele>
        <time>2023-10-28T14:39:19Z</time>
      </trkpt>
      <trkpt lat="45.10101" lon="1.28356">
        <ele>170.2</ele>
        <time>2023-10-28T14:39:20Z</time>
      </trkpt>
      <trkpt lat="45.10101" lon="1.28358">
        <ele>170.4</ele>
        <time>2023-10-28T14:39:21Z</time>
      </trkpt>
      <trkpt lat="45.10101" lon="1.28359">
        <ele>170.6</ele>
        <time>2023-10-28T14:39:22Z</time>
      </trkpt>
      <trkpt lat="45.10102" lon="1.2836">
        <ele>170.8</ele>
        <time>2023-10-28T14:39:23Z</time>
      </trkpt>
      <trkpt lat="45.10103" lon="1.28362">
        <ele>171</ele>
        <time>2023-10-28T14:39:24Z</time>
      </trkpt>
      <trkpt lat="45.10103" lon="1.28363">
        <ele>171.2</ele>
        <time>2023-10-28T14:39:25Z</time>
      </trkpt>
      <trkpt lat="45.10103" lon="1.28365">
        <ele>171.5</ele>
        <time>2023-10-28T14:39:26Z</time>
      </trkpt>
      <trkpt lat="45.10103" lon="1.28366">
        <ele>171.7</ele>
        <time>2023-10-28T14:39:27Z</time>
      </trkpt>
      <trkpt lat="45.10103" lon="1.28368">
        <ele>171.9</ele>
        <time>2023-10-28T14:39:28Z</time>
      </trkpt>
      <trkpt lat="45.10103" lon="1.28369">
        <ele>172.1</ele>
        <time>2023-10-28T14:39:29Z</time>
      </trkpt>
      <trkpt lat="45.10103" lon="1.28371">
        <ele>172.3</ele>
        <time>2023-10-28T14:39:30Z</time>
      </trkpt>
      <trkpt lat="45.10104" lon="1.28373">
        <ele>172.6</ele>
        <time>2023-10-28T14:39:31Z</time>
      </trkpt>
      <trkpt lat="45.10104" lon="1.28374">
        <ele>172.8</ele>
        <time>2023-10-28T14:39:32Z</time>
      </trkpt>
      <trkpt lat="45.10104" lon="1.28376">
        <ele>173</ele>
        <time>2023-10-28T14:39:33Z</time>
      </trkpt>
      <trkpt lat="45.10104" lon="1.28377">
        <ele>173.2</ele>
        <time>2023-10-28T14:39:34Z</time>
      </trkpt>
      <trkpt lat="45.10105" lon="1.28379">
        <ele>173.5</ele>
        <time>2023-10-28T14:39:35Z</time>
      </trkpt>
      <trkpt lat="45.10105" lon="1.28381">
        <ele>173.7</ele>
        <time>2023-10-28T14:39:36Z</time>
      </trkpt>
      <trkpt lat="45.10106" lon="1.28382">
        <ele>174</ele>
        <time>2023-10-28T14:39:37Z</time>
      </trkpt>
      <trkpt lat="45.10107" lon="1.28384">
        <ele>174.2</ele>
        <time>2023-10-28T14:39:38Z</time>
      </trkpt>
      <trkpt lat="45.10107" lon="1.28385">
        <ele>174.4</ele>
        <time>2023-10-28T14:39:39Z</time>
      </trkpt>
      <trkpt lat="45.10108" lon="1.28387">
        <ele>174.6</ele>
        <time>2023-10-28T14:39:40Z</time>
      </trkpt>
      <trkpt lat="45.10108" lon="1.28388">
        <ele>174.9</ele>
        <time>2023-10-28T14:39:41Z</time>
      </trkpt>
      <trkpt lat="45.10109" lon="1.2839">
        <ele>175.1</ele>
        <time>2023-10-28T14:39:42Z</time>
      </trkpt>
      <trkpt lat="45.1011" lon="1.28391">
        <ele>175.4</ele>
        <time>2023-10-28T14:39:43Z</time>
      </trkpt>
      <trkpt lat="45.1011" lon="1.28393">
        <ele>175.6</ele>
        <time>2023-10-28T14:39:44Z</time>
      </trkpt>
      <trkpt lat="45.10111" lon="1.28394">
        <ele>175.8</ele>
        <time>2023-10-28T14:39:45Z</time>
      </trkpt>
      <trkpt lat="45.10111" lon="1.28396">
        <ele>176</ele>
        <time>2023-10-28T14:39:46Z</time>
      </trkpt>
      <trkpt lat="45.10111" lon="1.28397">
        <ele>176.1</ele>
        <time>2023-10-28T14:39:47Z</time>
      </trkpt>
      <trkpt lat="45.10112" lon="1.28398">
        <ele>176.3</ele>
        <time>2023-10-28T14:39:48Z</time>
      </trkpt>
      <trkpt lat="45.10112" lon="1.284">
        <ele>176.6</ele>
        <time>2023-10-28T14:39:49Z</time>
      </trkpt>
      <trkpt lat="45.10113" lon="1.28401">
        <ele>176.8</ele>
        <time>2023-10-28T14:39:50Z</time>
      </trkpt>
      <trkpt lat="45.10114" lon="1.28403">
        <ele>177</ele>
        <time>2023-10-28T14:39:51Z</time>
      </trkpt>
      <trkpt lat="45.10115" lon="1.28404">
        <ele>177.2</ele>
        <time>2023-10-28T14:39:52Z</time>
      </trkpt>
      <trkpt lat="45.10115" lon="1.28405">
        <ele>177.4</ele>
        <time>2023-10-28T14:39:53Z</time>
      </trkpt>
      <trkpt lat="45.10117" lon="1.28406">
        <ele>177.7</ele>
        <time>2023-10-28T14:39:54Z</time>
      </trkpt>
      <trkpt lat="45.10117" lon="1.28407">
        <ele>177.8</ele>
        <time>2023-10-28T14:39:55Z</time>
      </trkpt>
      <trkpt lat="45.10119" lon="1.28408">
        <ele>178.1</ele>
        <time>2023-10-28T14:39:56Z</time>
      </trkpt>
      <trkpt lat="45.10119" lon="1.28409">
        <ele>178.3</ele>
        <time>2023-10-28T14:39:57Z</time>
      </trkpt>
      <trkpt lat="45.1012" lon="1.2841">
        <ele>178.5</ele>
        <time>2023-10-28T14:39:58Z</time>
      </trkpt>
      <trkpt lat="45.10121" lon="1.28412">
        <ele>178.7</ele>
        <time>2023-10-28T14:39:59Z</time>
      </trkpt>
      <trkpt lat="45.10122" lon="1.28413">
        <ele>178.9</ele>
        <time>2023-10-28T14:40:00Z</time>
      </trkpt>
      <trkpt lat="45.10123" lon="1.28414">
        <ele>179.2</ele>
        <time>2023-10-28T14:40:01Z</time>
      </trkpt>
      <trkpt lat="45.10124" lon="1.28416">
        <ele>179.4</ele>
        <time>2023-10-28T14:40:02Z</time>
      </trkpt>
      <trkpt lat="45.10125" lon="1.28417">
        <ele>179.5</ele>
        <time>2023-10-28T14:40:03Z</time>
      </trkpt>
      <trkpt lat="45.10125" lon="1.28418">
        <ele>179.7</ele>
        <time>2023-10-28T14:40:04Z</time>
      </trkpt>
      <trkpt lat="45.10127" lon="1.28419">
        <ele>180</ele>
        <time>2023-10-28T14:40:05Z</time>
      </trkpt>
      <trkpt lat="45.10127" lon="1.2842">
        <ele>180.2</ele>
        <time>2023-10-28T14:40:06Z</time>
      </trkpt>
      <trkpt lat="45.10128" lon="1.28421">
        <ele>180.4</ele>
        <time>2023-10-28T14:40:07Z</time>
      </trkpt>
      <trkpt lat="45.1013" lon="1.28423">
        <ele>180.6</ele>
        <time>2023-10-28T14:40:08Z</time>
      </trkpt>
      <trkpt lat="45.10131" lon="1.28424">
        <ele>180.9</ele>
        <time>2023-10-28T14:40:09Z</time>
      </trkpt>
      <trkpt lat="45.10132" lon="1.28425">
        <ele>181.1</ele>
        <time>2023-10-28T14:40:10Z</time>
      </trkpt>
      <trkpt lat="45.10133" lon="1.28426">
        <ele>181.4</ele>
        <time>2023-10-28T14:40:11Z</time>
      </trkpt>
      <trkpt lat="45.10134" lon="1.28427">
        <ele>181.5</ele>
        <time>2023-10-28T14:40:12Z</time>
      </trkpt>
      <trkpt lat="45.10135" lon="1.28428">
        <ele>181.8</ele>
        <time>2023-10-28T14:40:13Z</time>
      </trkpt>
      <trkpt lat="45.10136" lon="1.28429">
        <ele>182</ele>
        <time>2023-10-28T14:40:14Z</time>
      </trkpt>
      <trkpt lat="45.10137" lon="1.2843">
        <ele>182.1</ele>
        <time>2023-10-28T14:40:15Z</time>
      </trkpt>
      <trkpt lat="45.10138" lon="1.28431">
        <ele>182.3</ele>
        <time>2023-10-28T14:40:16Z</time>
      </trkpt>
      <trkpt lat="45.1014" lon="1.28431">
        <ele>182.6</ele>
        <time>2023-10-28T14:40:17Z</time>
      </trkpt>
      <trkpt lat="45.1014" lon="1.28432">
        <ele>182.8</ele>
        <time>2023-10-28T14:40:18Z</time>
      </trkpt>
      <trkpt lat="45.10141" lon="1.28433">
        <ele>183</ele>
        <time>2023-10-28T14:40:19Z</time>
      </trkpt>
      <trkpt lat="45.10142" lon="1.28434">
        <ele>183.1</ele>
        <time>2023-10-28T14:40:20Z</time>
      </trkpt>
      <trkpt lat="45.10143" lon="1.28435">
        <ele>183.3</ele>
        <time>2023-10-28T14:40:21Z</time>
      </trkpt>
      <trkpt lat="45.10144" lon="1.28435">
        <ele>183.4</ele>
        <time>2023-10-28T14:40:22Z</time>
      </trkpt>
      <trkpt lat="45.10145" lon="1.28436">
        <ele>183.6</ele>
        <time>2023-10-28T14:40:23Z</time>
      </trkpt>
      <trkpt lat="45.10146" lon="1.28437">
        <ele>183.8</ele>
        <time>2023-10-28T14:40:24Z</time>
      </trkpt>
      <trkpt lat="45.10148" lon="1.28437">
        <ele>184</ele>
        <time>2023-10-28T14:40:25Z</time>
      </trkpt>
      <trkpt lat="45.10149" lon="1.28438">
        <ele>184.2</ele>
        <time>2023-10-28T14:40:26Z</time>
      </trkpt>
      <trkpt lat="45.1015" lon="1.28438">
        <ele>184.3</ele>
        <time>2023-10-28T14:40:27Z</time>
      </trkpt>
      <trkpt lat="45.10152" lon="1.28439">
        <ele>184.6</ele>
        <time>2023-10-28T14:40:28Z</time>
      </trkpt>
      <trkpt lat="45.10153" lon="1.2844">
        <ele>184.8</ele>
        <time>2023-10-28T14:40:29Z</time>
      </trkpt>
      <trkpt lat="45.10154" lon="1.28441">
        <ele>185</ele>
        <time>2023-10-28T14:40:30Z</time>
      </trkpt>
      <trkpt lat="45.10156" lon="1.28441">
        <ele>185.2</ele>
        <time>2023-10-28T14:40:31Z</time>
      </trkpt>
      <trkpt lat="45.10157" lon="1.28442">
        <ele>185.3</ele>
        <time>2023-10-28T14:40:32Z</time>
      </trkpt>
      <trkpt lat="45.10158" lon="1.28443">
        <ele>185.4</ele>
        <time>2023-10-28T14:40:33Z</time>
      </trkpt>
      <trkpt lat="45.10159" lon="1.28443">
        <ele>185.6</ele>
        <time>2023-10-28T14:40:34Z</time>
      </trkpt>
      <trkpt lat="45.1016" lon="1.28444">
        <ele>185.7</ele>
        <time>2023-10-28T14:40:35Z</time>
      </trkpt>
      <trkpt lat="45.10162" lon="1.28444">
        <ele>185.9</ele>
        <time>2023-10-28T14:40:36Z</time>
      </trkpt>
      <trkpt lat="45.10163" lon="1.28445">
        <ele>186.1</ele>
        <time>2023-10-28T14:40:37Z</time>
      </trkpt>
      <trkpt lat="45.10165" lon="1.28446">
        <ele>186.3</ele>
        <time>2023-10-28T14:40:38Z</time>
      </trkpt>
      <trkpt lat="45.10166" lon="1.28446">
        <ele>186.5</ele>
        <time>2023-10-28T14:40:39Z</time>
      </trkpt>
      <trkpt lat="45.10168" lon="1.28447">
        <ele>186.6</ele>
        <time>2023-10-28T14:40:40Z</time>
      </trkpt>
      <trkpt lat="45.10169" lon="1.28448">
        <ele>186.7</ele>
        <time>2023-10-28T14:40:41Z</time>
      </trkpt>
      <trkpt lat="45.1017" lon="1.28449">
        <ele>186.9</ele>
        <time>2023-10-28T14:40:42Z</time>
      </trkpt>
      <trkpt lat="45.10172" lon="1.2845">
        <ele>187</ele>
        <time>2023-10-28T14:40:43Z</time>
      </trkpt>
      <trkpt lat="45.10173" lon="1.2845">
        <ele>187.1</ele>
        <time>2023-10-28T14:40:44Z</time>
      </trkpt>
      <trkpt lat="45.10174" lon="1.28451">
        <ele>187.2</ele>
        <time>2023-10-28T14:40:45Z</time>
      </trkpt>
      <trkpt lat="45.10175" lon="1.28451">
        <ele>187.3</ele>
        <time>2023-10-28T14:40:46Z</time>
      </trkpt>
      <trkpt lat="45.10176" lon="1.28452">
        <ele>187.4</ele>
        <time>2023-10-28T14:40:47Z</time>
      </trkpt>
      <trkpt lat="45.10177" lon="1.28452">
        <ele>187.4</ele>
        <time>2023-10-28T14:40:48Z</time>
      </trkpt>
      <trkpt lat="45.10178" lon="1.28452">
        <ele>187.5</ele>
        <time>2023-10-28T14:40:49Z</time>
      </trkpt>
      <trkpt lat="45.10179" lon="1.28453">
        <ele>187.6</ele>
        <time>2023-10-28T14:40:50Z</time>
      </trkpt>
      <trkpt lat="45.1018" lon="1.28453">
        <ele>187.6</ele>
        <time>2023-10-28T14:40:51Z</time>
      </trkpt>
      <trkpt lat="45.10181" lon="1.28454">
        <ele>187.7</ele>
        <time>2023-10-28T14:40:52Z</time>
      </trkpt>
      <trkpt lat="45.10183" lon="1.28454">
        <ele>187.8</ele>
        <time>2023-10-28T14:40:53Z</time>
      </trkpt>
      <trkpt lat="45.10184" lon="1.28455">
        <ele>187.8</ele>
        <time>2023-10-28T14:40:54Z</time>
      </trkpt>
      <trkpt lat="45.10185" lon="1.28456">
        <ele>187.8</ele>
        <time>2023-10-28T14:40:55Z</time>
      </trkpt>
      <trkpt lat="45.10186" lon="1.28456">
        <ele>187.9</ele>
        <time>2023-10-28T14:40:56Z</time>
      </trkpt>
      <trkpt lat="45.10188" lon="1.28457">
        <ele>187.9</ele>
        <time>2023-10-28T14:40:57Z</time>
      </trkpt>
      <trkpt lat="45.10189" lon="1.28457">
        <ele>188</ele>
        <time>2023-10-28T14:40:58Z</time>
      </trkpt>
      <trkpt lat="45.10191" lon="1.28457">
        <ele>188</ele>
        <time>2023-10-28T14:40:59Z</time>
      </trkpt>
      <trkpt lat="45.10192" lon="1.28458">
        <ele>188.1</ele>
        <time>2023-10-28T14:41:00Z</time>
      </trkpt>
      <trkpt lat="45.10194" lon="1.28458">
        <ele>188.1</ele>
        <time>2023-10-28T14:41:01Z</time>
      </trkpt>
      <trkpt lat="45.10195" lon="1.28459">
        <ele>188.2</ele>
        <time>2023-10-28T14:41:02Z</time>
      </trkpt>
      <trkpt lat="45.10197" lon="1.28459">
        <ele>188.2</ele>
        <time>2023-10-28T14:41:03Z</time>
      </trkpt>
      <trkpt lat="45.10198" lon="1.2846">
        <ele>188.2</ele>
        <time>2023-10-28T14:41:04Z</time>
      </trkpt>
      <trkpt lat="45.102" lon="1.2846">
        <ele>188.3</ele>
        <time>2023-10-28T14:41:05Z</time>
      </trkpt>
      <trkpt lat="45.10201" lon="1.28461">
        <ele>188.3</ele>
        <time>2023-10-28T14:41:06Z</time>
      </trkpt>
      <trkpt lat="45.10203" lon="1.28461">
        <ele>188.3</ele>
        <time>2023-10-28T14:41:07Z</time>
      </trkpt>
      <trkpt lat="45.10204" lon="1.28461">
        <ele>188.4</ele>
        <time>2023-10-28T14:41:08Z</time>
      </trkpt>
      <trkpt lat="45.10206" lon="1.28462">
        <ele>188.4</ele>
        <time>2023-10-28T14:41:09Z</time>
      </trkpt>
      <trkpt lat="45.10207" lon="1.28462">
        <ele>188.4</ele>
        <time>2023-10-28T14:41:10Z</time>
      </trkpt>
      <trkpt lat="45.10208" lon="1.28462">
        <ele>188.4</ele>
        <time>2023-10-28T14:41:11Z</time>
      </trkpt>
      <trkpt lat="45.10209" lon="1.28462">
        <ele>188.5</ele>
        <time>2023-10-28T14:41:12Z</time>
      </trkpt>
      <trkpt lat="45.1021" lon="1.28462">
        <ele>188.5</ele>
        <time>2023-10-28T14:41:13Z</time>
      </trkpt>
      <trkpt lat="45.10212" lon="1.28463">
        <ele>188.5</ele>
        <time>2023-10-28T14:41:14Z</time>
      </trkpt>
      <trkpt lat="45.10213" lon="1.28463">
        <ele>188.6</ele>
        <time>2023-10-28T14:41:15Z</time>
      </trkpt>
      <trkpt lat="45.10214" lon="1.28463">
        <ele>188.6</ele>
        <time>2023-10-28T14:41:16Z</time>
      </trkpt>
      <trkpt lat="45.10215" lon="1.28463">
        <ele>188.6</ele>
        <time>2023-10-28T14:41:17Z</time>
      </trkpt>
      <trkpt lat="45.10217" lon="1.28463">
        <ele>188.7</ele>
        <time>2023-10-28T14:41:18Z</time>
      </trkpt>
      <trkpt lat="45.10218" lon="1.28463">
        <ele>188.7</ele>
        <time>2023-10-28T14:41:19Z</time>
      </trkpt>
      <trkpt lat="45.10219" lon="1.28464">
        <ele>188.7</ele>
        <time>2023-10-28T14:41:20Z</time>
      </trkpt>
      <trkpt lat="45.1022" lon="1.28464">
        <ele>188.8</ele>
        <time>2023-10-28T14:41:21Z</time>
      </trkpt>
      <trkpt lat="45.10222" lon="1.28464">
        <ele>188.8</ele>
        <time>2023-10-28T14:41:22Z</time>
      </trkpt>
      <trkpt lat="45.10223" lon="1.28464">
        <ele>188.9</ele>
        <time>2023-10-28T14:41:23Z</time>
      </trkpt>
      <trkpt lat="45.10225" lon="1.28465">
        <ele>189</ele>
        <time>2023-10-28T14:41:24Z</time>
      </trkpt>
      <trkpt lat="45.10227" lon="1.28465">
        <ele>189</ele>
        <time>2023-10-28T14:41:25Z</time>
      </trkpt>
      <trkpt lat="45.1023" lon="1.28465">
        <ele>189.1</ele>
        <time>2023-10-28T14:41:26Z</time>
      </trkpt>
      <trkpt lat="45.10231" lon="1.28466">
        <ele>189.2</ele>
        <time>2023-10-28T14:41:27Z</time>
      </trkpt>
      <trkpt lat="45.10234" lon="1.28466">
        <ele>189.3</ele>
        <time>2023-10-28T14:41:28Z</time>
      </trkpt>
      <trkpt lat="45.10236" lon="1.28466">
        <ele>189.3</ele>
        <time>2023-10-28T14:41:29Z</time>
      </trkpt>
      <trkpt lat="45.10239" lon="1.28467">
        <ele>189.4</ele>
        <time>2023-10-28T14:41:30Z</time>
      </trkpt>
      <trkpt lat="45.10241" lon="1.28467">
        <ele>189.5</ele>
        <time>2023-10-28T14:41:31Z</time>
      </trkpt>
      <trkpt lat="45.10243" lon="1.28467">
        <ele>189.6</ele>
        <time>2023-10-28T14:41:32Z</time>
      </trkpt>
      <trkpt lat="45.10246" lon="1.28468">
        <ele>189.7</ele>
        <time>2023-10-28T14:41:33Z</time>
      </trkpt>
      <trkpt lat="45.10248" lon="1.28468">
        <ele>189.8</ele>
        <time>2023-10-28T14:41:34Z</time>
      </trkpt>
      <trkpt lat="45.1025" lon="1.28468">
        <ele>189.8</ele>
        <time>2023-10-28T14:41:35Z</time>
      </trkpt>
      <trkpt lat="45.10252" lon="1.28469">
        <ele>189.9</ele>
        <time>2023-10-28T14:41:36Z</time>
      </trkpt>
      <trkpt lat="45.10255" lon="1.28469">
        <ele>190</ele>
        <time>2023-10-28T14:41:37Z</time>
      </trkpt>
      <trkpt lat="45.10257" lon="1.2847">
        <ele>190.1</ele>
        <time>2023-10-28T14:41:38Z</time>
      </trkpt>
      <trkpt lat="45.10259" lon="1.28471">
        <ele>190.1</ele>
        <time>2023-10-28T14:41:39Z</time>
      </trkpt>
      <trkpt lat="45.10261" lon="1.28472">
        <ele>190.2</ele>
        <time>2023-10-28T14:41:40Z</time>
      </trkpt>
      <trkpt lat="45.10263" lon="1.28472">
        <ele>190.2</ele>
        <time>2023-10-28T14:41:41Z</time>
      </trkpt>
      <trkpt lat="45.10266" lon="1.28473">
        <ele>190.3</ele>
        <time>2023-10-28T14:41:42Z</time>
      </trkpt>
      <trkpt lat="45.10268" lon="1.28474">
        <ele>190.4</ele>
        <time>2023-10-28T14:41:43Z</time>
      </trkpt>
      <trkpt lat="45.1027" lon="1.28474">
        <ele>190.4</ele>
        <time>2023-10-28T14:41:44Z</time>
      </trkpt>
      <trkpt lat="45.10273" lon="1.28474">
        <ele>190.5</ele>
        <time>2023-10-28T14:41:45Z</time>
      </trkpt>
      <trkpt lat="45.10275" lon="1.28475">
        <ele>190.6</ele>
        <time>2023-10-28T14:41:46Z</time>
      </trkpt>
      <trkpt lat="45.10277" lon="1.28475">
        <ele>190.7</ele>
        <time>2023-10-28T14:41:47Z</time>
      </trkpt>
      <trkpt lat="45.1028" lon="1.28475">
        <ele>190.8</ele>
        <time>2023-10-28T14:41:48Z</time>
      </trkpt>
      <trkpt lat="45.10281" lon="1.28475">
        <ele>190.9</ele>
        <time>2023-10-28T14:41:49Z</time>
      </trkpt>
      <trkpt lat="45.10284" lon="1.28475">
        <ele>191</ele>
        <time>2023-10-28T14:41:50Z</time>
      </trkpt>
      <trkpt lat="45.10286" lon="1.28475">
        <ele>191.1</ele>
        <time>2023-10-28T14:41:51Z</time>
      </trkpt>
      <trkpt lat="45.10288" lon="1.28475">
        <ele>191.2</ele>
        <time>2023-10-28T14:41:52Z</time>
      </trkpt>
      <trkpt lat="45.1029" lon="1.28475">
        <ele>191.4</ele>
        <time>2023-10-28T14:41:53Z</time>
      </trkpt>
      <trkpt lat="45.10292" lon="1.28475">
        <ele>191.5</ele>
        <time>2023-10-28T14:41:54Z</time>
      </trkpt>
      <trkpt lat="45.10295" lon="1.28475">
        <ele>191.7</ele>
        <time>2023-10-28T14:41:55Z</time>
      </trkpt>
      <trkpt lat="45.10297" lon="1.28475">
        <ele>191.9</ele>
        <time>2023-10-28T14:41:56Z</time>
      </trkpt>
      <trkpt lat="45.10299" lon="1.28474">
        <ele>192.1</ele>
        <time>2023-10-28T14:41:57Z</time>
      </trkpt>
      <trkpt lat="45.10302" lon="1.28474">
        <ele>192.3</ele>
        <time>2023-10-28T14:41:58Z</time>
      </trkpt>
      <trkpt lat="45.10304" lon="1.28473">
        <ele>192.5</ele>
        <time>2023-10-28T14:41:59Z</time>
      </trkpt>
      <trkpt lat="45.10306" lon="1.28472">
        <ele>192.8</ele>
        <time>2023-10-28T14:42:00Z</time>
      </trkpt>
      <trkpt lat="45.10308" lon="1.28471">
        <ele>193</ele>
        <time>2023-10-28T14:42:01Z</time>
      </trkpt>
      <trkpt lat="45.1031" lon="1.28471">
        <ele>193.2</ele>
        <time>2023-10-28T14:42:02Z</time>
      </trkpt>
      <trkpt lat="45.10312" lon="1.2847">
        <ele>193.4</ele>
        <time>2023-10-28T14:42:03Z</time>
      </trkpt>
      <trkpt lat="45.10314" lon="1.28469">
        <ele>193.6</ele>
        <time>2023-10-28T14:42:04Z</time>
      </trkpt>
      <trkpt lat="45.10317" lon="1.28468">
        <ele>193.8</ele>
        <time>2023-10-28T14:42:05Z</time>
      </trkpt>
      <trkpt lat="45.10318" lon="1.28468">
        <ele>194</ele>
        <time>2023-10-28T14:42:06Z</time>
      </trkpt>
      <trkpt lat="45.1032" lon="1.28467">
        <ele>194.1</ele>
        <time>2023-10-28T14:42:07Z</time>
      </trkpt>
      <trkpt lat="45.10322" lon="1.28467">
        <ele>194.2</ele>
        <time>2023-10-28T14:42:08Z</time>
      </trkpt>
      <trkpt lat="45.10324" lon="1.28467">
        <ele>194.4</ele>
        <time>2023-10-28T14:42:09Z</time>
      </trkpt>
      <trkpt lat="45.10326" lon="1.28466">
        <ele>194.6</ele>
        <time>2023-10-28T14:42:10Z</time>
      </trkpt>
      <trkpt lat="45.10328" lon="1.28466">
        <ele>194.7</ele>
        <time>2023-10-28T14:42:11Z</time>
      </trkpt>
      <trkpt lat="45.10331" lon="1.28466">
        <ele>194.8</ele>
        <time>2023-10-28T14:42:12Z</time>
      </trkpt>
      <trkpt lat="45.10333" lon="1.28467">
        <ele>194.9</ele>
        <time>2023-10-28T14:42:13Z</time>
      </trkpt>
      <trkpt lat="45.10335" lon="1.28467">
        <ele>194.9</ele>
        <time>2023-10-28T14:42:14Z</time>
      </trkpt>
      <trkpt lat="45.10338" lon="1.28467">
        <ele>195</ele>
        <time>2023-10-28T14:42:15Z</time>
      </trkpt>
      <trkpt lat="45.1034" lon="1.28467">
        <ele>195.1</ele>
        <time>2023-10-28T14:42:16Z</time>
      </trkpt>
      <trkpt lat="45.10342" lon="1.28468">
        <ele>195.1</ele>
        <time>2023-10-28T14:42:17Z</time>
      </trkpt>
      <trkpt lat="45.10344" lon="1.28468">
        <ele>195.1</ele>
        <time>2023-10-28T14:42:18Z</time>
      </trkpt>
      <trkpt lat="45.10346" lon="1.28468">
        <ele>195.2</ele>
        <time>2023-10-28T14:42:19Z</time>
      </trkpt>
      <trkpt lat="45.10349" lon="1.28468">
        <ele>195.2</ele>
        <time>2023-10-28T14:42:20Z</time>
      </trkpt>
      <trkpt lat="45.10351" lon="1.28468">
        <ele>195.3</ele>
        <time>2023-10-28T14:42:21Z</time>
      </trkpt>
      <trkpt lat="45.10354" lon="1.28468">
        <ele>195.3</ele>
        <time>2023-10-28T14:42:22Z</time>
      </trkpt>
      <trkpt lat="45.10356" lon="1.28468">
        <ele>195.3</ele>
        <time>2023-10-28T14:42:23Z</time>
      </trkpt>
      <trkpt lat="45.10358" lon="1.28467">
        <ele>195.4</ele>
        <time>2023-10-28T14:42:24Z</time>
      </trkpt>
      <trkpt lat="45.1036" lon="1.28467">
        <ele>195.4</ele>
        <time>2023-10-28T14:42:25Z</time>
      </trkpt>
      <trkpt lat="45.10363" lon="1.28467">
        <ele>195.4</ele>
        <time>2023-10-28T14:42:26Z</time>
      </trkpt>
      <trkpt lat="45.10365" lon="1.28467">
        <ele>195.5</ele>
        <time>2023-10-28T14:42:27Z</time>
      </trkpt>
      <trkpt lat="45.10367" lon="1.28467">
        <ele>195.5</ele>
        <time>2023-10-28T14:42:28Z</time>
      </trkpt>
      <trkpt lat="45.1037" lon="1.28468">
        <ele>195.5</ele>
        <time>2023-10-28T14:42:29Z</time>
      </trkpt>
      <trkpt lat="45.10372" lon="1.28468">
        <ele>195.6</ele>
        <time>2023-10-28T14:42:30Z</time>
      </trkpt>
      <trkpt lat="45.10374" lon="1.28468">
        <ele>195.6</ele>
        <time>2023-10-28T14:42:31Z</time>
      </trkpt>
      <trkpt lat="45.10377" lon="1.28468">
        <ele>195.6</ele>
        <time>2023-10-28T14:42:32Z</time>
      </trkpt>
      <trkpt lat="45.10379" lon="1.28468">
        <ele>195.6</ele>
        <time>2023-10-28T14:42:33Z</time>
      </trkpt>
      <trkpt lat="45.10381" lon="1.28468">
        <ele>195.7</ele>
        <time>2023-10-28T14:42:34Z</time>
      </trkpt>
      <trkpt lat="45.10384" lon="1.28469">
        <ele>195.7</ele>
        <time>2023-10-28T14:42:35Z</time>
      </trkpt>
      <trkpt lat="45.10386" lon="1.28469">
        <ele>195.7</ele>
        <time>2023-10-28T14:42:36Z</time>
      </trkpt>
      <trkpt lat="45.10388" lon="1.28469">
        <ele>195.8</ele>
        <time>2023-10-28T14:42:37Z</time>
      </trkpt>
      <trkpt lat="45.10391" lon="1.28469">
        <ele>195.8</ele>
        <time>2023-10-28T14:42:38Z</time>
      </trkpt>
      <trkpt lat="45.10393" lon="1.28469">
        <ele>195.9</ele>
        <time>2023-10-28T14:42:39Z</time>
      </trkpt>
      <trkpt lat="45.10395" lon="1.28469">
        <ele>195.9</ele>
        <time>2023-10-28T14:42:40Z</time>
      </trkpt>
      <trkpt lat="45.10398" lon="1.28469">
        <ele>196</ele>
        <time>2023-10-28T14:42:41Z</time>
      </trkpt>
      <trkpt lat="45.104" lon="1.28469">
        <ele>196</ele>
        <time>2023-10-28T14:42:42Z</time>
      </trkpt>
      <trkpt lat="45.10402" lon="1.28469">
        <ele>196.1</ele>
        <time>2023-10-28T14:42:43Z</time>
      </trkpt>
      <trkpt lat="45.10404" lon="1.28469">
        <ele>196.2</ele>
        <time>2023-10-28T14:42:44Z</time>
      </trkpt>
      <trkpt lat="45.10407" lon="1.28469">
        <ele>196.2</ele>
        <time>2023-10-28T14:42:45Z</time>
      </trkpt>
      <trkpt lat="45.10409" lon="1.28469">
        <ele>196.3</ele>
        <time>2023-10-28T14:42:46Z</time>
      </trkpt>
      <trkpt lat="45.10411" lon="1.28469">
        <ele>196.4</ele>
        <time>2023-10-28T14:42:47Z</time>
      </trkpt>
      <trkpt lat="45.10413" lon="1.28469">
        <ele>196.5</ele>
        <time>2023-10-28T14:42:48Z</time>
      </trkpt>
      <trkpt lat="45.10415" lon="1.28469">
        <ele>196.6</ele>
        <time>2023-10-28T14:42:49Z</time>
      </trkpt>
      <trkpt lat="45.10417" lon="1.28469">
        <ele>196.7</ele>
        <time>2023-10-28T14:42:50Z</time>
      </trkpt>
      <trkpt lat="45.10419" lon="1.28469">
        <ele>196.8</ele>
        <time>2023-10-28T14:42:51Z</time>
      </trkpt>
      <trkpt lat="45.10421" lon="1.28468">
        <ele>196.9</ele>
        <time>2023-10-28T14:42:52Z</time>
      </trkpt>
      <trkpt lat="45.10423" lon="1.28468">
        <ele>197.1</ele>
        <time>2023-10-28T14:42:53Z</time>
      </trkpt>
      <trkpt lat="45.10425" lon="1.28468">
        <ele>197.2</ele>
        <time>2023-10-28T14:42:54Z</time>
      </trkpt>
      <trkpt lat="45.10427" lon="1.28468">
        <ele>197.3</ele>
        <time>2023-10-28T14:42:55Z</time>
      </trkpt>
      <trkpt lat="45.10429" lon="1.28469">
        <ele>197.5</ele>
        <time>2023-10-28T14:42:56Z</time>
      </trkpt>
      <trkpt lat="45.10431" lon="1.28469">
        <ele>197.7</ele>
        <time>2023-10-28T14:42:57Z</time>
      </trkpt>
      <trkpt lat="45.10434" lon="1.28469">
        <ele>197.9</ele>
        <time>2023-10-28T14:42:58Z</time>
      </trkpt>
      <trkpt lat="45.10436" lon="1.28469">
        <ele>198</ele>
        <time>2023-10-28T14:42:59Z</time>
      </trkpt>
      <trkpt lat="45.10437" lon="1.28469">
        <ele>198.2</ele>
        <time>2023-10-28T14:43:00Z</time>
      </trkpt>
      <trkpt lat="45.10439" lon="1.28469">
        <ele>198.3</ele>
        <time>2023-10-28T14:43:01Z</time>
      </trkpt>
      <trkpt lat="45.10441" lon="1.28469">
        <ele>198.4</ele>
        <time>2023-10-28T14:43:02Z</time>
      </trkpt>
      <trkpt lat="45.10443" lon="1.28469">
        <ele>198.6</ele>
        <time>2023-10-28T14:43:03Z</time>
      </trkpt>
      <trkpt lat="45.10445" lon="1.28469">
        <ele>198.8</ele>
        <time>2023-10-28T14:43:04Z</time>
      </trkpt>
      <trkpt lat="45.10448" lon="1.28469">
        <ele>198.9</ele>
        <time>2023-10-28T14:43:05Z</time>
      </trkpt>
      <trkpt lat="45.1045" lon="1.28469">
        <ele>199.1</ele>
        <time>2023-10-28T14:43:06Z</time>
      </trkpt>
      <trkpt lat="45.10452" lon="1.2847">
        <ele>199.2</ele>
        <time>2023-10-28T14:43:07Z</time>
      </trkpt>
      <trkpt lat="45.10454" lon="1.2847">
        <ele>199.4</ele>
        <time>2023-10-28T14:43:08Z</time>
      </trkpt>
      <trkpt lat="45.10456" lon="1.2847">
        <ele>199.5</ele>
        <time>2023-10-28T14:43:09Z</time>
      </trkpt>
      <trkpt lat="45.10458" lon="1.2847">
        <ele>199.6</ele>
        <time>2023-10-28T14:43:10Z</time>
      </trkpt>
      <trkpt lat="45.1046" lon="1.2847">
        <ele>199.7</ele>
        <time>2023-10-28T14:43:11Z</time>
      </trkpt>
      <trkpt lat="45.10462" lon="1.28471">
        <ele>199.9</ele>
        <time>2023-10-28T14:43:12Z</time>
      </trkpt>
      <trkpt lat="45.10465" lon="1.28471">
        <ele>200</ele>
        <time>2023-10-28T14:43:13Z</time>
      </trkpt>
      <trkpt lat="45.10466" lon="1.28471">
        <ele>200.1</ele>
        <time>2023-10-28T14:43:14Z</time>
      </trkpt>
      <trkpt lat="45.10469" lon="1.28471">
        <ele>200.3</ele>
        <time>2023-10-28T14:43:15Z</time>
      </trkpt>
      <trkpt lat="45.10471" lon="1.28471">
        <ele>200.4</ele>
        <time>2023-10-28T14:43:16Z</time>
      </trkpt>
      <trkpt lat="45.10473" lon="1.28471">
        <ele>200.5</ele>
        <time>2023-10-28T14:43:17Z</time>
      </trkpt>
      <trkpt lat="45.10474" lon="1.28471">
        <ele>200.7</ele>
        <time>2023-10-28T14:43:18Z</time>
      </trkpt>
      <trkpt lat="45.10476" lon="1.28471">
        <ele>200.8</ele>
        <time>2023-10-28T14:43:19Z</time>
      </trkpt>
      <trkpt lat="45.10478" lon="1.28471">
        <ele>200.9</ele>
        <time>2023-10-28T14:43:20Z</time>
      </trkpt>
      <trkpt lat="45.1048" lon="1.28471">
        <ele>201.1</ele>
        <time>2023-10-28T14:43:21Z</time>
      </trkpt>
      <trkpt lat="45.10482" lon="1.28471">
        <ele>201.2</ele>
        <time>2023-10-28T14:43:22Z</time>
      </trkpt>
      <trkpt lat="45.10484" lon="1.28471">
        <ele>201.4</ele>
        <time>2023-10-28T14:43:23Z</time>
      </trkpt>
      <trkpt lat="45.10486" lon="1.2847">
        <ele>201.5</ele>
        <time>2023-10-28T14:43:24Z</time>
      </trkpt>
      <trkpt lat="45.10489" lon="1.2847">
        <ele>201.6</ele>
        <time>2023-10-28T14:43:25Z</time>
      </trkpt>
      <trkpt lat="45.10491" lon="1.2847">
        <ele>201.8</ele>
        <time>2023-10-28T14:43:26Z</time>
      </trkpt>
      <trkpt lat="45.10493" lon="1.2847">
        <ele>201.9</ele>
        <time>2023-10-28T14:43:27Z</time>
      </trkpt>
      <trkpt lat="45.10495" lon="1.28471">
        <ele>202</ele>
        <time>2023-10-28T14:43:28Z</time>
      </trkpt>
      <trkpt lat="45.10497" lon="1.28471">
        <ele>202.2</ele>
        <time>2023-10-28T14:43:29Z</time>
      </trkpt>
      <trkpt lat="45.10499" lon="1.28471">
        <ele>202.3</ele>
        <time>2023-10-28T14:43:30Z</time>
      </trkpt>
      <trkpt lat="45.10501" lon="1.28471">
        <ele>202.4</ele>
        <time>2023-10-28T14:43:31Z</time>
      </trkpt>
      <trkpt lat="45.10503" lon="1.28471">
        <ele>202.6</ele>
        <time>2023-10-28T14:43:32Z</time>
      </trkpt>
      <trkpt lat="45.10505" lon="1.28472">
        <ele>202.8</ele>
        <time>2023-10-28T14:43:33Z</time>
      </trkpt>
      <trkpt lat="45.10507" lon="1.28472">
        <ele>203</ele>
        <time>2023-10-28T14:43:34Z</time>
      </trkpt>
      <trkpt lat="45.10509" lon="1.28472">
        <ele>203.1</ele>
        <time>2023-10-28T14:43:35Z</time>
      </trkpt>
      <trkpt lat="45.10511" lon="1.28472">
        <ele>203.3</ele>
        <time>2023-10-28T14:43:36Z</time>
      </trkpt>
      <trkpt lat="45.10513" lon="1.28473">
        <ele>203.5</ele>
        <time>2023-10-28T14:43:37Z</time>
      </trkpt>
      <trkpt lat="45.10515" lon="1.28473">
        <ele>203.7</ele>
        <time>2023-10-28T14:43:38Z</time>
      </trkpt>
      <trkpt lat="45.10517" lon="1.28473">
        <ele>203.9</ele>
        <time>2023-10-28T14:43:39Z</time>
      </trkpt>
      <trkpt lat="45.10519" lon="1.28473">
        <ele>204.1</ele>
        <time>2023-10-28T14:43:40Z</time>
      </trkpt>
      <trkpt lat="45.10521" lon="1.28473">
        <ele>204.3</ele>
        <time>2023-10-28T14:43:41Z</time>
      </trkpt>
      <trkpt lat="45.10523" lon="1.28473">
        <ele>204.4</ele>
        <time>2023-10-28T14:43:42Z</time>
      </trkpt>
      <trkpt lat="45.10524" lon="1.28473">
        <ele>204.6</ele>
        <time>2023-10-28T14:43:43Z</time>
      </trkpt>
      <trkpt lat="45.10526" lon="1.28473">
        <ele>204.8</ele>
        <time>2023-10-28T14:43:44Z</time>
      </trkpt>
      <trkpt lat="45.10528" lon="1.28473">
        <ele>205</ele>
        <time>2023-10-28T14:43:45Z</time>
      </trkpt>
      <trkpt lat="45.1053" lon="1.28473">
        <ele>205.2</ele>
        <time>2023-10-28T14:43:46Z</time>
      </trkpt>
      <trkpt lat="45.10532" lon="1.28474">
        <ele>205.3</ele>
        <time>2023-10-28T14:43:47Z</time>
      </trkpt>
      <trkpt lat="45.10534" lon="1.28474">
        <ele>205.5</ele>
        <time>2023-10-28T14:43:48Z</time>
      </trkpt>
      <trkpt lat="45.10536" lon="1.28474">
        <ele>205.7</ele>
        <time>2023-10-28T14:43:49Z</time>
      </trkpt>
      <trkpt lat="45.10538" lon="1.28474">
        <ele>205.8</ele>
        <time>2023-10-28T14:43:50Z</time>
      </trkpt>
      <trkpt lat="45.1054" lon="1.28474">
        <ele>206</ele>
        <time>2023-10-28T14:43:51Z</time>
      </trkpt>
      <trkpt lat="45.10542" lon="1.28475">
        <ele>206.1</ele>
        <time>2023-10-28T14:43:52Z</time>
      </trkpt>
      <trkpt lat="45.10544" lon="1.28475">
        <ele>206.2</ele>
        <time>2023-10-28T14:43:53Z</time>
      </trkpt>
      <trkpt lat="45.10546" lon="1.28476">
        <ele>206.3</ele>
        <time>2023-10-28T14:43:54Z</time>
      </trkpt>
      <trkpt lat="45.10548" lon="1.28476">
        <ele>206.4</ele>
        <time>2023-10-28T14:43:55Z</time>
      </trkpt>
      <trkpt lat="45.1055" lon="1.28477">
        <ele>206.5</ele>
        <time>2023-10-28T14:43:56Z</time>
      </trkpt>
      <trkpt lat="45.10552" lon="1.28478">
        <ele>206.6</ele>
        <time>2023-10-28T14:43:57Z</time>
      </trkpt>
      <trkpt lat="45.10554" lon="1.28479">
        <ele>206.7</ele>
        <time>2023-10-28T14:43:58Z</time>
      </trkpt>
      <trkpt lat="45.10556" lon="1.2848">
        <ele>206.7</ele>
        <time>2023-10-28T14:43:59Z</time>
      </trkpt>
      <trkpt lat="45.10558" lon="1.28481">
        <ele>206.8</ele>
        <time>2023-10-28T14:44:00Z</time>
      </trkpt>
      <trkpt lat="45.1056" lon="1.28482">
        <ele>206.8</ele>
        <time>2023-10-28T14:44:01Z</time>
      </trkpt>
      <trkpt lat="45.10561" lon="1.28483">
        <ele>206.9</ele>
        <time>2023-10-28T14:44:02Z</time>
      </trkpt>
      <trkpt lat="45.10563" lon="1.28485">
        <ele>206.9</ele>
        <time>2023-10-28T14:44:03Z</time>
      </trkpt>
      <trkpt lat="45.10565" lon="1.28486">
        <ele>207</ele>
        <time>2023-10-28T14:44:04Z</time>
      </trkpt>
      <trkpt lat="45.10567" lon="1.28488">
        <ele>207.1</ele>
        <time>2023-10-28T14:44:05Z</time>
      </trkpt>
      <trkpt lat="45.10568" lon="1.28489">
        <ele>207.1</ele>
        <time>2023-10-28T14:44:06Z</time>
      </trkpt>
      <trkpt lat="45.1057" lon="1.2849">
        <ele>207.2</ele>
        <time>2023-10-28T14:44:07Z</time>
      </trkpt>
      <trkpt lat="45.10572" lon="1.28491">
        <ele>207.3</ele>
        <time>2023-10-28T14:44:08Z</time>
      </trkpt>
      <trkpt lat="45.10574" lon="1.28493">
        <ele>207.5</ele>
        <time>2023-10-28T14:44:09Z</time>
      </trkpt>
      <trkpt lat="45.10576" lon="1.28493">
        <ele>207.6</ele>
        <time>2023-10-28T14:44:10Z</time>
      </trkpt>
      <trkpt lat="45.10577" lon="1.28494">
        <ele>207.7</ele>
        <time>2023-10-28T14:44:11Z</time>
      </trkpt>
      <trkpt lat="45.10579" lon="1.28495">
        <ele>207.8</ele>
        <time>2023-10-28T14:44:12Z</time>
      </trkpt>
      <trkpt lat="45.1058" lon="1.28495">
        <ele>207.9</ele>
        <time>2023-10-28T14:44:13Z</time>
      </trkpt>
      <trkpt lat="45.10582" lon="1.28496">
        <ele>208.1</ele>
        <time>2023-10-28T14:44:14Z</time>
      </trkpt>
      <trkpt lat="45.10583" lon="1.28496">
        <ele>208.2</ele>
        <time>2023-10-28T14:44:15Z</time>
      </trkpt>
      <trkpt lat="45.10585" lon="1.28497">
        <ele>208.3</ele>
        <time>2023-10-28T14:44:16Z</time>
      </trkpt>
      <trkpt lat="45.10586" lon="1.28497">
        <ele>208.4</ele>
        <time>2023-10-28T14:44:17Z</time>
      </trkpt>
      <trkpt lat="45.10587" lon="1.28498">
        <ele>208.6</ele>
        <time>2023-10-28T14:44:18Z</time>
      </trkpt>
      <trkpt lat="45.10588" lon="1.28498">
        <ele>208.7</ele>
        <time>2023-10-28T14:44:19Z</time>
      </trkpt>
      <trkpt lat="45.10589" lon="1.28499">
        <ele>208.8</ele>
        <time>2023-10-28T14:44:20Z</time>
      </trkpt>
      <trkpt lat="45.1059" lon="1.28499">
        <ele>208.9</ele>
        <time>2023-10-28T14:44:21Z</time>
      </trkpt>
      <trkpt lat="45.10592" lon="1.28499">
        <ele>209</ele>
        <time>2023-10-28T14:44:22Z</time>
      </trkpt>
      <trkpt lat="45.10593" lon="1.285">
        <ele>209.2</ele>
        <time>2023-10-28T14:44:23Z</time>
      </trkpt>
      <trkpt lat="45.10594" lon="1.285">
        <ele>209.3</ele>
        <time>2023-10-28T14:44:24Z</time>
      </trkpt>
      <trkpt lat="45.10595" lon="1.28501">
        <ele>209.5</ele>
        <time>2023-10-28T14:44:25Z</time>
      </trkpt>
      <trkpt lat="45.10597" lon="1.28501">
        <ele>209.6</ele>
        <time>2023-10-28T14:44:26Z</time>
      </trkpt>
      <trkpt lat="45.10598" lon="1.28501">
        <ele>209.7</ele>
        <time>2023-10-28T14:44:27Z</time>
      </trkpt>
      <trkpt lat="45.10599" lon="1.28501">
        <ele>209.9</ele>
        <time>2023-10-28T14:44:28Z</time>
      </trkpt>
      <trkpt lat="45.106" lon="1.28501">
        <ele>210</ele>
        <time>2023-10-28T14:44:29Z</time>
      </trkpt>
      <trkpt lat="45.10601" lon="1.28501">
        <ele>210.1</ele>
        <time>2023-10-28T14:44:30Z</time>
      </trkpt>
      <trkpt lat="45.10603" lon="1.28501">
        <ele>210.3</ele>
        <time>2023-10-28T14:44:31Z</time>
      </trkpt>
      <trkpt lat="45.10604" lon="1.28501">
        <ele>210.4</ele>
        <time>2023-10-28T14:44:32Z</time>
      </trkpt>
      <trkpt lat="45.10605" lon="1.28501">
        <ele>210.5</ele>
        <time>2023-10-28T14:44:33Z</time>
      </trkpt>
      <trkpt lat="45.10606" lon="1.28501">
        <ele>210.7</ele>
        <time>2023-10-28T14:44:34Z</time>
      </trkpt>
      <trkpt lat="45.10608" lon="1.28501">
        <ele>210.8</ele>
        <time>2023-10-28T14:44:35Z</time>
      </trkpt>
      <trkpt lat="45.10609" lon="1.28501">
        <ele>211</ele>
        <time>2023-10-28T14:44:36Z</time>
      </trkpt>
      <trkpt lat="45.1061" lon="1.28501">
        <ele>211.1</ele>
        <time>2023-10-28T14:44:37Z</time>
      </trkpt>
      <trkpt lat="45.10611" lon="1.28501">
        <ele>211.3</ele>
        <time>2023-10-28T14:44:38Z</time>
      </trkpt>
      <trkpt lat="45.10613" lon="1.285">
        <ele>211.5</ele>
        <time>2023-10-28T14:44:39Z</time>
      </trkpt>
      <trkpt lat="45.10614" lon="1.285">
        <ele>211.6</ele>
        <time>2023-10-28T14:44:40Z</time>
      </trkpt>
      <trkpt lat="45.10616" lon="1.285">
        <ele>211.8</ele>
        <time>2023-10-28T14:44:41Z</time>
      </trkpt>
      <trkpt lat="45.10617" lon="1.285">
        <ele>212</ele>
        <time>2023-10-28T14:44:42Z</time>
      </trkpt>
      <trkpt lat="45.10619" lon="1.28499">
        <ele>212.1</ele>
        <time>2023-10-28T14:44:43Z</time>
      </trkpt>
      <trkpt lat="45.1062" lon="1.28499">
        <ele>212.2</ele>
        <time>2023-10-28T14:44:44Z</time>
      </trkpt>
      <trkpt lat="45.10622" lon="1.28499">
        <ele>212.4</ele>
        <time>2023-10-28T14:44:45Z</time>
      </trkpt>
      <trkpt lat="45.10623" lon="1.28499">
        <ele>212.5</ele>
        <time>2023-10-28T14:44:46Z</time>
      </trkpt>
      <trkpt lat="45.10624" lon="1.28499">
        <ele>212.6</ele>
        <time>2023-10-28T14:44:47Z</time>
      </trkpt>
      <trkpt lat="45.10625" lon="1.28498">
        <ele>212.7</ele>
        <time>2023-10-28T14:44:48Z</time>
      </trkpt>
      <trkpt lat="45.10626" lon="1.28498">
        <ele>212.8</ele>
        <time>2023-10-28T14:44:49Z</time>
      </trkpt>
      <trkpt lat="45.10628" lon="1.28498">
        <ele>212.9</ele>
        <time>2023-10-28T14:44:50Z</time>
      </trkpt>
      <trkpt lat="45.10629" lon="1.28498">
        <ele>212.9</ele>
        <time>2023-10-28T14:44:51Z</time>
      </trkpt>
      <trkpt lat="45.1063" lon="1.28498">
        <ele>213</ele>
        <time>2023-10-28T14:44:52Z</time>
      </trkpt>
      <trkpt lat="45.10632" lon="1.28497">
        <ele>213.1</ele>
        <time>2023-10-28T14:44:53Z</time>
      </trkpt>
      <trkpt lat="45.10632" lon="1.28496">
        <ele>213.2</ele>
        <time>2023-10-28T14:44:54Z</time>
      </trkpt>
      <trkpt lat="45.10634" lon="1.28494">
        <ele>213.2</ele>
        <time>2023-10-28T14:44:55Z</time>
      </trkpt>
      <trkpt lat="45.10634" lon="1.28492">
        <ele>213.3</ele>
        <time>2023-10-28T14:44:56Z</time>
      </trkpt>
      <trkpt lat="45.10635" lon="1.2849">
        <ele>213.3</ele>
        <time>2023-10-28T14:44:57Z</time>
      </trkpt>
      <trkpt lat="45.10636" lon="1.28487">
        <ele>213.3</ele>
        <time>2023-10-28T14:44:58Z</time>
      </trkpt>
      <trkpt lat="45.10637" lon="1.28484">
        <ele>213.3</ele>
        <time>2023-10-28T14:44:59Z</time>
      </trkpt>
      <trkpt lat="45.10638" lon="1.28481">
        <ele>213.3</ele>
        <time>2023-10-28T14:45:00Z</time>
      </trkpt>
      <trkpt lat="45.1064" lon="1.28478">
        <ele>213.3</ele>
        <time>2023-10-28T14:45:01Z</time>
      </trkpt>
      <trkpt lat="45.10642" lon="1.28476">
        <ele>213.3</ele>
        <time>2023-10-28T14:45:02Z</time>
      </trkpt>
      <trkpt lat="45.10644" lon="1.28474">
        <ele>213.2</ele>
        <time>2023-10-28T14:45:03Z</time>
      </trkpt>
      <trkpt lat="45.10645" lon="1.28474">
        <ele>213.3</ele>
        <time>2023-10-28T14:45:04Z</time>
      </trkpt>
      <trkpt lat="45.10647" lon="1.28473">
        <ele>213.4</ele>
        <time>2023-10-28T14:45:05Z</time>
      </trkpt>
      <trkpt lat="45.10649" lon="1.28473">
        <ele>213.5</ele>
        <time>2023-10-28T14:45:06Z</time>
      </trkpt>
      <trkpt lat="45.10651" lon="1.28474">
        <ele>213.6</ele>
        <time>2023-10-28T14:45:07Z</time>
      </trkpt>
      <trkpt lat="45.10653" lon="1.28475">
        <ele>213.8</ele>
        <time>2023-10-28T14:45:08Z</time>
      </trkpt>
      <trkpt lat="45.10654" lon="1.28477">
        <ele>213.9</ele>
        <time>2023-10-28T14:45:09Z</time>
      </trkpt>
      <trkpt lat="45.10656" lon="1.28478">
        <ele>214.1</ele>
        <time>2023-10-28T14:45:10Z</time>
      </trkpt>
      <trkpt lat="45.10658" lon="1.2848">
        <ele>214.3</ele>
        <time>2023-10-28T14:45:11Z</time>
      </trkpt>
      <trkpt lat="45.10659" lon="1.28482">
        <ele>214.4</ele>
        <time>2023-10-28T14:45:12Z</time>
      </trkpt>
      <trkpt lat="45.10661" lon="1.28483">
        <ele>214.6</ele>
        <time>2023-10-28T14:45:13Z</time>
      </trkpt>
      <trkpt lat="45.10663" lon="1.28485">
        <ele>214.8</ele>
        <time>2023-10-28T14:45:14Z</time>
      </trkpt>
      <trkpt lat="45.10664" lon="1.28486">
        <ele>215</ele>
        <time>2023-10-28T14:45:15Z</time>
      </trkpt>
      <trkpt lat="45.10666" lon="1.28488">
        <ele>215.1</ele>
        <time>2023-10-28T14:45:16Z</time>
      </trkpt>
      <trkpt lat="45.10667" lon="1.2849">
        <ele>215.3</ele>
        <time>2023-10-28T14:45:17Z</time>
      </trkpt>
      <trkpt lat="45.10669" lon="1.28491">
        <ele>215.5</ele>
        <time>2023-10-28T14:45:18Z</time>
      </trkpt>
      <trkpt lat="45.10671" lon="1.28493">
        <ele>215.7</ele>
        <time>2023-10-28T14:45:19Z</time>
      </trkpt>
      <trkpt lat="45.10672" lon="1.28494">
        <ele>215.9</ele>
        <time>2023-10-28T14:45:20Z</time>
      </trkpt>
      <trkpt lat="45.10674" lon="1.28496">
        <ele>216.1</ele>
        <time>2023-10-28T14:45:21Z</time>
      </trkpt>
      <trkpt lat="45.10676" lon="1.28497">
        <ele>216.3</ele>
        <time>2023-10-28T14:45:22Z</time>
      </trkpt>
      <trkpt lat="45.10679" lon="1.28499">
        <ele>216.5</ele>
        <time>2023-10-28T14:45:23Z</time>
      </trkpt>
      <trkpt lat="45.1068" lon="1.285">
        <ele>216.7</ele>
        <time>2023-10-28T14:45:24Z</time>
      </trkpt>
      <trkpt lat="45.10682" lon="1.28501">
        <ele>216.9</ele>
        <time>2023-10-28T14:45:25Z</time>
      </trkpt>
      <trkpt lat="45.10684" lon="1.28503">
        <ele>217.1</ele>
        <time>2023-10-28T14:45:26Z</time>
      </trkpt>
      <trkpt lat="45.10686" lon="1.28504">
        <ele>217.2</ele>
        <time>2023-10-28T14:45:27Z</time>
      </trkpt>
      <trkpt lat="45.10688" lon="1.28505">
        <ele>217.4</ele>
        <time>2023-10-28T14:45:28Z</time>
      </trkpt>
      <trkpt lat="45.1069" lon="1.28507">
        <ele>217.5</ele>
        <time>2023-10-28T14:45:29Z</time>
      </trkpt>
      <trkpt lat="45.10691" lon="1.28508">
        <ele>217.7</ele>
        <time>2023-10-28T14:45:30Z</time>
      </trkpt>
      <trkpt lat="45.10693" lon="1.28509">
        <ele>217.8</ele>
        <time>2023-10-28T14:45:31Z</time>
      </trkpt>
      <trkpt lat="45.10695" lon="1.28511">
        <ele>218</ele>
        <time>2023-10-28T14:45:32Z</time>
      </trkpt>
      <trkpt lat="45.10696" lon="1.28512">
        <ele>218.1</ele>
        <time>2023-10-28T14:45:33Z</time>
      </trkpt>
      <trkpt lat="45.10698" lon="1.28513">
        <ele>218.3</ele>
        <time>2023-10-28T14:45:34Z</time>
      </trkpt>
      <trkpt lat="45.107" lon="1.28515">
        <ele>218.4</ele>
        <time>2023-10-28T14:45:35Z</time>
      </trkpt>
      <trkpt lat="45.10702" lon="1.28516">
        <ele>218.6</ele>
        <time>2023-10-28T14:45:36Z</time>
      </trkpt>
      <trkpt lat="45.10703" lon="1.28518">
        <ele>218.7</ele>
        <time>2023-10-28T14:45:37Z</time>
      </trkpt>
      <trkpt lat="45.10705" lon="1.28519">
        <ele>218.9</ele>
        <time>2023-10-28T14:45:38Z</time>
      </trkpt>
      <trkpt lat="45.10707" lon="1.28521">
        <ele>219.1</ele>
        <time>2023-10-28T14:45:39Z</time>
      </trkpt>
      <trkpt lat="45.10708" lon="1.28522">
        <ele>219.2</ele>
        <time>2023-10-28T14:45:40Z</time>
      </trkpt>
      <trkpt lat="45.1071" lon="1.28523">
        <ele>219.4</ele>
        <time>2023-10-28T14:45:41Z</time>
      </trkpt>
      <trkpt lat="45.10712" lon="1.28525">
        <ele>219.6</ele>
        <time>2023-10-28T14:45:42Z</time>
      </trkpt>
      <trkpt lat="45.10713" lon="1.28526">
        <ele>219.7</ele>
        <time>2023-10-28T14:45:43Z</time>
      </trkpt>
      <trkpt lat="45.10715" lon="1.28527">
        <ele>219.8</ele>
        <time>2023-10-28T14:45:44Z</time>
      </trkpt>
      <trkpt lat="45.10716" lon="1.28528">
        <ele>219.9</ele>
        <time>2023-10-28T14:45:45Z</time>
      </trkpt>
      <trkpt lat="45.10718" lon="1.28529">
        <ele>220.1</ele>
        <time>2023-10-28T14:45:46Z</time>
      </trkpt>
      <trkpt lat="45.1072" lon="1.28531">
        <ele>220.2</ele>
        <time>2023-10-28T14:45:47Z</time>
      </trkpt>
      <trkpt lat="45.10721" lon="1.28532">
        <ele>220.4</ele>
        <time>2023-10-28T14:45:48Z</time>
      </trkpt>
      <trkpt lat="45.10723" lon="1.28533">
        <ele>220.5</ele>
        <time>2023-10-28T14:45:49Z</time>
      </trkpt>
      <trkpt lat="45.10725" lon="1.28534">
        <ele>220.6</ele>
        <time>2023-10-28T14:45:50Z</time>
      </trkpt>
      <trkpt lat="45.10727" lon="1.28535">
        <ele>220.8</ele>
        <time>2023-10-28T14:45:51Z</time>
      </trkpt>
      <trkpt lat="45.10729" lon="1.28536">
        <ele>220.9</ele>
        <time>2023-10-28T14:45:52Z</time>
      </trkpt>
      <trkpt lat="45.1073" lon="1.28537">
        <ele>221</ele>
        <time>2023-10-28T14:45:53Z</time>
      </trkpt>
      <trkpt lat="45.10732" lon="1.28538">
        <ele>221.1</ele>
        <time>2023-10-28T14:45:54Z</time>
      </trkpt>
      <trkpt lat="45.10733" lon="1.28539">
        <ele>221.2</ele>
        <time>2023-10-28T14:45:55Z</time>
      </trkpt>
      <trkpt lat="45.10735" lon="1.28539">
        <ele>221.3</ele>
        <time>2023-10-28T14:45:56Z</time>
      </trkpt>
      <trkpt lat="45.10737" lon="1.2854">
        <ele>221.4</ele>
        <time>2023-10-28T14:45:57Z</time>
      </trkpt>
      <trkpt lat="45.10739" lon="1.2854">
        <ele>221.5</ele>
        <time>2023-10-28T14:45:58Z</time>
      </trkpt>
      <trkpt lat="45.10741" lon="1.28541">
        <ele>221.6</ele>
        <time>2023-10-28T14:45:59Z</time>
      </trkpt>
      <trkpt lat="45.10743" lon="1.28541">
        <ele>221.7</ele>
        <time>2023-10-28T14:46:00Z</time>
      </trkpt>
      <trkpt lat="45.10745" lon="1.28542">
        <ele>221.8</ele>
        <time>2023-10-28T14:46:01Z</time>
      </trkpt>
      <trkpt lat="45.10747" lon="1.28543">
        <ele>221.9</ele>
        <time>2023-10-28T14:46:02Z</time>
      </trkpt>
      <trkpt lat="45.10749" lon="1.28543">
        <ele>222</ele>
        <time>2023-10-28T14:46:03Z</time>
      </trkpt>
      <trkpt lat="45.1075" lon="1.28544">
        <ele>222.1</ele>
        <time>2023-10-28T14:46:04Z</time>
      </trkpt>
      <trkpt lat="45.10752" lon="1.28545">
        <ele>222.2</ele>
        <time>2023-10-28T14:46:05Z</time>
      </trkpt>
      <trkpt lat="45.10753" lon="1.28546">
        <ele>222.3</ele>
        <time>2023-10-28T14:46:06Z</time>
      </trkpt>
      <trkpt lat="45.10755" lon="1.28547">
        <ele>222.3</ele>
        <time>2023-10-28T14:46:07Z</time>
      </trkpt>
      <trkpt lat="45.10756" lon="1.28547">
        <ele>222.4</ele>
        <time>2023-10-28T14:46:08Z</time>
      </trkpt>
      <trkpt lat="45.10757" lon="1.28548">
        <ele>222.5</ele>
        <time>2023-10-28T14:46:09Z</time>
      </trkpt>
      <trkpt lat="45.10759" lon="1.28549">
        <ele>222.6</ele>
        <time>2023-10-28T14:46:10Z</time>
      </trkpt>
      <trkpt lat="45.1076" lon="1.2855">
        <ele>222.7</ele>
        <time>2023-10-28T14:46:11Z</time>
      </trkpt>
      <trkpt lat="45.10761" lon="1.28551">
        <ele>222.8</ele>
        <time>2023-10-28T14:46:12Z</time>
      </trkpt>
      <trkpt lat="45.10763" lon="1.28552">
        <ele>222.9</ele>
        <time>2023-10-28T14:46:13Z</time>
      </trkpt>
      <trkpt lat="45.10764" lon="1.28554">
        <ele>222.9</ele>
        <time>2023-10-28T14:46:14Z</time>
      </trkpt>
      <trkpt lat="45.10766" lon="1.28555">
        <ele>223.1</ele>
        <time>2023-10-28T14:46:15Z</time>
      </trkpt>
      <trkpt lat="45.10767" lon="1.28557">
        <ele>223.1</ele>
        <time>2023-10-28T14:46:16Z</time>
      </trkpt>
      <trkpt lat="45.10768" lon="1.28558">
        <ele>223.2</ele>
        <time>2023-10-28T14:46:17Z</time>
      </trkpt>
      <trkpt lat="45.10769" lon="1.2856">
        <ele>223.3</ele>
        <time>2023-10-28T14:46:18Z</time>
      </trkpt>
      <trkpt lat="45.1077" lon="1.28561">
        <ele>223.4</ele>
        <time>2023-10-28T14:46:19Z</time>
      </trkpt>
      <trkpt lat="45.10771" lon="1.28563">
        <ele>223.5</ele>
        <time>2023-10-28T14:46:20Z</time>
      </trkpt>
      <trkpt lat="45.10772" lon="1.28564">
        <ele>223.5</ele>
        <time>2023-10-28T14:46:21Z</time>
      </trkpt>
      <trkpt lat="45.10773" lon="1.28566">
        <ele>223.6</ele>
        <time>2023-10-28T14:46:22Z</time>
      </trkpt>
      <trkpt lat="45.10774" lon="1.28568">
        <ele>223.7</ele>
        <time>2023-10-28T14:46:23Z</time>
      </trkpt>
      <trkpt lat="45.10775" lon="1.28569">
        <ele>223.8</ele>
        <time>2023-10-28T14:46:24Z</time>
      </trkpt>
      <trkpt lat="45.10776" lon="1.28571">
        <ele>223.9</ele>
        <time>2023-10-28T14:46:25Z</time>
      </trkpt>
      <trkpt lat="45.10777" lon="1.28573">
        <ele>224</ele>
        <time>2023-10-28T14:46:26Z</time>
      </trkpt>
      <trkpt lat="45.10778" lon="1.28575">
        <ele>224</ele>
        <time>2023-10-28T14:46:27Z</time>
      </trkpt>
      <trkpt lat="45.10779" lon="1.28576">
        <ele>224.2</ele>
        <time>2023-10-28T14:46:28Z</time>
      </trkpt>
      <trkpt lat="45.1078" lon="1.28578">
        <ele>224.3</ele>
        <time>2023-10-28T14:46:29Z</time>
      </trkpt>
      <trkpt lat="45.10782" lon="1.28579">
        <ele>224.4</ele>
        <time>2023-10-28T14:46:30Z</time>
      </trkpt>
      <trkpt lat="45.10783" lon="1.28581">
        <ele>224.5</ele>
        <time>2023-10-28T14:46:31Z</time>
      </trkpt>
      <trkpt lat="45.10785" lon="1.28582">
        <ele>224.6</ele>
        <time>2023-10-28T14:46:32Z</time>
      </trkpt>
      <trkpt lat="45.10786" lon="1.28584">
        <ele>224.7</ele>
        <time>2023-10-28T14:46:33Z</time>
      </trkpt>
      <trkpt lat="45.10788" lon="1.28585">
        <ele>224.8</ele>
        <time>2023-10-28T14:46:34Z</time>
      </trkpt>
      <trkpt lat="45.10789" lon="1.28586">
        <ele>224.9</ele>
        <time>2023-10-28T14:46:35Z</time>
      </trkpt>
      <trkpt lat="45.10791" lon="1.28588">
        <ele>225.1</ele>
        <time>2023-10-28T14:46:36Z</time>
      </trkpt>
      <trkpt lat="45.10792" lon="1.28589">
        <ele>225.2</ele>
        <time>2023-10-28T14:46:37Z</time>
      </trkpt>
      <trkpt lat="45.10793" lon="1.2859">
        <ele>225.3</ele>
        <time>2023-10-28T14:46:38Z</time>
      </trkpt>
      <trkpt lat="45.10794" lon="1.28591">
        <ele>225.4</ele>
        <time>2023-10-28T14:46:39Z</time>
      </trkpt>
      <trkpt lat="45.10796" lon="1.28592">
        <ele>225.5</ele>
        <time>2023-10-28T14:46:40Z</time>
      </trkpt>
      <trkpt lat="45.10798" lon="1.28593">
        <ele>225.6</ele>
        <time>2023-10-28T14:46:41Z</time>
      </trkpt>
      <trkpt lat="45.10799" lon="1.28594">
        <ele>225.7</ele>
        <time>2023-10-28T14:46:42Z</time>
      </trkpt>
      <trkpt lat="45.10801" lon="1.28594">
        <ele>225.9</ele>
        <time>2023-10-28T14:46:43Z</time>
      </trkpt>
      <trkpt lat="45.10802" lon="1.28595">
        <ele>226</ele>
        <time>2023-10-28T14:46:44Z</time>
      </trkpt>
      <trkpt lat="45.10804" lon="1.28596">
        <ele>226.1</ele>
        <time>2023-10-28T14:46:45Z</time>
      </trkpt>
      <trkpt lat="45.10805" lon="1.28596">
        <ele>226.2</ele>
        <time>2023-10-28T14:46:46Z</time>
      </trkpt>
      <trkpt lat="45.10806" lon="1.28596">
        <ele>226.3</ele>
        <time>2023-10-28T14:46:47Z</time>
      </trkpt>
      <trkpt lat="45.10808" lon="1.28596">
        <ele>226.4</ele>
        <time>2023-10-28T14:46:48Z</time>
      </trkpt>
      <trkpt lat="45.10809" lon="1.28596">
        <ele>226.5</ele>
        <time>2023-10-28T14:46:49Z</time>
      </trkpt>
      <trkpt lat="45.10811" lon="1.28597">
        <ele>226.6</ele>
        <time>2023-10-28T14:46:50Z</time>
      </trkpt>
      <trkpt lat="45.10812" lon="1.28597">
        <ele>226.7</ele>
        <time>2023-10-28T14:46:51Z</time>
      </trkpt>
      <trkpt lat="45.10813" lon="1.28597">
        <ele>226.8</ele>
        <time>2023-10-28T14:46:52Z</time>
      </trkpt>
      <trkpt lat="45.10815" lon="1.28597">
        <ele>226.9</ele>
        <time>2023-10-28T14:46:53Z</time>
      </trkpt>
      <trkpt lat="45.10816" lon="1.28597">
        <ele>227.1</ele>
        <time>2023-10-28T14:46:54Z</time>
      </trkpt>
      <trkpt lat="45.10818" lon="1.28597">
        <ele>227.2</ele>
        <time>2023-10-28T14:46:55Z</time>
      </trkpt>
      <trkpt lat="45.10819" lon="1.28598">
        <ele>227.3</ele>
        <time>2023-10-28T14:46:56Z</time>
      </trkpt>
      <trkpt lat="45.10821" lon="1.28598">
        <ele>227.4</ele>
        <time>2023-10-28T14:46:57Z</time>
      </trkpt>
      <trkpt lat="45.10822" lon="1.28599">
        <ele>227.6</ele>
        <time>2023-10-28T14:46:58Z</time>
      </trkpt>
      <trkpt lat="45.10824" lon="1.28599">
        <ele>227.7</ele>
        <time>2023-10-28T14:46:59Z</time>
      </trkpt>
      <trkpt lat="45.10825" lon="1.286">
        <ele>227.8</ele>
        <time>2023-10-28T14:47:00Z</time>
      </trkpt>
      <trkpt lat="45.10827" lon="1.286">
        <ele>228</ele>
        <time>2023-10-28T14:47:01Z</time>
      </trkpt>
      <trkpt lat="45.10828" lon="1.28601">
        <ele>228.1</ele>
        <time>2023-10-28T14:47:02Z</time>
      </trkpt>
      <trkpt lat="45.1083" lon="1.28602">
        <ele>228.2</ele>
        <time>2023-10-28T14:47:03Z</time>
      </trkpt>
      <trkpt lat="45.10831" lon="1.28602">
        <ele>228.3</ele>
        <time>2023-10-28T14:47:04Z</time>
      </trkpt>
      <trkpt lat="45.10833" lon="1.28603">
        <ele>228.5</ele>
        <time>2023-10-28T14:47:05Z</time>
      </trkpt>
      <trkpt lat="45.10834" lon="1.28603">
        <ele>228.5</ele>
        <time>2023-10-28T14:47:06Z</time>
      </trkpt>
      <trkpt lat="45.10835" lon="1.28604">
        <ele>228.6</ele>
        <time>2023-10-28T14:47:07Z</time>
      </trkpt>
      <trkpt lat="45.10836" lon="1.28604">
        <ele>228.7</ele>
        <time>2023-10-28T14:47:08Z</time>
      </trkpt>
      <trkpt lat="45.10837" lon="1.28605">
        <ele>228.8</ele>
        <time>2023-10-28T14:47:09Z</time>
      </trkpt>
      <trkpt lat="45.10838" lon="1.28605">
        <ele>228.9</ele>
        <time>2023-10-28T14:47:10Z</time>
      </trkpt>
      <trkpt lat="45.1084" lon="1.28606">
        <ele>229</ele>
        <time>2023-10-28T14:47:11Z</time>
      </trkpt>
      <trkpt lat="45.10841" lon="1.28606">
        <ele>229.1</ele>
        <time>2023-10-28T14:47:12Z</time>
      </trkpt>
      <trkpt lat="45.10843" lon="1.28607">
        <ele>229.3</ele>
        <time>2023-10-28T14:47:13Z</time>
      </trkpt>
      <trkpt lat="45.10845" lon="1.28608">
        <ele>229.4</ele>
        <time>2023-10-28T14:47:14Z</time>
      </trkpt>
      <trkpt lat="45.10846" lon="1.28608">
        <ele>229.5</ele>
        <time>2023-10-28T14:47:15Z</time>
      </trkpt>
      <trkpt lat="45.10848" lon="1.28609">
        <ele>229.7</ele>
        <time>2023-10-28T14:47:16Z</time>
      </trkpt>
      <trkpt lat="45.1085" lon="1.2861">
        <ele>229.8</ele>
        <time>2023-10-28T14:47:17Z</time>
      </trkpt>
      <trkpt lat="45.10851" lon="1.28611">
        <ele>229.9</ele>
        <time>2023-10-28T14:47:18Z</time>
      </trkpt>
      <trkpt lat="45.10853" lon="1.28612">
        <ele>230</ele>
        <time>2023-10-28T14:47:19Z</time>
      </trkpt>
      <trkpt lat="45.10855" lon="1.28613">
        <ele>230.2</ele>
        <time>2023-10-28T14:47:20Z</time>
      </trkpt>
      <trkpt lat="45.10856" lon="1.28614">
        <ele>230.3</ele>
        <time>2023-10-28T14:47:21Z</time>
      </trkpt>
      <trkpt lat="45.10857" lon="1.28615">
        <ele>230.4</ele>
        <time>2023-10-28T14:47:22Z</time>
      </trkpt>
      <trkpt lat="45.10859" lon="1.28616">
        <ele>230.5</ele>
        <time>2023-10-28T14:47:23Z</time>
      </trkpt>
      <trkpt lat="45.1086" lon="1.28617">
        <ele>230.6</ele>
        <time>2023-10-28T14:47:24Z</time>
      </trkpt>
      <trkpt lat="45.10862" lon="1.28618">
        <ele>230.7</ele>
        <time>2023-10-28T14:47:25Z</time>
      </trkpt>
      <trkpt lat="45.10863" lon="1.28619">
        <ele>230.8</ele>
        <time>2023-10-28T14:47:26Z</time>
      </trkpt>
      <trkpt lat="45.10864" lon="1.2862">
        <ele>230.9</ele>
        <time>2023-10-28T14:47:27Z</time>
      </trkpt>
      <trkpt lat="45.10865" lon="1.28621">
        <ele>231</ele>
        <time>2023-10-28T14:47:28Z</time>
      </trkpt>
      <trkpt lat="45.10867" lon="1.28622">
        <ele>231.1</ele>
        <time>2023-10-28T14:47:29Z</time>
      </trkpt>
      <trkpt lat="45.10868" lon="1.28623">
        <ele>231.3</ele>
        <time>2023-10-28T14:47:30Z</time>
      </trkpt>
      <trkpt lat="45.1087" lon="1.28624">
        <ele>231.4</ele>
        <time>2023-10-28T14:47:31Z</time>
      </trkpt>
      <trkpt lat="45.10871" lon="1.28625">
        <ele>231.5</ele>
        <time>2023-10-28T14:47:32Z</time>
      </trkpt>
      <trkpt lat="45.10873" lon="1.28626">
        <ele>231.6</ele>
        <time>2023-10-28T14:47:33Z</time>
      </trkpt>
      <trkpt lat="45.10874" lon="1.28627">
        <ele>231.7</ele>
        <time>2023-10-28T14:47:34Z</time>
      </trkpt>
      <trkpt lat="45.10876" lon="1.28628">
        <ele>231.9</ele>
        <time>2023-10-28T14:47:35Z</time>
      </trkpt>
      <trkpt lat="45.10877" lon="1.28629">
        <ele>232</ele>
        <time>2023-10-28T14:47:36Z</time>
      </trkpt>
      <trkpt lat="45.10879" lon="1.28631">
        <ele>232.1</ele>
        <time>2023-10-28T14:47:37Z</time>
      </trkpt>
      <trkpt lat="45.1088" lon="1.28632">
        <ele>232.2</ele>
        <time>2023-10-28T14:47:38Z</time>
      </trkpt>
      <trkpt lat="45.10881" lon="1.28633">
        <ele>232.3</ele>
        <time>2023-10-28T14:47:39Z</time>
      </trkpt>
      <trkpt lat="45.10883" lon="1.28634">
        <ele>232.3</ele>
        <time>2023-10-28T14:47:40Z</time>
      </trkpt>
      <trkpt lat="45.10884" lon="1.28635">
        <ele>232.4</ele>
        <time>2023-10-28T14:47:41Z</time>
      </trkpt>
      <trkpt lat="45.10885" lon="1.28636">
        <ele>232.5</ele>
        <time>2023-10-28T14:47:42Z</time>
      </trkpt>
      <trkpt lat="45.10886" lon="1.28638">
        <ele>232.5</ele>
        <time>2023-10-28T14:47:43Z</time>
      </trkpt>
      <trkpt lat="45.10888" lon="1.28639">
        <ele>232.6</ele>
        <time>2023-10-28T14:47:44Z</time>
      </trkpt>
      <trkpt lat="45.10889" lon="1.2864">
        <ele>232.7</ele>
        <time>2023-10-28T14:47:45Z</time>
      </trkpt>
      <trkpt lat="45.1089" lon="1.2864">
        <ele>232.7</ele>
        <time>2023-10-28T14:47:46Z</time>
      </trkpt>
      <trkpt lat="45.10891" lon="1.28641">
        <ele>232.8</ele>
        <time>2023-10-28T14:47:47Z</time>
      </trkpt>
      <trkpt lat="45.10893" lon="1.28642">
        <ele>232.8</ele>
        <time>2023-10-28T14:47:48Z</time>
      </trkpt>
      <trkpt lat="45.10894" lon="1.28643">
        <ele>232.8</ele>
        <time>2023-10-28T14:47:49Z</time>
      </trkpt>
      <trkpt lat="45.10896" lon="1.28643">
        <ele>232.9</ele>
        <time>2023-10-28T14:47:50Z</time>
      </trkpt>
      <trkpt lat="45.10897" lon="1.28644">
        <ele>233</ele>
        <time>2023-10-28T14:47:51Z</time>
      </trkpt>
      <trkpt lat="45.10898" lon="1.28645">
        <ele>233</ele>
        <time>2023-10-28T14:47:52Z</time>
      </trkpt>
      <trkpt lat="45.109" lon="1.28646">
        <ele>233</ele>
        <time>2023-10-28T14:47:53Z</time>
      </trkpt>
      <trkpt lat="45.10901" lon="1.28646">
        <ele>233.1</ele>
        <time>2023-10-28T14:47:54Z</time>
      </trkpt>
      <trkpt lat="45.10902" lon="1.28647">
        <ele>233.1</ele>
        <time>2023-10-28T14:47:55Z</time>
      </trkpt>
      <trkpt lat="45.10904" lon="1.28648">
        <ele>233.1</ele>
        <time>2023-10-28T14:47:56Z</time>
      </trkpt>
      <trkpt lat="45.10905" lon="1.2865">
        <ele>233.2</ele>
        <time>2023-10-28T14:47:57Z</time>
      </trkpt>
      <trkpt lat="45.10907" lon="1.28651">
        <ele>233.2</ele>
        <time>2023-10-28T14:47:58Z</time>
      </trkpt>
      <trkpt lat="45.10908" lon="1.28652">
        <ele>233.3</ele>
        <time>2023-10-28T14:47:59Z</time>
      </trkpt>
      <trkpt lat="45.10909" lon="1.28653">
        <ele>233.3</ele>
        <time>2023-10-28T14:48:00Z</time>
      </trkpt>
      <trkpt lat="45.1091" lon="1.28654">
        <ele>233.3</ele>
        <time>2023-10-28T14:48:01Z</time>
      </trkpt>
      <trkpt lat="45.10912" lon="1.28655">
        <ele>233.4</ele>
        <time>2023-10-28T14:48:02Z</time>
      </trkpt>
      <trkpt lat="45.10913" lon="1.28656">
        <ele>233.4</ele>
        <time>2023-10-28T14:48:03Z</time>
      </trkpt>
      <trkpt lat="45.10914" lon="1.28657">
        <ele>233.4</ele>
        <time>2023-10-28T14:48:04Z</time>
      </trkpt>
      <trkpt lat="45.10916" lon="1.28658">
        <ele>233.5</ele>
        <time>2023-10-28T14:48:05Z</time>
      </trkpt>
      <trkpt lat="45.10917" lon="1.28659">
        <ele>233.5</ele>
        <time>2023-10-28T14:48:06Z</time>
      </trkpt>
      <trkpt lat="45.10919" lon="1.28661">
        <ele>233.6</ele>
        <time>2023-10-28T14:48:07Z</time>
      </trkpt>
      <trkpt lat="45.1092" lon="1.28662">
        <ele>233.6</ele>
        <time>2023-10-28T14:48:08Z</time>
      </trkpt>
      <trkpt lat="45.10922" lon="1.28664">
        <ele>233.6</ele>
        <time>2023-10-28T14:48:09Z</time>
      </trkpt>
      <trkpt lat="45.10923" lon="1.28665">
        <ele>233.7</ele>
        <time>2023-10-28T14:48:10Z</time>
      </trkpt>
      <trkpt lat="45.10925" lon="1.28667">
        <ele>233.7</ele>
        <time>2023-10-28T14:48:11Z</time>
      </trkpt>
      <trkpt lat="45.10926" lon="1.28668">
        <ele>233.8</ele>
        <time>2023-10-28T14:48:12Z</time>
      </trkpt>
      <trkpt lat="45.10927" lon="1.2867">
        <ele>233.8</ele>
        <time>2023-10-28T14:48:13Z</time>
      </trkpt>
      <trkpt lat="45.10928" lon="1.28671">
        <ele>233.8</ele>
        <time>2023-10-28T14:48:14Z</time>
      </trkpt>
      <trkpt lat="45.10929" lon="1.28673">
        <ele>233.9</ele>
        <time>2023-10-28T14:48:15Z</time>
      </trkpt>
      <trkpt lat="45.1093" lon="1.28675">
        <ele>233.9</ele>
        <time>2023-10-28T14:48:16Z</time>
      </trkpt>
      <trkpt lat="45.10931" lon="1.28677">
        <ele>234</ele>
        <time>2023-10-28T14:48:17Z</time>
      </trkpt>
      <trkpt lat="45.10933" lon="1.28679">
        <ele>234.1</ele>
        <time>2023-10-28T14:48:18Z</time>
      </trkpt>
      <trkpt lat="45.10934" lon="1.28681">
        <ele>234.1</ele>
        <time>2023-10-28T14:48:19Z</time>
      </trkpt>
      <trkpt lat="45.10935" lon="1.28683">
        <ele>234.2</ele>
        <time>2023-10-28T14:48:20Z</time>
      </trkpt>
      <trkpt lat="45.10937" lon="1.28685">
        <ele>234.3</ele>
        <time>2023-10-28T14:48:21Z</time>
      </trkpt>
      <trkpt lat="45.10939" lon="1.28687">
        <ele>234.4</ele>
        <time>2023-10-28T14:48:22Z</time>
      </trkpt>
      <trkpt lat="45.10941" lon="1.28689">
        <ele>234.4</ele>
        <time>2023-10-28T14:48:23Z</time>
      </trkpt>
      <trkpt lat="45.10943" lon="1.28691">
        <ele>234.5</ele>
        <time>2023-10-28T14:48:24Z</time>
      </trkpt>
      <trkpt lat="45.10944" lon="1.28692">
        <ele>234.6</ele>
        <time>2023-10-28T14:48:25Z</time>
      </trkpt>
      <trkpt lat="45.10946" lon="1.28694">
        <ele>234.6</ele>
        <time>2023-10-28T14:48:26Z</time>
      </trkpt>
      <trkpt lat="45.10948" lon="1.28696">
        <ele>234.7</ele>
        <time>2023-10-28T14:48:27Z</time>
      </trkpt>
      <trkpt lat="45.10951" lon="1.28697">
        <ele>234.7</ele>
        <time>2023-10-28T14:48:28Z</time>
      </trkpt>
      <trkpt lat="45.10952" lon="1.28698">
        <ele>234.8</ele>
        <time>2023-10-28T14:48:29Z</time>
      </trkpt>
      <trkpt lat="45.10954" lon="1.287">
        <ele>234.8</ele>
        <time>2023-10-28T14:48:30Z</time>
      </trkpt>
      <trkpt lat="45.10956" lon="1.28701">
        <ele>234.9</ele>
        <time>2023-10-28T14:48:31Z</time>
      </trkpt>
      <trkpt lat="45.10958" lon="1.28702">
        <ele>234.9</ele>
        <time>2023-10-28T14:48:32Z</time>
      </trkpt>
      <trkpt lat="45.1096" lon="1.28703">
        <ele>235</ele>
        <time>2023-10-28T14:48:33Z</time>
      </trkpt>
      <trkpt lat="45.10962" lon="1.28704">
        <ele>235</ele>
        <time>2023-10-28T14:48:34Z</time>
      </trkpt>
      <trkpt lat="45.10964" lon="1.28705">
        <ele>235.1</ele>
        <time>2023-10-28T14:48:35Z</time>
      </trkpt>
      <trkpt lat="45.10966" lon="1.28706">
        <ele>235.1</ele>
        <time>2023-10-28T14:48:36Z</time>
      </trkpt>
      <trkpt lat="45.10968" lon="1.28707">
        <ele>235.2</ele>
        <time>2023-10-28T14:48:37Z</time>
      </trkpt>
      <trkpt lat="45.10971" lon="1.28708">
        <ele>235.2</ele>
        <time>2023-10-28T14:48:38Z</time>
      </trkpt>
      <trkpt lat="45.10973" lon="1.28709">
        <ele>235.3</ele>
        <time>2023-10-28T14:48:39Z</time>
      </trkpt>
      <trkpt lat="45.10975" lon="1.28711">
        <ele>235.4</ele>
        <time>2023-10-28T14:48:40Z</time>
      </trkpt>
      <trkpt lat="45.10978" lon="1.28712">
        <ele>235.5</ele>
        <time>2023-10-28T14:48:41Z</time>
      </trkpt>
      <trkpt lat="45.1098" lon="1.28713">
        <ele>235.6</ele>
        <time>2023-10-28T14:48:42Z</time>
      </trkpt>
      <trkpt lat="45.10983" lon="1.28715">
        <ele>235.6</ele>
        <time>2023-10-28T14:48:43Z</time>
      </trkpt>
      <trkpt lat="45.10985" lon="1.28716">
        <ele>235.7</ele>
        <time>2023-10-28T14:48:44Z</time>
      </trkpt>
      <trkpt lat="45.10987" lon="1.28717">
        <ele>235.8</ele>
        <time>2023-10-28T14:48:45Z</time>
      </trkpt>
      <trkpt lat="45.10989" lon="1.28719">
        <ele>235.9</ele>
        <time>2023-10-28T14:48:46Z</time>
      </trkpt>
      <trkpt lat="45.10991" lon="1.2872">
        <ele>236</ele>
        <time>2023-10-28T14:48:47Z</time>
      </trkpt>
      <trkpt lat="45.10993" lon="1.28722">
        <ele>236.1</ele>
        <time>2023-10-28T14:48:48Z</time>
      </trkpt>
      <trkpt lat="45.10995" lon="1.28723">
        <ele>236.1</ele>
        <time>2023-10-28T14:48:49Z</time>
      </trkpt>
      <trkpt lat="45.10997" lon="1.28725">
        <ele>236.2</ele>
        <time>2023-10-28T14:48:50Z</time>
      </trkpt>
      <trkpt lat="45.10999" lon="1.28726">
        <ele>236.3</ele>
        <time>2023-10-28T14:48:51Z</time>
      </trkpt>
      <trkpt lat="45.11001" lon="1.28727">
        <ele>236.4</ele>
        <time>2023-10-28T14:48:52Z</time>
      </trkpt>
      <trkpt lat="45.11003" lon="1.28729">
        <ele>236.5</ele>
        <time>2023-10-28T14:48:53Z</time>
      </trkpt>
      <trkpt lat="45.11005" lon="1.2873">
        <ele>236.5</ele>
        <time>2023-10-28T14:48:54Z</time>
      </trkpt>
      <trkpt lat="45.11008" lon="1.28731">
        <ele>236.6</ele>
        <time>2023-10-28T14:48:55Z</time>
      </trkpt>
      <trkpt lat="45.1101" lon="1.28732">
        <ele>236.7</ele>
        <time>2023-10-28T14:48:56Z</time>
      </trkpt>
      <trkpt lat="45.11013" lon="1.28732">
        <ele>236.8</ele>
        <time>2023-10-28T14:48:57Z</time>
      </trkpt>
      <trkpt lat="45.11015" lon="1.28733">
        <ele>236.9</ele>
        <time>2023-10-28T14:48:58Z</time>
      </trkpt>
      <trkpt lat="45.11017" lon="1.28734">
        <ele>236.9</ele>
        <time>2023-10-28T14:48:59Z</time>
      </trkpt>
      <trkpt lat="45.1102" lon="1.28735">
        <ele>237</ele>
        <time>2023-10-28T14:49:00Z</time>
      </trkpt>
      <trkpt lat="45.11022" lon="1.28736">
        <ele>237.1</ele>
        <time>2023-10-28T14:49:01Z</time>
      </trkpt>
      <trkpt lat="45.11025" lon="1.28737">
        <ele>237.1</ele>
        <time>2023-10-28T14:49:02Z</time>
      </trkpt>
      <trkpt lat="45.11027" lon="1.28737">
        <ele>237.2</ele>
        <time>2023-10-28T14:49:03Z</time>
      </trkpt>
      <trkpt lat="45.11029" lon="1.28738">
        <ele>237.3</ele>
        <time>2023-10-28T14:49:04Z</time>
      </trkpt>
      <trkpt lat="45.11032" lon="1.28739">
        <ele>237.3</ele>
        <time>2023-10-28T14:49:05Z</time>
      </trkpt>
      <trkpt lat="45.11034" lon="1.2874">
        <ele>237.4</ele>
        <time>2023-10-28T14:49:06Z</time>
      </trkpt>
      <trkpt lat="45.11036" lon="1.28741">
        <ele>237.4</ele>
        <time>2023-10-28T14:49:07Z</time>
      </trkpt>
      <trkpt lat="45.11039" lon="1.28741">
        <ele>237.5</ele>
        <time>2023-10-28T14:49:08Z</time>
      </trkpt>
      <trkpt lat="45.11041" lon="1.28742">
        <ele>237.5</ele>
        <time>2023-10-28T14:49:09Z</time>
      </trkpt>
      <trkpt lat="45.11044" lon="1.28743">
        <ele>237.5</ele>
        <time>2023-10-28T14:49:10Z</time>
      </trkpt>
      <trkpt lat="45.11046" lon="1.28743">
        <ele>237.5</ele>
        <time>2023-10-28T14:49:11Z</time>
      </trkpt>
      <trkpt lat="45.11048" lon="1.28743">
        <ele>237.5</ele>
        <time>2023-10-28T14:49:12Z</time>
      </trkpt>
      <trkpt lat="45.1105" lon="1.28744">
        <ele>237.6</ele>
        <time>2023-10-28T14:49:13Z</time>
      </trkpt>
      <trkpt lat="45.11052" lon="1.28744">
        <ele>237.7</ele>
        <time>2023-10-28T14:49:14Z</time>
      </trkpt>
      <trkpt lat="45.11053" lon="1.28745">
        <ele>237.7</ele>
        <time>2023-10-28T14:49:15Z</time>
      </trkpt>
      <trkpt lat="45.11055" lon="1.28745">
        <ele>237.8</ele>
        <time>2023-10-28T14:49:16Z</time>
      </trkpt>
      <trkpt lat="45.11055" lon="1.28746">
        <ele>237.8</ele>
        <time>2023-10-28T14:49:17Z</time>
      </trkpt>
      <trkpt lat="45.11056" lon="1.28747">
        <ele>237.8</ele>
        <time>2023-10-28T14:49:18Z</time>
      </trkpt>
      <trkpt lat="45.11057" lon="1.28748">
        <ele>237.9</ele>
        <time>2023-10-28T14:49:19Z</time>
      </trkpt>
      <trkpt lat="45.11057" lon="1.28749">
        <ele>237.9</ele>
        <time>2023-10-28T14:49:20Z</time>
      </trkpt>
      <trkpt lat="45.11057" lon="1.28749">
        <ele>237.9</ele>
        <time>2023-10-28T14:49:21Z</time>
      </trkpt>
      <trkpt lat="45.11058" lon="1.28749">
        <ele>237.9</ele>
        <time>2023-10-28T14:49:22Z</time>
      </trkpt>
      <trkpt lat="45.11058" lon="1.28748">
        <ele>237.9</ele>
        <time>2023-10-28T14:49:23Z</time>
      </trkpt>
      <trkpt lat="45.11058" lon="1.28748">
        <ele>237.9</ele>
        <time>2023-10-28T14:49:24Z</time>
      </trkpt>
      <trkpt lat="45.11058" lon="1.28747">
        <ele>237.9</ele>
        <time>2023-10-28T14:49:25Z</time>
      </trkpt>
      <trkpt lat="45.11059" lon="1.28747">
        <ele>237.9</ele>
        <time>2023-10-28T14:49:26Z</time>
      </trkpt>
      <trkpt lat="45.11059" lon="1.28747">
        <ele>238</ele>
        <time>2023-10-28T14:49:27Z</time>
      </trkpt>
      <trkpt lat="45.11059" lon="1.28748">
        <ele>238</ele>
        <time>2023-10-28T14:49:28Z</time>
      </trkpt>
      <trkpt lat="45.11059" lon="1.28749">
        <ele>238</ele>
        <time>2023-10-28T14:49:29Z</time>
      </trkpt>
      <trkpt lat="45.1106" lon="1.28751">
        <ele>238</ele>
        <time>2023-10-28T14:49:30Z</time>
      </trkpt>
      <trkpt lat="45.1106" lon="1.28753">
        <ele>238</ele>
        <time>2023-10-28T14:49:31Z</time>
      </trkpt>
      <trkpt lat="45.11061" lon="1.28755">
        <ele>238</ele>
        <time>2023-10-28T14:49:32Z</time>
      </trkpt>
      <trkpt lat="45.11062" lon="1.28757">
        <ele>238.1</ele>
        <time>2023-10-28T14:49:33Z</time>
      </trkpt>
      <trkpt lat="45.11063" lon="1.28759">
        <ele>238.1</ele>
        <time>2023-10-28T14:49:34Z</time>
      </trkpt>
      <trkpt lat="45.11064" lon="1.28762">
        <ele>238.1</ele>
        <time>2023-10-28T14:49:35Z</time>
      </trkpt>
      <trkpt lat="45.11065" lon="1.28765">
        <ele>238.1</ele>
        <time>2023-10-28T14:49:36Z</time>
      </trkpt>
      <trkpt lat="45.11066" lon="1.28767">
        <ele>238.1</ele>
        <time>2023-10-28T14:49:37Z</time>
      </trkpt>
      <trkpt lat="45.11068" lon="1.2877">
        <ele>238.2</ele>
        <time>2023-10-28T14:49:38Z</time>
      </trkpt>
      <trkpt lat="45.11069" lon="1.28773">
        <ele>238.2</ele>
        <time>2023-10-28T14:49:39Z</time>
      </trkpt>
      <trkpt lat="45.1107" lon="1.28775">
        <ele>238.2</ele>
        <time>2023-10-28T14:49:40Z</time>
      </trkpt>
      <trkpt lat="45.11071" lon="1.28778">
        <ele>238.2</ele>
        <time>2023-10-28T14:49:41Z</time>
      </trkpt>
      <trkpt lat="45.11073" lon="1.2878">
        <ele>238.3</ele>
        <time>2023-10-28T14:49:42Z</time>
      </trkpt>
      <trkpt lat="45.11074" lon="1.28782">
        <ele>238.3</ele>
        <time>2023-10-28T14:49:43Z</time>
      </trkpt>
      <trkpt lat="45.11075" lon="1.28785">
        <ele>238.3</ele>
        <time>2023-10-28T14:49:44Z</time>
      </trkpt>
      <trkpt lat="45.11077" lon="1.28787">
        <ele>238.3</ele>
        <time>2023-10-28T14:49:45Z</time>
      </trkpt>
      <trkpt lat="45.11078" lon="1.28789">
        <ele>238.3</ele>
        <time>2023-10-28T14:49:46Z</time>
      </trkpt>
      <trkpt lat="45.11079" lon="1.28791">
        <ele>238.4</ele>
        <time>2023-10-28T14:49:47Z</time>
      </trkpt>
      <trkpt lat="45.11081" lon="1.28793">
        <ele>238.4</ele>
        <time>2023-10-28T14:49:48Z</time>
      </trkpt>
      <trkpt lat="45.11083" lon="1.28796">
        <ele>238.4</ele>
        <time>2023-10-28T14:49:49Z</time>
      </trkpt>
      <trkpt lat="45.11084" lon="1.28798">
        <ele>238.4</ele>
        <time>2023-10-28T14:49:50Z</time>
      </trkpt>
      <trkpt lat="45.11086" lon="1.288">
        <ele>238.4</ele>
        <time>2023-10-28T14:49:51Z</time>
      </trkpt>
      <trkpt lat="45.11087" lon="1.28802">
        <ele>238.4</ele>
        <time>2023-10-28T14:49:52Z</time>
      </trkpt>
      <trkpt lat="45.11089" lon="1.28804">
        <ele>238.4</ele>
        <time>2023-10-28T14:49:53Z</time>
      </trkpt>
      <trkpt lat="45.1109" lon="1.28806">
        <ele>238.4</ele>
        <time>2023-10-28T14:49:54Z</time>
      </trkpt>
      <trkpt lat="45.11092" lon="1.28807">
        <ele>238.4</ele>
        <time>2023-10-28T14:49:55Z</time>
      </trkpt>
      <trkpt lat="45.11094" lon="1.28809">
        <ele>238.3</ele>
        <time>2023-10-28T14:49:56Z</time>
      </trkpt>
      <trkpt lat="45.11095" lon="1.28811">
        <ele>238.3</ele>
        <time>2023-10-28T14:49:57Z</time>
      </trkpt>
      <trkpt lat="45.11097" lon="1.28813">
        <ele>238.3</ele>
        <time>2023-10-28T14:49:58Z</time>
      </trkpt>
      <trkpt lat="45.11099" lon="1.28815">
        <ele>238.3</ele>
        <time>2023-10-28T14:49:59Z</time>
      </trkpt>
      <trkpt lat="45.111" lon="1.28817">
        <ele>238.2</ele>
        <time>2023-10-28T14:50:00Z</time>
      </trkpt>
      <trkpt lat="45.11102" lon="1.28818">
        <ele>238.2</ele>
        <time>2023-10-28T14:50:01Z</time>
      </trkpt>
      <trkpt lat="45.11104" lon="1.2882">
        <ele>238.2</ele>
        <time>2023-10-28T14:50:02Z</time>
      </trkpt>
      <trkpt lat="45.11105" lon="1.28822">
        <ele>238.1</ele>
        <time>2023-10-28T14:50:03Z</time>
      </trkpt>
      <trkpt lat="45.11107" lon="1.28823">
        <ele>238.1</ele>
        <time>2023-10-28T14:50:04Z</time>
      </trkpt>
      <trkpt lat="45.11109" lon="1.28825">
        <ele>238.1</ele>
        <time>2023-10-28T14:50:05Z</time>
      </trkpt>
      <trkpt lat="45.1111" lon="1.28826">
        <ele>238.1</ele>
        <time>2023-10-28T14:50:06Z</time>
      </trkpt>
      <trkpt lat="45.11112" lon="1.28828">
        <ele>238</ele>
        <time>2023-10-28T14:50:07Z</time>
      </trkpt>
      <trkpt lat="45.11114" lon="1.2883">
        <ele>238</ele>
        <time>2023-10-28T14:50:08Z</time>
      </trkpt>
      <trkpt lat="45.11115" lon="1.28831">
        <ele>238</ele>
        <time>2023-10-28T14:50:09Z</time>
      </trkpt>
      <trkpt lat="45.11117" lon="1.28833">
        <ele>238</ele>
        <time>2023-10-28T14:50:10Z</time>
      </trkpt>
      <trkpt lat="45.11118" lon="1.28835">
        <ele>238</ele>
        <time>2023-10-28T14:50:11Z</time>
      </trkpt>
      <trkpt lat="45.1112" lon="1.28836">
        <ele>238</ele>
        <time>2023-10-28T14:50:12Z</time>
      </trkpt>
      <trkpt lat="45.11121" lon="1.28838">
        <ele>238</ele>
        <time>2023-10-28T14:50:13Z</time>
      </trkpt>
      <trkpt lat="45.11123" lon="1.2884">
        <ele>238</ele>
        <time>2023-10-28T14:50:14Z</time>
      </trkpt>
      <trkpt lat="45.11125" lon="1.28842">
        <ele>238</ele>
        <time>2023-10-28T14:50:15Z</time>
      </trkpt>
      <trkpt lat="45.11127" lon="1.28845">
        <ele>238.1</ele>
        <time>2023-10-28T14:50:16Z</time>
      </trkpt>
      <trkpt lat="45.11129" lon="1.28847">
        <ele>238.1</ele>
        <time>2023-10-28T14:50:17Z</time>
      </trkpt>
      <trkpt lat="45.11131" lon="1.2885">
        <ele>238.2</ele>
        <time>2023-10-28T14:50:18Z</time>
      </trkpt>
      <trkpt lat="45.11132" lon="1.28852">
        <ele>238.2</ele>
        <time>2023-10-28T14:50:19Z</time>
      </trkpt>
      <trkpt lat="45.11134" lon="1.28854">
        <ele>238.3</ele>
        <time>2023-10-28T14:50:20Z</time>
      </trkpt>
      <trkpt lat="45.11135" lon="1.28857">
        <ele>238.4</ele>
        <time>2023-10-28T14:50:21Z</time>
      </trkpt>
      <trkpt lat="45.11137" lon="1.28859">
        <ele>238.4</ele>
        <time>2023-10-28T14:50:22Z</time>
      </trkpt>
      <trkpt lat="45.11138" lon="1.28861">
        <ele>238.5</ele>
        <time>2023-10-28T14:50:23Z</time>
      </trkpt>
      <trkpt lat="45.11139" lon="1.28863">
        <ele>238.6</ele>
        <time>2023-10-28T14:50:24Z</time>
      </trkpt>
      <trkpt lat="45.11141" lon="1.28865">
        <ele>238.7</ele>
        <time>2023-10-28T14:50:25Z</time>
      </trkpt>
      <trkpt lat="45.11142" lon="1.28868">
        <ele>238.8</ele>
        <time>2023-10-28T14:50:26Z</time>
      </trkpt>
      <trkpt lat="45.11144" lon="1.28869">
        <ele>238.9</ele>
        <time>2023-10-28T14:50:27Z</time>
      </trkpt>
      <trkpt lat="45.11146" lon="1.28871">
        <ele>239</ele>
        <time>2023-10-28T14:50:28Z</time>
      </trkpt>
      <trkpt lat="45.11148" lon="1.28873">
        <ele>239.1</ele>
        <time>2023-10-28T14:50:29Z</time>
      </trkpt>
      <trkpt lat="45.1115" lon="1.28875">
        <ele>239.2</ele>
        <time>2023-10-28T14:50:30Z</time>
      </trkpt>
      <trkpt lat="45.11152" lon="1.28876">
        <ele>239.3</ele>
        <time>2023-10-28T14:50:31Z</time>
      </trkpt>
      <trkpt lat="45.11154" lon="1.28878">
        <ele>239.4</ele>
        <time>2023-10-28T14:50:32Z</time>
      </trkpt>
      <trkpt lat="45.11156" lon="1.2888">
        <ele>239.5</ele>
        <time>2023-10-28T14:50:33Z</time>
      </trkpt>
      <trkpt lat="45.11157" lon="1.28881">
        <ele>239.6</ele>
        <time>2023-10-28T14:50:34Z</time>
      </trkpt>
      <trkpt lat="45.11159" lon="1.28883">
        <ele>239.7</ele>
        <time>2023-10-28T14:50:35Z</time>
      </trkpt>
      <trkpt lat="45.11161" lon="1.28885">
        <ele>239.8</ele>
        <time>2023-10-28T14:50:36Z</time>
      </trkpt>
      <trkpt lat="45.11162" lon="1.28888">
        <ele>239.9</ele>
        <time>2023-10-28T14:50:37Z</time>
      </trkpt>
      <trkpt lat="45.11164" lon="1.2889">
        <ele>240</ele>
        <time>2023-10-28T14:50:38Z</time>
      </trkpt>
      <trkpt lat="45.11166" lon="1.28892">
        <ele>240.1</ele>
        <time>2023-10-28T14:50:39Z</time>
      </trkpt>
      <trkpt lat="45.11167" lon="1.28894">
        <ele>240.2</ele>
        <time>2023-10-28T14:50:40Z</time>
      </trkpt>
      <trkpt lat="45.11169" lon="1.28897">
        <ele>240.4</ele>
        <time>2023-10-28T14:50:41Z</time>
      </trkpt>
      <trkpt lat="45.1117" lon="1.28899">
        <ele>240.5</ele>
        <time>2023-10-28T14:50:42Z</time>
      </trkpt>
      <trkpt lat="45.11171" lon="1.28902">
        <ele>240.6</ele>
        <time>2023-10-28T14:50:43Z</time>
      </trkpt>
      <trkpt lat="45.11173" lon="1.28905">
        <ele>240.7</ele>
        <time>2023-10-28T14:50:44Z</time>
      </trkpt>
      <trkpt lat="45.11174" lon="1.28907">
        <ele>240.8</ele>
        <time>2023-10-28T14:50:45Z</time>
      </trkpt>
      <trkpt lat="45.11175" lon="1.2891">
        <ele>240.9</ele>
        <time>2023-10-28T14:50:46Z</time>
      </trkpt>
      <trkpt lat="45.11176" lon="1.28912">
        <ele>241</ele>
        <time>2023-10-28T14:50:47Z</time>
      </trkpt>
      <trkpt lat="45.11177" lon="1.28915">
        <ele>241.2</ele>
        <time>2023-10-28T14:50:48Z</time>
      </trkpt>
      <trkpt lat="45.11179" lon="1.28918">
        <ele>241.3</ele>
        <time>2023-10-28T14:50:49Z</time>
      </trkpt>
      <trkpt lat="45.1118" lon="1.2892">
        <ele>241.4</ele>
        <time>2023-10-28T14:50:50Z</time>
      </trkpt>
      <trkpt lat="45.11181" lon="1.28923">
        <ele>241.5</ele>
        <time>2023-10-28T14:50:51Z</time>
      </trkpt>
      <trkpt lat="45.11182" lon="1.28925">
        <ele>241.6</ele>
        <time>2023-10-28T14:50:52Z</time>
      </trkpt>
      <trkpt lat="45.11184" lon="1.28928">
        <ele>241.7</ele>
        <time>2023-10-28T14:50:53Z</time>
      </trkpt>
      <trkpt lat="45.11184" lon="1.2893">
        <ele>241.8</ele>
        <time>2023-10-28T14:50:54Z</time>
      </trkpt>
      <trkpt lat="45.11186" lon="1.28932">
        <ele>242</ele>
        <time>2023-10-28T14:50:55Z</time>
      </trkpt>
      <trkpt lat="45.11187" lon="1.28935">
        <ele>242.1</ele>
        <time>2023-10-28T14:50:56Z</time>
      </trkpt>
      <trkpt lat="45.11187" lon="1.28937">
        <ele>242.2</ele>
        <time>2023-10-28T14:50:57Z</time>
      </trkpt>
      <trkpt lat="45.11188" lon="1.2894">
        <ele>242.3</ele>
        <time>2023-10-28T14:50:58Z</time>
      </trkpt>
      <trkpt lat="45.11189" lon="1.28942">
        <ele>242.4</ele>
        <time>2023-10-28T14:50:59Z</time>
      </trkpt>
      <trkpt lat="45.1119" lon="1.28944">
        <ele>242.5</ele>
        <time>2023-10-28T14:51:00Z</time>
      </trkpt>
      <trkpt lat="45.11191" lon="1.28947">
        <ele>242.6</ele>
        <time>2023-10-28T14:51:01Z</time>
      </trkpt>
      <trkpt lat="45.11192" lon="1.28949">
        <ele>242.7</ele>
        <time>2023-10-28T14:51:02Z</time>
      </trkpt>
      <trkpt lat="45.11194" lon="1.28952">
        <ele>242.9</ele>
        <time>2023-10-28T14:51:03Z</time>
      </trkpt>
      <trkpt lat="45.11194" lon="1.28954">
        <ele>243</ele>
        <time>2023-10-28T14:51:04Z</time>
      </trkpt>
      <trkpt lat="45.11195" lon="1.28957">
        <ele>243.1</ele>
        <time>2023-10-28T14:51:05Z</time>
      </trkpt>
      <trkpt lat="45.11197" lon="1.28959">
        <ele>243.2</ele>
        <time>2023-10-28T14:51:06Z</time>
      </trkpt>
      <trkpt lat="45.11197" lon="1.28961">
        <ele>243.3</ele>
        <time>2023-10-28T14:51:07Z</time>
      </trkpt>
      <trkpt lat="45.11198" lon="1.28964">
        <ele>243.4</ele>
        <time>2023-10-28T14:51:08Z</time>
      </trkpt>
      <trkpt lat="45.11198" lon="1.28965">
        <ele>243.5</ele>
        <time>2023-10-28T14:51:09Z</time>
      </trkpt>
      <trkpt lat="45.11199" lon="1.28966">
        <ele>243.6</ele>
        <time>2023-10-28T14:51:10Z</time>
      </trkpt>
      <trkpt lat="45.11199" lon="1.28967">
        <ele>243.6</ele>
        <time>2023-10-28T14:51:11Z</time>
      </trkpt>
      <trkpt lat="45.112" lon="1.28968">
        <ele>243.7</ele>
        <time>2023-10-28T14:51:12Z</time>
      </trkpt>
      <trkpt lat="45.11201" lon="1.28969">
        <ele>243.7</ele>
        <time>2023-10-28T14:51:13Z</time>
      </trkpt>
      <trkpt lat="45.11202" lon="1.2897">
        <ele>243.8</ele>
        <time>2023-10-28T14:51:14Z</time>
      </trkpt>
      <trkpt lat="45.11203" lon="1.28971">
        <ele>243.9</ele>
        <time>2023-10-28T14:51:15Z</time>
      </trkpt>
      <trkpt lat="45.11204" lon="1.28973">
        <ele>244</ele>
        <time>2023-10-28T14:51:16Z</time>
      </trkpt>
      <trkpt lat="45.11205" lon="1.28975">
        <ele>244.2</ele>
        <time>2023-10-28T14:51:17Z</time>
      </trkpt>
      <trkpt lat="45.11206" lon="1.28977">
        <ele>244.3</ele>
        <time>2023-10-28T14:51:18Z</time>
      </trkpt>
      <trkpt lat="45.11208" lon="1.28979">
        <ele>244.5</ele>
        <time>2023-10-28T14:51:19Z</time>
      </trkpt>
      <trkpt lat="45.11209" lon="1.28982">
        <ele>244.6</ele>
        <time>2023-10-28T14:51:20Z</time>
      </trkpt>
      <trkpt lat="45.1121" lon="1.28985">
        <ele>244.8</ele>
        <time>2023-10-28T14:51:21Z</time>
      </trkpt>
      <trkpt lat="45.11211" lon="1.28989">
        <ele>245</ele>
        <time>2023-10-28T14:51:22Z</time>
      </trkpt>
      <trkpt lat="45.11211" lon="1.28992">
        <ele>245.2</ele>
        <time>2023-10-28T14:51:23Z</time>
      </trkpt>
      <trkpt lat="45.11212" lon="1.28995">
        <ele>245.4</ele>
        <time>2023-10-28T14:51:24Z</time>
      </trkpt>
      <trkpt lat="45.11213" lon="1.28998">
        <ele>245.5</ele>
        <time>2023-10-28T14:51:25Z</time>
      </trkpt>
      <trkpt lat="45.11214" lon="1.29001">
        <ele>245.7</ele>
        <time>2023-10-28T14:51:26Z</time>
      </trkpt>
      <trkpt lat="45.11215" lon="1.29004">
        <ele>245.8</ele>
        <time>2023-10-28T14:51:27Z</time>
      </trkpt>
      <trkpt lat="45.11216" lon="1.29006">
        <ele>246</ele>
        <time>2023-10-28T14:51:28Z</time>
      </trkpt>
      <trkpt lat="45.11217" lon="1.29009">
        <ele>246.2</ele>
        <time>2023-10-28T14:51:29Z</time>
      </trkpt>
      <trkpt lat="45.11218" lon="1.29011">
        <ele>246.3</ele>
        <time>2023-10-28T14:51:30Z</time>
      </trkpt>
      <trkpt lat="45.11219" lon="1.29013">
        <ele>246.5</ele>
        <time>2023-10-28T14:51:31Z</time>
      </trkpt>
      <trkpt lat="45.1122" lon="1.29015">
        <ele>246.7</ele>
        <time>2023-10-28T14:51:32Z</time>
      </trkpt>
      <trkpt lat="45.11222" lon="1.29018">
        <ele>246.8</ele>
        <time>2023-10-28T14:51:33Z</time>
      </trkpt>
      <trkpt lat="45.11223" lon="1.2902">
        <ele>247</ele>
        <time>2023-10-28T14:51:34Z</time>
      </trkpt>
      <trkpt lat="45.11224" lon="1.29022">
        <ele>247.1</ele>
        <time>2023-10-28T14:51:35Z</time>
      </trkpt>
      <trkpt lat="45.11226" lon="1.29024">
        <ele>247.3</ele>
        <time>2023-10-28T14:51:36Z</time>
      </trkpt>
      <trkpt lat="45.11227" lon="1.29025">
        <ele>247.4</ele>
        <time>2023-10-28T14:51:37Z</time>
      </trkpt>
      <trkpt lat="45.11229" lon="1.29027">
        <ele>247.6</ele>
        <time>2023-10-28T14:51:38Z</time>
      </trkpt>
      <trkpt lat="45.1123" lon="1.29029">
        <ele>247.7</ele>
        <time>2023-10-28T14:51:39Z</time>
      </trkpt>
      <trkpt lat="45.11232" lon="1.29031">
        <ele>247.9</ele>
        <time>2023-10-28T14:51:40Z</time>
      </trkpt>
      <trkpt lat="45.11233" lon="1.29032">
        <ele>248</ele>
        <time>2023-10-28T14:51:41Z</time>
      </trkpt>
      <trkpt lat="45.11235" lon="1.29034">
        <ele>248.1</ele>
        <time>2023-10-28T14:51:42Z</time>
      </trkpt>
      <trkpt lat="45.11237" lon="1.29036">
        <ele>248.2</ele>
        <time>2023-10-28T14:51:43Z</time>
      </trkpt>
      <trkpt lat="45.11239" lon="1.29037">
        <ele>248.3</ele>
        <time>2023-10-28T14:51:44Z</time>
      </trkpt>
      <trkpt lat="45.11241" lon="1.29039">
        <ele>248.4</ele>
        <time>2023-10-28T14:51:45Z</time>
      </trkpt>
      <trkpt lat="45.11243" lon="1.2904">
        <ele>248.5</ele>
        <time>2023-10-28T14:51:46Z</time>
      </trkpt>
      <trkpt lat="45.11245" lon="1.29041">
        <ele>248.6</ele>
        <time>2023-10-28T14:51:47Z</time>
      </trkpt>
      <trkpt lat="45.11247" lon="1.29042">
        <ele>248.7</ele>
        <time>2023-10-28T14:51:48Z</time>
      </trkpt>
      <trkpt lat="45.11249" lon="1.29043">
        <ele>248.7</ele>
        <time>2023-10-28T14:51:49Z</time>
      </trkpt>
      <trkpt lat="45.11251" lon="1.29044">
        <ele>248.8</ele>
        <time>2023-10-28T14:51:50Z</time>
      </trkpt>
      <trkpt lat="45.11253" lon="1.29045">
        <ele>248.8</ele>
        <time>2023-10-28T14:51:51Z</time>
      </trkpt>
      <trkpt lat="45.11256" lon="1.29046">
        <ele>248.9</ele>
        <time>2023-10-28T14:51:52Z</time>
      </trkpt>
      <trkpt lat="45.11258" lon="1.29047">
        <ele>248.9</ele>
        <time>2023-10-28T14:51:53Z</time>
      </trkpt>
      <trkpt lat="45.1126" lon="1.29047">
        <ele>248.9</ele>
        <time>2023-10-28T14:51:54Z</time>
      </trkpt>
      <trkpt lat="45.11262" lon="1.29048">
        <ele>249</ele>
        <time>2023-10-28T14:51:55Z</time>
      </trkpt>
      <trkpt lat="45.11264" lon="1.29048">
        <ele>249</ele>
        <time>2023-10-28T14:51:56Z</time>
      </trkpt>
      <trkpt lat="45.11267" lon="1.29049">
        <ele>249</ele>
        <time>2023-10-28T14:51:57Z</time>
      </trkpt>
      <trkpt lat="45.11269" lon="1.2905">
        <ele>249</ele>
        <time>2023-10-28T14:51:58Z</time>
      </trkpt>
      <trkpt lat="45.11271" lon="1.2905">
        <ele>249.1</ele>
        <time>2023-10-28T14:51:59Z</time>
      </trkpt>
      <trkpt lat="45.11274" lon="1.29051">
        <ele>249.1</ele>
        <time>2023-10-28T14:52:00Z</time>
      </trkpt>
      <trkpt lat="45.11276" lon="1.29051">
        <ele>249.1</ele>
        <time>2023-10-28T14:52:01Z</time>
      </trkpt>
      <trkpt lat="45.11278" lon="1.29052">
        <ele>249.2</ele>
        <time>2023-10-28T14:52:02Z</time>
      </trkpt>
      <trkpt lat="45.1128" lon="1.29052">
        <ele>249.2</ele>
        <time>2023-10-28T14:52:03Z</time>
      </trkpt>
      <trkpt lat="45.11282" lon="1.29053">
        <ele>249.2</ele>
        <time>2023-10-28T14:52:04Z</time>
      </trkpt>
      <trkpt lat="45.11285" lon="1.29054">
        <ele>249.3</ele>
        <time>2023-10-28T14:52:05Z</time>
      </trkpt>
      <trkpt lat="45.11287" lon="1.29054">
        <ele>249.3</ele>
        <time>2023-10-28T14:52:06Z</time>
      </trkpt>
      <trkpt lat="45.11289" lon="1.29055">
        <ele>249.4</ele>
        <time>2023-10-28T14:52:07Z</time>
      </trkpt>
      <trkpt lat="45.11291" lon="1.29055">
        <ele>249.4</ele>
        <time>2023-10-28T14:52:08Z</time>
      </trkpt>
      <trkpt lat="45.11293" lon="1.29056">
        <ele>249.5</ele>
        <time>2023-10-28T14:52:09Z</time>
      </trkpt>
      <trkpt lat="45.11295" lon="1.29057">
        <ele>249.6</ele>
        <time>2023-10-28T14:52:10Z</time>
      </trkpt>
      <trkpt lat="45.11298" lon="1.29057">
        <ele>249.6</ele>
        <time>2023-10-28T14:52:11Z</time>
      </trkpt>
      <trkpt lat="45.113" lon="1.29058">
        <ele>249.7</ele>
        <time>2023-10-28T14:52:12Z</time>
      </trkpt>
      <trkpt lat="45.11302" lon="1.29058">
        <ele>249.7</ele>
        <time>2023-10-28T14:52:13Z</time>
      </trkpt>
      <trkpt lat="45.11304" lon="1.29058">
        <ele>249.8</ele>
        <time>2023-10-28T14:52:14Z</time>
      </trkpt>
      <trkpt lat="45.11306" lon="1.29059">
        <ele>249.9</ele>
        <time>2023-10-28T14:52:15Z</time>
      </trkpt>
      <trkpt lat="45.11308" lon="1.29059">
        <ele>249.9</ele>
        <time>2023-10-28T14:52:16Z</time>
      </trkpt>
      <trkpt lat="45.1131" lon="1.2906">
        <ele>250</ele>
        <time>2023-10-28T14:52:17Z</time>
      </trkpt>
      <trkpt lat="45.11312" lon="1.29061">
        <ele>250</ele>
        <time>2023-10-28T14:52:18Z</time>
      </trkpt>
      <trkpt lat="45.11314" lon="1.29062">
        <ele>250.1</ele>
        <time>2023-10-28T14:52:19Z</time>
      </trkpt>
      <trkpt lat="45.11315" lon="1.29063">
        <ele>250.1</ele>
        <time>2023-10-28T14:52:20Z</time>
      </trkpt>
      <trkpt lat="45.11317" lon="1.29064">
        <ele>250.2</ele>
        <time>2023-10-28T14:52:21Z</time>
      </trkpt>
      <trkpt lat="45.11319" lon="1.29065">
        <ele>250.2</ele>
        <time>2023-10-28T14:52:22Z</time>
      </trkpt>
      <trkpt lat="45.11321" lon="1.29066">
        <ele>250.3</ele>
        <time>2023-10-28T14:52:23Z</time>
      </trkpt>
      <trkpt lat="45.11323" lon="1.29067">
        <ele>250.3</ele>
        <time>2023-10-28T14:52:24Z</time>
      </trkpt>
      <trkpt lat="45.11325" lon="1.29068">
        <ele>250.4</ele>
        <time>2023-10-28T14:52:25Z</time>
      </trkpt>
      <trkpt lat="45.11327" lon="1.29069">
        <ele>250.4</ele>
        <time>2023-10-28T14:52:26Z</time>
      </trkpt>
      <trkpt lat="45.11329" lon="1.2907">
        <ele>250.5</ele>
        <time>2023-10-28T14:52:27Z</time>
      </trkpt>
      <trkpt lat="45.11331" lon="1.29071">
        <ele>250.5</ele>
        <time>2023-10-28T14:52:28Z</time>
      </trkpt>
      <trkpt lat="45.11333" lon="1.29071">
        <ele>250.6</ele>
        <time>2023-10-28T14:52:29Z</time>
      </trkpt>
      <trkpt lat="45.11335" lon="1.29072">
        <ele>250.6</ele>
        <time>2023-10-28T14:52:30Z</time>
      </trkpt>
      <trkpt lat="45.11338" lon="1.29073">
        <ele>250.7</ele>
        <time>2023-10-28T14:52:31Z</time>
      </trkpt>
      <trkpt lat="45.1134" lon="1.29074">
        <ele>250.7</ele>
        <time>2023-10-28T14:52:32Z</time>
      </trkpt>
      <trkpt lat="45.11342" lon="1.29075">
        <ele>250.8</ele>
        <time>2023-10-28T14:52:33Z</time>
      </trkpt>
      <trkpt lat="45.11344" lon="1.29076">
        <ele>250.9</ele>
        <time>2023-10-28T14:52:34Z</time>
      </trkpt>
      <trkpt lat="45.11346" lon="1.29077">
        <ele>251</ele>
        <time>2023-10-28T14:52:35Z</time>
      </trkpt>
      <trkpt lat="45.11349" lon="1.29078">
        <ele>251.1</ele>
        <time>2023-10-28T14:52:36Z</time>
      </trkpt>
      <trkpt lat="45.11351" lon="1.29079">
        <ele>251.2</ele>
        <time>2023-10-28T14:52:37Z</time>
      </trkpt>
      <trkpt lat="45.11353" lon="1.2908">
        <ele>251.3</ele>
        <time>2023-10-28T14:52:38Z</time>
      </trkpt>
      <trkpt lat="45.11355" lon="1.29081">
        <ele>251.4</ele>
        <time>2023-10-28T14:52:39Z</time>
      </trkpt>
      <trkpt lat="45.11358" lon="1.29082">
        <ele>251.5</ele>
        <time>2023-10-28T14:52:40Z</time>
      </trkpt>
      <trkpt lat="45.1136" lon="1.29083">
        <ele>251.7</ele>
        <time>2023-10-28T14:52:41Z</time>
      </trkpt>
      <trkpt lat="45.11362" lon="1.29083">
        <ele>251.8</ele>
        <time>2023-10-28T14:52:42Z</time>
      </trkpt>
      <trkpt lat="45.11365" lon="1.29084">
        <ele>251.9</ele>
        <time>2023-10-28T14:52:43Z</time>
      </trkpt>
      <trkpt lat="45.11367" lon="1.29084">
        <ele>252</ele>
        <time>2023-10-28T14:52:44Z</time>
      </trkpt>
      <trkpt lat="45.11369" lon="1.29085">
        <ele>252.1</ele>
        <time>2023-10-28T14:52:45Z</time>
      </trkpt>
      <trkpt lat="45.11372" lon="1.29085">
        <ele>252.2</ele>
        <time>2023-10-28T14:52:46Z</time>
      </trkpt>
      <trkpt lat="45.11374" lon="1.29086">
        <ele>252.2</ele>
        <time>2023-10-28T14:52:47Z</time>
      </trkpt>
      <trkpt lat="45.11376" lon="1.29086">
        <ele>252.3</ele>
        <time>2023-10-28T14:52:48Z</time>
      </trkpt>
      <trkpt lat="45.11379" lon="1.29086">
        <ele>252.4</ele>
        <time>2023-10-28T14:52:49Z</time>
      </trkpt>
      <trkpt lat="45.1138" lon="1.29086">
        <ele>252.4</ele>
        <time>2023-10-28T14:52:50Z</time>
      </trkpt>
      <trkpt lat="45.11383" lon="1.29086">
        <ele>252.5</ele>
        <time>2023-10-28T14:52:51Z</time>
      </trkpt>
      <trkpt lat="45.11385" lon="1.29086">
        <ele>252.6</ele>
        <time>2023-10-28T14:52:52Z</time>
      </trkpt>
      <trkpt lat="45.11387" lon="1.29086">
        <ele>252.7</ele>
        <time>2023-10-28T14:52:53Z</time>
      </trkpt>
      <trkpt lat="45.1139" lon="1.29085">
        <ele>252.7</ele>
        <time>2023-10-28T14:52:54Z</time>
      </trkpt>
      <trkpt lat="45.11392" lon="1.29084">
        <ele>252.8</ele>
        <time>2023-10-28T14:52:55Z</time>
      </trkpt>
      <trkpt lat="45.11394" lon="1.29083">
        <ele>252.9</ele>
        <time>2023-10-28T14:52:56Z</time>
      </trkpt>
      <trkpt lat="45.11396" lon="1.29082">
        <ele>253</ele>
        <time>2023-10-28T14:52:57Z</time>
      </trkpt>
      <trkpt lat="45.11398" lon="1.29081">
        <ele>253.1</ele>
        <time>2023-10-28T14:52:58Z</time>
      </trkpt>
      <trkpt lat="45.114" lon="1.29079">
        <ele>253.2</ele>
        <time>2023-10-28T14:52:59Z</time>
      </trkpt>
      <trkpt lat="45.11402" lon="1.29078">
        <ele>253.3</ele>
        <time>2023-10-28T14:53:00Z</time>
      </trkpt>
      <trkpt lat="45.11404" lon="1.29077">
        <ele>253.5</ele>
        <time>2023-10-28T14:53:01Z</time>
      </trkpt>
      <trkpt lat="45.11406" lon="1.29076">
        <ele>253.6</ele>
        <time>2023-10-28T14:53:02Z</time>
      </trkpt>
      <trkpt lat="45.11408" lon="1.29075">
        <ele>253.7</ele>
        <time>2023-10-28T14:53:03Z</time>
      </trkpt>
      <trkpt lat="45.1141" lon="1.29074">
        <ele>253.9</ele>
        <time>2023-10-28T14:53:04Z</time>
      </trkpt>
      <trkpt lat="45.11412" lon="1.29073">
        <ele>254</ele>
        <time>2023-10-28T14:53:05Z</time>
      </trkpt>
      <trkpt lat="45.11414" lon="1.29073">
        <ele>254.1</ele>
        <time>2023-10-28T14:53:06Z</time>
      </trkpt>
      <trkpt lat="45.11416" lon="1.29072">
        <ele>254.2</ele>
        <time>2023-10-28T14:53:07Z</time>
      </trkpt>
      <trkpt lat="45.11417" lon="1.29071">
        <ele>254.4</ele>
        <time>2023-10-28T14:53:08Z</time>
      </trkpt>
      <trkpt lat="45.11419" lon="1.29069">
        <ele>254.5</ele>
        <time>2023-10-28T14:53:09Z</time>
      </trkpt>
      <trkpt lat="45.1142" lon="1.29068">
        <ele>254.6</ele>
        <time>2023-10-28T14:53:10Z</time>
      </trkpt>
      <trkpt lat="45.11422" lon="1.29066">
        <ele>254.7</ele>
        <time>2023-10-28T14:53:11Z</time>
      </trkpt>
      <trkpt lat="45.11423" lon="1.29064">
        <ele>254.8</ele>
        <time>2023-10-28T14:53:12Z</time>
      </trkpt>
      <trkpt lat="45.11424" lon="1.29061">
        <ele>254.9</ele>
        <time>2023-10-28T14:53:13Z</time>
      </trkpt>
      <trkpt lat="45.11425" lon="1.29059">
        <ele>255</ele>
        <time>2023-10-28T14:53:14Z</time>
      </trkpt>
      <trkpt lat="45.11425" lon="1.29056">
        <ele>255.2</ele>
        <time>2023-10-28T14:53:15Z</time>
      </trkpt>
      <trkpt lat="45.11426" lon="1.29053">
        <ele>255.3</ele>
        <time>2023-10-28T14:53:16Z</time>
      </trkpt>
      <trkpt lat="45.11427" lon="1.29049">
        <ele>255.4</ele>
        <time>2023-10-28T14:53:17Z</time>
      </trkpt>
      <trkpt lat="45.11427" lon="1.29046">
        <ele>255.5</ele>
        <time>2023-10-28T14:53:18Z</time>
      </trkpt>
      <trkpt lat="45.11428" lon="1.29043">
        <ele>255.5</ele>
        <time>2023-10-28T14:53:19Z</time>
      </trkpt>
      <trkpt lat="45.11428" lon="1.29041">
        <ele>255.6</ele>
        <time>2023-10-28T14:53:20Z</time>
      </trkpt>
      <trkpt lat="45.11429" lon="1.29038">
        <ele>255.7</ele>
        <time>2023-10-28T14:53:21Z</time>
      </trkpt>
      <trkpt lat="45.1143" lon="1.29035">
        <ele>255.8</ele>
        <time>2023-10-28T14:53:22Z</time>
      </trkpt>
      <trkpt lat="45.1143" lon="1.29033">
        <ele>255.8</ele>
        <time>2023-10-28T14:53:23Z</time>
      </trkpt>
      <trkpt lat="45.11431" lon="1.2903">
        <ele>255.9</ele>
        <time>2023-10-28T14:53:24Z</time>
      </trkpt>
      <trkpt lat="45.11432" lon="1.29027">
        <ele>255.9</ele>
        <time>2023-10-28T14:53:25Z</time>
      </trkpt>
      <trkpt lat="45.11433" lon="1.29024">
        <ele>256</ele>
        <time>2023-10-28T14:53:26Z</time>
      </trkpt>
      <trkpt lat="45.11434" lon="1.29021">
        <ele>256</ele>
        <time>2023-10-28T14:53:27Z</time>
      </trkpt>
      <trkpt lat="45.11435" lon="1.29018">
        <ele>256</ele>
        <time>2023-10-28T14:53:28Z</time>
      </trkpt>
      <trkpt lat="45.11437" lon="1.29016">
        <ele>256.1</ele>
        <time>2023-10-28T14:53:29Z</time>
      </trkpt>
      <trkpt lat="45.11439" lon="1.29014">
        <ele>256.1</ele>
        <time>2023-10-28T14:53:30Z</time>
      </trkpt>
      <trkpt lat="45.11441" lon="1.29013">
        <ele>256.2</ele>
        <time>2023-10-28T14:53:31Z</time>
      </trkpt>
      <trkpt lat="45.11443" lon="1.29011">
        <ele>256.2</ele>
        <time>2023-10-28T14:53:32Z</time>
      </trkpt>
      <trkpt lat="45.11445" lon="1.2901">
        <ele>256.2</ele>
        <time>2023-10-28T14:53:33Z</time>
      </trkpt>
      <trkpt lat="45.11447" lon="1.29008">
        <ele>256.2</ele>
        <time>2023-10-28T14:53:34Z</time>
      </trkpt>
      <trkpt lat="45.11448" lon="1.29006">
        <ele>256.3</ele>
        <time>2023-10-28T14:53:35Z</time>
      </trkpt>
      <trkpt lat="45.1145" lon="1.29004">
        <ele>256.3</ele>
        <time>2023-10-28T14:53:36Z</time>
      </trkpt>
      <trkpt lat="45.11451" lon="1.29002">
        <ele>256.3</ele>
        <time>2023-10-28T14:53:37Z</time>
      </trkpt>
      <trkpt lat="45.11453" lon="1.28999">
        <ele>256.3</ele>
        <time>2023-10-28T14:53:38Z</time>
      </trkpt>
      <trkpt lat="45.11454" lon="1.28996">
        <ele>256.3</ele>
        <time>2023-10-28T14:53:39Z</time>
      </trkpt>
      <trkpt lat="45.11455" lon="1.28993">
        <ele>256.3</ele>
        <time>2023-10-28T14:53:40Z</time>
      </trkpt>
      <trkpt lat="45.11456" lon="1.2899">
        <ele>256.4</ele>
        <time>2023-10-28T14:53:41Z</time>
      </trkpt>
      <trkpt lat="45.11457" lon="1.28987">
        <ele>256.4</ele>
        <time>2023-10-28T14:53:42Z</time>
      </trkpt>
      <trkpt lat="45.11459" lon="1.28984">
        <ele>256.4</ele>
        <time>2023-10-28T14:53:43Z</time>
      </trkpt>
      <trkpt lat="45.1146" lon="1.28981">
        <ele>256.4</ele>
        <time>2023-10-28T14:53:44Z</time>
      </trkpt>
      <trkpt lat="45.11462" lon="1.28979">
        <ele>256.5</ele>
        <time>2023-10-28T14:53:45Z</time>
      </trkpt>
      <trkpt lat="45.11463" lon="1.28976">
        <ele>256.5</ele>
        <time>2023-10-28T14:53:46Z</time>
      </trkpt>
      <trkpt lat="45.11464" lon="1.28974">
        <ele>256.5</ele>
        <time>2023-10-28T14:53:47Z</time>
      </trkpt>
      <trkpt lat="45.11466" lon="1.28971">
        <ele>256.5</ele>
        <time>2023-10-28T14:53:48Z</time>
      </trkpt>
      <trkpt lat="45.11468" lon="1.28969">
        <ele>256.5</ele>
        <time>2023-10-28T14:53:49Z</time>
      </trkpt>
      <trkpt lat="45.1147" lon="1.28967">
        <ele>256.5</ele>
        <time>2023-10-28T14:53:50Z</time>
      </trkpt>
      <trkpt lat="45.11472" lon="1.28965">
        <ele>256.5</ele>
        <time>2023-10-28T14:53:51Z</time>
      </trkpt>
      <trkpt lat="45.11474" lon="1.28963">
        <ele>256.5</ele>
        <time>2023-10-28T14:53:52Z</time>
      </trkpt>
      <trkpt lat="45.11475" lon="1.28962">
        <ele>256.6</ele>
        <time>2023-10-28T14:53:53Z</time>
      </trkpt>
      <trkpt lat="45.11477" lon="1.2896">
        <ele>256.6</ele>
        <time>2023-10-28T14:53:54Z</time>
      </trkpt>
      <trkpt lat="45.1148" lon="1.28959">
        <ele>256.6</ele>
        <time>2023-10-28T14:53:55Z</time>
      </trkpt>
      <trkpt lat="45.11482" lon="1.28958">
        <ele>256.6</ele>
        <time>2023-10-28T14:53:56Z</time>
      </trkpt>
      <trkpt lat="45.11484" lon="1.28958">
        <ele>256.6</ele>
        <time>2023-10-28T14:53:57Z</time>
      </trkpt>
      <trkpt lat="45.11486" lon="1.28957">
        <ele>256.7</ele>
        <time>2023-10-28T14:53:58Z</time>
      </trkpt>
      <trkpt lat="45.11488" lon="1.28957">
        <ele>256.7</ele>
        <time>2023-10-28T14:53:59Z</time>
      </trkpt>
      <trkpt lat="45.11491" lon="1.28957">
        <ele>256.7</ele>
        <time>2023-10-28T14:54:00Z</time>
      </trkpt>
      <trkpt lat="45.11493" lon="1.28958">
        <ele>256.7</ele>
        <time>2023-10-28T14:54:01Z</time>
      </trkpt>
      <trkpt lat="45.11496" lon="1.28958">
        <ele>256.7</ele>
        <time>2023-10-28T14:54:02Z</time>
      </trkpt>
      <trkpt lat="45.11498" lon="1.28959">
        <ele>256.8</ele>
        <time>2023-10-28T14:54:03Z</time>
      </trkpt>
      <trkpt lat="45.115" lon="1.28959">
        <ele>256.8</ele>
        <time>2023-10-28T14:54:04Z</time>
      </trkpt>
      <trkpt lat="45.11503" lon="1.2896">
        <ele>256.8</ele>
        <time>2023-10-28T14:54:05Z</time>
      </trkpt>
      <trkpt lat="45.11505" lon="1.2896">
        <ele>256.8</ele>
        <time>2023-10-28T14:54:06Z</time>
      </trkpt>
      <trkpt lat="45.11507" lon="1.28961">
        <ele>256.9</ele>
        <time>2023-10-28T14:54:07Z</time>
      </trkpt>
      <trkpt lat="45.1151" lon="1.28961">
        <ele>256.9</ele>
        <time>2023-10-28T14:54:08Z</time>
      </trkpt>
      <trkpt lat="45.11512" lon="1.28962">
        <ele>256.9</ele>
        <time>2023-10-28T14:54:09Z</time>
      </trkpt>
      <trkpt lat="45.11515" lon="1.28962">
        <ele>256.9</ele>
        <time>2023-10-28T14:54:10Z</time>
      </trkpt>
      <trkpt lat="45.11517" lon="1.28962">
        <ele>257</ele>
        <time>2023-10-28T14:54:11Z</time>
      </trkpt>
      <trkpt lat="45.11519" lon="1.28963">
        <ele>257</ele>
        <time>2023-10-28T14:54:12Z</time>
      </trkpt>
      <trkpt lat="45.11522" lon="1.28964">
        <ele>257</ele>
        <time>2023-10-28T14:54:13Z</time>
      </trkpt>
      <trkpt lat="45.11524" lon="1.28964">
        <ele>257</ele>
        <time>2023-10-28T14:54:14Z</time>
      </trkpt>
      <trkpt lat="45.11527" lon="1.28964">
        <ele>256.9</ele>
        <time>2023-10-28T14:54:15Z</time>
      </trkpt>
      <trkpt lat="45.11529" lon="1.28964">
        <ele>256.9</ele>
        <time>2023-10-28T14:54:16Z</time>
      </trkpt>
      <trkpt lat="45.11531" lon="1.28964">
        <ele>256.9</ele>
        <time>2023-10-28T14:54:17Z</time>
      </trkpt>
      <trkpt lat="45.11533" lon="1.28964">
        <ele>256.8</ele>
        <time>2023-10-28T14:54:18Z</time>
      </trkpt>
      <trkpt lat="45.11536" lon="1.28964">
        <ele>256.8</ele>
        <time>2023-10-28T14:54:19Z</time>
      </trkpt>
      <trkpt lat="45.11538" lon="1.28964">
        <ele>256.7</ele>
        <time>2023-10-28T14:54:20Z</time>
      </trkpt>
      <trkpt lat="45.1154" lon="1.28963">
        <ele>256.7</ele>
        <time>2023-10-28T14:54:21Z</time>
      </trkpt>
      <trkpt lat="45.11543" lon="1.28963">
        <ele>256.6</ele>
        <time>2023-10-28T14:54:22Z</time>
      </trkpt>
      <trkpt lat="45.11545" lon="1.28962">
        <ele>256.6</ele>
        <time>2023-10-28T14:54:23Z</time>
      </trkpt>
      <trkpt lat="45.11547" lon="1.28961">
        <ele>256.5</ele>
        <time>2023-10-28T14:54:24Z</time>
      </trkpt>
      <trkpt lat="45.1155" lon="1.2896">
        <ele>256.4</ele>
        <time>2023-10-28T14:54:25Z</time>
      </trkpt>
      <trkpt lat="45.11552" lon="1.2896">
        <ele>256.3</ele>
        <time>2023-10-28T14:54:26Z</time>
      </trkpt>
      <trkpt lat="45.11554" lon="1.28959">
        <ele>256.2</ele>
        <time>2023-10-28T14:54:27Z</time>
      </trkpt>
      <trkpt lat="45.11557" lon="1.28958">
        <ele>256.2</ele>
        <time>2023-10-28T14:54:28Z</time>
      </trkpt>
      <trkpt lat="45.11559" lon="1.28957">
        <ele>256.1</ele>
        <time>2023-10-28T14:54:29Z</time>
      </trkpt>
      <trkpt lat="45.11561" lon="1.28955">
        <ele>256</ele>
        <time>2023-10-28T14:54:30Z</time>
      </trkpt>
      <trkpt lat="45.11564" lon="1.28954">
        <ele>255.9</ele>
        <time>2023-10-28T14:54:31Z</time>
      </trkpt>
      <trkpt lat="45.11566" lon="1.28953">
        <ele>255.8</ele>
        <time>2023-10-28T14:54:32Z</time>
      </trkpt>
      <trkpt lat="45.11568" lon="1.28952">
        <ele>255.7</ele>
        <time>2023-10-28T14:54:33Z</time>
      </trkpt>
      <trkpt lat="45.1157" lon="1.28951">
        <ele>255.6</ele>
        <time>2023-10-28T14:54:34Z</time>
      </trkpt>
      <trkpt lat="45.11572" lon="1.28949">
        <ele>255.5</ele>
        <time>2023-10-28T14:54:35Z</time>
      </trkpt>
      <trkpt lat="45.11575" lon="1.28948">
        <ele>255.5</ele>
        <time>2023-10-28T14:54:36Z</time>
      </trkpt>
      <trkpt lat="45.11577" lon="1.28947">
        <ele>255.4</ele>
        <time>2023-10-28T14:54:37Z</time>
      </trkpt>
      <trkpt lat="45.11579" lon="1.28946">
        <ele>255.3</ele>
        <time>2023-10-28T14:54:38Z</time>
      </trkpt>
      <trkpt lat="45.11581" lon="1.28944">
        <ele>255.2</ele>
        <time>2023-10-28T14:54:39Z</time>
      </trkpt>
      <trkpt lat="45.11583" lon="1.28943">
        <ele>255.2</ele>
        <time>2023-10-28T14:54:40Z</time>
      </trkpt>
      <trkpt lat="45.11585" lon="1.28942">
        <ele>255.1</ele>
        <time>2023-10-28T14:54:41Z</time>
      </trkpt>
      <trkpt lat="45.11588" lon="1.28941">
        <ele>255</ele>
        <time>2023-10-28T14:54:42Z</time>
      </trkpt>
      <trkpt lat="45.1159" lon="1.2894">
        <ele>255</ele>
        <time>2023-10-28T14:54:43Z</time>
      </trkpt>
      <trkpt lat="45.11592" lon="1.28939">
        <ele>254.9</ele>
        <time>2023-10-28T14:54:44Z</time>
      </trkpt>
      <trkpt lat="45.11594" lon="1.28938">
        <ele>254.8</ele>
        <time>2023-10-28T14:54:45Z</time>
      </trkpt>
      <trkpt lat="45.11597" lon="1.28937">
        <ele>254.8</ele>
        <time>2023-10-28T14:54:46Z</time>
      </trkpt>
      <trkpt lat="45.11599" lon="1.28936">
        <ele>254.7</ele>
        <time>2023-10-28T14:54:47Z</time>
      </trkpt>
      <trkpt lat="45.11601" lon="1.28936">
        <ele>254.6</ele>
        <time>2023-10-28T14:54:48Z</time>
      </trkpt>
      <trkpt lat="45.11604" lon="1.28935">
        <ele>254.6</ele>
        <time>2023-10-28T14:54:49Z</time>
      </trkpt>
      <trkpt lat="45.11606" lon="1.28934">
        <ele>254.5</ele>
        <time>2023-10-28T14:54:50Z</time>
      </trkpt>
      <trkpt lat="45.11607" lon="1.28934">
        <ele>254.5</ele>
        <time>2023-10-28T14:54:51Z</time>
      </trkpt>
      <trkpt lat="45.11609" lon="1.28933">
        <ele>254.4</ele>
        <time>2023-10-28T14:54:52Z</time>
      </trkpt>
      <trkpt lat="45.1161" lon="1.28932">
        <ele>254.4</ele>
        <time>2023-10-28T14:54:53Z</time>
      </trkpt>
      <trkpt lat="45.11612" lon="1.28931">
        <ele>254.3</ele>
        <time>2023-10-28T14:54:54Z</time>
      </trkpt>
      <trkpt lat="45.11614" lon="1.2893">
        <ele>254.3</ele>
        <time>2023-10-28T14:54:55Z</time>
      </trkpt>
      <trkpt lat="45.11615" lon="1.28928">
        <ele>254.2</ele>
        <time>2023-10-28T14:54:56Z</time>
      </trkpt>
      <trkpt lat="45.11617" lon="1.28927">
        <ele>254.2</ele>
        <time>2023-10-28T14:54:57Z</time>
      </trkpt>
      <trkpt lat="45.11618" lon="1.28925">
        <ele>254.1</ele>
        <time>2023-10-28T14:54:58Z</time>
      </trkpt>
      <trkpt lat="45.11618" lon="1.28924">
        <ele>254.1</ele>
        <time>2023-10-28T14:54:59Z</time>
      </trkpt>
      <trkpt lat="45.11619" lon="1.28923">
        <ele>254</ele>
        <time>2023-10-28T14:55:00Z</time>
      </trkpt>
      <trkpt lat="45.11619" lon="1.28921">
        <ele>254</ele>
        <time>2023-10-28T14:55:01Z</time>
      </trkpt>
      <trkpt lat="45.1162" lon="1.2892">
        <ele>254</ele>
        <time>2023-10-28T14:55:02Z</time>
      </trkpt>
      <trkpt lat="45.1162" lon="1.28918">
        <ele>254</ele>
        <time>2023-10-28T14:55:03Z</time>
      </trkpt>
      <trkpt lat="45.1162" lon="1.28917">
        <ele>253.9</ele>
        <time>2023-10-28T14:55:04Z</time>
      </trkpt>
      <trkpt lat="45.11621" lon="1.28916">
        <ele>253.8</ele>
        <time>2023-10-28T14:55:05Z</time>
      </trkpt>
      <trkpt lat="45.11622" lon="1.28915">
        <ele>253.7</ele>
        <time>2023-10-28T14:55:06Z</time>
      </trkpt>
      <trkpt lat="45.11622" lon="1.28915">
        <ele>253.7</ele>
        <time>2023-10-28T14:55:07Z</time>
      </trkpt>
      <trkpt lat="45.11622" lon="1.28915">
        <ele>253.7</ele>
        <time>2023-10-28T14:55:08Z</time>
      </trkpt>
      <trkpt lat="45.11622" lon="1.28915">
        <ele>253.7</ele>
        <time>2023-10-28T14:55:09Z</time>
      </trkpt>
      <trkpt lat="45.11622" lon="1.28915">
        <ele>253.7</ele>
        <time>2023-10-28T14:55:10Z</time>
      </trkpt>
      <trkpt lat="45.11622" lon="1.28915">
        <ele>253.7</ele>
        <time>2023-10-28T14:55:11Z</time>
      </trkpt>
      <trkpt lat="45.11622" lon="1.28915">
        <ele>253.7</ele>
        <time>2023-10-28T14:55:12Z</time>
      </trkpt>
      <trkpt lat="45.11622" lon="1.28915">
        <ele>253.7</ele>
        <time>2023-10-28T14:55:13Z</time>
      </trkpt>
      <trkpt lat="45.11622" lon="1.28916">
        <ele>253.6</ele>
        <time>2023-10-28T14:55:14Z</time>
      </trkpt>
      <trkpt lat="45.11621" lon="1.28917">
        <ele>253.6</ele>
        <time>2023-10-28T14:55:15Z</time>
      </trkpt>
      <trkpt lat="45.11621" lon="1.28918">
        <ele>253.5</ele>
        <time>2023-10-28T14:55:16Z</time>
      </trkpt>
      <trkpt lat="45.1162" lon="1.28919">
        <ele>253.5</ele>
        <time>2023-10-28T14:55:17Z</time>
      </trkpt>
      <trkpt lat="45.1162" lon="1.2892">
        <ele>253.4</ele>
        <time>2023-10-28T14:55:18Z</time>
      </trkpt>
      <trkpt lat="45.11619" lon="1.28922">
        <ele>253.3</ele>
        <time>2023-10-28T14:55:19Z</time>
      </trkpt>
      <trkpt lat="45.11618" lon="1.28923">
        <ele>253.2</ele>
        <time>2023-10-28T14:55:20Z</time>
      </trkpt>
      <trkpt lat="45.11618" lon="1.28925">
        <ele>253.2</ele>
        <time>2023-10-28T14:55:21Z</time>
      </trkpt>
      <trkpt lat="45.11617" lon="1.28926">
        <ele>253.1</ele>
        <time>2023-10-28T14:55:22Z</time>
      </trkpt>
      <trkpt lat="45.11617" lon="1.28927">
        <ele>253</ele>
        <time>2023-10-28T14:55:23Z</time>
      </trkpt>
      <trkpt lat="45.11616" lon="1.28929">
        <ele>252.9</ele>
        <time>2023-10-28T14:55:24Z</time>
      </trkpt>
      <trkpt lat="45.11616" lon="1.2893">
        <ele>252.8</ele>
        <time>2023-10-28T14:55:25Z</time>
      </trkpt>
      <trkpt lat="45.11616" lon="1.28932">
        <ele>252.8</ele>
        <time>2023-10-28T14:55:26Z</time>
      </trkpt>
      <trkpt lat="45.11616" lon="1.28933">
        <ele>252.7</ele>
        <time>2023-10-28T14:55:27Z</time>
      </trkpt>
      <trkpt lat="45.11616" lon="1.28934">
        <ele>252.6</ele>
        <time>2023-10-28T14:55:28Z</time>
      </trkpt>
      <trkpt lat="45.11616" lon="1.28934">
        <ele>252.6</ele>
        <time>2023-10-28T14:55:29Z</time>
      </trkpt>
      <trkpt lat="45.11617" lon="1.28934">
        <ele>252.6</ele>
        <time>2023-10-28T14:55:30Z</time>
      </trkpt>
      <trkpt lat="45.11617" lon="1.28932">
        <ele>252.6</ele>
        <time>2023-10-28T14:55:31Z</time>
      </trkpt>
      <trkpt lat="45.11617" lon="1.28931">
        <ele>252.5</ele>
        <time>2023-10-28T14:55:32Z</time>
      </trkpt>
      <trkpt lat="45.11617" lon="1.28931">
        <ele>252.5</ele>
        <time>2023-10-28T14:55:33Z</time>
      </trkpt>
      <trkpt lat="45.11617" lon="1.28931">
        <ele>252.5</ele>
        <time>2023-10-28T14:55:34Z</time>
      </trkpt>
      <trkpt lat="45.11617" lon="1.28931">
        <ele>252.5</ele>
        <time>2023-10-28T14:55:35Z</time>
      </trkpt>
      <trkpt lat="45.11617" lon="1.28931">
        <ele>252.5</ele>
        <time>2023-10-28T14:55:36Z</time>
      </trkpt>
      <trkpt lat="45.11617" lon="1.28931">
        <ele>252.5</ele>
        <time>2023-10-28T14:55:37Z</time>
      </trkpt>
      <trkpt lat="45.11617" lon="1.28931">
        <ele>252.5</ele>
        <time>2023-10-28T14:55:38Z</time>
      </trkpt>
      <trkpt lat="45.11617" lon="1.28931">
        <ele>252.5</ele>
        <time>2023-10-28T14:55:39Z</time>
      </trkpt>
      <trkpt lat="45.11617" lon="1.28931">
        <ele>252.5</ele>
        <time>2023-10-28T14:55:40Z</time>
      </trkpt>
      <trkpt lat="45.11617" lon="1.28931">
        <ele>252.5</ele>
        <time>2023-10-28T14:55:41Z</time>
      </trkpt>
      <trkpt lat="45.11617" lon="1.28931">
        <ele>252.5</ele>
        <time>2023-10-28T14:55:42Z</time>
      </trkpt>
      <trkpt lat="45.11618" lon="1.28929">
        <ele>252.3</ele>
        <time>2023-10-28T14:55:43Z</time>
      </trkpt>
      <trkpt lat="45.11619" lon="1.28928">
        <ele>252.3</ele>
        <time>2023-10-28T14:55:44Z</time>
      </trkpt>
      <trkpt lat="45.1162" lon="1.28928">
        <ele>252.2</ele>
        <time>2023-10-28T14:55:45Z</time>
      </trkpt>
      <trkpt lat="45.1162" lon="1.28929">
        <ele>252.1</ele>
        <time>2023-10-28T14:55:46Z</time>
      </trkpt>
      <trkpt lat="45.11621" lon="1.28929">
        <ele>252.1</ele>
        <time>2023-10-28T14:55:47Z</time>
      </trkpt>
      <trkpt lat="45.11622" lon="1.28931">
        <ele>252</ele>
        <time>2023-10-28T14:55:48Z</time>
      </trkpt>
      <trkpt lat="45.11623" lon="1.28933">
        <ele>251.8</ele>
        <time>2023-10-28T14:55:49Z</time>
      </trkpt>
      <trkpt lat="45.11625" lon="1.28935">
        <ele>251.6</ele>
        <time>2023-10-28T14:55:50Z</time>
      </trkpt>
      <trkpt lat="45.11626" lon="1.28938">
        <ele>251.5</ele>
        <time>2023-10-28T14:55:51Z</time>
      </trkpt>
      <trkpt lat="45.11628" lon="1.28941">
        <ele>251.3</ele>
        <time>2023-10-28T14:55:52Z</time>
      </trkpt>
      <trkpt lat="45.1163" lon="1.28943">
        <ele>251.1</ele>
        <time>2023-10-28T14:55:53Z</time>
      </trkpt>
      <trkpt lat="45.11632" lon="1.28946">
        <ele>250.9</ele>
        <time>2023-10-28T14:55:54Z</time>
      </trkpt>
      <trkpt lat="45.11634" lon="1.28948">
        <ele>250.7</ele>
        <time>2023-10-28T14:55:55Z</time>
      </trkpt>
      <trkpt lat="45.11636" lon="1.2895">
        <ele>250.5</ele>
        <time>2023-10-28T14:55:56Z</time>
      </trkpt>
      <trkpt lat="45.11639" lon="1.28952">
        <ele>250.3</ele>
        <time>2023-10-28T14:55:57Z</time>
      </trkpt>
      <trkpt lat="45.11641" lon="1.28954">
        <ele>250.1</ele>
        <time>2023-10-28T14:55:58Z</time>
      </trkpt>
      <trkpt lat="45.11644" lon="1.28956">
        <ele>249.9</ele>
        <time>2023-10-28T14:55:59Z</time>
      </trkpt>
      <trkpt lat="45.11646" lon="1.28957">
        <ele>249.7</ele>
        <time>2023-10-28T14:56:00Z</time>
      </trkpt>
      <trkpt lat="45.11649" lon="1.28959">
        <ele>249.5</ele>
        <time>2023-10-28T14:56:01Z</time>
      </trkpt>
      <trkpt lat="45.11651" lon="1.28961">
        <ele>249.3</ele>
        <time>2023-10-28T14:56:02Z</time>
      </trkpt>
      <trkpt lat="45.11654" lon="1.28963">
        <ele>249.1</ele>
        <time>2023-10-28T14:56:03Z</time>
      </trkpt>
      <trkpt lat="45.11656" lon="1.28964">
        <ele>248.9</ele>
        <time>2023-10-28T14:56:04Z</time>
      </trkpt>
      <trkpt lat="45.11659" lon="1.28966">
        <ele>248.8</ele>
        <time>2023-10-28T14:56:05Z</time>
      </trkpt>
      <trkpt lat="45.11661" lon="1.28967">
        <ele>248.6</ele>
        <time>2023-10-28T14:56:06Z</time>
      </trkpt>
      <trkpt lat="45.11663" lon="1.28969">
        <ele>248.5</ele>
        <time>2023-10-28T14:56:07Z</time>
      </trkpt>
      <trkpt lat="45.11665" lon="1.28971">
        <ele>248.3</ele>
        <time>2023-10-28T14:56:08Z</time>
      </trkpt>
      <trkpt lat="45.11668" lon="1.28972">
        <ele>248.2</ele>
        <time>2023-10-28T14:56:09Z</time>
      </trkpt>
      <trkpt lat="45.1167" lon="1.28974">
        <ele>248.1</ele>
        <time>2023-10-28T14:56:10Z</time>
      </trkpt>
      <trkpt lat="45.11672" lon="1.28976">
        <ele>247.9</ele>
        <time>2023-10-28T14:56:11Z</time>
      </trkpt>
      <trkpt lat="45.11675" lon="1.28978">
        <ele>247.8</ele>
        <time>2023-10-28T14:56:12Z</time>
      </trkpt>
      <trkpt lat="45.11677" lon="1.28979">
        <ele>247.7</ele>
        <time>2023-10-28T14:56:13Z</time>
      </trkpt>
      <trkpt lat="45.1168" lon="1.28981">
        <ele>247.6</ele>
        <time>2023-10-28T14:56:14Z</time>
      </trkpt>
      <trkpt lat="45.11682" lon="1.28983">
        <ele>247.5</ele>
        <time>2023-10-28T14:56:15Z</time>
      </trkpt>
      <trkpt lat="45.11684" lon="1.28984">
        <ele>247.4</ele>
        <time>2023-10-28T14:56:16Z</time>
      </trkpt>
      <trkpt lat="45.11687" lon="1.28986">
        <ele>247.3</ele>
        <time>2023-10-28T14:56:17Z</time>
      </trkpt>
      <trkpt lat="45.11689" lon="1.28988">
        <ele>247.2</ele>
        <time>2023-10-28T14:56:18Z</time>
      </trkpt>
      <trkpt lat="45.11692" lon="1.28989">
        <ele>247.2</ele>
        <time>2023-10-28T14:56:19Z</time>
      </trkpt>
      <trkpt lat="45.11694" lon="1.28991">
        <ele>247.1</ele>
        <time>2023-10-28T14:56:20Z</time>
      </trkpt>
      <trkpt lat="45.11697" lon="1.28993">
        <ele>247.1</ele>
        <time>2023-10-28T14:56:21Z</time>
      </trkpt>
      <trkpt lat="45.11699" lon="1.28995">
        <ele>247</ele>
        <time>2023-10-28T14:56:22Z</time>
      </trkpt>
      <trkpt lat="45.11702" lon="1.28996">
        <ele>246.9</ele>
        <time>2023-10-28T14:56:23Z</time>
      </trkpt>
      <trkpt lat="45.11705" lon="1.28998">
        <ele>246.9</ele>
        <time>2023-10-28T14:56:24Z</time>
      </trkpt>
      <trkpt lat="45.11707" lon="1.29">
        <ele>246.9</ele>
        <time>2023-10-28T14:56:25Z</time>
      </trkpt>
      <trkpt lat="45.1171" lon="1.29002">
        <ele>246.9</ele>
        <time>2023-10-28T14:56:26Z</time>
      </trkpt>
      <trkpt lat="45.11712" lon="1.29003">
        <ele>246.9</ele>
        <time>2023-10-28T14:56:27Z</time>
      </trkpt>
      <trkpt lat="45.11715" lon="1.29005">
        <ele>246.9</ele>
        <time>2023-10-28T14:56:28Z</time>
      </trkpt>
      <trkpt lat="45.11717" lon="1.29007">
        <ele>246.9</ele>
        <time>2023-10-28T14:56:29Z</time>
      </trkpt>
      <trkpt lat="45.1172" lon="1.29009">
        <ele>246.9</ele>
        <time>2023-10-28T14:56:30Z</time>
      </trkpt>
      <trkpt lat="45.11723" lon="1.2901">
        <ele>246.9</ele>
        <time>2023-10-28T14:56:31Z</time>
      </trkpt>
      <trkpt lat="45.11725" lon="1.29012">
        <ele>247</ele>
        <time>2023-10-28T14:56:32Z</time>
      </trkpt>
      <trkpt lat="45.11727" lon="1.29014">
        <ele>247</ele>
        <time>2023-10-28T14:56:33Z</time>
      </trkpt>
      <trkpt lat="45.11729" lon="1.29016">
        <ele>247</ele>
        <time>2023-10-28T14:56:34Z</time>
      </trkpt>
      <trkpt lat="45.11732" lon="1.29018">
        <ele>247.1</ele>
        <time>2023-10-28T14:56:35Z</time>
      </trkpt>
      <trkpt lat="45.11734" lon="1.2902">
        <ele>247.1</ele>
        <time>2023-10-28T14:56:36Z</time>
      </trkpt>
      <trkpt lat="45.11736" lon="1.29022">
        <ele>247.2</ele>
        <time>2023-10-28T14:56:37Z</time>
      </trkpt>
      <trkpt lat="45.11738" lon="1.29023">
        <ele>247.2</ele>
        <time>2023-10-28T14:56:38Z</time>
      </trkpt>
      <trkpt lat="45.1174" lon="1.29025">
        <ele>247.3</ele>
        <time>2023-10-28T14:56:39Z</time>
      </trkpt>
      <trkpt lat="45.11742" lon="1.29027">
        <ele>247.3</ele>
        <time>2023-10-28T14:56:40Z</time>
      </trkpt>
      <trkpt lat="45.11744" lon="1.29029">
        <ele>247.4</ele>
        <time>2023-10-28T14:56:41Z</time>
      </trkpt>
      <trkpt lat="45.11746" lon="1.29031">
        <ele>247.4</ele>
        <time>2023-10-28T14:56:42Z</time>
      </trkpt>
      <trkpt lat="45.11748" lon="1.29033">
        <ele>247.5</ele>
        <time>2023-10-28T14:56:43Z</time>
      </trkpt>
      <trkpt lat="45.1175" lon="1.29035">
        <ele>247.5</ele>
        <time>2023-10-28T14:56:44Z</time>
      </trkpt>
      <trkpt lat="45.11752" lon="1.29037">
        <ele>247.6</ele>
        <time>2023-10-28T14:56:45Z</time>
      </trkpt>
      <trkpt lat="45.11754" lon="1.29039">
        <ele>247.6</ele>
        <time>2023-10-28T14:56:46Z</time>
      </trkpt>
      <trkpt lat="45.11756" lon="1.29041">
        <ele>247.7</ele>
        <time>2023-10-28T14:56:47Z</time>
      </trkpt>
      <trkpt lat="45.11758" lon="1.29043">
        <ele>247.7</ele>
        <time>2023-10-28T14:56:48Z</time>
      </trkpt>
      <trkpt lat="45.1176" lon="1.29045">
        <ele>247.8</ele>
        <time>2023-10-28T14:56:49Z</time>
      </trkpt>
      <trkpt lat="45.11762" lon="1.29048">
        <ele>247.8</ele>
        <time>2023-10-28T14:56:50Z</time>
      </trkpt>
      <trkpt lat="45.11764" lon="1.2905">
        <ele>247.9</ele>
        <time>2023-10-28T14:56:51Z</time>
      </trkpt>
      <trkpt lat="45.11766" lon="1.29053">
        <ele>247.9</ele>
        <time>2023-10-28T14:56:52Z</time>
      </trkpt>
      <trkpt lat="45.11768" lon="1.29055">
        <ele>248</ele>
        <time>2023-10-28T14:56:53Z</time>
      </trkpt>
      <trkpt lat="45.11769" lon="1.29058">
        <ele>248</ele>
        <time>2023-10-28T14:56:54Z</time>
      </trkpt>
      <trkpt lat="45.11771" lon="1.29061">
        <ele>248</ele>
        <time>2023-10-28T14:56:55Z</time>
      </trkpt>
      <trkpt lat="45.11772" lon="1.29064">
        <ele>248</ele>
        <time>2023-10-28T14:56:56Z</time>
      </trkpt>
      <trkpt lat="45.11774" lon="1.29067">
        <ele>248</ele>
        <time>2023-10-28T14:56:57Z</time>
      </trkpt>
      <trkpt lat="45.11775" lon="1.2907">
        <ele>248</ele>
        <time>2023-10-28T14:56:58Z</time>
      </trkpt>
      <trkpt lat="45.11777" lon="1.29073">
        <ele>248</ele>
        <time>2023-10-28T14:56:59Z</time>
      </trkpt>
      <trkpt lat="45.11778" lon="1.29076">
        <ele>248</ele>
        <time>2023-10-28T14:57:00Z</time>
      </trkpt>
      <trkpt lat="45.11779" lon="1.29079">
        <ele>248</ele>
        <time>2023-10-28T14:57:01Z</time>
      </trkpt>
      <trkpt lat="45.11781" lon="1.29083">
        <ele>247.9</ele>
        <time>2023-10-28T14:57:02Z</time>
      </trkpt>
      <trkpt lat="45.11782" lon="1.29086">
        <ele>247.9</ele>
        <time>2023-10-28T14:57:03Z</time>
      </trkpt>
      <trkpt lat="45.11783" lon="1.29089">
        <ele>247.8</ele>
        <time>2023-10-28T14:57:04Z</time>
      </trkpt>
      <trkpt lat="45.11784" lon="1.29093">
        <ele>247.7</ele>
        <time>2023-10-28T14:57:05Z</time>
      </trkpt>
      <trkpt lat="45.11786" lon="1.29096">
        <ele>247.6</ele>
        <time>2023-10-28T14:57:06Z</time>
      </trkpt>
      <trkpt lat="45.11787" lon="1.29099">
        <ele>247.5</ele>
        <time>2023-10-28T14:57:07Z</time>
      </trkpt>
      <trkpt lat="45.11787" lon="1.29103">
        <ele>247.3</ele>
        <time>2023-10-28T14:57:08Z</time>
      </trkpt>
      <trkpt lat="45.11788" lon="1.29106">
        <ele>247.2</ele>
        <time>2023-10-28T14:57:09Z</time>
      </trkpt>
      <trkpt lat="45.11789" lon="1.2911">
        <ele>247.1</ele>
        <time>2023-10-28T14:57:10Z</time>
      </trkpt>
      <trkpt lat="45.1179" lon="1.29113">
        <ele>246.9</ele>
        <time>2023-10-28T14:57:11Z</time>
      </trkpt>
      <trkpt lat="45.11791" lon="1.29117">
        <ele>246.7</ele>
        <time>2023-10-28T14:57:12Z</time>
      </trkpt>
      <trkpt lat="45.11791" lon="1.29121">
        <ele>246.5</ele>
        <time>2023-10-28T14:57:13Z</time>
      </trkpt>
      <trkpt lat="45.11792" lon="1.29124">
        <ele>246.3</ele>
        <time>2023-10-28T14:57:14Z</time>
      </trkpt>
      <trkpt lat="45.11792" lon="1.29128">
        <ele>246.1</ele>
        <time>2023-10-28T14:57:15Z</time>
      </trkpt>
      <trkpt lat="45.11793" lon="1.29132">
        <ele>245.9</ele>
        <time>2023-10-28T14:57:16Z</time>
      </trkpt>
      <trkpt lat="45.11793" lon="1.29135">
        <ele>245.7</ele>
        <time>2023-10-28T14:57:17Z</time>
      </trkpt>
      <trkpt lat="45.11794" lon="1.29139">
        <ele>245.5</ele>
        <time>2023-10-28T14:57:18Z</time>
      </trkpt>
      <trkpt lat="45.11795" lon="1.29142">
        <ele>245.3</ele>
        <time>2023-10-28T14:57:19Z</time>
      </trkpt>
      <trkpt lat="45.11795" lon="1.29145">
        <ele>245.2</ele>
        <time>2023-10-28T14:57:20Z</time>
      </trkpt>
      <trkpt lat="45.11796" lon="1.29148">
        <ele>245</ele>
        <time>2023-10-28T14:57:21Z</time>
      </trkpt>
      <trkpt lat="45.11797" lon="1.2915">
        <ele>244.9</ele>
        <time>2023-10-28T14:57:22Z</time>
      </trkpt>
      <trkpt lat="45.11798" lon="1.29152">
        <ele>244.7</ele>
        <time>2023-10-28T14:57:23Z</time>
      </trkpt>
      <trkpt lat="45.11798" lon="1.29154">
        <ele>244.6</ele>
        <time>2023-10-28T14:57:24Z</time>
      </trkpt>
      <trkpt lat="45.11799" lon="1.29156">
        <ele>244.5</ele>
        <time>2023-10-28T14:57:25Z</time>
      </trkpt>
      <trkpt lat="45.11799" lon="1.29158">
        <ele>244.4</ele>
        <time>2023-10-28T14:57:26Z</time>
      </trkpt>
      <trkpt lat="45.11799" lon="1.2916">
        <ele>244.3</ele>
        <time>2023-10-28T14:57:27Z</time>
      </trkpt>
      <trkpt lat="45.11798" lon="1.29163">
        <ele>244.1</ele>
        <time>2023-10-28T14:57:28Z</time>
      </trkpt>
      <trkpt lat="45.11798" lon="1.29166">
        <ele>243.9</ele>
        <time>2023-10-28T14:57:29Z</time>
      </trkpt>
      <trkpt lat="45.11797" lon="1.29169">
        <ele>243.6</ele>
        <time>2023-10-28T14:57:30Z</time>
      </trkpt>
      <trkpt lat="45.11797" lon="1.29173">
        <ele>243.4</ele>
        <time>2023-10-28T14:57:31Z</time>
      </trkpt>
      <trkpt lat="45.11797" lon="1.29176">
        <ele>243.2</ele>
        <time>2023-10-28T14:57:32Z</time>
      </trkpt>
      <trkpt lat="45.11796" lon="1.2918">
        <ele>242.9</ele>
        <time>2023-10-28T14:57:33Z</time>
      </trkpt>
      <trkpt lat="45.11796" lon="1.29183">
        <ele>242.7</ele>
        <time>2023-10-28T14:57:34Z</time>
      </trkpt>
      <trkpt lat="45.11796" lon="1.29187">
        <ele>242.4</ele>
        <time>2023-10-28T14:57:35Z</time>
      </trkpt>
      <trkpt lat="45.11796" lon="1.2919">
        <ele>242.2</ele>
        <time>2023-10-28T14:57:36Z</time>
      </trkpt>
      <trkpt lat="45.11796" lon="1.29194">
        <ele>242</ele>
        <time>2023-10-28T14:57:37Z</time>
      </trkpt>
      <trkpt lat="45.11796" lon="1.29197">
        <ele>241.7</ele>
        <time>2023-10-28T14:57:38Z</time>
      </trkpt>
      <trkpt lat="45.11796" lon="1.29201">
        <ele>241.5</ele>
        <time>2023-10-28T14:57:39Z</time>
      </trkpt>
      <trkpt lat="45.11797" lon="1.29205">
        <ele>241.2</ele>
        <time>2023-10-28T14:57:40Z</time>
      </trkpt>
      <trkpt lat="45.11797" lon="1.29208">
        <ele>241</ele>
        <time>2023-10-28T14:57:41Z</time>
      </trkpt>
      <trkpt lat="45.11797" lon="1.29212">
        <ele>240.7</ele>
        <time>2023-10-28T14:57:42Z</time>
      </trkpt>
      <trkpt lat="45.11797" lon="1.29216">
        <ele>240.5</ele>
        <time>2023-10-28T14:57:43Z</time>
      </trkpt>
      <trkpt lat="45.11798" lon="1.29219">
        <ele>240.2</ele>
        <time>2023-10-28T14:57:44Z</time>
      </trkpt>
      <trkpt lat="45.11799" lon="1.29223">
        <ele>240</ele>
        <time>2023-10-28T14:57:45Z</time>
      </trkpt>
      <trkpt lat="45.11799" lon="1.29227">
        <ele>239.7</ele>
        <time>2023-10-28T14:57:46Z</time>
      </trkpt>
      <trkpt lat="45.11799" lon="1.29231">
        <ele>239.5</ele>
        <time>2023-10-28T14:57:47Z</time>
      </trkpt>
      <trkpt lat="45.118" lon="1.29235">
        <ele>239.2</ele>
        <time>2023-10-28T14:57:48Z</time>
      </trkpt>
      <trkpt lat="45.118" lon="1.29238">
        <ele>239</ele>
        <time>2023-10-28T14:57:49Z</time>
      </trkpt>
      <trkpt lat="45.118" lon="1.29242">
        <ele>238.8</ele>
        <time>2023-10-28T14:57:50Z</time>
      </trkpt>
      <trkpt lat="45.11801" lon="1.29246">
        <ele>238.5</ele>
        <time>2023-10-28T14:57:51Z</time>
      </trkpt>
      <trkpt lat="45.11801" lon="1.2925">
        <ele>238.3</ele>
        <time>2023-10-28T14:57:52Z</time>
      </trkpt>
      <trkpt lat="45.11802" lon="1.29253">
        <ele>238</ele>
        <time>2023-10-28T14:57:53Z</time>
      </trkpt>
      <trkpt lat="45.11802" lon="1.29257">
        <ele>237.8</ele>
        <time>2023-10-28T14:57:54Z</time>
      </trkpt>
      <trkpt lat="45.11802" lon="1.29261">
        <ele>237.6</ele>
        <time>2023-10-28T14:57:55Z</time>
      </trkpt>
      <trkpt lat="45.11802" lon="1.29264">
        <ele>237.3</ele>
        <time>2023-10-28T14:57:56Z</time>
      </trkpt>
      <trkpt lat="45.11803" lon="1.29268">
        <ele>237.1</ele>
        <time>2023-10-28T14:57:57Z</time>
      </trkpt>
      <trkpt lat="45.11803" lon="1.29272">
        <ele>236.9</ele>
        <time>2023-10-28T14:57:58Z</time>
      </trkpt>
      <trkpt lat="45.11803" lon="1.29275">
        <ele>236.6</ele>
        <time>2023-10-28T14:57:59Z</time>
      </trkpt>
      <trkpt lat="45.11803" lon="1.29279">
        <ele>236.4</ele>
        <time>2023-10-28T14:58:00Z</time>
      </trkpt>
      <trkpt lat="45.11804" lon="1.29283">
        <ele>236.1</ele>
        <time>2023-10-28T14:58:01Z</time>
      </trkpt>
      <trkpt lat="45.11805" lon="1.29287">
        <ele>235.9</ele>
        <time>2023-10-28T14:58:02Z</time>
      </trkpt>
      <trkpt lat="45.11805" lon="1.29291">
        <ele>235.6</ele>
        <time>2023-10-28T14:58:03Z</time>
      </trkpt>
      <trkpt lat="45.11805" lon="1.29294">
        <ele>235.4</ele>
        <time>2023-10-28T14:58:04Z</time>
      </trkpt>
      <trkpt lat="45.11806" lon="1.29298">
        <ele>235.1</ele>
        <time>2023-10-28T14:58:05Z</time>
      </trkpt>
      <trkpt lat="45.11806" lon="1.29302">
        <ele>234.9</ele>
        <time>2023-10-28T14:58:06Z</time>
      </trkpt>
      <trkpt lat="45.11806" lon="1.29306">
        <ele>234.6</ele>
        <time>2023-10-28T14:58:07Z</time>
      </trkpt>
      <trkpt lat="45.11806" lon="1.29309">
        <ele>234.4</ele>
        <time>2023-10-28T14:58:08Z</time>
      </trkpt>
      <trkpt lat="45.11805" lon="1.29313">
        <ele>234.2</ele>
        <time>2023-10-28T14:58:09Z</time>
      </trkpt>
      <trkpt lat="45.11805" lon="1.29317">
        <ele>233.9</ele>
        <time>2023-10-28T14:58:10Z</time>
      </trkpt>
      <trkpt lat="45.11805" lon="1.2932">
        <ele>233.7</ele>
        <time>2023-10-28T14:58:11Z</time>
      </trkpt>
      <trkpt lat="45.11805" lon="1.29324">
        <ele>233.5</ele>
        <time>2023-10-28T14:58:12Z</time>
      </trkpt>
      <trkpt lat="45.11805" lon="1.29328">
        <ele>233.2</ele>
        <time>2023-10-28T14:58:13Z</time>
      </trkpt>
      <trkpt lat="45.11805" lon="1.29332">
        <ele>232.9</ele>
        <time>2023-10-28T14:58:14Z</time>
      </trkpt>
      <trkpt lat="45.11806" lon="1.29336">
        <ele>232.7</ele>
        <time>2023-10-28T14:58:15Z</time>
      </trkpt>
      <trkpt lat="45.11806" lon="1.2934">
        <ele>232.4</ele>
        <time>2023-10-28T14:58:16Z</time>
      </trkpt>
      <trkpt lat="45.11807" lon="1.29344">
        <ele>232.1</ele>
        <time>2023-10-28T14:58:17Z</time>
      </trkpt>
      <trkpt lat="45.11807" lon="1.29348">
        <ele>231.9</ele>
        <time>2023-10-28T14:58:18Z</time>
      </trkpt>
      <trkpt lat="45.11808" lon="1.29352">
        <ele>231.6</ele>
        <time>2023-10-28T14:58:19Z</time>
      </trkpt>
      <trkpt lat="45.11808" lon="1.29355">
        <ele>231.3</ele>
        <time>2023-10-28T14:58:20Z</time>
      </trkpt>
      <trkpt lat="45.11809" lon="1.29359">
        <ele>231.1</ele>
        <time>2023-10-28T14:58:21Z</time>
      </trkpt>
      <trkpt lat="45.1181" lon="1.29363">
        <ele>230.8</ele>
        <time>2023-10-28T14:58:22Z</time>
      </trkpt>
      <trkpt lat="45.1181" lon="1.29366">
        <ele>230.5</ele>
        <time>2023-10-28T14:58:23Z</time>
      </trkpt>
      <trkpt lat="45.11811" lon="1.2937">
        <ele>230.3</ele>
        <time>2023-10-28T14:58:24Z</time>
      </trkpt>
      <trkpt lat="45.11812" lon="1.29373">
        <ele>230</ele>
        <time>2023-10-28T14:58:25Z</time>
      </trkpt>
      <trkpt lat="45.11812" lon="1.29377">
        <ele>229.8</ele>
        <time>2023-10-28T14:58:26Z</time>
      </trkpt>
      <trkpt lat="45.11813" lon="1.2938">
        <ele>229.6</ele>
        <time>2023-10-28T14:58:27Z</time>
      </trkpt>
      <trkpt lat="45.11815" lon="1.29383">
        <ele>229.3</ele>
        <time>2023-10-28T14:58:28Z</time>
      </trkpt>
      <trkpt lat="45.11815" lon="1.29387">
        <ele>229.1</ele>
        <time>2023-10-28T14:58:29Z</time>
      </trkpt>
      <trkpt lat="45.11817" lon="1.2939">
        <ele>228.8</ele>
        <time>2023-10-28T14:58:30Z</time>
      </trkpt>
      <trkpt lat="45.11818" lon="1.29393">
        <ele>228.6</ele>
        <time>2023-10-28T14:58:31Z</time>
      </trkpt>
      <trkpt lat="45.1182" lon="1.29396">
        <ele>228.4</ele>
        <time>2023-10-28T14:58:32Z</time>
      </trkpt>
      <trkpt lat="45.11821" lon="1.29399">
        <ele>228.2</ele>
        <time>2023-10-28T14:58:33Z</time>
      </trkpt>
      <trkpt lat="45.11823" lon="1.29402">
        <ele>227.9</ele>
        <time>2023-10-28T14:58:34Z</time>
      </trkpt>
      <trkpt lat="45.11824" lon="1.29405">
        <ele>227.7</ele>
        <time>2023-10-28T14:58:35Z</time>
      </trkpt>
      <trkpt lat="45.11826" lon="1.29408">
        <ele>227.5</ele>
        <time>2023-10-28T14:58:36Z</time>
      </trkpt>
      <trkpt lat="45.11828" lon="1.2941">
        <ele>227.3</ele>
        <time>2023-10-28T14:58:37Z</time>
      </trkpt>
      <trkpt lat="45.1183" lon="1.29413">
        <ele>227</ele>
        <time>2023-10-28T14:58:38Z</time>
      </trkpt>
      <trkpt lat="45.11832" lon="1.29415">
        <ele>226.8</ele>
        <time>2023-10-28T14:58:39Z</time>
      </trkpt>
      <trkpt lat="45.11834" lon="1.29418">
        <ele>226.6</ele>
        <time>2023-10-28T14:58:40Z</time>
      </trkpt>
      <trkpt lat="45.11836" lon="1.2942">
        <ele>226.4</ele>
        <time>2023-10-28T14:58:41Z</time>
      </trkpt>
      <trkpt lat="45.11838" lon="1.29422">
        <ele>226.2</ele>
        <time>2023-10-28T14:58:42Z</time>
      </trkpt>
      <trkpt lat="45.1184" lon="1.29424">
        <ele>226</ele>
        <time>2023-10-28T14:58:43Z</time>
      </trkpt>
      <trkpt lat="45.11842" lon="1.29427">
        <ele>225.8</ele>
        <time>2023-10-28T14:58:44Z</time>
      </trkpt>
      <trkpt lat="45.11844" lon="1.29429">
        <ele>225.6</ele>
        <time>2023-10-28T14:58:45Z</time>
      </trkpt>
      <trkpt lat="45.11845" lon="1.29431">
        <ele>225.4</ele>
        <time>2023-10-28T14:58:46Z</time>
      </trkpt>
      <trkpt lat="45.11847" lon="1.29433">
        <ele>225.2</ele>
        <time>2023-10-28T14:58:47Z</time>
      </trkpt>
      <trkpt lat="45.11849" lon="1.29435">
        <ele>225</ele>
        <time>2023-10-28T14:58:48Z</time>
      </trkpt>
      <trkpt lat="45.11851" lon="1.29438">
        <ele>224.8</ele>
        <time>2023-10-28T14:58:49Z</time>
      </trkpt>
      <trkpt lat="45.11853" lon="1.2944">
        <ele>224.6</ele>
        <time>2023-10-28T14:58:50Z</time>
      </trkpt>
      <trkpt lat="45.11855" lon="1.29442">
        <ele>224.4</ele>
        <time>2023-10-28T14:58:51Z</time>
      </trkpt>
      <trkpt lat="45.11857" lon="1.29444">
        <ele>224.2</ele>
        <time>2023-10-28T14:58:52Z</time>
      </trkpt>
      <trkpt lat="45.11859" lon="1.29446">
        <ele>224</ele>
        <time>2023-10-28T14:58:53Z</time>
      </trkpt>
      <trkpt lat="45.11861" lon="1.29448">
        <ele>223.8</ele>
        <time>2023-10-28T14:58:54Z</time>
      </trkpt>
      <trkpt lat="45.11863" lon="1.2945">
        <ele>223.6</ele>
        <time>2023-10-28T14:58:55Z</time>
      </trkpt>
      <trkpt lat="45.11865" lon="1.29451">
        <ele>223.4</ele>
        <time>2023-10-28T14:58:56Z</time>
      </trkpt>
      <trkpt lat="45.11866" lon="1.29452">
        <ele>223.2</ele>
        <time>2023-10-28T14:58:57Z</time>
      </trkpt>
      <trkpt lat="45.11868" lon="1.29454">
        <ele>223</ele>
        <time>2023-10-28T14:58:58Z</time>
      </trkpt>
      <trkpt lat="45.11871" lon="1.29455">
        <ele>222.7</ele>
        <time>2023-10-28T14:58:59Z</time>
      </trkpt>
      <trkpt lat="45.11873" lon="1.29457">
        <ele>222.5</ele>
        <time>2023-10-28T14:59:00Z</time>
      </trkpt>
      <trkpt lat="45.11875" lon="1.29459">
        <ele>222.3</ele>
        <time>2023-10-28T14:59:01Z</time>
      </trkpt>
      <trkpt lat="45.11877" lon="1.29461">
        <ele>222</ele>
        <time>2023-10-28T14:59:02Z</time>
      </trkpt>
      <trkpt lat="45.11879" lon="1.29463">
        <ele>221.8</ele>
        <time>2023-10-28T14:59:03Z</time>
      </trkpt>
      <trkpt lat="45.11881" lon="1.29466">
        <ele>221.5</ele>
        <time>2023-10-28T14:59:04Z</time>
      </trkpt>
      <trkpt lat="45.11883" lon="1.29468">
        <ele>221.3</ele>
        <time>2023-10-28T14:59:05Z</time>
      </trkpt>
      <trkpt lat="45.11886" lon="1.2947">
        <ele>221</ele>
        <time>2023-10-28T14:59:06Z</time>
      </trkpt>
      <trkpt lat="45.11888" lon="1.29473">
        <ele>220.7</ele>
        <time>2023-10-28T14:59:07Z</time>
      </trkpt>
      <trkpt lat="45.1189" lon="1.29475">
        <ele>220.5</ele>
        <time>2023-10-28T14:59:08Z</time>
      </trkpt>
      <trkpt lat="45.11892" lon="1.29478">
        <ele>220.2</ele>
        <time>2023-10-28T14:59:09Z</time>
      </trkpt>
      <trkpt lat="45.11894" lon="1.2948">
        <ele>220</ele>
        <time>2023-10-28T14:59:10Z</time>
      </trkpt>
      <trkpt lat="45.11897" lon="1.29483">
        <ele>219.7</ele>
        <time>2023-10-28T14:59:11Z</time>
      </trkpt>
      <trkpt lat="45.11899" lon="1.29485">
        <ele>219.5</ele>
        <time>2023-10-28T14:59:12Z</time>
      </trkpt>
      <trkpt lat="45.11901" lon="1.29488">
        <ele>219.2</ele>
        <time>2023-10-28T14:59:13Z</time>
      </trkpt>
      <trkpt lat="45.11903" lon="1.2949">
        <ele>219</ele>
        <time>2023-10-28T14:59:14Z</time>
      </trkpt>
      <trkpt lat="45.11905" lon="1.29493">
        <ele>218.8</ele>
        <time>2023-10-28T14:59:15Z</time>
      </trkpt>
      <trkpt lat="45.11906" lon="1.29495">
        <ele>218.6</ele>
        <time>2023-10-28T14:59:16Z</time>
      </trkpt>
      <trkpt lat="45.11908" lon="1.29497">
        <ele>218.4</ele>
        <time>2023-10-28T14:59:17Z</time>
      </trkpt>
      <trkpt lat="45.1191" lon="1.29499">
        <ele>218.2</ele>
        <time>2023-10-28T14:59:18Z</time>
      </trkpt>
      <trkpt lat="45.11912" lon="1.29502">
        <ele>217.9</ele>
        <time>2023-10-28T14:59:19Z</time>
      </trkpt>
      <trkpt lat="45.11914" lon="1.29504">
        <ele>217.7</ele>
        <time>2023-10-28T14:59:20Z</time>
      </trkpt>
      <trkpt lat="45.11916" lon="1.29506">
        <ele>217.5</ele>
        <time>2023-10-28T14:59:21Z</time>
      </trkpt>
      <trkpt lat="45.11918" lon="1.29509">
        <ele>217.2</ele>
        <time>2023-10-28T14:59:22Z</time>
      </trkpt>
      <trkpt lat="45.1192" lon="1.29511">
        <ele>217</ele>
        <time>2023-10-28T14:59:23Z</time>
      </trkpt>
      <trkpt lat="45.11922" lon="1.29513">
        <ele>216.8</ele>
        <time>2023-10-28T14:59:24Z</time>
      </trkpt>
      <trkpt lat="45.11924" lon="1.29516">
        <ele>216.5</ele>
        <time>2023-10-28T14:59:25Z</time>
      </trkpt>
      <trkpt lat="45.11926" lon="1.29518">
        <ele>216.3</ele>
        <time>2023-10-28T14:59:26Z</time>
      </trkpt>
      <trkpt lat="45.11928" lon="1.2952">
        <ele>216</ele>
        <time>2023-10-28T14:59:27Z</time>
      </trkpt>
      <trkpt lat="45.1193" lon="1.29523">
        <ele>215.8</ele>
        <time>2023-10-28T14:59:28Z</time>
      </trkpt>
      <trkpt lat="45.11932" lon="1.29525">
        <ele>215.5</ele>
        <time>2023-10-28T14:59:29Z</time>
      </trkpt>
      <trkpt lat="45.11934" lon="1.29527">
        <ele>215.3</ele>
        <time>2023-10-28T14:59:30Z</time>
      </trkpt>
      <trkpt lat="45.11937" lon="1.2953">
        <ele>215</ele>
        <time>2023-10-28T14:59:31Z</time>
      </trkpt>
      <trkpt lat="45.11939" lon="1.29532">
        <ele>214.8</ele>
        <time>2023-10-28T14:59:32Z</time>
      </trkpt>
      <trkpt lat="45.11941" lon="1.29535">
        <ele>214.5</ele>
        <time>2023-10-28T14:59:33Z</time>
      </trkpt>
      <trkpt lat="45.11943" lon="1.29537">
        <ele>214.2</ele>
        <time>2023-10-28T14:59:34Z</time>
      </trkpt>
      <trkpt lat="45.11945" lon="1.2954">
        <ele>214</ele>
        <time>2023-10-28T14:59:35Z</time>
      </trkpt>
      <trkpt lat="45.11947" lon="1.29542">
        <ele>213.7</ele>
        <time>2023-10-28T14:59:36Z</time>
      </trkpt>
      <trkpt lat="45.11949" lon="1.29545">
        <ele>213.5</ele>
        <time>2023-10-28T14:59:37Z</time>
      </trkpt>
      <trkpt lat="45.11951" lon="1.29548">
        <ele>213.2</ele>
        <time>2023-10-28T14:59:38Z</time>
      </trkpt>
      <trkpt lat="45.11953" lon="1.2955">
        <ele>212.9</ele>
        <time>2023-10-28T14:59:39Z</time>
      </trkpt>
      <trkpt lat="45.11955" lon="1.29553">
        <ele>212.6</ele>
        <time>2023-10-28T14:59:40Z</time>
      </trkpt>
      <trkpt lat="45.11958" lon="1.29556">
        <ele>212.3</ele>
        <time>2023-10-28T14:59:41Z</time>
      </trkpt>
      <trkpt lat="45.11959" lon="1.29559">
        <ele>212.1</ele>
        <time>2023-10-28T14:59:42Z</time>
      </trkpt>
      <trkpt lat="45.11961" lon="1.29562">
        <ele>211.8</ele>
        <time>2023-10-28T14:59:43Z</time>
      </trkpt>
      <trkpt lat="45.11963" lon="1.29565">
        <ele>211.5</ele>
        <time>2023-10-28T14:59:44Z</time>
      </trkpt>
      <trkpt lat="45.11964" lon="1.29568">
        <ele>211.2</ele>
        <time>2023-10-28T14:59:45Z</time>
      </trkpt>
      <trkpt lat="45.11966" lon="1.29571">
        <ele>210.9</ele>
        <time>2023-10-28T14:59:46Z</time>
      </trkpt>
      <trkpt lat="45.11968" lon="1.29575">
        <ele>210.6</ele>
        <time>2023-10-28T14:59:47Z</time>
      </trkpt>
      <trkpt lat="45.11969" lon="1.29578">
        <ele>210.3</ele>
        <time>2023-10-28T14:59:48Z</time>
      </trkpt>
      <trkpt lat="45.1197" lon="1.29582">
        <ele>209.9</ele>
        <time>2023-10-28T14:59:49Z</time>
      </trkpt>
      <trkpt lat="45.11971" lon="1.29585">
        <ele>209.6</ele>
        <time>2023-10-28T14:59:50Z</time>
      </trkpt>
      <trkpt lat="45.11972" lon="1.29589">
        <ele>209.3</ele>
        <time>2023-10-28T14:59:51Z</time>
      </trkpt>
      <trkpt lat="45.11974" lon="1.29592">
        <ele>209</ele>
        <time>2023-10-28T14:59:52Z</time>
      </trkpt>
      <trkpt lat="45.11975" lon="1.29596">
        <ele>208.7</ele>
        <time>2023-10-28T14:59:53Z</time>
      </trkpt>
      <trkpt lat="45.11976" lon="1.29599">
        <ele>208.4</ele>
        <time>2023-10-28T14:59:54Z</time>
      </trkpt>
      <trkpt lat="45.11977" lon="1.29603">
        <ele>208.1</ele>
        <time>2023-10-28T14:59:55Z</time>
      </trkpt>
      <trkpt lat="45.11979" lon="1.29606">
        <ele>207.7</ele>
        <time>2023-10-28T14:59:56Z</time>
      </trkpt>
      <trkpt lat="45.1198" lon="1.2961">
        <ele>207.4</ele>
        <time>2023-10-28T14:59:57Z</time>
      </trkpt>
      <trkpt lat="45.11981" lon="1.29613">
        <ele>207.1</ele>
        <time>2023-10-28T14:59:58Z</time>
      </trkpt>
      <trkpt lat="45.11982" lon="1.29616">
        <ele>206.8</ele>
        <time>2023-10-28T14:59:59Z</time>
      </trkpt>
      <trkpt lat="45.11984" lon="1.29619">
        <ele>206.4</ele>
        <time>2023-10-28T15:00:00Z</time>
      </trkpt>
      <trkpt lat="45.11985" lon="1.29623">
        <ele>206.1</ele>
        <time>2023-10-28T15:00:01Z</time>
      </trkpt>
      <trkpt lat="45.11987" lon="1.29626">
        <ele>205.8</ele>
        <time>2023-10-28T15:00:02Z</time>
      </trkpt>
      <trkpt lat="45.11988" lon="1.29629">
        <ele>205.5</ele>
        <time>2023-10-28T15:00:03Z</time>
      </trkpt>
      <trkpt lat="45.1199" lon="1.29632">
        <ele>205.2</ele>
        <time>2023-10-28T15:00:04Z</time>
      </trkpt>
      <trkpt lat="45.11992" lon="1.29634">
        <ele>204.9</ele>
        <time>2023-10-28T15:00:05Z</time>
      </trkpt>
      <trkpt lat="45.11994" lon="1.29637">
        <ele>204.6</ele>
        <time>2023-10-28T15:00:06Z</time>
      </trkpt>
      <trkpt lat="45.11996" lon="1.29639">
        <ele>204.3</ele>
        <time>2023-10-28T15:00:07Z</time>
      </trkpt>
      <trkpt lat="45.11998" lon="1.29641">
        <ele>204</ele>
        <time>2023-10-28T15:00:08Z</time>
      </trkpt>
      <trkpt lat="45.12" lon="1.29643">
        <ele>203.7</ele>
        <time>2023-10-28T15:00:09Z</time>
      </trkpt>
      <trkpt lat="45.12002" lon="1.29645">
        <ele>203.5</ele>
        <time>2023-10-28T15:00:10Z</time>
      </trkpt>
      <trkpt lat="45.12005" lon="1.29647">
        <ele>203.2</ele>
        <time>2023-10-28T15:00:11Z</time>
      </trkpt>
      <trkpt lat="45.12007" lon="1.29649">
        <ele>202.9</ele>
        <time>2023-10-28T15:00:12Z</time>
      </trkpt>
      <trkpt lat="45.12009" lon="1.29651">
        <ele>202.6</ele>
        <time>2023-10-28T15:00:13Z</time>
      </trkpt>
      <trkpt lat="45.12011" lon="1.29653">
        <ele>202.3</ele>
        <time>2023-10-28T15:00:14Z</time>
      </trkpt>
      <trkpt lat="45.12013" lon="1.29655">
        <ele>202.1</ele>
        <time>2023-10-28T15:00:15Z</time>
      </trkpt>
      <trkpt lat="45.12016" lon="1.29657">
        <ele>201.8</ele>
        <time>2023-10-28T15:00:16Z</time>
      </trkpt>
      <trkpt lat="45.12018" lon="1.29659">
        <ele>201.5</ele>
        <time>2023-10-28T15:00:17Z</time>
      </trkpt>
      <trkpt lat="45.1202" lon="1.29661">
        <ele>201.2</ele>
        <time>2023-10-28T15:00:18Z</time>
      </trkpt>
      <trkpt lat="45.12023" lon="1.29663">
        <ele>200.9</ele>
        <time>2023-10-28T15:00:19Z</time>
      </trkpt>
      <trkpt lat="45.12025" lon="1.29664">
        <ele>200.6</ele>
        <time>2023-10-28T15:00:20Z</time>
      </trkpt>
      <trkpt lat="45.12027" lon="1.29666">
        <ele>200.4</ele>
        <time>2023-10-28T15:00:21Z</time>
      </trkpt>
      <trkpt lat="45.1203" lon="1.29668">
        <ele>200.1</ele>
        <time>2023-10-28T15:00:22Z</time>
      </trkpt>
      <trkpt lat="45.12032" lon="1.2967">
        <ele>199.8</ele>
        <time>2023-10-28T15:00:23Z</time>
      </trkpt>
      <trkpt lat="45.12034" lon="1.29671">
        <ele>199.6</ele>
        <time>2023-10-28T15:00:24Z</time>
      </trkpt>
      <trkpt lat="45.12036" lon="1.29673">
        <ele>199.3</ele>
        <time>2023-10-28T15:00:25Z</time>
      </trkpt>
      <trkpt lat="45.12038" lon="1.29675">
        <ele>199.1</ele>
        <time>2023-10-28T15:00:26Z</time>
      </trkpt>
      <trkpt lat="45.1204" lon="1.29677">
        <ele>198.8</ele>
        <time>2023-10-28T15:00:27Z</time>
      </trkpt>
      <trkpt lat="45.12043" lon="1.29678">
        <ele>198.5</ele>
        <time>2023-10-28T15:00:28Z</time>
      </trkpt>
      <trkpt lat="45.12045" lon="1.2968">
        <ele>198.3</ele>
        <time>2023-10-28T15:00:29Z</time>
      </trkpt>
      <trkpt lat="45.12047" lon="1.29682">
        <ele>198.1</ele>
        <time>2023-10-28T15:00:30Z</time>
      </trkpt>
      <trkpt lat="45.12049" lon="1.29684">
        <ele>197.8</ele>
        <time>2023-10-28T15:00:31Z</time>
      </trkpt>
      <trkpt lat="45.12051" lon="1.29686">
        <ele>197.5</ele>
        <time>2023-10-28T15:00:32Z</time>
      </trkpt>
      <trkpt lat="45.12053" lon="1.29687">
        <ele>197.3</ele>
        <time>2023-10-28T15:00:33Z</time>
      </trkpt>
      <trkpt lat="45.12054" lon="1.2969">
        <ele>197</ele>
        <time>2023-10-28T15:00:34Z</time>
      </trkpt>
      <trkpt lat="45.12056" lon="1.29692">
        <ele>196.8</ele>
        <time>2023-10-28T15:00:35Z</time>
      </trkpt>
      <trkpt lat="45.12058" lon="1.29695">
        <ele>196.5</ele>
        <time>2023-10-28T15:00:36Z</time>
      </trkpt>
      <trkpt lat="45.12059" lon="1.29697">
        <ele>196.2</ele>
        <time>2023-10-28T15:00:37Z</time>
      </trkpt>
      <trkpt lat="45.12061" lon="1.297">
        <ele>196</ele>
        <time>2023-10-28T15:00:38Z</time>
      </trkpt>
      <trkpt lat="45.12063" lon="1.29702">
        <ele>195.7</ele>
        <time>2023-10-28T15:00:39Z</time>
      </trkpt>
      <trkpt lat="45.12065" lon="1.29704">
        <ele>195.4</ele>
        <time>2023-10-28T15:00:40Z</time>
      </trkpt>
      <trkpt lat="45.12067" lon="1.29707">
        <ele>195.1</ele>
        <time>2023-10-28T15:00:41Z</time>
      </trkpt>
      <trkpt lat="45.12069" lon="1.29709">
        <ele>194.8</ele>
        <time>2023-10-28T15:00:42Z</time>
      </trkpt>
      <trkpt lat="45.12071" lon="1.29711">
        <ele>194.4</ele>
        <time>2023-10-28T15:00:43Z</time>
      </trkpt>
      <trkpt lat="45.12074" lon="1.29714">
        <ele>194.1</ele>
        <time>2023-10-28T15:00:44Z</time>
      </trkpt>
      <trkpt lat="45.12076" lon="1.29716">
        <ele>193.8</ele>
        <time>2023-10-28T15:00:45Z</time>
      </trkpt>
      <trkpt lat="45.12079" lon="1.29719">
        <ele>193.4</ele>
        <time>2023-10-28T15:00:46Z</time>
      </trkpt>
      <trkpt lat="45.12081" lon="1.29721">
        <ele>193.1</ele>
        <time>2023-10-28T15:00:47Z</time>
      </trkpt>
      <trkpt lat="45.12083" lon="1.29724">
        <ele>192.8</ele>
        <time>2023-10-28T15:00:48Z</time>
      </trkpt>
      <trkpt lat="45.12085" lon="1.29726">
        <ele>192.5</ele>
        <time>2023-10-28T15:00:49Z</time>
      </trkpt>
      <trkpt lat="45.12087" lon="1.29729">
        <ele>192.2</ele>
        <time>2023-10-28T15:00:50Z</time>
      </trkpt>
      <trkpt lat="45.12089" lon="1.29732">
        <ele>191.9</ele>
        <time>2023-10-28T15:00:51Z</time>
      </trkpt>
      <trkpt lat="45.12091" lon="1.29734">
        <ele>191.6</ele>
        <time>2023-10-28T15:00:52Z</time>
      </trkpt>
      <trkpt lat="45.12093" lon="1.29737">
        <ele>191.3</ele>
        <time>2023-10-28T15:00:53Z</time>
      </trkpt>
      <trkpt lat="45.12095" lon="1.2974">
        <ele>191</ele>
        <time>2023-10-28T15:00:54Z</time>
      </trkpt>
      <trkpt lat="45.12096" lon="1.29743">
        <ele>190.7</ele>
        <time>2023-10-28T15:00:55Z</time>
      </trkpt>
      <trkpt lat="45.12098" lon="1.29746">
        <ele>190.4</ele>
        <time>2023-10-28T15:00:56Z</time>
      </trkpt>
      <trkpt lat="45.121" lon="1.29749">
        <ele>190.1</ele>
        <time>2023-10-28T15:00:57Z</time>
      </trkpt>
      <trkpt lat="45.12101" lon="1.29752">
        <ele>189.9</ele>
        <time>2023-10-28T15:00:58Z</time>
      </trkpt>
      <trkpt lat="45.12103" lon="1.29755">
        <ele>189.5</ele>
        <time>2023-10-28T15:00:59Z</time>
      </trkpt>
      <trkpt lat="45.12104" lon="1.29759">
        <ele>189.2</ele>
        <time>2023-10-28T15:01:00Z</time>
      </trkpt>
      <trkpt lat="45.12106" lon="1.29762">
        <ele>188.9</ele>
        <time>2023-10-28T15:01:01Z</time>
      </trkpt>
      <trkpt lat="45.12107" lon="1.29765">
        <ele>188.7</ele>
        <time>2023-10-28T15:01:02Z</time>
      </trkpt>
      <trkpt lat="45.12109" lon="1.29769">
        <ele>188.5</ele>
        <time>2023-10-28T15:01:03Z</time>
      </trkpt>
      <trkpt lat="45.1211" lon="1.29772">
        <ele>188.3</ele>
        <time>2023-10-28T15:01:04Z</time>
      </trkpt>
      <trkpt lat="45.12111" lon="1.29775">
        <ele>188.1</ele>
        <time>2023-10-28T15:01:05Z</time>
      </trkpt>
      <trkpt lat="45.12112" lon="1.29778">
        <ele>187.9</ele>
        <time>2023-10-28T15:01:06Z</time>
      </trkpt>
      <trkpt lat="45.12114" lon="1.2978">
        <ele>187.8</ele>
        <time>2023-10-28T15:01:07Z</time>
      </trkpt>
      <trkpt lat="45.12115" lon="1.29782">
        <ele>187.7</ele>
        <time>2023-10-28T15:01:08Z</time>
      </trkpt>
      <trkpt lat="45.12116" lon="1.29784">
        <ele>187.6</ele>
        <time>2023-10-28T15:01:09Z</time>
      </trkpt>
      <trkpt lat="45.12117" lon="1.29785">
        <ele>187.5</ele>
        <time>2023-10-28T15:01:10Z</time>
      </trkpt>
      <trkpt lat="45.12119" lon="1.29786">
        <ele>187.4</ele>
        <time>2023-10-28T15:01:11Z</time>
      </trkpt>
      <trkpt lat="45.12119" lon="1.29787">
        <ele>187.3</ele>
        <time>2023-10-28T15:01:12Z</time>
      </trkpt>
      <trkpt lat="45.1212" lon="1.29787">
        <ele>187.3</ele>
        <time>2023-10-28T15:01:13Z</time>
      </trkpt>
      <trkpt lat="45.1212" lon="1.29788">
        <ele>187.2</ele>
        <time>2023-10-28T15:01:14Z</time>
      </trkpt>
      <trkpt lat="45.1212" lon="1.29789">
        <ele>187.2</ele>
        <time>2023-10-28T15:01:15Z</time>
      </trkpt>
      <trkpt lat="45.1212" lon="1.29791">
        <ele>187</ele>
        <time>2023-10-28T15:01:16Z</time>
      </trkpt>
      <trkpt lat="45.1212" lon="1.29793">
        <ele>186.9</ele>
        <time>2023-10-28T15:01:17Z</time>
      </trkpt>
      <trkpt lat="45.1212" lon="1.29795">
        <ele>186.7</ele>
        <time>2023-10-28T15:01:18Z</time>
      </trkpt>
      <trkpt lat="45.1212" lon="1.29798">
        <ele>186.5</ele>
        <time>2023-10-28T15:01:19Z</time>
      </trkpt>
      <trkpt lat="45.1212" lon="1.29802">
        <ele>186.3</ele>
        <time>2023-10-28T15:01:20Z</time>
      </trkpt>
      <trkpt lat="45.12121" lon="1.29805">
        <ele>186</ele>
        <time>2023-10-28T15:01:21Z</time>
      </trkpt>
      <trkpt lat="45.12122" lon="1.29809">
        <ele>185.8</ele>
        <time>2023-10-28T15:01:22Z</time>
      </trkpt>
      <trkpt lat="45.12122" lon="1.29812">
        <ele>185.5</ele>
        <time>2023-10-28T15:01:23Z</time>
      </trkpt>
      <trkpt lat="45.12123" lon="1.29816">
        <ele>185.3</ele>
        <time>2023-10-28T15:01:24Z</time>
      </trkpt>
      <trkpt lat="45.12124" lon="1.29819">
        <ele>185.1</ele>
        <time>2023-10-28T15:01:25Z</time>
      </trkpt>
      <trkpt lat="45.12125" lon="1.29822">
        <ele>184.9</ele>
        <time>2023-10-28T15:01:26Z</time>
      </trkpt>
      <trkpt lat="45.12127" lon="1.29825">
        <ele>184.7</ele>
        <time>2023-10-28T15:01:27Z</time>
      </trkpt>
      <trkpt lat="45.12128" lon="1.29828">
        <ele>184.5</ele>
        <time>2023-10-28T15:01:28Z</time>
      </trkpt>
      <trkpt lat="45.12129" lon="1.29831">
        <ele>184.3</ele>
        <time>2023-10-28T15:01:29Z</time>
      </trkpt>
      <trkpt lat="45.1213" lon="1.29833">
        <ele>184.2</ele>
        <time>2023-10-28T15:01:30Z</time>
      </trkpt>
      <trkpt lat="45.12131" lon="1.29835">
        <ele>184</ele>
        <time>2023-10-28T15:01:31Z</time>
      </trkpt>
      <trkpt lat="45.12132" lon="1.29836">
        <ele>183.9</ele>
        <time>2023-10-28T15:01:32Z</time>
      </trkpt>
      <trkpt lat="45.12133" lon="1.29837">
        <ele>183.8</ele>
        <time>2023-10-28T15:01:33Z</time>
      </trkpt>
      <trkpt lat="45.12133" lon="1.29838">
        <ele>183.7</ele>
        <time>2023-10-28T15:01:34Z</time>
      </trkpt>
      <trkpt lat="45.12134" lon="1.29839">
        <ele>183.7</ele>
        <time>2023-10-28T15:01:35Z</time>
      </trkpt>
      <trkpt lat="45.12134" lon="1.2984">
        <ele>183.6</ele>
        <time>2023-10-28T15:01:36Z</time>
      </trkpt>
      <trkpt lat="45.12135" lon="1.29841">
        <ele>183.6</ele>
        <time>2023-10-28T15:01:37Z</time>
      </trkpt>
      <trkpt lat="45.12136" lon="1.29841">
        <ele>183.5</ele>
        <time>2023-10-28T15:01:38Z</time>
      </trkpt>
      <trkpt lat="45.12137" lon="1.29842">
        <ele>183.4</ele>
        <time>2023-10-28T15:01:39Z</time>
      </trkpt>
      <trkpt lat="45.12137" lon="1.29843">
        <ele>183.4</ele>
        <time>2023-10-28T15:01:40Z</time>
      </trkpt>
      <trkpt lat="45.12138" lon="1.29844">
        <ele>183.2</ele>
        <time>2023-10-28T15:01:41Z</time>
      </trkpt>
      <trkpt lat="45.1214" lon="1.29845">
        <ele>183.1</ele>
        <time>2023-10-28T15:01:42Z</time>
      </trkpt>
      <trkpt lat="45.12141" lon="1.29847">
        <ele>183</ele>
        <time>2023-10-28T15:01:43Z</time>
      </trkpt>
      <trkpt lat="45.12143" lon="1.29849">
        <ele>182.8</ele>
        <time>2023-10-28T15:01:44Z</time>
      </trkpt>
      <trkpt lat="45.12146" lon="1.2985">
        <ele>182.6</ele>
        <time>2023-10-28T15:01:45Z</time>
      </trkpt>
      <trkpt lat="45.12148" lon="1.29852">
        <ele>182.4</ele>
        <time>2023-10-28T15:01:46Z</time>
      </trkpt>
      <trkpt lat="45.1215" lon="1.29854">
        <ele>182.1</ele>
        <time>2023-10-28T15:01:47Z</time>
      </trkpt>
      <trkpt lat="45.12153" lon="1.29855">
        <ele>181.9</ele>
        <time>2023-10-28T15:01:48Z</time>
      </trkpt>
      <trkpt lat="45.12155" lon="1.29857">
        <ele>181.7</ele>
        <time>2023-10-28T15:01:49Z</time>
      </trkpt>
      <trkpt lat="45.12158" lon="1.29858">
        <ele>181.5</ele>
        <time>2023-10-28T15:01:50Z</time>
      </trkpt>
      <trkpt lat="45.12161" lon="1.29859">
        <ele>181.2</ele>
        <time>2023-10-28T15:01:51Z</time>
      </trkpt>
      <trkpt lat="45.12163" lon="1.2986">
        <ele>181</ele>
        <time>2023-10-28T15:01:52Z</time>
      </trkpt>
      <trkpt lat="45.12166" lon="1.29861">
        <ele>180.7</ele>
        <time>2023-10-28T15:01:53Z</time>
      </trkpt>
      <trkpt lat="45.12169" lon="1.29862">
        <ele>180.4</ele>
        <time>2023-10-28T15:01:54Z</time>
      </trkpt>
      <trkpt lat="45.12172" lon="1.29862">
        <ele>180.2</ele>
        <time>2023-10-28T15:01:55Z</time>
      </trkpt>
      <trkpt lat="45.12175" lon="1.29863">
        <ele>180</ele>
        <time>2023-10-28T15:01:56Z</time>
      </trkpt>
      <trkpt lat="45.12177" lon="1.29863">
        <ele>179.7</ele>
        <time>2023-10-28T15:01:57Z</time>
      </trkpt>
      <trkpt lat="45.1218" lon="1.29863">
        <ele>179.5</ele>
        <time>2023-10-28T15:01:58Z</time>
      </trkpt>
      <trkpt lat="45.12183" lon="1.29863">
        <ele>179.3</ele>
        <time>2023-10-28T15:01:59Z</time>
      </trkpt>
      <trkpt lat="45.12185" lon="1.29863">
        <ele>179</ele>
        <time>2023-10-28T15:02:00Z</time>
      </trkpt>
      <trkpt lat="45.12188" lon="1.29862">
        <ele>178.8</ele>
        <time>2023-10-28T15:02:01Z</time>
      </trkpt>
      <trkpt lat="45.12191" lon="1.29862">
        <ele>178.6</ele>
        <time>2023-10-28T15:02:02Z</time>
      </trkpt>
      <trkpt lat="45.12194" lon="1.29862">
        <ele>178.3</ele>
        <time>2023-10-28T15:02:03Z</time>
      </trkpt>
      <trkpt lat="45.12197" lon="1.29863">
        <ele>178.1</ele>
        <time>2023-10-28T15:02:04Z</time>
      </trkpt>
      <trkpt lat="45.122" lon="1.29863">
        <ele>177.8</ele>
        <time>2023-10-28T15:02:05Z</time>
      </trkpt>
      <trkpt lat="45.12203" lon="1.29863">
        <ele>177.6</ele>
        <time>2023-10-28T15:02:06Z</time>
      </trkpt>
      <trkpt lat="45.12206" lon="1.29863">
        <ele>177.3</ele>
        <time>2023-10-28T15:02:07Z</time>
      </trkpt>
      <trkpt lat="45.12209" lon="1.29864">
        <ele>177.1</ele>
        <time>2023-10-28T15:02:08Z</time>
      </trkpt>
      <trkpt lat="45.12211" lon="1.29864">
        <ele>176.9</ele>
        <time>2023-10-28T15:02:09Z</time>
      </trkpt>
      <trkpt lat="45.12214" lon="1.29865">
        <ele>176.6</ele>
        <time>2023-10-28T15:02:10Z</time>
      </trkpt>
      <trkpt lat="45.12217" lon="1.29865">
        <ele>176.4</ele>
        <time>2023-10-28T15:02:11Z</time>
      </trkpt>
      <trkpt lat="45.1222" lon="1.29866">
        <ele>176.1</ele>
        <time>2023-10-28T15:02:12Z</time>
      </trkpt>
      <trkpt lat="45.12222" lon="1.29866">
        <ele>175.9</ele>
        <time>2023-10-28T15:02:13Z</time>
      </trkpt>
      <trkpt lat="45.12225" lon="1.29867">
        <ele>175.7</ele>
        <time>2023-10-28T15:02:14Z</time>
      </trkpt>
      <trkpt lat="45.12228" lon="1.29867">
        <ele>175.4</ele>
        <time>2023-10-28T15:02:15Z</time>
      </trkpt>
      <trkpt lat="45.12231" lon="1.29867">
        <ele>175.2</ele>
        <time>2023-10-28T15:02:16Z</time>
      </trkpt>
      <trkpt lat="45.12233" lon="1.29867">
        <ele>175</ele>
        <time>2023-10-28T15:02:17Z</time>
      </trkpt>
      <trkpt lat="45.12236" lon="1.29866">
        <ele>174.7</ele>
        <time>2023-10-28T15:02:18Z</time>
      </trkpt>
      <trkpt lat="45.1224" lon="1.29866">
        <ele>174.5</ele>
        <time>2023-10-28T15:02:19Z</time>
      </trkpt>
      <trkpt lat="45.12242" lon="1.29867">
        <ele>174.3</ele>
        <time>2023-10-28T15:02:20Z</time>
      </trkpt>
      <trkpt lat="45.12245" lon="1.29867">
        <ele>174</ele>
        <time>2023-10-28T15:02:21Z</time>
      </trkpt>
      <trkpt lat="45.12248" lon="1.29868">
        <ele>173.7</ele>
        <time>2023-10-28T15:02:22Z</time>
      </trkpt>
      <trkpt lat="45.12251" lon="1.29869">
        <ele>173.5</ele>
        <time>2023-10-28T15:02:23Z</time>
      </trkpt>
      <trkpt lat="45.12253" lon="1.2987">
        <ele>173.2</ele>
        <time>2023-10-28T15:02:24Z</time>
      </trkpt>
      <trkpt lat="45.12256" lon="1.29871">
        <ele>172.9</ele>
        <time>2023-10-28T15:02:25Z</time>
      </trkpt>
      <trkpt lat="45.12259" lon="1.29872">
        <ele>172.6</ele>
        <time>2023-10-28T15:02:26Z</time>
      </trkpt>
      <trkpt lat="45.12262" lon="1.29873">
        <ele>172.3</ele>
        <time>2023-10-28T15:02:27Z</time>
      </trkpt>
      <trkpt lat="45.12264" lon="1.29874">
        <ele>172</ele>
        <time>2023-10-28T15:02:28Z</time>
      </trkpt>
      <trkpt lat="45.12267" lon="1.29876">
        <ele>171.7</ele>
        <time>2023-10-28T15:02:29Z</time>
      </trkpt>
      <trkpt lat="45.1227" lon="1.29876">
        <ele>171.4</ele>
        <time>2023-10-28T15:02:30Z</time>
      </trkpt>
      <trkpt lat="45.12273" lon="1.29877">
        <ele>171.1</ele>
        <time>2023-10-28T15:02:31Z</time>
      </trkpt>
      <trkpt lat="45.12275" lon="1.29878">
        <ele>170.8</ele>
        <time>2023-10-28T15:02:32Z</time>
      </trkpt>
      <trkpt lat="45.12278" lon="1.29879">
        <ele>170.5</ele>
        <time>2023-10-28T15:02:33Z</time>
      </trkpt>
      <trkpt lat="45.12281" lon="1.2988">
        <ele>170.2</ele>
        <time>2023-10-28T15:02:34Z</time>
      </trkpt>
      <trkpt lat="45.12284" lon="1.29881">
        <ele>169.8</ele>
        <time>2023-10-28T15:02:35Z</time>
      </trkpt>
      <trkpt lat="45.12287" lon="1.29882">
        <ele>169.5</ele>
        <time>2023-10-28T15:02:36Z</time>
      </trkpt>
      <trkpt lat="45.12289" lon="1.29883">
        <ele>169.2</ele>
        <time>2023-10-28T15:02:37Z</time>
      </trkpt>
      <trkpt lat="45.12292" lon="1.29885">
        <ele>168.9</ele>
        <time>2023-10-28T15:02:38Z</time>
      </trkpt>
      <trkpt lat="45.12295" lon="1.29886">
        <ele>168.5</ele>
        <time>2023-10-28T15:02:39Z</time>
      </trkpt>
      <trkpt lat="45.12298" lon="1.29887">
        <ele>168.2</ele>
        <time>2023-10-28T15:02:40Z</time>
      </trkpt>
      <trkpt lat="45.12301" lon="1.29888">
        <ele>167.8</ele>
        <time>2023-10-28T15:02:41Z</time>
      </trkpt>
      <trkpt lat="45.12304" lon="1.29889">
        <ele>167.5</ele>
        <time>2023-10-28T15:02:42Z</time>
      </trkpt>
      <trkpt lat="45.12307" lon="1.29889">
        <ele>167.1</ele>
        <time>2023-10-28T15:02:43Z</time>
      </trkpt>
      <trkpt lat="45.12309" lon="1.2989">
        <ele>166.8</ele>
        <time>2023-10-28T15:02:44Z</time>
      </trkpt>
      <trkpt lat="45.12312" lon="1.2989">
        <ele>166.5</ele>
        <time>2023-10-28T15:02:45Z</time>
      </trkpt>
      <trkpt lat="45.12315" lon="1.2989">
        <ele>166.1</ele>
        <time>2023-10-28T15:02:46Z</time>
      </trkpt>
      <trkpt lat="45.12318" lon="1.2989">
        <ele>165.8</ele>
        <time>2023-10-28T15:02:47Z</time>
      </trkpt>
      <trkpt lat="45.12321" lon="1.29891">
        <ele>165.5</ele>
        <time>2023-10-28T15:02:48Z</time>
      </trkpt>
      <trkpt lat="45.12324" lon="1.29891">
        <ele>165.1</ele>
        <time>2023-10-28T15:02:49Z</time>
      </trkpt>
      <trkpt lat="45.12327" lon="1.29892">
        <ele>164.8</ele>
        <time>2023-10-28T15:02:50Z</time>
      </trkpt>
      <trkpt lat="45.1233" lon="1.29892">
        <ele>164.4</ele>
        <time>2023-10-28T15:02:51Z</time>
      </trkpt>
      <trkpt lat="45.12333" lon="1.29893">
        <ele>164.1</ele>
        <time>2023-10-28T15:02:52Z</time>
      </trkpt>
      <trkpt lat="45.12336" lon="1.29893">
        <ele>163.8</ele>
        <time>2023-10-28T15:02:53Z</time>
      </trkpt>
      <trkpt lat="45.12339" lon="1.29894">
        <ele>163.5</ele>
        <time>2023-10-28T15:02:54Z</time>
      </trkpt>
      <trkpt lat="45.12342" lon="1.29894">
        <ele>163.1</ele>
        <time>2023-10-28T15:02:55Z</time>
      </trkpt>
      <trkpt lat="45.12344" lon="1.29894">
        <ele>162.8</ele>
        <time>2023-10-28T15:02:56Z</time>
      </trkpt>
      <trkpt lat="45.12347" lon="1.29894">
        <ele>162.4</ele>
        <time>2023-10-28T15:02:57Z</time>
      </trkpt>
      <trkpt lat="45.1235" lon="1.29894">
        <ele>162.1</ele>
        <time>2023-10-28T15:02:58Z</time>
      </trkpt>
      <trkpt lat="45.12353" lon="1.29894">
        <ele>161.7</ele>
        <time>2023-10-28T15:02:59Z</time>
      </trkpt>
      <trkpt lat="45.12356" lon="1.29894">
        <ele>161.4</ele>
        <time>2023-10-28T15:03:00Z</time>
      </trkpt>
      <trkpt lat="45.12359" lon="1.29894">
        <ele>161</ele>
        <time>2023-10-28T15:03:01Z</time>
      </trkpt>
      <trkpt lat="45.12362" lon="1.29893">
        <ele>160.6</ele>
        <time>2023-10-28T15:03:02Z</time>
      </trkpt>
      <trkpt lat="45.12365" lon="1.29893">
        <ele>160.3</ele>
        <time>2023-10-28T15:03:03Z</time>
      </trkpt>
      <trkpt lat="45.12368" lon="1.29892">
        <ele>159.9</ele>
        <time>2023-10-28T15:03:04Z</time>
      </trkpt>
      <trkpt lat="45.1237" lon="1.29891">
        <ele>159.6</ele>
        <time>2023-10-28T15:03:05Z</time>
      </trkpt>
      <trkpt lat="45.12373" lon="1.29891">
        <ele>159.2</ele>
        <time>2023-10-28T15:03:06Z</time>
      </trkpt>
      <trkpt lat="45.12376" lon="1.2989">
        <ele>158.9</ele>
        <time>2023-10-28T15:03:07Z</time>
      </trkpt>
      <trkpt lat="45.12378" lon="1.29889">
        <ele>158.5</ele>
        <time>2023-10-28T15:03:08Z</time>
      </trkpt>
      <trkpt lat="45.12381" lon="1.29888">
        <ele>158.2</ele>
        <time>2023-10-28T15:03:09Z</time>
      </trkpt>
      <trkpt lat="45.12384" lon="1.29887">
        <ele>157.8</ele>
        <time>2023-10-28T15:03:10Z</time>
      </trkpt>
      <trkpt lat="45.12386" lon="1.29885">
        <ele>157.5</ele>
        <time>2023-10-28T15:03:11Z</time>
      </trkpt>
      <trkpt lat="45.12389" lon="1.29884">
        <ele>157.2</ele>
        <time>2023-10-28T15:03:12Z</time>
      </trkpt>
      <trkpt lat="45.12391" lon="1.29883">
        <ele>156.8</ele>
        <time>2023-10-28T15:03:13Z</time>
      </trkpt>
      <trkpt lat="45.12394" lon="1.29881">
        <ele>156.5</ele>
        <time>2023-10-28T15:03:14Z</time>
      </trkpt>
      <trkpt lat="45.12396" lon="1.2988">
        <ele>156.2</ele>
        <time>2023-10-28T15:03:15Z</time>
      </trkpt>
      <trkpt lat="45.12399" lon="1.29878">
        <ele>155.8</ele>
        <time>2023-10-28T15:03:16Z</time>
      </trkpt>
      <trkpt lat="45.12402" lon="1.29877">
        <ele>155.5</ele>
        <time>2023-10-28T15:03:17Z</time>
      </trkpt>
      <trkpt lat="45.12404" lon="1.29875">
        <ele>155.1</ele>
        <time>2023-10-28T15:03:18Z</time>
      </trkpt>
      <trkpt lat="45.12407" lon="1.29874">
        <ele>154.8</ele>
        <time>2023-10-28T15:03:19Z</time>
      </trkpt>
      <trkpt lat="45.12409" lon="1.29872">
        <ele>154.5</ele>
        <time>2023-10-28T15:03:20Z</time>
      </trkpt>
      <trkpt lat="45.12412" lon="1.29871">
        <ele>154.1</ele>
        <time>2023-10-28T15:03:21Z</time>
      </trkpt>
      <trkpt lat="45.12415" lon="1.29869">
        <ele>153.8</ele>
        <time>2023-10-28T15:03:22Z</time>
      </trkpt>
      <trkpt lat="45.12417" lon="1.29868">
        <ele>153.5</ele>
        <time>2023-10-28T15:03:23Z</time>
      </trkpt>
      <trkpt lat="45.1242" lon="1.29866">
        <ele>153.2</ele>
        <time>2023-10-28T15:03:24Z</time>
      </trkpt>
      <trkpt lat="45.12422" lon="1.29865">
        <ele>152.9</ele>
        <time>2023-10-28T15:03:25Z</time>
      </trkpt>
      <trkpt lat="45.12425" lon="1.29863">
        <ele>152.5</ele>
        <time>2023-10-28T15:03:26Z</time>
      </trkpt>
      <trkpt lat="45.12428" lon="1.29862">
        <ele>152.2</ele>
        <time>2023-10-28T15:03:27Z</time>
      </trkpt>
      <trkpt lat="45.1243" lon="1.29861">
        <ele>151.9</ele>
        <time>2023-10-28T15:03:28Z</time>
      </trkpt>
      <trkpt lat="45.12433" lon="1.2986">
        <ele>151.6</ele>
        <time>2023-10-28T15:03:29Z</time>
      </trkpt>
      <trkpt lat="45.12436" lon="1.29859">
        <ele>151.3</ele>
        <time>2023-10-28T15:03:30Z</time>
      </trkpt>
      <trkpt lat="45.12439" lon="1.29859">
        <ele>150.9</ele>
        <time>2023-10-28T15:03:31Z</time>
      </trkpt>
      <trkpt lat="45.12441" lon="1.29858">
        <ele>150.6</ele>
        <time>2023-10-28T15:03:32Z</time>
      </trkpt>
      <trkpt lat="45.12444" lon="1.29858">
        <ele>150.2</ele>
        <time>2023-10-28T15:03:33Z</time>
      </trkpt>
      <trkpt lat="45.12447" lon="1.29858">
        <ele>149.9</ele>
        <time>2023-10-28T15:03:34Z</time>
      </trkpt>
      <trkpt lat="45.1245" lon="1.29859">
        <ele>149.5</ele>
        <time>2023-10-28T15:03:35Z</time>
      </trkpt>
      <trkpt lat="45.12453" lon="1.29859">
        <ele>149.2</ele>
        <time>2023-10-28T15:03:36Z</time>
      </trkpt>
      <trkpt lat="45.12455" lon="1.29859">
        <ele>148.8</ele>
        <time>2023-10-28T15:03:37Z</time>
      </trkpt>
      <trkpt lat="45.12458" lon="1.2986">
        <ele>148.6</ele>
        <time>2023-10-28T15:03:38Z</time>
      </trkpt>
      <trkpt lat="45.1246" lon="1.2986">
        <ele>148.3</ele>
        <time>2023-10-28T15:03:39Z</time>
      </trkpt>
      <trkpt lat="45.12461" lon="1.29861">
        <ele>148.1</ele>
        <time>2023-10-28T15:03:40Z</time>
      </trkpt>
      <trkpt lat="45.12463" lon="1.29861">
        <ele>147.9</ele>
        <time>2023-10-28T15:03:41Z</time>
      </trkpt>
      <trkpt lat="45.12464" lon="1.29861">
        <ele>147.8</ele>
        <time>2023-10-28T15:03:42Z</time>
      </trkpt>
      <trkpt lat="45.12465" lon="1.29861">
        <ele>147.6</ele>
        <time>2023-10-28T15:03:43Z</time>
      </trkpt>
      <trkpt lat="45.12467" lon="1.29862">
        <ele>147.4</ele>
        <time>2023-10-28T15:03:44Z</time>
      </trkpt>
      <trkpt lat="45.1247" lon="1.29863">
        <ele>147.1</ele>
        <time>2023-10-28T15:03:45Z</time>
      </trkpt>
      <trkpt lat="45.12472" lon="1.29864">
        <ele>146.8</ele>
        <time>2023-10-28T15:03:46Z</time>
      </trkpt>
      <trkpt lat="45.12474" lon="1.29865">
        <ele>146.4</ele>
        <time>2023-10-28T15:03:47Z</time>
      </trkpt>
      <trkpt lat="45.12477" lon="1.29866">
        <ele>146.1</ele>
        <time>2023-10-28T15:03:48Z</time>
      </trkpt>
      <trkpt lat="45.1248" lon="1.29868">
        <ele>145.6</ele>
        <time>2023-10-28T15:03:49Z</time>
      </trkpt>
      <trkpt lat="45.12483" lon="1.2987">
        <ele>145.3</ele>
        <time>2023-10-28T15:03:50Z</time>
      </trkpt>
      <trkpt lat="45.12486" lon="1.29872">
        <ele>144.9</ele>
        <time>2023-10-28T15:03:51Z</time>
      </trkpt>
      <trkpt lat="45.12489" lon="1.29874">
        <ele>144.5</ele>
        <time>2023-10-28T15:03:52Z</time>
      </trkpt>
      <trkpt lat="45.12491" lon="1.29876">
        <ele>144.1</ele>
        <time>2023-10-28T15:03:53Z</time>
      </trkpt>
      <trkpt lat="45.12494" lon="1.29878">
        <ele>143.7</ele>
        <time>2023-10-28T15:03:54Z</time>
      </trkpt>
      <trkpt lat="45.12497" lon="1.29881">
        <ele>143.3</ele>
        <time>2023-10-28T15:03:55Z</time>
      </trkpt>
      <trkpt lat="45.12499" lon="1.29883">
        <ele>142.9</ele>
        <time>2023-10-28T15:03:56Z</time>
      </trkpt>
      <trkpt lat="45.12502" lon="1.29886">
        <ele>142.6</ele>
        <time>2023-10-28T15:03:57Z</time>
      </trkpt>
      <trkpt lat="45.12504" lon="1.29888">
        <ele>142.2</ele>
        <time>2023-10-28T15:03:58Z</time>
      </trkpt>
      <trkpt lat="45.12507" lon="1.29891">
        <ele>141.8</ele>
        <time>2023-10-28T15:03:59Z</time>
      </trkpt>
      <trkpt lat="45.1251" lon="1.29894">
        <ele>141.4</ele>
        <time>2023-10-28T15:04:00Z</time>
      </trkpt>
      <trkpt lat="45.12512" lon="1.29897">
        <ele>141</ele>
        <time>2023-10-28T15:04:01Z</time>
      </trkpt>
      <trkpt lat="45.12515" lon="1.29901">
        <ele>140.6</ele>
        <time>2023-10-28T15:04:02Z</time>
      </trkpt>
      <trkpt lat="45.12517" lon="1.29904">
        <ele>140.2</ele>
        <time>2023-10-28T15:04:03Z</time>
      </trkpt>
      <trkpt lat="45.12519" lon="1.29907">
        <ele>139.8</ele>
        <time>2023-10-28T15:04:04Z</time>
      </trkpt>
      <trkpt lat="45.12521" lon="1.29911">
        <ele>139.4</ele>
        <time>2023-10-28T15:04:05Z</time>
      </trkpt>
      <trkpt lat="45.12523" lon="1.29914">
        <ele>139.1</ele>
        <time>2023-10-28T15:04:06Z</time>
      </trkpt>
      <trkpt lat="45.12524" lon="1.29918">
        <ele>138.7</ele>
        <time>2023-10-28T15:04:07Z</time>
      </trkpt>
      <trkpt lat="45.12526" lon="1.29922">
        <ele>138.3</ele>
        <time>2023-10-28T15:04:08Z</time>
      </trkpt>
      <trkpt lat="45.12528" lon="1.29925">
        <ele>138</ele>
        <time>2023-10-28T15:04:09Z</time>
      </trkpt>
      <trkpt lat="45.12529" lon="1.29929">
        <ele>137.6</ele>
        <time>2023-10-28T15:04:10Z</time>
      </trkpt>
      <trkpt lat="45.1253" lon="1.29933">
        <ele>137.3</ele>
        <time>2023-10-28T15:04:11Z</time>
      </trkpt>
      <trkpt lat="45.12532" lon="1.29937">
        <ele>136.9</ele>
        <time>2023-10-28T15:04:12Z</time>
      </trkpt>
      <trkpt lat="45.12532" lon="1.29941">
        <ele>136.5</ele>
        <time>2023-10-28T15:04:13Z</time>
      </trkpt>
      <trkpt lat="45.12534" lon="1.29945">
        <ele>136.2</ele>
        <time>2023-10-28T15:04:14Z</time>
      </trkpt>
      <trkpt lat="45.12534" lon="1.2995">
        <ele>135.8</ele>
        <time>2023-10-28T15:04:15Z</time>
      </trkpt>
      <trkpt lat="45.12536" lon="1.29954">
        <ele>135.4</ele>
        <time>2023-10-28T15:04:16Z</time>
      </trkpt>
      <trkpt lat="45.12537" lon="1.29959">
        <ele>135</ele>
        <time>2023-10-28T15:04:17Z</time>
      </trkpt>
      <trkpt lat="45.12538" lon="1.29963">
        <ele>134.6</ele>
        <time>2023-10-28T15:04:18Z</time>
      </trkpt>
      <trkpt lat="45.12539" lon="1.29967">
        <ele>134.2</ele>
        <time>2023-10-28T15:04:19Z</time>
      </trkpt>
      <trkpt lat="45.1254" lon="1.29972">
        <ele>133.7</ele>
        <time>2023-10-28T15:04:20Z</time>
      </trkpt>
      <trkpt lat="45.12541" lon="1.29976">
        <ele>133.3</ele>
        <time>2023-10-28T15:04:21Z</time>
      </trkpt>
      <trkpt lat="45.12542" lon="1.2998">
        <ele>132.9</ele>
        <time>2023-10-28T15:04:22Z</time>
      </trkpt>
      <trkpt lat="45.12544" lon="1.29984">
        <ele>132.5</ele>
        <time>2023-10-28T15:04:23Z</time>
      </trkpt>
      <trkpt lat="45.12544" lon="1.29989">
        <ele>132.1</ele>
        <time>2023-10-28T15:04:24Z</time>
      </trkpt>
      <trkpt lat="45.12545" lon="1.29993">
        <ele>131.7</ele>
        <time>2023-10-28T15:04:25Z</time>
      </trkpt>
      <trkpt lat="45.12547" lon="1.29997">
        <ele>131.3</ele>
        <time>2023-10-28T15:04:26Z</time>
      </trkpt>
      <trkpt lat="45.12548" lon="1.30001">
        <ele>130.9</ele>
        <time>2023-10-28T15:04:27Z</time>
      </trkpt>
      <trkpt lat="45.12549" lon="1.30006">
        <ele>130.5</ele>
        <time>2023-10-28T15:04:28Z</time>
      </trkpt>
      <trkpt lat="45.1255" lon="1.3001">
        <ele>130.1</ele>
        <time>2023-10-28T15:04:29Z</time>
      </trkpt>
      <trkpt lat="45.12552" lon="1.30014">
        <ele>129.7</ele>
        <time>2023-10-28T15:04:30Z</time>
      </trkpt>
      <trkpt lat="45.12553" lon="1.30018">
        <ele>129.3</ele>
        <time>2023-10-28T15:04:31Z</time>
      </trkpt>
      <trkpt lat="45.12554" lon="1.30023">
        <ele>128.9</ele>
        <time>2023-10-28T15:04:32Z</time>
      </trkpt>
      <trkpt lat="45.12555" lon="1.30027">
        <ele>128.4</ele>
        <time>2023-10-28T15:04:33Z</time>
      </trkpt>
      <trkpt lat="45.12557" lon="1.30031">
        <ele>128</ele>
        <time>2023-10-28T15:04:34Z</time>
      </trkpt>
      <trkpt lat="45.12558" lon="1.30034">
        <ele>127.6</ele>
        <time>2023-10-28T15:04:35Z</time>
      </trkpt>
      <trkpt lat="45.1256" lon="1.30038">
        <ele>127.2</ele>
        <time>2023-10-28T15:04:36Z</time>
      </trkpt>
      <trkpt lat="45.12561" lon="1.30042">
        <ele>126.9</ele>
        <time>2023-10-28T15:04:37Z</time>
      </trkpt>
      <trkpt lat="45.12563" lon="1.30045">
        <ele>126.5</ele>
        <time>2023-10-28T15:04:38Z</time>
      </trkpt>
      <trkpt lat="45.12565" lon="1.30049">
        <ele>126.1</ele>
        <time>2023-10-28T15:04:39Z</time>
      </trkpt>
      <trkpt lat="45.12566" lon="1.30053">
        <ele>125.7</ele>
        <time>2023-10-28T15:04:40Z</time>
      </trkpt>
      <trkpt lat="45.12568" lon="1.30056">
        <ele>125.3</ele>
        <time>2023-10-28T15:04:41Z</time>
      </trkpt>
      <trkpt lat="45.1257" lon="1.3006">
        <ele>124.9</ele>
        <time>2023-10-28T15:04:42Z</time>
      </trkpt>
      <trkpt lat="45.12571" lon="1.30064">
        <ele>124.5</ele>
        <time>2023-10-28T15:04:43Z</time>
      </trkpt>
      <trkpt lat="45.12573" lon="1.30068">
        <ele>124.1</ele>
        <time>2023-10-28T15:04:44Z</time>
      </trkpt>
      <trkpt lat="45.12574" lon="1.30072">
        <ele>123.7</ele>
        <time>2023-10-28T15:04:45Z</time>
      </trkpt>
      <trkpt lat="45.12576" lon="1.30076">
        <ele>123.3</ele>
        <time>2023-10-28T15:04:46Z</time>
      </trkpt>
      <trkpt lat="45.12577" lon="1.3008">
        <ele>123</ele>
        <time>2023-10-28T15:04:47Z</time>
      </trkpt>
      <trkpt lat="45.12578" lon="1.30084">
        <ele>122.6</ele>
        <time>2023-10-28T15:04:48Z</time>
      </trkpt>
      <trkpt lat="45.12579" lon="1.30087">
        <ele>122.2</ele>
        <time>2023-10-28T15:04:49Z</time>
      </trkpt>
      <trkpt lat="45.12581" lon="1.30091">
        <ele>121.8</ele>
        <time>2023-10-28T15:04:50Z</time>
      </trkpt>
      <trkpt lat="45.12582" lon="1.30095">
        <ele>121.5</ele>
        <time>2023-10-28T15:04:51Z</time>
      </trkpt>
      <trkpt lat="45.12583" lon="1.30099">
        <ele>121.1</ele>
        <time>2023-10-28T15:04:52Z</time>
      </trkpt>
      <trkpt lat="45.12584" lon="1.30103">
        <ele>120.7</ele>
        <time>2023-10-28T15:04:53Z</time>
      </trkpt>
      <trkpt lat="45.12586" lon="1.30108">
        <ele>120.3</ele>
        <time>2023-10-28T15:04:54Z</time>
      </trkpt>
      <trkpt lat="45.12587" lon="1.30112">
        <ele>119.9</ele>
        <time>2023-10-28T15:04:55Z</time>
      </trkpt>
      <trkpt lat="45.12587" lon="1.30116">
        <ele>119.4</ele>
        <time>2023-10-28T15:04:56Z</time>
      </trkpt>
      <trkpt lat="45.12589" lon="1.30121">
        <ele>119</ele>
        <time>2023-10-28T15:04:57Z</time>
      </trkpt>
      <trkpt lat="45.12589" lon="1.30125">
        <ele>118.6</ele>
        <time>2023-10-28T15:04:58Z</time>
      </trkpt>
      <trkpt lat="45.1259" lon="1.30129">
        <ele>118.2</ele>
        <time>2023-10-28T15:04:59Z</time>
      </trkpt>
      <trkpt lat="45.1259" lon="1.30134">
        <ele>117.8</ele>
        <time>2023-10-28T15:05:00Z</time>
      </trkpt>
      <trkpt lat="45.12591" lon="1.30138">
        <ele>117.4</ele>
        <time>2023-10-28T15:05:01Z</time>
      </trkpt>
      <trkpt lat="45.12592" lon="1.30143">
        <ele>117</ele>
        <time>2023-10-28T15:05:02Z</time>
      </trkpt>
      <trkpt lat="45.12592" lon="1.30147">
        <ele>116.6</ele>
        <time>2023-10-28T15:05:03Z</time>
      </trkpt>
      <trkpt lat="45.12592" lon="1.30151">
        <ele>116.2</ele>
        <time>2023-10-28T15:05:04Z</time>
      </trkpt>
      <trkpt lat="45.12593" lon="1.30156">
        <ele>115.7</ele>
        <time>2023-10-28T15:05:05Z</time>
      </trkpt>
      <trkpt lat="45.12593" lon="1.3016">
        <ele>115.4</ele>
        <time>2023-10-28T15:05:06Z</time>
      </trkpt>
      <trkpt lat="45.12593" lon="1.30164">
        <ele>115</ele>
        <time>2023-10-28T15:05:07Z</time>
      </trkpt>
      <trkpt lat="45.12594" lon="1.30168">
        <ele>114.6</ele>
        <time>2023-10-28T15:05:08Z</time>
      </trkpt>
      <trkpt lat="45.12594" lon="1.30172">
        <ele>114.2</ele>
        <time>2023-10-28T15:05:09Z</time>
      </trkpt>
      <trkpt lat="45.12594" lon="1.30176">
        <ele>113.8</ele>
        <time>2023-10-28T15:05:10Z</time>
      </trkpt>
      <trkpt lat="45.12594" lon="1.3018">
        <ele>113.4</ele>
        <time>2023-10-28T15:05:11Z</time>
      </trkpt>
      <trkpt lat="45.12595" lon="1.30184">
        <ele>113.1</ele>
        <time>2023-10-28T15:05:12Z</time>
      </trkpt>
      <trkpt lat="45.12595" lon="1.30188">
        <ele>112.7</ele>
        <time>2023-10-28T15:05:13Z</time>
      </trkpt>
      <trkpt lat="45.12596" lon="1.30192">
        <ele>112.3</ele>
        <time>2023-10-28T15:05:14Z</time>
      </trkpt>
      <trkpt lat="45.12596" lon="1.30196">
        <ele>112</ele>
        <time>2023-10-28T15:05:15Z</time>
      </trkpt>
      <trkpt lat="45.12597" lon="1.30199">
        <ele>111.6</ele>
        <time>2023-10-28T15:05:16Z</time>
      </trkpt>
      <trkpt lat="45.12598" lon="1.30203">
        <ele>111.3</ele>
        <time>2023-10-28T15:05:17Z</time>
      </trkpt>
      <trkpt lat="45.126" lon="1.30207">
        <ele>110.9</ele>
        <time>2023-10-28T15:05:18Z</time>
      </trkpt>
      <trkpt lat="45.126" lon="1.3021">
        <ele>110.6</ele>
        <time>2023-10-28T15:05:19Z</time>
      </trkpt>
      <trkpt lat="45.12602" lon="1.30213">
        <ele>110.2</ele>
        <time>2023-10-28T15:05:20Z</time>
      </trkpt>
      <trkpt lat="45.12603" lon="1.30217">
        <ele>109.9</ele>
        <time>2023-10-28T15:05:21Z</time>
      </trkpt>
      <trkpt lat="45.12605" lon="1.3022">
        <ele>109.6</ele>
        <time>2023-10-28T15:05:22Z</time>
      </trkpt>
      <trkpt lat="45.12606" lon="1.30223">
        <ele>109.3</ele>
        <time>2023-10-28T15:05:23Z</time>
      </trkpt>
      <trkpt lat="45.12608" lon="1.30226">
        <ele>108.9</ele>
        <time>2023-10-28T15:05:24Z</time>
      </trkpt>
      <trkpt lat="45.1261" lon="1.30229">
        <ele>108.6</ele>
        <time>2023-10-28T15:05:25Z</time>
      </trkpt>
      <trkpt lat="45.12613" lon="1.30231">
        <ele>108.3</ele>
        <time>2023-10-28T15:05:26Z</time>
      </trkpt>
      <trkpt lat="45.12614" lon="1.30234">
        <ele>107.9</ele>
        <time>2023-10-28T15:05:27Z</time>
      </trkpt>
      <trkpt lat="45.12616" lon="1.30238">
        <ele>107.6</ele>
        <time>2023-10-28T15:05:28Z</time>
      </trkpt>
      <trkpt lat="45.12618" lon="1.30241">
        <ele>107.3</ele>
        <time>2023-10-28T15:05:29Z</time>
      </trkpt>
      <trkpt lat="45.1262" lon="1.30244">
        <ele>107</ele>
        <time>2023-10-28T15:05:30Z</time>
      </trkpt>
      <trkpt lat="45.12622" lon="1.30247">
        <ele>106.7</ele>
        <time>2023-10-28T15:05:31Z</time>
      </trkpt>
      <trkpt lat="45.12623" lon="1.30251">
        <ele>106.4</ele>
        <time>2023-10-28T15:05:32Z</time>
      </trkpt>
      <trkpt lat="45.12625" lon="1.30254">
        <ele>106.2</ele>
        <time>2023-10-28T15:05:33Z</time>
      </trkpt>
      <trkpt lat="45.12627" lon="1.30258">
        <ele>105.9</ele>
        <time>2023-10-28T15:05:34Z</time>
      </trkpt>
      <trkpt lat="45.12628" lon="1.30262">
        <ele>105.7</ele>
        <time>2023-10-28T15:05:35Z</time>
      </trkpt>
      <trkpt lat="45.1263" lon="1.30266">
        <ele>105.4</ele>
        <time>2023-10-28T15:05:36Z</time>
      </trkpt>
      <trkpt lat="45.12631" lon="1.30269">
        <ele>105.2</ele>
        <time>2023-10-28T15:05:37Z</time>
      </trkpt>
      <trkpt lat="45.12632" lon="1.30273">
        <ele>105</ele>
        <time>2023-10-28T15:05:38Z</time>
      </trkpt>
      <trkpt lat="45.12634" lon="1.30277">
        <ele>104.7</ele>
        <time>2023-10-28T15:05:39Z</time>
      </trkpt>
      <trkpt lat="45.12635" lon="1.30279">
        <ele>104.8</ele>
        <time>2023-10-28T15:05:40Z</time>
      </trkpt>
      <trkpt lat="45.12635" lon="1.30281">
        <ele>104.4</ele>
        <time>2023-10-28T15:05:41Z</time>
      </trkpt>
      <trkpt lat="45.12636" lon="1.30281">
        <ele>104.4</ele>
        <time>2023-10-28T15:05:42Z</time>
      </trkpt>
      <trkpt lat="45.12637" lon="1.30281">
        <ele>104.3</ele>
        <time>2023-10-28T15:05:43Z</time>
      </trkpt>
      <trkpt lat="45.12638" lon="1.3028">
        <ele>104.3</ele>
        <time>2023-10-28T15:05:44Z</time>
      </trkpt>
      <trkpt lat="45.12639" lon="1.30278">
        <ele>103.9</ele>
        <time>2023-10-28T15:05:45Z</time>
      </trkpt>
      <trkpt lat="45.1264" lon="1.30276">
        <ele>103.7</ele>
        <time>2023-10-28T15:05:46Z</time>
      </trkpt>
      <trkpt lat="45.12642" lon="1.30274">
        <ele>103.3</ele>
        <time>2023-10-28T15:05:47Z</time>
      </trkpt>
      <trkpt lat="45.12644" lon="1.30273">
        <ele>103.1</ele>
        <time>2023-10-28T15:05:48Z</time>
      </trkpt>
      <trkpt lat="45.12645" lon="1.30271">
        <ele>102.7</ele>
        <time>2023-10-28T15:05:49Z</time>
      </trkpt>
      <trkpt lat="45.12647" lon="1.3027">
        <ele>102.7</ele>
        <time>2023-10-28T15:05:50Z</time>
      </trkpt>
      <trkpt lat="45.12648" lon="1.30269">
        <ele>102.1</ele>
        <time>2023-10-28T15:05:51Z</time>
      </trkpt>
      <trkpt lat="45.1265" lon="1.30267">
        <ele>102.1</ele>
        <time>2023-10-28T15:05:52Z</time>
      </trkpt>
      <trkpt lat="45.12651" lon="1.30266">
        <ele>101.6</ele>
        <time>2023-10-28T15:05:53Z</time>
      </trkpt>
      <trkpt lat="45.12653" lon="1.30264">
        <ele>101.4</ele>
        <time>2023-10-28T15:05:54Z</time>
      </trkpt>
      <trkpt lat="45.12654" lon="1.30262">
        <ele>101</ele>
        <time>2023-10-28T15:05:55Z</time>
      </trkpt>
      <trkpt lat="45.12655" lon="1.30262">
        <ele>100.9</ele>
        <time>2023-10-28T15:05:56Z</time>
      </trkpt>
      <trkpt lat="45.12656" lon="1.30262">
        <ele>100.9</ele>
        <time>2023-10-28T15:05:57Z</time>
      </trkpt>
      <trkpt lat="45.12657" lon="1.30264">
        <ele>100.3</ele>
        <time>2023-10-28T15:05:58Z</time>
      </trkpt>
      <trkpt lat="45.12658" lon="1.30266">
        <ele>100.5</ele>
        <time>2023-10-28T15:05:59Z</time>
      </trkpt>
      <trkpt lat="45.12659" lon="1.30269">
        <ele>100.4</ele>
        <time>2023-10-28T15:06:00Z</time>
      </trkpt>
      <trkpt lat="45.1266" lon="1.30272">
        <ele>100.1</ele>
        <time>2023-10-28T15:06:01Z</time>
      </trkpt>
      <trkpt lat="45.12661" lon="1.30276">
        <ele>100.2</ele>
        <time>2023-10-28T15:06:02Z</time>
      </trkpt>
      <trkpt lat="45.12662" lon="1.3028">
        <ele>100.4</ele>
        <time>2023-10-28T15:06:03Z</time>
      </trkpt>
      <trkpt lat="45.12663" lon="1.30285">
        <ele>100</ele>
        <time>2023-10-28T15:06:04Z</time>
      </trkpt>
      <trkpt lat="45.12664" lon="1.30289">
        <ele>100.2</ele>
        <time>2023-10-28T15:06:05Z</time>
      </trkpt>
      <trkpt lat="45.12664" lon="1.30294">
        <ele>100.3</ele>
        <time>2023-10-28T15:06:06Z</time>
      </trkpt>
      <trkpt lat="45.12664" lon="1.30298">
        <ele>100.5</ele>
        <time>2023-10-28T15:06:07Z</time>
      </trkpt>
      <trkpt lat="45.12664" lon="1.30301">
        <ele>100.6</ele>
        <time>2023-10-28T15:06:08Z</time>
      </trkpt>
      <trkpt lat="45.12665" lon="1.30305">
        <ele>100.8</ele>
        <time>2023-10-28T15:06:09Z</time>
      </trkpt>
      <trkpt lat="45.12665" lon="1.30308">
        <ele>100.7</ele>
        <time>2023-10-28T15:06:10Z</time>
      </trkpt>
      <trkpt lat="45.12665" lon="1.30311">
        <ele>100.9</ele>
        <time>2023-10-28T15:06:11Z</time>
      </trkpt>
      <trkpt lat="45.12666" lon="1.30312">
        <ele>100.3</ele>
        <time>2023-10-28T15:06:12Z</time>
      </trkpt>
      <trkpt lat="45.12666" lon="1.30313">
        <ele>100.5</ele>
        <time>2023-10-28T15:06:13Z</time>
      </trkpt>
      <trkpt lat="45.12668" lon="1.30313">
        <ele>100.4</ele>
        <time>2023-10-28T15:06:14Z</time>
      </trkpt>
      <trkpt lat="45.12669" lon="1.30313">
        <ele>99.9</ele>
        <time>2023-10-28T15:06:15Z</time>
      </trkpt>
      <trkpt lat="45.12671" lon="1.30313">
        <ele>99.8</ele>
        <time>2023-10-28T15:06:16Z</time>
      </trkpt>
      <trkpt lat="45.12672" lon="1.30312">
        <ele>99.1</ele>
        <time>2023-10-28T15:06:17Z</time>
      </trkpt>
      <trkpt lat="45.12674" lon="1.30312">
        <ele>99</ele>
        <time>2023-10-28T15:06:18Z</time>
      </trkpt>
      <trkpt lat="45.12677" lon="1.30311">
        <ele>98.5</ele>
        <time>2023-10-28T15:06:19Z</time>
      </trkpt>
      <trkpt lat="45.12679" lon="1.3031">
        <ele>97.9</ele>
        <time>2023-10-28T15:06:20Z</time>
      </trkpt>
      <trkpt lat="45.1268" lon="1.3031">
        <ele>97.9</ele>
        <time>2023-10-28T15:06:21Z</time>
      </trkpt>
      <trkpt lat="45.12682" lon="1.3031">
        <ele>97.4</ele>
        <time>2023-10-28T15:06:22Z</time>
      </trkpt>
      <trkpt lat="45.12684" lon="1.3031">
        <ele>96.9</ele>
        <time>2023-10-28T15:06:23Z</time>
      </trkpt>
      <trkpt lat="45.12686" lon="1.3031">
        <ele>96.8</ele>
        <time>2023-10-28T15:06:24Z</time>
      </trkpt>
      <trkpt lat="45.12687" lon="1.30311">
        <ele>96.3</ele>
        <time>2023-10-28T15:06:25Z</time>
      </trkpt>
      <trkpt lat="45.12688" lon="1.30311">
        <ele>96.3</ele>
        <time>2023-10-28T15:06:26Z</time>
      </trkpt>
      <trkpt lat="45.1269" lon="1.30311">
        <ele>95.7</ele>
        <time>2023-10-28T15:06:27Z</time>
      </trkpt>
      <trkpt lat="45.12692" lon="1.30312">
        <ele>95.7</ele>
        <time>2023-10-28T15:06:28Z</time>
      </trkpt>
      <trkpt lat="45.12694" lon="1.30313">
        <ele>95.4</ele>
        <time>2023-10-28T15:06:29Z</time>
      </trkpt>
      <trkpt lat="45.12696" lon="1.30313">
        <ele>94.8</ele>
        <time>2023-10-28T15:06:30Z</time>
      </trkpt>
      <trkpt lat="45.12698" lon="1.30313">
        <ele>94.7</ele>
        <time>2023-10-28T15:06:31Z</time>
      </trkpt>
      <trkpt lat="45.127" lon="1.30314">
        <ele>94.2</ele>
        <time>2023-10-28T15:06:32Z</time>
      </trkpt>
      <trkpt lat="45.12703" lon="1.30313">
        <ele>93.7</ele>
        <time>2023-10-28T15:06:33Z</time>
      </trkpt>
      <trkpt lat="45.12705" lon="1.30313">
        <ele>93.4</ele>
        <time>2023-10-28T15:06:34Z</time>
      </trkpt>
      <trkpt lat="45.12708" lon="1.30312">
        <ele>93.1</ele>
        <time>2023-10-28T15:06:35Z</time>
      </trkpt>
      <trkpt lat="45.1271" lon="1.30311">
        <ele>92.8</ele>
        <time>2023-10-28T15:06:36Z</time>
      </trkpt>
      <trkpt lat="45.12712" lon="1.30312">
        <ele>92.5</ele>
        <time>2023-10-28T15:06:37Z</time>
      </trkpt>
      <trkpt lat="45.12714" lon="1.30312">
        <ele>92.4</ele>
        <time>2023-10-28T15:06:38Z</time>
      </trkpt>
      <trkpt lat="45.12716" lon="1.30312">
        <ele>92.4</ele>
        <time>2023-10-28T15:06:39Z</time>
      </trkpt>
      <trkpt lat="45.12717" lon="1.30313">
        <ele>92.3</ele>
        <time>2023-10-28T15:06:40Z</time>
      </trkpt>
      <trkpt lat="45.12718" lon="1.30315">
        <ele>92.3</ele>
        <time>2023-10-28T15:06:41Z</time>
      </trkpt>
      <trkpt lat="45.12718" lon="1.30317">
        <ele>92.2</ele>
        <time>2023-10-28T15:06:42Z</time>
      </trkpt>
      <trkpt lat="45.12718" lon="1.3032">
        <ele>92.2</ele>
        <time>2023-10-28T15:06:43Z</time>
      </trkpt>
      <trkpt lat="45.12719" lon="1.30322">
        <ele>92.2</ele>
        <time>2023-10-28T15:06:44Z</time>
      </trkpt>
      <trkpt lat="45.12719" lon="1.30325">
        <ele>92.1</ele>
        <time>2023-10-28T15:06:45Z</time>
      </trkpt>
      <trkpt lat="45.12721" lon="1.30329">
        <ele>92.1</ele>
        <time>2023-10-28T15:06:46Z</time>
      </trkpt>
      <trkpt lat="45.12721" lon="1.30332">
        <ele>92.1</ele>
        <time>2023-10-28T15:06:47Z</time>
      </trkpt>
      <trkpt lat="45.12722" lon="1.30335">
        <ele>92.1</ele>
        <time>2023-10-28T15:06:48Z</time>
      </trkpt>
      <trkpt lat="45.12723" lon="1.30338">
        <ele>92.1</ele>
        <time>2023-10-28T15:06:49Z</time>
      </trkpt>
      <trkpt lat="45.12725" lon="1.30341">
        <ele>92.1</ele>
        <time>2023-10-28T15:06:50Z</time>
      </trkpt>
      <trkpt lat="45.12726" lon="1.30344">
        <ele>92.1</ele>
        <time>2023-10-28T15:06:51Z</time>
      </trkpt>
      <trkpt lat="45.12727" lon="1.30346">
        <ele>92.2</ele>
        <time>2023-10-28T15:06:52Z</time>
      </trkpt>
      <trkpt lat="45.12729" lon="1.30349">
        <ele>92.2</ele>
        <time>2023-10-28T15:06:53Z</time>
      </trkpt>
      <trkpt lat="45.1273" lon="1.30353">
        <ele>92.3</ele>
        <time>2023-10-28T15:06:54Z</time>
      </trkpt>
      <trkpt lat="45.12731" lon="1.30356">
        <ele>92.3</ele>
        <time>2023-10-28T15:06:55Z</time>
      </trkpt>
      <trkpt lat="45.12732" lon="1.3036">
        <ele>92.4</ele>
        <time>2023-10-28T15:06:56Z</time>
      </trkpt>
      <trkpt lat="45.12734" lon="1.30364">
        <ele>92.5</ele>
        <time>2023-10-28T15:06:57Z</time>
      </trkpt>
      <trkpt lat="45.12735" lon="1.30367">
        <ele>92.5</ele>
        <time>2023-10-28T15:06:58Z</time>
      </trkpt>
      <trkpt lat="45.12737" lon="1.30371">
        <ele>92.6</ele>
        <time>2023-10-28T15:06:59Z</time>
      </trkpt>
      <trkpt lat="45.12738" lon="1.30375">
        <ele>92.6</ele>
        <time>2023-10-28T15:07:00Z</time>
      </trkpt>
      <trkpt lat="45.12739" lon="1.30378">
        <ele>92.7</ele>
        <time>2023-10-28T15:07:01Z</time>
      </trkpt>
      <trkpt lat="45.12741" lon="1.30382">
        <ele>92.7</ele>
        <time>2023-10-28T15:07:02Z</time>
      </trkpt>
      <trkpt lat="45.12742" lon="1.30385">
        <ele>92.7</ele>
        <time>2023-10-28T15:07:03Z</time>
      </trkpt>
      <trkpt lat="45.12743" lon="1.30388">
        <ele>92.7</ele>
        <time>2023-10-28T15:07:04Z</time>
      </trkpt>
      <trkpt lat="45.12744" lon="1.30392">
        <ele>92.7</ele>
        <time>2023-10-28T15:07:05Z</time>
      </trkpt>
      <trkpt lat="45.12745" lon="1.30395">
        <ele>92.7</ele>
        <time>2023-10-28T15:07:06Z</time>
      </trkpt>
      <trkpt lat="45.12746" lon="1.30398">
        <ele>92.8</ele>
        <time>2023-10-28T15:07:07Z</time>
      </trkpt>
      <trkpt lat="45.12747" lon="1.30401">
        <ele>92.8</ele>
        <time>2023-10-28T15:07:08Z</time>
      </trkpt>
      <trkpt lat="45.12748" lon="1.30405">
        <ele>92.8</ele>
        <time>2023-10-28T15:07:09Z</time>
      </trkpt>
      <trkpt lat="45.1275" lon="1.30408">
        <ele>92.7</ele>
        <time>2023-10-28T15:07:10Z</time>
      </trkpt>
      <trkpt lat="45.12751" lon="1.30411">
        <ele>92.7</ele>
        <time>2023-10-28T15:07:11Z</time>
      </trkpt>
      <trkpt lat="45.12753" lon="1.30414">
        <ele>92.7</ele>
        <time>2023-10-28T15:07:12Z</time>
      </trkpt>
      <trkpt lat="45.12754" lon="1.30418">
        <ele>92.7</ele>
        <time>2023-10-28T15:07:13Z</time>
      </trkpt>
      <trkpt lat="45.12756" lon="1.30421">
        <ele>92.6</ele>
        <time>2023-10-28T15:07:14Z</time>
      </trkpt>
      <trkpt lat="45.12758" lon="1.30424">
        <ele>92.5</ele>
        <time>2023-10-28T15:07:15Z</time>
      </trkpt>
      <trkpt lat="45.1276" lon="1.30427">
        <ele>91.2</ele>
        <time>2023-10-28T15:07:16Z</time>
      </trkpt>
      <trkpt lat="45.12762" lon="1.30429">
        <ele>91</ele>
        <time>2023-10-28T15:07:17Z</time>
      </trkpt>
      <trkpt lat="45.12763" lon="1.30431">
        <ele>90.9</ele>
        <time>2023-10-28T15:07:18Z</time>
      </trkpt>
      <trkpt lat="45.12764" lon="1.30432">
        <ele>90.8</ele>
        <time>2023-10-28T15:07:19Z</time>
      </trkpt>
      <trkpt lat="45.12766" lon="1.30432">
        <ele>90.7</ele>
        <time>2023-10-28T15:07:20Z</time>
      </trkpt>
      <trkpt lat="45.12768" lon="1.30432">
        <ele>90.6</ele>
        <time>2023-10-28T15:07:21Z</time>
      </trkpt>
      <trkpt lat="45.1277" lon="1.30431">
        <ele>90.4</ele>
        <time>2023-10-28T15:07:22Z</time>
      </trkpt>
      <trkpt lat="45.12772" lon="1.3043">
        <ele>90.3</ele>
        <time>2023-10-28T15:07:23Z</time>
      </trkpt>
      <trkpt lat="45.12774" lon="1.30428">
        <ele>90.3</ele>
        <time>2023-10-28T15:07:24Z</time>
      </trkpt>
      <trkpt lat="45.12776" lon="1.30427">
        <ele>90.1</ele>
        <time>2023-10-28T15:07:25Z</time>
      </trkpt>
      <trkpt lat="45.12778" lon="1.30427">
        <ele>90.1</ele>
        <time>2023-10-28T15:07:26Z</time>
      </trkpt>
      <trkpt lat="45.1278" lon="1.30426">
        <ele>90</ele>
        <time>2023-10-28T15:07:27Z</time>
      </trkpt>
      <trkpt lat="45.12782" lon="1.30427">
        <ele>89.9</ele>
        <time>2023-10-28T15:07:28Z</time>
      </trkpt>
      <trkpt lat="45.12784" lon="1.30428">
        <ele>89.9</ele>
        <time>2023-10-28T15:07:29Z</time>
      </trkpt>
      <trkpt lat="45.12785" lon="1.30429">
        <ele>89.8</ele>
        <time>2023-10-28T15:07:30Z</time>
      </trkpt>
      <trkpt lat="45.12787" lon="1.30431">
        <ele>89.8</ele>
        <time>2023-10-28T15:07:31Z</time>
      </trkpt>
      <trkpt lat="45.12788" lon="1.30432">
        <ele>89.8</ele>
        <time>2023-10-28T15:07:32Z</time>
      </trkpt>
      <trkpt lat="45.1279" lon="1.30434">
        <ele>89.7</ele>
        <time>2023-10-28T15:07:33Z</time>
      </trkpt>
      <trkpt lat="45.12791" lon="1.30437">
        <ele>89.7</ele>
        <time>2023-10-28T15:07:34Z</time>
      </trkpt>
      <trkpt lat="45.12793" lon="1.3044">
        <ele>89.7</ele>
        <time>2023-10-28T15:07:35Z</time>
      </trkpt>
      <trkpt lat="45.12794" lon="1.30443">
        <ele>89.7</ele>
        <time>2023-10-28T15:07:36Z</time>
      </trkpt>
      <trkpt lat="45.12795" lon="1.30447">
        <ele>89.6</ele>
        <time>2023-10-28T15:07:37Z</time>
      </trkpt>
      <trkpt lat="45.12796" lon="1.30451">
        <ele>89.6</ele>
        <time>2023-10-28T15:07:38Z</time>
      </trkpt>
      <trkpt lat="45.12797" lon="1.30455">
        <ele>89.6</ele>
        <time>2023-10-28T15:07:39Z</time>
      </trkpt>
      <trkpt lat="45.12798" lon="1.30459">
        <ele>89.6</ele>
        <time>2023-10-28T15:07:40Z</time>
      </trkpt>
      <trkpt lat="45.12798" lon="1.30463">
        <ele>89.6</ele>
        <time>2023-10-28T15:07:41Z</time>
      </trkpt>
      <trkpt lat="45.12799" lon="1.30467">
        <ele>89.6</ele>
        <time>2023-10-28T15:07:42Z</time>
      </trkpt>
      <trkpt lat="45.128" lon="1.30471">
        <ele>89.5</ele>
        <time>2023-10-28T15:07:43Z</time>
      </trkpt>
      <trkpt lat="45.128" lon="1.30476">
        <ele>89.5</ele>
        <time>2023-10-28T15:07:44Z</time>
      </trkpt>
      <trkpt lat="45.12801" lon="1.3048">
        <ele>89.5</ele>
        <time>2023-10-28T15:07:45Z</time>
      </trkpt>
      <trkpt lat="45.12801" lon="1.30484">
        <ele>89.5</ele>
        <time>2023-10-28T15:07:46Z</time>
      </trkpt>
      <trkpt lat="45.12802" lon="1.30488">
        <ele>89.5</ele>
        <time>2023-10-28T15:07:47Z</time>
      </trkpt>
      <trkpt lat="45.12803" lon="1.30492">
        <ele>89.5</ele>
        <time>2023-10-28T15:07:48Z</time>
      </trkpt>
      <trkpt lat="45.12804" lon="1.30496">
        <ele>89.5</ele>
        <time>2023-10-28T15:07:49Z</time>
      </trkpt>
      <trkpt lat="45.12804" lon="1.305">
        <ele>89.5</ele>
        <time>2023-10-28T15:07:50Z</time>
      </trkpt>
      <trkpt lat="45.12805" lon="1.30504">
        <ele>89.5</ele>
        <time>2023-10-28T15:07:51Z</time>
      </trkpt>
      <trkpt lat="45.12806" lon="1.30508">
        <ele>89.5</ele>
        <time>2023-10-28T15:07:52Z</time>
      </trkpt>
      <trkpt lat="45.12807" lon="1.30512">
        <ele>89.5</ele>
        <time>2023-10-28T15:07:53Z</time>
      </trkpt>
      <trkpt lat="45.12808" lon="1.30515">
        <ele>89.5</ele>
        <time>2023-10-28T15:07:54Z</time>
      </trkpt>
      <trkpt lat="45.1281" lon="1.30518">
        <ele>89.6</ele>
        <time>2023-10-28T15:07:55Z</time>
      </trkpt>
      <trkpt lat="45.12812" lon="1.30519">
        <ele>89.6</ele>
        <time>2023-10-28T15:07:56Z</time>
      </trkpt>
      <trkpt lat="45.12814" lon="1.3052">
        <ele>89.6</ele>
        <time>2023-10-28T15:07:57Z</time>
      </trkpt>
      <trkpt lat="45.12817" lon="1.30519">
        <ele>89.6</ele>
        <time>2023-10-28T15:07:58Z</time>
      </trkpt>
      <trkpt lat="45.12819" lon="1.30519">
        <ele>89.6</ele>
        <time>2023-10-28T15:07:59Z</time>
      </trkpt>
      <trkpt lat="45.12822" lon="1.30517">
        <ele>90</ele>
        <time>2023-10-28T15:08:00Z</time>
      </trkpt>
      <trkpt lat="45.12825" lon="1.30516">
        <ele>90.1</ele>
        <time>2023-10-28T15:08:01Z</time>
      </trkpt>
      <trkpt lat="45.12827" lon="1.30514">
        <ele>90.2</ele>
        <time>2023-10-28T15:08:02Z</time>
      </trkpt>
      <trkpt lat="45.1283" lon="1.30512">
        <ele>90.2</ele>
        <time>2023-10-28T15:08:03Z</time>
      </trkpt>
      <trkpt lat="45.12833" lon="1.30511">
        <ele>90.3</ele>
        <time>2023-10-28T15:08:04Z</time>
      </trkpt>
      <trkpt lat="45.12837" lon="1.3051">
        <ele>90.4</ele>
        <time>2023-10-28T15:08:05Z</time>
      </trkpt>
      <trkpt lat="45.1284" lon="1.30509">
        <ele>90.4</ele>
        <time>2023-10-28T15:08:06Z</time>
      </trkpt>
      <trkpt lat="45.12843" lon="1.30508">
        <ele>90.5</ele>
        <time>2023-10-28T15:08:07Z</time>
      </trkpt>
      <trkpt lat="45.12846" lon="1.30506">
        <ele>90.5</ele>
        <time>2023-10-28T15:08:08Z</time>
      </trkpt>
      <trkpt lat="45.12849" lon="1.30505">
        <ele>90.4</ele>
        <time>2023-10-28T15:08:09Z</time>
      </trkpt>
      <trkpt lat="45.12852" lon="1.30504">
        <ele>90.4</ele>
        <time>2023-10-28T15:08:10Z</time>
      </trkpt>
      <trkpt lat="45.12855" lon="1.30503">
        <ele>90.3</ele>
        <time>2023-10-28T15:08:11Z</time>
      </trkpt>
      <trkpt lat="45.12858" lon="1.30502">
        <ele>90.2</ele>
        <time>2023-10-28T15:08:12Z</time>
      </trkpt>
      <trkpt lat="45.12861" lon="1.30501">
        <ele>90.1</ele>
        <time>2023-10-28T15:08:13Z</time>
      </trkpt>
      <trkpt lat="45.12864" lon="1.305">
        <ele>90</ele>
        <time>2023-10-28T15:08:14Z</time>
      </trkpt>
      <trkpt lat="45.12867" lon="1.30499">
        <ele>89.9</ele>
        <time>2023-10-28T15:08:15Z</time>
      </trkpt>
      <trkpt lat="45.1287" lon="1.30498">
        <ele>89.7</ele>
        <time>2023-10-28T15:08:16Z</time>
      </trkpt>
      <trkpt lat="45.12873" lon="1.30497">
        <ele>89.6</ele>
        <time>2023-10-28T15:08:17Z</time>
      </trkpt>
      <trkpt lat="45.12876" lon="1.30495">
        <ele>89.4</ele>
        <time>2023-10-28T15:08:18Z</time>
      </trkpt>
      <trkpt lat="45.12879" lon="1.30494">
        <ele>89.3</ele>
        <time>2023-10-28T15:08:19Z</time>
      </trkpt>
      <trkpt lat="45.12882" lon="1.30493">
        <ele>89.1</ele>
        <time>2023-10-28T15:08:20Z</time>
      </trkpt>
      <trkpt lat="45.12885" lon="1.30492">
        <ele>88.9</ele>
        <time>2023-10-28T15:08:21Z</time>
      </trkpt>
      <trkpt lat="45.12888" lon="1.30491">
        <ele>88.7</ele>
        <time>2023-10-28T15:08:22Z</time>
      </trkpt>
      <trkpt lat="45.1289" lon="1.3049">
        <ele>88.5</ele>
        <time>2023-10-28T15:08:23Z</time>
      </trkpt>
      <trkpt lat="45.12893" lon="1.30489">
        <ele>88.3</ele>
        <time>2023-10-28T15:08:24Z</time>
      </trkpt>
      <trkpt lat="45.12896" lon="1.30488">
        <ele>88.2</ele>
        <time>2023-10-28T15:08:25Z</time>
      </trkpt>
      <trkpt lat="45.12899" lon="1.30486">
        <ele>88</ele>
        <time>2023-10-28T15:08:26Z</time>
      </trkpt>
      <trkpt lat="45.12902" lon="1.30485">
        <ele>87.9</ele>
        <time>2023-10-28T15:08:27Z</time>
      </trkpt>
      <trkpt lat="45.12904" lon="1.30483">
        <ele>87.8</ele>
        <time>2023-10-28T15:08:28Z</time>
      </trkpt>
      <trkpt lat="45.12907" lon="1.30481">
        <ele>87.7</ele>
        <time>2023-10-28T15:08:29Z</time>
      </trkpt>
      <trkpt lat="45.1291" lon="1.30478">
        <ele>87.6</ele>
        <time>2023-10-28T15:08:30Z</time>
      </trkpt>
      <trkpt lat="45.12912" lon="1.30476">
        <ele>87.5</ele>
        <time>2023-10-28T15:08:31Z</time>
      </trkpt>
      <trkpt lat="45.12914" lon="1.30472">
        <ele>87.5</ele>
        <time>2023-10-28T15:08:32Z</time>
      </trkpt>
      <trkpt lat="45.12916" lon="1.30469">
        <ele>87.3</ele>
        <time>2023-10-28T15:08:33Z</time>
      </trkpt>
      <trkpt lat="45.12918" lon="1.30465">
        <ele>87.3</ele>
        <time>2023-10-28T15:08:34Z</time>
      </trkpt>
      <trkpt lat="45.1292" lon="1.30462">
        <ele>87.3</ele>
        <time>2023-10-28T15:08:35Z</time>
      </trkpt>
      <trkpt lat="45.12921" lon="1.30458">
        <ele>87.3</ele>
        <time>2023-10-28T15:08:36Z</time>
      </trkpt>
      <trkpt lat="45.12923" lon="1.30454">
        <ele>87.4</ele>
        <time>2023-10-28T15:08:37Z</time>
      </trkpt>
      <trkpt lat="45.12924" lon="1.3045">
        <ele>87.4</ele>
        <time>2023-10-28T15:08:38Z</time>
      </trkpt>
      <trkpt lat="45.12925" lon="1.30446">
        <ele>87.4</ele>
        <time>2023-10-28T15:08:39Z</time>
      </trkpt>
      <trkpt lat="45.12927" lon="1.30442">
        <ele>87.4</ele>
        <time>2023-10-28T15:08:40Z</time>
      </trkpt>
      <trkpt lat="45.12928" lon="1.30438">
        <ele>87.4</ele>
        <time>2023-10-28T15:08:41Z</time>
      </trkpt>
      <trkpt lat="45.1293" lon="1.30434">
        <ele>87.5</ele>
        <time>2023-10-28T15:08:42Z</time>
      </trkpt>
      <trkpt lat="45.12932" lon="1.30429">
        <ele>87.5</ele>
        <time>2023-10-28T15:08:43Z</time>
      </trkpt>
      <trkpt lat="45.12934" lon="1.30425">
        <ele>87.5</ele>
        <time>2023-10-28T15:08:44Z</time>
      </trkpt>
    </trkseg>
  </trk>
</gpx>